<?xml version="1.0" encoding="UTF-8" standalone="no" ?>
<gpx xmlns="http://www.topografix.com/GPX/1/1" xmlns:xsi="http://www.w3.org/2001/XMLSchema-instance" xsi:schemaLocation="http://www.topografix.com/GPX/1/1 http://www.topografix.com/GPX/1/1/gpx.xsd" version="1.1" creator="VisuGPX - https://www.visugpx.com">
  <metadata>
    <name>Zagreb - Mignavillers</name>
  </metadata>
  <trk>
    <name><![CDATA[5_Zagreb à Bratislava_705km]]></name>
    <extensions>
      <line xmlns="http://www.topografix.com/GPX/gpx_style/0/2">
        <color>0000FF</color>
        <width>4</width>
      </line>
    </extensions>
    <trkseg>
      <trkpt lat="45.81298" lon="15.97697">
        <ele>135.777298</ele>
        <time>2022-08-05T11:11:28.606Z</time>
      </trkpt>
      <trkpt lat="45.81305" lon="15.9765">
        <ele>135.777298</ele>
        <time>2022-08-05T11:11:52.047Z</time>
      </trkpt>
      <trkpt lat="45.81309" lon="15.97625">
        <ele>135.777298</ele>
        <time>2022-08-05T11:12:04.356Z</time>
      </trkpt>
      <trkpt lat="45.81309" lon="15.97572">
        <ele>135.777298</ele>
        <time>2022-08-05T11:12:30.362Z</time>
      </trkpt>
      <trkpt lat="45.81305" lon="15.97572">
        <ele>135.694715</ele>
        <time>2022-08-05T11:12:33.455Z</time>
      </trkpt>
      <trkpt lat="45.81305" lon="15.97547">
        <ele>135.255464</ele>
        <time>2022-08-05T11:12:38.523Z</time>
      </trkpt>
      <trkpt lat="45.81307" lon="15.9745">
        <ele>133.574973</ele>
        <time>2022-08-05T11:12:57.864Z</time>
      </trkpt>
      <trkpt lat="45.81311" lon="15.9738">
        <ele>132.360223</ele>
        <time>2022-08-05T11:13:11.290Z</time>
      </trkpt>
      <trkpt lat="45.81316" lon="15.97307">
        <ele>131.153267</ele>
        <time>2022-08-05T11:13:24.943Z</time>
      </trkpt>
      <trkpt lat="45.81317" lon="15.97262">
        <ele>130.598749</ele>
        <time>2022-08-05T11:13:33.289Z</time>
      </trkpt>
      <trkpt lat="45.81317" lon="15.97239">
        <ele>130.304255</ele>
        <time>2022-08-05T11:13:37.820Z</time>
      </trkpt>
      <trkpt lat="45.81318" lon="15.97214">
        <ele>130.007299</ele>
        <time>2022-08-05T11:13:42.644Z</time>
      </trkpt>
      <trkpt lat="45.81318" lon="15.97211">
        <ele>129.964156</ele>
        <time>2022-08-05T11:13:43.310Z</time>
      </trkpt>
      <trkpt lat="45.81318" lon="15.97203">
        <ele>129.870551</ele>
        <time>2022-08-05T11:13:44.795Z</time>
      </trkpt>
      <trkpt lat="45.81323" lon="15.97116">
        <ele>128.788169</ele>
        <time>2022-08-05T11:13:58.697Z</time>
      </trkpt>
      <trkpt lat="45.81327" lon="15.97049">
        <ele>128.083412</ele>
        <time>2022-08-05T11:14:10.285Z</time>
      </trkpt>
      <trkpt lat="45.81327" lon="15.97033">
        <ele>128.035192</ele>
        <time>2022-08-05T11:14:13.313Z</time>
      </trkpt>
      <trkpt lat="45.81328" lon="15.97003">
        <ele>127.948999</ele>
        <time>2022-08-05T11:14:18.668Z</time>
      </trkpt>
      <trkpt lat="45.81327" lon="15.96972">
        <ele>127.860196</ele>
        <time>2022-08-05T11:14:24.097Z</time>
      </trkpt>
      <trkpt lat="45.81327" lon="15.96957">
        <ele>127.816674</ele>
        <time>2022-08-05T11:14:26.718Z</time>
      </trkpt>
      <trkpt lat="45.81326" lon="15.96886">
        <ele>127.610103</ele>
        <time>2022-08-05T11:14:38.604Z</time>
      </trkpt>
      <trkpt lat="45.81322" lon="15.96801">
        <ele>127.363229</ele>
        <time>2022-08-05T11:14:53.584Z</time>
      </trkpt>
      <trkpt lat="45.81317" lon="15.96759">
        <ele>127.242664</ele>
        <time>2022-08-05T11:15:01.577Z</time>
      </trkpt>
      <trkpt lat="45.81315" lon="15.96748">
        <ele>127.209342</ele>
        <time>2022-08-05T11:15:03.767Z</time>
      </trkpt>
      <trkpt lat="45.81304" lon="15.96683">
        <ele>127.021588</ele>
        <time>2022-08-05T11:15:15.632Z</time>
      </trkpt>
      <trkpt lat="45.81303" lon="15.96675">
        <ele>126.996084</ele>
        <time>2022-08-05T11:15:17.138Z</time>
      </trkpt>
      <trkpt lat="45.81297" lon="15.96651">
        <ele>126.925262</ele>
        <time>2022-08-05T11:15:21.295Z</time>
      </trkpt>
      <trkpt lat="45.81267" lon="15.9653">
        <ele>126.612438</ele>
        <time>2022-08-05T11:15:43.054Z</time>
      </trkpt>
      <trkpt lat="45.81265" lon="15.9652">
        <ele>126.602305</ele>
        <time>2022-08-05T11:15:44.859Z</time>
      </trkpt>
      <trkpt lat="45.81253" lon="15.96475">
        <ele>126.554411</ele>
        <time>2022-08-05T11:15:53.602Z</time>
      </trkpt>
      <trkpt lat="45.81252" lon="15.9647">
        <ele>126.549854</ele>
        <time>2022-08-05T11:15:54.443Z</time>
      </trkpt>
      <trkpt lat="45.81244" lon="15.96442">
        <ele>126.520089</ele>
        <time>2022-08-05T11:15:59.925Z</time>
      </trkpt>
      <trkpt lat="45.81238" lon="15.96418">
        <ele>126.494727</ele>
        <time>2022-08-05T11:16:04.653Z</time>
      </trkpt>
      <trkpt lat="45.81234" lon="15.96402">
        <ele>126.477894</ele>
        <time>2022-08-05T11:16:07.813Z</time>
      </trkpt>
      <trkpt lat="45.81228" lon="15.96346">
        <ele>126.422145</ele>
        <time>2022-08-05T11:16:18.314Z</time>
      </trkpt>
      <trkpt lat="45.8124" lon="15.96265">
        <ele>126.46816</ele>
        <time>2022-08-05T11:16:34.384Z</time>
      </trkpt>
      <trkpt lat="45.81268" lon="15.96127">
        <ele>126.728209</ele>
        <time>2022-08-05T11:17:02.690Z</time>
      </trkpt>
      <trkpt lat="45.81272" lon="15.9611">
        <ele>126.760993</ele>
        <time>2022-08-05T11:17:06.053Z</time>
      </trkpt>
      <trkpt lat="45.81295" lon="15.95995">
        <ele>126.934209</ele>
        <time>2022-08-05T11:17:29.216Z</time>
      </trkpt>
      <trkpt lat="45.81311" lon="15.95889">
        <ele>127.062724</ele>
        <time>2022-08-05T11:17:51.157Z</time>
      </trkpt>
      <trkpt lat="45.81312" lon="15.95875">
        <ele>127.078675</ele>
        <time>2022-08-05T11:17:53.574Z</time>
      </trkpt>
      <trkpt lat="45.81317" lon="15.95765">
        <ele>127.14116</ele>
        <time>2022-08-05T11:18:13.303Z</time>
      </trkpt>
      <trkpt lat="45.81317" lon="15.95754">
        <ele>127.136669</ele>
        <time>2022-08-05T11:18:15.319Z</time>
      </trkpt>
      <trkpt lat="45.81318" lon="15.95697">
        <ele>127.115209</ele>
        <time>2022-08-05T11:18:25.558Z</time>
      </trkpt>
      <trkpt lat="45.81315" lon="15.95617">
        <ele>127.08459</ele>
        <time>2022-08-05T11:18:41.325Z</time>
      </trkpt>
      <trkpt lat="45.81314" lon="15.95606">
        <ele>127.080384</ele>
        <time>2022-08-05T11:18:43.571Z</time>
      </trkpt>
      <trkpt lat="45.81308" lon="15.95567">
        <ele>127.065024</ele>
        <time>2022-08-05T11:18:50.978Z</time>
      </trkpt>
      <trkpt lat="45.81299" lon="15.9552">
        <ele>127.021456</ele>
        <time>2022-08-05T11:18:59.059Z</time>
      </trkpt>
      <trkpt lat="45.81296" lon="15.95506">
        <ele>127.003664</ele>
        <time>2022-08-05T11:19:01.706Z</time>
      </trkpt>
      <trkpt lat="45.81266" lon="15.95382">
        <ele>126.854073</ele>
        <time>2022-08-05T11:19:25.085Z</time>
      </trkpt>
      <trkpt lat="45.81264" lon="15.95375">
        <ele>126.845205</ele>
        <time>2022-08-05T11:19:26.504Z</time>
      </trkpt>
      <trkpt lat="45.81254" lon="15.95321">
        <ele>126.780832</ele>
        <time>2022-08-05T11:19:37.080Z</time>
      </trkpt>
      <trkpt lat="45.81246" lon="15.9523">
        <ele>126.677965</ele>
        <time>2022-08-05T11:19:54.302Z</time>
      </trkpt>
      <trkpt lat="45.81246" lon="15.95219">
        <ele>126.665742</ele>
        <time>2022-08-05T11:19:56.260Z</time>
      </trkpt>
      <trkpt lat="45.81246" lon="15.95207">
        <ele>126.65265</ele>
        <time>2022-08-05T11:19:58.283Z</time>
      </trkpt>
      <trkpt lat="45.81245" lon="15.95159">
        <ele>126.598593</ele>
        <time>2022-08-05T11:20:07.044Z</time>
      </trkpt>
      <trkpt lat="45.81245" lon="15.95071">
        <ele>126.500455</ele>
        <time>2022-08-05T11:20:22.925Z</time>
      </trkpt>
      <trkpt lat="45.81245" lon="15.95062">
        <ele>126.490272</ele>
        <time>2022-08-05T11:20:24.472Z</time>
      </trkpt>
      <trkpt lat="45.81243" lon="15.94878">
        <ele>125.708901</ele>
        <time>2022-08-05T11:20:56.049Z</time>
      </trkpt>
      <trkpt lat="45.81243" lon="15.94865">
        <ele>125.653345</ele>
        <time>2022-08-05T11:20:58.056Z</time>
      </trkpt>
      <trkpt lat="45.81235" lon="15.94862">
        <ele>125.605375</ele>
        <time>2022-08-05T11:20:59.826Z</time>
      </trkpt>
      <trkpt lat="45.81191" lon="15.94857">
        <ele>125.32089</ele>
        <time>2022-08-05T11:21:10.309Z</time>
      </trkpt>
      <trkpt lat="45.81147" lon="15.94851">
        <ele>125.038644</ele>
        <time>2022-08-05T11:21:20.537Z</time>
      </trkpt>
      <trkpt lat="45.81139" lon="15.9485">
        <ele>124.985918</ele>
        <time>2022-08-05T11:21:22.417Z</time>
      </trkpt>
      <trkpt lat="45.8113" lon="15.94849">
        <ele>124.931297</ele>
        <time>2022-08-05T11:21:24.325Z</time>
      </trkpt>
      <trkpt lat="45.8113" lon="15.94843">
        <ele>124.901653</ele>
        <time>2022-08-05T11:21:27.565Z</time>
      </trkpt>
      <trkpt lat="45.81131" lon="15.9484">
        <ele>124.889318</ele>
        <time>2022-08-05T11:21:28.389Z</time>
      </trkpt>
      <trkpt lat="45.81144" lon="15.94587">
        <ele>124.466151</ele>
        <time>2022-08-05T11:22:43.736Z</time>
      </trkpt>
      <trkpt lat="45.81149" lon="15.94542">
        <ele>124.607208</ele>
        <time>2022-08-05T11:22:59.515Z</time>
      </trkpt>
      <trkpt lat="45.81149" lon="15.94538">
        <ele>124.618014</ele>
        <time>2022-08-05T11:23:00.687Z</time>
      </trkpt>
      <trkpt lat="45.81155" lon="15.9454">
        <ele>124.644031</ele>
        <time>2022-08-05T11:23:02.631Z</time>
      </trkpt>
      <trkpt lat="45.81163" lon="15.94542">
        <ele>124.680215</ele>
        <time>2022-08-05T11:23:05.310Z</time>
      </trkpt>
      <trkpt lat="45.81163" lon="15.94536">
        <ele>124.697497</ele>
        <time>2022-08-05T11:23:08.016Z</time>
      </trkpt>
      <trkpt lat="45.81165" lon="15.94531">
        <ele>124.714351</ele>
        <time>2022-08-05T11:23:09.203Z</time>
      </trkpt>
      <trkpt lat="45.81173" lon="15.94376">
        <ele>125.149255</ele>
        <time>2022-08-05T11:23:42.421Z</time>
      </trkpt>
      <trkpt lat="45.81174" lon="15.94356">
        <ele>125.199379</ele>
        <time>2022-08-05T11:23:46.593Z</time>
      </trkpt>
      <trkpt lat="45.81174" lon="15.94351">
        <ele>125.213575</ele>
        <time>2022-08-05T11:23:47.802Z</time>
      </trkpt>
      <trkpt lat="45.81174" lon="15.94344">
        <ele>125.229062</ele>
        <time>2022-08-05T11:23:49.181Z</time>
      </trkpt>
      <trkpt lat="45.81176" lon="15.94336">
        <ele>125.25015</ele>
        <time>2022-08-05T11:23:50.973Z</time>
      </trkpt>
      <trkpt lat="45.81177" lon="15.94308">
        <ele>125.320526</ele>
        <time>2022-08-05T11:23:56.729Z</time>
      </trkpt>
      <trkpt lat="45.81181" lon="15.94237">
        <ele>125.496657</ele>
        <time>2022-08-05T11:24:10.323Z</time>
      </trkpt>
      <trkpt lat="45.81184" lon="15.94228">
        <ele>125.521855</ele>
        <time>2022-08-05T11:24:12.150Z</time>
      </trkpt>
      <trkpt lat="45.81184" lon="15.94225">
        <ele>125.529847</ele>
        <time>2022-08-05T11:24:12.751Z</time>
      </trkpt>
      <trkpt lat="45.81184" lon="15.94213">
        <ele>125.560444</ele>
        <time>2022-08-05T11:24:15.007Z</time>
      </trkpt>
      <trkpt lat="45.81184" lon="15.94204">
        <ele>125.581589</ele>
        <time>2022-08-05T11:24:16.515Z</time>
      </trkpt>
      <trkpt lat="45.81184" lon="15.94196">
        <ele>125.602993</ele>
        <time>2022-08-05T11:24:18.010Z</time>
      </trkpt>
      <trkpt lat="45.81195" lon="15.93947">
        <ele>124.96063</ele>
        <time>2022-08-05T11:25:01.062Z</time>
      </trkpt>
      <trkpt lat="45.81201" lon="15.93813">
        <ele>124.777524</ele>
        <time>2022-08-05T11:25:24.996Z</time>
      </trkpt>
      <trkpt lat="45.81202" lon="15.93809">
        <ele>124.771891</ele>
        <time>2022-08-05T11:25:25.821Z</time>
      </trkpt>
      <trkpt lat="45.81202" lon="15.93804">
        <ele>124.766259</ele>
        <time>2022-08-05T11:25:28.051Z</time>
      </trkpt>
      <trkpt lat="45.81202" lon="15.93796">
        <ele>124.756613</ele>
        <time>2022-08-05T11:25:31.896Z</time>
      </trkpt>
      <trkpt lat="45.81202" lon="15.93791">
        <ele>124.750515</ele>
        <time>2022-08-05T11:25:32.800Z</time>
      </trkpt>
      <trkpt lat="45.81215" lon="15.93536">
        <ele>124.496643</ele>
        <time>2022-08-05T11:26:19.461Z</time>
      </trkpt>
      <trkpt lat="45.81215" lon="15.93525">
        <ele>124.487791</ele>
        <time>2022-08-05T11:26:21.505Z</time>
      </trkpt>
      <trkpt lat="45.81226" lon="15.93389">
        <ele>124.419698</ele>
        <time>2022-08-05T11:26:45.794Z</time>
      </trkpt>
      <trkpt lat="45.81228" lon="15.9334">
        <ele>124.44997</ele>
        <time>2022-08-05T11:26:55.917Z</time>
      </trkpt>
      <trkpt lat="45.8122" lon="15.93338">
        <ele>124.456664</ele>
        <time>2022-08-05T11:26:58.969Z</time>
      </trkpt>
      <trkpt lat="45.81213" lon="15.93337">
        <ele>124.463318</ele>
        <time>2022-08-05T11:27:01.942Z</time>
      </trkpt>
      <trkpt lat="45.81215" lon="15.9327">
        <ele>124.504645</ele>
        <time>2022-08-05T11:27:15.613Z</time>
      </trkpt>
      <trkpt lat="45.81215" lon="15.93221">
        <ele>124.535554</ele>
        <time>2022-08-05T11:27:24.843Z</time>
      </trkpt>
      <trkpt lat="45.81196" lon="15.93174">
        <ele>124.478659</ele>
        <time>2022-08-05T11:27:33.828Z</time>
      </trkpt>
      <trkpt lat="45.81199" lon="15.9317">
        <ele>124.435383</ele>
        <time>2022-08-05T11:27:36.868Z</time>
      </trkpt>
      <trkpt lat="45.81205" lon="15.93159">
        <ele>124.344273</ele>
        <time>2022-08-05T11:27:43.266Z</time>
      </trkpt>
      <trkpt lat="45.81189" lon="15.93152">
        <ele>124.176429</ele>
        <time>2022-08-05T11:27:47.187Z</time>
      </trkpt>
      <trkpt lat="45.81177" lon="15.93135">
        <ele>124.014183</ele>
        <time>2022-08-05T11:27:51.052Z</time>
      </trkpt>
      <trkpt lat="45.81179" lon="15.93127">
        <ele>123.953465</ele>
        <time>2022-08-05T11:27:52.455Z</time>
      </trkpt>
      <trkpt lat="45.81169" lon="15.93109">
        <ele>123.799662</ele>
        <time>2022-08-05T11:27:55.865Z</time>
      </trkpt>
      <trkpt lat="45.81169" lon="15.93108">
        <ele>123.7883</ele>
        <time>2022-08-05T11:27:56.134Z</time>
      </trkpt>
      <trkpt lat="45.81119" lon="15.9304">
        <ele>123.103947</ele>
        <time>2022-08-05T11:28:12.519Z</time>
      </trkpt>
      <trkpt lat="45.81073" lon="15.92974">
        <ele>122.48356</ele>
        <time>2022-08-05T11:28:26.742Z</time>
      </trkpt>
      <trkpt lat="45.81074" lon="15.92963">
        <ele>122.415623</ele>
        <time>2022-08-05T11:28:28.251Z</time>
      </trkpt>
      <trkpt lat="45.81075" lon="15.92921">
        <ele>122.14452</ele>
        <time>2022-08-05T11:28:34.510Z</time>
      </trkpt>
      <trkpt lat="45.81076" lon="15.92916">
        <ele>122.108293</ele>
        <time>2022-08-05T11:28:35.339Z</time>
      </trkpt>
      <trkpt lat="45.81077" lon="15.92885">
        <ele>121.908944</ele>
        <time>2022-08-05T11:28:40.159Z</time>
      </trkpt>
      <trkpt lat="45.81083" lon="15.92872">
        <ele>121.80819</ele>
        <time>2022-08-05T11:28:42.661Z</time>
      </trkpt>
      <trkpt lat="45.81112" lon="15.92863">
        <ele>121.534223</ele>
        <time>2022-08-05T11:28:49.814Z</time>
      </trkpt>
      <trkpt lat="45.81106" lon="15.92746">
        <ele>121.143517</ele>
        <time>2022-08-05T11:29:13.188Z</time>
      </trkpt>
      <trkpt lat="45.8111" lon="15.92693">
        <ele>121.176896</ele>
        <time>2022-08-05T11:29:23.829Z</time>
      </trkpt>
      <trkpt lat="45.81136" lon="15.926">
        <ele>121.240574</ele>
        <time>2022-08-05T11:29:43.374Z</time>
      </trkpt>
      <trkpt lat="45.81137" lon="15.92595">
        <ele>121.24356</ele>
        <time>2022-08-05T11:29:44.308Z</time>
      </trkpt>
      <trkpt lat="45.81128" lon="15.92584">
        <ele>121.25515</ele>
        <time>2022-08-05T11:29:47.793Z</time>
      </trkpt>
      <trkpt lat="45.81089" lon="15.92542">
        <ele>121.32339</ele>
        <time>2022-08-05T11:30:01.059Z</time>
      </trkpt>
      <trkpt lat="45.81084" lon="15.92529">
        <ele>121.341737</ele>
        <time>2022-08-05T11:30:03.879Z</time>
      </trkpt>
      <trkpt lat="45.81085" lon="15.92514">
        <ele>121.361112</ele>
        <time>2022-08-05T11:30:06.930Z</time>
      </trkpt>
      <trkpt lat="45.81085" lon="15.92511">
        <ele>121.364587</ele>
        <time>2022-08-05T11:30:07.478Z</time>
      </trkpt>
      <trkpt lat="45.81085" lon="15.92505">
        <ele>121.372404</ele>
        <time>2022-08-05T11:30:08.716Z</time>
      </trkpt>
      <trkpt lat="45.81085" lon="15.92499">
        <ele>121.378748</ele>
        <time>2022-08-05T11:30:09.743Z</time>
      </trkpt>
      <trkpt lat="45.81079" lon="15.92498">
        <ele>121.390066</ele>
        <time>2022-08-05T11:30:11.478Z</time>
      </trkpt>
      <trkpt lat="45.81055" lon="15.92494">
        <ele>121.433413</ele>
        <time>2022-08-05T11:30:18.118Z</time>
      </trkpt>
      <trkpt lat="45.81064" lon="15.92308">
        <ele>121.612627</ele>
        <time>2022-08-05T11:30:54.009Z</time>
      </trkpt>
      <trkpt lat="45.81057" lon="15.92292">
        <ele>121.619151</ele>
        <time>2022-08-05T11:30:57.548Z</time>
      </trkpt>
      <trkpt lat="45.81054" lon="15.92268">
        <ele>121.627407</ele>
        <time>2022-08-05T11:31:02.306Z</time>
      </trkpt>
      <trkpt lat="45.81052" lon="15.92179">
        <ele>121.657399</ele>
        <time>2022-08-05T11:31:19.046Z</time>
      </trkpt>
      <trkpt lat="45.81046" lon="15.92137">
        <ele>121.672098</ele>
        <time>2022-08-05T11:31:27.119Z</time>
      </trkpt>
      <trkpt lat="45.81017" lon="15.92113">
        <ele>121.646515</ele>
        <time>2022-08-05T11:31:35.504Z</time>
      </trkpt>
      <trkpt lat="45.81013" lon="15.92098">
        <ele>121.622431</ele>
        <time>2022-08-05T11:31:38.336Z</time>
      </trkpt>
      <trkpt lat="45.81014" lon="15.92057">
        <ele>121.560856</ele>
        <time>2022-08-05T11:31:45.526Z</time>
      </trkpt>
      <trkpt lat="45.81016" lon="15.91991">
        <ele>121.461538</ele>
        <time>2022-08-05T11:31:57.301Z</time>
      </trkpt>
      <trkpt lat="45.81016" lon="15.91956">
        <ele>121.408848</ele>
        <time>2022-08-05T11:32:03.592Z</time>
      </trkpt>
      <trkpt lat="45.81016" lon="15.91914">
        <ele>121.346426</ele>
        <time>2022-08-05T11:32:11.070Z</time>
      </trkpt>
      <trkpt lat="45.81017" lon="15.91864">
        <ele>121.287022</ele>
        <time>2022-08-05T11:32:20.145Z</time>
      </trkpt>
      <trkpt lat="45.81017" lon="15.91816">
        <ele>121.263319</ele>
        <time>2022-08-05T11:32:28.991Z</time>
      </trkpt>
      <trkpt lat="45.80917" lon="15.918">
        <ele>121.191743</ele>
        <time>2022-08-05T11:32:55.541Z</time>
      </trkpt>
      <trkpt lat="45.80917" lon="15.91763">
        <ele>121.173671</ele>
        <time>2022-08-05T11:33:02.272Z</time>
      </trkpt>
      <trkpt lat="45.80871" lon="15.91763">
        <ele>121.153167</ele>
        <time>2022-08-05T11:33:14.839Z</time>
      </trkpt>
      <trkpt lat="45.80811" lon="15.91765">
        <ele>121.131131</ele>
        <time>2022-08-05T11:33:30.311Z</time>
      </trkpt>
      <trkpt lat="45.80812" lon="15.91728">
        <ele>121.121552</ele>
        <time>2022-08-05T11:33:37.091Z</time>
      </trkpt>
      <trkpt lat="45.80823" lon="15.91577">
        <ele>121.071115</ele>
        <time>2022-08-05T11:34:05.533Z</time>
      </trkpt>
      <trkpt lat="45.80852" lon="15.91579">
        <ele>121.053632</ele>
        <time>2022-08-05T11:34:13.321Z</time>
      </trkpt>
      <trkpt lat="45.80864" lon="15.91475">
        <ele>121.009499</ele>
        <time>2022-08-05T11:34:33.067Z</time>
      </trkpt>
      <trkpt lat="45.80866" lon="15.91415">
        <ele>120.928916</ele>
        <time>2022-08-05T11:34:43.803Z</time>
      </trkpt>
      <trkpt lat="45.80867" lon="15.91397">
        <ele>120.864014</ele>
        <time>2022-08-05T11:34:47.016Z</time>
      </trkpt>
      <trkpt lat="45.80871" lon="15.91334">
        <ele>120.645828</ele>
        <time>2022-08-05T11:34:57.843Z</time>
      </trkpt>
      <trkpt lat="45.80873" lon="15.91276">
        <ele>120.440888</ele>
        <time>2022-08-05T11:35:07.928Z</time>
      </trkpt>
      <trkpt lat="45.80874" lon="15.91232">
        <ele>120.285758</ele>
        <time>2022-08-05T11:35:15.359Z</time>
      </trkpt>
      <trkpt lat="45.80878" lon="15.91166">
        <ele>120.078024</ele>
        <time>2022-08-05T11:35:26.292Z</time>
      </trkpt>
      <trkpt lat="45.80881" lon="15.9105">
        <ele>119.941398</ele>
        <time>2022-08-05T11:35:45.681Z</time>
      </trkpt>
      <trkpt lat="45.80768" lon="15.91022">
        <ele>119.891805</ele>
        <time>2022-08-05T11:36:18.104Z</time>
      </trkpt>
      <trkpt lat="45.80764" lon="15.9102">
        <ele>119.912242</ele>
        <time>2022-08-05T11:36:19.352Z</time>
      </trkpt>
      <trkpt lat="45.80778" lon="15.90989">
        <ele>120.031851</ele>
        <time>2022-08-05T11:36:26.782Z</time>
      </trkpt>
      <trkpt lat="45.80781" lon="15.90981">
        <ele>120.062299</ele>
        <time>2022-08-05T11:36:28.535Z</time>
      </trkpt>
      <trkpt lat="45.80793" lon="15.90953">
        <ele>120.173189</ele>
        <time>2022-08-05T11:36:35.358Z</time>
      </trkpt>
      <trkpt lat="45.80802" lon="15.90932">
        <ele>120.252466</ele>
        <time>2022-08-05T11:36:40.117Z</time>
      </trkpt>
      <trkpt lat="45.80804" lon="15.90929">
        <ele>120.267149</ele>
        <time>2022-08-05T11:36:41.048Z</time>
      </trkpt>
      <trkpt lat="45.80815" lon="15.90905">
        <ele>120.361911</ele>
        <time>2022-08-05T11:36:47.043Z</time>
      </trkpt>
      <trkpt lat="45.80821" lon="15.90895">
        <ele>120.40404</ele>
        <time>2022-08-05T11:36:49.577Z</time>
      </trkpt>
      <trkpt lat="45.80838" lon="15.90861">
        <ele>120.545556</ele>
        <time>2022-08-05T11:36:58.682Z</time>
      </trkpt>
      <trkpt lat="45.80841" lon="15.90861">
        <ele>120.560754</ele>
        <time>2022-08-05T11:36:59.578Z</time>
      </trkpt>
      <trkpt lat="45.81042" lon="15.90864">
        <ele>121.358882</ele>
        <time>2022-08-05T11:37:56.846Z</time>
      </trkpt>
      <trkpt lat="45.81045" lon="15.90864">
        <ele>121.378509</ele>
        <time>2022-08-05T11:37:57.733Z</time>
      </trkpt>
      <trkpt lat="45.81049" lon="15.90853">
        <ele>121.425598</ele>
        <time>2022-08-05T11:37:59.907Z</time>
      </trkpt>
      <trkpt lat="45.8107" lon="15.90794">
        <ele>121.694104</ele>
        <time>2022-08-05T11:38:12.435Z</time>
      </trkpt>
      <trkpt lat="45.81073" lon="15.90788">
        <ele>121.723076</ele>
        <time>2022-08-05T11:38:13.812Z</time>
      </trkpt>
      <trkpt lat="45.81098" lon="15.90791">
        <ele>121.872525</ele>
        <time>2022-08-05T11:38:21.385Z</time>
      </trkpt>
      <trkpt lat="45.81111" lon="15.90782">
        <ele>121.955672</ele>
        <time>2022-08-05T11:38:25.824Z</time>
      </trkpt>
      <trkpt lat="45.8113" lon="15.9075">
        <ele>122.123817</ele>
        <time>2022-08-05T11:38:35.355Z</time>
      </trkpt>
      <trkpt lat="45.81138" lon="15.90695">
        <ele>122.349922</ele>
        <time>2022-08-05T11:38:47.600Z</time>
      </trkpt>
      <trkpt lat="45.81139" lon="15.9068">
        <ele>122.395654</ele>
        <time>2022-08-05T11:38:50.466Z</time>
      </trkpt>
      <trkpt lat="45.81137" lon="15.90653">
        <ele>122.466014</ele>
        <time>2022-08-05T11:38:56.284Z</time>
      </trkpt>
      <trkpt lat="45.81137" lon="15.90645">
        <ele>122.485606</ele>
        <time>2022-08-05T11:38:57.889Z</time>
      </trkpt>
      <trkpt lat="45.81137" lon="15.90625">
        <ele>122.538003</ele>
        <time>2022-08-05T11:39:01.727Z</time>
      </trkpt>
      <trkpt lat="45.81136" lon="15.90617">
        <ele>122.556621</ele>
        <time>2022-08-05T11:39:03.229Z</time>
      </trkpt>
      <trkpt lat="45.8114" lon="15.90583">
        <ele>122.646106</ele>
        <time>2022-08-05T11:39:09.981Z</time>
      </trkpt>
      <trkpt lat="45.81142" lon="15.9057">
        <ele>122.678387</ele>
        <time>2022-08-05T11:39:12.343Z</time>
      </trkpt>
      <trkpt lat="45.81146" lon="15.90544">
        <ele>122.746106</ele>
        <time>2022-08-05T11:39:17.649Z</time>
      </trkpt>
      <trkpt lat="45.81151" lon="15.90511">
        <ele>122.832814</ele>
        <time>2022-08-05T11:39:24.277Z</time>
      </trkpt>
      <trkpt lat="45.81163" lon="15.9049">
        <ele>122.901875</ele>
        <time>2022-08-05T11:39:29.610Z</time>
      </trkpt>
      <trkpt lat="45.81177" lon="15.90371">
        <ele>122.950859</ele>
        <time>2022-08-05T11:39:53.178Z</time>
      </trkpt>
      <trkpt lat="45.81184" lon="15.902">
        <ele>122.756646</ele>
        <time>2022-08-05T11:40:22.833Z</time>
      </trkpt>
      <trkpt lat="45.81185" lon="15.90177">
        <ele>122.729382</ele>
        <time>2022-08-05T11:40:27.145Z</time>
      </trkpt>
      <trkpt lat="45.81188" lon="15.90124">
        <ele>122.654911</ele>
        <time>2022-08-05T11:40:37.281Z</time>
      </trkpt>
      <trkpt lat="45.81191" lon="15.90057">
        <ele>122.562236</ele>
        <time>2022-08-05T11:40:49.570Z</time>
      </trkpt>
      <trkpt lat="45.81194" lon="15.89955">
        <ele>122.420611</ele>
        <time>2022-08-05T11:41:07.587Z</time>
      </trkpt>
      <trkpt lat="45.81196" lon="15.89923">
        <ele>122.371206</ele>
        <time>2022-08-05T11:41:13.399Z</time>
      </trkpt>
      <trkpt lat="45.81196" lon="15.8992">
        <ele>122.360375</ele>
        <time>2022-08-05T11:41:13.997Z</time>
      </trkpt>
      <trkpt lat="45.81198" lon="15.8987">
        <ele>122.196759</ele>
        <time>2022-08-05T11:41:22.689Z</time>
      </trkpt>
      <trkpt lat="45.81201" lon="15.8979">
        <ele>121.934916</ele>
        <time>2022-08-05T11:41:36.438Z</time>
      </trkpt>
      <trkpt lat="45.81195" lon="15.89687">
        <ele>121.595692</ele>
        <time>2022-08-05T11:41:53.953Z</time>
      </trkpt>
      <trkpt lat="45.81195" lon="15.89684">
        <ele>121.586863</ele>
        <time>2022-08-05T11:41:54.407Z</time>
      </trkpt>
      <trkpt lat="45.81195" lon="15.89677">
        <ele>121.563302</ele>
        <time>2022-08-05T11:41:55.675Z</time>
      </trkpt>
      <trkpt lat="45.81192" lon="15.89598">
        <ele>121.343135</ele>
        <time>2022-08-05T11:42:09.516Z</time>
      </trkpt>
      <trkpt lat="45.81189" lon="15.89583">
        <ele>121.301185</ele>
        <time>2022-08-05T11:42:12.253Z</time>
      </trkpt>
      <trkpt lat="45.81186" lon="15.89574">
        <ele>121.273322</ele>
        <time>2022-08-05T11:42:14.133Z</time>
      </trkpt>
      <trkpt lat="45.81184" lon="15.89564">
        <ele>121.245978</ele>
        <time>2022-08-05T11:42:15.962Z</time>
      </trkpt>
      <trkpt lat="45.81168" lon="15.8949">
        <ele>121.034088</ele>
        <time>2022-08-05T11:42:29.845Z</time>
      </trkpt>
      <trkpt lat="45.81165" lon="15.89414">
        <ele>120.828588</ele>
        <time>2022-08-05T11:42:42.803Z</time>
      </trkpt>
      <trkpt lat="45.81165" lon="15.89351">
        <ele>120.762251</ele>
        <time>2022-08-05T11:42:53.515Z</time>
      </trkpt>
      <trkpt lat="45.81165" lon="15.89315">
        <ele>120.723001</ele>
        <time>2022-08-05T11:43:00.143Z</time>
      </trkpt>
      <trkpt lat="45.81165" lon="15.89306">
        <ele>120.714147</ele>
        <time>2022-08-05T11:43:01.645Z</time>
      </trkpt>
      <trkpt lat="45.81166" lon="15.89289">
        <ele>120.695909</ele>
        <time>2022-08-05T11:43:04.668Z</time>
      </trkpt>
      <trkpt lat="45.81166" lon="15.89176">
        <ele>120.575495</ele>
        <time>2022-08-05T11:43:25.386Z</time>
      </trkpt>
      <trkpt lat="45.81168" lon="15.89053">
        <ele>121.119468</ele>
        <time>2022-08-05T11:43:50.038Z</time>
      </trkpt>
      <trkpt lat="45.81169" lon="15.89041">
        <ele>121.183454</ele>
        <time>2022-08-05T11:43:52.520Z</time>
      </trkpt>
      <trkpt lat="45.8117" lon="15.89027">
        <ele>121.261578</ele>
        <time>2022-08-05T11:43:55.546Z</time>
      </trkpt>
      <trkpt lat="45.81188" lon="15.88942">
        <ele>121.735908</ele>
        <time>2022-08-05T11:44:14.753Z</time>
      </trkpt>
      <trkpt lat="45.81192" lon="15.88928">
        <ele>121.817994</ele>
        <time>2022-08-05T11:44:18.348Z</time>
      </trkpt>
      <trkpt lat="45.81212" lon="15.88815">
        <ele>122.378377</ele>
        <time>2022-08-05T11:44:46.271Z</time>
      </trkpt>
      <trkpt lat="45.81214" lon="15.88741">
        <ele>122.722857</ele>
        <time>2022-08-05T11:45:02.224Z</time>
      </trkpt>
      <trkpt lat="45.81208" lon="15.88692">
        <ele>122.956059</ele>
        <time>2022-08-05T11:45:11.352Z</time>
      </trkpt>
      <trkpt lat="45.81198" lon="15.88639">
        <ele>123.059538</ele>
        <time>2022-08-05T11:45:20.745Z</time>
      </trkpt>
      <trkpt lat="45.81195" lon="15.8863">
        <ele>122.998098</ele>
        <time>2022-08-05T11:45:22.517Z</time>
      </trkpt>
      <trkpt lat="45.81186" lon="15.88591">
        <ele>122.752402</ele>
        <time>2022-08-05T11:45:29.243Z</time>
      </trkpt>
      <trkpt lat="45.81184" lon="15.88579">
        <ele>122.674605</ele>
        <time>2022-08-05T11:45:31.463Z</time>
      </trkpt>
      <trkpt lat="45.81182" lon="15.88561">
        <ele>122.564454</ele>
        <time>2022-08-05T11:45:34.422Z</time>
      </trkpt>
      <trkpt lat="45.8118" lon="15.88522">
        <ele>122.329731</ele>
        <time>2022-08-05T11:45:40.985Z</time>
      </trkpt>
      <trkpt lat="45.81179" lon="15.88507">
        <ele>122.239915</ele>
        <time>2022-08-05T11:45:43.394Z</time>
      </trkpt>
      <trkpt lat="45.81175" lon="15.88413">
        <ele>121.667939</ele>
        <time>2022-08-05T11:45:58.330Z</time>
      </trkpt>
      <trkpt lat="45.81175" lon="15.88399">
        <ele>121.585579</ele>
        <time>2022-08-05T11:46:00.392Z</time>
      </trkpt>
      <trkpt lat="45.81175" lon="15.88385">
        <ele>121.554835</ele>
        <time>2022-08-05T11:46:02.582Z</time>
      </trkpt>
      <trkpt lat="45.81173" lon="15.8834">
        <ele>121.461565</ele>
        <time>2022-08-05T11:46:09.544Z</time>
      </trkpt>
      <trkpt lat="45.81172" lon="15.88314">
        <ele>121.407583</ele>
        <time>2022-08-05T11:46:13.675Z</time>
      </trkpt>
      <trkpt lat="45.81164" lon="15.88109">
        <ele>121.152726</ele>
        <time>2022-08-05T11:46:53.118Z</time>
      </trkpt>
      <trkpt lat="45.81156" lon="15.8798">
        <ele>121.565003</ele>
        <time>2022-08-05T11:47:20.425Z</time>
      </trkpt>
      <trkpt lat="45.81154" lon="15.87961">
        <ele>121.627326</ele>
        <time>2022-08-05T11:47:24.469Z</time>
      </trkpt>
      <trkpt lat="45.81152" lon="15.87936">
        <ele>121.706518</ele>
        <time>2022-08-05T11:47:29.613Z</time>
      </trkpt>
      <trkpt lat="45.8115" lon="15.87897">
        <ele>121.832803</ele>
        <time>2022-08-05T11:47:37.451Z</time>
      </trkpt>
      <trkpt lat="45.81148" lon="15.8786">
        <ele>121.853709</ele>
        <time>2022-08-05T11:47:44.395Z</time>
      </trkpt>
      <trkpt lat="45.81143" lon="15.87808">
        <ele>121.814078</ele>
        <time>2022-08-05T11:47:53.692Z</time>
      </trkpt>
      <trkpt lat="45.81142" lon="15.87799">
        <ele>121.807072</ele>
        <time>2022-08-05T11:47:55.409Z</time>
      </trkpt>
      <trkpt lat="45.81137" lon="15.87746">
        <ele>121.765725</ele>
        <time>2022-08-05T11:48:05.033Z</time>
      </trkpt>
      <trkpt lat="45.81136" lon="15.87738">
        <ele>121.759848</ele>
        <time>2022-08-05T11:48:06.365Z</time>
      </trkpt>
      <trkpt lat="45.81135" lon="15.87729">
        <ele>121.752896</ele>
        <time>2022-08-05T11:48:07.954Z</time>
      </trkpt>
      <trkpt lat="45.81132" lon="15.87697">
        <ele>121.727828</ele>
        <time>2022-08-05T11:48:14.203Z</time>
      </trkpt>
      <trkpt lat="45.81127" lon="15.87654">
        <ele>121.694886</ele>
        <time>2022-08-05T11:48:22.129Z</time>
      </trkpt>
      <trkpt lat="45.81127" lon="15.87648">
        <ele>121.689752</ele>
        <time>2022-08-05T11:48:23.486Z</time>
      </trkpt>
      <trkpt lat="45.81126" lon="15.87636">
        <ele>121.680698</ele>
        <time>2022-08-05T11:48:25.671Z</time>
      </trkpt>
      <trkpt lat="45.81125" lon="15.8762">
        <ele>121.669056</ele>
        <time>2022-08-05T11:48:28.395Z</time>
      </trkpt>
      <trkpt lat="45.81122" lon="15.87508">
        <ele>121.587555</ele>
        <time>2022-08-05T11:48:47.470Z</time>
      </trkpt>
      <trkpt lat="45.81123" lon="15.87492">
        <ele>121.57632</ele>
        <time>2022-08-05T11:48:50.144Z</time>
      </trkpt>
      <trkpt lat="45.81124" lon="15.87476">
        <ele>121.564689</ele>
        <time>2022-08-05T11:48:53.116Z</time>
      </trkpt>
      <trkpt lat="45.81129" lon="15.87406">
        <ele>121.513275</ele>
        <time>2022-08-05T11:49:06.466Z</time>
      </trkpt>
      <trkpt lat="45.81138" lon="15.87303">
        <ele>121.692166</ele>
        <time>2022-08-05T11:49:27.984Z</time>
      </trkpt>
      <trkpt lat="45.81139" lon="15.87289">
        <ele>121.732033</ele>
        <time>2022-08-05T11:49:30.656Z</time>
      </trkpt>
      <trkpt lat="45.8114" lon="15.87277">
        <ele>121.769869</ele>
        <time>2022-08-05T11:49:33.436Z</time>
      </trkpt>
      <trkpt lat="45.81154" lon="15.87151">
        <ele>122.14295</ele>
        <time>2022-08-05T11:49:57.714Z</time>
      </trkpt>
      <trkpt lat="45.81156" lon="15.87136">
        <ele>122.188608</ele>
        <time>2022-08-05T11:50:00.728Z</time>
      </trkpt>
      <trkpt lat="45.81165" lon="15.8706">
        <ele>122.264762</ele>
        <time>2022-08-05T11:50:17.191Z</time>
      </trkpt>
      <trkpt lat="45.81166" lon="15.87051">
        <ele>122.267511</ele>
        <time>2022-08-05T11:50:19.192Z</time>
      </trkpt>
      <trkpt lat="45.81167" lon="15.87045">
        <ele>122.269475</ele>
        <time>2022-08-05T11:50:20.582Z</time>
      </trkpt>
      <trkpt lat="45.81177" lon="15.86993">
        <ele>122.285587</ele>
        <time>2022-08-05T11:50:31.398Z</time>
      </trkpt>
      <trkpt lat="45.81181" lon="15.86972">
        <ele>122.292327</ele>
        <time>2022-08-05T11:50:35.577Z</time>
      </trkpt>
      <trkpt lat="45.81192" lon="15.8693">
        <ele>122.305693</ele>
        <time>2022-08-05T11:50:43.488Z</time>
      </trkpt>
      <trkpt lat="45.81195" lon="15.86918">
        <ele>122.309528</ele>
        <time>2022-08-05T11:50:45.684Z</time>
      </trkpt>
      <trkpt lat="45.81196" lon="15.86908">
        <ele>122.312531</ele>
        <time>2022-08-05T11:50:47.406Z</time>
      </trkpt>
      <trkpt lat="45.812" lon="15.86848">
        <ele>122.243972</ele>
        <time>2022-08-05T11:50:57.364Z</time>
      </trkpt>
      <trkpt lat="45.81199" lon="15.86823">
        <ele>122.1324</ele>
        <time>2022-08-05T11:51:01.288Z</time>
      </trkpt>
      <trkpt lat="45.81193" lon="15.86653">
        <ele>121.356539</ele>
        <time>2022-08-05T11:51:29.697Z</time>
      </trkpt>
      <trkpt lat="45.8119" lon="15.86569">
        <ele>121.170546</ele>
        <time>2022-08-05T11:51:44.459Z</time>
      </trkpt>
      <trkpt lat="45.8119" lon="15.86489">
        <ele>121.210811</ele>
        <time>2022-08-05T11:51:58.824Z</time>
      </trkpt>
      <trkpt lat="45.81194" lon="15.86417">
        <ele>121.247615</ele>
        <time>2022-08-05T11:52:13.039Z</time>
      </trkpt>
      <trkpt lat="45.81202" lon="15.8633">
        <ele>121.308439</ele>
        <time>2022-08-05T11:52:31.184Z</time>
      </trkpt>
      <trkpt lat="45.81205" lon="15.86305">
        <ele>121.342847</ele>
        <time>2022-08-05T11:52:36.421Z</time>
      </trkpt>
      <trkpt lat="45.81212" lon="15.86262">
        <ele>121.400298</ele>
        <time>2022-08-05T11:52:44.894Z</time>
      </trkpt>
      <trkpt lat="45.81223" lon="15.86194">
        <ele>121.49194</ele>
        <time>2022-08-05T11:52:57.729Z</time>
      </trkpt>
      <trkpt lat="45.81234" lon="15.86126">
        <ele>121.58226</ele>
        <time>2022-08-05T11:53:10.696Z</time>
      </trkpt>
      <trkpt lat="45.8124" lon="15.8609">
        <ele>121.626008</ele>
        <time>2022-08-05T11:53:18.045Z</time>
      </trkpt>
      <trkpt lat="45.81246" lon="15.8607">
        <ele>121.642594</ele>
        <time>2022-08-05T11:53:22.385Z</time>
      </trkpt>
      <trkpt lat="45.81249" lon="15.86054">
        <ele>121.654814</ele>
        <time>2022-08-05T11:53:25.604Z</time>
      </trkpt>
      <trkpt lat="45.81251" lon="15.86046">
        <ele>121.661226</ele>
        <time>2022-08-05T11:53:27.242Z</time>
      </trkpt>
      <trkpt lat="45.81256" lon="15.85998">
        <ele>121.697145</ele>
        <time>2022-08-05T11:53:36.025Z</time>
      </trkpt>
      <trkpt lat="45.81259" lon="15.85981">
        <ele>121.710069</ele>
        <time>2022-08-05T11:53:39.247Z</time>
      </trkpt>
      <trkpt lat="45.81264" lon="15.85957">
        <ele>121.72885</ele>
        <time>2022-08-05T11:53:43.884Z</time>
      </trkpt>
      <trkpt lat="45.81271" lon="15.85915">
        <ele>121.761036</ele>
        <time>2022-08-05T11:53:52.266Z</time>
      </trkpt>
      <trkpt lat="45.81276" lon="15.85886">
        <ele>121.78332</ele>
        <time>2022-08-05T11:53:57.897Z</time>
      </trkpt>
      <trkpt lat="45.81282" lon="15.85846">
        <ele>121.814977</ele>
        <time>2022-08-05T11:54:05.560Z</time>
      </trkpt>
      <trkpt lat="45.81286" lon="15.85828">
        <ele>121.838774</ele>
        <time>2022-08-05T11:54:09.338Z</time>
      </trkpt>
      <trkpt lat="45.81292" lon="15.85796">
        <ele>121.880154</ele>
        <time>2022-08-05T11:54:15.672Z</time>
      </trkpt>
      <trkpt lat="45.81299" lon="15.85756">
        <ele>121.931845</ele>
        <time>2022-08-05T11:54:23.683Z</time>
      </trkpt>
      <trkpt lat="45.81301" lon="15.85746">
        <ele>121.944923</ele>
        <time>2022-08-05T11:54:25.601Z</time>
      </trkpt>
      <trkpt lat="45.81303" lon="15.85732">
        <ele>121.962627</ele>
        <time>2022-08-05T11:54:28.363Z</time>
      </trkpt>
      <trkpt lat="45.81305" lon="15.85724">
        <ele>121.973588</ele>
        <time>2022-08-05T11:54:29.994Z</time>
      </trkpt>
      <trkpt lat="45.81306" lon="15.85717">
        <ele>121.981994</ele>
        <time>2022-08-05T11:54:31.259Z</time>
      </trkpt>
      <trkpt lat="45.81307" lon="15.85713">
        <ele>121.987029</ele>
        <time>2022-08-05T11:54:31.999Z</time>
      </trkpt>
      <trkpt lat="45.81308" lon="15.85706">
        <ele>121.995723</ele>
        <time>2022-08-05T11:54:33.334Z</time>
      </trkpt>
      <trkpt lat="45.81311" lon="15.85692">
        <ele>122.014244</ele>
        <time>2022-08-05T11:54:36.179Z</time>
      </trkpt>
      <trkpt lat="45.81315" lon="15.85667">
        <ele>122.046373</ele>
        <time>2022-08-05T11:54:41.009Z</time>
      </trkpt>
      <trkpt lat="45.81316" lon="15.85661">
        <ele>122.054129</ele>
        <time>2022-08-05T11:54:42.117Z</time>
      </trkpt>
      <trkpt lat="45.81347" lon="15.85499">
        <ele>122.266641</ele>
        <time>2022-08-05T11:55:15.108Z</time>
      </trkpt>
      <trkpt lat="45.81349" lon="15.85488">
        <ele>122.280698</ele>
        <time>2022-08-05T11:55:17.323Z</time>
      </trkpt>
      <trkpt lat="45.81378" lon="15.85326">
        <ele>122.445138</ele>
        <time>2022-08-05T11:55:49.013Z</time>
      </trkpt>
      <trkpt lat="45.81389" lon="15.8527">
        <ele>122.406691</ele>
        <time>2022-08-05T11:55:59.803Z</time>
      </trkpt>
      <trkpt lat="45.81395" lon="15.85235">
        <ele>122.38278</ele>
        <time>2022-08-05T11:56:06.348Z</time>
      </trkpt>
      <trkpt lat="45.81398" lon="15.8522">
        <ele>122.372481</ele>
        <time>2022-08-05T11:56:09.108Z</time>
      </trkpt>
      <trkpt lat="45.81401" lon="15.85203">
        <ele>122.361043</ele>
        <time>2022-08-05T11:56:12.115Z</time>
      </trkpt>
      <trkpt lat="45.81428" lon="15.85053">
        <ele>122.358889</ele>
        <time>2022-08-05T11:56:40.418Z</time>
      </trkpt>
      <trkpt lat="45.8143" lon="15.85047">
        <ele>122.367211</ele>
        <time>2022-08-05T11:56:41.589Z</time>
      </trkpt>
      <trkpt lat="45.81431" lon="15.85039">
        <ele>122.378676</ele>
        <time>2022-08-05T11:56:43.167Z</time>
      </trkpt>
      <trkpt lat="45.81442" lon="15.84975">
        <ele>122.469545</ele>
        <time>2022-08-05T11:56:55.769Z</time>
      </trkpt>
      <trkpt lat="45.81448" lon="15.84915">
        <ele>122.554232</ele>
        <time>2022-08-05T11:57:07.828Z</time>
      </trkpt>
      <trkpt lat="45.81448" lon="15.84902">
        <ele>122.571993</ele>
        <time>2022-08-05T11:57:10.440Z</time>
      </trkpt>
      <trkpt lat="45.81449" lon="15.84889">
        <ele>122.589907</ele>
        <time>2022-08-05T11:57:13.029Z</time>
      </trkpt>
      <trkpt lat="45.81461" lon="15.84659">
        <ele>123.019278</ele>
        <time>2022-08-05T11:57:58.952Z</time>
      </trkpt>
      <trkpt lat="45.81462" lon="15.84644">
        <ele>123.048598</ele>
        <time>2022-08-05T11:58:01.553Z</time>
      </trkpt>
      <trkpt lat="45.81463" lon="15.84627">
        <ele>123.082195</ele>
        <time>2022-08-05T11:58:04.605Z</time>
      </trkpt>
      <trkpt lat="45.81468" lon="15.84556">
        <ele>123.158236</ele>
        <time>2022-08-05T11:58:18.386Z</time>
      </trkpt>
      <trkpt lat="45.81473" lon="15.8448">
        <ele>123.163934</ele>
        <time>2022-08-05T11:58:32.380Z</time>
      </trkpt>
      <trkpt lat="45.81478" lon="15.84419">
        <ele>123.168606</ele>
        <time>2022-08-05T11:58:44.009Z</time>
      </trkpt>
      <trkpt lat="45.81483" lon="15.84354">
        <ele>123.173528</ele>
        <time>2022-08-05T11:58:56.250Z</time>
      </trkpt>
      <trkpt lat="45.81496" lon="15.84181">
        <ele>123.231982</ele>
        <time>2022-08-05T11:59:28.082Z</time>
      </trkpt>
      <trkpt lat="45.81497" lon="15.84023">
        <ele>123.452929</ele>
        <time>2022-08-05T11:59:58.537Z</time>
      </trkpt>
      <trkpt lat="45.81497" lon="15.83998">
        <ele>123.539003</ele>
        <time>2022-08-05T12:00:03.592Z</time>
      </trkpt>
      <trkpt lat="45.81497" lon="15.83987">
        <ele>123.577751</ele>
        <time>2022-08-05T12:00:05.855Z</time>
      </trkpt>
      <trkpt lat="45.81497" lon="15.83983">
        <ele>123.590438</ele>
        <time>2022-08-05T12:00:06.608Z</time>
      </trkpt>
      <trkpt lat="45.81497" lon="15.83978">
        <ele>123.60621</ele>
        <time>2022-08-05T12:00:07.557Z</time>
      </trkpt>
      <trkpt lat="45.81497" lon="15.83932">
        <ele>123.765649</ele>
        <time>2022-08-05T12:00:17.186Z</time>
      </trkpt>
      <trkpt lat="45.81496" lon="15.83782">
        <ele>124.256649</ele>
        <time>2022-08-05T12:00:48.021Z</time>
      </trkpt>
      <trkpt lat="45.81496" lon="15.83765">
        <ele>124.304542</ele>
        <time>2022-08-05T12:00:51.473Z</time>
      </trkpt>
      <trkpt lat="45.81495" lon="15.83704">
        <ele>124.474674</ele>
        <time>2022-08-05T12:01:03.896Z</time>
      </trkpt>
      <trkpt lat="45.81495" lon="15.83698">
        <ele>124.489432</ele>
        <time>2022-08-05T12:01:04.984Z</time>
      </trkpt>
      <trkpt lat="45.81496" lon="15.83685">
        <ele>124.525371</ele>
        <time>2022-08-05T12:01:07.634Z</time>
      </trkpt>
      <trkpt lat="45.81494" lon="15.83604">
        <ele>124.752638</ele>
        <time>2022-08-05T12:01:24.018Z</time>
      </trkpt>
      <trkpt lat="45.81494" lon="15.83573">
        <ele>124.837299</ele>
        <time>2022-08-05T12:01:29.898Z</time>
      </trkpt>
      <trkpt lat="45.81494" lon="15.83562">
        <ele>124.867928</ele>
        <time>2022-08-05T12:01:32.006Z</time>
      </trkpt>
      <trkpt lat="45.81494" lon="15.83551">
        <ele>124.858206</ele>
        <time>2022-08-05T12:01:34.103Z</time>
      </trkpt>
      <trkpt lat="45.81492" lon="15.83514">
        <ele>124.788674</ele>
        <time>2022-08-05T12:01:41.089Z</time>
      </trkpt>
      <trkpt lat="45.81484" lon="15.8347">
        <ele>124.706467</ele>
        <time>2022-08-05T12:01:49.120Z</time>
      </trkpt>
      <trkpt lat="45.81487" lon="15.83468">
        <ele>124.69487</ele>
        <time>2022-08-05T12:01:50.619Z</time>
      </trkpt>
      <trkpt lat="45.81486" lon="15.83463">
        <ele>124.686878</ele>
        <time>2022-08-05T12:01:51.381Z</time>
      </trkpt>
      <trkpt lat="45.81462" lon="15.83393">
        <ele>124.542106</ele>
        <time>2022-08-05T12:02:05.222Z</time>
      </trkpt>
      <trkpt lat="45.8135" lon="15.83121">
        <ele>123.584638</ele>
        <time>2022-08-05T12:03:01.605Z</time>
      </trkpt>
      <trkpt lat="45.81309" lon="15.8302">
        <ele>123.442804</ele>
        <time>2022-08-05T12:03:23.281Z</time>
      </trkpt>
      <trkpt lat="45.81298" lon="15.82996">
        <ele>123.420514</ele>
        <time>2022-08-05T12:03:28.590Z</time>
      </trkpt>
      <trkpt lat="45.81247" lon="15.8287">
        <ele>123.314567</ele>
        <time>2022-08-05T12:03:56.117Z</time>
      </trkpt>
      <trkpt lat="45.81196" lon="15.82741">
        <ele>123.285046</ele>
        <time>2022-08-05T12:04:23.872Z</time>
      </trkpt>
      <trkpt lat="45.81189" lon="15.82723">
        <ele>123.28103</ele>
        <time>2022-08-05T12:04:27.351Z</time>
      </trkpt>
      <trkpt lat="45.81184" lon="15.82709">
        <ele>123.277849</ele>
        <time>2022-08-05T12:04:30.134Z</time>
      </trkpt>
      <trkpt lat="45.81173" lon="15.82684">
        <ele>123.27191</ele>
        <time>2022-08-05T12:04:35.533Z</time>
      </trkpt>
      <trkpt lat="45.8115" lon="15.82629">
        <ele>123.258497</ele>
        <time>2022-08-05T12:04:47.067Z</time>
      </trkpt>
      <trkpt lat="45.8111" lon="15.82531">
        <ele>123.233726</ele>
        <time>2022-08-05T12:05:08.417Z</time>
      </trkpt>
      <trkpt lat="45.81104" lon="15.82519">
        <ele>123.230489</ele>
        <time>2022-08-05T12:05:11.271Z</time>
      </trkpt>
      <trkpt lat="45.81089" lon="15.82472">
        <ele>123.219256</ele>
        <time>2022-08-05T12:05:20.854Z</time>
      </trkpt>
      <trkpt lat="45.81082" lon="15.82445">
        <ele>123.212959</ele>
        <time>2022-08-05T12:05:26.223Z</time>
      </trkpt>
      <trkpt lat="45.81088" lon="15.8242">
        <ele>123.202327</ele>
        <time>2022-08-05T12:05:31.218Z</time>
      </trkpt>
      <trkpt lat="45.8109" lon="15.82403">
        <ele>123.191428</ele>
        <time>2022-08-05T12:05:34.385Z</time>
      </trkpt>
      <trkpt lat="45.81089" lon="15.82397">
        <ele>123.187459</ele>
        <time>2022-08-05T12:05:35.683Z</time>
      </trkpt>
      <trkpt lat="45.8111" lon="15.8222">
        <ele>123.073731</ele>
        <time>2022-08-05T12:06:09.149Z</time>
      </trkpt>
      <trkpt lat="45.81102" lon="15.82205">
        <ele>123.061937</ele>
        <time>2022-08-05T12:06:12.401Z</time>
      </trkpt>
      <trkpt lat="45.81069" lon="15.82167">
        <ele>122.99058</ele>
        <time>2022-08-05T12:06:22.612Z</time>
      </trkpt>
      <trkpt lat="45.81033" lon="15.8211">
        <ele>122.867971</ele>
        <time>2022-08-05T12:06:35.826Z</time>
      </trkpt>
      <trkpt lat="45.81003" lon="15.82014">
        <ele>122.701711</ele>
        <time>2022-08-05T12:06:54.885Z</time>
      </trkpt>
      <trkpt lat="45.8099" lon="15.81913">
        <ele>122.83568</ele>
        <time>2022-08-05T12:07:14.602Z</time>
      </trkpt>
      <trkpt lat="45.80992" lon="15.81858">
        <ele>123.011469</ele>
        <time>2022-08-05T12:07:25.898Z</time>
      </trkpt>
      <trkpt lat="45.80985" lon="15.81789">
        <ele>123.232742</ele>
        <time>2022-08-05T12:07:40.448Z</time>
      </trkpt>
      <trkpt lat="45.80987" lon="15.81704">
        <ele>123.493166</ele>
        <time>2022-08-05T12:07:57.866Z</time>
      </trkpt>
      <trkpt lat="45.80982" lon="15.81677">
        <ele>123.562646</ele>
        <time>2022-08-05T12:08:03.923Z</time>
      </trkpt>
      <trkpt lat="45.80979" lon="15.81676">
        <ele>123.575301</ele>
        <time>2022-08-05T12:08:04.905Z</time>
      </trkpt>
      <trkpt lat="45.81088" lon="15.81404">
        <ele>124.215205</ele>
        <time>2022-08-05T12:09:05.697Z</time>
      </trkpt>
      <trkpt lat="45.81081" lon="15.81398">
        <ele>124.228085</ele>
        <time>2022-08-05T12:09:07.860Z</time>
      </trkpt>
      <trkpt lat="45.811" lon="15.8135">
        <ele>124.289827</ele>
        <time>2022-08-05T12:09:18.541Z</time>
      </trkpt>
      <trkpt lat="45.81182" lon="15.81179">
        <ele>124.338764</ele>
        <time>2022-08-05T12:09:57.718Z</time>
      </trkpt>
      <trkpt lat="45.81178" lon="15.81175">
        <ele>124.335649</ele>
        <time>2022-08-05T12:09:59.040Z</time>
      </trkpt>
      <trkpt lat="45.81174" lon="15.81032">
        <ele>124.252026</ele>
        <time>2022-08-05T12:10:24.920Z</time>
      </trkpt>
      <trkpt lat="45.81154" lon="15.80665">
        <ele>123.917304</ele>
        <time>2022-08-05T12:11:29.258Z</time>
      </trkpt>
      <trkpt lat="45.81123" lon="15.80005">
        <ele>125.75889</ele>
        <time>2022-08-05T12:13:44.824Z</time>
      </trkpt>
      <trkpt lat="45.81091" lon="15.79369">
        <ele>126.152248</ele>
        <time>2022-08-05T12:15:43.302Z</time>
      </trkpt>
      <trkpt lat="45.81099" lon="15.7937">
        <ele>126.176312</ele>
        <time>2022-08-05T12:15:45.866Z</time>
      </trkpt>
      <trkpt lat="45.81096" lon="15.79307">
        <ele>126.298809</ele>
        <time>2022-08-05T12:15:58.911Z</time>
      </trkpt>
      <trkpt lat="45.81092" lon="15.79217">
        <ele>126.454727</ele>
        <time>2022-08-05T12:16:17.376Z</time>
      </trkpt>
      <trkpt lat="45.81084" lon="15.79035">
        <ele>126.711378</ele>
        <time>2022-08-05T12:16:52.777Z</time>
      </trkpt>
      <trkpt lat="45.81081" lon="15.78988">
        <ele>126.777987</ele>
        <time>2022-08-05T12:17:00.957Z</time>
      </trkpt>
      <trkpt lat="45.81084" lon="15.78973">
        <ele>126.801104</ele>
        <time>2022-08-05T12:17:03.650Z</time>
      </trkpt>
      <trkpt lat="45.81085" lon="15.78969">
        <ele>126.808034</ele>
        <time>2022-08-05T12:17:04.490Z</time>
      </trkpt>
      <trkpt lat="45.81085" lon="15.78956">
        <ele>126.828243</ele>
        <time>2022-08-05T12:17:06.883Z</time>
      </trkpt>
      <trkpt lat="45.81084" lon="15.78952">
        <ele>126.835173</ele>
        <time>2022-08-05T12:17:07.710Z</time>
      </trkpt>
      <trkpt lat="45.81078" lon="15.78931">
        <ele>126.868519</ele>
        <time>2022-08-05T12:17:11.688Z</time>
      </trkpt>
      <trkpt lat="45.8107" lon="15.78777">
        <ele>127.10216</ele>
        <time>2022-08-05T12:17:42.250Z</time>
      </trkpt>
      <trkpt lat="45.81065" lon="15.78676">
        <ele>127.295941</ele>
        <time>2022-08-05T12:18:02.821Z</time>
      </trkpt>
      <trkpt lat="45.81064" lon="15.78668">
        <ele>127.312803</ele>
        <time>2022-08-05T12:18:04.450Z</time>
      </trkpt>
      <trkpt lat="45.81062" lon="15.78621">
        <ele>127.41321</ele>
        <time>2022-08-05T12:18:13.989Z</time>
      </trkpt>
      <trkpt lat="45.81046" lon="15.78357">
        <ele>127.650754</ele>
        <time>2022-08-05T12:19:04.412Z</time>
      </trkpt>
      <trkpt lat="45.81039" lon="15.78269">
        <ele>127.615404</ele>
        <time>2022-08-05T12:19:20.032Z</time>
      </trkpt>
      <trkpt lat="45.81021" lon="15.78114">
        <ele>127.443964</ele>
        <time>2022-08-05T12:19:49.032Z</time>
      </trkpt>
      <trkpt lat="45.81014" lon="15.78061">
        <ele>127.372555</ele>
        <time>2022-08-05T12:19:58.789Z</time>
      </trkpt>
      <trkpt lat="45.80998" lon="15.77967">
        <ele>127.22429</ele>
        <time>2022-08-05T12:20:15.965Z</time>
      </trkpt>
      <trkpt lat="45.80953" lon="15.77729">
        <ele>126.340249</ele>
        <time>2022-08-05T12:20:57.687Z</time>
      </trkpt>
      <trkpt lat="45.80924" lon="15.77484">
        <ele>125.772457</ele>
        <time>2022-08-05T12:21:41.210Z</time>
      </trkpt>
      <trkpt lat="45.80913" lon="15.77433">
        <ele>125.886935</ele>
        <time>2022-08-05T12:21:51.472Z</time>
      </trkpt>
      <trkpt lat="45.80887" lon="15.77379">
        <ele>126.108089</ele>
        <time>2022-08-05T12:22:04.134Z</time>
      </trkpt>
      <trkpt lat="45.80767" lon="15.77212">
        <ele>126.938644</ele>
        <time>2022-08-05T12:22:54.848Z</time>
      </trkpt>
      <trkpt lat="45.80762" lon="15.77205">
        <ele>126.974383</ele>
        <time>2022-08-05T12:22:57.279Z</time>
      </trkpt>
      <trkpt lat="45.80695" lon="15.77107">
        <ele>127.470315</ele>
        <time>2022-08-05T12:23:24.332Z</time>
      </trkpt>
      <trkpt lat="45.80672" lon="15.77063">
        <ele>127.633636</ele>
        <time>2022-08-05T12:23:35.082Z</time>
      </trkpt>
      <trkpt lat="45.80656" lon="15.76998">
        <ele>127.809944</ele>
        <time>2022-08-05T12:23:48.917Z</time>
      </trkpt>
      <trkpt lat="45.80657" lon="15.76931">
        <ele>127.980929</ele>
        <time>2022-08-05T12:24:02.045Z</time>
      </trkpt>
      <trkpt lat="45.80678" lon="15.76865">
        <ele>128.165696</ele>
        <time>2022-08-05T12:24:16.017Z</time>
      </trkpt>
      <trkpt lat="45.80704" lon="15.76824">
        <ele>128.351189</ele>
        <time>2022-08-05T12:24:27.852Z</time>
      </trkpt>
      <trkpt lat="45.80736" lon="15.76797">
        <ele>128.545572</ele>
        <time>2022-08-05T12:24:39.286Z</time>
      </trkpt>
      <trkpt lat="45.80924" lon="15.76681">
        <ele>129.080497</ele>
        <time>2022-08-05T12:25:38.008Z</time>
      </trkpt>
      <trkpt lat="45.81026" lon="15.76619">
        <ele>128.854755</ele>
        <time>2022-08-05T12:26:05.361Z</time>
      </trkpt>
      <trkpt lat="45.81073" lon="15.76575">
        <ele>128.420715</ele>
        <time>2022-08-05T12:26:18.479Z</time>
      </trkpt>
      <trkpt lat="45.811" lon="15.76529">
        <ele>128.099002</ele>
        <time>2022-08-05T12:26:28.108Z</time>
      </trkpt>
      <trkpt lat="45.81152" lon="15.76394">
        <ele>127.699418</ele>
        <time>2022-08-05T12:26:53.929Z</time>
      </trkpt>
      <trkpt lat="45.81173" lon="15.76335">
        <ele>127.771149</ele>
        <time>2022-08-05T12:27:06.097Z</time>
      </trkpt>
      <trkpt lat="45.81188" lon="15.7627">
        <ele>127.844451</ele>
        <time>2022-08-05T12:27:19.831Z</time>
      </trkpt>
      <trkpt lat="45.8122" lon="15.76095">
        <ele>128.710814</ele>
        <time>2022-08-05T12:27:59.280Z</time>
      </trkpt>
      <trkpt lat="45.81221" lon="15.7607">
        <ele>128.875603</ele>
        <time>2022-08-05T12:28:05.232Z</time>
      </trkpt>
      <trkpt lat="45.81211" lon="15.76037">
        <ele>129.112935</ele>
        <time>2022-08-05T12:28:13.205Z</time>
      </trkpt>
      <trkpt lat="45.81161" lon="15.75969">
        <ele>129.676326</ele>
        <time>2022-08-05T12:28:34.545Z</time>
      </trkpt>
      <trkpt lat="45.81123" lon="15.75894">
        <ele>129.965582</ele>
        <time>2022-08-05T12:28:53.570Z</time>
      </trkpt>
      <trkpt lat="45.8111" lon="15.75867">
        <ele>130.066964</ele>
        <time>2022-08-05T12:28:59.706Z</time>
      </trkpt>
      <trkpt lat="45.81074" lon="15.75811">
        <ele>130.304295</ele>
        <time>2022-08-05T12:29:14.272Z</time>
      </trkpt>
      <trkpt lat="45.81008" lon="15.75738">
        <ele>130.691741</ele>
        <time>2022-08-05T12:29:38.080Z</time>
      </trkpt>
      <trkpt lat="45.80963" lon="15.75673">
        <ele>130.986423</ele>
        <time>2022-08-05T12:29:56.770Z</time>
      </trkpt>
      <trkpt lat="45.80942" lon="15.75635">
        <ele>131.145555</ele>
        <time>2022-08-05T12:30:06.886Z</time>
      </trkpt>
      <trkpt lat="45.80917" lon="15.75589">
        <ele>131.356973</ele>
        <time>2022-08-05T12:30:18.724Z</time>
      </trkpt>
      <trkpt lat="45.80875" lon="15.75485">
        <ele>131.841075</ele>
        <time>2022-08-05T12:30:42.999Z</time>
      </trkpt>
      <trkpt lat="45.80844" lon="15.75335">
        <ele>132.492078</ele>
        <time>2022-08-05T12:31:15.367Z</time>
      </trkpt>
      <trkpt lat="45.80846" lon="15.75306">
        <ele>132.624763</ele>
        <time>2022-08-05T12:31:21.605Z</time>
      </trkpt>
      <trkpt lat="45.80865" lon="15.75244">
        <ele>132.928059</ele>
        <time>2022-08-05T12:31:35.576Z</time>
      </trkpt>
      <trkpt lat="45.80942" lon="15.7504">
        <ele>133.622789</ele>
        <time>2022-08-05T12:32:23.809Z</time>
      </trkpt>
      <trkpt lat="45.80957" lon="15.74998">
        <ele>133.696007</ele>
        <time>2022-08-05T12:32:32.233Z</time>
      </trkpt>
      <trkpt lat="45.80965" lon="15.74919">
        <ele>133.821398</ele>
        <time>2022-08-05T12:32:46.989Z</time>
      </trkpt>
      <trkpt lat="45.80966" lon="15.74906">
        <ele>133.841126</ele>
        <time>2022-08-05T12:32:49.427Z</time>
      </trkpt>
      <trkpt lat="45.80971" lon="15.74836">
        <ele>133.842685</ele>
        <time>2022-08-05T12:33:02.139Z</time>
      </trkpt>
      <trkpt lat="45.80971" lon="15.7478">
        <ele>133.843918</ele>
        <time>2022-08-05T12:33:12.087Z</time>
      </trkpt>
      <trkpt lat="45.8096" lon="15.74721">
        <ele>133.845287</ele>
        <time>2022-08-05T12:33:23.248Z</time>
      </trkpt>
      <trkpt lat="45.80959" lon="15.7464">
        <ele>133.914799</ele>
        <time>2022-08-05T12:33:38.363Z</time>
      </trkpt>
      <trkpt lat="45.80976" lon="15.74503">
        <ele>134.823502</ele>
        <time>2022-08-05T12:34:09.759Z</time>
      </trkpt>
      <trkpt lat="45.8096" lon="15.74459">
        <ele>135.149233</ele>
        <time>2022-08-05T12:34:20.655Z</time>
      </trkpt>
      <trkpt lat="45.80956" lon="15.74448">
        <ele>135.235364</ele>
        <time>2022-08-05T12:34:23.607Z</time>
      </trkpt>
      <trkpt lat="45.80935" lon="15.7439">
        <ele>135.626925</ele>
        <time>2022-08-05T12:34:37.603Z</time>
      </trkpt>
      <trkpt lat="45.80932" lon="15.74377">
        <ele>135.693748</ele>
        <time>2022-08-05T12:34:40.546Z</time>
      </trkpt>
      <trkpt lat="45.80878" lon="15.74098">
        <ele>137.034996</ele>
        <time>2022-08-05T12:35:40.835Z</time>
      </trkpt>
      <trkpt lat="45.80877" lon="15.74091">
        <ele>137.061345</ele>
        <time>2022-08-05T12:35:42.313Z</time>
      </trkpt>
      <trkpt lat="45.80861" lon="15.74003">
        <ele>137.397859</ele>
        <time>2022-08-05T12:36:00.851Z</time>
      </trkpt>
      <trkpt lat="45.80847" lon="15.73959">
        <ele>137.574438</ele>
        <time>2022-08-05T12:36:10.416Z</time>
      </trkpt>
      <trkpt lat="45.8083" lon="15.73901">
        <ele>137.795682</ele>
        <time>2022-08-05T12:36:23.024Z</time>
      </trkpt>
      <trkpt lat="45.80801" lon="15.73798">
        <ele>138.126986</ele>
        <time>2022-08-05T12:36:45.795Z</time>
      </trkpt>
      <trkpt lat="45.80785" lon="15.73742">
        <ele>138.306568</ele>
        <time>2022-08-05T12:36:57.727Z</time>
      </trkpt>
      <trkpt lat="45.80761" lon="15.73632">
        <ele>138.663712</ele>
        <time>2022-08-05T12:37:20.704Z</time>
      </trkpt>
      <trkpt lat="45.80759" lon="15.73617">
        <ele>138.714302</ele>
        <time>2022-08-05T12:37:23.730Z</time>
      </trkpt>
      <trkpt lat="45.80753" lon="15.73577">
        <ele>138.851103</ele>
        <time>2022-08-05T12:37:31.696Z</time>
      </trkpt>
      <trkpt lat="45.8075" lon="15.73557">
        <ele>138.916491</ele>
        <time>2022-08-05T12:37:35.493Z</time>
      </trkpt>
      <trkpt lat="45.80747" lon="15.73544">
        <ele>138.961356</ele>
        <time>2022-08-05T12:37:38.102Z</time>
      </trkpt>
      <trkpt lat="45.80742" lon="15.73517">
        <ele>139.0558</ele>
        <time>2022-08-05T12:37:43.978Z</time>
      </trkpt>
      <trkpt lat="45.80731" lon="15.73473">
        <ele>139.209063</ele>
        <time>2022-08-05T12:37:53.418Z</time>
      </trkpt>
      <trkpt lat="45.80714" lon="15.73431">
        <ele>139.369677</ele>
        <time>2022-08-05T12:38:03.393Z</time>
      </trkpt>
      <trkpt lat="45.80645" lon="15.73306">
        <ele>140.429549</ele>
        <time>2022-08-05T12:38:37.985Z</time>
      </trkpt>
      <trkpt lat="45.8064" lon="15.73298">
        <ele>140.50104</ele>
        <time>2022-08-05T12:38:40.349Z</time>
      </trkpt>
      <trkpt lat="45.80624" lon="15.73272">
        <ele>140.735431</ele>
        <time>2022-08-05T12:38:48.193Z</time>
      </trkpt>
      <trkpt lat="45.80611" lon="15.73249">
        <ele>140.926272</ele>
        <time>2022-08-05T12:38:54.569Z</time>
      </trkpt>
      <trkpt lat="45.80599" lon="15.73226">
        <ele>141.128264</ele>
        <time>2022-08-05T12:39:01.168Z</time>
      </trkpt>
      <trkpt lat="45.8059" lon="15.73203">
        <ele>141.336037</ele>
        <time>2022-08-05T12:39:07.073Z</time>
      </trkpt>
      <trkpt lat="45.80585" lon="15.73184">
        <ele>141.500256</ele>
        <time>2022-08-05T12:39:11.759Z</time>
      </trkpt>
      <trkpt lat="45.80573" lon="15.7313">
        <ele>141.942144</ele>
        <time>2022-08-05T12:39:24.536Z</time>
      </trkpt>
      <trkpt lat="45.80569" lon="15.73088">
        <ele>142.280573</ele>
        <time>2022-08-05T12:39:34.414Z</time>
      </trkpt>
      <trkpt lat="45.80565" lon="15.72991">
        <ele>143.047661</ele>
        <time>2022-08-05T12:39:56.040Z</time>
      </trkpt>
      <trkpt lat="45.80557" lon="15.7289">
        <ele>143.788569</ele>
        <time>2022-08-05T12:40:17.933Z</time>
      </trkpt>
      <trkpt lat="45.80555" lon="15.72851">
        <ele>144.069816</ele>
        <time>2022-08-05T12:40:26.310Z</time>
      </trkpt>
      <trkpt lat="45.80562" lon="15.72771">
        <ele>144.651487</ele>
        <time>2022-08-05T12:40:44.037Z</time>
      </trkpt>
      <trkpt lat="45.80573" lon="15.72668">
        <ele>145.485959</ele>
        <time>2022-08-05T12:41:07.872Z</time>
      </trkpt>
      <trkpt lat="45.80558" lon="15.7244">
        <ele>147.3411</ele>
        <time>2022-08-05T12:42:00.661Z</time>
      </trkpt>
      <trkpt lat="45.80566" lon="15.72259">
        <ele>148.087313</ele>
        <time>2022-08-05T12:42:37.447Z</time>
      </trkpt>
      <trkpt lat="45.80562" lon="15.72222">
        <ele>148.241701</ele>
        <time>2022-08-05T12:42:44.955Z</time>
      </trkpt>
      <trkpt lat="45.80547" lon="15.72167">
        <ele>148.404188</ele>
        <time>2022-08-05T12:42:56.472Z</time>
      </trkpt>
      <trkpt lat="45.80528" lon="15.72123">
        <ele>148.528132</ele>
        <time>2022-08-05T12:43:06.469Z</time>
      </trkpt>
      <trkpt lat="45.80511" lon="15.72087">
        <ele>148.633217</ele>
        <time>2022-08-05T12:43:15.057Z</time>
      </trkpt>
      <trkpt lat="45.80514" lon="15.72083">
        <ele>148.646683</ele>
        <time>2022-08-05T12:43:16.112Z</time>
      </trkpt>
      <trkpt lat="45.80539" lon="15.72015">
        <ele>148.832114</ele>
        <time>2022-08-05T12:43:31.631Z</time>
      </trkpt>
      <trkpt lat="45.80577" lon="15.71863">
        <ele>149.195681</ele>
        <time>2022-08-05T12:44:05.687Z</time>
      </trkpt>
      <trkpt lat="45.80596" lon="15.71821">
        <ele>149.306439</ele>
        <time>2022-08-05T12:44:15.997Z</time>
      </trkpt>
      <trkpt lat="45.80602" lon="15.71808">
        <ele>149.340531</ele>
        <time>2022-08-05T12:44:19.055Z</time>
      </trkpt>
      <trkpt lat="45.80604" lon="15.71802">
        <ele>149.354637</ele>
        <time>2022-08-05T12:44:20.336Z</time>
      </trkpt>
      <trkpt lat="45.806" lon="15.71795">
        <ele>149.374044</ele>
        <time>2022-08-05T12:44:22.096Z</time>
      </trkpt>
      <trkpt lat="45.80619" lon="15.71772">
        <ele>149.453356</ele>
        <time>2022-08-05T12:44:28.889Z</time>
      </trkpt>
      <trkpt lat="45.80628" lon="15.71761">
        <ele>149.488062</ele>
        <time>2022-08-05T12:44:32.000Z</time>
      </trkpt>
      <trkpt lat="45.8063" lon="15.71758">
        <ele>149.495316</ele>
        <time>2022-08-05T12:44:32.768Z</time>
      </trkpt>
      <trkpt lat="45.80661" lon="15.71714">
        <ele>149.60849</ele>
        <time>2022-08-05T12:44:44.594Z</time>
      </trkpt>
      <trkpt lat="45.80671" lon="15.71702">
        <ele>149.641438</ele>
        <time>2022-08-05T12:44:47.983Z</time>
      </trkpt>
      <trkpt lat="45.80689" lon="15.71681">
        <ele>149.701206</ele>
        <time>2022-08-05T12:44:54.156Z</time>
      </trkpt>
      <trkpt lat="45.80702" lon="15.71668">
        <ele>149.741132</ele>
        <time>2022-08-05T12:44:58.221Z</time>
      </trkpt>
      <trkpt lat="45.80692" lon="15.71657">
        <ele>149.772185</ele>
        <time>2022-08-05T12:45:01.502Z</time>
      </trkpt>
      <trkpt lat="45.80675" lon="15.71615">
        <ele>149.860101</ele>
        <time>2022-08-05T12:45:11.123Z</time>
      </trkpt>
      <trkpt lat="45.80668" lon="15.71593">
        <ele>149.902984</ele>
        <time>2022-08-05T12:45:16.157Z</time>
      </trkpt>
      <trkpt lat="45.8066" lon="15.71564">
        <ele>150.007392</ele>
        <time>2022-08-05T12:45:22.735Z</time>
      </trkpt>
      <trkpt lat="45.80657" lon="15.71555">
        <ele>150.078093</ele>
        <time>2022-08-05T12:45:24.873Z</time>
      </trkpt>
      <trkpt lat="45.80654" lon="15.71545">
        <ele>150.15677</ele>
        <time>2022-08-05T12:45:27.226Z</time>
      </trkpt>
      <trkpt lat="45.80651" lon="15.71534">
        <ele>150.244098</ele>
        <time>2022-08-05T12:45:29.774Z</time>
      </trkpt>
      <trkpt lat="45.80646" lon="15.71521">
        <ele>150.356262</ele>
        <time>2022-08-05T12:45:33.059Z</time>
      </trkpt>
      <trkpt lat="45.80629" lon="15.71482">
        <ele>150.687182</ele>
        <time>2022-08-05T12:45:42.907Z</time>
      </trkpt>
      <trkpt lat="45.80606" lon="15.71445">
        <ele>151.055482</ele>
        <time>2022-08-05T12:45:53.933Z</time>
      </trkpt>
      <trkpt lat="45.80599" lon="15.71437">
        <ele>151.149191</ele>
        <time>2022-08-05T12:45:56.786Z</time>
      </trkpt>
      <trkpt lat="45.80556" lon="15.71398">
        <ele>151.682606</ele>
        <time>2022-08-05T12:46:12.976Z</time>
      </trkpt>
      <trkpt lat="45.80531" lon="15.71374">
        <ele>152.052824</ele>
        <time>2022-08-05T12:46:23.172Z</time>
      </trkpt>
      <trkpt lat="45.8049" lon="15.71334">
        <ele>152.729351</ele>
        <time>2022-08-05T12:46:40.326Z</time>
      </trkpt>
      <trkpt lat="45.80486" lon="15.7133">
        <ele>152.797971</ele>
        <time>2022-08-05T12:46:42.089Z</time>
      </trkpt>
      <trkpt lat="45.80487" lon="15.71326">
        <ele>152.838318</ele>
        <time>2022-08-05T12:46:43.140Z</time>
      </trkpt>
      <trkpt lat="45.80484" lon="15.71314">
        <ele>152.958042</ele>
        <time>2022-08-05T12:46:46.214Z</time>
      </trkpt>
      <trkpt lat="45.80489" lon="15.71305">
        <ele>153.072233</ele>
        <time>2022-08-05T12:46:49.076Z</time>
      </trkpt>
      <trkpt lat="45.8051" lon="15.71254">
        <ele>153.622433</ele>
        <time>2022-08-05T12:47:02.584Z</time>
      </trkpt>
      <trkpt lat="45.80522" lon="15.71222">
        <ele>153.96975</ele>
        <time>2022-08-05T12:47:10.713Z</time>
      </trkpt>
      <trkpt lat="45.80526" lon="15.71212">
        <ele>154.086884</ele>
        <time>2022-08-05T12:47:13.531Z</time>
      </trkpt>
      <trkpt lat="45.80536" lon="15.71188">
        <ele>154.34208</ele>
        <time>2022-08-05T12:47:19.506Z</time>
      </trkpt>
      <trkpt lat="45.80549" lon="15.71156">
        <ele>154.676181</ele>
        <time>2022-08-05T12:47:27.943Z</time>
      </trkpt>
      <trkpt lat="45.80555" lon="15.71143">
        <ele>154.811076</ele>
        <time>2022-08-05T12:47:31.203Z</time>
      </trkpt>
      <trkpt lat="45.80566" lon="15.7111">
        <ele>155.137265</ele>
        <time>2022-08-05T12:47:39.628Z</time>
      </trkpt>
      <trkpt lat="45.80577" lon="15.71066">
        <ele>155.552764</ele>
        <time>2022-08-05T12:47:50.553Z</time>
      </trkpt>
      <trkpt lat="45.80582" lon="15.71042">
        <ele>155.776597</ele>
        <time>2022-08-05T12:47:56.285Z</time>
      </trkpt>
      <trkpt lat="45.80583" lon="15.71034">
        <ele>155.849864</ele>
        <time>2022-08-05T12:47:58.300Z</time>
      </trkpt>
      <trkpt lat="45.80593" lon="15.71023">
        <ele>156.012894</ele>
        <time>2022-08-05T12:48:02.723Z</time>
      </trkpt>
      <trkpt lat="45.80628" lon="15.71022">
        <ele>156.450063</ele>
        <time>2022-08-05T12:48:14.068Z</time>
      </trkpt>
      <trkpt lat="45.8077" lon="15.71013">
        <ele>158.029505</ele>
        <time>2022-08-05T12:48:59.680Z</time>
      </trkpt>
      <trkpt lat="45.80805" lon="15.71004">
        <ele>158.422306</ele>
        <time>2022-08-05T12:49:11.017Z</time>
      </trkpt>
      <trkpt lat="45.80895" lon="15.70962">
        <ele>158.819225</ele>
        <time>2022-08-05T12:49:40.033Z</time>
      </trkpt>
      <trkpt lat="45.80977" lon="15.70915">
        <ele>159.10253</ele>
        <time>2022-08-05T12:50:03.529Z</time>
      </trkpt>
      <trkpt lat="45.80986" lon="15.7091">
        <ele>159.128103</ele>
        <time>2022-08-05T12:50:05.916Z</time>
      </trkpt>
      <trkpt lat="45.80993" lon="15.70905">
        <ele>159.087959</ele>
        <time>2022-08-05T12:50:07.889Z</time>
      </trkpt>
      <trkpt lat="45.81079" lon="15.70846">
        <ele>158.597403</ele>
        <time>2022-08-05T12:50:30.953Z</time>
      </trkpt>
      <trkpt lat="45.81176" lon="15.70799">
        <ele>158.331897</ele>
        <time>2022-08-05T12:50:55.789Z</time>
      </trkpt>
      <trkpt lat="45.81204" lon="15.70782">
        <ele>158.481469</ele>
        <time>2022-08-05T12:51:03.820Z</time>
      </trkpt>
      <trkpt lat="45.81208" lon="15.70779">
        <ele>158.501924</ele>
        <time>2022-08-05T12:51:04.963Z</time>
      </trkpt>
      <trkpt lat="45.81242" lon="15.70748">
        <ele>158.701574</ele>
        <time>2022-08-05T12:51:16.644Z</time>
      </trkpt>
      <trkpt lat="45.81273" lon="15.70712">
        <ele>158.895726</ele>
        <time>2022-08-05T12:51:28.796Z</time>
      </trkpt>
      <trkpt lat="45.81442" lon="15.70546">
        <ele>161.608192</ele>
        <time>2022-08-05T12:52:38.929Z</time>
      </trkpt>
      <trkpt lat="45.81447" lon="15.70541">
        <ele>161.704643</ele>
        <time>2022-08-05T12:52:41.114Z</time>
      </trkpt>
      <trkpt lat="45.81493" lon="15.705">
        <ele>162.323666</ele>
        <time>2022-08-05T12:52:58.892Z</time>
      </trkpt>
      <trkpt lat="45.81515" lon="15.70487">
        <ele>162.581514</ele>
        <time>2022-08-05T12:53:06.467Z</time>
      </trkpt>
      <trkpt lat="45.81574" lon="15.70467">
        <ele>163.247593</ele>
        <time>2022-08-05T12:53:25.829Z</time>
      </trkpt>
      <trkpt lat="45.81608" lon="15.70446">
        <ele>163.643026</ele>
        <time>2022-08-05T12:53:37.503Z</time>
      </trkpt>
      <trkpt lat="45.81638" lon="15.7042">
        <ele>163.779673</ele>
        <time>2022-08-05T12:53:48.586Z</time>
      </trkpt>
      <trkpt lat="45.81683" lon="15.70373">
        <ele>163.796522</ele>
        <time>2022-08-05T12:54:03.943Z</time>
      </trkpt>
      <trkpt lat="45.81737" lon="15.70298">
        <ele>163.819404</ele>
        <time>2022-08-05T12:54:23.492Z</time>
      </trkpt>
      <trkpt lat="45.81765" lon="15.70267">
        <ele>163.672733</ele>
        <time>2022-08-05T12:54:32.397Z</time>
      </trkpt>
      <trkpt lat="45.81795" lon="15.70242">
        <ele>163.160999</ele>
        <time>2022-08-05T12:54:40.467Z</time>
      </trkpt>
      <trkpt lat="45.81906" lon="15.70143">
        <ele>161.187655</ele>
        <time>2022-08-05T12:55:08.409Z</time>
      </trkpt>
      <trkpt lat="45.81971" lon="15.70064">
        <ele>159.708477</ele>
        <time>2022-08-05T12:55:26.540Z</time>
      </trkpt>
      <trkpt lat="45.82024" lon="15.69999">
        <ele>158.488828</ele>
        <time>2022-08-05T12:55:41.386Z</time>
      </trkpt>
      <trkpt lat="45.82134" lon="15.69917">
        <ele>156.578671</ele>
        <time>2022-08-05T12:56:08.722Z</time>
      </trkpt>
      <trkpt lat="45.82211" lon="15.69868">
        <ele>155.343856</ele>
        <time>2022-08-05T12:56:27.965Z</time>
      </trkpt>
      <trkpt lat="45.82346" lon="15.69798">
        <ele>152.659359</ele>
        <time>2022-08-05T12:56:58.538Z</time>
      </trkpt>
      <trkpt lat="45.82387" lon="15.69771">
        <ele>151.830784</ele>
        <time>2022-08-05T12:57:07.929Z</time>
      </trkpt>
      <trkpt lat="45.82462" lon="15.697">
        <ele>150.308719</ele>
        <time>2022-08-05T12:57:26.554Z</time>
      </trkpt>
      <trkpt lat="45.82485" lon="15.69677">
        <ele>149.821728</ele>
        <time>2022-08-05T12:57:32.538Z</time>
      </trkpt>
      <trkpt lat="45.82524" lon="15.69655">
        <ele>149.104261</ele>
        <time>2022-08-05T12:57:41.785Z</time>
      </trkpt>
      <trkpt lat="45.82534" lon="15.69649">
        <ele>148.917803</ele>
        <time>2022-08-05T12:57:44.320Z</time>
      </trkpt>
      <trkpt lat="45.8256" lon="15.69629">
        <ele>149.066279</ele>
        <time>2022-08-05T12:57:51.553Z</time>
      </trkpt>
      <trkpt lat="45.82666" lon="15.69539">
        <ele>149.82807</ele>
        <time>2022-08-05T12:58:28.231Z</time>
      </trkpt>
      <trkpt lat="45.8286" lon="15.69365">
        <ele>154.234122</ele>
        <time>2022-08-05T12:59:53.735Z</time>
      </trkpt>
      <trkpt lat="45.82915" lon="15.69287">
        <ele>155.659388</ele>
        <time>2022-08-05T13:00:22.783Z</time>
      </trkpt>
      <trkpt lat="45.83042" lon="15.69127">
        <ele>157.802818</ele>
        <time>2022-08-05T13:01:18.321Z</time>
      </trkpt>
      <trkpt lat="45.83065" lon="15.69098">
        <ele>158.026488</ele>
        <time>2022-08-05T13:01:27.319Z</time>
      </trkpt>
      <trkpt lat="45.83099" lon="15.69069">
        <ele>158.319778</ele>
        <time>2022-08-05T13:01:38.599Z</time>
      </trkpt>
      <trkpt lat="45.83346" lon="15.68915">
        <ele>158.562397</ele>
        <time>2022-08-05T13:02:48.980Z</time>
      </trkpt>
      <trkpt lat="45.83364" lon="15.68905">
        <ele>158.631484</ele>
        <time>2022-08-05T13:02:54.885Z</time>
      </trkpt>
      <trkpt lat="45.83396" lon="15.68886">
        <ele>158.760547</ele>
        <time>2022-08-05T13:03:05.680Z</time>
      </trkpt>
      <trkpt lat="45.83424" lon="15.6887">
        <ele>158.872568</ele>
        <time>2022-08-05T13:03:14.774Z</time>
      </trkpt>
      <trkpt lat="45.83442" lon="15.6886">
        <ele>158.941561</ele>
        <time>2022-08-05T13:03:20.365Z</time>
      </trkpt>
      <trkpt lat="45.83483" lon="15.68838">
        <ele>158.899795</ele>
        <time>2022-08-05T13:03:32.815Z</time>
      </trkpt>
      <trkpt lat="45.83497" lon="15.68835">
        <ele>158.864952</ele>
        <time>2022-08-05T13:03:36.849Z</time>
      </trkpt>
      <trkpt lat="45.8351" lon="15.68832">
        <ele>158.833454</ele>
        <time>2022-08-05T13:03:40.547Z</time>
      </trkpt>
      <trkpt lat="45.83647" lon="15.68818">
        <ele>158.509913</ele>
        <time>2022-08-05T13:04:13.655Z</time>
      </trkpt>
      <trkpt lat="45.83713" lon="15.68812">
        <ele>158.369808</ele>
        <time>2022-08-05T13:04:29.992Z</time>
      </trkpt>
      <trkpt lat="45.83765" lon="15.68807">
        <ele>158.257607</ele>
        <time>2022-08-05T13:04:44.230Z</time>
      </trkpt>
      <trkpt lat="45.83771" lon="15.68806">
        <ele>158.244957</ele>
        <time>2022-08-05T13:04:45.847Z</time>
      </trkpt>
      <trkpt lat="45.83806" lon="15.68801">
        <ele>158.169293</ele>
        <time>2022-08-05T13:04:55.423Z</time>
      </trkpt>
      <trkpt lat="45.83827" lon="15.68799">
        <ele>158.197969</ele>
        <time>2022-08-05T13:05:01.025Z</time>
      </trkpt>
      <trkpt lat="45.83834" lon="15.68798">
        <ele>158.209488</ele>
        <time>2022-08-05T13:05:02.876Z</time>
      </trkpt>
      <trkpt lat="45.83857" lon="15.68795">
        <ele>158.250665</ele>
        <time>2022-08-05T13:05:09.169Z</time>
      </trkpt>
      <trkpt lat="45.83877" lon="15.68793">
        <ele>158.285483</ele>
        <time>2022-08-05T13:05:14.675Z</time>
      </trkpt>
      <trkpt lat="45.84" lon="15.68783">
        <ele>158.411192</ele>
        <time>2022-08-05T13:05:49.311Z</time>
      </trkpt>
      <trkpt lat="45.84008" lon="15.68783">
        <ele>158.366785</ele>
        <time>2022-08-05T13:05:51.406Z</time>
      </trkpt>
      <trkpt lat="45.84016" lon="15.68784">
        <ele>158.322853</ele>
        <time>2022-08-05T13:05:53.592Z</time>
      </trkpt>
      <trkpt lat="45.84024" lon="15.6872">
        <ele>158.075872</ele>
        <time>2022-08-05T13:06:05.068Z</time>
      </trkpt>
      <trkpt lat="45.84023" lon="15.68616">
        <ele>157.678341</ele>
        <time>2022-08-05T13:06:22.300Z</time>
      </trkpt>
      <trkpt lat="45.84028" lon="15.68591">
        <ele>157.576734</ele>
        <time>2022-08-05T13:06:26.579Z</time>
      </trkpt>
      <trkpt lat="45.8404" lon="15.68573">
        <ele>157.442442</ele>
        <time>2022-08-05T13:06:30.985Z</time>
      </trkpt>
      <trkpt lat="45.84096" lon="15.68542">
        <ele>155.821844</ele>
        <time>2022-08-05T13:06:44.032Z</time>
      </trkpt>
      <trkpt lat="45.84116" lon="15.68525">
        <ele>155.183683</ele>
        <time>2022-08-05T13:06:48.773Z</time>
      </trkpt>
      <trkpt lat="45.84143" lon="15.6848">
        <ele>154.04755</ele>
        <time>2022-08-05T13:06:56.821Z</time>
      </trkpt>
      <trkpt lat="45.84175" lon="15.68436">
        <ele>152.841763</ele>
        <time>2022-08-05T13:07:05.044Z</time>
      </trkpt>
      <trkpt lat="45.84192" lon="15.6843">
        <ele>152.328948</ele>
        <time>2022-08-05T13:07:08.348Z</time>
      </trkpt>
      <trkpt lat="45.84203" lon="15.68425">
        <ele>151.977367</ele>
        <time>2022-08-05T13:07:10.473Z</time>
      </trkpt>
      <trkpt lat="45.84211" lon="15.68418">
        <ele>151.68449</ele>
        <time>2022-08-05T13:07:12.315Z</time>
      </trkpt>
      <trkpt lat="45.84239" lon="15.68408">
        <ele>150.790271</ele>
        <time>2022-08-05T13:07:17.868Z</time>
      </trkpt>
      <trkpt lat="45.8425" lon="15.684">
        <ele>150.405989</ele>
        <time>2022-08-05T13:07:20.310Z</time>
      </trkpt>
      <trkpt lat="45.8426" lon="15.68393">
        <ele>150.066781</ele>
        <time>2022-08-05T13:07:22.431Z</time>
      </trkpt>
      <trkpt lat="45.8427" lon="15.68384">
        <ele>149.694584</ele>
        <time>2022-08-05T13:07:24.750Z</time>
      </trkpt>
      <trkpt lat="45.84281" lon="15.68373">
        <ele>149.278044</ele>
        <time>2022-08-05T13:07:27.372Z</time>
      </trkpt>
      <trkpt lat="45.84299" lon="15.68356">
        <ele>148.593424</ele>
        <time>2022-08-05T13:07:31.633Z</time>
      </trkpt>
      <trkpt lat="45.84317" lon="15.68345">
        <ele>147.997387</ele>
        <time>2022-08-05T13:07:35.454Z</time>
      </trkpt>
      <trkpt lat="45.8432" lon="15.68345">
        <ele>147.906392</ele>
        <time>2022-08-05T13:07:36.019Z</time>
      </trkpt>
      <trkpt lat="45.84346" lon="15.68362">
        <ele>147.02018</ele>
        <time>2022-08-05T13:07:41.803Z</time>
      </trkpt>
      <trkpt lat="45.84338" lon="15.68407">
        <ele>146.71009</ele>
        <time>2022-08-05T13:07:48.633Z</time>
      </trkpt>
      <trkpt lat="45.84334" lon="15.68457">
        <ele>146.407175</ele>
        <time>2022-08-05T13:07:56.477Z</time>
      </trkpt>
      <trkpt lat="45.84335" lon="15.68472">
        <ele>146.320268</ele>
        <time>2022-08-05T13:07:58.846Z</time>
      </trkpt>
      <trkpt lat="45.84337" lon="15.6852">
        <ele>146.030443</ele>
        <time>2022-08-05T13:08:07.181Z</time>
      </trkpt>
      <trkpt lat="45.84338" lon="15.68546">
        <ele>145.874199</ele>
        <time>2022-08-05T13:08:11.922Z</time>
      </trkpt>
      <trkpt lat="45.84341" lon="15.68582">
        <ele>145.658544</ele>
        <time>2022-08-05T13:08:18.535Z</time>
      </trkpt>
      <trkpt lat="45.84342" lon="15.68592">
        <ele>145.597667</ele>
        <time>2022-08-05T13:08:20.417Z</time>
      </trkpt>
      <trkpt lat="45.84344" lon="15.68621">
        <ele>145.433948</ele>
        <time>2022-08-05T13:08:25.787Z</time>
      </trkpt>
      <trkpt lat="45.84346" lon="15.68637">
        <ele>145.5259</ele>
        <time>2022-08-05T13:08:29.018Z</time>
      </trkpt>
      <trkpt lat="45.84354" lon="15.68634">
        <ele>145.595758</ele>
        <time>2022-08-05T13:08:31.438Z</time>
      </trkpt>
      <trkpt lat="45.84453" lon="15.68595">
        <ele>146.399394</ele>
        <time>2022-08-05T13:09:00.869Z</time>
      </trkpt>
      <trkpt lat="45.84634" lon="15.68481">
        <ele>149.900749</ele>
        <time>2022-08-05T13:10:10.356Z</time>
      </trkpt>
      <trkpt lat="45.8465" lon="15.68464">
        <ele>150.34102</ele>
        <time>2022-08-05T13:10:19.010Z</time>
      </trkpt>
      <trkpt lat="45.8467" lon="15.68428">
        <ele>151.241758</ele>
        <time>2022-08-05T13:10:32.459Z</time>
      </trkpt>
      <trkpt lat="45.84688" lon="15.68382">
        <ele>152.653777</ele>
        <time>2022-08-05T13:10:48.703Z</time>
      </trkpt>
      <trkpt lat="45.84738" lon="15.68329">
        <ele>154.995135</ele>
        <time>2022-08-05T13:11:17.112Z</time>
      </trkpt>
      <trkpt lat="45.84794" lon="15.68231">
        <ele>158.203343</ele>
        <time>2022-08-05T13:11:58.888Z</time>
      </trkpt>
      <trkpt lat="45.84903" lon="15.68088">
        <ele>162.81976</ele>
        <time>2022-08-05T13:13:00.257Z</time>
      </trkpt>
      <trkpt lat="45.84941" lon="15.6804">
        <ele>163.419143</ele>
        <time>2022-08-05T13:13:18.537Z</time>
      </trkpt>
      <trkpt lat="45.84957" lon="15.68029">
        <ele>163.525475</ele>
        <time>2022-08-05T13:13:24.841Z</time>
      </trkpt>
      <trkpt lat="45.84992" lon="15.68016">
        <ele>163.735344</ele>
        <time>2022-08-05T13:13:35.952Z</time>
      </trkpt>
      <trkpt lat="45.85121" lon="15.68015">
        <ele>163.649797</ele>
        <time>2022-08-05T13:14:07.704Z</time>
      </trkpt>
      <trkpt lat="45.85434" lon="15.68003">
        <ele>158.83425</ele>
        <time>2022-08-05T13:15:15.197Z</time>
      </trkpt>
      <trkpt lat="45.85496" lon="15.67976">
        <ele>158.111162</ele>
        <time>2022-08-05T13:15:30.428Z</time>
      </trkpt>
      <trkpt lat="45.85587" lon="15.67921">
        <ele>157.04474</ele>
        <time>2022-08-05T13:15:53.729Z</time>
      </trkpt>
      <trkpt lat="45.85659" lon="15.67875">
        <ele>155.342783</ele>
        <time>2022-08-05T13:16:11.027Z</time>
      </trkpt>
      <trkpt lat="45.85758" lon="15.67839">
        <ele>152.78054</ele>
        <time>2022-08-05T13:16:31.368Z</time>
      </trkpt>
      <trkpt lat="45.85774" lon="15.67841">
        <ele>152.378247</ele>
        <time>2022-08-05T13:16:34.306Z</time>
      </trkpt>
      <trkpt lat="45.85887" lon="15.67854">
        <ele>149.272437</ele>
        <time>2022-08-05T13:16:56.127Z</time>
      </trkpt>
      <trkpt lat="45.85993" lon="15.67851">
        <ele>147.68502</ele>
        <time>2022-08-05T13:17:19.179Z</time>
      </trkpt>
      <trkpt lat="45.86052" lon="15.67834">
        <ele>148.210537</ele>
        <time>2022-08-05T13:17:36.590Z</time>
      </trkpt>
      <trkpt lat="45.8615" lon="15.67787">
        <ele>149.407394</ele>
        <time>2022-08-05T13:18:15.479Z</time>
      </trkpt>
      <trkpt lat="45.86225" lon="15.67721">
        <ele>151.536922</ele>
        <time>2022-08-05T13:18:51.472Z</time>
      </trkpt>
      <trkpt lat="45.86454" lon="15.67468">
        <ele>158.129013</ele>
        <time>2022-08-05T13:20:35.592Z</time>
      </trkpt>
      <trkpt lat="45.86467" lon="15.67449">
        <ele>158.761549</ele>
        <time>2022-08-05T13:20:42.899Z</time>
      </trkpt>
      <trkpt lat="45.86476" lon="15.67422">
        <ele>159.483146</ele>
        <time>2022-08-05T13:20:51.719Z</time>
      </trkpt>
      <trkpt lat="45.86544" lon="15.6721">
        <ele>164.08513</ele>
        <time>2022-08-05T13:22:08.359Z</time>
      </trkpt>
      <trkpt lat="45.86567" lon="15.67026">
        <ele>165.955052</ele>
        <time>2022-08-05T13:22:50.656Z</time>
      </trkpt>
      <trkpt lat="45.86582" lon="15.66959">
        <ele>164.220605</ele>
        <time>2022-08-05T13:23:00.283Z</time>
      </trkpt>
      <trkpt lat="45.86594" lon="15.66933">
        <ele>163.437995</ele>
        <time>2022-08-05T13:23:04.491Z</time>
      </trkpt>
      <trkpt lat="45.86618" lon="15.669">
        <ele>162.262527</ele>
        <time>2022-08-05T13:23:10.554Z</time>
      </trkpt>
      <trkpt lat="45.86716" lon="15.6681">
        <ele>159.020335</ele>
        <time>2022-08-05T13:23:31.401Z</time>
      </trkpt>
      <trkpt lat="45.8675" lon="15.66741">
        <ele>157.968224</ele>
        <time>2022-08-05T13:23:43.306Z</time>
      </trkpt>
      <trkpt lat="45.8678" lon="15.66691">
        <ele>157.155886</ele>
        <time>2022-08-05T13:23:56.996Z</time>
      </trkpt>
      <trkpt lat="45.86849" lon="15.66596">
        <ele>158.768068</ele>
        <time>2022-08-05T13:24:32.068Z</time>
      </trkpt>
      <trkpt lat="45.8696" lon="15.66523">
        <ele>162.361764</ele>
        <time>2022-08-05T13:25:25.580Z</time>
      </trkpt>
      <trkpt lat="45.87019" lon="15.66453">
        <ele>164.527329</ele>
        <time>2022-08-05T13:26:03.205Z</time>
      </trkpt>
      <trkpt lat="45.87049" lon="15.66348">
        <ele>166.748905</ele>
        <time>2022-08-05T13:26:29.628Z</time>
      </trkpt>
      <trkpt lat="45.87048" lon="15.66311">
        <ele>167.305793</ele>
        <time>2022-08-05T13:26:37.596Z</time>
      </trkpt>
      <trkpt lat="45.87028" lon="15.66247">
        <ele>168.115854</ele>
        <time>2022-08-05T13:26:54.136Z</time>
      </trkpt>
      <trkpt lat="45.87028" lon="15.66222">
        <ele>168.411951</ele>
        <time>2022-08-05T13:27:01.042Z</time>
      </trkpt>
      <trkpt lat="45.87037" lon="15.66216">
        <ele>168.575136</ele>
        <time>2022-08-05T13:27:02.821Z</time>
      </trkpt>
      <trkpt lat="45.87068" lon="15.6622">
        <ele>169.096614</ele>
        <time>2022-08-05T13:27:14.584Z</time>
      </trkpt>
      <trkpt lat="45.8708" lon="15.66215">
        <ele>169.293137</ele>
        <time>2022-08-05T13:27:19.441Z</time>
      </trkpt>
      <trkpt lat="45.87086" lon="15.66203">
        <ele>169.46941</ele>
        <time>2022-08-05T13:27:24.258Z</time>
      </trkpt>
      <trkpt lat="45.87112" lon="15.66035">
        <ele>172.997016</ele>
        <time>2022-08-05T13:28:09.220Z</time>
      </trkpt>
      <trkpt lat="45.87097" lon="15.6593">
        <ele>175.613893</ele>
        <time>2022-08-05T13:28:49.899Z</time>
      </trkpt>
      <trkpt lat="45.87113" lon="15.65715">
        <ele>177.269479</ele>
        <time>2022-08-05T13:29:45.910Z</time>
      </trkpt>
      <trkpt lat="45.87127" lon="15.65629">
        <ele>177.175989</ele>
        <time>2022-08-05T13:29:57.985Z</time>
      </trkpt>
      <trkpt lat="45.87147" lon="15.65553">
        <ele>174.796223</ele>
        <time>2022-08-05T13:30:08.526Z</time>
      </trkpt>
      <trkpt lat="45.87163" lon="15.65514">
        <ele>173.492074</ele>
        <time>2022-08-05T13:30:14.069Z</time>
      </trkpt>
      <trkpt lat="45.87207" lon="15.65442">
        <ele>170.719731</ele>
        <time>2022-08-05T13:30:26.110Z</time>
      </trkpt>
      <trkpt lat="45.87243" lon="15.65401">
        <ele>169.724049</ele>
        <time>2022-08-05T13:30:35.306Z</time>
      </trkpt>
      <trkpt lat="45.87257" lon="15.65369">
        <ele>169.387576</ele>
        <time>2022-08-05T13:30:40.837Z</time>
      </trkpt>
      <trkpt lat="45.87307" lon="15.65212">
        <ele>167.862027</ele>
        <time>2022-08-05T13:31:11.297Z</time>
      </trkpt>
      <trkpt lat="45.87322" lon="15.65142">
        <ele>167.360478</ele>
        <time>2022-08-05T13:31:24.939Z</time>
      </trkpt>
      <trkpt lat="45.87347" lon="15.6508">
        <ele>166.880849</ele>
        <time>2022-08-05T13:31:37.015Z</time>
      </trkpt>
      <trkpt lat="45.87383" lon="15.6502">
        <ele>166.343683</ele>
        <time>2022-08-05T13:31:49.144Z</time>
      </trkpt>
      <trkpt lat="45.87432" lon="15.64957">
        <ele>165.948893</ele>
        <time>2022-08-05T13:32:02.800Z</time>
      </trkpt>
      <trkpt lat="45.8745" lon="15.6489">
        <ele>165.764055</ele>
        <time>2022-08-05T13:32:14.248Z</time>
      </trkpt>
      <trkpt lat="45.87459" lon="15.64872">
        <ele>165.707246</ele>
        <time>2022-08-05T13:32:17.958Z</time>
      </trkpt>
      <trkpt lat="45.87491" lon="15.64822">
        <ele>165.53589</ele>
        <time>2022-08-05T13:32:30.286Z</time>
      </trkpt>
      <trkpt lat="45.87563" lon="15.64619">
        <ele>168.924887</ele>
        <time>2022-08-05T13:33:31.274Z</time>
      </trkpt>
      <trkpt lat="45.87576" lon="15.64517">
        <ele>170.813693</ele>
        <time>2022-08-05T13:34:03.393Z</time>
      </trkpt>
      <trkpt lat="45.87574" lon="15.64482">
        <ele>171.440598</ele>
        <time>2022-08-05T13:34:13.918Z</time>
      </trkpt>
      <trkpt lat="45.87561" lon="15.64408">
        <ele>172.790085</ele>
        <time>2022-08-05T13:34:36.176Z</time>
      </trkpt>
      <trkpt lat="45.87562" lon="15.64333">
        <ele>174.114536</ele>
        <time>2022-08-05T13:34:55.803Z</time>
      </trkpt>
      <trkpt lat="45.87568" lon="15.64299">
        <ele>174.734286</ele>
        <time>2022-08-05T13:35:04.222Z</time>
      </trkpt>
      <trkpt lat="45.87585" lon="15.6425">
        <ele>174.622486</ele>
        <time>2022-08-05T13:35:15.753Z</time>
      </trkpt>
      <trkpt lat="45.8763" lon="15.64037">
        <ele>173.879816</ele>
        <time>2022-08-05T13:35:51.909Z</time>
      </trkpt>
      <trkpt lat="45.87665" lon="15.63918">
        <ele>172.715864</ele>
        <time>2022-08-05T13:36:12.184Z</time>
      </trkpt>
      <trkpt lat="45.8769" lon="15.63863">
        <ele>172.123647</ele>
        <time>2022-08-05T13:36:22.365Z</time>
      </trkpt>
      <trkpt lat="45.87718" lon="15.63782">
        <ele>171.328911</ele>
        <time>2022-08-05T13:36:36.171Z</time>
      </trkpt>
      <trkpt lat="45.87739" lon="15.63686">
        <ele>170.472121</ele>
        <time>2022-08-05T13:36:52.082Z</time>
      </trkpt>
      <trkpt lat="45.87766" lon="15.63609">
        <ele>169.735295</ele>
        <time>2022-08-05T13:37:05.897Z</time>
      </trkpt>
      <trkpt lat="45.87778" lon="15.63527">
        <ele>168.893184</ele>
        <time>2022-08-05T13:37:18.963Z</time>
      </trkpt>
      <trkpt lat="45.87772" lon="15.6343">
        <ele>167.828736</ele>
        <time>2022-08-05T13:37:33.754Z</time>
      </trkpt>
      <trkpt lat="45.87774" lon="15.63354">
        <ele>167.011816</ele>
        <time>2022-08-05T13:37:45.166Z</time>
      </trkpt>
      <trkpt lat="45.87775" lon="15.63334">
        <ele>166.787723</ele>
        <time>2022-08-05T13:37:48.289Z</time>
      </trkpt>
      <trkpt lat="45.87795" lon="15.63246">
        <ele>165.612868</ele>
        <time>2022-08-05T13:38:02.173Z</time>
      </trkpt>
      <trkpt lat="45.87819" lon="15.63083">
        <ele>163.465282</ele>
        <time>2022-08-05T13:38:26.815Z</time>
      </trkpt>
      <trkpt lat="45.87867" lon="15.62904">
        <ele>160.943242</ele>
        <time>2022-08-05T13:38:55.049Z</time>
      </trkpt>
      <trkpt lat="45.87868" lon="15.62872">
        <ele>160.525758</ele>
        <time>2022-08-05T13:38:59.806Z</time>
      </trkpt>
      <trkpt lat="45.87842" lon="15.62757">
        <ele>159.41226</ele>
        <time>2022-08-05T13:39:18.027Z</time>
      </trkpt>
      <trkpt lat="45.87822" lon="15.62487">
        <ele>157.719148</ele>
        <time>2022-08-05T13:40:03.572Z</time>
      </trkpt>
      <trkpt lat="45.87825" lon="15.62377">
        <ele>157.201596</ele>
        <time>2022-08-05T13:40:23.018Z</time>
      </trkpt>
      <trkpt lat="45.87832" lon="15.62332">
        <ele>156.987615</ele>
        <time>2022-08-05T13:40:30.641Z</time>
      </trkpt>
      <trkpt lat="45.87884" lon="15.62112">
        <ele>154.346588</ele>
        <time>2022-08-05T13:41:05.539Z</time>
      </trkpt>
      <trkpt lat="45.87964" lon="15.61927">
        <ele>151.918993</ele>
        <time>2022-08-05T13:41:37.246Z</time>
      </trkpt>
      <trkpt lat="45.88059" lon="15.61667">
        <ele>150.847144</ele>
        <time>2022-08-05T13:42:27.579Z</time>
      </trkpt>
      <trkpt lat="45.88141" lon="15.61524">
        <ele>152.478955</ele>
        <time>2022-08-05T13:43:10.682Z</time>
      </trkpt>
      <trkpt lat="45.88256" lon="15.61369">
        <ele>154.534317</ele>
        <time>2022-08-05T13:44:10.190Z</time>
      </trkpt>
      <trkpt lat="45.88348" lon="15.61298">
        <ele>155.424394</ele>
        <time>2022-08-05T13:44:39.725Z</time>
      </trkpt>
      <trkpt lat="45.88414" lon="15.61254">
        <ele>154.189755</ele>
        <time>2022-08-05T13:44:55.019Z</time>
      </trkpt>
      <trkpt lat="45.88494" lon="15.61197">
        <ele>152.679295</ele>
        <time>2022-08-05T13:45:13.312Z</time>
      </trkpt>
      <trkpt lat="45.88574" lon="15.61151">
        <ele>152.435754</ele>
        <time>2022-08-05T13:45:32.937Z</time>
      </trkpt>
      <trkpt lat="45.88628" lon="15.61101">
        <ele>152.448801</ele>
        <time>2022-08-05T13:45:50.499Z</time>
      </trkpt>
      <trkpt lat="45.88646" lon="15.61084">
        <ele>152.453139</ele>
        <time>2022-08-05T13:45:57.162Z</time>
      </trkpt>
      <trkpt lat="45.88656" lon="15.61072">
        <ele>152.455753</ele>
        <time>2022-08-05T13:46:01.285Z</time>
      </trkpt>
      <trkpt lat="45.88762" lon="15.60964">
        <ele>155.53331</ele>
        <time>2022-08-05T13:46:53.478Z</time>
      </trkpt>
      <trkpt lat="45.8879" lon="15.60928">
        <ele>156.495537</ele>
        <time>2022-08-05T13:47:08.455Z</time>
      </trkpt>
      <trkpt lat="45.88804" lon="15.60919">
        <ele>156.889519</ele>
        <time>2022-08-05T13:47:14.354Z</time>
      </trkpt>
      <trkpt lat="45.88804" lon="15.60886">
        <ele>157.43148</ele>
        <time>2022-08-05T13:47:24.210Z</time>
      </trkpt>
      <trkpt lat="45.88818" lon="15.60822">
        <ele>158.509485</ele>
        <time>2022-08-05T13:47:42.967Z</time>
      </trkpt>
      <trkpt lat="45.88826" lon="15.60719">
        <ele>160.161844</ele>
        <time>2022-08-05T13:48:11.167Z</time>
      </trkpt>
      <trkpt lat="45.88838" lon="15.60686">
        <ele>160.741466</ele>
        <time>2022-08-05T13:48:21.341Z</time>
      </trkpt>
      <trkpt lat="45.88853" lon="15.60665">
        <ele>161.226242</ele>
        <time>2022-08-05T13:48:28.105Z</time>
      </trkpt>
      <trkpt lat="45.8887" lon="15.60653">
        <ele>161.656936</ele>
        <time>2022-08-05T13:48:34.420Z</time>
      </trkpt>
      <trkpt lat="45.88915" lon="15.60636">
        <ele>162.723778</ele>
        <time>2022-08-05T13:48:51.159Z</time>
      </trkpt>
      <trkpt lat="45.88942" lon="15.60598">
        <ele>163.581224</ele>
        <time>2022-08-05T13:49:05.962Z</time>
      </trkpt>
      <trkpt lat="45.88966" lon="15.60516">
        <ele>164.989891</ele>
        <time>2022-08-05T13:49:32.281Z</time>
      </trkpt>
      <trkpt lat="45.88999" lon="15.60357">
        <ele>165.682183</ele>
        <time>2022-08-05T13:50:17.356Z</time>
      </trkpt>
      <trkpt lat="45.89005" lon="15.60308">
        <ele>165.813174</ele>
        <time>2022-08-05T13:50:25.044Z</time>
      </trkpt>
      <trkpt lat="45.89016" lon="15.6027">
        <ele>165.918536</ele>
        <time>2022-08-05T13:50:31.094Z</time>
      </trkpt>
      <trkpt lat="45.89031" lon="15.60244">
        <ele>165.797003</ele>
        <time>2022-08-05T13:50:36.400Z</time>
      </trkpt>
      <trkpt lat="45.89047" lon="15.60229">
        <ele>165.425662</ele>
        <time>2022-08-05T13:50:40.156Z</time>
      </trkpt>
      <trkpt lat="45.89067" lon="15.60219">
        <ele>165.018503</ele>
        <time>2022-08-05T13:50:45.255Z</time>
      </trkpt>
      <trkpt lat="45.89079" lon="15.60219">
        <ele>164.772199</ele>
        <time>2022-08-05T13:50:47.590Z</time>
      </trkpt>
      <trkpt lat="45.89105" lon="15.60233">
        <ele>164.23552</ele>
        <time>2022-08-05T13:50:53.845Z</time>
      </trkpt>
      <trkpt lat="45.89134" lon="15.60237">
        <ele>163.660065</ele>
        <time>2022-08-05T13:51:00.347Z</time>
      </trkpt>
      <trkpt lat="45.89161" lon="15.60221">
        <ele>163.098912</ele>
        <time>2022-08-05T13:51:06.521Z</time>
      </trkpt>
      <trkpt lat="45.89197" lon="15.60172">
        <ele>162.821363</ele>
        <time>2022-08-05T13:51:18.023Z</time>
      </trkpt>
      <trkpt lat="45.89209" lon="15.60151">
        <ele>163.219842</ele>
        <time>2022-08-05T13:51:22.453Z</time>
      </trkpt>
      <trkpt lat="45.89233" lon="15.60074">
        <ele>164.453608</ele>
        <time>2022-08-05T13:51:46.861Z</time>
      </trkpt>
      <trkpt lat="45.89254" lon="15.60077">
        <ele>164.906736</ele>
        <time>2022-08-05T13:51:58.855Z</time>
      </trkpt>
      <trkpt lat="45.89271" lon="15.60058">
        <ele>165.371926</ele>
        <time>2022-08-05T13:52:11.008Z</time>
      </trkpt>
      <trkpt lat="45.89287" lon="15.59912">
        <ele>168.336349</ele>
        <time>2022-08-05T13:53:02.014Z</time>
      </trkpt>
      <trkpt lat="45.89299" lon="15.59885">
        <ele>169.087379</ele>
        <time>2022-08-05T13:53:12.408Z</time>
      </trkpt>
      <trkpt lat="45.89308" lon="15.59876">
        <ele>169.461105</ele>
        <time>2022-08-05T13:53:16.859Z</time>
      </trkpt>
      <trkpt lat="45.89297" lon="15.59817">
        <ele>170.92353</ele>
        <time>2022-08-05T13:53:33.411Z</time>
      </trkpt>
      <trkpt lat="45.89297" lon="15.5979">
        <ele>171.556865</ele>
        <time>2022-08-05T13:53:42.173Z</time>
      </trkpt>
      <trkpt lat="45.89304" lon="15.59753">
        <ele>172.577365</ele>
        <time>2022-08-05T13:53:55.851Z</time>
      </trkpt>
      <trkpt lat="45.89315" lon="15.59725">
        <ele>174.510564</ele>
        <time>2022-08-05T13:54:07.500Z</time>
      </trkpt>
      <trkpt lat="45.89324" lon="15.59697">
        <ele>176.369443</ele>
        <time>2022-08-05T13:54:21.621Z</time>
      </trkpt>
      <trkpt lat="45.89326" lon="15.5965">
        <ele>179.200823</ele>
        <time>2022-08-05T13:54:44.900Z</time>
      </trkpt>
      <trkpt lat="45.8932" lon="15.59633">
        <ele>180.276179</ele>
        <time>2022-08-05T13:54:53.517Z</time>
      </trkpt>
      <trkpt lat="45.89305" lon="15.59617">
        <ele>181.90638</ele>
        <time>2022-08-05T13:55:08.712Z</time>
      </trkpt>
      <trkpt lat="45.89283" lon="15.5961">
        <ele>183.829917</ele>
        <time>2022-08-05T13:55:25.526Z</time>
      </trkpt>
      <trkpt lat="45.89225" lon="15.59593">
        <ele>188.703389</ele>
        <time>2022-08-05T13:56:11.624Z</time>
      </trkpt>
      <trkpt lat="45.89215" lon="15.59581">
        <ele>189.64004</ele>
        <time>2022-08-05T13:56:22.736Z</time>
      </trkpt>
      <trkpt lat="45.89211" lon="15.59488">
        <ele>194.255391</ele>
        <time>2022-08-05T13:57:11.971Z</time>
      </trkpt>
      <trkpt lat="45.89197" lon="15.59348">
        <ele>200.505039</ele>
        <time>2022-08-05T13:58:04.164Z</time>
      </trkpt>
      <trkpt lat="45.89186" lon="15.5923">
        <ele>199.087732</ele>
        <time>2022-08-05T13:58:24.163Z</time>
      </trkpt>
      <trkpt lat="45.89188" lon="15.59098">
        <ele>197.375023</ele>
        <time>2022-08-05T13:58:42.311Z</time>
      </trkpt>
      <trkpt lat="45.89205" lon="15.58881">
        <ele>189.149043</ele>
        <time>2022-08-05T13:59:10.640Z</time>
      </trkpt>
      <trkpt lat="45.89211" lon="15.58829">
        <ele>187.178512</ele>
        <time>2022-08-05T13:59:17.561Z</time>
      </trkpt>
      <trkpt lat="45.8923" lon="15.58786">
        <ele>185.321673</ele>
        <time>2022-08-05T13:59:24.107Z</time>
      </trkpt>
      <trkpt lat="45.89249" lon="15.58756">
        <ele>183.82533</ele>
        <time>2022-08-05T13:59:29.352Z</time>
      </trkpt>
      <trkpt lat="45.89259" lon="15.58727">
        <ele>182.595056</ele>
        <time>2022-08-05T13:59:33.657Z</time>
      </trkpt>
      <trkpt lat="45.89257" lon="15.5871">
        <ele>181.961498</ele>
        <time>2022-08-05T13:59:35.893Z</time>
      </trkpt>
      <trkpt lat="45.89224" lon="15.58621">
        <ele>178.24145</ele>
        <time>2022-08-05T13:59:49.165Z</time>
      </trkpt>
      <trkpt lat="45.89228" lon="15.586">
        <ele>177.580575</ele>
        <time>2022-08-05T13:59:51.921Z</time>
      </trkpt>
      <trkpt lat="45.89201" lon="15.58532">
        <ele>175.119869</ele>
        <time>2022-08-05T14:00:02.510Z</time>
      </trkpt>
      <trkpt lat="45.89189" lon="15.58488">
        <ele>173.659217</ele>
        <time>2022-08-05T14:00:08.674Z</time>
      </trkpt>
      <trkpt lat="45.89184" lon="15.58441">
        <ele>172.164405</ele>
        <time>2022-08-05T14:00:14.779Z</time>
      </trkpt>
      <trkpt lat="45.89183" lon="15.58107">
        <ele>161.588146</ele>
        <time>2022-08-05T14:00:56.632Z</time>
      </trkpt>
      <trkpt lat="45.89176" lon="15.57596">
        <ele>156.601203</ele>
        <time>2022-08-05T14:02:19.135Z</time>
      </trkpt>
      <trkpt lat="45.89166" lon="15.57407">
        <ele>153.091621</ele>
        <time>2022-08-05T14:02:45.942Z</time>
      </trkpt>
      <trkpt lat="45.89165" lon="15.57391">
        <ele>152.791267</ele>
        <time>2022-08-05T14:02:48.002Z</time>
      </trkpt>
      <trkpt lat="45.89148" lon="15.57177">
        <ele>148.18584</ele>
        <time>2022-08-05T14:03:16.647Z</time>
      </trkpt>
      <trkpt lat="45.89143" lon="15.57123">
        <ele>146.987216</ele>
        <time>2022-08-05T14:03:24.068Z</time>
      </trkpt>
      <trkpt lat="45.89109" lon="15.57136">
        <ele>146.212362</ele>
        <time>2022-08-05T14:03:31.597Z</time>
      </trkpt>
      <trkpt lat="45.88991" lon="15.57017">
        <ele>145.599898</ele>
        <time>2022-08-05T14:04:10.692Z</time>
      </trkpt>
      <trkpt lat="45.88948" lon="15.56996">
        <ele>145.609794</ele>
        <time>2022-08-05T14:04:24.273Z</time>
      </trkpt>
      <trkpt lat="45.88925" lon="15.56969">
        <ele>145.752864</ele>
        <time>2022-08-05T14:04:33.406Z</time>
      </trkpt>
      <trkpt lat="45.88852" lon="15.56914">
        <ele>146.156613</ele>
        <time>2022-08-05T14:04:58.782Z</time>
      </trkpt>
      <trkpt lat="45.88832" lon="15.56887">
        <ele>146.29036</ele>
        <time>2022-08-05T14:05:07.143Z</time>
      </trkpt>
      <trkpt lat="45.88813" lon="15.56842">
        <ele>146.422794</ele>
        <time>2022-08-05T14:05:18.087Z</time>
      </trkpt>
      <trkpt lat="45.88763" lon="15.56727">
        <ele>146.640639</ele>
        <time>2022-08-05T14:05:45.694Z</time>
      </trkpt>
      <trkpt lat="45.88738" lon="15.56633">
        <ele>146.795996</ele>
        <time>2022-08-05T14:06:05.597Z</time>
      </trkpt>
      <trkpt lat="45.88717" lon="15.56553">
        <ele>146.806737</ele>
        <time>2022-08-05T14:06:21.984Z</time>
      </trkpt>
      <trkpt lat="45.88663" lon="15.56447">
        <ele>146.823152</ele>
        <time>2022-08-05T14:06:47.280Z</time>
      </trkpt>
      <trkpt lat="45.88596" lon="15.5628">
        <ele>146.905899</ele>
        <time>2022-08-05T14:07:24.865Z</time>
      </trkpt>
      <trkpt lat="45.88574" lon="15.5621">
        <ele>146.944522</ele>
        <time>2022-08-05T14:07:39.982Z</time>
      </trkpt>
      <trkpt lat="45.88519" lon="15.55983">
        <ele>147.183894</ele>
        <time>2022-08-05T14:08:27.988Z</time>
      </trkpt>
      <trkpt lat="45.88501" lon="15.55889">
        <ele>147.232192</ele>
        <time>2022-08-05T14:08:47.275Z</time>
      </trkpt>
      <trkpt lat="45.88473" lon="15.55755">
        <ele>147.235627</ele>
        <time>2022-08-05T14:09:14.139Z</time>
      </trkpt>
      <trkpt lat="45.88465" lon="15.55692">
        <ele>147.237225</ele>
        <time>2022-08-05T14:09:26.493Z</time>
      </trkpt>
      <trkpt lat="45.88475" lon="15.55533">
        <ele>147.400434</ele>
        <time>2022-08-05T14:09:56.974Z</time>
      </trkpt>
      <trkpt lat="45.88484" lon="15.55299">
        <ele>148.010379</ele>
        <time>2022-08-05T14:10:45.958Z</time>
      </trkpt>
      <trkpt lat="45.88492" lon="15.5522">
        <ele>148.311423</ele>
        <time>2022-08-05T14:11:02.813Z</time>
      </trkpt>
      <trkpt lat="45.88492" lon="15.55197">
        <ele>148.398175</ele>
        <time>2022-08-05T14:11:07.727Z</time>
      </trkpt>
      <trkpt lat="45.88502" lon="15.55002">
        <ele>149.292144</ele>
        <time>2022-08-05T14:11:51.550Z</time>
      </trkpt>
      <trkpt lat="45.88521" lon="15.54962">
        <ele>149.516237</ele>
        <time>2022-08-05T14:12:01.193Z</time>
      </trkpt>
      <trkpt lat="45.88553" lon="15.5493">
        <ele>149.717418</ele>
        <time>2022-08-05T14:12:12.674Z</time>
      </trkpt>
      <trkpt lat="45.88533" lon="15.54923">
        <ele>149.769831</ele>
        <time>2022-08-05T14:12:18.960Z</time>
      </trkpt>
      <trkpt lat="45.88519" lon="15.54906">
        <ele>149.815131</ele>
        <time>2022-08-05T14:12:24.355Z</time>
      </trkpt>
      <trkpt lat="45.88516" lon="15.5489">
        <ele>149.842921</ele>
        <time>2022-08-05T14:12:27.802Z</time>
      </trkpt>
      <trkpt lat="45.88512" lon="15.5487">
        <ele>149.879051</ele>
        <time>2022-08-05T14:12:32.223Z</time>
      </trkpt>
      <trkpt lat="45.8851" lon="15.54848">
        <ele>149.917477</ele>
        <time>2022-08-05T14:12:36.876Z</time>
      </trkpt>
      <trkpt lat="45.88511" lon="15.54733">
        <ele>150.116452</ele>
        <time>2022-08-05T14:12:59.538Z</time>
      </trkpt>
      <trkpt lat="45.88515" lon="15.5468">
        <ele>150.105356</ele>
        <time>2022-08-05T14:13:09.516Z</time>
      </trkpt>
      <trkpt lat="45.88512" lon="15.54658">
        <ele>150.094055</ele>
        <time>2022-08-05T14:13:13.944Z</time>
      </trkpt>
      <trkpt lat="45.88447" lon="15.54471">
        <ele>150.047661</ele>
        <time>2022-08-05T14:13:53.656Z</time>
      </trkpt>
      <trkpt lat="45.88414" lon="15.54379">
        <ele>150.30665</ele>
        <time>2022-08-05T14:14:13.565Z</time>
      </trkpt>
      <trkpt lat="45.88391" lon="15.54291">
        <ele>150.541992</ele>
        <time>2022-08-05T14:14:34.118Z</time>
      </trkpt>
      <trkpt lat="45.88386" lon="15.54227">
        <ele>150.791942</ele>
        <time>2022-08-05T14:14:47.812Z</time>
      </trkpt>
      <trkpt lat="45.88391" lon="15.54146">
        <ele>151.317515</ele>
        <time>2022-08-05T14:15:06.454Z</time>
      </trkpt>
      <trkpt lat="45.88356" lon="15.54076">
        <ele>151.879386</ele>
        <time>2022-08-05T14:15:26.848Z</time>
      </trkpt>
      <trkpt lat="45.88343" lon="15.54059">
        <ele>152.042608</ele>
        <time>2022-08-05T14:15:32.516Z</time>
      </trkpt>
      <trkpt lat="45.88343" lon="15.54048">
        <ele>152.110472</ele>
        <time>2022-08-05T14:15:34.951Z</time>
      </trkpt>
      <trkpt lat="45.88324" lon="15.53915">
        <ele>152.377415</ele>
        <time>2022-08-05T14:16:03.460Z</time>
      </trkpt>
      <trkpt lat="45.88322" lon="15.53887">
        <ele>152.393948</ele>
        <time>2022-08-05T14:16:09.025Z</time>
      </trkpt>
      <trkpt lat="45.88319" lon="15.53852">
        <ele>152.415274</ele>
        <time>2022-08-05T14:16:15.713Z</time>
      </trkpt>
      <trkpt lat="45.88318" lon="15.53817">
        <ele>152.435893</ele>
        <time>2022-08-05T14:16:22.304Z</time>
      </trkpt>
      <trkpt lat="45.88335" lon="15.53625">
        <ele>151.844323</ele>
        <time>2022-08-05T14:16:56.636Z</time>
      </trkpt>
      <trkpt lat="45.88363" lon="15.53284">
        <ele>150.304323</ele>
        <time>2022-08-05T14:17:55.890Z</time>
      </trkpt>
      <trkpt lat="45.88361" lon="15.53241">
        <ele>150.150345</ele>
        <time>2022-08-05T14:18:04.036Z</time>
      </trkpt>
      <trkpt lat="45.88332" lon="15.53065">
        <ele>150.244913</ele>
        <time>2022-08-05T14:18:40.515Z</time>
      </trkpt>
      <trkpt lat="45.88362" lon="15.52905">
        <ele>150.103984</ele>
        <time>2022-08-05T14:19:12.422Z</time>
      </trkpt>
      <trkpt lat="45.88355" lon="15.52876">
        <ele>150.046975</ele>
        <time>2022-08-05T14:19:17.987Z</time>
      </trkpt>
      <trkpt lat="45.88355" lon="15.52844">
        <ele>149.98608</ele>
        <time>2022-08-05T14:19:24.181Z</time>
      </trkpt>
      <trkpt lat="45.88364" lon="15.52744">
        <ele>149.798328</ele>
        <time>2022-08-05T14:19:42.344Z</time>
      </trkpt>
      <trkpt lat="45.88367" lon="15.52713">
        <ele>149.716111</ele>
        <time>2022-08-05T14:19:47.679Z</time>
      </trkpt>
      <trkpt lat="45.88367" lon="15.52681">
        <ele>149.629987</ele>
        <time>2022-08-05T14:19:53.209Z</time>
      </trkpt>
      <trkpt lat="45.88359" lon="15.52602">
        <ele>149.413814</ele>
        <time>2022-08-05T14:20:07.196Z</time>
      </trkpt>
      <trkpt lat="45.88349" lon="15.52521">
        <ele>149.193617</ele>
        <time>2022-08-05T14:20:22.120Z</time>
      </trkpt>
      <trkpt lat="45.88329" lon="15.52452">
        <ele>149.326312</ele>
        <time>2022-08-05T14:20:37.656Z</time>
      </trkpt>
      <trkpt lat="45.883" lon="15.52375">
        <ele>149.773621</ele>
        <time>2022-08-05T14:20:56.781Z</time>
      </trkpt>
      <trkpt lat="45.88277" lon="15.52272">
        <ele>150.32875</ele>
        <time>2022-08-05T14:21:21.958Z</time>
      </trkpt>
      <trkpt lat="45.88277" lon="15.52239">
        <ele>150.425117</ele>
        <time>2022-08-05T14:21:29.333Z</time>
      </trkpt>
      <trkpt lat="45.88286" lon="15.52217">
        <ele>150.416387</ele>
        <time>2022-08-05T14:21:34.589Z</time>
      </trkpt>
      <trkpt lat="45.88324" lon="15.52158">
        <ele>150.388718</ele>
        <time>2022-08-05T14:21:52.014Z</time>
      </trkpt>
      <trkpt lat="45.88339" lon="15.5212">
        <ele>150.373373</ele>
        <time>2022-08-05T14:22:00.785Z</time>
      </trkpt>
      <trkpt lat="45.88348" lon="15.52008">
        <ele>150.160716</ele>
        <time>2022-08-05T14:22:19.881Z</time>
      </trkpt>
      <trkpt lat="45.88262" lon="15.52058">
        <ele>148.75124</ele>
        <time>2022-08-05T14:22:40.231Z</time>
      </trkpt>
      <trkpt lat="45.88191" lon="15.52091">
        <ele>147.599283</ele>
        <time>2022-08-05T14:22:57.698Z</time>
      </trkpt>
      <trkpt lat="45.88095" lon="15.52096">
        <ele>146.91885</ele>
        <time>2022-08-05T14:23:36.298Z</time>
      </trkpt>
      <trkpt lat="45.88036" lon="15.52105">
        <ele>146.497568</ele>
        <time>2022-08-05T14:23:51.798Z</time>
      </trkpt>
      <trkpt lat="45.88018" lon="15.52112">
        <ele>146.366762</ele>
        <time>2022-08-05T14:23:56.866Z</time>
      </trkpt>
      <trkpt lat="45.87908" lon="15.52201">
        <ele>147.067491</ele>
        <time>2022-08-05T14:24:33.511Z</time>
      </trkpt>
      <trkpt lat="45.87866" lon="15.52225">
        <ele>147.351343</ele>
        <time>2022-08-05T14:24:48.736Z</time>
      </trkpt>
      <trkpt lat="45.87795" lon="15.52248">
        <ele>148.43024</ele>
        <time>2022-08-05T14:25:14.934Z</time>
      </trkpt>
      <trkpt lat="45.87728" lon="15.52299">
        <ele>149.751218</ele>
        <time>2022-08-05T14:25:43.949Z</time>
      </trkpt>
      <trkpt lat="45.87646" lon="15.52376">
        <ele>151.211362</ele>
        <time>2022-08-05T14:26:17.720Z</time>
      </trkpt>
      <trkpt lat="45.87635" lon="15.52366">
        <ele>151.380534</ele>
        <time>2022-08-05T14:26:21.904Z</time>
      </trkpt>
      <trkpt lat="45.87615" lon="15.52358">
        <ele>151.646016</ele>
        <time>2022-08-05T14:26:28.332Z</time>
      </trkpt>
      <trkpt lat="45.87535" lon="15.52338">
        <ele>152.692337</ele>
        <time>2022-08-05T14:26:54.511Z</time>
      </trkpt>
      <trkpt lat="45.87482" lon="15.52317">
        <ele>154.117654</ele>
        <time>2022-08-05T14:27:15.335Z</time>
      </trkpt>
      <trkpt lat="45.87457" lon="15.52294">
        <ele>155.010124</ele>
        <time>2022-08-05T14:27:27.811Z</time>
      </trkpt>
      <trkpt lat="45.87316" lon="15.52115">
        <ele>159.920046</ele>
        <time>2022-08-05T14:28:52.479Z</time>
      </trkpt>
      <trkpt lat="45.87233" lon="15.52006">
        <ele>161.939288</ele>
        <time>2022-08-05T14:29:30.432Z</time>
      </trkpt>
      <trkpt lat="45.8718" lon="15.51938">
        <ele>161.485983</ele>
        <time>2022-08-05T14:29:48.098Z</time>
      </trkpt>
      <trkpt lat="45.87135" lon="15.51895">
        <ele>161.136312</ele>
        <time>2022-08-05T14:30:01.232Z</time>
      </trkpt>
      <trkpt lat="45.87062" lon="15.51848">
        <ele>160.529086</ele>
        <time>2022-08-05T14:30:20.114Z</time>
      </trkpt>
      <trkpt lat="45.87005" lon="15.51834">
        <ele>160.014149</ele>
        <time>2022-08-05T14:30:33.815Z</time>
      </trkpt>
      <trkpt lat="45.86952" lon="15.5183">
        <ele>159.538284</ele>
        <time>2022-08-05T14:30:45.952Z</time>
      </trkpt>
      <trkpt lat="45.86919" lon="15.51868">
        <ele>159.466085</ele>
        <time>2022-08-05T14:30:57.651Z</time>
      </trkpt>
      <trkpt lat="45.86891" lon="15.51925">
        <ele>160.403403</ele>
        <time>2022-08-05T14:31:14.742Z</time>
      </trkpt>
      <trkpt lat="45.86871" lon="15.51951">
        <ele>160.917968</ele>
        <time>2022-08-05T14:31:23.893Z</time>
      </trkpt>
      <trkpt lat="45.86832" lon="15.51895">
        <ele>161.969935</ele>
        <time>2022-08-05T14:31:46.617Z</time>
      </trkpt>
      <trkpt lat="45.86814" lon="15.51872">
        <ele>162.420728</ele>
        <time>2022-08-05T14:31:58.526Z</time>
      </trkpt>
      <trkpt lat="45.86738" lon="15.51816">
        <ele>163.661866</ele>
        <time>2022-08-05T14:32:31.877Z</time>
      </trkpt>
      <trkpt lat="45.86719" lon="15.51743">
        <ele>164.406715</ele>
        <time>2022-08-05T14:32:51.481Z</time>
      </trkpt>
      <trkpt lat="45.86717" lon="15.51731">
        <ele>164.519314</ele>
        <time>2022-08-05T14:32:53.626Z</time>
      </trkpt>
      <trkpt lat="45.86709" lon="15.51689">
        <ele>164.92896</ele>
        <time>2022-08-05T14:33:01.208Z</time>
      </trkpt>
      <trkpt lat="45.86679" lon="15.51564">
        <ele>166.192117</ele>
        <time>2022-08-05T14:33:24.940Z</time>
      </trkpt>
      <trkpt lat="45.86668" lon="15.51544">
        <ele>166.434114</ele>
        <time>2022-08-05T14:33:30.140Z</time>
      </trkpt>
      <trkpt lat="45.86581" lon="15.51442">
        <ele>169.131939</ele>
        <time>2022-08-05T14:34:15.348Z</time>
      </trkpt>
      <trkpt lat="45.86531" lon="15.5136">
        <ele>173.606766</ele>
        <time>2022-08-05T14:35:02.139Z</time>
      </trkpt>
      <trkpt lat="45.86464" lon="15.51269">
        <ele>178.595571</ele>
        <time>2022-08-05T14:35:57.986Z</time>
      </trkpt>
      <trkpt lat="45.86448" lon="15.51252">
        <ele>179.255568</ele>
        <time>2022-08-05T14:36:08.882Z</time>
      </trkpt>
      <trkpt lat="45.86407" lon="15.51208">
        <ele>180.975408</ele>
        <time>2022-08-05T14:36:34.071Z</time>
      </trkpt>
      <trkpt lat="45.86354" lon="15.51126">
        <ele>183.61879</ele>
        <time>2022-08-05T14:37:03.298Z</time>
      </trkpt>
      <trkpt lat="45.86305" lon="15.51037">
        <ele>184.246101</ele>
        <time>2022-08-05T14:37:26.174Z</time>
      </trkpt>
      <trkpt lat="45.86288" lon="15.51004">
        <ele>184.28207</ele>
        <time>2022-08-05T14:37:34.331Z</time>
      </trkpt>
      <trkpt lat="45.86276" lon="15.50927">
        <ele>184.351962</ele>
        <time>2022-08-05T14:37:49.849Z</time>
      </trkpt>
      <trkpt lat="45.86217" lon="15.50779">
        <ele>182.422409</ele>
        <time>2022-08-05T14:38:19.867Z</time>
      </trkpt>
      <trkpt lat="45.86189" lon="15.50654">
        <ele>180.288589</ele>
        <time>2022-08-05T14:38:38.760Z</time>
      </trkpt>
      <trkpt lat="45.86179" lon="15.50566">
        <ele>176.632145</ele>
        <time>2022-08-05T14:38:50.145Z</time>
      </trkpt>
      <trkpt lat="45.86179" lon="15.50525">
        <ele>174.852351</ele>
        <time>2022-08-05T14:38:55.383Z</time>
      </trkpt>
      <trkpt lat="45.86193" lon="15.50393">
        <ele>169.186938</ele>
        <time>2022-08-05T14:39:12.045Z</time>
      </trkpt>
      <trkpt lat="45.86209" lon="15.5031">
        <ele>166.653769</ele>
        <time>2022-08-05T14:39:23.198Z</time>
      </trkpt>
      <trkpt lat="45.86199" lon="15.50051">
        <ele>160.646363</ele>
        <time>2022-08-05T14:40:00.460Z</time>
      </trkpt>
      <trkpt lat="45.86209" lon="15.49858">
        <ele>158.605362</ele>
        <time>2022-08-05T14:40:33.384Z</time>
      </trkpt>
      <trkpt lat="45.86218" lon="15.49832">
        <ele>158.485022</ele>
        <time>2022-08-05T14:40:38.388Z</time>
      </trkpt>
      <trkpt lat="45.86227" lon="15.49717">
        <ele>157.994092</ele>
        <time>2022-08-05T14:40:59.446Z</time>
      </trkpt>
      <trkpt lat="45.8624" lon="15.49693">
        <ele>157.867001</ele>
        <time>2022-08-05T14:41:04.657Z</time>
      </trkpt>
      <trkpt lat="45.86337" lon="15.49544">
        <ele>157.609977</ele>
        <time>2022-08-05T14:41:41.199Z</time>
      </trkpt>
      <trkpt lat="45.86352" lon="15.49532">
        <ele>157.609478</ele>
        <time>2022-08-05T14:41:46.154Z</time>
      </trkpt>
      <trkpt lat="45.86383" lon="15.49524">
        <ele>157.608603</ele>
        <time>2022-08-05T14:41:54.804Z</time>
      </trkpt>
      <trkpt lat="45.86426" lon="15.49454">
        <ele>158.342264</ele>
        <time>2022-08-05T14:42:15.605Z</time>
      </trkpt>
      <trkpt lat="45.8644" lon="15.4944">
        <ele>158.715733</ele>
        <time>2022-08-05T14:42:22.263Z</time>
      </trkpt>
      <trkpt lat="45.86466" lon="15.49398">
        <ele>159.564682</ele>
        <time>2022-08-05T14:42:36.571Z</time>
      </trkpt>
      <trkpt lat="45.86505" lon="15.4937">
        <ele>160.522748</ele>
        <time>2022-08-05T14:42:52.805Z</time>
      </trkpt>
      <trkpt lat="45.86518" lon="15.4928">
        <ele>162.417512</ele>
        <time>2022-08-05T14:43:21.494Z</time>
      </trkpt>
      <trkpt lat="45.86537" lon="15.49197">
        <ele>165.464346</ele>
        <time>2022-08-05T14:43:51.621Z</time>
      </trkpt>
      <trkpt lat="45.86533" lon="15.49151">
        <ele>167.100522</ele>
        <time>2022-08-05T14:44:08.536Z</time>
      </trkpt>
      <trkpt lat="45.86521" lon="15.49105">
        <ele>168.798536</ele>
        <time>2022-08-05T14:44:26.149Z</time>
      </trkpt>
      <trkpt lat="45.86486" lon="15.48999">
        <ele>174.005683</ele>
        <time>2022-08-05T14:45:15.572Z</time>
      </trkpt>
      <trkpt lat="45.86475" lon="15.48916">
        <ele>178.265666</ele>
        <time>2022-08-05T14:45:54.199Z</time>
      </trkpt>
      <trkpt lat="45.86463" lon="15.48878">
        <ele>180.376816</ele>
        <time>2022-08-05T14:46:13.038Z</time>
      </trkpt>
      <trkpt lat="45.8645" lon="15.48834">
        <ele>182.815604</ele>
        <time>2022-08-05T14:46:34.318Z</time>
      </trkpt>
      <trkpt lat="45.86417" lon="15.48756">
        <ele>186.992847</ele>
        <time>2022-08-05T14:47:14.212Z</time>
      </trkpt>
      <trkpt lat="45.86342" lon="15.48622">
        <ele>194.609804</ele>
        <time>2022-08-05T14:48:24.482Z</time>
      </trkpt>
      <trkpt lat="45.86313" lon="15.48559">
        <ele>196.73618</ele>
        <time>2022-08-05T14:48:49.995Z</time>
      </trkpt>
      <trkpt lat="45.86273" lon="15.48406">
        <ele>200.883108</ele>
        <time>2022-08-05T14:49:40.607Z</time>
      </trkpt>
      <trkpt lat="45.8627" lon="15.48361">
        <ele>201.80546</ele>
        <time>2022-08-05T14:49:53.456Z</time>
      </trkpt>
      <trkpt lat="45.86282" lon="15.48029">
        <ele>203.773439</ele>
        <time>2022-08-05T14:51:10.433Z</time>
      </trkpt>
      <trkpt lat="45.86305" lon="15.47786">
        <ele>201.059323</ele>
        <time>2022-08-05T14:51:49.773Z</time>
      </trkpt>
      <trkpt lat="45.86303" lon="15.47604">
        <ele>196.22484</ele>
        <time>2022-08-05T14:52:14.393Z</time>
      </trkpt>
      <trkpt lat="45.8631" lon="15.47546">
        <ele>193.002236</ele>
        <time>2022-08-05T14:52:21.870Z</time>
      </trkpt>
      <trkpt lat="45.86303" lon="15.47494">
        <ele>190.076526</ele>
        <time>2022-08-05T14:52:28.424Z</time>
      </trkpt>
      <trkpt lat="45.86253" lon="15.47377">
        <ele>182.475306</ele>
        <time>2022-08-05T14:52:45.132Z</time>
      </trkpt>
      <trkpt lat="45.86253" lon="15.47331">
        <ele>179.749708</ele>
        <time>2022-08-05T14:52:50.520Z</time>
      </trkpt>
      <trkpt lat="45.8624" lon="15.47305">
        <ele>177.802338</ele>
        <time>2022-08-05T14:52:54.323Z</time>
      </trkpt>
      <trkpt lat="45.86211" lon="15.47221">
        <ele>172.120774</ele>
        <time>2022-08-05T14:53:05.581Z</time>
      </trkpt>
      <trkpt lat="45.86199" lon="15.47141">
        <ele>167.157102</ele>
        <time>2022-08-05T14:53:15.591Z</time>
      </trkpt>
      <trkpt lat="45.86229" lon="15.47006">
        <ele>162.535226</ele>
        <time>2022-08-05T14:53:33.068Z</time>
      </trkpt>
      <trkpt lat="45.86271" lon="15.46844">
        <ele>158.379519</ele>
        <time>2022-08-05T14:53:57.736Z</time>
      </trkpt>
      <trkpt lat="45.86307" lon="15.46727">
        <ele>157.429767</ele>
        <time>2022-08-05T14:54:19.396Z</time>
      </trkpt>
      <trkpt lat="45.86316" lon="15.46674">
        <ele>157.023479</ele>
        <time>2022-08-05T14:54:28.484Z</time>
      </trkpt>
      <trkpt lat="45.86318" lon="15.46624">
        <ele>156.815224</ele>
        <time>2022-08-05T14:54:36.796Z</time>
      </trkpt>
      <trkpt lat="45.86283" lon="15.46529">
        <ele>157.11784</ele>
        <time>2022-08-05T14:54:55.005Z</time>
      </trkpt>
      <trkpt lat="45.86272" lon="15.46475">
        <ele>157.277452</ele>
        <time>2022-08-05T14:55:05.528Z</time>
      </trkpt>
      <trkpt lat="45.86249" lon="15.4634">
        <ele>160.164121</ele>
        <time>2022-08-05T14:55:43.224Z</time>
      </trkpt>
      <trkpt lat="45.86224" lon="15.46261">
        <ele>163.910331</ele>
        <time>2022-08-05T14:56:14.853Z</time>
      </trkpt>
      <trkpt lat="45.86194" lon="15.46201">
        <ele>167.124068</ele>
        <time>2022-08-05T14:56:47.823Z</time>
      </trkpt>
      <trkpt lat="45.86129" lon="15.4611">
        <ele>173.944897</ele>
        <time>2022-08-05T14:58:05.367Z</time>
      </trkpt>
      <trkpt lat="45.86114" lon="15.46072">
        <ele>176.349374</ele>
        <time>2022-08-05T14:58:29.083Z</time>
      </trkpt>
      <trkpt lat="45.86081" lon="15.45954">
        <ele>182.971401</ele>
        <time>2022-08-05T14:59:20.034Z</time>
      </trkpt>
      <trkpt lat="45.86041" lon="15.4582">
        <ele>180.599627</ele>
        <time>2022-08-05T14:59:46.201Z</time>
      </trkpt>
      <trkpt lat="45.86011" lon="15.45765">
        <ele>179.463</ele>
        <time>2022-08-05T14:59:55.023Z</time>
      </trkpt>
      <trkpt lat="45.8594" lon="15.45678">
        <ele>175.065467</ele>
        <time>2022-08-05T15:00:11.625Z</time>
      </trkpt>
      <trkpt lat="45.85912" lon="15.45634">
        <ele>172.743632</ele>
        <time>2022-08-05T15:00:19.157Z</time>
      </trkpt>
      <trkpt lat="45.85912" lon="15.45602">
        <ele>171.501249</ele>
        <time>2022-08-05T15:00:23.579Z</time>
      </trkpt>
      <trkpt lat="45.85883" lon="15.45524">
        <ele>168.377989</ele>
        <time>2022-08-05T15:00:36.074Z</time>
      </trkpt>
      <trkpt lat="45.85874" lon="15.45482">
        <ele>167.441954</ele>
        <time>2022-08-05T15:00:42.475Z</time>
      </trkpt>
      <trkpt lat="45.85858" lon="15.45313">
        <ele>163.862061</ele>
        <time>2022-08-05T15:01:07.322Z</time>
      </trkpt>
      <trkpt lat="45.85853" lon="15.45245">
        <ele>162.451786</ele>
        <time>2022-08-05T15:01:17.029Z</time>
      </trkpt>
      <trkpt lat="45.85836" lon="15.45191">
        <ele>161.232828</ele>
        <time>2022-08-05T15:01:25.572Z</time>
      </trkpt>
      <trkpt lat="45.85762" lon="15.45053">
        <ele>158.035272</ele>
        <time>2022-08-05T15:01:50.735Z</time>
      </trkpt>
      <trkpt lat="45.85735" lon="15.45042">
        <ele>157.966327</ele>
        <time>2022-08-05T15:01:56.979Z</time>
      </trkpt>
      <trkpt lat="45.8568" lon="15.45041">
        <ele>157.830541</ele>
        <time>2022-08-05T15:02:10.364Z</time>
      </trkpt>
      <trkpt lat="45.85662" lon="15.45041">
        <ele>157.788208</ele>
        <time>2022-08-05T15:02:14.950Z</time>
      </trkpt>
      <trkpt lat="45.85629" lon="15.45031">
        <ele>157.704873</ele>
        <time>2022-08-05T15:02:25.976Z</time>
      </trkpt>
      <trkpt lat="45.85616" lon="15.45009">
        <ele>157.654641</ele>
        <time>2022-08-05T15:02:33.986Z</time>
      </trkpt>
      <trkpt lat="45.8561" lon="15.44929">
        <ele>158.848265</ele>
        <time>2022-08-05T15:02:56.570Z</time>
      </trkpt>
      <trkpt lat="45.85601" lon="15.44891">
        <ele>159.624016</ele>
        <time>2022-08-05T15:03:08.361Z</time>
      </trkpt>
      <trkpt lat="45.85559" lon="15.44804">
        <ele>161.671493</ele>
        <time>2022-08-05T15:03:41.040Z</time>
      </trkpt>
      <trkpt lat="45.85531" lon="15.44672">
        <ele>163.508928</ele>
        <time>2022-08-05T15:04:18.706Z</time>
      </trkpt>
      <trkpt lat="45.85502" lon="15.44596">
        <ele>164.395373</ele>
        <time>2022-08-05T15:04:39.088Z</time>
      </trkpt>
      <trkpt lat="45.85498" lon="15.44552">
        <ele>164.852802</ele>
        <time>2022-08-05T15:04:48.049Z</time>
      </trkpt>
      <trkpt lat="45.85496" lon="15.44527">
        <ele>165.111121</ele>
        <time>2022-08-05T15:04:53.064Z</time>
      </trkpt>
      <trkpt lat="45.8549" lon="15.44509">
        <ele>165.321531</ele>
        <time>2022-08-05T15:04:57.606Z</time>
      </trkpt>
      <trkpt lat="45.85467" lon="15.44474">
        <ele>165.844773</ele>
        <time>2022-08-05T15:05:08.172Z</time>
      </trkpt>
      <trkpt lat="45.85451" lon="15.44436">
        <ele>166.323561</ele>
        <time>2022-08-05T15:05:18.269Z</time>
      </trkpt>
      <trkpt lat="45.85447" lon="15.4441">
        <ele>166.612494</ele>
        <time>2022-08-05T15:05:24.857Z</time>
      </trkpt>
      <trkpt lat="45.85449" lon="15.44333">
        <ele>167.454773</ele>
        <time>2022-08-05T15:05:44.091Z</time>
      </trkpt>
      <trkpt lat="45.8546" lon="15.44236">
        <ele>168.887389</ele>
        <time>2022-08-05T15:06:11.441Z</time>
      </trkpt>
      <trkpt lat="45.85459" lon="15.44206">
        <ele>169.476428</ele>
        <time>2022-08-05T15:06:20.139Z</time>
      </trkpt>
      <trkpt lat="45.8545" lon="15.44169">
        <ele>170.231987</ele>
        <time>2022-08-05T15:06:31.487Z</time>
      </trkpt>
      <trkpt lat="45.85394" lon="15.44028">
        <ele>173.175611</ele>
        <time>2022-08-05T15:07:20.461Z</time>
      </trkpt>
      <trkpt lat="45.85381" lon="15.44007">
        <ele>173.37696</ele>
        <time>2022-08-05T15:07:27.515Z</time>
      </trkpt>
      <trkpt lat="45.85324" lon="15.4392">
        <ele>174.21748</ele>
        <time>2022-08-05T15:07:54.185Z</time>
      </trkpt>
      <trkpt lat="45.85294" lon="15.43763">
        <ele>174.149029</ele>
        <time>2022-08-05T15:08:26.987Z</time>
      </trkpt>
      <trkpt lat="45.85281" lon="15.43733">
        <ele>173.766615</ele>
        <time>2022-08-05T15:08:32.780Z</time>
      </trkpt>
      <trkpt lat="45.85259" lon="15.43707">
        <ele>173.32558</ele>
        <time>2022-08-05T15:08:38.880Z</time>
      </trkpt>
      <trkpt lat="45.85237" lon="15.43695">
        <ele>172.969027</ele>
        <time>2022-08-05T15:08:43.692Z</time>
      </trkpt>
      <trkpt lat="45.85164" lon="15.43672">
        <ele>171.789479</ele>
        <time>2022-08-05T15:08:59.673Z</time>
      </trkpt>
      <trkpt lat="45.85147" lon="15.4366">
        <ele>171.453286</ele>
        <time>2022-08-05T15:09:03.919Z</time>
      </trkpt>
      <trkpt lat="45.85135" lon="15.43643">
        <ele>171.164082</ele>
        <time>2022-08-05T15:09:07.877Z</time>
      </trkpt>
      <trkpt lat="45.85127" lon="15.43608">
        <ele>170.722508</ele>
        <time>2022-08-05T15:09:13.412Z</time>
      </trkpt>
      <trkpt lat="45.8513" lon="15.43535">
        <ele>169.832174</ele>
        <time>2022-08-05T15:09:24.695Z</time>
      </trkpt>
      <trkpt lat="45.85114" lon="15.43449">
        <ele>169.190608</ele>
        <time>2022-08-05T15:09:39.113Z</time>
      </trkpt>
      <trkpt lat="45.851" lon="15.43428">
        <ele>169.462849</ele>
        <time>2022-08-05T15:09:44.777Z</time>
      </trkpt>
      <trkpt lat="45.85037" lon="15.43387">
        <ele>170.396907</ele>
        <time>2022-08-05T15:10:10.581Z</time>
      </trkpt>
      <trkpt lat="45.85017" lon="15.43346">
        <ele>170.861403</ele>
        <time>2022-08-05T15:10:24.316Z</time>
      </trkpt>
      <trkpt lat="45.84998" lon="15.43205">
        <ele>171.475293</ele>
        <time>2022-08-05T15:11:02.405Z</time>
      </trkpt>
      <trkpt lat="45.84905" lon="15.42951">
        <ele>169.391544</ele>
        <time>2022-08-05T15:11:50.833Z</time>
      </trkpt>
      <trkpt lat="45.84889" lon="15.42864">
        <ele>167.635746</ele>
        <time>2022-08-05T15:12:03.286Z</time>
      </trkpt>
      <trkpt lat="45.84874" lon="15.42811">
        <ele>166.531761</ele>
        <time>2022-08-05T15:12:10.994Z</time>
      </trkpt>
      <trkpt lat="45.84849" lon="15.42761">
        <ele>164.480633</ele>
        <time>2022-08-05T15:12:19.370Z</time>
      </trkpt>
      <trkpt lat="45.84824" lon="15.42729">
        <ele>162.924582</ele>
        <time>2022-08-05T15:12:25.677Z</time>
      </trkpt>
      <trkpt lat="45.84733" lon="15.42659">
        <ele>158.047905</ele>
        <time>2022-08-05T15:12:45.365Z</time>
      </trkpt>
      <trkpt lat="45.84693" lon="15.42615">
        <ele>156.303107</ele>
        <time>2022-08-05T15:12:55.059Z</time>
      </trkpt>
      <trkpt lat="45.84674" lon="15.42587">
        <ele>155.364906</ele>
        <time>2022-08-05T15:13:00.466Z</time>
      </trkpt>
      <trkpt lat="45.84616" lon="15.42474">
        <ele>152.013929</ele>
        <time>2022-08-05T15:13:20.824Z</time>
      </trkpt>
      <trkpt lat="45.84587" lon="15.42441">
        <ele>151.793627</ele>
        <time>2022-08-05T15:13:29.105Z</time>
      </trkpt>
      <trkpt lat="45.84557" lon="15.4242">
        <ele>151.714036</ele>
        <time>2022-08-05T15:13:37.582Z</time>
      </trkpt>
      <trkpt lat="45.845" lon="15.42395">
        <ele>151.575228</ele>
        <time>2022-08-05T15:13:54.623Z</time>
      </trkpt>
      <trkpt lat="45.84449" lon="15.42393">
        <ele>151.454559</ele>
        <time>2022-08-05T15:14:11.567Z</time>
      </trkpt>
      <trkpt lat="45.84428" lon="15.42375">
        <ele>151.589317</ele>
        <time>2022-08-05T15:14:19.993Z</time>
      </trkpt>
      <trkpt lat="45.84413" lon="15.42352">
        <ele>151.729939</ele>
        <time>2022-08-05T15:14:26.568Z</time>
      </trkpt>
      <trkpt lat="45.84407" lon="15.42346">
        <ele>151.780864</ele>
        <time>2022-08-05T15:14:29.070Z</time>
      </trkpt>
      <trkpt lat="45.84341" lon="15.42304">
        <ele>152.255276</ele>
        <time>2022-08-05T15:14:51.210Z</time>
      </trkpt>
      <trkpt lat="45.84343" lon="15.42299">
        <ele>152.280017</ele>
        <time>2022-08-05T15:14:52.315Z</time>
      </trkpt>
      <trkpt lat="45.84356" lon="15.42278">
        <ele>152.408574</ele>
        <time>2022-08-05T15:14:57.912Z</time>
      </trkpt>
      <trkpt lat="45.84364" lon="15.42268">
        <ele>152.478045</ele>
        <time>2022-08-05T15:15:01.294Z</time>
      </trkpt>
      <trkpt lat="45.8441" lon="15.42227">
        <ele>152.736869</ele>
        <time>2022-08-05T15:15:16.774Z</time>
      </trkpt>
      <trkpt lat="45.84387" lon="15.42159">
        <ele>152.910497</ele>
        <time>2022-08-05T15:15:31.433Z</time>
      </trkpt>
      <trkpt lat="45.84344" lon="15.41953">
        <ele>153.300226</ele>
        <time>2022-08-05T15:16:13.751Z</time>
      </trkpt>
      <trkpt lat="45.84343" lon="15.41933">
        <ele>153.319724</ele>
        <time>2022-08-05T15:16:17.891Z</time>
      </trkpt>
      <trkpt lat="45.84346" lon="15.41907">
        <ele>153.346165</ele>
        <time>2022-08-05T15:16:23.175Z</time>
      </trkpt>
      <trkpt lat="45.84355" lon="15.4189">
        <ele>153.366627</ele>
        <time>2022-08-05T15:16:27.418Z</time>
      </trkpt>
      <trkpt lat="45.84401" lon="15.41861">
        <ele>153.437527</ele>
        <time>2022-08-05T15:16:41.094Z</time>
      </trkpt>
      <trkpt lat="45.84437" lon="15.41811">
        <ele>153.327239</ele>
        <time>2022-08-05T15:16:53.980Z</time>
      </trkpt>
      <trkpt lat="45.84468" lon="15.4177">
        <ele>153.039815</ele>
        <time>2022-08-05T15:17:03.711Z</time>
      </trkpt>
      <trkpt lat="45.84513" lon="15.41714">
        <ele>152.62404</ele>
        <time>2022-08-05T15:17:17.874Z</time>
      </trkpt>
      <trkpt lat="45.8452" lon="15.41703">
        <ele>152.554805</ele>
        <time>2022-08-05T15:17:20.221Z</time>
      </trkpt>
      <trkpt lat="45.84565" lon="15.41626">
        <ele>152.16862</ele>
        <time>2022-08-05T15:17:36.627Z</time>
      </trkpt>
      <trkpt lat="45.8468" lon="15.41406">
        <ele>151.928916</ele>
        <time>2022-08-05T15:18:26.199Z</time>
      </trkpt>
      <trkpt lat="45.84685" lon="15.4137">
        <ele>152.069299</ele>
        <time>2022-08-05T15:18:34.138Z</time>
      </trkpt>
      <trkpt lat="45.84674" lon="15.41269">
        <ele>152.464176</ele>
        <time>2022-08-05T15:18:56.132Z</time>
      </trkpt>
      <trkpt lat="45.84676" lon="15.41214">
        <ele>152.674205</ele>
        <time>2022-08-05T15:19:07.721Z</time>
      </trkpt>
      <trkpt lat="45.84702" lon="15.41168">
        <ele>152.786156</ele>
        <time>2022-08-05T15:19:20.372Z</time>
      </trkpt>
      <trkpt lat="45.84714" lon="15.41174">
        <ele>152.809446</ele>
        <time>2022-08-05T15:19:23.883Z</time>
      </trkpt>
      <trkpt lat="45.84721" lon="15.41169">
        <ele>152.823913</ele>
        <time>2022-08-05T15:19:25.897Z</time>
      </trkpt>
      <trkpt lat="45.84726" lon="15.41152">
        <ele>152.848023</ele>
        <time>2022-08-05T15:19:29.726Z</time>
      </trkpt>
      <trkpt lat="45.84723" lon="15.41142">
        <ele>152.862518</ele>
        <time>2022-08-05T15:19:32.077Z</time>
      </trkpt>
      <trkpt lat="45.84811" lon="15.41056">
        <ele>153.060073</ele>
        <time>2022-08-05T15:20:00.455Z</time>
      </trkpt>
      <trkpt lat="45.84882" lon="15.41008">
        <ele>152.974971</ele>
        <time>2022-08-05T15:20:19.430Z</time>
      </trkpt>
      <trkpt lat="45.84976" lon="15.40887">
        <ele>153.016942</ele>
        <time>2022-08-05T15:20:53.700Z</time>
      </trkpt>
      <trkpt lat="45.84997" lon="15.40845">
        <ele>153.233032</ele>
        <time>2022-08-05T15:21:04.962Z</time>
      </trkpt>
      <trkpt lat="45.8508" lon="15.40618">
        <ele>154.006116</ele>
        <time>2022-08-05T15:21:58.774Z</time>
      </trkpt>
      <trkpt lat="45.85098" lon="15.4056">
        <ele>154.050284</ele>
        <time>2022-08-05T15:22:10.410Z</time>
      </trkpt>
      <trkpt lat="45.85144" lon="15.40452">
        <ele>154.111329</ele>
        <time>2022-08-05T15:22:32.635Z</time>
      </trkpt>
      <trkpt lat="45.8519" lon="15.40332">
        <ele>153.992506</ele>
        <time>2022-08-05T15:22:56.643Z</time>
      </trkpt>
      <trkpt lat="45.85199" lon="15.40287">
        <ele>153.951988</ele>
        <time>2022-08-05T15:23:05.622Z</time>
      </trkpt>
      <trkpt lat="45.852" lon="15.40229">
        <ele>153.905237</ele>
        <time>2022-08-05T15:23:16.917Z</time>
      </trkpt>
      <trkpt lat="45.85207" lon="15.40178">
        <ele>154.054803</ele>
        <time>2022-08-05T15:23:27.130Z</time>
      </trkpt>
      <trkpt lat="45.85234" lon="15.40059">
        <ele>154.41185</ele>
        <time>2022-08-05T15:23:51.213Z</time>
      </trkpt>
      <trkpt lat="45.85256" lon="15.39995">
        <ele>154.616795</ele>
        <time>2022-08-05T15:24:05.867Z</time>
      </trkpt>
      <trkpt lat="45.85294" lon="15.39918">
        <ele>155.486626</ele>
        <time>2022-08-05T15:24:26.436Z</time>
      </trkpt>
      <trkpt lat="45.85299" lon="15.39888">
        <ele>155.793749</ele>
        <time>2022-08-05T15:24:33.725Z</time>
      </trkpt>
      <trkpt lat="45.85283" lon="15.39675">
        <ele>158.118034</ele>
        <time>2022-08-05T15:25:26.388Z</time>
      </trkpt>
      <trkpt lat="45.85297" lon="15.39306">
        <ele>162.758176</ele>
        <time>2022-08-05T15:26:58.144Z</time>
      </trkpt>
      <trkpt lat="45.85302" lon="15.39189">
        <ele>164.019159</ele>
        <time>2022-08-05T15:27:25.944Z</time>
      </trkpt>
      <trkpt lat="45.85315" lon="15.38927">
        <ele>166.057328</ele>
        <time>2022-08-05T15:28:24.779Z</time>
      </trkpt>
      <trkpt lat="45.85339" lon="15.38774">
        <ele>166.853252</ele>
        <time>2022-08-05T15:28:57.985Z</time>
      </trkpt>
      <trkpt lat="45.85358" lon="15.38563">
        <ele>166.857942</ele>
        <time>2022-08-05T15:29:38.684Z</time>
      </trkpt>
      <trkpt lat="45.85375" lon="15.38164">
        <ele>164.651123</ele>
        <time>2022-08-05T15:30:43.259Z</time>
      </trkpt>
      <trkpt lat="45.85369" lon="15.38115">
        <ele>164.348533</ele>
        <time>2022-08-05T15:30:51.293Z</time>
      </trkpt>
      <trkpt lat="45.85347" lon="15.38023">
        <ele>163.758782</ele>
        <time>2022-08-05T15:31:07.089Z</time>
      </trkpt>
      <trkpt lat="45.85227" lon="15.37509">
        <ele>161.214305</ele>
        <time>2022-08-05T15:32:37.213Z</time>
      </trkpt>
      <trkpt lat="45.85186" lon="15.37334">
        <ele>161.697158</ele>
        <time>2022-08-05T15:33:14.422Z</time>
      </trkpt>
      <trkpt lat="45.85184" lon="15.37325">
        <ele>161.740827</ele>
        <time>2022-08-05T15:33:16.564Z</time>
      </trkpt>
      <trkpt lat="45.85073" lon="15.36863">
        <ele>164.267134</ele>
        <time>2022-08-05T15:35:03.195Z</time>
      </trkpt>
      <trkpt lat="45.85137" lon="15.36771">
        <ele>164.577389</ele>
        <time>2022-08-05T15:35:27.136Z</time>
      </trkpt>
      <trkpt lat="45.85198" lon="15.36668">
        <ele>164.887414</ele>
        <time>2022-08-05T15:35:53.674Z</time>
      </trkpt>
      <trkpt lat="45.85244" lon="15.36625">
        <ele>165.069975</ele>
        <time>2022-08-05T15:36:10.144Z</time>
      </trkpt>
      <trkpt lat="45.85247" lon="15.36622">
        <ele>165.081724</ele>
        <time>2022-08-05T15:36:11.243Z</time>
      </trkpt>
      <trkpt lat="45.85261" lon="15.36577">
        <ele>165.208975</ele>
        <time>2022-08-05T15:36:22.064Z</time>
      </trkpt>
      <trkpt lat="45.85265" lon="15.36514">
        <ele>165.577059</ele>
        <time>2022-08-05T15:36:36.473Z</time>
      </trkpt>
      <trkpt lat="45.8528" lon="15.36431">
        <ele>166.069931</ele>
        <time>2022-08-05T15:36:56.339Z</time>
      </trkpt>
      <trkpt lat="45.85293" lon="15.36398">
        <ele>166.288744</ele>
        <time>2022-08-05T15:37:05.515Z</time>
      </trkpt>
      <trkpt lat="45.85319" lon="15.36363">
        <ele>166.584452</ele>
        <time>2022-08-05T15:37:16.688Z</time>
      </trkpt>
      <trkpt lat="45.85329" lon="15.36251">
        <ele>166.234276</ele>
        <time>2022-08-05T15:37:37.872Z</time>
      </trkpt>
      <trkpt lat="45.85325" lon="15.36196">
        <ele>165.984941</ele>
        <time>2022-08-05T15:37:47.361Z</time>
      </trkpt>
      <trkpt lat="45.85328" lon="15.36181">
        <ele>165.912838</ele>
        <time>2022-08-05T15:37:50.029Z</time>
      </trkpt>
      <trkpt lat="45.8535" lon="15.36159">
        <ele>165.743815</ele>
        <time>2022-08-05T15:37:56.359Z</time>
      </trkpt>
      <trkpt lat="45.85396" lon="15.36151">
        <ele>165.327194</ele>
        <time>2022-08-05T15:38:07.391Z</time>
      </trkpt>
      <trkpt lat="45.85408" lon="15.36119">
        <ele>164.851214</ele>
        <time>2022-08-05T15:38:13.290Z</time>
      </trkpt>
      <trkpt lat="45.85438" lon="15.36069">
        <ele>163.993513</ele>
        <time>2022-08-05T15:38:23.449Z</time>
      </trkpt>
      <trkpt lat="45.85461" lon="15.36042">
        <ele>163.451442</ele>
        <time>2022-08-05T15:38:29.735Z</time>
      </trkpt>
      <trkpt lat="45.85497" lon="15.36023">
        <ele>162.737485</ele>
        <time>2022-08-05T15:38:38.112Z</time>
      </trkpt>
      <trkpt lat="45.85532" lon="15.3602">
        <ele>162.10849</ele>
        <time>2022-08-05T15:38:45.865Z</time>
      </trkpt>
      <trkpt lat="45.85596" lon="15.36032">
        <ele>161.294173</ele>
        <time>2022-08-05T15:39:00.829Z</time>
      </trkpt>
      <trkpt lat="45.85644" lon="15.36015">
        <ele>160.662293</ele>
        <time>2022-08-05T15:39:12.593Z</time>
      </trkpt>
      <trkpt lat="45.85701" lon="15.35971">
        <ele>159.873069</ele>
        <time>2022-08-05T15:39:27.936Z</time>
      </trkpt>
      <trkpt lat="45.85784" lon="15.35879">
        <ele>159.540607</ele>
        <time>2022-08-05T15:39:55.478Z</time>
      </trkpt>
      <trkpt lat="45.85832" lon="15.35843">
        <ele>159.368402</ele>
        <time>2022-08-05T15:40:10.595Z</time>
      </trkpt>
      <trkpt lat="45.85869" lon="15.35796">
        <ele>159.285836</ele>
        <time>2022-08-05T15:40:24.395Z</time>
      </trkpt>
      <trkpt lat="45.85939" lon="15.35678">
        <ele>159.194469</ele>
        <time>2022-08-05T15:40:54.774Z</time>
      </trkpt>
      <trkpt lat="45.85996" lon="15.35631">
        <ele>158.93471</ele>
        <time>2022-08-05T15:41:12.177Z</time>
      </trkpt>
      <trkpt lat="45.85979" lon="15.3561">
        <ele>158.740968</ele>
        <time>2022-08-05T15:41:17.673Z</time>
      </trkpt>
      <trkpt lat="45.85981" lon="15.35604">
        <ele>158.697831</ele>
        <time>2022-08-05T15:41:19.669Z</time>
      </trkpt>
      <trkpt lat="45.8603" lon="15.35341">
        <ele>156.969835</ele>
        <time>2022-08-05T15:42:35.832Z</time>
      </trkpt>
      <trkpt lat="45.86112" lon="15.35361">
        <ele>156.140756</ele>
        <time>2022-08-05T15:43:09.252Z</time>
      </trkpt>
      <trkpt lat="45.86131" lon="15.35361">
        <ele>155.953979</ele>
        <time>2022-08-05T15:43:16.919Z</time>
      </trkpt>
      <trkpt lat="45.8615" lon="15.35343">
        <ele>155.764121</ele>
        <time>2022-08-05T15:43:26.199Z</time>
      </trkpt>
      <trkpt lat="45.8617" lon="15.35289">
        <ele>155.556094</ele>
        <time>2022-08-05T15:43:44.059Z</time>
      </trkpt>
      <trkpt lat="45.86197" lon="15.35217">
        <ele>155.277168</ele>
        <time>2022-08-05T15:44:08.205Z</time>
      </trkpt>
      <trkpt lat="45.86233" lon="15.35142">
        <ele>154.966468</ele>
        <time>2022-08-05T15:44:35.436Z</time>
      </trkpt>
      <trkpt lat="45.86262" lon="15.35125">
        <ele>154.942998</ele>
        <time>2022-08-05T15:44:48.931Z</time>
      </trkpt>
      <trkpt lat="45.86288" lon="15.35118">
        <ele>154.9694</ele>
        <time>2022-08-05T15:45:00.441Z</time>
      </trkpt>
      <trkpt lat="45.8629" lon="15.35112">
        <ele>154.974203</ele>
        <time>2022-08-05T15:45:02.552Z</time>
      </trkpt>
      <trkpt lat="45.86273" lon="15.34812">
        <ele>155.241026</ele>
        <time>2022-08-05T15:46:38.204Z</time>
      </trkpt>
      <trkpt lat="45.86265" lon="15.34407">
        <ele>155.69112</ele>
        <time>2022-08-05T15:48:45.364Z</time>
      </trkpt>
      <trkpt lat="45.86257" lon="15.34224">
        <ele>156.324729</ele>
        <time>2022-08-05T15:49:45.293Z</time>
      </trkpt>
      <trkpt lat="45.86253" lon="15.34121">
        <ele>156.76456</ele>
        <time>2022-08-05T15:50:19.435Z</time>
      </trkpt>
      <trkpt lat="45.86248" lon="15.34002">
        <ele>157.468587</ele>
        <time>2022-08-05T15:50:59.836Z</time>
      </trkpt>
      <trkpt lat="45.86238" lon="15.33696">
        <ele>159.107649</ele>
        <time>2022-08-05T15:52:44.104Z</time>
      </trkpt>
      <trkpt lat="45.86241" lon="15.33687">
        <ele>159.158635</ele>
        <time>2022-08-05T15:52:47.338Z</time>
      </trkpt>
      <trkpt lat="45.86274" lon="15.33632">
        <ele>159.352106</ele>
        <time>2022-08-05T15:53:10.179Z</time>
      </trkpt>
      <trkpt lat="45.8626" lon="15.33586">
        <ele>159.273223</ele>
        <time>2022-08-05T15:53:25.619Z</time>
      </trkpt>
      <trkpt lat="45.8621" lon="15.33444">
        <ele>159.02497</ele>
        <time>2022-08-05T15:53:53.092Z</time>
      </trkpt>
      <trkpt lat="45.8619" lon="15.33374">
        <ele>158.859655</ele>
        <time>2022-08-05T15:54:06.367Z</time>
      </trkpt>
      <trkpt lat="45.86185" lon="15.33341">
        <ele>158.775975</ele>
        <time>2022-08-05T15:54:12.309Z</time>
      </trkpt>
      <trkpt lat="45.86184" lon="15.33283">
        <ele>158.633016</ele>
        <time>2022-08-05T15:54:22.539Z</time>
      </trkpt>
      <trkpt lat="45.86187" lon="15.33222">
        <ele>158.481956</ele>
        <time>2022-08-05T15:54:33.343Z</time>
      </trkpt>
      <trkpt lat="45.86188" lon="15.33219">
        <ele>158.473024</ele>
        <time>2022-08-05T15:54:34.002Z</time>
      </trkpt>
      <trkpt lat="45.86204" lon="15.33102">
        <ele>158.062179</ele>
        <time>2022-08-05T15:54:54.647Z</time>
      </trkpt>
      <trkpt lat="45.86225" lon="15.32988">
        <ele>157.567254</ele>
        <time>2022-08-05T15:55:14.821Z</time>
      </trkpt>
      <trkpt lat="45.8624" lon="15.32946">
        <ele>157.372082</ele>
        <time>2022-08-05T15:55:22.476Z</time>
      </trkpt>
      <trkpt lat="45.8628" lon="15.32873">
        <ele>156.9476</ele>
        <time>2022-08-05T15:55:37.748Z</time>
      </trkpt>
      <trkpt lat="45.86296" lon="15.328">
        <ele>156.590226</ele>
        <time>2022-08-05T15:55:50.379Z</time>
      </trkpt>
      <trkpt lat="45.86286" lon="15.32745">
        <ele>156.324823</ele>
        <time>2022-08-05T15:55:59.853Z</time>
      </trkpt>
      <trkpt lat="45.86207" lon="15.32503">
        <ele>155.756927</ele>
        <time>2022-08-05T15:56:46.511Z</time>
      </trkpt>
      <trkpt lat="45.86198" lon="15.32434">
        <ele>155.772238</ele>
        <time>2022-08-05T15:57:00.097Z</time>
      </trkpt>
      <trkpt lat="45.86198" lon="15.32368">
        <ele>156.011071</ele>
        <time>2022-08-05T15:57:13.880Z</time>
      </trkpt>
      <trkpt lat="45.8621" lon="15.32273">
        <ele>156.353514</ele>
        <time>2022-08-05T15:57:34.277Z</time>
      </trkpt>
      <trkpt lat="45.86214" lon="15.32238">
        <ele>156.481743</ele>
        <time>2022-08-05T15:57:41.544Z</time>
      </trkpt>
      <trkpt lat="45.86216" lon="15.32212">
        <ele>156.575588</ele>
        <time>2022-08-05T15:57:46.854Z</time>
      </trkpt>
      <trkpt lat="45.8623" lon="15.32121">
        <ele>156.827505</ele>
        <time>2022-08-05T15:58:05.530Z</time>
      </trkpt>
      <trkpt lat="45.86233" lon="15.32109">
        <ele>156.861094</ele>
        <time>2022-08-05T15:58:07.946Z</time>
      </trkpt>
      <trkpt lat="45.86237" lon="15.32052">
        <ele>157.008413</ele>
        <time>2022-08-05T15:58:26.369Z</time>
      </trkpt>
      <trkpt lat="45.86228" lon="15.31998">
        <ele>157.150525</ele>
        <time>2022-08-05T15:58:44.180Z</time>
      </trkpt>
      <trkpt lat="45.86203" lon="15.31916">
        <ele>157.319419</ele>
        <time>2022-08-05T15:59:12.777Z</time>
      </trkpt>
      <trkpt lat="45.86153" lon="15.31801">
        <ele>157.451943</ele>
        <time>2022-08-05T15:59:54.995Z</time>
      </trkpt>
      <trkpt lat="45.86137" lon="15.31741">
        <ele>157.515517</ele>
        <time>2022-08-05T16:00:15.452Z</time>
      </trkpt>
      <trkpt lat="45.86134" lon="15.31697">
        <ele>157.558481</ele>
        <time>2022-08-05T16:00:29.649Z</time>
      </trkpt>
      <trkpt lat="45.86161" lon="15.31568">
        <ele>157.686739</ele>
        <time>2022-08-05T16:01:11.523Z</time>
      </trkpt>
      <trkpt lat="45.86197" lon="15.31331">
        <ele>158.013439</ele>
        <time>2022-08-05T16:02:27.925Z</time>
      </trkpt>
      <trkpt lat="45.86214" lon="15.31023">
        <ele>158.506957</ele>
        <time>2022-08-05T16:04:07.435Z</time>
      </trkpt>
      <trkpt lat="45.8622" lon="15.3101">
        <ele>158.533046</ele>
        <time>2022-08-05T16:04:12.583Z</time>
      </trkpt>
      <trkpt lat="45.86265" lon="15.30971">
        <ele>158.439809</ele>
        <time>2022-08-05T16:04:35.839Z</time>
      </trkpt>
      <trkpt lat="45.86312" lon="15.30948">
        <ele>158.026631</ele>
        <time>2022-08-05T16:04:56.664Z</time>
      </trkpt>
      <trkpt lat="45.86389" lon="15.30853">
        <ele>157.176994</ele>
        <time>2022-08-05T16:05:37.345Z</time>
      </trkpt>
      <trkpt lat="45.86402" lon="15.30829">
        <ele>156.974772</ele>
        <time>2022-08-05T16:05:45.809Z</time>
      </trkpt>
      <trkpt lat="45.86431" lon="15.30692">
        <ele>155.976334</ele>
        <time>2022-08-05T16:06:25.332Z</time>
      </trkpt>
      <trkpt lat="45.86472" lon="15.30463">
        <ele>154.811924</ele>
        <time>2022-08-05T16:07:34.378Z</time>
      </trkpt>
      <trkpt lat="45.86504" lon="15.3033">
        <ele>154.319148</ele>
        <time>2022-08-05T16:08:16.325Z</time>
      </trkpt>
      <trkpt lat="45.86533" lon="15.30276">
        <ele>154.06674</ele>
        <time>2022-08-05T16:08:36.220Z</time>
      </trkpt>
      <trkpt lat="45.86531" lon="15.30194">
        <ele>153.764657</ele>
        <time>2022-08-05T16:09:00.400Z</time>
      </trkpt>
      <trkpt lat="45.86535" lon="15.30171">
        <ele>153.679374</ele>
        <time>2022-08-05T16:09:07.036Z</time>
      </trkpt>
      <trkpt lat="45.86552" lon="15.30158">
        <ele>153.573302</ele>
        <time>2022-08-05T16:09:12.125Z</time>
      </trkpt>
      <trkpt lat="45.86633" lon="15.30134">
        <ele>153.341613</ele>
        <time>2022-08-05T16:09:32.279Z</time>
      </trkpt>
      <trkpt lat="45.86644" lon="15.30122">
        <ele>153.316546</ele>
        <time>2022-08-05T16:09:35.703Z</time>
      </trkpt>
      <trkpt lat="45.86646" lon="15.30101">
        <ele>153.289471</ele>
        <time>2022-08-05T16:09:39.399Z</time>
      </trkpt>
      <trkpt lat="45.86626" lon="15.3001">
        <ele>153.168753</ele>
        <time>2022-08-05T16:09:56.715Z</time>
      </trkpt>
      <trkpt lat="45.86604" lon="15.29963">
        <ele>153.261415</ele>
        <time>2022-08-05T16:10:07.878Z</time>
      </trkpt>
      <trkpt lat="45.8661" lon="15.29908">
        <ele>153.68365</ele>
        <time>2022-08-05T16:10:19.355Z</time>
      </trkpt>
      <trkpt lat="45.86611" lon="15.29855">
        <ele>154.086593</ele>
        <time>2022-08-05T16:10:30.764Z</time>
      </trkpt>
      <trkpt lat="45.86562" lon="15.29714">
        <ele>155.498582</ele>
        <time>2022-08-05T16:11:07.814Z</time>
      </trkpt>
      <trkpt lat="45.86499" lon="15.29318">
        <ele>162.074361</ele>
        <time>2022-08-05T16:12:56.540Z</time>
      </trkpt>
      <trkpt lat="45.86469" lon="15.29245">
        <ele>163.467358</ele>
        <time>2022-08-05T16:13:19.378Z</time>
      </trkpt>
      <trkpt lat="45.86445" lon="15.29134">
        <ele>163.891904</ele>
        <time>2022-08-05T16:13:47.748Z</time>
      </trkpt>
      <trkpt lat="45.86384" lon="15.28998">
        <ele>164.100852</ele>
        <time>2022-08-05T16:14:16.135Z</time>
      </trkpt>
      <trkpt lat="45.8636" lon="15.28847">
        <ele>161.783402</ele>
        <time>2022-08-05T16:14:38.761Z</time>
      </trkpt>
      <trkpt lat="45.86406" lon="15.28827">
        <ele>160.748437</ele>
        <time>2022-08-05T16:14:48.671Z</time>
      </trkpt>
      <trkpt lat="45.86411" lon="15.28825">
        <ele>160.621354</ele>
        <time>2022-08-05T16:14:49.867Z</time>
      </trkpt>
      <trkpt lat="45.86474" lon="15.28789">
        <ele>158.921525</ele>
        <time>2022-08-05T16:15:03.606Z</time>
      </trkpt>
      <trkpt lat="45.86558" lon="15.28695">
        <ele>156.187937</ele>
        <time>2022-08-05T16:15:26.748Z</time>
      </trkpt>
      <trkpt lat="45.86652" lon="15.28634">
        <ele>154.363357</ele>
        <time>2022-08-05T16:15:49.555Z</time>
      </trkpt>
      <trkpt lat="45.86725" lon="15.28562">
        <ele>152.889883</ele>
        <time>2022-08-05T16:16:10.145Z</time>
      </trkpt>
      <trkpt lat="45.86748" lon="15.28546">
        <ele>152.699269</ele>
        <time>2022-08-05T16:16:16.201Z</time>
      </trkpt>
      <trkpt lat="45.86816" lon="15.28508">
        <ele>152.149689</ele>
        <time>2022-08-05T16:16:34.197Z</time>
      </trkpt>
      <trkpt lat="45.86895" lon="15.28466">
        <ele>151.551312</ele>
        <time>2022-08-05T16:16:55.849Z</time>
      </trkpt>
      <trkpt lat="45.8688" lon="15.28407">
        <ele>151.528162</ele>
        <time>2022-08-05T16:17:07.161Z</time>
      </trkpt>
      <trkpt lat="45.86831" lon="15.28264">
        <ele>151.469166</ele>
        <time>2022-08-05T16:17:37.390Z</time>
      </trkpt>
      <trkpt lat="45.86581" lon="15.27712">
        <ele>151.195778</ele>
        <time>2022-08-05T16:19:37.834Z</time>
      </trkpt>
      <trkpt lat="45.86528" lon="15.27576">
        <ele>151.250517</ele>
        <time>2022-08-05T16:20:07.400Z</time>
      </trkpt>
      <trkpt lat="45.8648" lon="15.2744">
        <ele>151.560269</ele>
        <time>2022-08-05T16:20:37.234Z</time>
      </trkpt>
      <trkpt lat="45.86397" lon="15.27163">
        <ele>152.281702</ele>
        <time>2022-08-05T16:21:37.191Z</time>
      </trkpt>
      <trkpt lat="45.86358" lon="15.26997">
        <ele>152.496978</ele>
        <time>2022-08-05T16:22:11.658Z</time>
      </trkpt>
      <trkpt lat="45.86312" lon="15.26763">
        <ele>152.484179</ele>
        <time>2022-08-05T16:22:55.952Z</time>
      </trkpt>
      <trkpt lat="45.86295" lon="15.26723">
        <ele>152.439564</ele>
        <time>2022-08-05T16:23:04.162Z</time>
      </trkpt>
      <trkpt lat="45.86271" lon="15.26685">
        <ele>152.390364</ele>
        <time>2022-08-05T16:23:13.323Z</time>
      </trkpt>
      <trkpt lat="45.86237" lon="15.26634">
        <ele>152.3908</ele>
        <time>2022-08-05T16:23:26.193Z</time>
      </trkpt>
      <trkpt lat="45.86215" lon="15.26591">
        <ele>152.533111</ele>
        <time>2022-08-05T16:23:36.042Z</time>
      </trkpt>
      <trkpt lat="45.86191" lon="15.26489">
        <ele>152.824754</ele>
        <time>2022-08-05T16:23:57.739Z</time>
      </trkpt>
      <trkpt lat="45.86174" lon="15.26394">
        <ele>153.13606</ele>
        <time>2022-08-05T16:24:18.428Z</time>
      </trkpt>
      <trkpt lat="45.8617" lon="15.26363">
        <ele>153.297735</ele>
        <time>2022-08-05T16:24:25.231Z</time>
      </trkpt>
      <trkpt lat="45.86169" lon="15.26323">
        <ele>153.500201</ele>
        <time>2022-08-05T16:24:33.691Z</time>
      </trkpt>
      <trkpt lat="45.86167" lon="15.26303">
        <ele>153.601879</ele>
        <time>2022-08-05T16:24:37.975Z</time>
      </trkpt>
      <trkpt lat="45.86161" lon="15.2624">
        <ele>153.931646</ele>
        <time>2022-08-05T16:24:51.592Z</time>
      </trkpt>
      <trkpt lat="45.86152" lon="15.26201">
        <ele>154.138208</ele>
        <time>2022-08-05T16:25:00.150Z</time>
      </trkpt>
      <trkpt lat="45.86139" lon="15.26175">
        <ele>154.304925</ele>
        <time>2022-08-05T16:25:06.921Z</time>
      </trkpt>
      <trkpt lat="45.86048" lon="15.26058">
        <ele>154.850969</ele>
        <time>2022-08-05T16:25:42.236Z</time>
      </trkpt>
      <trkpt lat="45.85953" lon="15.2591">
        <ele>155.122301</ele>
        <time>2022-08-05T16:26:21.947Z</time>
      </trkpt>
      <trkpt lat="45.85938" lon="15.2588">
        <ele>155.120693</ele>
        <time>2022-08-05T16:26:28.633Z</time>
      </trkpt>
      <trkpt lat="45.85933" lon="15.25856">
        <ele>155.11955</ele>
        <time>2022-08-05T16:26:33.320Z</time>
      </trkpt>
      <trkpt lat="45.85919" lon="15.25793">
        <ele>155.116586</ele>
        <time>2022-08-05T16:26:45.114Z</time>
      </trkpt>
      <trkpt lat="45.85869" lon="15.25694">
        <ele>154.952117</ele>
        <time>2022-08-05T16:27:05.790Z</time>
      </trkpt>
      <trkpt lat="45.8584" lon="15.25587">
        <ele>154.767262</ele>
        <time>2022-08-05T16:27:25.775Z</time>
      </trkpt>
      <trkpt lat="45.85822" lon="15.25597">
        <ele>154.722396</ele>
        <time>2022-08-05T16:27:31.149Z</time>
      </trkpt>
      <trkpt lat="45.8581" lon="15.25594">
        <ele>154.713392</ele>
        <time>2022-08-05T16:27:34.687Z</time>
      </trkpt>
      <trkpt lat="45.85776" lon="15.2555">
        <ele>155.426393</ele>
        <time>2022-08-05T16:27:49.061Z</time>
      </trkpt>
      <trkpt lat="45.85679" lon="15.25486">
        <ele>157.098124</ele>
        <time>2022-08-05T16:28:28.574Z</time>
      </trkpt>
      <trkpt lat="45.85617" lon="15.25461">
        <ele>158.081809</ele>
        <time>2022-08-05T16:28:53.942Z</time>
      </trkpt>
      <trkpt lat="45.85569" lon="15.25449">
        <ele>158.828879</ele>
        <time>2022-08-05T16:29:12.616Z</time>
      </trkpt>
      <trkpt lat="45.85549" lon="15.2545">
        <ele>159.129526</ele>
        <time>2022-08-05T16:29:19.594Z</time>
      </trkpt>
      <trkpt lat="45.8551" lon="15.2545">
        <ele>159.73351</ele>
        <time>2022-08-05T16:29:33.017Z</time>
      </trkpt>
      <trkpt lat="45.85499" lon="15.25448">
        <ele>159.897122</ele>
        <time>2022-08-05T16:29:36.554Z</time>
      </trkpt>
      <trkpt lat="45.85403" lon="15.25413">
        <ele>159.825292</ele>
        <time>2022-08-05T16:30:04.063Z</time>
      </trkpt>
      <trkpt lat="45.85287" lon="15.25391">
        <ele>159.047693</ele>
        <time>2022-08-05T16:30:32.480Z</time>
      </trkpt>
      <trkpt lat="45.85174" lon="15.25334">
        <ele>157.31294</ele>
        <time>2022-08-05T16:30:59.687Z</time>
      </trkpt>
      <trkpt lat="45.85096" lon="15.25288">
        <ele>156.308155</ele>
        <time>2022-08-05T16:31:19.300Z</time>
      </trkpt>
      <trkpt lat="45.85053" lon="15.25277">
        <ele>155.935552</ele>
        <time>2022-08-05T16:31:29.833Z</time>
      </trkpt>
      <trkpt lat="45.85011" lon="15.25211">
        <ele>155.404384</ele>
        <time>2022-08-05T16:31:45.577Z</time>
      </trkpt>
      <trkpt lat="45.84957" lon="15.25161">
        <ele>154.941363</ele>
        <time>2022-08-05T16:32:02.661Z</time>
      </trkpt>
      <trkpt lat="45.84892" lon="15.25086">
        <ele>154.488854</ele>
        <time>2022-08-05T16:32:24.318Z</time>
      </trkpt>
      <trkpt lat="45.84765" lon="15.24923">
        <ele>153.566766</ele>
        <time>2022-08-05T16:33:06.865Z</time>
      </trkpt>
      <trkpt lat="45.84622" lon="15.24755">
        <ele>153.349684</ele>
        <time>2022-08-05T16:33:55.819Z</time>
      </trkpt>
      <trkpt lat="45.84541" lon="15.24662">
        <ele>153.854303</ele>
        <time>2022-08-05T16:34:28.570Z</time>
      </trkpt>
      <trkpt lat="45.84334" lon="15.24496">
        <ele>156.517941</ele>
        <time>2022-08-05T16:35:49.651Z</time>
      </trkpt>
      <trkpt lat="45.84231" lon="15.24399">
        <ele>157.484741</ele>
        <time>2022-08-05T16:36:28.026Z</time>
      </trkpt>
      <trkpt lat="45.84164" lon="15.24316">
        <ele>157.65825</ele>
        <time>2022-08-05T16:36:53.594Z</time>
      </trkpt>
      <trkpt lat="45.8411" lon="15.24214">
        <ele>157.643402</ele>
        <time>2022-08-05T16:37:18.027Z</time>
      </trkpt>
      <trkpt lat="45.84028" lon="15.24018">
        <ele>156.909409</ele>
        <time>2022-08-05T16:37:58.904Z</time>
      </trkpt>
      <trkpt lat="45.84011" lon="15.23952">
        <ele>156.712539</ele>
        <time>2022-08-05T16:38:11.172Z</time>
      </trkpt>
      <trkpt lat="45.83988" lon="15.23802">
        <ele>156.283307</ele>
        <time>2022-08-05T16:38:38.856Z</time>
      </trkpt>
      <trkpt lat="45.8398" lon="15.23774">
        <ele>156.239414</ele>
        <time>2022-08-05T16:38:44.691Z</time>
      </trkpt>
      <trkpt lat="45.83937" lon="15.23678">
        <ele>156.488369</ele>
        <time>2022-08-05T16:39:07.758Z</time>
      </trkpt>
      <trkpt lat="45.83913" lon="15.23556">
        <ele>156.761921</ele>
        <time>2022-08-05T16:39:33.119Z</time>
      </trkpt>
      <trkpt lat="45.8391" lon="15.23491">
        <ele>157.037509</ele>
        <time>2022-08-05T16:39:46.770Z</time>
      </trkpt>
      <trkpt lat="45.8391" lon="15.23449">
        <ele>157.229586</ele>
        <time>2022-08-05T16:39:55.474Z</time>
      </trkpt>
      <trkpt lat="45.83908" lon="15.23368">
        <ele>157.599955</ele>
        <time>2022-08-05T16:40:12.219Z</time>
      </trkpt>
      <trkpt lat="45.83904" lon="15.23285">
        <ele>157.994396</ele>
        <time>2022-08-05T16:40:29.765Z</time>
      </trkpt>
      <trkpt lat="45.83893" lon="15.23216">
        <ele>158.55338</ele>
        <time>2022-08-05T16:40:44.934Z</time>
      </trkpt>
      <trkpt lat="45.83882" lon="15.22983">
        <ele>160.480464</ele>
        <time>2022-08-05T16:41:38.074Z</time>
      </trkpt>
      <trkpt lat="45.83883" lon="15.22928">
        <ele>161.002054</ele>
        <time>2022-08-05T16:41:51.099Z</time>
      </trkpt>
      <trkpt lat="45.83875" lon="15.22841">
        <ele>161.842861</ele>
        <time>2022-08-05T16:42:11.702Z</time>
      </trkpt>
      <trkpt lat="45.83874" lon="15.22811">
        <ele>162.130521</ele>
        <time>2022-08-05T16:42:18.804Z</time>
      </trkpt>
      <trkpt lat="45.83885" lon="15.2274">
        <ele>162.717132</ele>
        <time>2022-08-05T16:42:35.444Z</time>
      </trkpt>
      <trkpt lat="45.83869" lon="15.22677">
        <ele>163.151733</ele>
        <time>2022-08-05T16:42:50.453Z</time>
      </trkpt>
      <trkpt lat="45.83845" lon="15.22638">
        <ele>163.492205</ele>
        <time>2022-08-05T16:43:01.919Z</time>
      </trkpt>
      <trkpt lat="45.83785" lon="15.22611">
        <ele>164.084393</ele>
        <time>2022-08-05T16:43:20.661Z</time>
      </trkpt>
      <trkpt lat="45.83737" lon="15.22559">
        <ele>164.274854</ele>
        <time>2022-08-05T16:43:37.795Z</time>
      </trkpt>
      <trkpt lat="45.83694" lon="15.22533">
        <ele>164.374829</ele>
        <time>2022-08-05T16:43:50.417Z</time>
      </trkpt>
      <trkpt lat="45.83641" lon="15.22477">
        <ele>164.519218</ele>
        <time>2022-08-05T16:44:08.203Z</time>
      </trkpt>
      <trkpt lat="45.83569" lon="15.22434">
        <ele>165.030062</ele>
        <time>2022-08-05T16:44:29.543Z</time>
      </trkpt>
      <trkpt lat="45.83512" lon="15.2238">
        <ele>165.550973</ele>
        <time>2022-08-05T16:44:50.182Z</time>
      </trkpt>
      <trkpt lat="45.83504" lon="15.22373">
        <ele>165.623494</ele>
        <time>2022-08-05T16:44:53.173Z</time>
      </trkpt>
      <trkpt lat="45.83442" lon="15.22305">
        <ele>166.527408</ele>
        <time>2022-08-05T16:45:20.106Z</time>
      </trkpt>
      <trkpt lat="45.83424" lon="15.22271">
        <ele>166.985584</ele>
        <time>2022-08-05T16:45:30.543Z</time>
      </trkpt>
      <trkpt lat="45.83416" lon="15.22226">
        <ele>167.498308</ele>
        <time>2022-08-05T16:45:42.401Z</time>
      </trkpt>
      <trkpt lat="45.83396" lon="15.22089">
        <ele>168.812772</ele>
        <time>2022-08-05T16:46:15.463Z</time>
      </trkpt>
      <trkpt lat="45.83386" lon="15.22038">
        <ele>168.962742</ele>
        <time>2022-08-05T16:46:26.697Z</time>
      </trkpt>
      <trkpt lat="45.83368" lon="15.21987">
        <ele>169.125173</ele>
        <time>2022-08-05T16:46:37.841Z</time>
      </trkpt>
      <trkpt lat="45.83355" lon="15.21929">
        <ele>169.302056</ele>
        <time>2022-08-05T16:46:49.340Z</time>
      </trkpt>
      <trkpt lat="45.83322" lon="15.21773">
        <ele>169.585309</ele>
        <time>2022-08-05T16:47:18.571Z</time>
      </trkpt>
      <trkpt lat="45.83314" lon="15.21617">
        <ele>169.753095</ele>
        <time>2022-08-05T16:47:49.558Z</time>
      </trkpt>
      <trkpt lat="45.83303" lon="15.21529">
        <ele>169.84832</ele>
        <time>2022-08-05T16:48:07.992Z</time>
      </trkpt>
      <trkpt lat="45.83308" lon="15.21396">
        <ele>169.991228</ele>
        <time>2022-08-05T16:48:33.824Z</time>
      </trkpt>
      <trkpt lat="45.8333" lon="15.21227">
        <ele>169.464009</ele>
        <time>2022-08-05T16:49:02.616Z</time>
      </trkpt>
      <trkpt lat="45.83325" lon="15.2111">
        <ele>168.973742</ele>
        <time>2022-08-05T16:49:21.999Z</time>
      </trkpt>
      <trkpt lat="45.83332" lon="15.21057">
        <ele>168.834622</ele>
        <time>2022-08-05T16:49:31.365Z</time>
      </trkpt>
      <trkpt lat="45.83358" lon="15.20989">
        <ele>168.645938</ele>
        <time>2022-08-05T16:49:45.393Z</time>
      </trkpt>
      <trkpt lat="45.83359" lon="15.20962">
        <ele>168.581488</ele>
        <time>2022-08-05T16:49:49.898Z</time>
      </trkpt>
      <trkpt lat="45.83357" lon="15.20946">
        <ele>168.541983</ele>
        <time>2022-08-05T16:49:53.177Z</time>
      </trkpt>
      <trkpt lat="45.83347" lon="15.20922">
        <ele>168.47533</ele>
        <time>2022-08-05T16:49:57.770Z</time>
      </trkpt>
      <trkpt lat="45.83324" lon="15.209">
        <ele>168.378217</ele>
        <time>2022-08-05T16:50:04.764Z</time>
      </trkpt>
      <trkpt lat="45.83297" lon="15.20899">
        <ele>168.35067</ele>
        <time>2022-08-05T16:50:11.684Z</time>
      </trkpt>
      <trkpt lat="45.83251" lon="15.20912">
        <ele>168.438062</ele>
        <time>2022-08-05T16:50:24.306Z</time>
      </trkpt>
      <trkpt lat="45.83199" lon="15.2091">
        <ele>168.534637</ele>
        <time>2022-08-05T16:50:38.775Z</time>
      </trkpt>
      <trkpt lat="45.83169" lon="15.20888">
        <ele>168.597715</ele>
        <time>2022-08-05T16:50:48.060Z</time>
      </trkpt>
      <trkpt lat="45.8314" lon="15.2084">
        <ele>168.753359</ele>
        <time>2022-08-05T16:51:00.659Z</time>
      </trkpt>
      <trkpt lat="45.83082" lon="15.20693">
        <ele>169.89976</ele>
        <time>2022-08-05T16:51:37.017Z</time>
      </trkpt>
      <trkpt lat="45.82974" lon="15.20473">
        <ele>172.896867</ele>
        <time>2022-08-05T16:52:40.404Z</time>
      </trkpt>
      <trkpt lat="45.82967" lon="15.20438">
        <ele>173.370809</ele>
        <time>2022-08-05T16:52:50.077Z</time>
      </trkpt>
      <trkpt lat="45.82966" lon="15.20348">
        <ele>175.199572</ele>
        <time>2022-08-05T16:53:15.207Z</time>
      </trkpt>
      <trkpt lat="45.82984" lon="15.20095">
        <ele>180.840021</ele>
        <time>2022-08-05T16:54:34.175Z</time>
      </trkpt>
      <trkpt lat="45.82988" lon="15.2005">
        <ele>181.629596</ele>
        <time>2022-08-05T16:54:47.425Z</time>
      </trkpt>
      <trkpt lat="45.82994" lon="15.20034">
        <ele>181.931043</ele>
        <time>2022-08-05T16:54:52.257Z</time>
      </trkpt>
      <trkpt lat="45.82969" lon="15.20016">
        <ele>182.623041</ele>
        <time>2022-08-05T16:55:03.326Z</time>
      </trkpt>
      <trkpt lat="45.82907" lon="15.19952">
        <ele>184.317111</ele>
        <time>2022-08-05T16:55:29.821Z</time>
      </trkpt>
      <trkpt lat="45.82867" lon="15.19893">
        <ele>184.397821</ele>
        <time>2022-08-05T16:55:46.351Z</time>
      </trkpt>
      <trkpt lat="45.82829" lon="15.19805">
        <ele>184.50104</ele>
        <time>2022-08-05T16:56:04.298Z</time>
      </trkpt>
      <trkpt lat="45.82782" lon="15.19662">
        <ele>184.80521</ele>
        <time>2022-08-05T16:56:32.685Z</time>
      </trkpt>
      <trkpt lat="45.82727" lon="15.19465">
        <ele>185.062469</ele>
        <time>2022-08-05T16:57:17.311Z</time>
      </trkpt>
      <trkpt lat="45.82717" lon="15.19407">
        <ele>184.905024</ele>
        <time>2022-08-05T16:57:29.307Z</time>
      </trkpt>
      <trkpt lat="45.82706" lon="15.19328">
        <ele>184.692194</ele>
        <time>2022-08-05T16:57:43.728Z</time>
      </trkpt>
      <trkpt lat="45.82689" lon="15.19052">
        <ele>181.352558</ele>
        <time>2022-08-05T16:58:24.561Z</time>
      </trkpt>
      <trkpt lat="45.82668" lon="15.19027">
        <ele>180.77306</ele>
        <time>2022-08-05T16:58:29.872Z</time>
      </trkpt>
      <trkpt lat="45.82668" lon="15.19019">
        <ele>180.64335</ele>
        <time>2022-08-05T16:58:33.879Z</time>
      </trkpt>
      <trkpt lat="45.82606" lon="15.19028">
        <ele>178.891797</ele>
        <time>2022-08-05T16:58:46.216Z</time>
      </trkpt>
      <trkpt lat="45.82591" lon="15.19036">
        <ele>178.429096</ele>
        <time>2022-08-05T16:58:49.568Z</time>
      </trkpt>
      <trkpt lat="45.82569" lon="15.19061">
        <ele>177.645591</ele>
        <time>2022-08-05T16:58:55.135Z</time>
      </trkpt>
      <trkpt lat="45.82528" lon="15.19014">
        <ele>176.171221</ele>
        <time>2022-08-05T16:59:05.585Z</time>
      </trkpt>
      <trkpt lat="45.82494" lon="15.18969">
        <ele>174.856058</ele>
        <time>2022-08-05T16:59:14.647Z</time>
      </trkpt>
      <trkpt lat="45.82486" lon="15.18956">
        <ele>174.500949</ele>
        <time>2022-08-05T16:59:17.066Z</time>
      </trkpt>
      <trkpt lat="45.82449" lon="15.18894">
        <ele>172.898269</ele>
        <time>2022-08-05T16:59:27.941Z</time>
      </trkpt>
      <trkpt lat="45.82413" lon="15.18834">
        <ele>171.327029</ele>
        <time>2022-08-05T16:59:39.081Z</time>
      </trkpt>
      <trkpt lat="45.82379" lon="15.18776">
        <ele>170.27474</ele>
        <time>2022-08-05T16:59:49.932Z</time>
      </trkpt>
      <trkpt lat="45.82311" lon="15.18609">
        <ele>169.10162</ele>
        <time>2022-08-05T17:00:21.617Z</time>
      </trkpt>
      <trkpt lat="45.82285" lon="15.18557">
        <ele>169.024578</ele>
        <time>2022-08-05T17:00:34.870Z</time>
      </trkpt>
      <trkpt lat="45.82248" lon="15.18509">
        <ele>169.295051</ele>
        <time>2022-08-05T17:00:49.800Z</time>
      </trkpt>
      <trkpt lat="45.82168" lon="15.18431">
        <ele>169.817634</ele>
        <time>2022-08-05T17:01:18.422Z</time>
      </trkpt>
      <trkpt lat="45.82114" lon="15.18356">
        <ele>170.043447</ele>
        <time>2022-08-05T17:01:40.979Z</time>
      </trkpt>
      <trkpt lat="45.82059" lon="15.18301">
        <ele>170.218495</ele>
        <time>2022-08-05T17:02:00.437Z</time>
      </trkpt>
      <trkpt lat="45.82017" lon="15.18227">
        <ele>170.219373</ele>
        <time>2022-08-05T17:02:17.137Z</time>
      </trkpt>
      <trkpt lat="45.81998" lon="15.18209">
        <ele>170.050801</ele>
        <time>2022-08-05T17:02:22.815Z</time>
      </trkpt>
      <trkpt lat="45.81956" lon="15.18172">
        <ele>169.687466</ele>
        <time>2022-08-05T17:02:34.248Z</time>
      </trkpt>
      <trkpt lat="45.81874" lon="15.18112">
        <ele>169.056354</ele>
        <time>2022-08-05T17:02:55.526Z</time>
      </trkpt>
      <trkpt lat="45.81802" lon="15.18048">
        <ele>170.009859</ele>
        <time>2022-08-05T17:03:17.979Z</time>
      </trkpt>
      <trkpt lat="45.81746" lon="15.18012">
        <ele>170.694321</ele>
        <time>2022-08-05T17:03:39.506Z</time>
      </trkpt>
      <trkpt lat="45.81706" lon="15.17967">
        <ele>171.534121</ele>
        <time>2022-08-05T17:04:01.315Z</time>
      </trkpt>
      <trkpt lat="45.81602" lon="15.17828">
        <ele>175.072819</ele>
        <time>2022-08-05T17:04:59.481Z</time>
      </trkpt>
      <trkpt lat="45.81589" lon="15.17816">
        <ele>175.459105</ele>
        <time>2022-08-05T17:05:04.501Z</time>
      </trkpt>
      <trkpt lat="45.81553" lon="15.17773">
        <ele>175.395799</ele>
        <time>2022-08-05T17:05:18.095Z</time>
      </trkpt>
      <trkpt lat="45.81503" lon="15.17726">
        <ele>175.190717</ele>
        <time>2022-08-05T17:05:32.638Z</time>
      </trkpt>
      <trkpt lat="45.81443" lon="15.1769">
        <ele>174.966775</ele>
        <time>2022-08-05T17:05:46.943Z</time>
      </trkpt>
      <trkpt lat="45.81424" lon="15.17673">
        <ele>174.959642</ele>
        <time>2022-08-05T17:05:52.060Z</time>
      </trkpt>
      <trkpt lat="45.81391" lon="15.17633">
        <ele>175.091034</ele>
        <time>2022-08-05T17:06:02.548Z</time>
      </trkpt>
      <trkpt lat="45.81363" lon="15.17587">
        <ele>175.22035</ele>
        <time>2022-08-05T17:06:14.728Z</time>
      </trkpt>
      <trkpt lat="45.81323" lon="15.17482">
        <ele>175.47397</ele>
        <time>2022-08-05T17:06:41.262Z</time>
      </trkpt>
      <trkpt lat="45.81301" lon="15.17415">
        <ele>175.999073</ele>
        <time>2022-08-05T17:06:58.146Z</time>
      </trkpt>
      <trkpt lat="45.81296" lon="15.17399">
        <ele>176.127064</ele>
        <time>2022-08-05T17:07:02.345Z</time>
      </trkpt>
      <trkpt lat="45.81292" lon="15.17386">
        <ele>176.230337</ele>
        <time>2022-08-05T17:07:06.009Z</time>
      </trkpt>
      <trkpt lat="45.81234" lon="15.17217">
        <ele>177.299498</ele>
        <time>2022-08-05T17:07:46.746Z</time>
      </trkpt>
      <trkpt lat="45.81229" lon="15.17202">
        <ele>177.293379</ele>
        <time>2022-08-05T17:07:49.918Z</time>
      </trkpt>
      <trkpt lat="45.81188" lon="15.17077">
        <ele>177.24084</ele>
        <time>2022-08-05T17:08:13.491Z</time>
      </trkpt>
      <trkpt lat="45.81171" lon="15.17029">
        <ele>177.220352</ele>
        <time>2022-08-05T17:08:23.471Z</time>
      </trkpt>
      <trkpt lat="45.81149" lon="15.16956">
        <ele>177.222145</ele>
        <time>2022-08-05T17:08:39.283Z</time>
      </trkpt>
      <trkpt lat="45.81144" lon="15.16928">
        <ele>177.225139</ele>
        <time>2022-08-05T17:08:44.592Z</time>
      </trkpt>
      <trkpt lat="45.81122" lon="15.16811">
        <ele>177.237851</ele>
        <time>2022-08-05T17:09:07.813Z</time>
      </trkpt>
      <trkpt lat="45.81098" lon="15.1674">
        <ele>176.946745</ele>
        <time>2022-08-05T17:09:21.289Z</time>
      </trkpt>
      <trkpt lat="45.81068" lon="15.1667">
        <ele>176.282837</ele>
        <time>2022-08-05T17:09:35.105Z</time>
      </trkpt>
      <trkpt lat="45.81027" lon="15.16596">
        <ele>175.528325</ele>
        <time>2022-08-05T17:09:49.320Z</time>
      </trkpt>
      <trkpt lat="45.80945" lon="15.16489">
        <ele>175.058507</ele>
        <time>2022-08-05T17:10:13.388Z</time>
      </trkpt>
      <trkpt lat="45.80921" lon="15.16468">
        <ele>175.01946</ele>
        <time>2022-08-05T17:10:20.307Z</time>
      </trkpt>
      <trkpt lat="45.80917" lon="15.16474">
        <ele>175.011197</ele>
        <time>2022-08-05T17:10:21.731Z</time>
      </trkpt>
      <trkpt lat="45.80889" lon="15.16463">
        <ele>174.969005</ele>
        <time>2022-08-05T17:10:33.087Z</time>
      </trkpt>
      <trkpt lat="45.80849" lon="15.16456">
        <ele>175.047538</ele>
        <time>2022-08-05T17:10:50.283Z</time>
      </trkpt>
      <trkpt lat="45.80817" lon="15.16461">
        <ele>176.242886</ele>
        <time>2022-08-05T17:11:05.789Z</time>
      </trkpt>
      <trkpt lat="45.80805" lon="15.16452">
        <ele>176.763005</ele>
        <time>2022-08-05T17:11:12.934Z</time>
      </trkpt>
      <trkpt lat="45.80729" lon="15.16449">
        <ele>179.603332</ele>
        <time>2022-08-05T17:11:56.411Z</time>
      </trkpt>
      <trkpt lat="45.80708" lon="15.16448">
        <ele>180.408575</ele>
        <time>2022-08-05T17:12:08.917Z</time>
      </trkpt>
      <trkpt lat="45.80616" lon="15.16445">
        <ele>181.9766</ele>
        <time>2022-08-05T17:12:58.570Z</time>
      </trkpt>
      <trkpt lat="45.80594" lon="15.1644">
        <ele>182.092742</ele>
        <time>2022-08-05T17:13:08.496Z</time>
      </trkpt>
      <trkpt lat="45.80585" lon="15.16445">
        <ele>182.142851</ele>
        <time>2022-08-05T17:13:12.717Z</time>
      </trkpt>
      <trkpt lat="45.80581" lon="15.16444">
        <ele>182.162755</ele>
        <time>2022-08-05T17:13:14.310Z</time>
      </trkpt>
      <trkpt lat="45.80577" lon="15.16441">
        <ele>182.187128</ele>
        <time>2022-08-05T17:13:16.030Z</time>
      </trkpt>
      <trkpt lat="45.80573" lon="15.16439">
        <ele>182.206956</ele>
        <time>2022-08-05T17:13:17.384Z</time>
      </trkpt>
      <trkpt lat="45.80566" lon="15.1642">
        <ele>182.285977</ele>
        <time>2022-08-05T17:13:22.829Z</time>
      </trkpt>
      <trkpt lat="45.80536" lon="15.16363">
        <ele>182.542721</ele>
        <time>2022-08-05T17:13:36.877Z</time>
      </trkpt>
      <trkpt lat="45.80515" lon="15.16343">
        <ele>182.177363</ele>
        <time>2022-08-05T17:13:43.241Z</time>
      </trkpt>
      <trkpt lat="45.80489" lon="15.16303">
        <ele>180.878327</ele>
        <time>2022-08-05T17:13:52.981Z</time>
      </trkpt>
      <trkpt lat="45.80468" lon="15.16278">
        <ele>179.957218</ele>
        <time>2022-08-05T17:13:59.808Z</time>
      </trkpt>
      <trkpt lat="45.80462" lon="15.16272">
        <ele>179.71277</ele>
        <time>2022-08-05T17:14:01.722Z</time>
      </trkpt>
      <trkpt lat="45.80407" lon="15.1625">
        <ele>177.801778</ele>
        <time>2022-08-05T17:14:16.324Z</time>
      </trkpt>
      <trkpt lat="45.80402" lon="15.16249">
        <ele>177.628864</ele>
        <time>2022-08-05T17:14:17.648Z</time>
      </trkpt>
      <trkpt lat="45.80251" lon="15.16198">
        <ele>177.216892</ele>
        <time>2022-08-05T17:15:06.837Z</time>
      </trkpt>
      <trkpt lat="45.80233" lon="15.16192">
        <ele>177.322053</ele>
        <time>2022-08-05T17:15:16.893Z</time>
      </trkpt>
      <trkpt lat="45.80235" lon="15.16183">
        <ele>177.359205</ele>
        <time>2022-08-05T17:15:20.184Z</time>
      </trkpt>
      <trkpt lat="45.80236" lon="15.16175">
        <ele>177.391685</ele>
        <time>2022-08-05T17:15:23.061Z</time>
      </trkpt>
      <trkpt lat="45.8023" lon="15.16162">
        <ele>177.451163</ele>
        <time>2022-08-05T17:15:29.771Z</time>
      </trkpt>
      <trkpt lat="45.8023" lon="15.16137">
        <ele>177.599465</ele>
        <time>2022-08-05T17:15:40.516Z</time>
      </trkpt>
      <trkpt lat="45.80237" lon="15.16119">
        <ele>178.162859</ele>
        <time>2022-08-05T17:15:49.339Z</time>
      </trkpt>
      <trkpt lat="45.80237" lon="15.16101">
        <ele>178.660532</ele>
        <time>2022-08-05T17:15:57.410Z</time>
      </trkpt>
      <trkpt lat="45.80234" lon="15.15958">
        <ele>182.664384</ele>
        <time>2022-08-05T17:16:46.702Z</time>
      </trkpt>
      <trkpt lat="45.80236" lon="15.15943">
        <ele>183.094573</ele>
        <time>2022-08-05T17:16:51.768Z</time>
      </trkpt>
      <trkpt lat="45.80236" lon="15.15931">
        <ele>183.42721</ele>
        <time>2022-08-05T17:16:57.165Z</time>
      </trkpt>
      <trkpt lat="45.80236" lon="15.15919">
        <ele>183.756981</ele>
        <time>2022-08-05T17:17:02.282Z</time>
      </trkpt>
      <trkpt lat="45.80232" lon="15.15911">
        <ele>184.009891</ele>
        <time>2022-08-05T17:17:05.297Z</time>
      </trkpt>
      <trkpt lat="45.8022" lon="15.15801">
        <ele>185.643691</ele>
        <time>2022-08-05T17:17:40.325Z</time>
      </trkpt>
      <trkpt lat="45.80214" lon="15.15785">
        <ele>185.830191</ele>
        <time>2022-08-05T17:17:45.261Z</time>
      </trkpt>
      <trkpt lat="45.80192" lon="15.1565">
        <ele>187.279573</ele>
        <time>2022-08-05T17:18:16.273Z</time>
      </trkpt>
      <trkpt lat="45.80175" lon="15.1558">
        <ele>186.195637</ele>
        <time>2022-08-05T17:18:27.058Z</time>
      </trkpt>
      <trkpt lat="45.80137" lon="15.15472">
        <ele>183.605293</ele>
        <time>2022-08-05T17:18:43.070Z</time>
      </trkpt>
      <trkpt lat="45.80113" lon="15.15424">
        <ele>182.350639</ele>
        <time>2022-08-05T17:18:50.665Z</time>
      </trkpt>
      <trkpt lat="45.80035" lon="15.15307">
        <ele>179.496647</ele>
        <time>2022-08-05T17:19:13.638Z</time>
      </trkpt>
      <trkpt lat="45.79942" lon="15.15177">
        <ele>177.963807</ele>
        <time>2022-08-05T17:19:44.319Z</time>
      </trkpt>
      <trkpt lat="45.79901" lon="15.15094">
        <ele>178.589806</ele>
        <time>2022-08-05T17:20:08.245Z</time>
      </trkpt>
      <trkpt lat="45.79859" lon="15.14999">
        <ele>179.742178</ele>
        <time>2022-08-05T17:20:37.761Z</time>
      </trkpt>
      <trkpt lat="45.79822" lon="15.1493">
        <ele>181.744085</ele>
        <time>2022-08-05T17:21:04.326Z</time>
      </trkpt>
      <trkpt lat="45.79788" lon="15.14886">
        <ele>183.275545</ele>
        <time>2022-08-05T17:21:26.745Z</time>
      </trkpt>
      <trkpt lat="45.79657" lon="15.1477">
        <ele>186.685151</ele>
        <time>2022-08-05T17:22:33.676Z</time>
      </trkpt>
      <trkpt lat="45.796" lon="15.14704">
        <ele>187.88882</ele>
        <time>2022-08-05T17:22:55.862Z</time>
      </trkpt>
      <trkpt lat="45.79559" lon="15.14636">
        <ele>186.314127</ele>
        <time>2022-08-05T17:23:09.627Z</time>
      </trkpt>
      <trkpt lat="45.79499" lon="15.14505">
        <ele>182.927748</ele>
        <time>2022-08-05T17:23:31.475Z</time>
      </trkpt>
      <trkpt lat="45.79423" lon="15.14363">
        <ele>179.212837</ele>
        <time>2022-08-05T17:23:55.594Z</time>
      </trkpt>
      <trkpt lat="45.79365" lon="15.1424">
        <ele>177.459722</ele>
        <time>2022-08-05T17:24:19.967Z</time>
      </trkpt>
      <trkpt lat="45.79311" lon="15.14105">
        <ele>178.617609</ele>
        <time>2022-08-05T17:24:55.340Z</time>
      </trkpt>
      <trkpt lat="45.79279" lon="15.1399">
        <ele>180.211873</ele>
        <time>2022-08-05T17:25:31.306Z</time>
      </trkpt>
      <trkpt lat="45.79259" lon="15.13898">
        <ele>181.877193</ele>
        <time>2022-08-05T17:25:58.275Z</time>
      </trkpt>
      <trkpt lat="45.79253" lon="15.13845">
        <ele>182.805335</ele>
        <time>2022-08-05T17:26:12.280Z</time>
      </trkpt>
      <trkpt lat="45.79246" lon="15.13598">
        <ele>185.513649</ele>
        <time>2022-08-05T17:27:11.508Z</time>
      </trkpt>
      <trkpt lat="45.79205" lon="15.13402">
        <ele>185.658873</ele>
        <time>2022-08-05T17:27:53.233Z</time>
      </trkpt>
      <trkpt lat="45.79196" lon="15.13324">
        <ele>185.482243</ele>
        <time>2022-08-05T17:28:06.008Z</time>
      </trkpt>
      <trkpt lat="45.79203" lon="15.13241">
        <ele>184.221527</ele>
        <time>2022-08-05T17:28:17.929Z</time>
      </trkpt>
      <trkpt lat="45.79216" lon="15.13182">
        <ele>182.956596</ele>
        <time>2022-08-05T17:28:26.388Z</time>
      </trkpt>
      <trkpt lat="45.79314" lon="15.1275">
        <ele>173.962736</ele>
        <time>2022-08-05T17:29:28.033Z</time>
      </trkpt>
      <trkpt lat="45.79316" lon="15.12718">
        <ele>173.731373</ele>
        <time>2022-08-05T17:29:33.116Z</time>
      </trkpt>
      <trkpt lat="45.79309" lon="15.1265">
        <ele>173.226165</ele>
        <time>2022-08-05T17:29:44.256Z</time>
      </trkpt>
      <trkpt lat="45.79296" lon="15.12589">
        <ele>172.757741</ele>
        <time>2022-08-05T17:29:55.297Z</time>
      </trkpt>
      <trkpt lat="45.79283" lon="15.12539">
        <ele>172.73132</ele>
        <time>2022-08-05T17:30:06.277Z</time>
      </trkpt>
      <trkpt lat="45.79281" lon="15.1253">
        <ele>172.83627</ele>
        <time>2022-08-05T17:30:08.358Z</time>
      </trkpt>
      <trkpt lat="45.7927" lon="15.12483">
        <ele>173.401204</ele>
        <time>2022-08-05T17:30:21.813Z</time>
      </trkpt>
      <trkpt lat="45.79257" lon="15.1236">
        <ele>174.813934</ele>
        <time>2022-08-05T17:30:52.820Z</time>
      </trkpt>
      <trkpt lat="45.79245" lon="15.12277">
        <ele>175.91826</ele>
        <time>2022-08-05T17:31:13.212Z</time>
      </trkpt>
      <trkpt lat="45.79224" lon="15.1221">
        <ele>177.118541</ele>
        <time>2022-08-05T17:31:32.234Z</time>
      </trkpt>
      <trkpt lat="45.7917" lon="15.12115">
        <ele>179.095641</ele>
        <time>2022-08-05T17:32:07.466Z</time>
      </trkpt>
      <trkpt lat="45.79144" lon="15.12059">
        <ele>179.936751</ele>
        <time>2022-08-05T17:32:24.362Z</time>
      </trkpt>
      <trkpt lat="45.7906" lon="15.11853">
        <ele>181.884065</ele>
        <time>2022-08-05T17:33:19.351Z</time>
      </trkpt>
      <trkpt lat="45.78981" lon="15.11696">
        <ele>180.864188</ele>
        <time>2022-08-05T17:33:50.958Z</time>
      </trkpt>
      <trkpt lat="45.78941" lon="15.11651">
        <ele>180.323575</ele>
        <time>2022-08-05T17:34:01.721Z</time>
      </trkpt>
      <trkpt lat="45.78889" lon="15.11615">
        <ele>179.336799</ele>
        <time>2022-08-05T17:34:14.263Z</time>
      </trkpt>
      <trkpt lat="45.78864" lon="15.11591">
        <ele>178.837257</ele>
        <time>2022-08-05T17:34:20.768Z</time>
      </trkpt>
      <trkpt lat="45.78847" lon="15.11561">
        <ele>178.374406</ele>
        <time>2022-08-05T17:34:26.789Z</time>
      </trkpt>
      <trkpt lat="45.7879" lon="15.11391">
        <ele>175.27063</ele>
        <time>2022-08-05T17:34:54.748Z</time>
      </trkpt>
      <trkpt lat="45.78736" lon="15.1123">
        <ele>171.967131</ele>
        <time>2022-08-05T17:35:18.698Z</time>
      </trkpt>
      <trkpt lat="45.78779" lon="15.11203">
        <ele>170.8966</ele>
        <time>2022-08-05T17:35:27.779Z</time>
      </trkpt>
      <trkpt lat="45.78843" lon="15.11174">
        <ele>169.348605</ele>
        <time>2022-08-05T17:35:41.939Z</time>
      </trkpt>
      <trkpt lat="45.78907" lon="15.11147">
        <ele>168.620419</ele>
        <time>2022-08-05T17:35:57.491Z</time>
      </trkpt>
      <trkpt lat="45.78936" lon="15.11112">
        <ele>168.787161</ele>
        <time>2022-08-05T17:36:07.979Z</time>
      </trkpt>
      <trkpt lat="45.78946" lon="15.11102">
        <ele>168.842153</ele>
        <time>2022-08-05T17:36:12.320Z</time>
      </trkpt>
      <trkpt lat="45.78994" lon="15.11082">
        <ele>169.062603</ele>
        <time>2022-08-05T17:36:28.449Z</time>
      </trkpt>
      <trkpt lat="45.79129" lon="15.11044">
        <ele>169.541872</ele>
        <time>2022-08-05T17:37:10.626Z</time>
      </trkpt>
      <trkpt lat="45.7916" lon="15.11028">
        <ele>169.636324</ele>
        <time>2022-08-05T17:37:19.210Z</time>
      </trkpt>
      <trkpt lat="45.79138" lon="15.10923">
        <ele>169.792491</ele>
        <time>2022-08-05T17:37:38.771Z</time>
      </trkpt>
      <trkpt lat="45.79084" lon="15.10803">
        <ele>169.6595</ele>
        <time>2022-08-05T17:38:03.585Z</time>
      </trkpt>
      <trkpt lat="45.79062" lon="15.10738">
        <ele>169.591552</ele>
        <time>2022-08-05T17:38:17.389Z</time>
      </trkpt>
      <trkpt lat="45.79059" lon="15.1071">
        <ele>169.604285</ele>
        <time>2022-08-05T17:38:23.223Z</time>
      </trkpt>
      <trkpt lat="45.79059" lon="15.10414">
        <ele>170.59321</ele>
        <time>2022-08-05T17:39:23.974Z</time>
      </trkpt>
      <trkpt lat="45.79058" lon="15.10399">
        <ele>170.625935</ele>
        <time>2022-08-05T17:39:26.865Z</time>
      </trkpt>
      <trkpt lat="45.79055" lon="15.10367">
        <ele>170.697161</ele>
        <time>2022-08-05T17:39:33.231Z</time>
      </trkpt>
      <trkpt lat="45.79006" lon="15.10183">
        <ele>171.134465</ele>
        <time>2022-08-05T17:40:11.139Z</time>
      </trkpt>
      <trkpt lat="45.78976" lon="15.10099">
        <ele>171.346533</ele>
        <time>2022-08-05T17:40:29.608Z</time>
      </trkpt>
      <trkpt lat="45.78943" lon="15.09955">
        <ele>171.662307</ele>
        <time>2022-08-05T17:40:59.850Z</time>
      </trkpt>
      <trkpt lat="45.78927" lon="15.0983">
        <ele>171.810809</ele>
        <time>2022-08-05T17:41:24.763Z</time>
      </trkpt>
      <trkpt lat="45.78894" lon="15.09723">
        <ele>171.916963</ele>
        <time>2022-08-05T17:41:46.552Z</time>
      </trkpt>
      <trkpt lat="45.78884" lon="15.09693">
        <ele>171.816248</ele>
        <time>2022-08-05T17:41:52.700Z</time>
      </trkpt>
      <trkpt lat="45.78879" lon="15.09652">
        <ele>171.693819</ele>
        <time>2022-08-05T17:41:59.914Z</time>
      </trkpt>
      <trkpt lat="45.7887" lon="15.09517">
        <ele>171.285462</ele>
        <time>2022-08-05T17:42:23.212Z</time>
      </trkpt>
      <trkpt lat="45.78883" lon="15.09401">
        <ele>170.774416</ele>
        <time>2022-08-05T17:42:43.183Z</time>
      </trkpt>
      <trkpt lat="45.78885" lon="15.09301">
        <ele>170.267531</ele>
        <time>2022-08-05T17:42:59.617Z</time>
      </trkpt>
      <trkpt lat="45.78893" lon="15.092">
        <ele>169.790285</ele>
        <time>2022-08-05T17:43:16.205Z</time>
      </trkpt>
      <trkpt lat="45.78867" lon="15.09063">
        <ele>169.297301</ele>
        <time>2022-08-05T17:43:40.296Z</time>
      </trkpt>
      <trkpt lat="45.78853" lon="15.08991">
        <ele>169.034861</ele>
        <time>2022-08-05T17:43:53.645Z</time>
      </trkpt>
      <trkpt lat="45.78835" lon="15.08912">
        <ele>169.044185</ele>
        <time>2022-08-05T17:44:08.810Z</time>
      </trkpt>
      <trkpt lat="45.7883" lon="15.08863">
        <ele>169.105644</ele>
        <time>2022-08-05T17:44:18.166Z</time>
      </trkpt>
      <trkpt lat="45.78832" lon="15.08815">
        <ele>169.164922</ele>
        <time>2022-08-05T17:44:27.417Z</time>
      </trkpt>
      <trkpt lat="45.78826" lon="15.08713">
        <ele>169.315373</ele>
        <time>2022-08-05T17:44:47.817Z</time>
      </trkpt>
      <trkpt lat="45.788" lon="15.08563">
        <ele>170.207669</ele>
        <time>2022-08-05T17:45:20.215Z</time>
      </trkpt>
      <trkpt lat="45.788" lon="15.08561">
        <ele>170.22385</ele>
        <time>2022-08-05T17:45:20.912Z</time>
      </trkpt>
      <trkpt lat="45.78798" lon="15.08406">
        <ele>171.20159</ele>
        <time>2022-08-05T17:45:55.102Z</time>
      </trkpt>
      <trkpt lat="45.788" lon="15.08209">
        <ele>172.604714</ele>
        <time>2022-08-05T17:46:39.232Z</time>
      </trkpt>
      <trkpt lat="45.78806" lon="15.08133">
        <ele>172.655283</ele>
        <time>2022-08-05T17:46:55.543Z</time>
      </trkpt>
      <trkpt lat="45.78821" lon="15.08061">
        <ele>172.687587</ele>
        <time>2022-08-05T17:47:10.139Z</time>
      </trkpt>
      <trkpt lat="45.78841" lon="15.07908">
        <ele>172.476531</ele>
        <time>2022-08-05T17:47:35.971Z</time>
      </trkpt>
      <trkpt lat="45.78814" lon="15.07819">
        <ele>171.935951</ele>
        <time>2022-08-05T17:47:52.290Z</time>
      </trkpt>
      <trkpt lat="45.78793" lon="15.07797">
        <ele>171.726336</ele>
        <time>2022-08-05T17:47:58.614Z</time>
      </trkpt>
      <trkpt lat="45.78771" lon="15.07797">
        <ele>171.554383</ele>
        <time>2022-08-05T17:48:03.549Z</time>
      </trkpt>
      <trkpt lat="45.78719" lon="15.0781">
        <ele>171.175837</ele>
        <time>2022-08-05T17:48:15.716Z</time>
      </trkpt>
      <trkpt lat="45.78693" lon="15.07809">
        <ele>171.014972</ele>
        <time>2022-08-05T17:48:21.795Z</time>
      </trkpt>
      <trkpt lat="45.78667" lon="15.07793">
        <ele>170.839153</ele>
        <time>2022-08-05T17:48:28.653Z</time>
      </trkpt>
      <trkpt lat="45.78665" lon="15.0779">
        <ele>170.824367</ele>
        <time>2022-08-05T17:48:29.290Z</time>
      </trkpt>
      <trkpt lat="45.78565" lon="15.07674">
        <ele>170.276976</ele>
        <time>2022-08-05T17:49:01.283Z</time>
      </trkpt>
      <trkpt lat="45.78556" lon="15.07664">
        <ele>170.308141</ele>
        <time>2022-08-05T17:49:04.151Z</time>
      </trkpt>
      <trkpt lat="45.78514" lon="15.07613">
        <ele>170.461642</ele>
        <time>2022-08-05T17:49:18.291Z</time>
      </trkpt>
      <trkpt lat="45.78445" lon="15.07569">
        <ele>170.670221</ele>
        <time>2022-08-05T17:49:40.330Z</time>
      </trkpt>
      <trkpt lat="45.78359" lon="15.07474">
        <ele>172.315523</ele>
        <time>2022-08-05T17:50:18.648Z</time>
      </trkpt>
      <trkpt lat="45.78338" lon="15.07433">
        <ele>172.887764</ele>
        <time>2022-08-05T17:50:31.092Z</time>
      </trkpt>
      <trkpt lat="45.78329" lon="15.07418">
        <ele>173.117776</ele>
        <time>2022-08-05T17:50:36.166Z</time>
      </trkpt>
      <trkpt lat="45.78306" lon="15.0738">
        <ele>173.675453</ele>
        <time>2022-08-05T17:50:48.577Z</time>
      </trkpt>
      <trkpt lat="45.78276" lon="15.07322">
        <ele>173.94744</ele>
        <time>2022-08-05T17:51:05.870Z</time>
      </trkpt>
      <trkpt lat="45.78236" lon="15.07235">
        <ele>174.341544</ele>
        <time>2022-08-05T17:51:28.044Z</time>
      </trkpt>
      <trkpt lat="45.7821" lon="15.07133">
        <ele>174.392059</ele>
        <time>2022-08-05T17:51:46.273Z</time>
      </trkpt>
      <trkpt lat="45.78176" lon="15.0698">
        <ele>173.075982</ele>
        <time>2022-08-05T17:52:11.163Z</time>
      </trkpt>
      <trkpt lat="45.78169" lon="15.0695">
        <ele>172.821195</ele>
        <time>2022-08-05T17:52:15.914Z</time>
      </trkpt>
      <trkpt lat="45.78128" lon="15.06786">
        <ele>172.006441</ele>
        <time>2022-08-05T17:52:44.116Z</time>
      </trkpt>
      <trkpt lat="45.78067" lon="15.06603">
        <ele>171.499838</ele>
        <time>2022-08-05T17:53:22.223Z</time>
      </trkpt>
      <trkpt lat="45.7801" lon="15.06457">
        <ele>171.383336</ele>
        <time>2022-08-05T17:53:53.616Z</time>
      </trkpt>
      <trkpt lat="45.77928" lon="15.06283">
        <ele>170.789658</ele>
        <time>2022-08-05T17:54:27.763Z</time>
      </trkpt>
      <trkpt lat="45.77874" lon="15.06147">
        <ele>171.647342</ele>
        <time>2022-08-05T17:55:00.105Z</time>
      </trkpt>
      <trkpt lat="45.7782" lon="15.05999">
        <ele>173.445102</ele>
        <time>2022-08-05T17:55:41.694Z</time>
      </trkpt>
      <trkpt lat="45.77772" lon="15.05905">
        <ele>176.07008</ele>
        <time>2022-08-05T17:56:15.783Z</time>
      </trkpt>
      <trkpt lat="45.77742" lon="15.05866">
        <ele>177.364131</ele>
        <time>2022-08-05T17:56:33.245Z</time>
      </trkpt>
      <trkpt lat="45.77684" lon="15.05809">
        <ele>179.645566</ele>
        <time>2022-08-05T17:57:05.178Z</time>
      </trkpt>
      <trkpt lat="45.77613" lon="15.05764">
        <ele>182.058764</ele>
        <time>2022-08-05T17:57:38.578Z</time>
      </trkpt>
      <trkpt lat="45.7759" lon="15.05748">
        <ele>182.872982</ele>
        <time>2022-08-05T17:57:49.782Z</time>
      </trkpt>
      <trkpt lat="45.77503" lon="15.0566">
        <ele>184.959707</ele>
        <time>2022-08-05T17:58:30.780Z</time>
      </trkpt>
      <trkpt lat="45.77435" lon="15.05581">
        <ele>185.476039</ele>
        <time>2022-08-05T17:58:55.448Z</time>
      </trkpt>
      <trkpt lat="45.77401" lon="15.05526">
        <ele>185.608942</ele>
        <time>2022-08-05T17:59:07.481Z</time>
      </trkpt>
      <trkpt lat="45.77361" lon="15.05439">
        <ele>184.593502</ele>
        <time>2022-08-05T17:59:23.592Z</time>
      </trkpt>
      <trkpt lat="45.77239" lon="15.05225">
        <ele>182.151738</ele>
        <time>2022-08-05T18:00:05.790Z</time>
      </trkpt>
      <trkpt lat="45.77205" lon="15.05147">
        <ele>181.431698</ele>
        <time>2022-08-05T18:00:20.874Z</time>
      </trkpt>
      <trkpt lat="45.772" lon="15.05131">
        <ele>181.299833</ele>
        <time>2022-08-05T18:00:24.053Z</time>
      </trkpt>
      <trkpt lat="45.77169" lon="15.05055">
        <ele>181.008097</ele>
        <time>2022-08-05T18:00:39.485Z</time>
      </trkpt>
      <trkpt lat="45.77096" lon="15.04953">
        <ele>180.660051</ele>
        <time>2022-08-05T18:01:06.225Z</time>
      </trkpt>
      <trkpt lat="45.77073" lon="15.049">
        <ele>180.426966</ele>
        <time>2022-08-05T18:01:16.963Z</time>
      </trkpt>
      <trkpt lat="45.77064" lon="15.04804">
        <ele>179.877516</ele>
        <time>2022-08-05T18:01:32.250Z</time>
      </trkpt>
      <trkpt lat="45.77063" lon="15.04671">
        <ele>179.12435</ele>
        <time>2022-08-05T18:01:53.498Z</time>
      </trkpt>
      <trkpt lat="45.7705" lon="15.04571">
        <ele>179.559722</ele>
        <time>2022-08-05T18:02:13.110Z</time>
      </trkpt>
      <trkpt lat="45.77035" lon="15.0449">
        <ele>179.948914</ele>
        <time>2022-08-05T18:02:31.253Z</time>
      </trkpt>
      <trkpt lat="45.77043" lon="15.04383">
        <ele>180.589417</ele>
        <time>2022-08-05T18:02:56.235Z</time>
      </trkpt>
      <trkpt lat="45.77045" lon="15.04356">
        <ele>180.830935</ele>
        <time>2022-08-05T18:03:03.036Z</time>
      </trkpt>
      <trkpt lat="45.77036" lon="15.04303">
        <ele>181.314202</ele>
        <time>2022-08-05T18:03:16.780Z</time>
      </trkpt>
      <trkpt lat="45.77025" lon="15.04223">
        <ele>182.040225</ele>
        <time>2022-08-05T18:03:36.341Z</time>
      </trkpt>
      <trkpt lat="45.77024" lon="15.04176">
        <ele>182.459296</ele>
        <time>2022-08-05T18:03:46.113Z</time>
      </trkpt>
      <trkpt lat="45.77043" lon="15.0403">
        <ele>182.425377</ele>
        <time>2022-08-05T18:04:13.304Z</time>
      </trkpt>
      <trkpt lat="45.77055" lon="15.03974">
        <ele>182.350409</ele>
        <time>2022-08-05T18:04:23.612Z</time>
      </trkpt>
      <trkpt lat="45.77123" lon="15.03762">
        <ele>181.795697</ele>
        <time>2022-08-05T18:05:03.016Z</time>
      </trkpt>
      <trkpt lat="45.77157" lon="15.03633">
        <ele>181.631308</ele>
        <time>2022-08-05T18:05:28.610Z</time>
      </trkpt>
      <trkpt lat="45.77172" lon="15.03595">
        <ele>181.715915</ele>
        <time>2022-08-05T18:05:37.298Z</time>
      </trkpt>
      <trkpt lat="45.77202" lon="15.03554">
        <ele>181.831386</ele>
        <time>2022-08-05T18:05:49.208Z</time>
      </trkpt>
      <trkpt lat="45.77251" lon="15.03501">
        <ele>182.000625</ele>
        <time>2022-08-05T18:06:07.217Z</time>
      </trkpt>
      <trkpt lat="45.77371" lon="15.03385">
        <ele>182.218613</ele>
        <time>2022-08-05T18:06:46.853Z</time>
      </trkpt>
      <trkpt lat="45.77385" lon="15.03369">
        <ele>182.243331</ele>
        <time>2022-08-05T18:06:51.470Z</time>
      </trkpt>
      <trkpt lat="45.77408" lon="15.03325">
        <ele>182.260961</ele>
        <time>2022-08-05T18:07:01.593Z</time>
      </trkpt>
      <trkpt lat="45.77451" lon="15.03237">
        <ele>182.019543</ele>
        <time>2022-08-05T18:07:22.404Z</time>
      </trkpt>
      <trkpt lat="45.77572" lon="15.03065">
        <ele>180.483198</ele>
        <time>2022-08-05T18:08:03.212Z</time>
      </trkpt>
      <trkpt lat="45.77589" lon="15.03037">
        <ele>180.064883</ele>
        <time>2022-08-05T18:08:08.534Z</time>
      </trkpt>
      <trkpt lat="45.77636" lon="15.0293">
        <ele>178.583402</ele>
        <time>2022-08-05T18:08:26.746Z</time>
      </trkpt>
      <trkpt lat="45.77666" lon="15.02865">
        <ele>177.593752</ele>
        <time>2022-08-05T18:08:37.570Z</time>
      </trkpt>
      <trkpt lat="45.77702" lon="15.02806">
        <ele>176.597953</ele>
        <time>2022-08-05T18:08:49.178Z</time>
      </trkpt>
      <trkpt lat="45.7778" lon="15.02691">
        <ele>175.468413</ele>
        <time>2022-08-05T18:09:15.462Z</time>
      </trkpt>
      <trkpt lat="45.77807" lon="15.02639">
        <ele>175.491448</ele>
        <time>2022-08-05T18:09:27.221Z</time>
      </trkpt>
      <trkpt lat="45.77822" lon="15.02583">
        <ele>175.513317</ele>
        <time>2022-08-05T18:09:39.227Z</time>
      </trkpt>
      <trkpt lat="45.77874" lon="15.02329">
        <ele>176.560214</ele>
        <time>2022-08-05T18:10:36.873Z</time>
      </trkpt>
      <trkpt lat="45.77943" lon="15.02116">
        <ele>176.741738</ele>
        <time>2022-08-05T18:11:22.126Z</time>
      </trkpt>
      <trkpt lat="45.77948" lon="15.02078">
        <ele>176.718327</ele>
        <time>2022-08-05T18:11:28.568Z</time>
      </trkpt>
      <trkpt lat="45.77937" lon="15.01997">
        <ele>176.506723</ele>
        <time>2022-08-05T18:11:42.302Z</time>
      </trkpt>
      <trkpt lat="45.77937" lon="15.01978">
        <ele>176.421142</ele>
        <time>2022-08-05T18:11:45.369Z</time>
      </trkpt>
      <trkpt lat="45.77945" lon="15.01941">
        <ele>176.248262</ele>
        <time>2022-08-05T18:11:51.571Z</time>
      </trkpt>
      <trkpt lat="45.77954" lon="15.01919">
        <ele>176.134432</ele>
        <time>2022-08-05T18:11:55.614Z</time>
      </trkpt>
      <trkpt lat="45.77986" lon="15.01863">
        <ele>175.807906</ele>
        <time>2022-08-05T18:12:07.241Z</time>
      </trkpt>
      <trkpt lat="45.78059" lon="15.01758">
        <ele>176.038745</ele>
        <time>2022-08-05T18:12:35.492Z</time>
      </trkpt>
      <trkpt lat="45.7808" lon="15.01696">
        <ele>176.442156</ele>
        <time>2022-08-05T18:12:50.663Z</time>
      </trkpt>
      <trkpt lat="45.78115" lon="15.01533">
        <ele>177.974115</ele>
        <time>2022-08-05T18:13:30.425Z</time>
      </trkpt>
      <trkpt lat="45.78135" lon="15.01469">
        <ele>178.938388</ele>
        <time>2022-08-05T18:13:48.069Z</time>
      </trkpt>
      <trkpt lat="45.78166" lon="15.01397">
        <ele>180.074068</ele>
        <time>2022-08-05T18:14:09.423Z</time>
      </trkpt>
      <trkpt lat="45.78177" lon="15.01351">
        <ele>180.80782</ele>
        <time>2022-08-05T18:14:22.906Z</time>
      </trkpt>
      <trkpt lat="45.78188" lon="15.01273">
        <ele>182.24795</ele>
        <time>2022-08-05T18:14:45.397Z</time>
      </trkpt>
      <trkpt lat="45.78196" lon="15.01123">
        <ele>184.965857</ele>
        <time>2022-08-05T18:15:26.718Z</time>
      </trkpt>
      <trkpt lat="45.78189" lon="15.00911">
        <ele>187.416503</ele>
        <time>2022-08-05T18:16:21.456Z</time>
      </trkpt>
      <trkpt lat="45.78179" lon="15.00851">
        <ele>188.073069</ele>
        <time>2022-08-05T18:16:33.791Z</time>
      </trkpt>
      <trkpt lat="45.78146" lon="15.00728">
        <ele>187.629636</ele>
        <time>2022-08-05T18:16:55.808Z</time>
      </trkpt>
      <trkpt lat="45.78136" lon="15.00658">
        <ele>187.390003</ele>
        <time>2022-08-05T18:17:07.162Z</time>
      </trkpt>
      <trkpt lat="45.78137" lon="15.00615">
        <ele>187.244181</ele>
        <time>2022-08-05T18:17:14.119Z</time>
      </trkpt>
      <trkpt lat="45.7816" lon="15.0044">
        <ele>188.591743</ele>
        <time>2022-08-05T18:17:49.664Z</time>
      </trkpt>
      <trkpt lat="45.78175" lon="15.00372">
        <ele>189.178387</ele>
        <time>2022-08-05T18:18:10.114Z</time>
      </trkpt>
      <trkpt lat="45.7826" lon="15.00199">
        <ele>192.890962</ele>
        <time>2022-08-05T18:19:10.672Z</time>
      </trkpt>
      <trkpt lat="45.7832" lon="15.00068">
        <ele>194.537635</ele>
        <time>2022-08-05T18:19:49.711Z</time>
      </trkpt>
      <trkpt lat="45.78396" lon="14.99999">
        <ele>195.185154</ele>
        <time>2022-08-05T18:20:15.160Z</time>
      </trkpt>
      <trkpt lat="45.7845" lon="14.99932">
        <ele>195.296672</ele>
        <time>2022-08-05T18:20:32.112Z</time>
      </trkpt>
      <trkpt lat="45.78476" lon="14.99881">
        <ele>195.224798</ele>
        <time>2022-08-05T18:20:43.086Z</time>
      </trkpt>
      <trkpt lat="45.78515" lon="14.99779">
        <ele>195.094482</ele>
        <time>2022-08-05T18:21:03.526Z</time>
      </trkpt>
      <trkpt lat="45.78645" lon="14.9946">
        <ele>199.048696</ele>
        <time>2022-08-05T18:22:30.633Z</time>
      </trkpt>
      <trkpt lat="45.78663" lon="14.99409">
        <ele>199.969303</ele>
        <time>2022-08-05T18:22:45.625Z</time>
      </trkpt>
      <trkpt lat="45.78704" lon="14.99256">
        <ele>203.585413</ele>
        <time>2022-08-05T18:23:32.456Z</time>
      </trkpt>
      <trkpt lat="45.78712" lon="14.99234">
        <ele>204.394882</ele>
        <time>2022-08-05T18:23:40.488Z</time>
      </trkpt>
      <trkpt lat="45.78736" lon="14.99195">
        <ele>206.041665</ele>
        <time>2022-08-05T18:23:58.491Z</time>
      </trkpt>
      <trkpt lat="45.78765" lon="14.99167">
        <ele>207.67908</ele>
        <time>2022-08-05T18:24:17.685Z</time>
      </trkpt>
      <trkpt lat="45.78846" lon="14.99111">
        <ele>211.590908</ele>
        <time>2022-08-05T18:25:05.396Z</time>
      </trkpt>
      <trkpt lat="45.78897" lon="14.99066">
        <ele>214.039797</ele>
        <time>2022-08-05T18:25:35.988Z</time>
      </trkpt>
      <trkpt lat="45.79029" lon="14.9892">
        <ele>218.112769</ele>
        <time>2022-08-05T18:26:40.935Z</time>
      </trkpt>
      <trkpt lat="45.79197" lon="14.9884">
        <ele>217.050851</ele>
        <time>2022-08-05T18:27:24.056Z</time>
      </trkpt>
      <trkpt lat="45.7924" lon="14.98811">
        <ele>215.97808</ele>
        <time>2022-08-05T18:27:33.631Z</time>
      </trkpt>
      <trkpt lat="45.79419" lon="14.98665">
        <ele>207.745136</ele>
        <time>2022-08-05T18:28:11.438Z</time>
      </trkpt>
      <trkpt lat="45.79441" lon="14.98641">
        <ele>206.614141</ele>
        <time>2022-08-05T18:28:16.486Z</time>
      </trkpt>
      <trkpt lat="45.7947" lon="14.9859">
        <ele>205.242918</ele>
        <time>2022-08-05T18:28:25.152Z</time>
      </trkpt>
      <trkpt lat="45.79527" lon="14.98415">
        <ele>201.445447</ele>
        <time>2022-08-05T18:28:52.447Z</time>
      </trkpt>
      <trkpt lat="45.79568" lon="14.98346">
        <ele>201.011258</ele>
        <time>2022-08-05T18:29:07.084Z</time>
      </trkpt>
      <trkpt lat="45.79608" lon="14.98316">
        <ele>200.701083</ele>
        <time>2022-08-05T18:29:18.390Z</time>
      </trkpt>
      <trkpt lat="45.7968" lon="14.98278">
        <ele>200.325278</ele>
        <time>2022-08-05T18:29:39.187Z</time>
      </trkpt>
      <trkpt lat="45.79726" lon="14.98225">
        <ele>200.588386</ele>
        <time>2022-08-05T18:29:55.824Z</time>
      </trkpt>
      <trkpt lat="45.7979" lon="14.98093">
        <ele>201.11597</ele>
        <time>2022-08-05T18:30:28.347Z</time>
      </trkpt>
      <trkpt lat="45.79875" lon="14.9797">
        <ele>202.341295</ele>
        <time>2022-08-05T18:31:06.239Z</time>
      </trkpt>
      <trkpt lat="45.79949" lon="14.97809">
        <ele>203.522364</ele>
        <time>2022-08-05T18:31:50.336Z</time>
      </trkpt>
      <trkpt lat="45.80004" lon="14.97735">
        <ele>204.109102</ele>
        <time>2022-08-05T18:32:12.982Z</time>
      </trkpt>
      <trkpt lat="45.80021" lon="14.97718">
        <ele>204.266844</ele>
        <time>2022-08-05T18:32:18.531Z</time>
      </trkpt>
      <trkpt lat="45.80134" lon="14.97619">
        <ele>204.155304</ele>
        <time>2022-08-05T18:32:53.291Z</time>
      </trkpt>
      <trkpt lat="45.80348" lon="14.97386">
        <ele>203.020796</ele>
        <time>2022-08-05T18:34:00.741Z</time>
      </trkpt>
      <trkpt lat="45.8047" lon="14.97202">
        <ele>201.152166</ele>
        <time>2022-08-05T18:34:41.243Z</time>
      </trkpt>
      <trkpt lat="45.80569" lon="14.97096">
        <ele>199.36023</ele>
        <time>2022-08-05T18:35:08.177Z</time>
      </trkpt>
      <trkpt lat="45.80601" lon="14.97039">
        <ele>198.561476</ele>
        <time>2022-08-05T18:35:19.274Z</time>
      </trkpt>
      <trkpt lat="45.80611" lon="14.97022">
        <ele>198.30765</ele>
        <time>2022-08-05T18:35:22.810Z</time>
      </trkpt>
      <trkpt lat="45.80642" lon="14.96981">
        <ele>197.617771</ele>
        <time>2022-08-05T18:35:32.261Z</time>
      </trkpt>
      <trkpt lat="45.80662" lon="14.96958">
        <ele>197.202862</ele>
        <time>2022-08-05T18:35:37.745Z</time>
      </trkpt>
      <trkpt lat="45.8068" lon="14.96946">
        <ele>196.876978</ele>
        <time>2022-08-05T18:35:42.240Z</time>
      </trkpt>
      <trkpt lat="45.80727" lon="14.96927">
        <ele>196.065694</ele>
        <time>2022-08-05T18:35:52.730Z</time>
      </trkpt>
      <trkpt lat="45.80741" lon="14.96922">
        <ele>195.712875</ele>
        <time>2022-08-05T18:35:55.820Z</time>
      </trkpt>
      <trkpt lat="45.80765" lon="14.96899">
        <ele>194.969506</ele>
        <time>2022-08-05T18:36:01.734Z</time>
      </trkpt>
      <trkpt lat="45.80791" lon="14.96849">
        <ele>193.886442</ele>
        <time>2022-08-05T18:36:10.423Z</time>
      </trkpt>
      <trkpt lat="45.80838" lon="14.96792">
        <ele>192.339016</ele>
        <time>2022-08-05T18:36:22.634Z</time>
      </trkpt>
      <trkpt lat="45.80831" lon="14.96772">
        <ele>191.938199</ele>
        <time>2022-08-05T18:36:25.839Z</time>
      </trkpt>
      <trkpt lat="45.8083" lon="14.96742">
        <ele>191.573597</ele>
        <time>2022-08-05T18:36:29.783Z</time>
      </trkpt>
      <trkpt lat="45.80846" lon="14.96587">
        <ele>191.419268</ele>
        <time>2022-08-05T18:36:54.673Z</time>
      </trkpt>
      <trkpt lat="45.80843" lon="14.96561">
        <ele>191.393606</ele>
        <time>2022-08-05T18:36:59.731Z</time>
      </trkpt>
      <trkpt lat="45.80833" lon="14.96527">
        <ele>191.357179</ele>
        <time>2022-08-05T18:37:10.156Z</time>
      </trkpt>
      <trkpt lat="45.80838" lon="14.96522">
        <ele>191.348349</ele>
        <time>2022-08-05T18:37:14.517Z</time>
      </trkpt>
      <trkpt lat="45.80838" lon="14.9652">
        <ele>191.346494</ele>
        <time>2022-08-05T18:37:15.456Z</time>
      </trkpt>
      <trkpt lat="45.80838" lon="14.96522">
        <ele>191.344639</ele>
        <time>2022-08-05T18:37:16.392Z</time>
      </trkpt>
      <trkpt lat="45.80833" lon="14.96527">
        <ele>191.335809</ele>
        <time>2022-08-05T18:37:20.755Z</time>
      </trkpt>
      <trkpt lat="45.80818" lon="14.96476">
        <ele>192.49419</ele>
        <time>2022-08-05T18:37:37.425Z</time>
      </trkpt>
      <trkpt lat="45.8081" lon="14.96468">
        <ele>192.826066</ele>
        <time>2022-08-05T18:37:42.373Z</time>
      </trkpt>
      <trkpt lat="45.80791" lon="14.96461">
        <ele>193.493259</ele>
        <time>2022-08-05T18:37:49.273Z</time>
      </trkpt>
      <trkpt lat="45.80779" lon="14.96469">
        <ele>193.958902</ele>
        <time>2022-08-05T18:37:56.787Z</time>
      </trkpt>
      <trkpt lat="45.80768" lon="14.96489">
        <ele>194.576128</ele>
        <time>2022-08-05T18:38:03.659Z</time>
      </trkpt>
      <trkpt lat="45.80719" lon="14.9661">
        <ele>197.727237</ele>
        <time>2022-08-05T18:38:49.044Z</time>
      </trkpt>
      <trkpt lat="45.80715" lon="14.96613">
        <ele>197.822261</ele>
        <time>2022-08-05T18:38:50.929Z</time>
      </trkpt>
      <trkpt lat="45.80707" lon="14.96607">
        <ele>197.988241</ele>
        <time>2022-08-05T18:38:54.062Z</time>
      </trkpt>
      <trkpt lat="45.80707" lon="14.96588">
        <ele>198.243509</ele>
        <time>2022-08-05T18:39:01.222Z</time>
      </trkpt>
      <trkpt lat="45.8073" lon="14.96535">
        <ele>199.049102</ele>
        <time>2022-08-05T18:39:14.012Z</time>
      </trkpt>
      <trkpt lat="45.8075" lon="14.96465">
        <ele>200.036032</ele>
        <time>2022-08-05T18:39:31.718Z</time>
      </trkpt>
      <trkpt lat="45.80776" lon="14.96416">
        <ele>200.844364</ele>
        <time>2022-08-05T18:39:45.781Z</time>
      </trkpt>
      <trkpt lat="45.80777" lon="14.964">
        <ele>201.028239</ele>
        <time>2022-08-05T18:39:49.276Z</time>
      </trkpt>
      <trkpt lat="45.80757" lon="14.96349">
        <ele>201.677061</ele>
        <time>2022-08-05T18:40:02.967Z</time>
      </trkpt>
      <trkpt lat="45.80755" lon="14.96296">
        <ele>202.26838</ele>
        <time>2022-08-05T18:40:16.040Z</time>
      </trkpt>
      <trkpt lat="45.8076" lon="14.96276">
        <ele>202.498087</ele>
        <time>2022-08-05T18:40:21.770Z</time>
      </trkpt>
      <trkpt lat="45.80772" lon="14.9626">
        <ele>202.766342</ele>
        <time>2022-08-05T18:40:27.834Z</time>
      </trkpt>
      <trkpt lat="45.80828" lon="14.96213">
        <ele>203.75638</ele>
        <time>2022-08-05T18:40:50.000Z</time>
      </trkpt>
      <trkpt lat="45.80847" lon="14.96186">
        <ele>203.814722</ele>
        <time>2022-08-05T18:40:58.442Z</time>
      </trkpt>
      <trkpt lat="45.80855" lon="14.96157">
        <ele>203.862707</ele>
        <time>2022-08-05T18:41:05.081Z</time>
      </trkpt>
      <trkpt lat="45.80878" lon="14.96136">
        <ele>203.923132</ele>
        <time>2022-08-05T18:41:13.245Z</time>
      </trkpt>
      <trkpt lat="45.80884" lon="14.96133">
        <ele>203.936047</ele>
        <time>2022-08-05T18:41:14.614Z</time>
      </trkpt>
      <trkpt lat="45.80908" lon="14.96091">
        <ele>204.02016</ele>
        <time>2022-08-05T18:41:24.814Z</time>
      </trkpt>
      <trkpt lat="45.80943" lon="14.96054">
        <ele>204.114514</ele>
        <time>2022-08-05T18:41:36.196Z</time>
      </trkpt>
      <trkpt lat="45.80952" lon="14.9603">
        <ele>204.076695</ele>
        <time>2022-08-05T18:41:41.679Z</time>
      </trkpt>
      <trkpt lat="45.81014" lon="14.95966">
        <ele>203.173744</ele>
        <time>2022-08-05T18:41:59.361Z</time>
      </trkpt>
      <trkpt lat="45.81038" lon="14.95916">
        <ele>202.677216</ele>
        <time>2022-08-05T18:42:08.964Z</time>
      </trkpt>
      <trkpt lat="45.81045" lon="14.95889">
        <ele>202.439074</ele>
        <time>2022-08-05T18:42:14.072Z</time>
      </trkpt>
      <trkpt lat="45.81057" lon="14.95872">
        <ele>202.244567</ele>
        <time>2022-08-05T18:42:17.808Z</time>
      </trkpt>
      <trkpt lat="45.81091" lon="14.95844">
        <ele>201.877511</ele>
        <time>2022-08-05T18:42:27.274Z</time>
      </trkpt>
      <trkpt lat="45.81178" lon="14.95797">
        <ele>201.222773</ele>
        <time>2022-08-05T18:42:50.224Z</time>
      </trkpt>
      <trkpt lat="45.81205" lon="14.95757">
        <ele>200.952881</ele>
        <time>2022-08-05T18:43:00.048Z</time>
      </trkpt>
      <trkpt lat="45.81224" lon="14.95695">
        <ele>200.889591</ele>
        <time>2022-08-05T18:43:12.980Z</time>
      </trkpt>
      <trkpt lat="45.81234" lon="14.95684">
        <ele>200.965711</ele>
        <time>2022-08-05T18:43:16.376Z</time>
      </trkpt>
      <trkpt lat="45.81306" lon="14.95663">
        <ele>201.426945</ele>
        <time>2022-08-05T18:43:37.099Z</time>
      </trkpt>
      <trkpt lat="45.81348" lon="14.95658">
        <ele>201.686728</ele>
        <time>2022-08-05T18:43:50.987Z</time>
      </trkpt>
      <trkpt lat="45.81369" lon="14.95648">
        <ele>201.824757</ele>
        <time>2022-08-05T18:43:59.075Z</time>
      </trkpt>
      <trkpt lat="45.81416" lon="14.95605">
        <ele>202.986659</ele>
        <time>2022-08-05T18:44:19.604Z</time>
      </trkpt>
      <trkpt lat="45.81452" lon="14.95576">
        <ele>203.990563</ele>
        <time>2022-08-05T18:44:35.380Z</time>
      </trkpt>
      <trkpt lat="45.81471" lon="14.95524">
        <ele>204.966625</ele>
        <time>2022-08-05T18:44:51.806Z</time>
      </trkpt>
      <trkpt lat="45.81552" lon="14.95523">
        <ele>206.847513</ele>
        <time>2022-08-05T18:45:26.527Z</time>
      </trkpt>
      <trkpt lat="45.81578" lon="14.95515">
        <ele>207.428238</ele>
        <time>2022-08-05T18:45:37.978Z</time>
      </trkpt>
      <trkpt lat="45.81611" lon="14.95493">
        <ele>208.229371</ele>
        <time>2022-08-05T18:45:52.885Z</time>
      </trkpt>
      <trkpt lat="45.81624" lon="14.95486">
        <ele>208.523601</ele>
        <time>2022-08-05T18:45:57.739Z</time>
      </trkpt>
      <trkpt lat="45.81664" lon="14.95401">
        <ele>210.088899</ele>
        <time>2022-08-05T18:46:22.028Z</time>
      </trkpt>
      <trkpt lat="45.81682" lon="14.95381">
        <ele>210.439687</ele>
        <time>2022-08-05T18:46:29.585Z</time>
      </trkpt>
      <trkpt lat="45.81729" lon="14.95297">
        <ele>211.571992</ele>
        <time>2022-08-05T18:46:55.849Z</time>
      </trkpt>
      <trkpt lat="45.81738" lon="14.95284">
        <ele>211.765041</ele>
        <time>2022-08-05T18:47:00.514Z</time>
      </trkpt>
      <trkpt lat="45.81751" lon="14.95265">
        <ele>212.042166</ele>
        <time>2022-08-05T18:47:06.729Z</time>
      </trkpt>
      <trkpt lat="45.81755" lon="14.95259">
        <ele>212.12476</ele>
        <time>2022-08-05T18:47:08.584Z</time>
      </trkpt>
      <trkpt lat="45.81861" lon="14.95175">
        <ele>214.271986</ele>
        <time>2022-08-05T18:47:52.357Z</time>
      </trkpt>
      <trkpt lat="45.81916" lon="14.95153">
        <ele>215.371458</ele>
        <time>2022-08-05T18:48:14.797Z</time>
      </trkpt>
      <trkpt lat="45.81949" lon="14.95133">
        <ele>216.062728</ele>
        <time>2022-08-05T18:48:28.553Z</time>
      </trkpt>
      <trkpt lat="45.81981" lon="14.9513">
        <ele>216.428497</ele>
        <time>2022-08-05T18:48:40.311Z</time>
      </trkpt>
      <trkpt lat="45.82005" lon="14.95129">
        <ele>216.580241</ele>
        <time>2022-08-05T18:48:48.614Z</time>
      </trkpt>
      <trkpt lat="45.82023" lon="14.95124">
        <ele>216.6967</ele>
        <time>2022-08-05T18:48:54.667Z</time>
      </trkpt>
      <trkpt lat="45.82067" lon="14.95096">
        <ele>217.00537</ele>
        <time>2022-08-05T18:49:10.021Z</time>
      </trkpt>
      <trkpt lat="45.82157" lon="14.95078">
        <ele>217.143195</ele>
        <time>2022-08-05T18:49:34.296Z</time>
      </trkpt>
      <trkpt lat="45.82195" lon="14.95078">
        <ele>216.579084</ele>
        <time>2022-08-05T18:49:43.229Z</time>
      </trkpt>
      <trkpt lat="45.8228" lon="14.95052">
        <ele>215.306945</ele>
        <time>2022-08-05T18:50:02.717Z</time>
      </trkpt>
      <trkpt lat="45.82368" lon="14.9501">
        <ele>213.725178</ele>
        <time>2022-08-05T18:50:23.457Z</time>
      </trkpt>
      <trkpt lat="45.82405" lon="14.94984">
        <ele>212.956306</ele>
        <time>2022-08-05T18:50:32.601Z</time>
      </trkpt>
      <trkpt lat="45.82434" lon="14.94953">
        <ele>212.282141</ele>
        <time>2022-08-05T18:50:40.660Z</time>
      </trkpt>
      <trkpt lat="45.82469" lon="14.94885">
        <ele>211.206596</ele>
        <time>2022-08-05T18:50:54.025Z</time>
      </trkpt>
      <trkpt lat="45.82487" lon="14.94862">
        <ele>210.801165</ele>
        <time>2022-08-05T18:50:59.396Z</time>
      </trkpt>
      <trkpt lat="45.82511" lon="14.94828">
        <ele>210.232406</ele>
        <time>2022-08-05T18:51:06.943Z</time>
      </trkpt>
      <trkpt lat="45.8254" lon="14.94759">
        <ele>209.282535</ele>
        <time>2022-08-05T18:51:19.555Z</time>
      </trkpt>
      <trkpt lat="45.82562" lon="14.94669">
        <ele>208.33999</ele>
        <time>2022-08-05T18:51:34.496Z</time>
      </trkpt>
      <trkpt lat="45.82609" lon="14.94587">
        <ele>207.998657</ele>
        <time>2022-08-05T18:51:52.546Z</time>
      </trkpt>
      <trkpt lat="45.82631" lon="14.94524">
        <ele>207.77516</ele>
        <time>2022-08-05T18:52:05.630Z</time>
      </trkpt>
      <trkpt lat="45.82638" lon="14.94473">
        <ele>207.607806</ele>
        <time>2022-08-05T18:52:16.250Z</time>
      </trkpt>
      <trkpt lat="45.82633" lon="14.94229">
        <ele>209.556714</ele>
        <time>2022-08-05T18:53:13.947Z</time>
      </trkpt>
      <trkpt lat="45.82636" lon="14.94164">
        <ele>210.179636</ele>
        <time>2022-08-05T18:53:30.353Z</time>
      </trkpt>
      <trkpt lat="45.82639" lon="14.94086">
        <ele>210.962653</ele>
        <time>2022-08-05T18:53:49.662Z</time>
      </trkpt>
      <trkpt lat="45.82648" lon="14.94006">
        <ele>211.784214</ele>
        <time>2022-08-05T18:54:09.242Z</time>
      </trkpt>
      <trkpt lat="45.82673" lon="14.939">
        <ele>212.794531</ele>
        <time>2022-08-05T18:54:35.863Z</time>
      </trkpt>
      <trkpt lat="45.82678" lon="14.93764">
        <ele>213.866754</ele>
        <time>2022-08-05T18:55:05.734Z</time>
      </trkpt>
      <trkpt lat="45.82688" lon="14.93711">
        <ele>214.294443</ele>
        <time>2022-08-05T18:55:17.633Z</time>
      </trkpt>
      <trkpt lat="45.82707" lon="14.93603">
        <ele>216.742439</ele>
        <time>2022-08-05T18:55:47.749Z</time>
      </trkpt>
      <trkpt lat="45.82711" lon="14.93533">
        <ele>218.391151</ele>
        <time>2022-08-05T18:56:10.506Z</time>
      </trkpt>
      <trkpt lat="45.82669" lon="14.93456">
        <ele>220.7172</ele>
        <time>2022-08-05T18:56:43.962Z</time>
      </trkpt>
      <trkpt lat="45.82646" lon="14.9338">
        <ele>223.131058</ele>
        <time>2022-08-05T18:57:14.000Z</time>
      </trkpt>
      <trkpt lat="45.82641" lon="14.93359">
        <ele>223.767158</ele>
        <time>2022-08-05T18:57:22.859Z</time>
      </trkpt>
      <trkpt lat="45.82622" lon="14.9332">
        <ele>225.147674</ele>
        <time>2022-08-05T18:57:40.364Z</time>
      </trkpt>
      <trkpt lat="45.82564" lon="14.93235">
        <ele>227.831202</ele>
        <time>2022-08-05T18:58:15.360Z</time>
      </trkpt>
      <trkpt lat="45.82561" lon="14.9323">
        <ele>227.818734</ele>
        <time>2022-08-05T18:58:16.807Z</time>
      </trkpt>
      <trkpt lat="45.82554" lon="14.93143">
        <ele>227.681242</ele>
        <time>2022-08-05T18:58:37.451Z</time>
      </trkpt>
      <trkpt lat="45.8256" lon="14.93124">
        <ele>227.647889</ele>
        <time>2022-08-05T18:58:41.164Z</time>
      </trkpt>
      <trkpt lat="45.82598" lon="14.93075">
        <ele>227.531841</ele>
        <time>2022-08-05T18:58:53.817Z</time>
      </trkpt>
      <trkpt lat="45.8261" lon="14.93046">
        <ele>227.479019</ele>
        <time>2022-08-05T18:58:58.683Z</time>
      </trkpt>
      <trkpt lat="45.82639" lon="14.93007">
        <ele>226.149502</ele>
        <time>2022-08-05T18:59:06.451Z</time>
      </trkpt>
      <trkpt lat="45.82685" lon="14.92982">
        <ele>224.143381</ele>
        <time>2022-08-05T18:59:16.010Z</time>
      </trkpt>
      <trkpt lat="45.82722" lon="14.92936">
        <ele>222.179236</ele>
        <time>2022-08-05T18:59:25.501Z</time>
      </trkpt>
      <trkpt lat="45.82746" lon="14.92907">
        <ele>220.9005</ele>
        <time>2022-08-05T18:59:31.526Z</time>
      </trkpt>
      <trkpt lat="45.82785" lon="14.92882">
        <ele>219.767634</ele>
        <time>2022-08-05T18:59:39.823Z</time>
      </trkpt>
      <trkpt lat="45.82849" lon="14.92826">
        <ele>218.599843</ele>
        <time>2022-08-05T18:59:55.226Z</time>
      </trkpt>
      <trkpt lat="45.82894" lon="14.92762">
        <ele>217.608168</ele>
        <time>2022-08-05T19:00:12.533Z</time>
      </trkpt>
      <trkpt lat="45.82891" lon="14.92722">
        <ele>217.722142</ele>
        <time>2022-08-05T19:00:23.359Z</time>
      </trkpt>
      <trkpt lat="45.8291" lon="14.92673">
        <ele>219.086861</ele>
        <time>2022-08-05T19:00:39.474Z</time>
      </trkpt>
      <trkpt lat="45.82965" lon="14.92551">
        <ele>222.608357</ele>
        <time>2022-08-05T19:01:28.389Z</time>
      </trkpt>
      <trkpt lat="45.82988" lon="14.9243">
        <ele>224.735346</ele>
        <time>2022-08-05T19:02:10.048Z</time>
      </trkpt>
      <trkpt lat="45.83001" lon="14.92354">
        <ele>225.773528</ele>
        <time>2022-08-05T19:02:30.594Z</time>
      </trkpt>
      <trkpt lat="45.83014" lon="14.92306">
        <ele>226.466615</ele>
        <time>2022-08-05T19:02:42.481Z</time>
      </trkpt>
      <trkpt lat="45.83053" lon="14.92243">
        <ele>226.502236</ele>
        <time>2022-08-05T19:02:57.174Z</time>
      </trkpt>
      <trkpt lat="45.83095" lon="14.92191">
        <ele>225.437276</ele>
        <time>2022-08-05T19:03:09.369Z</time>
      </trkpt>
      <trkpt lat="45.83121" lon="14.92141">
        <ele>224.599282</ele>
        <time>2022-08-05T19:03:18.694Z</time>
      </trkpt>
      <trkpt lat="45.83127" lon="14.92112">
        <ele>224.199946</ele>
        <time>2022-08-05T19:03:22.907Z</time>
      </trkpt>
      <trkpt lat="45.83131" lon="14.92074">
        <ele>223.683604</ele>
        <time>2022-08-05T19:03:28.642Z</time>
      </trkpt>
      <trkpt lat="45.83129" lon="14.91945">
        <ele>222.63274</ele>
        <time>2022-08-05T19:03:48.522Z</time>
      </trkpt>
      <trkpt lat="45.83122" lon="14.91898">
        <ele>222.253374</ele>
        <time>2022-08-05T19:03:56.439Z</time>
      </trkpt>
      <trkpt lat="45.83106" lon="14.91799">
        <ele>221.690948</ele>
        <time>2022-08-05T19:04:16.684Z</time>
      </trkpt>
      <trkpt lat="45.83103" lon="14.91735">
        <ele>222.294142</ele>
        <time>2022-08-05T19:04:30.392Z</time>
      </trkpt>
      <trkpt lat="45.83111" lon="14.9143">
        <ele>225.723</ele>
        <time>2022-08-05T19:05:48.167Z</time>
      </trkpt>
      <trkpt lat="45.83118" lon="14.91366">
        <ele>226.612527</ele>
        <time>2022-08-05T19:06:05.491Z</time>
      </trkpt>
      <trkpt lat="45.83132" lon="14.91282">
        <ele>227.88805</ele>
        <time>2022-08-05T19:06:27.706Z</time>
      </trkpt>
      <trkpt lat="45.83151" lon="14.91228">
        <ele>229.059012</ele>
        <time>2022-08-05T19:06:43.596Z</time>
      </trkpt>
      <trkpt lat="45.83209" lon="14.91111">
        <ele>231.777168</ele>
        <time>2022-08-05T19:07:24.676Z</time>
      </trkpt>
      <trkpt lat="45.83232" lon="14.91029">
        <ele>233.922491</ele>
        <time>2022-08-05T19:07:52.508Z</time>
      </trkpt>
      <trkpt lat="45.83265" lon="14.90889">
        <ele>238.015705</ele>
        <time>2022-08-05T19:08:43.436Z</time>
      </trkpt>
      <trkpt lat="45.83267" lon="14.90857">
        <ele>238.909184</ele>
        <time>2022-08-05T19:08:54.810Z</time>
      </trkpt>
      <trkpt lat="45.83257" lon="14.90724">
        <ele>240.076806</ele>
        <time>2022-08-05T19:09:34.627Z</time>
      </trkpt>
      <trkpt lat="45.83238" lon="14.9058">
        <ele>240.660338</ele>
        <time>2022-08-05T19:09:59.300Z</time>
      </trkpt>
      <trkpt lat="45.83259" lon="14.90579">
        <ele>240.488832</ele>
        <time>2022-08-05T19:10:03.456Z</time>
      </trkpt>
      <trkpt lat="45.83295" lon="14.90597">
        <ele>240.097817</ele>
        <time>2022-08-05T19:10:11.452Z</time>
      </trkpt>
      <trkpt lat="45.83384" lon="14.90578">
        <ele>239.157979</ele>
        <time>2022-08-05T19:10:32.037Z</time>
      </trkpt>
      <trkpt lat="45.83435" lon="14.90583">
        <ele>239.510139</ele>
        <time>2022-08-05T19:10:47.632Z</time>
      </trkpt>
      <trkpt lat="45.83481" lon="14.90641">
        <ele>242.068503</ele>
        <time>2022-08-05T19:11:15.854Z</time>
      </trkpt>
      <trkpt lat="45.83517" lon="14.90668">
        <ele>243.759014</ele>
        <time>2022-08-05T19:11:36.296Z</time>
      </trkpt>
      <trkpt lat="45.83575" lon="14.90707">
        <ele>246.354882</ele>
        <time>2022-08-05T19:12:13.778Z</time>
      </trkpt>
      <trkpt lat="45.83573" lon="14.90751">
        <ele>247.067924</ele>
        <time>2022-08-05T19:12:31.747Z</time>
      </trkpt>
      <trkpt lat="45.83573" lon="14.908">
        <ele>247.852715</ele>
        <time>2022-08-05T19:12:49.781Z</time>
      </trkpt>
      <trkpt lat="45.83577" lon="14.90832">
        <ele>248.381086</ele>
        <time>2022-08-05T19:12:59.995Z</time>
      </trkpt>
      <trkpt lat="45.83582" lon="14.90843">
        <ele>248.585641</ele>
        <time>2022-08-05T19:13:04.146Z</time>
      </trkpt>
      <trkpt lat="45.83619" lon="14.90869">
        <ele>249.529177</ele>
        <time>2022-08-05T19:13:18.583Z</time>
      </trkpt>
      <trkpt lat="45.83632" lon="14.90877">
        <ele>249.873662</ele>
        <time>2022-08-05T19:13:22.007Z</time>
      </trkpt>
      <trkpt lat="45.83661" lon="14.90842">
        <ele>249.456444</ele>
        <time>2022-08-05T19:13:30.056Z</time>
      </trkpt>
      <trkpt lat="45.83704" lon="14.90827">
        <ele>246.099533</ele>
        <time>2022-08-05T19:13:38.392Z</time>
      </trkpt>
      <trkpt lat="45.83741" lon="14.90838">
        <ele>243.216411</ele>
        <time>2022-08-05T19:13:45.144Z</time>
      </trkpt>
      <trkpt lat="45.83784" lon="14.90831">
        <ele>239.886684</ele>
        <time>2022-08-05T19:13:52.599Z</time>
      </trkpt>
      <trkpt lat="45.83838" lon="14.90783">
        <ele>234.898744</ele>
        <time>2022-08-05T19:14:03.205Z</time>
      </trkpt>
      <trkpt lat="45.83941" lon="14.90793">
        <ele>226.150125</ele>
        <time>2022-08-05T19:14:20.787Z</time>
      </trkpt>
      <trkpt lat="45.84002" lon="14.9075">
        <ele>221.419047</ele>
        <time>2022-08-05T19:14:32.982Z</time>
      </trkpt>
      <trkpt lat="45.84085" lon="14.90608">
        <ele>220.656436</ele>
        <time>2022-08-05T19:15:07.563Z</time>
      </trkpt>
      <trkpt lat="45.84137" lon="14.90562">
        <ele>221.269913</ele>
        <time>2022-08-05T19:15:34.821Z</time>
      </trkpt>
      <trkpt lat="45.84251" lon="14.90442">
        <ele>226.31481</ele>
        <time>2022-08-05T19:16:41.597Z</time>
      </trkpt>
      <trkpt lat="45.84274" lon="14.90433">
        <ele>227.325641</ele>
        <time>2022-08-05T19:16:53.977Z</time>
      </trkpt>
      <trkpt lat="45.84313" lon="14.90437">
        <ele>229.255386</ele>
        <time>2022-08-05T19:17:14.200Z</time>
      </trkpt>
      <trkpt lat="45.8442" lon="14.90376">
        <ele>235.033311</ele>
        <time>2022-08-05T19:18:16.387Z</time>
      </trkpt>
      <trkpt lat="45.84458" lon="14.90365">
        <ele>237.028578</ele>
        <time>2022-08-05T19:18:39.039Z</time>
      </trkpt>
      <trkpt lat="45.84506" lon="14.90326">
        <ele>239.803363</ele>
        <time>2022-08-05T19:19:11.917Z</time>
      </trkpt>
      <trkpt lat="45.84519" lon="14.9031">
        <ele>240.677605</ele>
        <time>2022-08-05T19:19:21.677Z</time>
      </trkpt>
      <trkpt lat="45.84551" lon="14.9025">
        <ele>243.390693</ele>
        <time>2022-08-05T19:19:50.638Z</time>
      </trkpt>
      <trkpt lat="45.84585" lon="14.90176">
        <ele>245.291141</ele>
        <time>2022-08-05T19:20:20.076Z</time>
      </trkpt>
      <trkpt lat="45.84681" lon="14.90067">
        <ele>246.24374</ele>
        <time>2022-08-05T19:21:02.579Z</time>
      </trkpt>
      <trkpt lat="45.84722" lon="14.90009">
        <ele>245.421171</ele>
        <time>2022-08-05T19:21:15.380Z</time>
      </trkpt>
      <trkpt lat="45.84728" lon="14.89992">
        <ele>244.916815</ele>
        <time>2022-08-05T19:21:18.375Z</time>
      </trkpt>
      <trkpt lat="45.84732" lon="14.89958">
        <ele>244.066777</ele>
        <time>2022-08-05T19:21:23.291Z</time>
      </trkpt>
      <trkpt lat="45.84752" lon="14.89891">
        <ele>242.198558</ele>
        <time>2022-08-05T19:21:34.165Z</time>
      </trkpt>
      <trkpt lat="45.84789" lon="14.89837">
        <ele>240.28874</ele>
        <time>2022-08-05T19:21:45.185Z</time>
      </trkpt>
      <trkpt lat="45.84819" lon="14.89809">
        <ele>239.341887</ele>
        <time>2022-08-05T19:21:52.344Z</time>
      </trkpt>
      <trkpt lat="45.84836" lon="14.89786">
        <ele>238.812104</ele>
        <time>2022-08-05T19:21:57.092Z</time>
      </trkpt>
      <trkpt lat="45.84912" lon="14.89665">
        <ele>236.246679</ele>
        <time>2022-08-05T19:22:21.619Z</time>
      </trkpt>
      <trkpt lat="45.84922" lon="14.89653">
        <ele>235.948967</ele>
        <time>2022-08-05T19:22:25.139Z</time>
      </trkpt>
      <trkpt lat="45.84972" lon="14.89622">
        <ele>236.139298</ele>
        <time>2022-08-05T19:22:41.397Z</time>
      </trkpt>
      <trkpt lat="45.84982" lon="14.89598">
        <ele>236.24984</ele>
        <time>2022-08-05T19:22:47.385Z</time>
      </trkpt>
      <trkpt lat="45.84988" lon="14.89559">
        <ele>236.410627</ele>
        <time>2022-08-05T19:22:56.484Z</time>
      </trkpt>
      <trkpt lat="45.84998" lon="14.89557">
        <ele>236.466352</ele>
        <time>2022-08-05T19:22:59.463Z</time>
      </trkpt>
      <trkpt lat="45.8504" lon="14.89441">
        <ele>237.158053</ele>
        <time>2022-08-05T19:23:29.177Z</time>
      </trkpt>
      <trkpt lat="45.85042" lon="14.89339">
        <ele>238.248563</ele>
        <time>2022-08-05T19:23:53.823Z</time>
      </trkpt>
      <trkpt lat="45.85057" lon="14.89284">
        <ele>238.880214</ele>
        <time>2022-08-05T19:24:08.297Z</time>
      </trkpt>
      <trkpt lat="45.85068" lon="14.89208">
        <ele>239.758703</ele>
        <time>2022-08-05T19:24:28.204Z</time>
      </trkpt>
      <trkpt lat="45.85083" lon="14.89097">
        <ele>241.560783</ele>
        <time>2022-08-05T19:24:58.741Z</time>
      </trkpt>
      <trkpt lat="45.85139" lon="14.88828">
        <ele>244.890298</ele>
        <time>2022-08-05T19:26:15.828Z</time>
      </trkpt>
      <trkpt lat="45.8524" lon="14.88568">
        <ele>245.327554</ele>
        <time>2022-08-05T19:27:09.439Z</time>
      </trkpt>
      <trkpt lat="45.85259" lon="14.88465">
        <ele>245.67141</ele>
        <time>2022-08-05T19:27:28.084Z</time>
      </trkpt>
      <trkpt lat="45.85296" lon="14.88317">
        <ele>248.469174</ele>
        <time>2022-08-05T19:28:06.368Z</time>
      </trkpt>
      <trkpt lat="45.85271" lon="14.88304">
        <ele>249.144464</ele>
        <time>2022-08-05T19:28:18.926Z</time>
      </trkpt>
      <trkpt lat="45.85241" lon="14.88267">
        <ele>251.018793</ele>
        <time>2022-08-05T19:28:41.502Z</time>
      </trkpt>
      <trkpt lat="45.85208" lon="14.88264">
        <ele>253.584707</ele>
        <time>2022-08-05T19:29:04.360Z</time>
      </trkpt>
      <trkpt lat="45.85191" lon="14.88251">
        <ele>255.080922</ele>
        <time>2022-08-05T19:29:18.203Z</time>
      </trkpt>
      <trkpt lat="45.85189" lon="14.88226">
        <ele>256.400673</ele>
        <time>2022-08-05T19:29:30.082Z</time>
      </trkpt>
      <trkpt lat="45.85202" lon="14.88192">
        <ele>258.502229</ele>
        <time>2022-08-05T19:29:50.377Z</time>
      </trkpt>
      <trkpt lat="45.85202" lon="14.88178">
        <ele>259.270144</ele>
        <time>2022-08-05T19:29:57.375Z</time>
      </trkpt>
      <trkpt lat="45.85191" lon="14.8816">
        <ele>260.539683</ele>
        <time>2022-08-05T19:30:08.394Z</time>
      </trkpt>
      <trkpt lat="45.85164" lon="14.88147">
        <ele>262.771023</ele>
        <time>2022-08-05T19:30:24.866Z</time>
      </trkpt>
      <trkpt lat="45.85142" lon="14.88137">
        <ele>264.202988</ele>
        <time>2022-08-05T19:30:37.732Z</time>
      </trkpt>
      <trkpt lat="45.85083" lon="14.88137">
        <ele>266.907067</ele>
        <time>2022-08-05T19:31:12.673Z</time>
      </trkpt>
      <trkpt lat="45.85019" lon="14.88154">
        <ele>269.855014</ele>
        <time>2022-08-05T19:31:44.982Z</time>
      </trkpt>
      <trkpt lat="45.84988" lon="14.8817">
        <ele>271.344338</ele>
        <time>2022-08-05T19:31:56.450Z</time>
      </trkpt>
      <trkpt lat="45.84935" lon="14.88143">
        <ele>272.526364</ele>
        <time>2022-08-05T19:32:12.801Z</time>
      </trkpt>
      <trkpt lat="45.84936" lon="14.88134">
        <ele>272.621807</ele>
        <time>2022-08-05T19:32:15.074Z</time>
      </trkpt>
      <trkpt lat="45.84951" lon="14.88044">
        <ele>273.60613</ele>
        <time>2022-08-05T19:32:35.076Z</time>
      </trkpt>
      <trkpt lat="45.84983" lon="14.87996">
        <ele>274.311722</ele>
        <time>2022-08-05T19:32:51.612Z</time>
      </trkpt>
      <trkpt lat="45.85005" lon="14.87976">
        <ele>274.787578</ele>
        <time>2022-08-05T19:33:00.861Z</time>
      </trkpt>
      <trkpt lat="45.85009" lon="14.87954">
        <ele>275.186157</ele>
        <time>2022-08-05T19:33:07.484Z</time>
      </trkpt>
      <trkpt lat="45.84995" lon="14.87792">
        <ele>278.068076</ele>
        <time>2022-08-05T19:33:54.582Z</time>
      </trkpt>
      <trkpt lat="45.84996" lon="14.87733">
        <ele>279.100268</ele>
        <time>2022-08-05T19:34:10.685Z</time>
      </trkpt>
      <trkpt lat="45.85021" lon="14.8768">
        <ele>278.851593</ele>
        <time>2022-08-05T19:34:24.862Z</time>
      </trkpt>
      <trkpt lat="45.8503" lon="14.87648">
        <ele>278.698782</ele>
        <time>2022-08-05T19:34:31.845Z</time>
      </trkpt>
      <trkpt lat="45.85028" lon="14.87633">
        <ele>278.628515</ele>
        <time>2022-08-05T19:34:34.359Z</time>
      </trkpt>
      <trkpt lat="45.85028" lon="14.87582">
        <ele>278.398583</ele>
        <time>2022-08-05T19:34:42.668Z</time>
      </trkpt>
      <trkpt lat="45.85029" lon="14.87567">
        <ele>278.332047</ele>
        <time>2022-08-05T19:34:44.952Z</time>
      </trkpt>
      <trkpt lat="45.85018" lon="14.87525">
        <ele>278.128658</ele>
        <time>2022-08-05T19:34:51.462Z</time>
      </trkpt>
      <trkpt lat="45.84991" lon="14.87444">
        <ele>276.864306</ele>
        <time>2022-08-05T19:35:03.895Z</time>
      </trkpt>
      <trkpt lat="45.84991" lon="14.87324">
        <ele>274.397547</ele>
        <time>2022-08-05T19:35:19.809Z</time>
      </trkpt>
      <trkpt lat="45.84995" lon="14.87264">
        <ele>273.151134</ele>
        <time>2022-08-05T19:35:28.247Z</time>
      </trkpt>
      <trkpt lat="45.84999" lon="14.87199">
        <ele>272.334707</ele>
        <time>2022-08-05T19:35:37.768Z</time>
      </trkpt>
      <trkpt lat="45.84994" lon="14.87171">
        <ele>272.100054</ele>
        <time>2022-08-05T19:35:42.173Z</time>
      </trkpt>
      <trkpt lat="45.84945" lon="14.87027">
        <ele>270.796508</ele>
        <time>2022-08-05T19:36:09.431Z</time>
      </trkpt>
      <trkpt lat="45.84953" lon="14.86916">
        <ele>269.718201</ele>
        <time>2022-08-05T19:36:27.443Z</time>
      </trkpt>
      <trkpt lat="45.84954" lon="14.86905">
        <ele>269.60941</ele>
        <time>2022-08-05T19:36:29.143Z</time>
      </trkpt>
      <trkpt lat="45.84968" lon="14.86825">
        <ele>268.770811</ele>
        <time>2022-08-05T19:36:41.829Z</time>
      </trkpt>
      <trkpt lat="45.84998" lon="14.8668">
        <ele>266.929022</ele>
        <time>2022-08-05T19:37:03.994Z</time>
      </trkpt>
      <trkpt lat="45.85044" lon="14.86549">
        <ele>264.80147</ele>
        <time>2022-08-05T19:37:25.054Z</time>
      </trkpt>
      <trkpt lat="45.85044" lon="14.86547">
        <ele>264.783523</ele>
        <time>2022-08-05T19:37:25.242Z</time>
      </trkpt>
      <trkpt lat="45.85082" lon="14.86467">
        <ele>263.50669</ele>
        <time>2022-08-05T19:37:39.940Z</time>
      </trkpt>
      <trkpt lat="45.85104" lon="14.86428">
        <ele>262.881847</ele>
        <time>2022-08-05T19:37:47.688Z</time>
      </trkpt>
      <trkpt lat="45.8519" lon="14.86319">
        <ele>260.793578</ele>
        <time>2022-08-05T19:38:12.354Z</time>
      </trkpt>
      <trkpt lat="45.85315" lon="14.8617">
        <ele>257.264918</ele>
        <time>2022-08-05T19:38:46.036Z</time>
      </trkpt>
      <trkpt lat="45.85333" lon="14.86156">
        <ele>256.889527</ele>
        <time>2022-08-05T19:38:50.100Z</time>
      </trkpt>
      <trkpt lat="45.85384" lon="14.86137">
        <ele>255.973616</ele>
        <time>2022-08-05T19:39:01.009Z</time>
      </trkpt>
      <trkpt lat="45.85406" lon="14.86119">
        <ele>255.535991</ele>
        <time>2022-08-05T19:39:06.358Z</time>
      </trkpt>
      <trkpt lat="45.85437" lon="14.86083">
        <ele>254.842519</ele>
        <time>2022-08-05T19:39:15.108Z</time>
      </trkpt>
      <trkpt lat="45.85492" lon="14.85991">
        <ele>254.012231</ele>
        <time>2022-08-05T19:39:34.750Z</time>
      </trkpt>
      <trkpt lat="45.85493" lon="14.8599">
        <ele>254.012878</ele>
        <time>2022-08-05T19:39:35.091Z</time>
      </trkpt>
      <trkpt lat="45.85518" lon="14.85919">
        <ele>254.037139</ele>
        <time>2022-08-05T19:39:48.437Z</time>
      </trkpt>
      <trkpt lat="45.85526" lon="14.85892">
        <ele>254.046125</ele>
        <time>2022-08-05T19:39:53.406Z</time>
      </trkpt>
      <trkpt lat="45.85531" lon="14.85871">
        <ele>254.052994</ele>
        <time>2022-08-05T19:39:57.336Z</time>
      </trkpt>
      <trkpt lat="45.85535" lon="14.85831">
        <ele>254.06539</ele>
        <time>2022-08-05T19:40:05.216Z</time>
      </trkpt>
      <trkpt lat="45.85542" lon="14.85793">
        <ele>254.18338</ele>
        <time>2022-08-05T19:40:15.790Z</time>
      </trkpt>
      <trkpt lat="45.85586" lon="14.85702">
        <ele>256.500206</ele>
        <time>2022-08-05T19:40:46.113Z</time>
      </trkpt>
      <trkpt lat="45.85591" lon="14.8568">
        <ele>256.978799</ele>
        <time>2022-08-05T19:40:52.805Z</time>
      </trkpt>
      <trkpt lat="45.85585" lon="14.85649">
        <ele>257.665769</ele>
        <time>2022-08-05T19:41:02.305Z</time>
      </trkpt>
      <trkpt lat="45.85568" lon="14.85622">
        <ele>258.421246</ele>
        <time>2022-08-05T19:41:14.191Z</time>
      </trkpt>
      <trkpt lat="45.85556" lon="14.85582">
        <ele>259.338848</ele>
        <time>2022-08-05T19:41:27.856Z</time>
      </trkpt>
      <trkpt lat="45.85556" lon="14.85501">
        <ele>260.899513</ele>
        <time>2022-08-05T19:41:53.123Z</time>
      </trkpt>
      <trkpt lat="45.85566" lon="14.85425">
        <ele>262.37473</ele>
        <time>2022-08-05T19:42:17.870Z</time>
      </trkpt>
      <trkpt lat="45.85568" lon="14.85375">
        <ele>263.329186</ele>
        <time>2022-08-05T19:42:30.164Z</time>
      </trkpt>
      <trkpt lat="45.8558" lon="14.85311">
        <ele>264.380023</ele>
        <time>2022-08-05T19:42:45.425Z</time>
      </trkpt>
      <trkpt lat="45.85581" lon="14.85269">
        <ele>264.280632</ele>
        <time>2022-08-05T19:42:53.904Z</time>
      </trkpt>
      <trkpt lat="45.85554" lon="14.85108">
        <ele>263.878575</ele>
        <time>2022-08-05T19:43:20.724Z</time>
      </trkpt>
      <trkpt lat="45.85551" lon="14.85038">
        <ele>263.910323</ele>
        <time>2022-08-05T19:43:32.467Z</time>
      </trkpt>
      <trkpt lat="45.8555" lon="14.84998">
        <ele>264.087171</ele>
        <time>2022-08-05T19:43:40.214Z</time>
      </trkpt>
      <trkpt lat="45.85566" lon="14.84927">
        <ele>264.407011</ele>
        <time>2022-08-05T19:43:55.340Z</time>
      </trkpt>
      <trkpt lat="45.85568" lon="14.84883">
        <ele>264.600045</ele>
        <time>2022-08-05T19:44:04.750Z</time>
      </trkpt>
      <trkpt lat="45.85566" lon="14.84829">
        <ele>264.834313</ele>
        <time>2022-08-05T19:44:17.416Z</time>
      </trkpt>
      <trkpt lat="45.85562" lon="14.84811">
        <ele>264.921032</ele>
        <time>2022-08-05T19:44:21.810Z</time>
      </trkpt>
      <trkpt lat="45.85527" lon="14.84755">
        <ele>265.355054</ele>
        <time>2022-08-05T19:44:40.412Z</time>
      </trkpt>
      <trkpt lat="45.85518" lon="14.84712">
        <ele>265.612315</ele>
        <time>2022-08-05T19:44:51.615Z</time>
      </trkpt>
      <trkpt lat="45.85512" lon="14.8464">
        <ele>266.037514</ele>
        <time>2022-08-05T19:45:09.308Z</time>
      </trkpt>
      <trkpt lat="45.85466" lon="14.84497">
        <ele>264.836796</ele>
        <time>2022-08-05T19:45:33.593Z</time>
      </trkpt>
      <trkpt lat="45.85452" lon="14.8427">
        <ele>261.052637</ele>
        <time>2022-08-05T19:46:04.737Z</time>
      </trkpt>
      <trkpt lat="45.85458" lon="14.84211">
        <ele>260.027766</ele>
        <time>2022-08-05T19:46:13.201Z</time>
      </trkpt>
      <trkpt lat="45.85479" lon="14.84107">
        <ele>258.194273</ele>
        <time>2022-08-05T19:46:28.627Z</time>
      </trkpt>
      <trkpt lat="45.85496" lon="14.84077">
        <ele>257.79439</ele>
        <time>2022-08-05T19:46:34.393Z</time>
      </trkpt>
      <trkpt lat="45.85524" lon="14.84051">
        <ele>257.901977</ele>
        <time>2022-08-05T19:46:42.226Z</time>
      </trkpt>
      <trkpt lat="45.85555" lon="14.84005">
        <ele>258.044933</ele>
        <time>2022-08-05T19:46:53.622Z</time>
      </trkpt>
      <trkpt lat="45.85589" lon="14.83925">
        <ele>258.257073</ele>
        <time>2022-08-05T19:47:13.277Z</time>
      </trkpt>
      <trkpt lat="45.85648" lon="14.83693">
        <ele>263.003032</ele>
        <time>2022-08-05T19:48:22.729Z</time>
      </trkpt>
      <trkpt lat="45.85651" lon="14.83628">
        <ele>264.328233</ele>
        <time>2022-08-05T19:48:46.692Z</time>
      </trkpt>
      <trkpt lat="45.85629" lon="14.83563">
        <ele>265.244077</ele>
        <time>2022-08-05T19:49:09.721Z</time>
      </trkpt>
      <trkpt lat="45.85621" lon="14.83524">
        <ele>265.758186</ele>
        <time>2022-08-05T19:49:22.673Z</time>
      </trkpt>
      <trkpt lat="45.85621" lon="14.83515">
        <ele>265.873837</ele>
        <time>2022-08-05T19:49:24.511Z</time>
      </trkpt>
      <trkpt lat="45.85632" lon="14.83446">
        <ele>266.769544</ele>
        <time>2022-08-05T19:49:41.217Z</time>
      </trkpt>
      <trkpt lat="45.8564" lon="14.83415">
        <ele>267.193528</ele>
        <time>2022-08-05T19:49:46.475Z</time>
      </trkpt>
      <trkpt lat="45.85641" lon="14.83406">
        <ele>267.306718</ele>
        <time>2022-08-05T19:49:47.955Z</time>
      </trkpt>
      <trkpt lat="45.85649" lon="14.83364">
        <ele>266.107016</ele>
        <time>2022-08-05T19:49:54.182Z</time>
      </trkpt>
      <trkpt lat="45.85656" lon="14.83338">
        <ele>265.071235</ele>
        <time>2022-08-05T19:49:58.020Z</time>
      </trkpt>
      <trkpt lat="45.85674" lon="14.83298">
        <ele>263.238922</ele>
        <time>2022-08-05T19:50:03.846Z</time>
      </trkpt>
      <trkpt lat="45.85773" lon="14.83298">
        <ele>257.793846</ele>
        <time>2022-08-05T19:50:20.717Z</time>
      </trkpt>
      <trkpt lat="45.85816" lon="14.83321">
        <ele>256.031494</ele>
        <time>2022-08-05T19:50:28.716Z</time>
      </trkpt>
      <trkpt lat="45.85834" lon="14.83331">
        <ele>255.317957</ele>
        <time>2022-08-05T19:50:32.131Z</time>
      </trkpt>
      <trkpt lat="45.85856" lon="14.83331">
        <ele>254.531702</ele>
        <time>2022-08-05T19:50:35.980Z</time>
      </trkpt>
      <trkpt lat="45.85874" lon="14.83309">
        <ele>253.647214</ele>
        <time>2022-08-05T19:50:40.505Z</time>
      </trkpt>
      <trkpt lat="45.85902" lon="14.83254">
        <ele>251.912318</ele>
        <time>2022-08-05T19:50:50.474Z</time>
      </trkpt>
      <trkpt lat="45.85935" lon="14.83213">
        <ele>251.36828</ele>
        <time>2022-08-05T19:51:03.314Z</time>
      </trkpt>
      <trkpt lat="45.85993" lon="14.83156">
        <ele>252.891909</ele>
        <time>2022-08-05T19:51:28.933Z</time>
      </trkpt>
      <trkpt lat="45.86005" lon="14.83153">
        <ele>253.160001</ele>
        <time>2022-08-05T19:51:33.973Z</time>
      </trkpt>
      <trkpt lat="45.86039" lon="14.83139">
        <ele>253.927295</ele>
        <time>2022-08-05T19:51:49.240Z</time>
      </trkpt>
      <trkpt lat="45.86051" lon="14.8314">
        <ele>254.194557</ele>
        <time>2022-08-05T19:51:54.807Z</time>
      </trkpt>
      <trkpt lat="45.86138" lon="14.83163">
        <ele>255.781052</ele>
        <time>2022-08-05T19:52:30.529Z</time>
      </trkpt>
      <trkpt lat="45.86191" lon="14.83172">
        <ele>256.626711</ele>
        <time>2022-08-05T19:52:49.107Z</time>
      </trkpt>
      <trkpt lat="45.86199" lon="14.83156">
        <ele>256.842094</ele>
        <time>2022-08-05T19:52:52.511Z</time>
      </trkpt>
      <trkpt lat="45.86206" lon="14.83143">
        <ele>257.015245</ele>
        <time>2022-08-05T19:52:56.037Z</time>
      </trkpt>
      <trkpt lat="45.8626" lon="14.83052">
        <ele>257.654332</ele>
        <time>2022-08-05T19:53:21.058Z</time>
      </trkpt>
      <trkpt lat="45.86289" lon="14.82991">
        <ele>257.552869</ele>
        <time>2022-08-05T19:53:33.366Z</time>
      </trkpt>
      <trkpt lat="45.86338" lon="14.82861">
        <ele>257.503901</ele>
        <time>2022-08-05T19:53:57.905Z</time>
      </trkpt>
      <trkpt lat="45.8637" lon="14.82805">
        <ele>258.046995</ele>
        <time>2022-08-05T19:54:13.879Z</time>
      </trkpt>
      <trkpt lat="45.86427" lon="14.82729">
        <ele>258.888208</ele>
        <time>2022-08-05T19:54:39.941Z</time>
      </trkpt>
      <trkpt lat="45.86485" lon="14.82677">
        <ele>259.687294</ele>
        <time>2022-08-05T19:55:04.041Z</time>
      </trkpt>
      <trkpt lat="45.86513" lon="14.82659">
        <ele>260.081146</ele>
        <time>2022-08-05T19:55:15.029Z</time>
      </trkpt>
      <trkpt lat="45.86562" lon="14.82639">
        <ele>260.723622</ele>
        <time>2022-08-05T19:55:31.662Z</time>
      </trkpt>
      <trkpt lat="45.86589" lon="14.82635">
        <ele>261.07592</ele>
        <time>2022-08-05T19:55:40.432Z</time>
      </trkpt>
      <trkpt lat="45.86617" lon="14.82635">
        <ele>261.42693</ele>
        <time>2022-08-05T19:55:48.985Z</time>
      </trkpt>
      <trkpt lat="45.86635" lon="14.82637">
        <ele>261.59806</ele>
        <time>2022-08-05T19:55:54.536Z</time>
      </trkpt>
      <trkpt lat="45.86698" lon="14.82629">
        <ele>261.489258</ele>
        <time>2022-08-05T19:56:13.251Z</time>
      </trkpt>
      <trkpt lat="45.86715" lon="14.82623">
        <ele>261.459749</ele>
        <time>2022-08-05T19:56:18.225Z</time>
      </trkpt>
      <trkpt lat="45.86723" lon="14.8262">
        <ele>261.445876</ele>
        <time>2022-08-05T19:56:20.571Z</time>
      </trkpt>
      <trkpt lat="45.86845" lon="14.82563">
        <ele>261.050658</ele>
        <time>2022-08-05T19:56:50.011Z</time>
      </trkpt>
      <trkpt lat="45.86867" lon="14.82547">
        <ele>260.905237</ele>
        <time>2022-08-05T19:56:56.037Z</time>
      </trkpt>
      <trkpt lat="45.86889" lon="14.82508">
        <ele>260.696189</ele>
        <time>2022-08-05T19:57:04.961Z</time>
      </trkpt>
      <trkpt lat="45.86907" lon="14.82469">
        <ele>260.498598</ele>
        <time>2022-08-05T19:57:13.041Z</time>
      </trkpt>
      <trkpt lat="45.86928" lon="14.8244">
        <ele>260.324971</ele>
        <time>2022-08-05T19:57:20.104Z</time>
      </trkpt>
      <trkpt lat="45.86978" lon="14.82385">
        <ele>260.33162</ele>
        <time>2022-08-05T19:57:35.967Z</time>
      </trkpt>
      <trkpt lat="45.86979" lon="14.82382">
        <ele>260.337025</ele>
        <time>2022-08-05T19:57:36.531Z</time>
      </trkpt>
      <trkpt lat="45.8699" lon="14.82328">
        <ele>260.426995</ele>
        <time>2022-08-05T19:57:47.384Z</time>
      </trkpt>
      <trkpt lat="45.86998" lon="14.82266">
        <ele>260.529037</ele>
        <time>2022-08-05T19:58:01.055Z</time>
      </trkpt>
      <trkpt lat="45.87001" lon="14.82256">
        <ele>260.547449</ele>
        <time>2022-08-05T19:58:03.599Z</time>
      </trkpt>
      <trkpt lat="45.87025" lon="14.82161">
        <ele>260.648373</ele>
        <time>2022-08-05T19:58:23.481Z</time>
      </trkpt>
      <trkpt lat="45.87027" lon="14.82122">
        <ele>260.655323</ele>
        <time>2022-08-05T19:58:30.618Z</time>
      </trkpt>
      <trkpt lat="45.87035" lon="14.81997">
        <ele>260.677649</ele>
        <time>2022-08-05T19:58:54.258Z</time>
      </trkpt>
      <trkpt lat="45.87037" lon="14.81986">
        <ele>260.679623</ele>
        <time>2022-08-05T19:58:56.269Z</time>
      </trkpt>
      <trkpt lat="45.87052" lon="14.81938">
        <ele>260.639218</ele>
        <time>2022-08-05T19:59:05.640Z</time>
      </trkpt>
      <trkpt lat="45.8706" lon="14.81904">
        <ele>260.508794</ele>
        <time>2022-08-05T19:59:11.784Z</time>
      </trkpt>
      <trkpt lat="45.87061" lon="14.819">
        <ele>260.49396</ele>
        <time>2022-08-05T19:59:12.468Z</time>
      </trkpt>
      <trkpt lat="45.87068" lon="14.81873">
        <ele>260.392519</ele>
        <time>2022-08-05T19:59:17.234Z</time>
      </trkpt>
      <trkpt lat="45.87057" lon="14.81852">
        <ele>260.299184</ele>
        <time>2022-08-05T19:59:21.659Z</time>
      </trkpt>
      <trkpt lat="45.87045" lon="14.81757">
        <ele>259.950942</ele>
        <time>2022-08-05T19:59:38.312Z</time>
      </trkpt>
      <trkpt lat="45.87056" lon="14.81565">
        <ele>259.590108</ele>
        <time>2022-08-05T20:00:14.317Z</time>
      </trkpt>
      <trkpt lat="45.87065" lon="14.81509">
        <ele>259.521385</ele>
        <time>2022-08-05T20:00:25.858Z</time>
      </trkpt>
      <trkpt lat="45.87096" lon="14.81392">
        <ele>259.33726</ele>
        <time>2022-08-05T20:00:49.183Z</time>
      </trkpt>
      <trkpt lat="45.87132" lon="14.81293">
        <ele>259.142877</ele>
        <time>2022-08-05T20:01:08.965Z</time>
      </trkpt>
      <trkpt lat="45.87136" lon="14.81269">
        <ele>259.098424</ele>
        <time>2022-08-05T20:01:13.880Z</time>
      </trkpt>
      <trkpt lat="45.87136" lon="14.81186">
        <ele>259.064825</ele>
        <time>2022-08-05T20:01:30.272Z</time>
      </trkpt>
      <trkpt lat="45.87145" lon="14.81078">
        <ele>259.396933</ele>
        <time>2022-08-05T20:01:51.865Z</time>
      </trkpt>
      <trkpt lat="45.87141" lon="14.81011">
        <ele>259.601363</ele>
        <time>2022-08-05T20:02:05.258Z</time>
      </trkpt>
      <trkpt lat="45.87145" lon="14.81001">
        <ele>259.636701</ele>
        <time>2022-08-05T20:02:07.697Z</time>
      </trkpt>
      <trkpt lat="45.87147" lon="14.80996">
        <ele>259.652467</ele>
        <time>2022-08-05T20:02:08.762Z</time>
      </trkpt>
      <trkpt lat="45.87146" lon="14.80986">
        <ele>259.683853</ele>
        <time>2022-08-05T20:02:10.820Z</time>
      </trkpt>
      <trkpt lat="45.8715" lon="14.80968">
        <ele>259.742888</ele>
        <time>2022-08-05T20:02:15.215Z</time>
      </trkpt>
      <trkpt lat="45.87158" lon="14.80952">
        <ele>259.890046</ele>
        <time>2022-08-05T20:02:19.753Z</time>
      </trkpt>
      <trkpt lat="45.87171" lon="14.80864">
        <ele>261.323219</ele>
        <time>2022-08-05T20:02:42.526Z</time>
      </trkpt>
      <trkpt lat="45.87202" lon="14.80836">
        <ele>262.177531</ele>
        <time>2022-08-05T20:02:57.361Z</time>
      </trkpt>
      <trkpt lat="45.87211" lon="14.80758">
        <ele>263.443864</ele>
        <time>2022-08-05T20:03:19.790Z</time>
      </trkpt>
      <trkpt lat="45.87215" lon="14.80751">
        <ele>263.574791</ele>
        <time>2022-08-05T20:03:22.248Z</time>
      </trkpt>
      <trkpt lat="45.87233" lon="14.80745">
        <ele>264.057446</ele>
        <time>2022-08-05T20:03:30.819Z</time>
      </trkpt>
      <trkpt lat="45.87245" lon="14.80727">
        <ele>264.576975</ele>
        <time>2022-08-05T20:03:39.282Z</time>
      </trkpt>
      <trkpt lat="45.87252" lon="14.80703">
        <ele>265.150359</ele>
        <time>2022-08-05T20:03:49.439Z</time>
      </trkpt>
      <trkpt lat="45.8731" lon="14.8065">
        <ele>267.283355</ele>
        <time>2022-08-05T20:04:25.649Z</time>
      </trkpt>
      <trkpt lat="45.87315" lon="14.80643">
        <ele>267.491707</ele>
        <time>2022-08-05T20:04:29.016Z</time>
      </trkpt>
      <trkpt lat="45.8732" lon="14.80637">
        <ele>267.723039</ele>
        <time>2022-08-05T20:04:32.666Z</time>
      </trkpt>
      <trkpt lat="45.87339" lon="14.80615">
        <ele>268.451931</ele>
        <time>2022-08-05T20:04:44.974Z</time>
      </trkpt>
      <trkpt lat="45.8738" lon="14.80592">
        <ele>269.543047</ele>
        <time>2022-08-05T20:05:05.791Z</time>
      </trkpt>
      <trkpt lat="45.87385" lon="14.8057">
        <ele>269.632543</ele>
        <time>2022-08-05T20:05:11.539Z</time>
      </trkpt>
      <trkpt lat="45.87416" lon="14.80464">
        <ele>270.065078</ele>
        <time>2022-08-05T20:05:34.667Z</time>
      </trkpt>
      <trkpt lat="45.87467" lon="14.80335">
        <ele>270.555616</ele>
        <time>2022-08-05T20:05:59.675Z</time>
      </trkpt>
      <trkpt lat="45.87519" lon="14.80215">
        <ele>270.880855</ele>
        <time>2022-08-05T20:06:27.604Z</time>
      </trkpt>
      <trkpt lat="45.87539" lon="14.80168">
        <ele>271.007939</ele>
        <time>2022-08-05T20:06:39.215Z</time>
      </trkpt>
      <trkpt lat="45.87549" lon="14.80118">
        <ele>271.365594</ele>
        <time>2022-08-05T20:06:51.056Z</time>
      </trkpt>
      <trkpt lat="45.87555" lon="14.80107">
        <ele>271.501333</ele>
        <time>2022-08-05T20:06:54.710Z</time>
      </trkpt>
      <trkpt lat="45.87605" lon="14.80023">
        <ele>272.539325</ele>
        <time>2022-08-05T20:07:21.639Z</time>
      </trkpt>
      <trkpt lat="45.87666" lon="14.79901">
        <ele>273.604928</ele>
        <time>2022-08-05T20:07:58.030Z</time>
      </trkpt>
      <trkpt lat="45.8767" lon="14.79893">
        <ele>273.632219</ele>
        <time>2022-08-05T20:08:00.502Z</time>
      </trkpt>
      <trkpt lat="45.87703" lon="14.79828">
        <ele>273.849669</ele>
        <time>2022-08-05T20:08:18.809Z</time>
      </trkpt>
      <trkpt lat="45.87724" lon="14.79797">
        <ele>273.964677</ele>
        <time>2022-08-05T20:08:27.674Z</time>
      </trkpt>
      <trkpt lat="45.87752" lon="14.79704">
        <ele>273.582327</ele>
        <time>2022-08-05T20:08:45.616Z</time>
      </trkpt>
      <trkpt lat="45.87751" lon="14.79671">
        <ele>272.868911</ele>
        <time>2022-08-05T20:08:50.643Z</time>
      </trkpt>
      <trkpt lat="45.87751" lon="14.79654">
        <ele>272.513737</ele>
        <time>2022-08-05T20:08:53.082Z</time>
      </trkpt>
      <trkpt lat="45.87759" lon="14.79641">
        <ele>272.143645</ele>
        <time>2022-08-05T20:08:55.520Z</time>
      </trkpt>
      <trkpt lat="45.8779" lon="14.79591">
        <ele>270.711374</ele>
        <time>2022-08-05T20:09:04.841Z</time>
      </trkpt>
      <trkpt lat="45.87823" lon="14.79569">
        <ele>269.607261</ele>
        <time>2022-08-05T20:09:11.870Z</time>
      </trkpt>
      <trkpt lat="45.87823" lon="14.79557">
        <ele>269.345358</ele>
        <time>2022-08-05T20:09:13.521Z</time>
      </trkpt>
      <trkpt lat="45.87817" lon="14.79543">
        <ele>268.983644</ele>
        <time>2022-08-05T20:09:15.806Z</time>
      </trkpt>
      <trkpt lat="45.87792" lon="14.79533">
        <ele>268.294277</ele>
        <time>2022-08-05T20:09:20.656Z</time>
      </trkpt>
      <trkpt lat="45.87779" lon="14.79523">
        <ele>267.913599</ele>
        <time>2022-08-05T20:09:23.679Z</time>
      </trkpt>
      <trkpt lat="45.87775" lon="14.79513">
        <ele>267.701708</ele>
        <time>2022-08-05T20:09:25.366Z</time>
      </trkpt>
      <trkpt lat="45.87762" lon="14.79467">
        <ele>266.834087</ele>
        <time>2022-08-05T20:09:32.559Z</time>
      </trkpt>
      <trkpt lat="45.87759" lon="14.79461">
        <ele>266.702625</ele>
        <time>2022-08-05T20:09:33.677Z</time>
      </trkpt>
      <trkpt lat="45.8776" lon="14.79447">
        <ele>266.457695</ele>
        <time>2022-08-05T20:09:35.726Z</time>
      </trkpt>
      <trkpt lat="45.87762" lon="14.79424">
        <ele>266.052817</ele>
        <time>2022-08-05T20:09:41.743Z</time>
      </trkpt>
      <trkpt lat="45.87776" lon="14.79398">
        <ele>265.478988</ele>
        <time>2022-08-05T20:09:50.109Z</time>
      </trkpt>
      <trkpt lat="45.87801" lon="14.79309">
        <ele>264.144567</ele>
        <time>2022-08-05T20:10:16.285Z</time>
      </trkpt>
      <trkpt lat="45.87801" lon="14.79295">
        <ele>264.150318</ele>
        <time>2022-08-05T20:10:20.738Z</time>
      </trkpt>
      <trkpt lat="45.87811" lon="14.7925">
        <ele>264.168955</ele>
        <time>2022-08-05T20:10:35.409Z</time>
      </trkpt>
      <trkpt lat="45.87855" lon="14.79172">
        <ele>264.208649</ele>
        <time>2022-08-05T20:11:07.481Z</time>
      </trkpt>
      <trkpt lat="45.87905" lon="14.78944">
        <ele>265.344611</ele>
        <time>2022-08-05T20:12:26.362Z</time>
      </trkpt>
      <trkpt lat="45.8792" lon="14.78906">
        <ele>265.646802</ele>
        <time>2022-08-05T20:12:41.964Z</time>
      </trkpt>
      <trkpt lat="45.8794" lon="14.78803">
        <ele>266.447658</ele>
        <time>2022-08-05T20:13:20.939Z</time>
      </trkpt>
      <trkpt lat="45.87976" lon="14.78731">
        <ele>267.159384</ele>
        <time>2022-08-05T20:13:52.901Z</time>
      </trkpt>
      <trkpt lat="45.88011" lon="14.78686">
        <ele>267.707115</ele>
        <time>2022-08-05T20:14:16.399Z</time>
      </trkpt>
      <trkpt lat="45.88033" lon="14.78618">
        <ele>268.130633</ele>
        <time>2022-08-05T20:14:40.565Z</time>
      </trkpt>
      <trkpt lat="45.88046" lon="14.78595">
        <ele>268.157</ele>
        <time>2022-08-05T20:14:49.692Z</time>
      </trkpt>
      <trkpt lat="45.88052" lon="14.78589">
        <ele>268.165658</ele>
        <time>2022-08-05T20:14:52.926Z</time>
      </trkpt>
      <trkpt lat="45.88074" lon="14.7857">
        <ele>268.197954</ele>
        <time>2022-08-05T20:15:00.451Z</time>
      </trkpt>
      <trkpt lat="45.88088" lon="14.78543">
        <ele>268.228069</ele>
        <time>2022-08-05T20:15:07.254Z</time>
      </trkpt>
      <trkpt lat="45.88107" lon="14.78528">
        <ele>268.255399</ele>
        <time>2022-08-05T20:15:13.209Z</time>
      </trkpt>
      <trkpt lat="45.88114" lon="14.78522">
        <ele>268.267052</ele>
        <time>2022-08-05T20:15:15.839Z</time>
      </trkpt>
      <trkpt lat="45.88158" lon="14.78486">
        <ele>268.330691</ele>
        <time>2022-08-05T20:15:29.420Z</time>
      </trkpt>
      <trkpt lat="45.88198" lon="14.78487">
        <ele>268.298836</ele>
        <time>2022-08-05T20:15:40.216Z</time>
      </trkpt>
      <trkpt lat="45.88202" lon="14.7844">
        <ele>268.26316</ele>
        <time>2022-08-05T20:15:48.690Z</time>
      </trkpt>
      <trkpt lat="45.88203" lon="14.78431">
        <ele>268.256325</ele>
        <time>2022-08-05T20:15:50.347Z</time>
      </trkpt>
      <trkpt lat="45.88206" lon="14.78408">
        <ele>268.237977</ele>
        <time>2022-08-05T20:15:54.565Z</time>
      </trkpt>
      <trkpt lat="45.88226" lon="14.78302">
        <ele>268.155011</ele>
        <time>2022-08-05T20:16:14.109Z</time>
      </trkpt>
      <trkpt lat="45.88235" lon="14.78197">
        <ele>269.686871</ele>
        <time>2022-08-05T20:16:34.302Z</time>
      </trkpt>
      <trkpt lat="45.88243" lon="14.78143">
        <ele>270.668802</ele>
        <time>2022-08-05T20:16:49.292Z</time>
      </trkpt>
      <trkpt lat="45.88244" lon="14.78138">
        <ele>270.745939</ele>
        <time>2022-08-05T20:16:50.527Z</time>
      </trkpt>
      <trkpt lat="45.88246" lon="14.78108">
        <ele>271.286996</ele>
        <time>2022-08-05T20:17:00.540Z</time>
      </trkpt>
      <trkpt lat="45.88234" lon="14.78033">
        <ele>272.642335</ele>
        <time>2022-08-05T20:17:25.401Z</time>
      </trkpt>
      <trkpt lat="45.8822" lon="14.77983">
        <ele>274.282382</ele>
        <time>2022-08-05T20:17:45.347Z</time>
      </trkpt>
      <trkpt lat="45.88195" lon="14.77919">
        <ele>276.560352</ele>
        <time>2022-08-05T20:18:12.394Z</time>
      </trkpt>
      <trkpt lat="45.88153" lon="14.77837">
        <ele>279.746131</ele>
        <time>2022-08-05T20:18:46.805Z</time>
      </trkpt>
      <trkpt lat="45.8813" lon="14.77814">
        <ele>280.943449</ele>
        <time>2022-08-05T20:18:59.032Z</time>
      </trkpt>
      <trkpt lat="45.88124" lon="14.77812">
        <ele>281.15983</ele>
        <time>2022-08-05T20:19:01.783Z</time>
      </trkpt>
      <trkpt lat="45.88116" lon="14.7781">
        <ele>281.407569</ele>
        <time>2022-08-05T20:19:04.489Z</time>
      </trkpt>
      <trkpt lat="45.88105" lon="14.77801">
        <ele>281.839818</ele>
        <time>2022-08-05T20:19:09.180Z</time>
      </trkpt>
      <trkpt lat="45.8807" lon="14.77762">
        <ele>283.382576</ele>
        <time>2022-08-05T20:19:25.871Z</time>
      </trkpt>
      <trkpt lat="45.88036" lon="14.7773">
        <ele>284.742519</ele>
        <time>2022-08-05T20:19:43.422Z</time>
      </trkpt>
      <trkpt lat="45.87973" lon="14.77681">
        <ele>287.420966</ele>
        <time>2022-08-05T20:20:15.332Z</time>
      </trkpt>
      <trkpt lat="45.87928" lon="14.77636">
        <ele>290.713387</ele>
        <time>2022-08-05T20:20:41.839Z</time>
      </trkpt>
      <trkpt lat="45.87917" lon="14.77613">
        <ele>291.857719</ele>
        <time>2022-08-05T20:20:53.197Z</time>
      </trkpt>
      <trkpt lat="45.87921" lon="14.77576">
        <ele>293.431425</ele>
        <time>2022-08-05T20:21:08.368Z</time>
      </trkpt>
      <trkpt lat="45.87987" lon="14.77524">
        <ele>297.937971</ele>
        <time>2022-08-05T20:21:55.917Z</time>
      </trkpt>
      <trkpt lat="45.88007" lon="14.77497">
        <ele>299.600075</ele>
        <time>2022-08-05T20:22:12.040Z</time>
      </trkpt>
      <trkpt lat="45.88018" lon="14.77473">
        <ele>300.833152</ele>
        <time>2022-08-05T20:22:24.265Z</time>
      </trkpt>
      <trkpt lat="45.88029" lon="14.7745">
        <ele>302.017223</ele>
        <time>2022-08-05T20:22:34.011Z</time>
      </trkpt>
      <trkpt lat="45.88039" lon="14.77396">
        <ele>304.431102</ele>
        <time>2022-08-05T20:22:54.389Z</time>
      </trkpt>
      <trkpt lat="45.88058" lon="14.77359">
        <ele>306.400376</ele>
        <time>2022-08-05T20:23:11.841Z</time>
      </trkpt>
      <trkpt lat="45.88071" lon="14.77344">
        <ele>307.388822</ele>
        <time>2022-08-05T20:23:20.691Z</time>
      </trkpt>
      <trkpt lat="45.88108" lon="14.77319">
        <ele>309.842899</ele>
        <time>2022-08-05T20:23:44.430Z</time>
      </trkpt>
      <trkpt lat="45.8813" lon="14.77294">
        <ele>311.43014</ele>
        <time>2022-08-05T20:24:00.267Z</time>
      </trkpt>
      <trkpt lat="45.88301" lon="14.77059">
        <ele>324.650092</ele>
        <time>2022-08-05T20:26:06.536Z</time>
      </trkpt>
      <trkpt lat="45.88381" lon="14.76989">
        <ele>329.920417</ele>
        <time>2022-08-05T20:26:53.326Z</time>
      </trkpt>
      <trkpt lat="45.88411" lon="14.76956">
        <ele>332.515368</ele>
        <time>2022-08-05T20:27:14.651Z</time>
      </trkpt>
      <trkpt lat="45.88433" lon="14.76917">
        <ele>334.904418</ele>
        <time>2022-08-05T20:27:35.430Z</time>
      </trkpt>
      <trkpt lat="45.88457" lon="14.7685">
        <ele>338.483092</ele>
        <time>2022-08-05T20:28:07.377Z</time>
      </trkpt>
      <trkpt lat="45.88521" lon="14.76746">
        <ele>345.382053</ele>
        <time>2022-08-05T20:29:12.413Z</time>
      </trkpt>
      <trkpt lat="45.88534" lon="14.76718">
        <ele>347.103463</ele>
        <time>2022-08-05T20:29:27.675Z</time>
      </trkpt>
      <trkpt lat="45.88541" lon="14.76694">
        <ele>348.393333</ele>
        <time>2022-08-05T20:29:39.451Z</time>
      </trkpt>
      <trkpt lat="45.88541" lon="14.7662">
        <ele>352.171727</ele>
        <time>2022-08-05T20:30:11.070Z</time>
      </trkpt>
      <trkpt lat="45.88594" lon="14.76463">
        <ele>358.260589</ele>
        <time>2022-08-05T20:31:12.875Z</time>
      </trkpt>
      <trkpt lat="45.8859" lon="14.764">
        <ele>360.210752</ele>
        <time>2022-08-05T20:31:32.711Z</time>
      </trkpt>
      <trkpt lat="45.88604" lon="14.76353">
        <ele>361.807159</ele>
        <time>2022-08-05T20:31:48.078Z</time>
      </trkpt>
      <trkpt lat="45.88614" lon="14.76219">
        <ele>363.111737</ele>
        <time>2022-08-05T20:32:25.842Z</time>
      </trkpt>
      <trkpt lat="45.88634" lon="14.76076">
        <ele>364.001274</ele>
        <time>2022-08-05T20:32:52.230Z</time>
      </trkpt>
      <trkpt lat="45.8866" lon="14.76026">
        <ele>362.98504</ele>
        <time>2022-08-05T20:33:01.713Z</time>
      </trkpt>
      <trkpt lat="45.88725" lon="14.75978">
        <ele>361.306005</ele>
        <time>2022-08-05T20:33:16.405Z</time>
      </trkpt>
      <trkpt lat="45.88826" lon="14.75986">
        <ele>359.543093</ele>
        <time>2022-08-05T20:33:35.713Z</time>
      </trkpt>
      <trkpt lat="45.88838" lon="14.75994">
        <ele>359.39525</ele>
        <time>2022-08-05T20:33:38.504Z</time>
      </trkpt>
      <trkpt lat="45.8886" lon="14.76046">
        <ele>358.936024</ele>
        <time>2022-08-05T20:33:47.623Z</time>
      </trkpt>
      <trkpt lat="45.88881" lon="14.76073">
        <ele>358.627426</ele>
        <time>2022-08-05T20:33:54.754Z</time>
      </trkpt>
      <trkpt lat="45.88895" lon="14.76108">
        <ele>358.317462</ele>
        <time>2022-08-05T20:34:02.655Z</time>
      </trkpt>
      <trkpt lat="45.88974" lon="14.76256">
        <ele>362.044645</ele>
        <time>2022-08-05T20:34:53.942Z</time>
      </trkpt>
      <trkpt lat="45.89027" lon="14.76373">
        <ele>366.114449</ele>
        <time>2022-08-05T20:35:44.718Z</time>
      </trkpt>
      <trkpt lat="45.89058" lon="14.76465">
        <ele>370.149498</ele>
        <time>2022-08-05T20:36:26.555Z</time>
      </trkpt>
      <trkpt lat="45.89109" lon="14.76496">
        <ele>373.305672</ele>
        <time>2022-08-05T20:36:57.349Z</time>
      </trkpt>
      <trkpt lat="45.89179" lon="14.76533">
        <ele>376.1883</ele>
        <time>2022-08-05T20:37:32.016Z</time>
      </trkpt>
      <trkpt lat="45.89195" lon="14.76547">
        <ele>376.749313</ele>
        <time>2022-08-05T20:37:41.144Z</time>
      </trkpt>
      <trkpt lat="45.89196" lon="14.76655">
        <ele>378.939862</ele>
        <time>2022-08-05T20:38:10.571Z</time>
      </trkpt>
      <trkpt lat="45.89216" lon="14.7674">
        <ele>380.702222</ele>
        <time>2022-08-05T20:38:30.929Z</time>
      </trkpt>
      <trkpt lat="45.89226" lon="14.76848">
        <ele>382.739489</ele>
        <time>2022-08-05T20:38:51.770Z</time>
      </trkpt>
      <trkpt lat="45.89263" lon="14.76962">
        <ele>385.518803</ele>
        <time>2022-08-05T20:39:34.175Z</time>
      </trkpt>
      <trkpt lat="45.89287" lon="14.76987">
        <ele>388.015693</ele>
        <time>2022-08-05T20:39:53.743Z</time>
      </trkpt>
      <trkpt lat="45.89303" lon="14.76992">
        <ele>389.393625</ele>
        <time>2022-08-05T20:40:00.617Z</time>
      </trkpt>
      <trkpt lat="45.89369" lon="14.7696">
        <ele>395.383391</ele>
        <time>2022-08-05T20:40:50.183Z</time>
      </trkpt>
      <trkpt lat="45.89393" lon="14.76962">
        <ele>397.393908</ele>
        <time>2022-08-05T20:41:11.439Z</time>
      </trkpt>
      <trkpt lat="45.89401" lon="14.76974">
        <ele>398.350136</ele>
        <time>2022-08-05T20:41:17.865Z</time>
      </trkpt>
      <trkpt lat="45.89417" lon="14.77044">
        <ele>402.842023</ele>
        <time>2022-08-05T20:41:58.860Z</time>
      </trkpt>
      <trkpt lat="45.89418" lon="14.7711">
        <ele>406.867513</ele>
        <time>2022-08-05T20:42:32.727Z</time>
      </trkpt>
      <trkpt lat="45.89424" lon="14.77124">
        <ele>407.913821</ele>
        <time>2022-08-05T20:42:38.953Z</time>
      </trkpt>
      <trkpt lat="45.89439" lon="14.77121">
        <ele>409.241785</ele>
        <time>2022-08-05T20:42:52.106Z</time>
      </trkpt>
      <trkpt lat="45.89451" lon="14.7711">
        <ele>410.478908</ele>
        <time>2022-08-05T20:43:02.015Z</time>
      </trkpt>
      <trkpt lat="45.89459" lon="14.77094">
        <ele>411.711674</ele>
        <time>2022-08-05T20:43:09.774Z</time>
      </trkpt>
      <trkpt lat="45.89468" lon="14.77056">
        <ele>414.185241</ele>
        <time>2022-08-05T20:43:25.614Z</time>
      </trkpt>
      <trkpt lat="45.89467" lon="14.76983">
        <ele>417.898577</ele>
        <time>2022-08-05T20:43:57.680Z</time>
      </trkpt>
      <trkpt lat="45.89479" lon="14.76961">
        <ele>419.088021</ele>
        <time>2022-08-05T20:44:09.386Z</time>
      </trkpt>
      <trkpt lat="45.89497" lon="14.76948">
        <ele>420.328769</ele>
        <time>2022-08-05T20:44:21.830Z</time>
      </trkpt>
      <trkpt lat="45.89541" lon="14.76908">
        <ele>423.492207</ele>
        <time>2022-08-05T20:44:47.565Z</time>
      </trkpt>
      <trkpt lat="45.89578" lon="14.76845">
        <ele>427.011505</ele>
        <time>2022-08-05T20:45:19.695Z</time>
      </trkpt>
      <trkpt lat="45.89613" lon="14.76774">
        <ele>429.888556</ele>
        <time>2022-08-05T20:45:52.589Z</time>
      </trkpt>
      <trkpt lat="45.89672" lon="14.76683">
        <ele>433.969119</ele>
        <time>2022-08-05T20:46:32.774Z</time>
      </trkpt>
      <trkpt lat="45.89685" lon="14.76652">
        <ele>435.162667</ele>
        <time>2022-08-05T20:46:44.548Z</time>
      </trkpt>
      <trkpt lat="45.89697" lon="14.76629">
        <ele>435.976649</ele>
        <time>2022-08-05T20:46:54.188Z</time>
      </trkpt>
      <trkpt lat="45.89718" lon="14.76557">
        <ele>437.980654</ele>
        <time>2022-08-05T20:47:19.155Z</time>
      </trkpt>
      <trkpt lat="45.89731" lon="14.76531">
        <ele>438.813636</ele>
        <time>2022-08-05T20:47:29.625Z</time>
      </trkpt>
      <trkpt lat="45.89765" lon="14.76482">
        <ele>440.577845</ele>
        <time>2022-08-05T20:47:49.795Z</time>
      </trkpt>
      <trkpt lat="45.8981" lon="14.76444">
        <ele>442.261617</ele>
        <time>2022-08-05T20:48:12.765Z</time>
      </trkpt>
      <trkpt lat="45.89866" lon="14.76419">
        <ele>442.713103</ele>
        <time>2022-08-05T20:48:37.169Z</time>
      </trkpt>
      <trkpt lat="45.899" lon="14.7642">
        <ele>442.980533</ele>
        <time>2022-08-05T20:48:48.305Z</time>
      </trkpt>
      <trkpt lat="45.89941" lon="14.76441">
        <ele>443.316574</ele>
        <time>2022-08-05T20:48:58.613Z</time>
      </trkpt>
      <trkpt lat="45.89957" lon="14.76436">
        <ele>443.445332</ele>
        <time>2022-08-05T20:49:02.105Z</time>
      </trkpt>
      <trkpt lat="45.89991" lon="14.76377">
        <ele>442.796722</ele>
        <time>2022-08-05T20:49:13.115Z</time>
      </trkpt>
      <trkpt lat="45.90042" lon="14.76249">
        <ele>440.420101</ele>
        <time>2022-08-05T20:49:34.054Z</time>
      </trkpt>
      <trkpt lat="45.90145" lon="14.76105">
        <ele>438.54941</ele>
        <time>2022-08-05T20:50:03.772Z</time>
      </trkpt>
      <trkpt lat="45.90184" lon="14.76062">
        <ele>438.120204</ele>
        <time>2022-08-05T20:50:18.566Z</time>
      </trkpt>
      <trkpt lat="45.90234" lon="14.76023">
        <ele>437.89422</ele>
        <time>2022-08-05T20:50:37.408Z</time>
      </trkpt>
      <trkpt lat="45.9029" lon="14.7599">
        <ele>437.976566</ele>
        <time>2022-08-05T20:50:55.545Z</time>
      </trkpt>
      <trkpt lat="45.90374" lon="14.75977">
        <ele>438.090521</ele>
        <time>2022-08-05T20:51:18.892Z</time>
      </trkpt>
      <trkpt lat="45.9051" lon="14.75939">
        <ele>434.284043</ele>
        <time>2022-08-05T20:51:47.130Z</time>
      </trkpt>
      <trkpt lat="45.90637" lon="14.75856">
        <ele>428.737575</ele>
        <time>2022-08-05T20:52:12.447Z</time>
      </trkpt>
      <trkpt lat="45.90662" lon="14.75827">
        <ele>427.244348</ele>
        <time>2022-08-05T20:52:18.401Z</time>
      </trkpt>
      <trkpt lat="45.90717" lon="14.75725">
        <ele>423.749094</ele>
        <time>2022-08-05T20:52:35.115Z</time>
      </trkpt>
      <trkpt lat="45.90761" lon="14.75659">
        <ele>422.005647</ele>
        <time>2022-08-05T20:52:47.560Z</time>
      </trkpt>
      <trkpt lat="45.90873" lon="14.75522">
        <ele>419.237557</ele>
        <time>2022-08-05T20:53:19.365Z</time>
      </trkpt>
      <trkpt lat="45.90898" lon="14.75496">
        <ele>419.011888</ele>
        <time>2022-08-05T20:53:27.200Z</time>
      </trkpt>
      <trkpt lat="45.90935" lon="14.75468">
        <ele>418.707639</ele>
        <time>2022-08-05T20:53:37.913Z</time>
      </trkpt>
      <trkpt lat="45.90962" lon="14.75445">
        <ele>418.473033</ele>
        <time>2022-08-05T20:53:46.134Z</time>
      </trkpt>
      <trkpt lat="45.91048" lon="14.75387">
        <ele>417.077237</ele>
        <time>2022-08-05T20:54:11.209Z</time>
      </trkpt>
      <trkpt lat="45.91111" lon="14.75321">
        <ele>415.853048</ele>
        <time>2022-08-05T20:54:28.218Z</time>
      </trkpt>
      <trkpt lat="45.91149" lon="14.75292">
        <ele>414.029172</ele>
        <time>2022-08-05T20:54:36.085Z</time>
      </trkpt>
      <trkpt lat="45.91185" lon="14.75238">
        <ele>410.545449</ele>
        <time>2022-08-05T20:54:45.207Z</time>
      </trkpt>
      <trkpt lat="45.91199" lon="14.75205">
        <ele>408.773408</ele>
        <time>2022-08-05T20:54:49.745Z</time>
      </trkpt>
      <trkpt lat="45.91246" lon="14.75048">
        <ele>401.563839</ele>
        <time>2022-08-05T20:55:09.762Z</time>
      </trkpt>
      <trkpt lat="45.91269" lon="14.74983">
        <ele>399.001739</ele>
        <time>2022-08-05T20:55:18.548Z</time>
      </trkpt>
      <trkpt lat="45.91353" lon="14.74784">
        <ele>392.94347</ele>
        <time>2022-08-05T20:55:51.235Z</time>
      </trkpt>
      <trkpt lat="45.91443" lon="14.74523">
        <ele>388.774481</ele>
        <time>2022-08-05T20:56:34.564Z</time>
      </trkpt>
      <trkpt lat="45.91502" lon="14.74386">
        <ele>386.951336</ele>
        <time>2022-08-05T20:56:58.097Z</time>
      </trkpt>
      <trkpt lat="45.91559" lon="14.74273">
        <ele>386.106594</ele>
        <time>2022-08-05T20:57:20.432Z</time>
      </trkpt>
      <trkpt lat="45.9164" lon="14.74151">
        <ele>384.456041</ele>
        <time>2022-08-05T20:57:53.138Z</time>
      </trkpt>
      <trkpt lat="45.91665" lon="14.7413">
        <ele>383.911046</ele>
        <time>2022-08-05T20:57:59.269Z</time>
      </trkpt>
      <trkpt lat="45.91696" lon="14.74124">
        <ele>383.315408</ele>
        <time>2022-08-05T20:58:05.663Z</time>
      </trkpt>
      <trkpt lat="45.91717" lon="14.74104">
        <ele>382.855143</ele>
        <time>2022-08-05T20:58:10.698Z</time>
      </trkpt>
      <trkpt lat="45.91768" lon="14.74046">
        <ele>380.710054</ele>
        <time>2022-08-05T20:58:22.962Z</time>
      </trkpt>
      <trkpt lat="45.918" lon="14.74006">
        <ele>378.786833</ele>
        <time>2022-08-05T20:58:30.915Z</time>
      </trkpt>
      <trkpt lat="45.91862" lon="14.73945">
        <ele>375.381444</ele>
        <time>2022-08-05T20:58:44.302Z</time>
      </trkpt>
      <trkpt lat="45.91954" lon="14.73808">
        <ele>369.596353</ele>
        <time>2022-08-05T20:59:08.947Z</time>
      </trkpt>
      <trkpt lat="45.9208" lon="14.73585">
        <ele>360.436796</ele>
        <time>2022-08-05T20:59:45.972Z</time>
      </trkpt>
      <trkpt lat="45.92088" lon="14.73548">
        <ele>359.158851</ele>
        <time>2022-08-05T20:59:50.778Z</time>
      </trkpt>
      <trkpt lat="45.92089" lon="14.73469">
        <ele>357.283782</ele>
        <time>2022-08-05T21:00:00.720Z</time>
      </trkpt>
      <trkpt lat="45.92103" lon="14.73409">
        <ele>356.365901</ele>
        <time>2022-08-05T21:00:08.872Z</time>
      </trkpt>
      <trkpt lat="45.92116" lon="14.73372">
        <ele>355.757224</ele>
        <time>2022-08-05T21:00:15.122Z</time>
      </trkpt>
      <trkpt lat="45.92159" lon="14.73288">
        <ele>354.236604</ele>
        <time>2022-08-05T21:00:32.877Z</time>
      </trkpt>
      <trkpt lat="45.92194" lon="14.73239">
        <ele>354.607982</ele>
        <time>2022-08-05T21:00:48.240Z</time>
      </trkpt>
      <trkpt lat="45.92206" lon="14.73232">
        <ele>354.771139</ele>
        <time>2022-08-05T21:00:53.809Z</time>
      </trkpt>
      <trkpt lat="45.92263" lon="14.732">
        <ele>355.560529</ele>
        <time>2022-08-05T21:01:17.332Z</time>
      </trkpt>
      <trkpt lat="45.92322" lon="14.73135">
        <ele>356.312776</ele>
        <time>2022-08-05T21:01:41.326Z</time>
      </trkpt>
      <trkpt lat="45.9239" lon="14.73067">
        <ele>355.669736</ele>
        <time>2022-08-05T21:02:01.622Z</time>
      </trkpt>
      <trkpt lat="45.9241" lon="14.73042">
        <ele>355.459638</ele>
        <time>2022-08-05T21:02:07.244Z</time>
      </trkpt>
      <trkpt lat="45.92466" lon="14.72941">
        <ele>354.858966</ele>
        <time>2022-08-05T21:02:26.818Z</time>
      </trkpt>
      <trkpt lat="45.92501" lon="14.72896">
        <ele>354.645316</ele>
        <time>2022-08-05T21:02:38.423Z</time>
      </trkpt>
      <trkpt lat="45.92533" lon="14.72837">
        <ele>354.411068</ele>
        <time>2022-08-05T21:02:52.158Z</time>
      </trkpt>
      <trkpt lat="45.92559" lon="14.72774">
        <ele>354.184132</ele>
        <time>2022-08-05T21:03:05.980Z</time>
      </trkpt>
      <trkpt lat="45.92577" lon="14.72697">
        <ele>354.275399</ele>
        <time>2022-08-05T21:03:21.213Z</time>
      </trkpt>
      <trkpt lat="45.92656" lon="14.72533">
        <ele>354.559807</ele>
        <time>2022-08-05T21:03:59.812Z</time>
      </trkpt>
      <trkpt lat="45.92665" lon="14.72512">
        <ele>354.640791</ele>
        <time>2022-08-05T21:04:04.618Z</time>
      </trkpt>
      <trkpt lat="45.9267" lon="14.72485">
        <ele>354.734182</ele>
        <time>2022-08-05T21:04:09.759Z</time>
      </trkpt>
      <trkpt lat="45.92674" lon="14.72348">
        <ele>355.187328</ele>
        <time>2022-08-05T21:04:37.122Z</time>
      </trkpt>
      <trkpt lat="45.92691" lon="14.72299">
        <ele>355.477472</ele>
        <time>2022-08-05T21:04:48.438Z</time>
      </trkpt>
      <trkpt lat="45.92727" lon="14.7224">
        <ele>357.022513</ele>
        <time>2022-08-05T21:05:05.558Z</time>
      </trkpt>
      <trkpt lat="45.92739" lon="14.72207">
        <ele>357.754187</ele>
        <time>2022-08-05T21:05:15.263Z</time>
      </trkpt>
      <trkpt lat="45.92747" lon="14.72109">
        <ele>359.678268</ele>
        <time>2022-08-05T21:05:45.616Z</time>
      </trkpt>
      <trkpt lat="45.92733" lon="14.72044">
        <ele>361.798617</ele>
        <time>2022-08-05T21:06:09.720Z</time>
      </trkpt>
      <trkpt lat="45.92681" lon="14.71961">
        <ele>366.672323</ele>
        <time>2022-08-05T21:06:53.460Z</time>
      </trkpt>
      <trkpt lat="45.92659" lon="14.71898">
        <ele>369.766844</ele>
        <time>2022-08-05T21:07:23.289Z</time>
      </trkpt>
      <trkpt lat="45.92644" lon="14.71868">
        <ele>371.395066</ele>
        <time>2022-08-05T21:07:40.004Z</time>
      </trkpt>
      <trkpt lat="45.92589" lon="14.71797">
        <ele>375.254195</ele>
        <time>2022-08-05T21:08:23.383Z</time>
      </trkpt>
      <trkpt lat="45.92559" lon="14.71703">
        <ele>378.987909</ele>
        <time>2022-08-05T21:08:59.526Z</time>
      </trkpt>
      <trkpt lat="45.92549" lon="14.71651">
        <ele>380.891473</ele>
        <time>2022-08-05T21:09:15.535Z</time>
      </trkpt>
      <trkpt lat="45.92543" lon="14.71569">
        <ele>381.81059</ele>
        <time>2022-08-05T21:09:38.037Z</time>
      </trkpt>
      <trkpt lat="45.92547" lon="14.71474">
        <ele>382.785771</ele>
        <time>2022-08-05T21:09:58.158Z</time>
      </trkpt>
      <trkpt lat="45.92556" lon="14.71422">
        <ele>383.323164</ele>
        <time>2022-08-05T21:10:08.805Z</time>
      </trkpt>
      <trkpt lat="45.92574" lon="14.71341">
        <ele>384.291095</ele>
        <time>2022-08-05T21:10:27.234Z</time>
      </trkpt>
      <trkpt lat="45.92612" lon="14.71283">
        <ele>385.227061</ele>
        <time>2022-08-05T21:10:44.345Z</time>
      </trkpt>
      <trkpt lat="45.9264" lon="14.71238">
        <ele>385.954858</ele>
        <time>2022-08-05T21:11:00.215Z</time>
      </trkpt>
      <trkpt lat="45.92646" lon="14.71222">
        <ele>386.170329</ele>
        <time>2022-08-05T21:11:04.880Z</time>
      </trkpt>
      <trkpt lat="45.92646" lon="14.71202">
        <ele>386.400702</ele>
        <time>2022-08-05T21:11:09.761Z</time>
      </trkpt>
      <trkpt lat="45.92622" lon="14.71109">
        <ele>388.272329</ele>
        <time>2022-08-05T21:11:38.668Z</time>
      </trkpt>
      <trkpt lat="45.92622" lon="14.71091">
        <ele>388.6638</ele>
        <time>2022-08-05T21:11:44.811Z</time>
      </trkpt>
      <trkpt lat="45.92629" lon="14.71063">
        <ele>389.30619</ele>
        <time>2022-08-05T21:11:54.656Z</time>
      </trkpt>
      <trkpt lat="45.92669" lon="14.70926">
        <ele>392.452971</ele>
        <time>2022-08-05T21:12:35.664Z</time>
      </trkpt>
      <trkpt lat="45.92714" lon="14.70877">
        <ele>394.052041</ele>
        <time>2022-08-05T21:12:59.052Z</time>
      </trkpt>
      <trkpt lat="45.92729" lon="14.70842">
        <ele>394.844035</ele>
        <time>2022-08-05T21:13:10.245Z</time>
      </trkpt>
      <trkpt lat="45.92741" lon="14.70745">
        <ele>396.770799</ele>
        <time>2022-08-05T21:13:38.835Z</time>
      </trkpt>
      <trkpt lat="45.92741" lon="14.70722">
        <ele>397.219142</ele>
        <time>2022-08-05T21:13:46.169Z</time>
      </trkpt>
      <trkpt lat="45.92711" lon="14.70532">
        <ele>398.022472</ele>
        <time>2022-08-05T21:14:32.726Z</time>
      </trkpt>
      <trkpt lat="45.92685" lon="14.70444">
        <ele>397.475103</ele>
        <time>2022-08-05T21:14:46.520Z</time>
      </trkpt>
      <trkpt lat="45.92689" lon="14.70399">
        <ele>396.15129</ele>
        <time>2022-08-05T21:14:52.548Z</time>
      </trkpt>
      <trkpt lat="45.92714" lon="14.70321">
        <ele>393.678747</ele>
        <time>2022-08-05T21:15:03.353Z</time>
      </trkpt>
      <trkpt lat="45.92715" lon="14.70307">
        <ele>393.280473</ele>
        <time>2022-08-05T21:15:05.110Z</time>
      </trkpt>
      <trkpt lat="45.92698" lon="14.70204">
        <ele>390.550775</ele>
        <time>2022-08-05T21:15:18.282Z</time>
      </trkpt>
      <trkpt lat="45.92707" lon="14.70137">
        <ele>389.697544</ele>
        <time>2022-08-05T21:15:27.460Z</time>
      </trkpt>
      <trkpt lat="45.92707" lon="14.70109">
        <ele>389.353023</ele>
        <time>2022-08-05T21:15:31.702Z</time>
      </trkpt>
      <trkpt lat="45.92698" lon="14.70072">
        <ele>388.872166</ele>
        <time>2022-08-05T21:15:38.780Z</time>
      </trkpt>
      <trkpt lat="45.9268" lon="14.70029">
        <ele>388.253629</ele>
        <time>2022-08-05T21:15:47.852Z</time>
      </trkpt>
      <trkpt lat="45.92675" lon="14.69998">
        <ele>387.862654</ele>
        <time>2022-08-05T21:15:53.594Z</time>
      </trkpt>
      <trkpt lat="45.92672" lon="14.69948">
        <ele>387.529666</ele>
        <time>2022-08-05T21:16:03.299Z</time>
      </trkpt>
      <trkpt lat="45.92675" lon="14.69897">
        <ele>387.414439</ele>
        <time>2022-08-05T21:16:12.588Z</time>
      </trkpt>
      <trkpt lat="45.92677" lon="14.69887">
        <ele>387.389184</ele>
        <time>2022-08-05T21:16:14.697Z</time>
      </trkpt>
      <trkpt lat="45.92695" lon="14.69793">
        <ele>387.165774</ele>
        <time>2022-08-05T21:16:31.946Z</time>
      </trkpt>
      <trkpt lat="45.92708" lon="14.69749">
        <ele>387.05653</ele>
        <time>2022-08-05T21:16:40.213Z</time>
      </trkpt>
      <trkpt lat="45.92758" lon="14.6964">
        <ele>386.206884</ele>
        <time>2022-08-05T21:17:00.929Z</time>
      </trkpt>
      <trkpt lat="45.92797" lon="14.69576">
        <ele>385.574591</ele>
        <time>2022-08-05T21:17:14.490Z</time>
      </trkpt>
      <trkpt lat="45.92807" lon="14.69556">
        <ele>385.395116</ele>
        <time>2022-08-05T21:17:18.182Z</time>
      </trkpt>
      <trkpt lat="45.92837" lon="14.69498">
        <ele>384.912788</ele>
        <time>2022-08-05T21:17:29.804Z</time>
      </trkpt>
      <trkpt lat="45.92857" lon="14.69476">
        <ele>384.703616</ele>
        <time>2022-08-05T21:17:35.669Z</time>
      </trkpt>
      <trkpt lat="45.92873" lon="14.69471">
        <ele>384.568483</ele>
        <time>2022-08-05T21:17:39.707Z</time>
      </trkpt>
      <trkpt lat="45.92894" lon="14.69477">
        <ele>384.390663</ele>
        <time>2022-08-05T21:17:44.741Z</time>
      </trkpt>
      <trkpt lat="45.92919" lon="14.69501">
        <ele>384.135268</ele>
        <time>2022-08-05T21:17:52.103Z</time>
      </trkpt>
      <trkpt lat="45.92945" lon="14.69544">
        <ele>383.802628</ele>
        <time>2022-08-05T21:18:01.858Z</time>
      </trkpt>
      <trkpt lat="45.92966" lon="14.69558">
        <ele>383.610866</ele>
        <time>2022-08-05T21:18:07.421Z</time>
      </trkpt>
      <trkpt lat="45.93079" lon="14.69533">
        <ele>381.00807</ele>
        <time>2022-08-05T21:18:32.894Z</time>
      </trkpt>
      <trkpt lat="45.93098" lon="14.69548">
        <ele>380.509201</ele>
        <time>2022-08-05T21:18:37.065Z</time>
      </trkpt>
      <trkpt lat="45.93115" lon="14.69578">
        <ele>379.886264</ele>
        <time>2022-08-05T21:18:42.067Z</time>
      </trkpt>
      <trkpt lat="45.93132" lon="14.69593">
        <ele>379.402514</ele>
        <time>2022-08-05T21:18:45.870Z</time>
      </trkpt>
      <trkpt lat="45.93153" lon="14.69596">
        <ele>378.4328</ele>
        <time>2022-08-05T21:18:49.812Z</time>
      </trkpt>
      <trkpt lat="45.93192" lon="14.69577">
        <ele>376.597955</ele>
        <time>2022-08-05T21:18:57.246Z</time>
      </trkpt>
      <trkpt lat="45.93245" lon="14.69521">
        <ele>373.608109</ele>
        <time>2022-08-05T21:19:09.355Z</time>
      </trkpt>
      <trkpt lat="45.93297" lon="14.69466">
        <ele>370.931206</ele>
        <time>2022-08-05T21:19:21.083Z</time>
      </trkpt>
      <trkpt lat="45.93318" lon="14.69429">
        <ele>370.029382</ele>
        <time>2022-08-05T21:19:27.397Z</time>
      </trkpt>
      <trkpt lat="45.93339" lon="14.69357">
        <ele>368.580005</ele>
        <time>2022-08-05T21:19:38.312Z</time>
      </trkpt>
      <trkpt lat="45.9335" lon="14.69274">
        <ele>367.004528</ele>
        <time>2022-08-05T21:19:51.036Z</time>
      </trkpt>
      <trkpt lat="45.93377" lon="14.69187">
        <ele>365.891443</ele>
        <time>2022-08-05T21:20:05.794Z</time>
      </trkpt>
      <trkpt lat="45.93377" lon="14.69186">
        <ele>365.884587</ele>
        <time>2022-08-05T21:20:05.884Z</time>
      </trkpt>
      <trkpt lat="45.93386" lon="14.69113">
        <ele>365.259054</ele>
        <time>2022-08-05T21:20:17.366Z</time>
      </trkpt>
      <trkpt lat="45.93378" lon="14.69056">
        <ele>364.77141</ele>
        <time>2022-08-05T21:20:26.385Z</time>
      </trkpt>
      <trkpt lat="45.93337" lon="14.6894">
        <ele>363.66661</ele>
        <time>2022-08-05T21:20:48.348Z</time>
      </trkpt>
      <trkpt lat="45.93334" lon="14.68918">
        <ele>363.475897</ele>
        <time>2022-08-05T21:20:52.195Z</time>
      </trkpt>
      <trkpt lat="45.93339" lon="14.68871">
        <ele>363.074907</ele>
        <time>2022-08-05T21:21:00.352Z</time>
      </trkpt>
      <trkpt lat="45.93362" lon="14.68808">
        <ele>362.476595</ele>
        <time>2022-08-05T21:21:11.400Z</time>
      </trkpt>
      <trkpt lat="45.93394" lon="14.68771">
        <ele>361.808313</ele>
        <time>2022-08-05T21:21:20.014Z</time>
      </trkpt>
      <trkpt lat="45.93423" lon="14.68738">
        <ele>360.678339</ele>
        <time>2022-08-05T21:21:27.391Z</time>
      </trkpt>
      <trkpt lat="45.93436" lon="14.68703">
        <ele>359.810768</ele>
        <time>2022-08-05T21:21:33.011Z</time>
      </trkpt>
      <trkpt lat="45.93436" lon="14.68686">
        <ele>359.444212</ele>
        <time>2022-08-05T21:21:35.322Z</time>
      </trkpt>
      <trkpt lat="45.93435" lon="14.68675">
        <ele>359.19368</ele>
        <time>2022-08-05T21:21:36.932Z</time>
      </trkpt>
      <trkpt lat="45.93433" lon="14.68637">
        <ele>358.36804</ele>
        <time>2022-08-05T21:21:42.088Z</time>
      </trkpt>
      <trkpt lat="45.93437" lon="14.68598">
        <ele>357.520372</ele>
        <time>2022-08-05T21:21:47.319Z</time>
      </trkpt>
      <trkpt lat="45.9347" lon="14.68416">
        <ele>353.72836</ele>
        <time>2022-08-05T21:22:11.643Z</time>
      </trkpt>
      <trkpt lat="45.93469" lon="14.68366">
        <ele>352.735343</ele>
        <time>2022-08-05T21:22:18.947Z</time>
      </trkpt>
      <trkpt lat="45.93459" lon="14.68298">
        <ele>351.384667</ele>
        <time>2022-08-05T21:22:29.790Z</time>
      </trkpt>
      <trkpt lat="45.93459" lon="14.68263">
        <ele>351.679299</ele>
        <time>2022-08-05T21:22:35.618Z</time>
      </trkpt>
      <trkpt lat="45.93468" lon="14.68232">
        <ele>351.964192</ele>
        <time>2022-08-05T21:22:42.165Z</time>
      </trkpt>
      <trkpt lat="45.93507" lon="14.68174">
        <ele>352.646413</ele>
        <time>2022-08-05T21:22:59.995Z</time>
      </trkpt>
      <trkpt lat="45.9351" lon="14.6817">
        <ele>352.696846</ele>
        <time>2022-08-05T21:23:01.586Z</time>
      </trkpt>
      <trkpt lat="45.9352" lon="14.68158">
        <ele>352.857244</ele>
        <time>2022-08-05T21:23:06.553Z</time>
      </trkpt>
      <trkpt lat="45.93514" lon="14.68147">
        <ele>352.974737</ele>
        <time>2022-08-05T21:23:09.187Z</time>
      </trkpt>
      <trkpt lat="45.93515" lon="14.6812">
        <ele>353.207181</ele>
        <time>2022-08-05T21:23:17.548Z</time>
      </trkpt>
      <trkpt lat="45.93536" lon="14.68052">
        <ele>353.584646</ele>
        <time>2022-08-05T21:23:37.743Z</time>
      </trkpt>
      <trkpt lat="45.93543" lon="14.68012">
        <ele>353.591607</ele>
        <time>2022-08-05T21:23:50.465Z</time>
      </trkpt>
      <trkpt lat="45.93576" lon="14.67991">
        <ele>353.600257</ele>
        <time>2022-08-05T21:24:04.437Z</time>
      </trkpt>
      <trkpt lat="45.93586" lon="14.67968">
        <ele>353.604918</ele>
        <time>2022-08-05T21:24:08.957Z</time>
      </trkpt>
      <trkpt lat="45.93588" lon="14.67941">
        <ele>353.609469</ele>
        <time>2022-08-05T21:24:13.554Z</time>
      </trkpt>
      <trkpt lat="45.93575" lon="14.67848">
        <ele>352.943542</ele>
        <time>2022-08-05T21:24:27.065Z</time>
      </trkpt>
      <trkpt lat="45.93574" lon="14.67799">
        <ele>350.586605</ele>
        <time>2022-08-05T21:24:33.187Z</time>
      </trkpt>
      <trkpt lat="45.93578" lon="14.67783">
        <ele>349.807772</ele>
        <time>2022-08-05T21:24:35.163Z</time>
      </trkpt>
      <trkpt lat="45.93586" lon="14.67748">
        <ele>348.044045</ele>
        <time>2022-08-05T21:24:39.552Z</time>
      </trkpt>
      <trkpt lat="45.93588" lon="14.67721">
        <ele>346.75179</ele>
        <time>2022-08-05T21:24:42.717Z</time>
      </trkpt>
      <trkpt lat="45.93583" lon="14.67698">
        <ele>345.61171</ele>
        <time>2022-08-05T21:24:45.561Z</time>
      </trkpt>
      <trkpt lat="45.93567" lon="14.67683">
        <ele>344.321839</ele>
        <time>2022-08-05T21:24:48.684Z</time>
      </trkpt>
      <trkpt lat="45.93551" lon="14.67674">
        <ele>343.162908</ele>
        <time>2022-08-05T21:24:51.522Z</time>
      </trkpt>
      <trkpt lat="45.9355" lon="14.67663">
        <ele>342.650257</ele>
        <time>2022-08-05T21:24:52.769Z</time>
      </trkpt>
      <trkpt lat="45.93553" lon="14.67657">
        <ele>342.302984</ele>
        <time>2022-08-05T21:24:53.604Z</time>
      </trkpt>
      <trkpt lat="45.93562" lon="14.67638">
        <ele>341.194642</ele>
        <time>2022-08-05T21:24:56.257Z</time>
      </trkpt>
      <trkpt lat="45.9356" lon="14.67613">
        <ele>340.002772</ele>
        <time>2022-08-05T21:24:59.137Z</time>
      </trkpt>
      <trkpt lat="45.93566" lon="14.67348">
        <ele>328.393422</ele>
        <time>2022-08-05T21:25:31.035Z</time>
      </trkpt>
      <trkpt lat="45.93564" lon="14.67324">
        <ele>327.964652</ele>
        <time>2022-08-05T21:25:34.290Z</time>
      </trkpt>
      <trkpt lat="45.9356" lon="14.67305">
        <ele>327.602765</ele>
        <time>2022-08-05T21:25:37.027Z</time>
      </trkpt>
      <trkpt lat="45.93557" lon="14.67287">
        <ele>327.280066</ele>
        <time>2022-08-05T21:25:39.535Z</time>
      </trkpt>
      <trkpt lat="45.9355" lon="14.67259">
        <ele>326.741922</ele>
        <time>2022-08-05T21:25:43.734Z</time>
      </trkpt>
      <trkpt lat="45.93477" lon="14.67019">
        <ele>325.231215</ele>
        <time>2022-08-05T21:26:27.780Z</time>
      </trkpt>
      <trkpt lat="45.93476" lon="14.66996">
        <ele>325.380904</ele>
        <time>2022-08-05T21:26:33.358Z</time>
      </trkpt>
      <trkpt lat="45.93483" lon="14.66979">
        <ele>325.504909</ele>
        <time>2022-08-05T21:26:38.546Z</time>
      </trkpt>
      <trkpt lat="45.93526" lon="14.66923">
        <ele>326.044946</ele>
        <time>2022-08-05T21:27:01.688Z</time>
      </trkpt>
      <trkpt lat="45.93547" lon="14.66903">
        <ele>326.619805</ele>
        <time>2022-08-05T21:27:12.016Z</time>
      </trkpt>
      <trkpt lat="45.93556" lon="14.66883">
        <ele>327.001118</ele>
        <time>2022-08-05T21:27:18.443Z</time>
      </trkpt>
      <trkpt lat="45.93561" lon="14.66868">
        <ele>327.265292</ele>
        <time>2022-08-05T21:27:23.006Z</time>
      </trkpt>
      <trkpt lat="45.93592" lon="14.66825">
        <ele>328.281065</ele>
        <time>2022-08-05T21:27:40.179Z</time>
      </trkpt>
      <trkpt lat="45.93594" lon="14.66819">
        <ele>328.377286</ele>
        <time>2022-08-05T21:27:41.880Z</time>
      </trkpt>
      <trkpt lat="45.936" lon="14.66767">
        <ele>329.233792</ele>
        <time>2022-08-05T21:27:54.873Z</time>
      </trkpt>
      <trkpt lat="45.93596" lon="14.66748">
        <ele>329.555195</ele>
        <time>2022-08-05T21:27:59.265Z</time>
      </trkpt>
      <trkpt lat="45.93602" lon="14.66695">
        <ele>330.250239</ele>
        <time>2022-08-05T21:28:12.973Z</time>
      </trkpt>
      <trkpt lat="45.93629" lon="14.66643">
        <ele>330.294971</ele>
        <time>2022-08-05T21:28:30.285Z</time>
      </trkpt>
      <trkpt lat="45.93649" lon="14.6659">
        <ele>330.335377</ele>
        <time>2022-08-05T21:28:42.622Z</time>
      </trkpt>
      <trkpt lat="45.93661" lon="14.6657">
        <ele>330.352953</ele>
        <time>2022-08-05T21:28:46.615Z</time>
      </trkpt>
      <trkpt lat="45.93684" lon="14.66554">
        <ele>330.378627</ele>
        <time>2022-08-05T21:28:52.649Z</time>
      </trkpt>
      <trkpt lat="45.93753" lon="14.66542">
        <ele>329.904339</ele>
        <time>2022-08-05T21:29:07.543Z</time>
      </trkpt>
      <trkpt lat="45.93769" lon="14.66494">
        <ele>329.22945</ele>
        <time>2022-08-05T21:29:15.496Z</time>
      </trkpt>
      <trkpt lat="45.93774" lon="14.66476">
        <ele>328.977537</ele>
        <time>2022-08-05T21:29:18.390Z</time>
      </trkpt>
      <trkpt lat="45.93788" lon="14.66445">
        <ele>328.512452</ele>
        <time>2022-08-05T21:29:28.616Z</time>
      </trkpt>
      <trkpt lat="45.93842" lon="14.66382">
        <ele>327.25097</ele>
        <time>2022-08-05T21:29:54.785Z</time>
      </trkpt>
      <trkpt lat="45.93869" lon="14.66319">
        <ele>326.719402</ele>
        <time>2022-08-05T21:30:13.750Z</time>
      </trkpt>
      <trkpt lat="45.93932" lon="14.66257">
        <ele>326.016259</ele>
        <time>2022-08-05T21:30:44.935Z</time>
      </trkpt>
      <trkpt lat="45.93958" lon="14.66221">
        <ele>325.68795</ele>
        <time>2022-08-05T21:31:00.644Z</time>
      </trkpt>
      <trkpt lat="45.93981" lon="14.66133">
        <ele>325.650812</ele>
        <time>2022-08-05T21:31:30.817Z</time>
      </trkpt>
      <trkpt lat="45.94005" lon="14.66081">
        <ele>325.819976</ele>
        <time>2022-08-05T21:31:50.908Z</time>
      </trkpt>
      <trkpt lat="45.9407" lon="14.65972">
        <ele>326.214312</ele>
        <time>2022-08-05T21:32:37.982Z</time>
      </trkpt>
      <trkpt lat="45.94131" lon="14.65891">
        <ele>326.528754</ele>
        <time>2022-08-05T21:33:16.531Z</time>
      </trkpt>
      <trkpt lat="45.94165" lon="14.65849">
        <ele>326.695805</ele>
        <time>2022-08-05T21:33:36.907Z</time>
      </trkpt>
      <trkpt lat="45.94209" lon="14.6581">
        <ele>326.891904</ele>
        <time>2022-08-05T21:34:00.640Z</time>
      </trkpt>
      <trkpt lat="45.94232" lon="14.65781">
        <ele>327.022841</ele>
        <time>2022-08-05T21:34:15.173Z</time>
      </trkpt>
      <trkpt lat="45.9427" lon="14.6576">
        <ele>327.192669</ele>
        <time>2022-08-05T21:34:33.913Z</time>
      </trkpt>
      <trkpt lat="45.94351" lon="14.6574">
        <ele>327.531517</ele>
        <time>2022-08-05T21:35:11.643Z</time>
      </trkpt>
      <trkpt lat="45.94494" lon="14.65684">
        <ele>328.034107</ele>
        <time>2022-08-05T21:35:55.347Z</time>
      </trkpt>
      <trkpt lat="45.94638" lon="14.65621">
        <ele>328.110539</ele>
        <time>2022-08-05T21:36:34.408Z</time>
      </trkpt>
      <trkpt lat="45.94631" lon="14.65543">
        <ele>328.058953</ele>
        <time>2022-08-05T21:36:48.783Z</time>
      </trkpt>
      <trkpt lat="45.94635" lon="14.65495">
        <ele>328.10073</ele>
        <time>2022-08-05T21:36:58.224Z</time>
      </trkpt>
      <trkpt lat="45.9465" lon="14.65424">
        <ele>328.623972</ele>
        <time>2022-08-05T21:37:13.652Z</time>
      </trkpt>
      <trkpt lat="45.94653" lon="14.65407">
        <ele>328.750666</ele>
        <time>2022-08-05T21:37:17.382Z</time>
      </trkpt>
      <trkpt lat="45.94728" lon="14.65471">
        <ele>329.643658</ele>
        <time>2022-08-05T21:37:47.248Z</time>
      </trkpt>
      <trkpt lat="45.94799" lon="14.65537">
        <ele>330.423535</ele>
        <time>2022-08-05T21:38:16.345Z</time>
      </trkpt>
      <trkpt lat="45.94835" lon="14.65554">
        <ele>330.760877</ele>
        <time>2022-08-05T21:38:27.949Z</time>
      </trkpt>
      <trkpt lat="45.94858" lon="14.65556">
        <ele>330.968963</ele>
        <time>2022-08-05T21:38:35.062Z</time>
      </trkpt>
      <trkpt lat="45.94892" lon="14.65547">
        <ele>331.276662</ele>
        <time>2022-08-05T21:38:45.192Z</time>
      </trkpt>
      <trkpt lat="45.94971" lon="14.65513">
        <ele>331.492068</ele>
        <time>2022-08-05T21:39:06.764Z</time>
      </trkpt>
      <trkpt lat="45.95002" lon="14.65502">
        <ele>331.50416</ele>
        <time>2022-08-05T21:39:14.498Z</time>
      </trkpt>
      <trkpt lat="45.95046" lon="14.65491">
        <ele>331.521379</ele>
        <time>2022-08-05T21:39:25.459Z</time>
      </trkpt>
      <trkpt lat="45.95126" lon="14.65485">
        <ele>332.037312</ele>
        <time>2022-08-05T21:39:49.222Z</time>
      </trkpt>
      <trkpt lat="45.95145" lon="14.65486">
        <ele>332.297751</ele>
        <time>2022-08-05T21:39:56.071Z</time>
      </trkpt>
      <trkpt lat="45.95188" lon="14.65489">
        <ele>332.872561</ele>
        <time>2022-08-05T21:40:10.748Z</time>
      </trkpt>
      <trkpt lat="45.95203" lon="14.65504">
        <ele>333.123246</ele>
        <time>2022-08-05T21:40:17.278Z</time>
      </trkpt>
      <trkpt lat="45.95214" lon="14.65535">
        <ele>333.451402</ele>
        <time>2022-08-05T21:40:25.775Z</time>
      </trkpt>
      <trkpt lat="45.95224" lon="14.65557">
        <ele>333.689654</ele>
        <time>2022-08-05T21:40:32.374Z</time>
      </trkpt>
      <trkpt lat="45.95266" lon="14.65522">
        <ele>334.134599</ele>
        <time>2022-08-05T21:40:49.373Z</time>
      </trkpt>
      <trkpt lat="45.95376" lon="14.65437">
        <ele>334.936085</ele>
        <time>2022-08-05T21:41:27.291Z</time>
      </trkpt>
      <trkpt lat="45.95415" lon="14.6541">
        <ele>335.015843</ele>
        <time>2022-08-05T21:41:37.260Z</time>
      </trkpt>
      <trkpt lat="45.95421" lon="14.65405">
        <ele>334.982902</ele>
        <time>2022-08-05T21:41:38.830Z</time>
      </trkpt>
      <trkpt lat="45.9546" lon="14.65381">
        <ele>334.776265</ele>
        <time>2022-08-05T21:41:48.865Z</time>
      </trkpt>
      <trkpt lat="45.95491" lon="14.65363">
        <ele>334.610178</ele>
        <time>2022-08-05T21:41:57.067Z</time>
      </trkpt>
      <trkpt lat="45.95495" lon="14.6536">
        <ele>334.590556</ele>
        <time>2022-08-05T21:41:58.016Z</time>
      </trkpt>
      <trkpt lat="45.95536" lon="14.65336">
        <ele>334.372431</ele>
        <time>2022-08-05T21:42:08.646Z</time>
      </trkpt>
      <trkpt lat="45.95554" lon="14.65326">
        <ele>334.281666</ele>
        <time>2022-08-05T21:42:13.312Z</time>
      </trkpt>
      <trkpt lat="45.95571" lon="14.65317">
        <ele>334.27519</ele>
        <time>2022-08-05T21:42:18.107Z</time>
      </trkpt>
      <trkpt lat="45.95587" lon="14.65308">
        <ele>334.407822</ele>
        <time>2022-08-05T21:42:23.074Z</time>
      </trkpt>
      <trkpt lat="45.95599" lon="14.65304">
        <ele>334.494985</ele>
        <time>2022-08-05T21:42:26.337Z</time>
      </trkpt>
      <trkpt lat="45.95611" lon="14.65301">
        <ele>334.588346</ele>
        <time>2022-08-05T21:42:29.890Z</time>
      </trkpt>
      <trkpt lat="45.95623" lon="14.65299">
        <ele>334.685441</ele>
        <time>2022-08-05T21:42:33.763Z</time>
      </trkpt>
      <trkpt lat="45.95633" lon="14.65298">
        <ele>334.759255</ele>
        <time>2022-08-05T21:42:36.767Z</time>
      </trkpt>
      <trkpt lat="45.95684" lon="14.6529">
        <ele>335.14996</ele>
        <time>2022-08-05T21:42:53.387Z</time>
      </trkpt>
      <trkpt lat="45.95701" lon="14.6529">
        <ele>335.286126</ele>
        <time>2022-08-05T21:42:59.215Z</time>
      </trkpt>
      <trkpt lat="45.95714" lon="14.6529">
        <ele>335.382513</ele>
        <time>2022-08-05T21:43:03.481Z</time>
      </trkpt>
      <trkpt lat="45.95741" lon="14.65302">
        <ele>335.59979</ele>
        <time>2022-08-05T21:43:12.643Z</time>
      </trkpt>
      <trkpt lat="45.95752" lon="14.6531">
        <ele>335.621159</ele>
        <time>2022-08-05T21:43:16.587Z</time>
      </trkpt>
      <trkpt lat="45.95751" lon="14.65323">
        <ele>335.637756</ele>
        <time>2022-08-05T21:43:19.539Z</time>
      </trkpt>
      <trkpt lat="45.95759" lon="14.65335">
        <ele>335.657735</ele>
        <time>2022-08-05T21:43:23.140Z</time>
      </trkpt>
      <trkpt lat="45.95771" lon="14.65327">
        <ele>335.680674</ele>
        <time>2022-08-05T21:43:27.265Z</time>
      </trkpt>
      <trkpt lat="45.95772" lon="14.65323">
        <ele>335.68637</ele>
        <time>2022-08-05T21:43:28.264Z</time>
      </trkpt>
      <trkpt lat="45.95772" lon="14.65313">
        <ele>335.6976</ele>
        <time>2022-08-05T21:43:30.075Z</time>
      </trkpt>
      <trkpt lat="45.95765" lon="14.65304">
        <ele>335.714081</ele>
        <time>2022-08-05T21:43:32.800Z</time>
      </trkpt>
      <trkpt lat="45.95774" lon="14.6528">
        <ele>335.746251</ele>
        <time>2022-08-05T21:43:38.298Z</time>
      </trkpt>
      <trkpt lat="45.95778" lon="14.65266">
        <ele>335.764768</ele>
        <time>2022-08-05T21:43:41.138Z</time>
      </trkpt>
      <trkpt lat="45.95781" lon="14.65255">
        <ele>335.778803</ele>
        <time>2022-08-05T21:43:43.322Z</time>
      </trkpt>
      <trkpt lat="45.95828" lon="14.65142">
        <ele>335.847396</ele>
        <time>2022-08-05T21:44:07.817Z</time>
      </trkpt>
      <trkpt lat="45.9585" lon="14.65102">
        <ele>335.698823</ele>
        <time>2022-08-05T21:44:16.635Z</time>
      </trkpt>
      <trkpt lat="45.95854" lon="14.65094">
        <ele>335.671039</ele>
        <time>2022-08-05T21:44:18.381Z</time>
      </trkpt>
      <trkpt lat="45.95872" lon="14.65073">
        <ele>335.570119</ele>
        <time>2022-08-05T21:44:24.025Z</time>
      </trkpt>
      <trkpt lat="45.9588" lon="14.65074">
        <ele>335.538121</ele>
        <time>2022-08-05T21:44:26.198Z</time>
      </trkpt>
      <trkpt lat="45.9589" lon="14.65059">
        <ele>335.477145</ele>
        <time>2022-08-05T21:44:29.828Z</time>
      </trkpt>
      <trkpt lat="45.95888" lon="14.65049">
        <ele>335.444954</ele>
        <time>2022-08-05T21:44:31.498Z</time>
      </trkpt>
      <trkpt lat="45.95903" lon="14.65006">
        <ele>335.30469</ele>
        <time>2022-08-05T21:44:39.733Z</time>
      </trkpt>
      <trkpt lat="45.95939" lon="14.6492">
        <ele>335.00477</ele>
        <time>2022-08-05T21:44:58.658Z</time>
      </trkpt>
      <trkpt lat="45.95965" lon="14.64848">
        <ele>334.758498</ele>
        <time>2022-08-05T21:45:13.502Z</time>
      </trkpt>
      <trkpt lat="45.95961" lon="14.64842">
        <ele>334.73234</ele>
        <time>2022-08-05T21:45:14.833Z</time>
      </trkpt>
      <trkpt lat="45.95991" lon="14.64772">
        <ele>334.483175</ele>
        <time>2022-08-05T21:45:28.759Z</time>
      </trkpt>
      <trkpt lat="45.96016" lon="14.64702">
        <ele>334.196393</ele>
        <time>2022-08-05T21:45:42.387Z</time>
      </trkpt>
      <trkpt lat="45.96013" lon="14.6468">
        <ele>334.102056</ele>
        <time>2022-08-05T21:45:46.299Z</time>
      </trkpt>
      <trkpt lat="45.95999" lon="14.64666">
        <ele>334.001721</ele>
        <time>2022-08-05T21:45:50.556Z</time>
      </trkpt>
      <trkpt lat="45.96001" lon="14.64658">
        <ele>333.961403</ele>
        <time>2022-08-05T21:45:52.019Z</time>
      </trkpt>
      <trkpt lat="45.96004" lon="14.64645">
        <ele>333.908611</ele>
        <time>2022-08-05T21:45:54.310Z</time>
      </trkpt>
      <trkpt lat="45.96018" lon="14.64648">
        <ele>333.822614</ele>
        <time>2022-08-05T21:45:58.261Z</time>
      </trkpt>
      <trkpt lat="45.96043" lon="14.64642">
        <ele>333.670134</ele>
        <time>2022-08-05T21:46:04.288Z</time>
      </trkpt>
      <trkpt lat="45.9606" lon="14.64612">
        <ele>333.50888</ele>
        <time>2022-08-05T21:46:10.615Z</time>
      </trkpt>
      <trkpt lat="45.96072" lon="14.6459">
        <ele>333.38971</ele>
        <time>2022-08-05T21:46:15.615Z</time>
      </trkpt>
      <trkpt lat="45.96076" lon="14.64565">
        <ele>333.286012</ele>
        <time>2022-08-05T21:46:19.363Z</time>
      </trkpt>
      <trkpt lat="45.96088" lon="14.64556">
        <ele>333.134783</ele>
        <time>2022-08-05T21:46:22.951Z</time>
      </trkpt>
      <trkpt lat="45.96098" lon="14.64528">
        <ele>332.895471</ele>
        <time>2022-08-05T21:46:28.020Z</time>
      </trkpt>
      <trkpt lat="45.96128" lon="14.64479">
        <ele>332.410059</ele>
        <time>2022-08-05T21:46:39.083Z</time>
      </trkpt>
      <trkpt lat="45.96133" lon="14.64484">
        <ele>332.343</ele>
        <time>2022-08-05T21:46:41.299Z</time>
      </trkpt>
      <trkpt lat="45.96173" lon="14.64412">
        <ele>331.648138</ele>
        <time>2022-08-05T21:46:55.687Z</time>
      </trkpt>
      <trkpt lat="45.96211" lon="14.64347">
        <ele>331.014113</ele>
        <time>2022-08-05T21:47:08.641Z</time>
      </trkpt>
      <trkpt lat="45.96252" lon="14.64296">
        <ele>330.440578</ele>
        <time>2022-08-05T21:47:20.320Z</time>
      </trkpt>
      <trkpt lat="45.96326" lon="14.64212">
        <ele>329.435392</ele>
        <time>2022-08-05T21:47:42.515Z</time>
      </trkpt>
      <trkpt lat="45.96359" lon="14.64135">
        <ele>329.769755</ele>
        <time>2022-08-05T21:47:59.317Z</time>
      </trkpt>
      <trkpt lat="45.96371" lon="14.64088">
        <ele>329.966227</ele>
        <time>2022-08-05T21:48:09.500Z</time>
      </trkpt>
      <trkpt lat="45.9639" lon="14.64004">
        <ele>330.305294</ele>
        <time>2022-08-05T21:48:28.420Z</time>
      </trkpt>
      <trkpt lat="45.96419" lon="14.63882">
        <ele>331.67604</ele>
        <time>2022-08-05T21:48:59.165Z</time>
      </trkpt>
      <trkpt lat="45.96443" lon="14.63762">
        <ele>333.293792</ele>
        <time>2022-08-05T21:49:31.877Z</time>
      </trkpt>
      <trkpt lat="45.96462" lon="14.63701">
        <ele>333.996896</ele>
        <time>2022-08-05T21:49:48.701Z</time>
      </trkpt>
      <trkpt lat="45.96475" lon="14.63676">
        <ele>334.252448</ele>
        <time>2022-08-05T21:49:56.575Z</time>
      </trkpt>
      <trkpt lat="45.96506" lon="14.63632">
        <ele>334.76226</ele>
        <time>2022-08-05T21:50:10.733Z</time>
      </trkpt>
      <trkpt lat="45.9657" lon="14.63586">
        <ele>335.592028</ele>
        <time>2022-08-05T21:50:33.148Z</time>
      </trkpt>
      <trkpt lat="45.96561" lon="14.63546">
        <ele>335.828152</ele>
        <time>2022-08-05T21:50:42.058Z</time>
      </trkpt>
      <trkpt lat="45.96562" lon="14.63513">
        <ele>335.796189</ele>
        <time>2022-08-05T21:50:47.795Z</time>
      </trkpt>
      <trkpt lat="45.96598" lon="14.63455">
        <ele>335.720642</ele>
        <time>2022-08-05T21:51:01.946Z</time>
      </trkpt>
      <trkpt lat="45.96661" lon="14.63348">
        <ele>335.571653</ele>
        <time>2022-08-05T21:51:26.037Z</time>
      </trkpt>
      <trkpt lat="45.96702" lon="14.63268">
        <ele>335.138639</ele>
        <time>2022-08-05T21:51:43.801Z</time>
      </trkpt>
      <trkpt lat="45.96731" lon="14.63207">
        <ele>334.818783</ele>
        <time>2022-08-05T21:51:56.319Z</time>
      </trkpt>
      <trkpt lat="45.96735" lon="14.632">
        <ele>334.779914</ele>
        <time>2022-08-05T21:51:57.857Z</time>
      </trkpt>
      <trkpt lat="45.96743" lon="14.63185">
        <ele>334.699285</ele>
        <time>2022-08-05T21:52:01.001Z</time>
      </trkpt>
      <trkpt lat="45.96753" lon="14.63165">
        <ele>334.589374</ele>
        <time>2022-08-05T21:52:05.155Z</time>
      </trkpt>
      <trkpt lat="45.96789" lon="14.63097">
        <ele>333.968319</ele>
        <time>2022-08-05T21:52:18.677Z</time>
      </trkpt>
      <trkpt lat="45.96809" lon="14.63059">
        <ele>333.554039</ele>
        <time>2022-08-05T21:52:25.723Z</time>
      </trkpt>
      <trkpt lat="45.96845" lon="14.62992">
        <ele>332.80302</ele>
        <time>2022-08-05T21:52:38.600Z</time>
      </trkpt>
      <trkpt lat="45.96861" lon="14.62965">
        <ele>332.497333</ele>
        <time>2022-08-05T21:52:44.020Z</time>
      </trkpt>
      <trkpt lat="45.96869" lon="14.62951">
        <ele>332.338358</ele>
        <time>2022-08-05T21:52:46.925Z</time>
      </trkpt>
      <trkpt lat="45.96932" lon="14.62845">
        <ele>332.458481</ele>
        <time>2022-08-05T21:53:11.237Z</time>
      </trkpt>
      <trkpt lat="45.96985" lon="14.62751">
        <ele>332.718141</ele>
        <time>2022-08-05T21:53:36.357Z</time>
      </trkpt>
      <trkpt lat="45.97069" lon="14.62562">
        <ele>335.493932</ele>
        <time>2022-08-05T21:54:33.701Z</time>
      </trkpt>
      <trkpt lat="45.97112" lon="14.62477">
        <ele>336.827783</ele>
        <time>2022-08-05T21:54:59.477Z</time>
      </trkpt>
      <trkpt lat="45.97139" lon="14.62407">
        <ele>337.8323</ele>
        <time>2022-08-05T21:55:19.241Z</time>
      </trkpt>
      <trkpt lat="45.97143" lon="14.62399">
        <ele>337.94203</ele>
        <time>2022-08-05T21:55:21.332Z</time>
      </trkpt>
      <trkpt lat="45.97156" lon="14.62368">
        <ele>338.407911</ele>
        <time>2022-08-05T21:55:30.528Z</time>
      </trkpt>
      <trkpt lat="45.97181" lon="14.62312">
        <ele>339.22758</ele>
        <time>2022-08-05T21:55:46.528Z</time>
      </trkpt>
      <trkpt lat="45.97252" lon="14.62164">
        <ele>341.738167</ele>
        <time>2022-08-05T21:56:31.079Z</time>
      </trkpt>
      <trkpt lat="45.97311" lon="14.62033">
        <ele>343.955206</ele>
        <time>2022-08-05T21:57:12.385Z</time>
      </trkpt>
      <trkpt lat="45.97341" lon="14.61962">
        <ele>345.146828</ele>
        <time>2022-08-05T21:57:34.008Z</time>
      </trkpt>
      <trkpt lat="45.97356" lon="14.61918">
        <ele>345.852496</ele>
        <time>2022-08-05T21:57:46.552Z</time>
      </trkpt>
      <trkpt lat="45.97441" lon="14.61701">
        <ele>348.603185</ele>
        <time>2022-08-05T21:58:45.535Z</time>
      </trkpt>
      <trkpt lat="45.97494" lon="14.61557">
        <ele>350.209446</ele>
        <time>2022-08-05T21:59:21.749Z</time>
      </trkpt>
      <trkpt lat="45.97512" lon="14.61509">
        <ele>350.738449</ele>
        <time>2022-08-05T21:59:34.322Z</time>
      </trkpt>
      <trkpt lat="45.97542" lon="14.61428">
        <ele>351.632709</ele>
        <time>2022-08-05T21:59:56.061Z</time>
      </trkpt>
      <trkpt lat="45.97554" lon="14.61386">
        <ele>352.110574</ele>
        <time>2022-08-05T22:00:06.979Z</time>
      </trkpt>
      <trkpt lat="45.97557" lon="14.61374">
        <ele>352.257694</ele>
        <time>2022-08-05T22:00:10.133Z</time>
      </trkpt>
      <trkpt lat="45.97564" lon="14.61342">
        <ele>352.635621</ele>
        <time>2022-08-05T22:00:18.497Z</time>
      </trkpt>
      <trkpt lat="45.97584" lon="14.61242">
        <ele>353.817825</ele>
        <time>2022-08-05T22:00:44.157Z</time>
      </trkpt>
      <trkpt lat="45.97593" lon="14.61193">
        <ele>354.382044</ele>
        <time>2022-08-05T22:00:56.066Z</time>
      </trkpt>
      <trkpt lat="45.976" lon="14.61161">
        <ele>354.746238</ele>
        <time>2022-08-05T22:01:03.832Z</time>
      </trkpt>
      <trkpt lat="45.97605" lon="14.61139">
        <ele>354.799558</ele>
        <time>2022-08-05T22:01:09.235Z</time>
      </trkpt>
      <trkpt lat="45.97607" lon="14.61131">
        <ele>354.817934</ele>
        <time>2022-08-05T22:01:11.025Z</time>
      </trkpt>
      <trkpt lat="45.9761" lon="14.61119">
        <ele>354.846863</ele>
        <time>2022-08-05T22:01:13.846Z</time>
      </trkpt>
      <trkpt lat="45.97614" lon="14.61105">
        <ele>354.878445</ele>
        <time>2022-08-05T22:01:16.981Z</time>
      </trkpt>
      <trkpt lat="45.97648" lon="14.60979">
        <ele>355.182784</ele>
        <time>2022-08-05T22:01:46.390Z</time>
      </trkpt>
      <trkpt lat="45.97656" lon="14.60922">
        <ele>355.313277</ele>
        <time>2022-08-05T22:01:56.688Z</time>
      </trkpt>
      <trkpt lat="45.97659" lon="14.60789">
        <ele>353.163829</ele>
        <time>2022-08-05T22:02:14.866Z</time>
      </trkpt>
      <trkpt lat="45.97673" lon="14.60746">
        <ele>352.367145</ele>
        <time>2022-08-05T22:02:21.163Z</time>
      </trkpt>
      <trkpt lat="45.9769" lon="14.60719">
        <ele>351.751413</ele>
        <time>2022-08-05T22:02:26.428Z</time>
      </trkpt>
      <trkpt lat="45.97708" lon="14.60698">
        <ele>351.207064</ele>
        <time>2022-08-05T22:02:31.143Z</time>
      </trkpt>
      <trkpt lat="45.97758" lon="14.60584">
        <ele>350.884253</ele>
        <time>2022-08-05T22:02:51.726Z</time>
      </trkpt>
      <trkpt lat="45.97766" lon="14.60566">
        <ele>350.865911</ele>
        <time>2022-08-05T22:02:55.050Z</time>
      </trkpt>
      <trkpt lat="45.97773" lon="14.60556">
        <ele>350.85392</ele>
        <time>2022-08-05T22:02:57.605Z</time>
      </trkpt>
      <trkpt lat="45.97792" lon="14.60552">
        <ele>350.829955</ele>
        <time>2022-08-05T22:03:03.270Z</time>
      </trkpt>
      <trkpt lat="45.97802" lon="14.60562">
        <ele>350.814649</ele>
        <time>2022-08-05T22:03:06.583Z</time>
      </trkpt>
      <trkpt lat="45.97814" lon="14.60558">
        <ele>350.799065</ele>
        <time>2022-08-05T22:03:11.116Z</time>
      </trkpt>
      <trkpt lat="45.97818" lon="14.60547">
        <ele>350.78794</ele>
        <time>2022-08-05T22:03:15.056Z</time>
      </trkpt>
      <trkpt lat="45.97814" lon="14.60526">
        <ele>350.769394</ele>
        <time>2022-08-05T22:03:20.676Z</time>
      </trkpt>
      <trkpt lat="45.9781" lon="14.60523">
        <ele>350.813757</ele>
        <time>2022-08-05T22:03:22.411Z</time>
      </trkpt>
      <trkpt lat="45.97815" lon="14.60486">
        <ele>351.492725</ele>
        <time>2022-08-05T22:03:33.581Z</time>
      </trkpt>
      <trkpt lat="45.97839" lon="14.60441">
        <ele>352.516016</ele>
        <time>2022-08-05T22:03:51.098Z</time>
      </trkpt>
      <trkpt lat="45.9789" lon="14.60371">
        <ele>354.354107</ele>
        <time>2022-08-05T22:04:19.883Z</time>
      </trkpt>
      <trkpt lat="45.97931" lon="14.60291">
        <ele>356.036124</ele>
        <time>2022-08-05T22:04:44.118Z</time>
      </trkpt>
      <trkpt lat="45.97962" lon="14.60252">
        <ele>356.951135</ele>
        <time>2022-08-05T22:04:57.050Z</time>
      </trkpt>
      <trkpt lat="45.98042" lon="14.60171">
        <ele>359.1082</ele>
        <time>2022-08-05T22:05:34.117Z</time>
      </trkpt>
      <trkpt lat="45.98075" lon="14.60116">
        <ele>360.452958</ele>
        <time>2022-08-05T22:05:56.012Z</time>
      </trkpt>
      <trkpt lat="45.98125" lon="14.60021">
        <ele>362.823798</ele>
        <time>2022-08-05T22:06:32.492Z</time>
      </trkpt>
      <trkpt lat="45.98164" lon="14.59961">
        <ele>364.450943</ele>
        <time>2022-08-05T22:06:55.163Z</time>
      </trkpt>
      <trkpt lat="45.98166" lon="14.59951">
        <ele>364.511267</ele>
        <time>2022-08-05T22:06:57.563Z</time>
      </trkpt>
      <trkpt lat="45.98168" lon="14.59905">
        <ele>364.14879</ele>
        <time>2022-08-05T22:07:06.570Z</time>
      </trkpt>
      <trkpt lat="45.98154" lon="14.59845">
        <ele>363.650118</ele>
        <time>2022-08-05T22:07:18.180Z</time>
      </trkpt>
      <trkpt lat="45.98131" lon="14.59802">
        <ele>363.219659</ele>
        <time>2022-08-05T22:07:27.973Z</time>
      </trkpt>
      <trkpt lat="45.98074" lon="14.59752">
        <ele>362.202452</ele>
        <time>2022-08-05T22:07:40.973Z</time>
      </trkpt>
      <trkpt lat="45.98075" lon="14.59735">
        <ele>361.427227</ele>
        <time>2022-08-05T22:07:43.148Z</time>
      </trkpt>
      <trkpt lat="45.98085" lon="14.59729">
        <ele>360.722694</ele>
        <time>2022-08-05T22:07:44.974Z</time>
      </trkpt>
      <trkpt lat="45.98139" lon="14.59759">
        <ele>356.852209</ele>
        <time>2022-08-05T22:07:55.197Z</time>
      </trkpt>
      <trkpt lat="45.98181" lon="14.59759">
        <ele>354.050091</ele>
        <time>2022-08-05T22:08:02.317Z</time>
      </trkpt>
      <trkpt lat="45.98223" lon="14.5974">
        <ele>351.163285</ele>
        <time>2022-08-05T22:08:09.751Z</time>
      </trkpt>
      <trkpt lat="45.98278" lon="14.59751">
        <ele>346.07261</ele>
        <time>2022-08-05T22:08:19.361Z</time>
      </trkpt>
      <trkpt lat="45.98299" lon="14.59734">
        <ele>343.76864</ele>
        <time>2022-08-05T22:08:23.098Z</time>
      </trkpt>
      <trkpt lat="45.98315" lon="14.59687">
        <ele>340.343264</ele>
        <time>2022-08-05T22:08:28.802Z</time>
      </trkpt>
      <trkpt lat="45.9832" lon="14.59648">
        <ele>337.68654</ele>
        <time>2022-08-05T22:08:33.392Z</time>
      </trkpt>
      <trkpt lat="45.98315" lon="14.59609">
        <ele>335.114605</ele>
        <time>2022-08-05T22:08:37.981Z</time>
      </trkpt>
      <trkpt lat="45.98302" lon="14.59564">
        <ele>332.835072</ele>
        <time>2022-08-05T22:08:43.836Z</time>
      </trkpt>
      <trkpt lat="45.98303" lon="14.5953">
        <ele>332.000728</ele>
        <time>2022-08-05T22:08:47.630Z</time>
      </trkpt>
      <trkpt lat="45.98306" lon="14.5952">
        <ele>331.733937</ele>
        <time>2022-08-05T22:08:49.533Z</time>
      </trkpt>
      <trkpt lat="45.98329" lon="14.59497">
        <ele>330.720108</ele>
        <time>2022-08-05T22:08:54.540Z</time>
      </trkpt>
      <trkpt lat="45.98466" lon="14.59426">
        <ele>326.369777</ele>
        <time>2022-08-05T22:09:27.343Z</time>
      </trkpt>
      <trkpt lat="45.98484" lon="14.59422">
        <ele>326.125777</ele>
        <time>2022-08-05T22:09:32.556Z</time>
      </trkpt>
      <trkpt lat="45.98517" lon="14.59414">
        <ele>325.665732</ele>
        <time>2022-08-05T22:09:41.373Z</time>
      </trkpt>
      <trkpt lat="45.98565" lon="14.59419">
        <ele>324.999317</ele>
        <time>2022-08-05T22:09:51.871Z</time>
      </trkpt>
      <trkpt lat="45.98616" lon="14.59454">
        <ele>323.615649</ele>
        <time>2022-08-05T22:10:03.799Z</time>
      </trkpt>
      <trkpt lat="45.98619" lon="14.59452">
        <ele>323.451723</ele>
        <time>2022-08-05T22:10:04.448Z</time>
      </trkpt>
      <trkpt lat="45.98627" lon="14.5944">
        <ele>322.876746</ele>
        <time>2022-08-05T22:10:06.504Z</time>
      </trkpt>
      <trkpt lat="45.98629" lon="14.59428">
        <ele>322.463397</ele>
        <time>2022-08-05T22:10:08.232Z</time>
      </trkpt>
      <trkpt lat="45.98624" lon="14.59418">
        <ele>322.060127</ele>
        <time>2022-08-05T22:10:09.948Z</time>
      </trkpt>
      <trkpt lat="45.98581" lon="14.59385">
        <ele>319.655882</ele>
        <time>2022-08-05T22:10:19.033Z</time>
      </trkpt>
      <trkpt lat="45.98538" lon="14.59371">
        <ele>317.52297</ele>
        <time>2022-08-05T22:10:26.749Z</time>
      </trkpt>
      <trkpt lat="45.98522" lon="14.59367">
        <ele>316.730232</ele>
        <time>2022-08-05T22:10:29.688Z</time>
      </trkpt>
      <trkpt lat="45.98515" lon="14.59366">
        <ele>316.383751</ele>
        <time>2022-08-05T22:10:30.914Z</time>
      </trkpt>
      <trkpt lat="45.98422" lon="14.59356">
        <ele>310.580301</ele>
        <time>2022-08-05T22:10:46.777Z</time>
      </trkpt>
      <trkpt lat="45.9837" lon="14.59335">
        <ele>307.070836</ele>
        <time>2022-08-05T22:10:56.184Z</time>
      </trkpt>
      <trkpt lat="45.98351" lon="14.59304">
        <ele>305.227491</ele>
        <time>2022-08-05T22:11:01.182Z</time>
      </trkpt>
      <trkpt lat="45.98345" lon="14.5926">
        <ele>303.569907</ele>
        <time>2022-08-05T22:11:06.790Z</time>
      </trkpt>
      <trkpt lat="45.98352" lon="14.59212">
        <ele>302.268249</ele>
        <time>2022-08-05T22:11:13.013Z</time>
      </trkpt>
      <trkpt lat="45.98377" lon="14.59136">
        <ele>300.065247</ele>
        <time>2022-08-05T22:11:23.757Z</time>
      </trkpt>
      <trkpt lat="45.98406" lon="14.59072">
        <ele>298.045824</ele>
        <time>2022-08-05T22:11:34.601Z</time>
      </trkpt>
      <trkpt lat="45.98431" lon="14.5903">
        <ele>296.989282</ele>
        <time>2022-08-05T22:11:42.605Z</time>
      </trkpt>
      <trkpt lat="45.98529" lon="14.58902">
        <ele>295.045259</ele>
        <time>2022-08-05T22:12:11.506Z</time>
      </trkpt>
      <trkpt lat="45.98538" lon="14.58889">
        <ele>294.856821</ele>
        <time>2022-08-05T22:12:14.381Z</time>
      </trkpt>
      <trkpt lat="45.98577" lon="14.58836">
        <ele>294.752334</ele>
        <time>2022-08-05T22:12:27.406Z</time>
      </trkpt>
      <trkpt lat="45.98645" lon="14.5867">
        <ele>295.322713</ele>
        <time>2022-08-05T22:13:08.081Z</time>
      </trkpt>
      <trkpt lat="45.98666" lon="14.58601">
        <ele>295.72923</ele>
        <time>2022-08-05T22:13:24.854Z</time>
      </trkpt>
      <trkpt lat="45.9868" lon="14.5846">
        <ele>296.584877</ele>
        <time>2022-08-05T22:13:55.471Z</time>
      </trkpt>
      <trkpt lat="45.98674" lon="14.58401">
        <ele>296.933615</ele>
        <time>2022-08-05T22:14:08.010Z</time>
      </trkpt>
      <trkpt lat="45.9864" lon="14.58302">
        <ele>297.382623</ele>
        <time>2022-08-05T22:14:30.863Z</time>
      </trkpt>
      <trkpt lat="45.98623" lon="14.58203">
        <ele>297.798708</ele>
        <time>2022-08-05T22:14:51.432Z</time>
      </trkpt>
      <trkpt lat="45.98587" lon="14.58128">
        <ele>298.092296</ele>
        <time>2022-08-05T22:15:09.991Z</time>
      </trkpt>
      <trkpt lat="45.9855" lon="14.58078">
        <ele>298.271401</ele>
        <time>2022-08-05T22:15:25.259Z</time>
      </trkpt>
      <trkpt lat="45.98538" lon="14.5806">
        <ele>298.332518</ele>
        <time>2022-08-05T22:15:30.368Z</time>
      </trkpt>
      <trkpt lat="45.98526" lon="14.58041">
        <ele>298.396608</ele>
        <time>2022-08-05T22:15:35.639Z</time>
      </trkpt>
      <trkpt lat="45.98463" lon="14.57947">
        <ele>298.503411</ele>
        <time>2022-08-05T22:15:59.348Z</time>
      </trkpt>
      <trkpt lat="45.98453" lon="14.57932">
        <ele>298.455721</ele>
        <time>2022-08-05T22:16:03.160Z</time>
      </trkpt>
      <trkpt lat="45.98433" lon="14.57906">
        <ele>298.363876</ele>
        <time>2022-08-05T22:16:10.150Z</time>
      </trkpt>
      <trkpt lat="45.98381" lon="14.57844">
        <ele>298.1366</ele>
        <time>2022-08-05T22:16:27.162Z</time>
      </trkpt>
      <trkpt lat="45.98345" lon="14.57809">
        <ele>297.985195</ele>
        <time>2022-08-05T22:16:37.938Z</time>
      </trkpt>
      <trkpt lat="45.98316" lon="14.57753">
        <ele>297.754195</ele>
        <time>2022-08-05T22:16:49.158Z</time>
      </trkpt>
      <trkpt lat="45.98309" lon="14.57717">
        <ele>297.627593</ele>
        <time>2022-08-05T22:16:55.110Z</time>
      </trkpt>
      <trkpt lat="45.9831" lon="14.57663">
        <ele>297.446161</ele>
        <time>2022-08-05T22:17:04.061Z</time>
      </trkpt>
      <trkpt lat="45.98313" lon="14.57641">
        <ele>297.372614</ele>
        <time>2022-08-05T22:17:08.179Z</time>
      </trkpt>
      <trkpt lat="45.98336" lon="14.57576">
        <ele>297.140547</ele>
        <time>2022-08-05T22:17:22.158Z</time>
      </trkpt>
      <trkpt lat="45.98334" lon="14.57531">
        <ele>297.209348</ele>
        <time>2022-08-05T22:17:30.810Z</time>
      </trkpt>
      <trkpt lat="45.98377" lon="14.57501">
        <ele>297.313196</ele>
        <time>2022-08-05T22:17:44.943Z</time>
      </trkpt>
      <trkpt lat="45.98406" lon="14.57477">
        <ele>297.385869</ele>
        <time>2022-08-05T22:17:55.193Z</time>
      </trkpt>
      <trkpt lat="45.98434" lon="14.57443">
        <ele>297.463251</ele>
        <time>2022-08-05T22:18:05.497Z</time>
      </trkpt>
      <trkpt lat="45.98466" lon="14.57391">
        <ele>297.347473</ele>
        <time>2022-08-05T22:18:18.879Z</time>
      </trkpt>
      <trkpt lat="45.98498" lon="14.57333">
        <ele>296.867004</ele>
        <time>2022-08-05T22:18:33.067Z</time>
      </trkpt>
      <trkpt lat="45.98604" lon="14.57146">
        <ele>295.045911</ele>
        <time>2022-08-05T22:19:09.854Z</time>
      </trkpt>
      <trkpt lat="45.98593" lon="14.57117">
        <ele>294.724337</ele>
        <time>2022-08-05T22:19:14.739Z</time>
      </trkpt>
      <trkpt lat="45.98581" lon="14.57081">
        <ele>294.341451</ele>
        <time>2022-08-05T22:19:20.720Z</time>
      </trkpt>
      <trkpt lat="45.98605" lon="14.57061">
        <ele>293.951708</ele>
        <time>2022-08-05T22:19:26.898Z</time>
      </trkpt>
      <trkpt lat="45.98628" lon="14.57032">
        <ele>293.533388</ele>
        <time>2022-08-05T22:19:33.758Z</time>
      </trkpt>
      <trkpt lat="45.98655" lon="14.5699">
        <ele>293.416422</ele>
        <time>2022-08-05T22:19:43.502Z</time>
      </trkpt>
      <trkpt lat="45.98672" lon="14.56949">
        <ele>293.47471</ele>
        <time>2022-08-05T22:19:52.273Z</time>
      </trkpt>
      <trkpt lat="45.98676" lon="14.5694">
        <ele>293.486692</ele>
        <time>2022-08-05T22:19:54.230Z</time>
      </trkpt>
      <trkpt lat="45.98717" lon="14.56838">
        <ele>293.629789</ele>
        <time>2022-08-05T22:20:17.606Z</time>
      </trkpt>
      <trkpt lat="45.98752" lon="14.56759">
        <ele>293.971886</ele>
        <time>2022-08-05T22:20:38.062Z</time>
      </trkpt>
      <trkpt lat="45.98786" lon="14.56703">
        <ele>294.396357</ele>
        <time>2022-08-05T22:20:54.303Z</time>
      </trkpt>
      <trkpt lat="45.98823" lon="14.56658">
        <ele>294.7988</ele>
        <time>2022-08-05T22:21:09.630Z</time>
      </trkpt>
      <trkpt lat="45.98847" lon="14.56633">
        <ele>295.039777</ele>
        <time>2022-08-05T22:21:18.400Z</time>
      </trkpt>
      <trkpt lat="45.98891" lon="14.56591">
        <ele>295.236584</ele>
        <time>2022-08-05T22:21:33.679Z</time>
      </trkpt>
      <trkpt lat="45.98913" lon="14.56567">
        <ele>295.291015</ele>
        <time>2022-08-05T22:21:41.203Z</time>
      </trkpt>
      <trkpt lat="45.98943" lon="14.56535">
        <ele>295.366127</ele>
        <time>2022-08-05T22:21:51.189Z</time>
      </trkpt>
      <trkpt lat="45.99052" lon="14.56426">
        <ele>295.631152</ele>
        <time>2022-08-05T22:22:27.238Z</time>
      </trkpt>
      <trkpt lat="45.99113" lon="14.56362">
        <ele>295.780873</ele>
        <time>2022-08-05T22:22:48.233Z</time>
      </trkpt>
      <trkpt lat="45.99149" lon="14.56327">
        <ele>295.86829</ele>
        <time>2022-08-05T22:23:00.464Z</time>
      </trkpt>
      <trkpt lat="45.99232" lon="14.56251">
        <ele>296.019495</ele>
        <time>2022-08-05T22:23:44.845Z</time>
      </trkpt>
      <trkpt lat="45.99346" lon="14.56172">
        <ele>296.104452</ele>
        <time>2022-08-05T22:24:42.058Z</time>
      </trkpt>
      <trkpt lat="45.99348" lon="14.56157">
        <ele>296.091697</ele>
        <time>2022-08-05T22:24:45.159Z</time>
      </trkpt>
      <trkpt lat="45.99354" lon="14.5615">
        <ele>296.082557</ele>
        <time>2022-08-05T22:24:47.496Z</time>
      </trkpt>
      <trkpt lat="45.99375" lon="14.56152">
        <ele>296.059056</ele>
        <time>2022-08-05T22:24:53.173Z</time>
      </trkpt>
      <trkpt lat="45.99391" lon="14.56143">
        <ele>296.039541</ele>
        <time>2022-08-05T22:24:57.784Z</time>
      </trkpt>
      <trkpt lat="45.9947" lon="14.56087">
        <ele>295.889868</ele>
        <time>2022-08-05T22:25:19.758Z</time>
      </trkpt>
      <trkpt lat="45.9951" lon="14.56049">
        <ele>295.380867</ele>
        <time>2022-08-05T22:25:31.460Z</time>
      </trkpt>
      <trkpt lat="45.99539" lon="14.56013">
        <ele>294.970036</ele>
        <time>2022-08-05T22:25:40.403Z</time>
      </trkpt>
      <trkpt lat="45.99541" lon="14.56012">
        <ele>294.950236</ele>
        <time>2022-08-05T22:25:40.821Z</time>
      </trkpt>
      <trkpt lat="45.99582" lon="14.55943">
        <ele>294.281543</ele>
        <time>2022-08-05T22:26:05.412Z</time>
      </trkpt>
      <trkpt lat="45.99666" lon="14.55757">
        <ele>292.672109</ele>
        <time>2022-08-05T22:27:06.461Z</time>
      </trkpt>
      <trkpt lat="45.99709" lon="14.55646">
        <ele>292.29627</ele>
        <time>2022-08-05T22:27:43.863Z</time>
      </trkpt>
      <trkpt lat="45.99735" lon="14.557">
        <ele>292.447097</ele>
        <time>2022-08-05T22:27:56.687Z</time>
      </trkpt>
      <trkpt lat="45.99748" lon="14.55716">
        <ele>292.500981</ele>
        <time>2022-08-05T22:28:01.587Z</time>
      </trkpt>
      <trkpt lat="45.99773" lon="14.5568">
        <ele>292.61833</ele>
        <time>2022-08-05T22:28:12.675Z</time>
      </trkpt>
      <trkpt lat="45.99814" lon="14.55636">
        <ele>292.785245</ele>
        <time>2022-08-05T22:28:28.509Z</time>
      </trkpt>
      <trkpt lat="45.9982" lon="14.55632">
        <ele>292.805206</ele>
        <time>2022-08-05T22:28:30.450Z</time>
      </trkpt>
      <trkpt lat="45.99844" lon="14.55615">
        <ele>292.891502</ele>
        <time>2022-08-05T22:28:38.341Z</time>
      </trkpt>
      <trkpt lat="45.99856" lon="14.55607">
        <ele>292.930744</ele>
        <time>2022-08-05T22:28:41.885Z</time>
      </trkpt>
      <trkpt lat="45.99888" lon="14.5559">
        <ele>293.037432</ele>
        <time>2022-08-05T22:28:51.209Z</time>
      </trkpt>
      <trkpt lat="45.99924" lon="14.55571">
        <ele>293.160243</ele>
        <time>2022-08-05T22:29:02.337Z</time>
      </trkpt>
      <trkpt lat="45.9991" lon="14.55504">
        <ele>293.314659</ele>
        <time>2022-08-05T22:29:16.566Z</time>
      </trkpt>
      <trkpt lat="45.99901" lon="14.55455">
        <ele>293.242285</ele>
        <time>2022-08-05T22:29:25.944Z</time>
      </trkpt>
      <trkpt lat="45.99897" lon="14.55429">
        <ele>293.194875</ele>
        <time>2022-08-05T22:29:30.739Z</time>
      </trkpt>
      <trkpt lat="45.99961" lon="14.55401">
        <ele>293.019204</ele>
        <time>2022-08-05T22:29:47.841Z</time>
      </trkpt>
      <trkpt lat="46.00019" lon="14.55372">
        <ele>292.859168</ele>
        <time>2022-08-05T22:30:03.921Z</time>
      </trkpt>
      <trkpt lat="46.00077" lon="14.55343">
        <ele>293.036505</ele>
        <time>2022-08-05T22:30:22.053Z</time>
      </trkpt>
      <trkpt lat="46.00095" lon="14.55334">
        <ele>293.093768</ele>
        <time>2022-08-05T22:30:27.682Z</time>
      </trkpt>
      <trkpt lat="46.001" lon="14.55331">
        <ele>293.11097</ele>
        <time>2022-08-05T22:30:29.317Z</time>
      </trkpt>
      <trkpt lat="46.0023" lon="14.55262">
        <ele>293.450574</ele>
        <time>2022-08-05T22:31:10.783Z</time>
      </trkpt>
      <trkpt lat="46.00327" lon="14.55223">
        <ele>293.572827</ele>
        <time>2022-08-05T22:31:39.598Z</time>
      </trkpt>
      <trkpt lat="46.00353" lon="14.55207">
        <ele>293.607412</ele>
        <time>2022-08-05T22:31:47.202Z</time>
      </trkpt>
      <trkpt lat="46.0039" lon="14.55186">
        <ele>293.464234</ele>
        <time>2022-08-05T22:31:57.559Z</time>
      </trkpt>
      <trkpt lat="46.00416" lon="14.55165">
        <ele>293.319876</ele>
        <time>2022-08-05T22:32:05.280Z</time>
      </trkpt>
      <trkpt lat="46.00453" lon="14.5512">
        <ele>293.087482</ele>
        <time>2022-08-05T22:32:25.333Z</time>
      </trkpt>
      <trkpt lat="46.00485" lon="14.55068">
        <ele>292.855942</ele>
        <time>2022-08-05T22:32:45.061Z</time>
      </trkpt>
      <trkpt lat="46.00561" lon="14.54883">
        <ele>293.510805</ele>
        <time>2022-08-05T22:33:51.727Z</time>
      </trkpt>
      <trkpt lat="46.00567" lon="14.54838">
        <ele>293.701335</ele>
        <time>2022-08-05T22:34:08.877Z</time>
      </trkpt>
      <trkpt lat="46.00575" lon="14.5482">
        <ele>293.788563</ele>
        <time>2022-08-05T22:34:16.361Z</time>
      </trkpt>
      <trkpt lat="46.00583" lon="14.54818">
        <ele>293.872055</ele>
        <time>2022-08-05T22:34:19.474Z</time>
      </trkpt>
      <trkpt lat="46.00641" lon="14.54884">
        <ele>295.424524</ele>
        <time>2022-08-05T22:34:48.207Z</time>
      </trkpt>
      <trkpt lat="46.00733" lon="14.54639">
        <ele>298.841787</ele>
        <time>2022-08-05T22:35:59.569Z</time>
      </trkpt>
      <trkpt lat="46.00767" lon="14.54579">
        <ele>299.587368</ele>
        <time>2022-08-05T22:36:15.869Z</time>
      </trkpt>
      <trkpt lat="46.00826" lon="14.54508">
        <ele>299.974133</ele>
        <time>2022-08-05T22:36:39.239Z</time>
      </trkpt>
      <trkpt lat="46.00959" lon="14.54381">
        <ele>299.765741</ele>
        <time>2022-08-05T22:37:17.886Z</time>
      </trkpt>
      <trkpt lat="46.00953" lon="14.54368">
        <ele>299.843213</ele>
        <time>2022-08-05T22:37:19.909Z</time>
      </trkpt>
      <trkpt lat="46.00965" lon="14.54349">
        <ele>299.971309</ele>
        <time>2022-08-05T22:37:27.212Z</time>
      </trkpt>
      <trkpt lat="46.00959" lon="14.54326">
        <ele>300.096811</ele>
        <time>2022-08-05T22:37:30.876Z</time>
      </trkpt>
      <trkpt lat="46.01039" lon="14.54284">
        <ele>300.711878</ele>
        <time>2022-08-05T22:37:58.430Z</time>
      </trkpt>
      <trkpt lat="46.011" lon="14.54261">
        <ele>301.457994</ele>
        <time>2022-08-05T22:38:20.989Z</time>
      </trkpt>
      <trkpt lat="46.01169" lon="14.54243">
        <ele>302.546736</ele>
        <time>2022-08-05T22:38:50.623Z</time>
      </trkpt>
      <trkpt lat="46.01216" lon="14.54239">
        <ele>303.270431</ele>
        <time>2022-08-05T22:39:07.026Z</time>
      </trkpt>
      <trkpt lat="46.01403" lon="14.54263">
        <ele>300.711528</ele>
        <time>2022-08-05T22:39:47.804Z</time>
      </trkpt>
      <trkpt lat="46.01415" lon="14.54266">
        <ele>300.488447</ele>
        <time>2022-08-05T22:39:50.058Z</time>
      </trkpt>
      <trkpt lat="46.01529" lon="14.54286">
        <ele>297.042454</ele>
        <time>2022-08-05T22:40:11.991Z</time>
      </trkpt>
      <trkpt lat="46.01552" lon="14.54289">
        <ele>296.344945</ele>
        <time>2022-08-05T22:40:16.440Z</time>
      </trkpt>
      <trkpt lat="46.01613" lon="14.54266">
        <ele>294.721674</ele>
        <time>2022-08-05T22:40:29.201Z</time>
      </trkpt>
      <trkpt lat="46.01646" lon="14.54252">
        <ele>294.43925</ele>
        <time>2022-08-05T22:40:36.606Z</time>
      </trkpt>
      <trkpt lat="46.01731" lon="14.54241">
        <ele>293.72225</ele>
        <time>2022-08-05T22:40:58.092Z</time>
      </trkpt>
      <trkpt lat="46.01744" lon="14.54228">
        <ele>293.593739</ele>
        <time>2022-08-05T22:41:03.431Z</time>
      </trkpt>
      <trkpt lat="46.01747" lon="14.54218">
        <ele>293.532532</ele>
        <time>2022-08-05T22:41:05.921Z</time>
      </trkpt>
      <trkpt lat="46.01757" lon="14.54219">
        <ele>293.445774</ele>
        <time>2022-08-05T22:41:08.851Z</time>
      </trkpt>
      <trkpt lat="46.01769" lon="14.54229">
        <ele>293.348307</ele>
        <time>2022-08-05T22:41:12.519Z</time>
      </trkpt>
      <trkpt lat="46.01898" lon="14.54181">
        <ele>293.455806</ele>
        <time>2022-08-05T22:41:49.348Z</time>
      </trkpt>
      <trkpt lat="46.02031" lon="14.54106">
        <ele>293.418838</ele>
        <time>2022-08-05T22:42:27.171Z</time>
      </trkpt>
      <trkpt lat="46.02054" lon="14.54078">
        <ele>293.396722</ele>
        <time>2022-08-05T22:42:34.965Z</time>
      </trkpt>
      <trkpt lat="46.0207" lon="14.54074">
        <ele>293.384783</ele>
        <time>2022-08-05T22:42:39.186Z</time>
      </trkpt>
      <trkpt lat="46.02346" lon="14.53838">
        <ele>292.946982</ele>
        <time>2022-08-05T22:44:02.978Z</time>
      </trkpt>
      <trkpt lat="46.02384" lon="14.53805">
        <ele>292.870686</ele>
        <time>2022-08-05T22:44:14.300Z</time>
      </trkpt>
      <trkpt lat="46.02429" lon="14.53765">
        <ele>292.795657</ele>
        <time>2022-08-05T22:44:27.852Z</time>
      </trkpt>
      <trkpt lat="46.02486" lon="14.53715">
        <ele>292.730698</ele>
        <time>2022-08-05T22:44:45.302Z</time>
      </trkpt>
      <trkpt lat="46.02498" lon="14.53702">
        <ele>292.715627</ele>
        <time>2022-08-05T22:44:49.316Z</time>
      </trkpt>
      <trkpt lat="46.02502" lon="14.53707">
        <ele>292.710796</ele>
        <time>2022-08-05T22:44:50.547Z</time>
      </trkpt>
      <trkpt lat="46.02506" lon="14.53702">
        <ele>292.705529</ele>
        <time>2022-08-05T22:44:52.025Z</time>
      </trkpt>
      <trkpt lat="46.02509" lon="14.53698">
        <ele>292.701151</ele>
        <time>2022-08-05T22:44:53.271Z</time>
      </trkpt>
      <trkpt lat="46.02516" lon="14.53709">
        <ele>292.69056</ele>
        <time>2022-08-05T22:44:56.257Z</time>
      </trkpt>
      <trkpt lat="46.02532" lon="14.53691">
        <ele>292.671149</ele>
        <time>2022-08-05T22:45:01.696Z</time>
      </trkpt>
      <trkpt lat="46.02574" lon="14.53661">
        <ele>292.635894</ele>
        <time>2022-08-05T22:45:14.150Z</time>
      </trkpt>
      <trkpt lat="46.0263" lon="14.53604">
        <ele>292.609215</ele>
        <time>2022-08-05T22:45:31.890Z</time>
      </trkpt>
      <trkpt lat="46.02651" lon="14.53575">
        <ele>292.598186</ele>
        <time>2022-08-05T22:45:39.302Z</time>
      </trkpt>
      <trkpt lat="46.02728" lon="14.53471">
        <ele>292.69184</ele>
        <time>2022-08-05T22:46:07.896Z</time>
      </trkpt>
      <trkpt lat="46.02755" lon="14.53432">
        <ele>292.801422</ele>
        <time>2022-08-05T22:46:18.555Z</time>
      </trkpt>
      <trkpt lat="46.028" lon="14.53361">
        <ele>292.993845</ele>
        <time>2022-08-05T22:46:37.328Z</time>
      </trkpt>
      <trkpt lat="46.02807" lon="14.53348">
        <ele>293.027172</ele>
        <time>2022-08-05T22:46:40.693Z</time>
      </trkpt>
      <trkpt lat="46.02817" lon="14.53342">
        <ele>293.057676</ele>
        <time>2022-08-05T22:46:43.920Z</time>
      </trkpt>
      <trkpt lat="46.02841" lon="14.53306">
        <ele>293.163046</ele>
        <time>2022-08-05T22:46:54.320Z</time>
      </trkpt>
      <trkpt lat="46.029" lon="14.53215">
        <ele>293.433076</ele>
        <time>2022-08-05T22:47:20.104Z</time>
      </trkpt>
      <trkpt lat="46.0294" lon="14.53144">
        <ele>293.631144</ele>
        <time>2022-08-05T22:47:36.993Z</time>
      </trkpt>
      <trkpt lat="46.02945" lon="14.53135">
        <ele>293.636692</ele>
        <time>2022-08-05T22:47:39.082Z</time>
      </trkpt>
      <trkpt lat="46.0296" lon="14.53112">
        <ele>293.464621</ele>
        <time>2022-08-05T22:47:44.625Z</time>
      </trkpt>
      <trkpt lat="46.02975" lon="14.53089">
        <ele>293.29836</ele>
        <time>2022-08-05T22:47:49.834Z</time>
      </trkpt>
      <trkpt lat="46.02991" lon="14.53064">
        <ele>293.115458</ele>
        <time>2022-08-05T22:47:55.514Z</time>
      </trkpt>
      <trkpt lat="46.03024" lon="14.53014">
        <ele>292.742928</ele>
        <time>2022-08-05T22:48:06.768Z</time>
      </trkpt>
      <trkpt lat="46.03028" lon="14.53006">
        <ele>292.687331</ele>
        <time>2022-08-05T22:48:08.402Z</time>
      </trkpt>
      <trkpt lat="46.03049" lon="14.52975">
        <ele>292.456746</ele>
        <time>2022-08-05T22:48:15.159Z</time>
      </trkpt>
      <trkpt lat="46.03063" lon="14.52953">
        <ele>292.293519</ele>
        <time>2022-08-05T22:48:19.896Z</time>
      </trkpt>
      <trkpt lat="46.03074" lon="14.52937">
        <ele>292.174541</ele>
        <time>2022-08-05T22:48:23.326Z</time>
      </trkpt>
      <trkpt lat="46.03078" lon="14.5293">
        <ele>292.125262</ele>
        <time>2022-08-05T22:48:24.773Z</time>
      </trkpt>
      <trkpt lat="46.03148" lon="14.52823">
        <ele>291.341411</ele>
        <time>2022-08-05T22:48:48.632Z</time>
      </trkpt>
      <trkpt lat="46.032" lon="14.52743">
        <ele>290.850011</ele>
        <time>2022-08-05T22:49:07.615Z</time>
      </trkpt>
      <trkpt lat="46.03207" lon="14.52732">
        <ele>290.837932</ele>
        <time>2022-08-05T22:49:10.138Z</time>
      </trkpt>
      <trkpt lat="46.03211" lon="14.52726">
        <ele>290.83038</ele>
        <time>2022-08-05T22:49:11.765Z</time>
      </trkpt>
      <trkpt lat="46.03286" lon="14.5261">
        <ele>290.697247</ele>
        <time>2022-08-05T22:49:41.277Z</time>
      </trkpt>
      <trkpt lat="46.03356" lon="14.52497">
        <ele>290.500575</ele>
        <time>2022-08-05T22:50:09.003Z</time>
      </trkpt>
      <trkpt lat="46.03405" lon="14.52401">
        <ele>290.315064</ele>
        <time>2022-08-05T22:50:29.326Z</time>
      </trkpt>
      <trkpt lat="46.0346" lon="14.52284">
        <ele>290.172777</ele>
        <time>2022-08-05T22:50:55.071Z</time>
      </trkpt>
      <trkpt lat="46.03467" lon="14.52269">
        <ele>290.159196</ele>
        <time>2022-08-05T22:50:58.426Z</time>
      </trkpt>
      <trkpt lat="46.03487" lon="14.52225">
        <ele>290.119136</ele>
        <time>2022-08-05T22:51:07.837Z</time>
      </trkpt>
      <trkpt lat="46.0352" lon="14.52165">
        <ele>290.061727</ele>
        <time>2022-08-05T22:51:21.530Z</time>
      </trkpt>
      <trkpt lat="46.03541" lon="14.5212">
        <ele>290.076877</ele>
        <time>2022-08-05T22:51:31.943Z</time>
      </trkpt>
      <trkpt lat="46.03569" lon="14.52065">
        <ele>290.122641</ele>
        <time>2022-08-05T22:51:45.694Z</time>
      </trkpt>
      <trkpt lat="46.03588" lon="14.52027">
        <ele>290.154296</ele>
        <time>2022-08-05T22:51:54.704Z</time>
      </trkpt>
      <trkpt lat="46.03611" lon="14.51981">
        <ele>290.192436</ele>
        <time>2022-08-05T22:52:04.960Z</time>
      </trkpt>
      <trkpt lat="46.03678" lon="14.51845">
        <ele>290.394741</ele>
        <time>2022-08-05T22:52:34.912Z</time>
      </trkpt>
      <trkpt lat="46.03681" lon="14.5184">
        <ele>290.40391</ele>
        <time>2022-08-05T22:52:36.063Z</time>
      </trkpt>
      <trkpt lat="46.03737" lon="14.51743">
        <ele>290.584465</ele>
        <time>2022-08-05T22:53:00.104Z</time>
      </trkpt>
      <trkpt lat="46.0374" lon="14.51738">
        <ele>290.594337</ele>
        <time>2022-08-05T22:53:01.550Z</time>
      </trkpt>
      <trkpt lat="46.03785" lon="14.51667">
        <ele>292.607691</ele>
        <time>2022-08-05T22:53:24.782Z</time>
      </trkpt>
      <trkpt lat="46.03814" lon="14.51622">
        <ele>293.918367</ele>
        <time>2022-08-05T22:53:44.002Z</time>
      </trkpt>
      <trkpt lat="46.03829" lon="14.51642">
        <ele>294.54521</ele>
        <time>2022-08-05T22:53:53.475Z</time>
      </trkpt>
      <trkpt lat="46.03844" lon="14.51662">
        <ele>295.161048</ele>
        <time>2022-08-05T22:54:02.648Z</time>
      </trkpt>
      <trkpt lat="46.03869" lon="14.51697">
        <ele>296.318745</ele>
        <time>2022-08-05T22:54:19.326Z</time>
      </trkpt>
      <trkpt lat="46.03877" lon="14.51708">
        <ele>296.838091</ele>
        <time>2022-08-05T22:54:24.899Z</time>
      </trkpt>
      <trkpt lat="46.0389" lon="14.51726">
        <ele>297.680341</ele>
        <time>2022-08-05T22:54:33.688Z</time>
      </trkpt>
      <trkpt lat="46.03894" lon="14.51732">
        <ele>297.950379</ele>
        <time>2022-08-05T22:54:36.607Z</time>
      </trkpt>
      <trkpt lat="46.039" lon="14.51739">
        <ele>298.292874</ele>
        <time>2022-08-05T22:54:40.409Z</time>
      </trkpt>
      <trkpt lat="46.03905" lon="14.51745">
        <ele>298.630108</ele>
        <time>2022-08-05T22:54:44.373Z</time>
      </trkpt>
      <trkpt lat="46.03912" lon="14.51737">
        <ele>299.038303</ele>
        <time>2022-08-05T22:54:48.496Z</time>
      </trkpt>
      <trkpt lat="46.0392" lon="14.51743">
        <ele>299.432986</ele>
        <time>2022-08-05T22:54:53.122Z</time>
      </trkpt>
      <trkpt lat="46.0393" lon="14.51735">
        <ele>299.986135</ele>
        <time>2022-08-05T22:54:59.517Z</time>
      </trkpt>
      <trkpt lat="46.03964" lon="14.51679">
        <ele>302.434733</ele>
        <time>2022-08-05T22:55:28.607Z</time>
      </trkpt>
      <trkpt lat="46.04028" lon="14.51615">
        <ele>304.356917</ele>
        <time>2022-08-05T22:56:04.387Z</time>
      </trkpt>
      <trkpt lat="46.04098" lon="14.51571">
        <ele>303.96577</ele>
        <time>2022-08-05T22:56:22.268Z</time>
      </trkpt>
      <trkpt lat="46.04107" lon="14.51564">
        <ele>303.914348</ele>
        <time>2022-08-05T22:56:24.368Z</time>
      </trkpt>
      <trkpt lat="46.04116" lon="14.51556">
        <ele>303.857846</ele>
        <time>2022-08-05T22:56:26.662Z</time>
      </trkpt>
      <trkpt lat="46.04122" lon="14.51551">
        <ele>303.823884</ele>
        <time>2022-08-05T22:56:28.010Z</time>
      </trkpt>
      <trkpt lat="46.04131" lon="14.51544">
        <ele>303.771219</ele>
        <time>2022-08-05T22:56:29.994Z</time>
      </trkpt>
      <trkpt lat="46.04134" lon="14.51543">
        <ele>303.755141</ele>
        <time>2022-08-05T22:56:30.616Z</time>
      </trkpt>
      <trkpt lat="46.04139" lon="14.51539">
        <ele>303.724913</ele>
        <time>2022-08-05T22:56:31.771Z</time>
      </trkpt>
      <trkpt lat="46.04184" lon="14.51494">
        <ele>302.576064</ele>
        <time>2022-08-05T22:56:42.502Z</time>
      </trkpt>
      <trkpt lat="46.04194" lon="14.51486">
        <ele>302.190437</ele>
        <time>2022-08-05T22:56:44.649Z</time>
      </trkpt>
      <trkpt lat="46.04258" lon="14.5142">
        <ele>299.556468</ele>
        <time>2022-08-05T22:56:59.183Z</time>
      </trkpt>
      <trkpt lat="46.0427" lon="14.51406">
        <ele>299.055181</ele>
        <time>2022-08-05T22:57:02.055Z</time>
      </trkpt>
      <trkpt lat="46.04281" lon="14.51397">
        <ele>298.631402</ele>
        <time>2022-08-05T22:57:04.511Z</time>
      </trkpt>
      <trkpt lat="46.0429" lon="14.51396">
        <ele>298.333294</ele>
        <time>2022-08-05T22:57:06.262Z</time>
      </trkpt>
      <trkpt lat="46.043" lon="14.51405">
        <ele>297.936712</ele>
        <time>2022-08-05T22:57:08.757Z</time>
      </trkpt>
      <trkpt lat="46.04332" lon="14.51479">
        <ele>297.516371</ele>
        <time>2022-08-05T22:57:22.631Z</time>
      </trkpt>
      <trkpt lat="46.0434" lon="14.51496">
        <ele>297.493406</ele>
        <time>2022-08-05T22:57:26.631Z</time>
      </trkpt>
      <trkpt lat="46.04432" lon="14.51668">
        <ele>297.662441</ele>
        <time>2022-08-05T22:58:10.847Z</time>
      </trkpt>
      <trkpt lat="46.04461" lon="14.51738">
        <ele>298.221927</ele>
        <time>2022-08-05T22:58:28.570Z</time>
      </trkpt>
      <trkpt lat="46.04468" lon="14.51759">
        <ele>298.381486</ele>
        <time>2022-08-05T22:58:33.598Z</time>
      </trkpt>
      <trkpt lat="46.04472" lon="14.51776">
        <ele>298.501522</ele>
        <time>2022-08-05T22:58:37.978Z</time>
      </trkpt>
      <trkpt lat="46.04478" lon="14.51771">
        <ele>298.571302</ele>
        <time>2022-08-05T22:58:40.150Z</time>
      </trkpt>
      <trkpt lat="46.04484" lon="14.51766">
        <ele>298.642611</ele>
        <time>2022-08-05T22:58:42.365Z</time>
      </trkpt>
      <trkpt lat="46.0449" lon="14.51761">
        <ele>298.710333</ele>
        <time>2022-08-05T22:58:44.530Z</time>
      </trkpt>
      <trkpt lat="46.0449" lon="14.51748">
        <ele>298.801512</ele>
        <time>2022-08-05T22:58:47.995Z</time>
      </trkpt>
      <trkpt lat="46.04503" lon="14.51733">
        <ele>298.966143</ele>
        <time>2022-08-05T22:58:53.503Z</time>
      </trkpt>
      <trkpt lat="46.04516" lon="14.51719">
        <ele>299.136028</ele>
        <time>2022-08-05T22:58:58.826Z</time>
      </trkpt>
      <trkpt lat="46.04553" lon="14.51679">
        <ele>299.660884</ele>
        <time>2022-08-05T22:59:13.574Z</time>
      </trkpt>
      <trkpt lat="46.0456" lon="14.51671">
        <ele>299.765855</ele>
        <time>2022-08-05T22:59:16.242Z</time>
      </trkpt>
      <trkpt lat="46.04611" lon="14.51615">
        <ele>300.503222</ele>
        <time>2022-08-05T22:59:36.162Z</time>
      </trkpt>
      <trkpt lat="46.04618" lon="14.51606">
        <ele>300.609511</ele>
        <time>2022-08-05T22:59:39.273Z</time>
      </trkpt>
      <trkpt lat="46.04667" lon="14.5154">
        <ele>301.31671</ele>
        <time>2022-08-05T23:00:01.796Z</time>
      </trkpt>
      <trkpt lat="46.04695" lon="14.51493">
        <ele>301.672501</ele>
        <time>2022-08-05T23:00:15.251Z</time>
      </trkpt>
      <trkpt lat="46.04692" lon="14.51489">
        <ele>301.70527</ele>
        <time>2022-08-05T23:00:16.782Z</time>
      </trkpt>
      <trkpt lat="46.04696" lon="14.51482">
        <ele>301.756912</ele>
        <time>2022-08-05T23:00:18.565Z</time>
      </trkpt>
      <trkpt lat="46.04758" lon="14.51379">
        <ele>302.53761</ele>
        <time>2022-08-05T23:00:46.550Z</time>
      </trkpt>
      <trkpt lat="46.04767" lon="14.51365">
        <ele>302.644367</ele>
        <time>2022-08-05T23:00:50.836Z</time>
      </trkpt>
      <trkpt lat="46.04773" lon="14.51357">
        <ele>302.676976</ele>
        <time>2022-08-05T23:00:53.238Z</time>
      </trkpt>
      <trkpt lat="46.0478" lon="14.51347">
        <ele>302.71415</ele>
        <time>2022-08-05T23:00:55.913Z</time>
      </trkpt>
      <trkpt lat="46.04842" lon="14.51266">
        <ele>303.04398</ele>
        <time>2022-08-05T23:01:19.881Z</time>
      </trkpt>
      <trkpt lat="46.04935" lon="14.51157">
        <ele>302.793727</ele>
        <time>2022-08-05T23:01:54.842Z</time>
      </trkpt>
      <trkpt lat="46.04942" lon="14.51148">
        <ele>302.662748</ele>
        <time>2022-08-05T23:01:57.018Z</time>
      </trkpt>
      <trkpt lat="46.04962" lon="14.5112">
        <ele>302.30378</ele>
        <time>2022-08-05T23:02:02.802Z</time>
      </trkpt>
      <trkpt lat="46.04988" lon="14.51069">
        <ele>301.730848</ele>
        <time>2022-08-05T23:02:12.209Z</time>
      </trkpt>
      <trkpt lat="46.04993" lon="14.51049">
        <ele>301.532548</ele>
        <time>2022-08-05T23:02:15.807Z</time>
      </trkpt>
      <trkpt lat="46.05006" lon="14.51051">
        <ele>301.36428</ele>
        <time>2022-08-05T23:02:18.271Z</time>
      </trkpt>
      <trkpt lat="46.05066" lon="14.51064">
        <ele>300.261874</ele>
        <time>2022-08-05T23:02:30.965Z</time>
      </trkpt>
      <trkpt lat="46.05069" lon="14.51065">
        <ele>300.190768</ele>
        <time>2022-08-05T23:02:31.554Z</time>
      </trkpt>
      <trkpt lat="46.05078" lon="14.51068">
        <ele>299.983641</ele>
        <time>2022-08-05T23:02:33.299Z</time>
      </trkpt>
      <trkpt lat="46.05085" lon="14.5107">
        <ele>299.805878</ele>
        <time>2022-08-05T23:02:35.086Z</time>
      </trkpt>
      <trkpt lat="46.05118" lon="14.51068">
        <ele>299.077564</ele>
        <time>2022-08-05T23:02:41.707Z</time>
      </trkpt>
      <trkpt lat="46.05157" lon="14.51057">
        <ele>298.173566</ele>
        <time>2022-08-05T23:02:49.582Z</time>
      </trkpt>
      <trkpt lat="46.05167" lon="14.51052">
        <ele>297.928383</ele>
        <time>2022-08-05T23:02:51.667Z</time>
      </trkpt>
      <trkpt lat="46.05175" lon="14.51049">
        <ele>297.731491</ele>
        <time>2022-08-05T23:02:53.379Z</time>
      </trkpt>
      <trkpt lat="46.05178" lon="14.51048">
        <ele>297.660937</ele>
        <time>2022-08-05T23:02:54.039Z</time>
      </trkpt>
      <trkpt lat="46.05211" lon="14.51034">
        <ele>296.911567</ele>
        <time>2022-08-05T23:03:01.322Z</time>
      </trkpt>
      <trkpt lat="46.05217" lon="14.51032">
        <ele>296.858479</ele>
        <time>2022-08-05T23:03:02.635Z</time>
      </trkpt>
      <trkpt lat="46.05217" lon="14.51044">
        <ele>296.778499</ele>
        <time>2022-08-05T23:03:04.781Z</time>
      </trkpt>
      <trkpt lat="46.05217" lon="14.51073">
        <ele>296.592752</ele>
        <time>2022-08-05T23:03:09.348Z</time>
      </trkpt>
      <trkpt lat="46.05217" lon="14.51096">
        <ele>296.440032</ele>
        <time>2022-08-05T23:03:13.183Z</time>
      </trkpt>
      <trkpt lat="46.05215" lon="14.51124">
        <ele>296.253372</ele>
        <time>2022-08-05T23:03:17.693Z</time>
      </trkpt>
      <trkpt lat="46.05204" lon="14.51227">
        <ele>295.564923</ele>
        <time>2022-08-05T23:03:35.001Z</time>
      </trkpt>
      <trkpt lat="46.05183" lon="14.51381">
        <ele>294.634086</ele>
        <time>2022-08-05T23:04:01.602Z</time>
      </trkpt>
      <trkpt lat="46.0518" lon="14.51393">
        <ele>294.567931</ele>
        <time>2022-08-05T23:04:03.533Z</time>
      </trkpt>
      <trkpt lat="46.05163" lon="14.51442">
        <ele>294.261413</ele>
        <time>2022-08-05T23:04:12.324Z</time>
      </trkpt>
      <trkpt lat="46.05087" lon="14.51606">
        <ele>293.513677</ele>
        <time>2022-08-05T23:04:44.597Z</time>
      </trkpt>
      <trkpt lat="46.05072" lon="14.5166">
        <ele>293.373716</ele>
        <time>2022-08-05T23:04:55.159Z</time>
      </trkpt>
      <trkpt lat="46.05074" lon="14.51661">
        <ele>293.36777</ele>
        <time>2022-08-05T23:04:55.573Z</time>
      </trkpt>
      <trkpt lat="46.05083" lon="14.51665">
        <ele>293.334957</ele>
        <time>2022-08-05T23:04:58.031Z</time>
      </trkpt>
      <trkpt lat="46.05147" lon="14.51664">
        <ele>293.193063</ele>
        <time>2022-08-05T23:05:15.477Z</time>
      </trkpt>
      <trkpt lat="46.05206" lon="14.51663">
        <ele>293.368122</ele>
        <time>2022-08-05T23:05:31.832Z</time>
      </trkpt>
      <trkpt lat="46.05208" lon="14.51671">
        <ele>293.386667</ele>
        <time>2022-08-05T23:05:33.483Z</time>
      </trkpt>
      <trkpt lat="46.05208" lon="14.51727">
        <ele>293.503768</ele>
        <time>2022-08-05T23:05:44.524Z</time>
      </trkpt>
      <trkpt lat="46.05208" lon="14.51809">
        <ele>293.673479</ele>
        <time>2022-08-05T23:06:00.849Z</time>
      </trkpt>
      <trkpt lat="46.05217" lon="14.51827">
        <ele>293.675034</ele>
        <time>2022-08-05T23:06:05.699Z</time>
      </trkpt>
      <trkpt lat="46.05224" lon="14.51844">
        <ele>293.642757</ele>
        <time>2022-08-05T23:06:09.797Z</time>
      </trkpt>
      <trkpt lat="46.05224" lon="14.51906">
        <ele>293.540195</ele>
        <time>2022-08-05T23:06:21.301Z</time>
      </trkpt>
      <trkpt lat="46.0522" lon="14.51909">
        <ele>293.529775</ele>
        <time>2022-08-05T23:06:22.371Z</time>
      </trkpt>
      <trkpt lat="46.0522" lon="14.51917">
        <ele>293.516987</ele>
        <time>2022-08-05T23:06:23.721Z</time>
      </trkpt>
      <trkpt lat="46.0522" lon="14.51923">
        <ele>293.506529</ele>
        <time>2022-08-05T23:06:24.870Z</time>
      </trkpt>
      <trkpt lat="46.05221" lon="14.51938">
        <ele>293.482123</ele>
        <time>2022-08-05T23:06:27.580Z</time>
      </trkpt>
      <trkpt lat="46.05221" lon="14.5194">
        <ele>293.477733</ele>
        <time>2022-08-05T23:06:28.055Z</time>
      </trkpt>
      <trkpt lat="46.0523" lon="14.51959">
        <ele>293.439553</ele>
        <time>2022-08-05T23:06:31.910Z</time>
      </trkpt>
      <trkpt lat="46.05233" lon="14.52021">
        <ele>293.33632</ele>
        <time>2022-08-05T23:06:42.348Z</time>
      </trkpt>
      <trkpt lat="46.05234" lon="14.52043">
        <ele>293.300574</ele>
        <time>2022-08-05T23:06:46.099Z</time>
      </trkpt>
      <trkpt lat="46.05242" lon="14.52105">
        <ele>292.843878</ele>
        <time>2022-08-05T23:06:56.680Z</time>
      </trkpt>
      <trkpt lat="46.05244" lon="14.52113">
        <ele>292.768871</ele>
        <time>2022-08-05T23:06:57.880Z</time>
      </trkpt>
      <trkpt lat="46.05249" lon="14.52138">
        <ele>292.507809</ele>
        <time>2022-08-05T23:07:02.368Z</time>
      </trkpt>
      <trkpt lat="46.05254" lon="14.52159">
        <ele>292.283691</ele>
        <time>2022-08-05T23:07:05.877Z</time>
      </trkpt>
      <trkpt lat="46.05268" lon="14.52218">
        <ele>291.665224</ele>
        <time>2022-08-05T23:07:15.609Z</time>
      </trkpt>
      <trkpt lat="46.05281" lon="14.52268">
        <ele>291.139712</ele>
        <time>2022-08-05T23:07:23.314Z</time>
      </trkpt>
      <trkpt lat="46.05284" lon="14.5228">
        <ele>291.007316</ele>
        <time>2022-08-05T23:07:25.242Z</time>
      </trkpt>
      <trkpt lat="46.05295" lon="14.52321">
        <ele>290.559323</ele>
        <time>2022-08-05T23:07:31.384Z</time>
      </trkpt>
      <trkpt lat="46.05312" lon="14.5239">
        <ele>289.688743</ele>
        <time>2022-08-05T23:07:42.042Z</time>
      </trkpt>
      <trkpt lat="46.05307" lon="14.52393">
        <ele>289.594487</ele>
        <time>2022-08-05T23:07:43.236Z</time>
      </trkpt>
      <trkpt lat="46.05311" lon="14.52413">
        <ele>289.350132</ele>
        <time>2022-08-05T23:07:46.310Z</time>
      </trkpt>
      <trkpt lat="46.05316" lon="14.52431">
        <ele>289.119</ele>
        <time>2022-08-05T23:07:49.263Z</time>
      </trkpt>
      <trkpt lat="46.05317" lon="14.52434">
        <ele>289.076569</ele>
        <time>2022-08-05T23:07:49.801Z</time>
      </trkpt>
      <trkpt lat="46.05335" lon="14.52504">
        <ele>288.202522</ele>
        <time>2022-08-05T23:08:01.035Z</time>
      </trkpt>
      <trkpt lat="46.05346" lon="14.52546">
        <ele>287.672582</ele>
        <time>2022-08-05T23:08:07.901Z</time>
      </trkpt>
      <trkpt lat="46.05347" lon="14.52552">
        <ele>287.632793</ele>
        <time>2022-08-05T23:08:08.823Z</time>
      </trkpt>
      <trkpt lat="46.05398" lon="14.52754">
        <ele>286.918406</ele>
        <time>2022-08-05T23:08:45.960Z</time>
      </trkpt>
      <trkpt lat="46.05406" lon="14.52785">
        <ele>286.808367</ele>
        <time>2022-08-05T23:08:52.067Z</time>
      </trkpt>
      <trkpt lat="46.05431" lon="14.52885">
        <ele>287.09419</ele>
        <time>2022-08-05T23:09:12.203Z</time>
      </trkpt>
      <trkpt lat="46.05434" lon="14.5289">
        <ele>287.114656</ele>
        <time>2022-08-05T23:09:13.407Z</time>
      </trkpt>
      <trkpt lat="46.05437" lon="14.52888">
        <ele>287.128433</ele>
        <time>2022-08-05T23:09:14.252Z</time>
      </trkpt>
      <trkpt lat="46.05451" lon="14.52944">
        <ele>287.314505</ele>
        <time>2022-08-05T23:09:26.355Z</time>
      </trkpt>
      <trkpt lat="46.05449" lon="14.52966">
        <ele>287.384432</ele>
        <time>2022-08-05T23:09:31.190Z</time>
      </trkpt>
      <trkpt lat="46.05451" lon="14.52975">
        <ele>287.411485</ele>
        <time>2022-08-05T23:09:33.107Z</time>
      </trkpt>
      <trkpt lat="46.05452" lon="14.52983">
        <ele>287.439138</ele>
        <time>2022-08-05T23:09:34.968Z</time>
      </trkpt>
      <trkpt lat="46.05453" lon="14.52987">
        <ele>287.452879</ele>
        <time>2022-08-05T23:09:35.877Z</time>
      </trkpt>
      <trkpt lat="46.0546" lon="14.53009">
        <ele>287.52827</ele>
        <time>2022-08-05T23:09:41.121Z</time>
      </trkpt>
      <trkpt lat="46.05511" lon="14.53212">
        <ele>288.239629</ele>
        <time>2022-08-05T23:10:26.666Z</time>
      </trkpt>
      <trkpt lat="46.05538" lon="14.53323">
        <ele>288.089425</ele>
        <time>2022-08-05T23:10:47.598Z</time>
      </trkpt>
      <trkpt lat="46.05546" lon="14.53331">
        <ele>287.993092</ele>
        <time>2022-08-05T23:10:49.824Z</time>
      </trkpt>
      <trkpt lat="46.05561" lon="14.53394">
        <ele>287.538206</ele>
        <time>2022-08-05T23:11:00.191Z</time>
      </trkpt>
      <trkpt lat="46.05567" lon="14.53416">
        <ele>287.377678</ele>
        <time>2022-08-05T23:11:03.763Z</time>
      </trkpt>
      <trkpt lat="46.05572" lon="14.53438">
        <ele>287.21422</ele>
        <time>2022-08-05T23:11:07.317Z</time>
      </trkpt>
      <trkpt lat="46.0557" lon="14.53453">
        <ele>287.109608</ele>
        <time>2022-08-05T23:11:09.668Z</time>
      </trkpt>
      <trkpt lat="46.05608" lon="14.53619">
        <ele>286.374357</ele>
        <time>2022-08-05T23:11:37.520Z</time>
      </trkpt>
      <trkpt lat="46.0561" lon="14.53631">
        <ele>286.342719</ele>
        <time>2022-08-05T23:11:39.698Z</time>
      </trkpt>
      <trkpt lat="46.05613" lon="14.53653">
        <ele>286.280927</ele>
        <time>2022-08-05T23:11:43.986Z</time>
      </trkpt>
      <trkpt lat="46.05618" lon="14.53733">
        <ele>286.069224</ele>
        <time>2022-08-05T23:11:59.429Z</time>
      </trkpt>
      <trkpt lat="46.05614" lon="14.53824">
        <ele>286.171075</ele>
        <time>2022-08-05T23:12:16.538Z</time>
      </trkpt>
      <trkpt lat="46.05613" lon="14.53833">
        <ele>286.198247</ele>
        <time>2022-08-05T23:12:18.111Z</time>
      </trkpt>
      <trkpt lat="46.05612" lon="14.53847">
        <ele>286.244936</ele>
        <time>2022-08-05T23:12:21.002Z</time>
      </trkpt>
      <trkpt lat="46.05596" lon="14.53941">
        <ele>286.561906</ele>
        <time>2022-08-05T23:12:41.068Z</time>
      </trkpt>
      <trkpt lat="46.05594" lon="14.53948">
        <ele>286.587168</ele>
        <time>2022-08-05T23:12:42.683Z</time>
      </trkpt>
      <trkpt lat="46.05592" lon="14.53952">
        <ele>286.603137</ele>
        <time>2022-08-05T23:12:43.669Z</time>
      </trkpt>
      <trkpt lat="46.05582" lon="14.54039">
        <ele>286.772885</ele>
        <time>2022-08-05T23:13:02.592Z</time>
      </trkpt>
      <trkpt lat="46.05574" lon="14.54051">
        <ele>286.725025</ele>
        <time>2022-08-05T23:13:05.694Z</time>
      </trkpt>
      <trkpt lat="46.05574" lon="14.5406">
        <ele>286.697139</ele>
        <time>2022-08-05T23:13:08.569Z</time>
      </trkpt>
      <trkpt lat="46.05574" lon="14.54072">
        <ele>286.660329</ele>
        <time>2022-08-05T23:13:12.354Z</time>
      </trkpt>
      <trkpt lat="46.05573" lon="14.54087">
        <ele>286.618534</ele>
        <time>2022-08-05T23:13:16.904Z</time>
      </trkpt>
      <trkpt lat="46.05575" lon="14.54089">
        <ele>286.610971</ele>
        <time>2022-08-05T23:13:17.452Z</time>
      </trkpt>
      <trkpt lat="46.05579" lon="14.54096">
        <ele>286.582677</ele>
        <time>2022-08-05T23:13:19.004Z</time>
      </trkpt>
      <trkpt lat="46.0558" lon="14.54104">
        <ele>286.558317</ele>
        <time>2022-08-05T23:13:20.359Z</time>
      </trkpt>
      <trkpt lat="46.05582" lon="14.54138">
        <ele>286.458335</ele>
        <time>2022-08-05T23:13:26.207Z</time>
      </trkpt>
      <trkpt lat="46.05582" lon="14.54223">
        <ele>286.20611</ele>
        <time>2022-08-05T23:13:39.608Z</time>
      </trkpt>
      <trkpt lat="46.05584" lon="14.54242">
        <ele>286.147835</ele>
        <time>2022-08-05T23:13:43.046Z</time>
      </trkpt>
      <trkpt lat="46.0559" lon="14.54281">
        <ele>285.997793</ele>
        <time>2022-08-05T23:13:49.677Z</time>
      </trkpt>
      <trkpt lat="46.05594" lon="14.5441">
        <ele>285.198876</ele>
        <time>2022-08-05T23:14:10.818Z</time>
      </trkpt>
      <trkpt lat="46.05592" lon="14.54469">
        <ele>284.840476</ele>
        <time>2022-08-05T23:14:19.851Z</time>
      </trkpt>
      <trkpt lat="46.05591" lon="14.54472">
        <ele>284.820278</ele>
        <time>2022-08-05T23:14:20.357Z</time>
      </trkpt>
      <trkpt lat="46.05591" lon="14.54486">
        <ele>284.729755</ele>
        <time>2022-08-05T23:14:22.621Z</time>
      </trkpt>
      <trkpt lat="46.05592" lon="14.54496">
        <ele>284.670401</ele>
        <time>2022-08-05T23:14:24.122Z</time>
      </trkpt>
      <trkpt lat="46.05593" lon="14.5451">
        <ele>284.580982</ele>
        <time>2022-08-05T23:14:26.401Z</time>
      </trkpt>
      <trkpt lat="46.05595" lon="14.54522">
        <ele>284.507757</ele>
        <time>2022-08-05T23:14:28.366Z</time>
      </trkpt>
      <trkpt lat="46.056" lon="14.54634">
        <ele>284.678704</ele>
        <time>2022-08-05T23:14:48.906Z</time>
      </trkpt>
      <trkpt lat="46.05602" lon="14.54845">
        <ele>285.240574</ele>
        <time>2022-08-05T23:15:33.348Z</time>
      </trkpt>
      <trkpt lat="46.05601" lon="14.55016">
        <ele>285.990677</ele>
        <time>2022-08-05T23:16:08.426Z</time>
      </trkpt>
      <trkpt lat="46.05597" lon="14.55032">
        <ele>286.064727</ele>
        <time>2022-08-05T23:16:12.022Z</time>
      </trkpt>
      <trkpt lat="46.05597" lon="14.55043">
        <ele>286.114645</ele>
        <time>2022-08-05T23:16:14.428Z</time>
      </trkpt>
      <trkpt lat="46.05597" lon="14.55055">
        <ele>286.145984</ele>
        <time>2022-08-05T23:16:16.598Z</time>
      </trkpt>
      <trkpt lat="46.05597" lon="14.55066">
        <ele>286.173628</ele>
        <time>2022-08-05T23:16:18.950Z</time>
      </trkpt>
      <trkpt lat="46.05598" lon="14.55074">
        <ele>286.192393</ele>
        <time>2022-08-05T23:16:20.660Z</time>
      </trkpt>
      <trkpt lat="46.05598" lon="14.55121">
        <ele>286.301683</ele>
        <time>2022-08-05T23:16:30.219Z</time>
      </trkpt>
      <trkpt lat="46.05602" lon="14.55176">
        <ele>286.428944</ele>
        <time>2022-08-05T23:16:41.332Z</time>
      </trkpt>
      <trkpt lat="46.05602" lon="14.55579">
        <ele>286.861234</ele>
        <time>2022-08-05T23:17:57.632Z</time>
      </trkpt>
      <trkpt lat="46.05601" lon="14.55595">
        <ele>286.823087</ele>
        <time>2022-08-05T23:18:00.463Z</time>
      </trkpt>
      <trkpt lat="46.05601" lon="14.55608">
        <ele>286.793195</ele>
        <time>2022-08-05T23:18:02.721Z</time>
      </trkpt>
      <trkpt lat="46.05601" lon="14.5562">
        <ele>286.764691</ele>
        <time>2022-08-05T23:18:04.934Z</time>
      </trkpt>
      <trkpt lat="46.056" lon="14.55631">
        <ele>286.740046</ele>
        <time>2022-08-05T23:18:06.750Z</time>
      </trkpt>
      <trkpt lat="46.05601" lon="14.55638">
        <ele>286.724201</ele>
        <time>2022-08-05T23:18:07.909Z</time>
      </trkpt>
      <trkpt lat="46.05601" lon="14.55686">
        <ele>286.612941</ele>
        <time>2022-08-05T23:18:16.438Z</time>
      </trkpt>
      <trkpt lat="46.05603" lon="14.55708">
        <ele>286.561568</ele>
        <time>2022-08-05T23:18:20.346Z</time>
      </trkpt>
      <trkpt lat="46.05606" lon="14.55785">
        <ele>286.383126</ele>
        <time>2022-08-05T23:18:33.866Z</time>
      </trkpt>
      <trkpt lat="46.05606" lon="14.55789">
        <ele>286.372909</ele>
        <time>2022-08-05T23:18:34.616Z</time>
      </trkpt>
      <trkpt lat="46.05606" lon="14.55795">
        <ele>286.35831</ele>
        <time>2022-08-05T23:18:35.698Z</time>
      </trkpt>
      <trkpt lat="46.05606" lon="14.558">
        <ele>286.348572</ele>
        <time>2022-08-05T23:18:36.434Z</time>
      </trkpt>
      <trkpt lat="46.05605" lon="14.55902">
        <ele>285.942242</ele>
        <time>2022-08-05T23:18:53.233Z</time>
      </trkpt>
      <trkpt lat="46.05605" lon="14.55907">
        <ele>285.918994</ele>
        <time>2022-08-05T23:18:54.079Z</time>
      </trkpt>
      <trkpt lat="46.05605" lon="14.55913">
        <ele>285.890821</ele>
        <time>2022-08-05T23:18:55.100Z</time>
      </trkpt>
      <trkpt lat="46.05602" lon="14.55961">
        <ele>285.676857</ele>
        <time>2022-08-05T23:19:03.214Z</time>
      </trkpt>
      <trkpt lat="46.05598" lon="14.56023">
        <ele>285.395999</ele>
        <time>2022-08-05T23:19:13.952Z</time>
      </trkpt>
      <trkpt lat="46.05584" lon="14.56116">
        <ele>284.97954</ele>
        <time>2022-08-05T23:19:29.655Z</time>
      </trkpt>
      <trkpt lat="46.05576" lon="14.56136">
        <ele>284.879369</ele>
        <time>2022-08-05T23:19:33.426Z</time>
      </trkpt>
      <trkpt lat="46.05575" lon="14.56144">
        <ele>284.841882</ele>
        <time>2022-08-05T23:19:34.838Z</time>
      </trkpt>
      <trkpt lat="46.05571" lon="14.56167">
        <ele>284.742151</ele>
        <time>2022-08-05T23:19:38.780Z</time>
      </trkpt>
      <trkpt lat="46.05572" lon="14.56174">
        <ele>284.710919</ele>
        <time>2022-08-05T23:19:39.991Z</time>
      </trkpt>
      <trkpt lat="46.05563" lon="14.56219">
        <ele>284.511552</ele>
        <time>2022-08-05T23:19:47.704Z</time>
      </trkpt>
      <trkpt lat="46.05551" lon="14.56294">
        <ele>284.179634</ele>
        <time>2022-08-05T23:20:00.634Z</time>
      </trkpt>
      <trkpt lat="46.05543" lon="14.56327">
        <ele>284.029895</ele>
        <time>2022-08-05T23:20:06.773Z</time>
      </trkpt>
      <trkpt lat="46.05511" lon="14.56472">
        <ele>283.571729</ele>
        <time>2022-08-05T23:20:33.343Z</time>
      </trkpt>
      <trkpt lat="46.05489" lon="14.56637">
        <ele>282.967711</ele>
        <time>2022-08-05T23:21:02.070Z</time>
      </trkpt>
      <trkpt lat="46.05485" lon="14.56653">
        <ele>282.882717</ele>
        <time>2022-08-05T23:21:05.020Z</time>
      </trkpt>
      <trkpt lat="46.05484" lon="14.56665">
        <ele>282.826302</ele>
        <time>2022-08-05T23:21:07.017Z</time>
      </trkpt>
      <trkpt lat="46.05484" lon="14.56672">
        <ele>282.790939</ele>
        <time>2022-08-05T23:21:08.261Z</time>
      </trkpt>
      <trkpt lat="46.05487" lon="14.56687">
        <ele>282.718146</ele>
        <time>2022-08-05T23:21:10.815Z</time>
      </trkpt>
      <trkpt lat="46.05483" lon="14.56692">
        <ele>282.685541</ele>
        <time>2022-08-05T23:21:11.924Z</time>
      </trkpt>
      <trkpt lat="46.05481" lon="14.56696">
        <ele>282.65841</ele>
        <time>2022-08-05T23:21:12.834Z</time>
      </trkpt>
      <trkpt lat="46.05484" lon="14.56755">
        <ele>282.372845</ele>
        <time>2022-08-05T23:21:22.736Z</time>
      </trkpt>
      <trkpt lat="46.05484" lon="14.5676">
        <ele>282.351823</ele>
        <time>2022-08-05T23:21:23.472Z</time>
      </trkpt>
      <trkpt lat="46.05498" lon="14.56907">
        <ele>281.623176</ele>
        <time>2022-08-05T23:21:48.043Z</time>
      </trkpt>
      <trkpt lat="46.05502" lon="14.57048">
        <ele>280.916486</ele>
        <time>2022-08-05T23:22:11.441Z</time>
      </trkpt>
      <trkpt lat="46.05502" lon="14.57098">
        <ele>280.690123</ele>
        <time>2022-08-05T23:22:19.773Z</time>
      </trkpt>
      <trkpt lat="46.05493" lon="14.57245">
        <ele>280.361149</ele>
        <time>2022-08-05T23:22:44.322Z</time>
      </trkpt>
      <trkpt lat="46.05487" lon="14.57274">
        <ele>280.293249</ele>
        <time>2022-08-05T23:22:49.933Z</time>
      </trkpt>
      <trkpt lat="46.05471" lon="14.57306">
        <ele>280.204829</ele>
        <time>2022-08-05T23:22:57.226Z</time>
      </trkpt>
      <trkpt lat="46.05473" lon="14.5731">
        <ele>280.195083</ele>
        <time>2022-08-05T23:22:58.038Z</time>
      </trkpt>
      <trkpt lat="46.05475" lon="14.57313">
        <ele>280.186178</ele>
        <time>2022-08-05T23:22:58.919Z</time>
      </trkpt>
      <trkpt lat="46.05477" lon="14.57315">
        <ele>280.17842</ele>
        <time>2022-08-05T23:22:59.717Z</time>
      </trkpt>
      <trkpt lat="46.05479" lon="14.5732">
        <ele>280.165</ele>
        <time>2022-08-05T23:23:01.057Z</time>
      </trkpt>
      <trkpt lat="46.05478" lon="14.57326">
        <ele>280.152128</ele>
        <time>2022-08-05T23:23:02.153Z</time>
      </trkpt>
      <trkpt lat="46.05478" lon="14.5733">
        <ele>280.141832</ele>
        <time>2022-08-05T23:23:02.996Z</time>
      </trkpt>
      <trkpt lat="46.05476" lon="14.57335">
        <ele>280.132933</ele>
        <time>2022-08-05T23:23:03.894Z</time>
      </trkpt>
      <trkpt lat="46.05476" lon="14.57347">
        <ele>280.175847</ele>
        <time>2022-08-05T23:23:06.140Z</time>
      </trkpt>
      <trkpt lat="46.05461" lon="14.5741">
        <ele>280.414193</ele>
        <time>2022-08-05T23:23:20.213Z</time>
      </trkpt>
      <trkpt lat="46.0546" lon="14.57414">
        <ele>280.429578</ele>
        <time>2022-08-05T23:23:21.237Z</time>
      </trkpt>
      <trkpt lat="46.05458" lon="14.5742">
        <ele>280.455659</ele>
        <time>2022-08-05T23:23:22.991Z</time>
      </trkpt>
      <trkpt lat="46.05456" lon="14.57427">
        <ele>280.479162</ele>
        <time>2022-08-05T23:23:24.334Z</time>
      </trkpt>
      <trkpt lat="46.05455" lon="14.57433">
        <ele>280.501798</ele>
        <time>2022-08-05T23:23:25.612Z</time>
      </trkpt>
      <trkpt lat="46.05452" lon="14.57438">
        <ele>280.527797</ele>
        <time>2022-08-05T23:23:27.064Z</time>
      </trkpt>
      <trkpt lat="46.0545" lon="14.57441">
        <ele>280.542493</ele>
        <time>2022-08-05T23:23:27.854Z</time>
      </trkpt>
      <trkpt lat="46.05448" lon="14.57444">
        <ele>280.556343</ele>
        <time>2022-08-05T23:23:28.570Z</time>
      </trkpt>
      <trkpt lat="46.05449" lon="14.57468">
        <ele>280.639025</ele>
        <time>2022-08-05T23:23:33.855Z</time>
      </trkpt>
      <trkpt lat="46.05427" lon="14.57638">
        <ele>280.926473</ele>
        <time>2022-08-05T23:24:08.051Z</time>
      </trkpt>
      <trkpt lat="46.05425" lon="14.57645">
        <ele>280.908446</ele>
        <time>2022-08-05T23:24:09.374Z</time>
      </trkpt>
      <trkpt lat="46.05424" lon="14.57653">
        <ele>280.889175</ele>
        <time>2022-08-05T23:24:11.024Z</time>
      </trkpt>
      <trkpt lat="46.05422" lon="14.57663">
        <ele>280.867328</ele>
        <time>2022-08-05T23:24:12.968Z</time>
      </trkpt>
      <trkpt lat="46.0542" lon="14.57675">
        <ele>280.838579</ele>
        <time>2022-08-05T23:24:15.339Z</time>
      </trkpt>
      <trkpt lat="46.05419" lon="14.57686">
        <ele>280.811043</ele>
        <time>2022-08-05T23:24:17.340Z</time>
      </trkpt>
      <trkpt lat="46.05414" lon="14.57737">
        <ele>280.691612</ele>
        <time>2022-08-05T23:24:25.772Z</time>
      </trkpt>
      <trkpt lat="46.05415" lon="14.57759">
        <ele>280.640039</ele>
        <time>2022-08-05T23:24:29.486Z</time>
      </trkpt>
      <trkpt lat="46.0541" lon="14.57934">
        <ele>280.334025</ele>
        <time>2022-08-05T23:24:58.311Z</time>
      </trkpt>
      <trkpt lat="46.0541" lon="14.58073">
        <ele>280.161684</ele>
        <time>2022-08-05T23:25:23.985Z</time>
      </trkpt>
      <trkpt lat="46.0539" lon="14.58209">
        <ele>280.271927</ele>
        <time>2022-08-05T23:25:52.965Z</time>
      </trkpt>
      <trkpt lat="46.05389" lon="14.58213">
        <ele>280.27693</ele>
        <time>2022-08-05T23:25:53.776Z</time>
      </trkpt>
      <trkpt lat="46.05389" lon="14.58217">
        <ele>280.282499</ele>
        <time>2022-08-05T23:25:54.721Z</time>
      </trkpt>
      <trkpt lat="46.05379" lon="14.58304">
        <ele>280.391885</ele>
        <time>2022-08-05T23:26:11.642Z</time>
      </trkpt>
      <trkpt lat="46.05379" lon="14.5831">
        <ele>280.398861</ele>
        <time>2022-08-05T23:26:12.642Z</time>
      </trkpt>
      <trkpt lat="46.05379" lon="14.58315">
        <ele>280.405589</ele>
        <time>2022-08-05T23:26:13.560Z</time>
      </trkpt>
      <trkpt lat="46.05378" lon="14.58319">
        <ele>280.410608</ele>
        <time>2022-08-05T23:26:14.275Z</time>
      </trkpt>
      <trkpt lat="46.05375" lon="14.5834">
        <ele>280.437312</ele>
        <time>2022-08-05T23:26:17.982Z</time>
      </trkpt>
      <trkpt lat="46.05373" lon="14.58366">
        <ele>280.35514</ele>
        <time>2022-08-05T23:26:22.516Z</time>
      </trkpt>
      <trkpt lat="46.05374" lon="14.58382">
        <ele>280.250641</ele>
        <time>2022-08-05T23:26:25.059Z</time>
      </trkpt>
      <trkpt lat="46.05376" lon="14.58424">
        <ele>279.964547</ele>
        <time>2022-08-05T23:26:32.084Z</time>
      </trkpt>
      <trkpt lat="46.05379" lon="14.58466">
        <ele>279.677436</ele>
        <time>2022-08-05T23:26:38.959Z</time>
      </trkpt>
      <trkpt lat="46.05378" lon="14.5847">
        <ele>279.652501</ele>
        <time>2022-08-05T23:26:39.523Z</time>
      </trkpt>
      <trkpt lat="46.05377" lon="14.58474">
        <ele>279.621663</ele>
        <time>2022-08-05T23:26:40.235Z</time>
      </trkpt>
      <trkpt lat="46.05376" lon="14.58483">
        <ele>279.562142</ele>
        <time>2022-08-05T23:26:41.600Z</time>
      </trkpt>
      <trkpt lat="46.05377" lon="14.58489">
        <ele>279.521122</ele>
        <time>2022-08-05T23:26:42.530Z</time>
      </trkpt>
      <trkpt lat="46.05394" lon="14.58664">
        <ele>278.329846</ele>
        <time>2022-08-05T23:27:10.148Z</time>
      </trkpt>
      <trkpt lat="46.05396" lon="14.58673">
        <ele>278.267478</ele>
        <time>2022-08-05T23:27:11.609Z</time>
      </trkpt>
      <trkpt lat="46.05397" lon="14.58683">
        <ele>278.202503</ele>
        <time>2022-08-05T23:27:13.096Z</time>
      </trkpt>
      <trkpt lat="46.05399" lon="14.58756">
        <ele>277.716365</ele>
        <time>2022-08-05T23:27:24.563Z</time>
      </trkpt>
      <trkpt lat="46.05399" lon="14.58764">
        <ele>277.665301</ele>
        <time>2022-08-05T23:27:25.763Z</time>
      </trkpt>
      <trkpt lat="46.05398" lon="14.58772">
        <ele>277.611609</ele>
        <time>2022-08-05T23:27:27.086Z</time>
      </trkpt>
      <trkpt lat="46.05397" lon="14.58804">
        <ele>277.398157</ele>
        <time>2022-08-05T23:27:32.418Z</time>
      </trkpt>
      <trkpt lat="46.05396" lon="14.58819">
        <ele>277.29862</ele>
        <time>2022-08-05T23:27:34.895Z</time>
      </trkpt>
      <trkpt lat="46.05385" lon="14.58885">
        <ele>276.944871</ele>
        <time>2022-08-05T23:27:46.826Z</time>
      </trkpt>
      <trkpt lat="46.05382" lon="14.58916">
        <ele>276.892816</ele>
        <time>2022-08-05T23:27:52.580Z</time>
      </trkpt>
      <trkpt lat="46.05367" lon="14.58963">
        <ele>276.809715</ele>
        <time>2022-08-05T23:28:01.780Z</time>
      </trkpt>
      <trkpt lat="46.05348" lon="14.58978">
        <ele>276.757467</ele>
        <time>2022-08-05T23:28:07.604Z</time>
      </trkpt>
      <trkpt lat="46.05345" lon="14.58984">
        <ele>276.744569</ele>
        <time>2022-08-05T23:28:09.056Z</time>
      </trkpt>
      <trkpt lat="46.05341" lon="14.59003">
        <ele>276.713838</ele>
        <time>2022-08-05T23:28:12.436Z</time>
      </trkpt>
      <trkpt lat="46.05341" lon="14.5901">
        <ele>276.701577</ele>
        <time>2022-08-05T23:28:13.823Z</time>
      </trkpt>
      <trkpt lat="46.05343" lon="14.5902">
        <ele>276.685407</ele>
        <time>2022-08-05T23:28:15.607Z</time>
      </trkpt>
      <trkpt lat="46.05347" lon="14.59031">
        <ele>276.663687</ele>
        <time>2022-08-05T23:28:17.990Z</time>
      </trkpt>
      <trkpt lat="46.05349" lon="14.59034">
        <ele>276.658653</ele>
        <time>2022-08-05T23:28:18.534Z</time>
      </trkpt>
      <trkpt lat="46.0536" lon="14.59088">
        <ele>276.565897</ele>
        <time>2022-08-05T23:28:28.621Z</time>
      </trkpt>
      <trkpt lat="46.05373" lon="14.59101">
        <ele>276.529459</ele>
        <time>2022-08-05T23:28:32.725Z</time>
      </trkpt>
      <trkpt lat="46.05376" lon="14.59109">
        <ele>276.515583</ele>
        <time>2022-08-05T23:28:34.333Z</time>
      </trkpt>
      <trkpt lat="46.05376" lon="14.59149">
        <ele>276.454428</ele>
        <time>2022-08-05T23:28:41.308Z</time>
      </trkpt>
      <trkpt lat="46.05374" lon="14.59165">
        <ele>276.42928</ele>
        <time>2022-08-05T23:28:44.182Z</time>
      </trkpt>
      <trkpt lat="46.05373" lon="14.59178">
        <ele>276.407979</ele>
        <time>2022-08-05T23:28:46.604Z</time>
      </trkpt>
      <trkpt lat="46.0537" lon="14.59201">
        <ele>276.371957</ele>
        <time>2022-08-05T23:28:50.808Z</time>
      </trkpt>
      <trkpt lat="46.05368" lon="14.59221">
        <ele>276.340728</ele>
        <time>2022-08-05T23:28:54.443Z</time>
      </trkpt>
      <trkpt lat="46.05367" lon="14.59223">
        <ele>276.337514</ele>
        <time>2022-08-05T23:28:54.799Z</time>
      </trkpt>
      <trkpt lat="46.05357" lon="14.5928">
        <ele>276.247622</ele>
        <time>2022-08-05T23:29:05.163Z</time>
      </trkpt>
      <trkpt lat="46.05356" lon="14.59287">
        <ele>276.235676</ele>
        <time>2022-08-05T23:29:06.554Z</time>
      </trkpt>
      <trkpt lat="46.05351" lon="14.59348">
        <ele>276.13558</ele>
        <time>2022-08-05T23:29:17.650Z</time>
      </trkpt>
      <trkpt lat="46.05349" lon="14.59384">
        <ele>276.056188</ele>
        <time>2022-08-05T23:29:24.124Z</time>
      </trkpt>
      <trkpt lat="46.05347" lon="14.59442">
        <ele>275.930145</ele>
        <time>2022-08-05T23:29:34.432Z</time>
      </trkpt>
      <trkpt lat="46.05346" lon="14.59456">
        <ele>275.899244</ele>
        <time>2022-08-05T23:29:36.971Z</time>
      </trkpt>
      <trkpt lat="46.05343" lon="14.59535">
        <ele>275.725385</ele>
        <time>2022-08-05T23:29:50.900Z</time>
      </trkpt>
      <trkpt lat="46.05342" lon="14.59616">
        <ele>275.514719</ele>
        <time>2022-08-05T23:30:04.828Z</time>
      </trkpt>
      <trkpt lat="46.05341" lon="14.59661">
        <ele>275.326365</ele>
        <time>2022-08-05T23:30:12.435Z</time>
      </trkpt>
      <trkpt lat="46.05315" lon="14.59786">
        <ele>274.776349</ele>
        <time>2022-08-05T23:30:34.133Z</time>
      </trkpt>
      <trkpt lat="46.05309" lon="14.59875">
        <ele>274.461498</ele>
        <time>2022-08-05T23:30:49.151Z</time>
      </trkpt>
      <trkpt lat="46.05305" lon="14.59936">
        <ele>274.365974</ele>
        <time>2022-08-05T23:30:59.595Z</time>
      </trkpt>
      <trkpt lat="46.05293" lon="14.59974">
        <ele>274.30027</ele>
        <time>2022-08-05T23:31:07.128Z</time>
      </trkpt>
      <trkpt lat="46.05287" lon="14.59989">
        <ele>274.273475</ele>
        <time>2022-08-05T23:31:10.243Z</time>
      </trkpt>
      <trkpt lat="46.05273" lon="14.60025">
        <ele>274.207606</ele>
        <time>2022-08-05T23:31:18.065Z</time>
      </trkpt>
      <trkpt lat="46.05256" lon="14.60123">
        <ele>274.032407</ele>
        <time>2022-08-05T23:31:36.917Z</time>
      </trkpt>
      <trkpt lat="46.05232" lon="14.60172">
        <ele>273.899042</ele>
        <time>2022-08-05T23:31:47.479Z</time>
      </trkpt>
      <trkpt lat="46.05216" lon="14.60195">
        <ele>273.825755</ele>
        <time>2022-08-05T23:31:52.835Z</time>
      </trkpt>
      <trkpt lat="46.05177" lon="14.60229">
        <ele>273.67804</ele>
        <time>2022-08-05T23:32:04.012Z</time>
      </trkpt>
      <trkpt lat="46.05165" lon="14.6025">
        <ele>273.617747</ele>
        <time>2022-08-05T23:32:08.611Z</time>
      </trkpt>
      <trkpt lat="46.05159" lon="14.60261">
        <ele>273.586459</ele>
        <time>2022-08-05T23:32:11.072Z</time>
      </trkpt>
      <trkpt lat="46.05145" lon="14.6032">
        <ele>273.52324</ele>
        <time>2022-08-05T23:32:22.477Z</time>
      </trkpt>
      <trkpt lat="46.05131" lon="14.60362">
        <ele>273.543498</ele>
        <time>2022-08-05T23:32:30.762Z</time>
      </trkpt>
      <trkpt lat="46.05121" lon="14.60426">
        <ele>273.573071</ele>
        <time>2022-08-05T23:32:43.446Z</time>
      </trkpt>
      <trkpt lat="46.05117" lon="14.60471">
        <ele>273.593022</ele>
        <time>2022-08-05T23:32:51.782Z</time>
      </trkpt>
      <trkpt lat="46.05152" lon="14.60576">
        <ele>273.579817</ele>
        <time>2022-08-05T23:33:14.029Z</time>
      </trkpt>
      <trkpt lat="46.05168" lon="14.60629">
        <ele>273.517523</ele>
        <time>2022-08-05T23:33:25.985Z</time>
      </trkpt>
      <trkpt lat="46.0518" lon="14.60674">
        <ele>273.466039</ele>
        <time>2022-08-05T23:33:35.471Z</time>
      </trkpt>
      <trkpt lat="46.05193" lon="14.60727">
        <ele>273.405717</ele>
        <time>2022-08-05T23:33:45.454Z</time>
      </trkpt>
      <trkpt lat="46.05229" lon="14.6082">
        <ele>272.802721</ele>
        <time>2022-08-05T23:34:02.286Z</time>
      </trkpt>
      <trkpt lat="46.05222" lon="14.6084">
        <ele>272.56897</ele>
        <time>2022-08-05T23:34:05.710Z</time>
      </trkpt>
      <trkpt lat="46.05192" lon="14.60848">
        <ele>272.120324</ele>
        <time>2022-08-05T23:34:12.217Z</time>
      </trkpt>
      <trkpt lat="46.05162" lon="14.60856">
        <ele>271.668125</ele>
        <time>2022-08-05T23:34:18.906Z</time>
      </trkpt>
      <trkpt lat="46.05135" lon="14.60867">
        <ele>271.241913</ele>
        <time>2022-08-05T23:34:25.182Z</time>
      </trkpt>
      <trkpt lat="46.05109" lon="14.60878">
        <ele>270.841263</ele>
        <time>2022-08-05T23:34:30.954Z</time>
      </trkpt>
      <trkpt lat="46.05056" lon="14.60904">
        <ele>270.071782</ele>
        <time>2022-08-05T23:34:42.869Z</time>
      </trkpt>
      <trkpt lat="46.05052" lon="14.60922">
        <ele>269.894203</ele>
        <time>2022-08-05T23:34:45.697Z</time>
      </trkpt>
      <trkpt lat="46.05055" lon="14.6096">
        <ele>269.541569</ele>
        <time>2022-08-05T23:34:51.326Z</time>
      </trkpt>
      <trkpt lat="46.0506" lon="14.60994">
        <ele>269.210582</ele>
        <time>2022-08-05T23:34:56.750Z</time>
      </trkpt>
      <trkpt lat="46.05053" lon="14.6102">
        <ele>268.958202</ele>
        <time>2022-08-05T23:35:00.988Z</time>
      </trkpt>
      <trkpt lat="46.05045" lon="14.61027">
        <ele>268.831304</ele>
        <time>2022-08-05T23:35:03.196Z</time>
      </trkpt>
      <trkpt lat="46.05002" lon="14.61059">
        <ele>268.22592</ele>
        <time>2022-08-05T23:35:14.845Z</time>
      </trkpt>
      <trkpt lat="46.04957" lon="14.61093">
        <ele>268.035932</ele>
        <time>2022-08-05T23:35:27.349Z</time>
      </trkpt>
      <trkpt lat="46.04985" lon="14.61185">
        <ele>267.773808</ele>
        <time>2022-08-05T23:35:57.059Z</time>
      </trkpt>
      <trkpt lat="46.04978" lon="14.61202">
        <ele>267.721712</ele>
        <time>2022-08-05T23:36:03.096Z</time>
      </trkpt>
      <trkpt lat="46.04965" lon="14.61215">
        <ele>267.66272</ele>
        <time>2022-08-05T23:36:09.938Z</time>
      </trkpt>
      <trkpt lat="46.04901" lon="14.61251">
        <ele>267.631647</ele>
        <time>2022-08-05T23:36:40.360Z</time>
      </trkpt>
      <trkpt lat="46.04888" lon="14.61266">
        <ele>267.655669</ele>
        <time>2022-08-05T23:36:47.713Z</time>
      </trkpt>
      <trkpt lat="46.04864" lon="14.6134">
        <ele>267.739457</ele>
        <time>2022-08-05T23:37:13.295Z</time>
      </trkpt>
      <trkpt lat="46.04827" lon="14.6141">
        <ele>267.829155</ele>
        <time>2022-08-05T23:37:41.345Z</time>
      </trkpt>
      <trkpt lat="46.04809" lon="14.61434">
        <ele>267.964095</ele>
        <time>2022-08-05T23:37:52.569Z</time>
      </trkpt>
      <trkpt lat="46.04784" lon="14.61451">
        <ele>268.130145</ele>
        <time>2022-08-05T23:38:05.503Z</time>
      </trkpt>
      <trkpt lat="46.04773" lon="14.61471">
        <ele>268.233381</ele>
        <time>2022-08-05T23:38:13.704Z</time>
      </trkpt>
      <trkpt lat="46.0478" lon="14.61515">
        <ele>268.418638</ele>
        <time>2022-08-05T23:38:28.184Z</time>
      </trkpt>
      <trkpt lat="46.04785" lon="14.61541">
        <ele>268.531828</ele>
        <time>2022-08-05T23:38:36.927Z</time>
      </trkpt>
      <trkpt lat="46.04785" lon="14.61564">
        <ele>268.625885</ele>
        <time>2022-08-05T23:38:44.366Z</time>
      </trkpt>
      <trkpt lat="46.04775" lon="14.6162">
        <ele>268.86252</ele>
        <time>2022-08-05T23:39:03.902Z</time>
      </trkpt>
      <trkpt lat="46.04752" lon="14.61667">
        <ele>269.306018</ele>
        <time>2022-08-05T23:39:24.455Z</time>
      </trkpt>
      <trkpt lat="46.04717" lon="14.6176">
        <ele>270.193495</ele>
        <time>2022-08-05T23:40:01.760Z</time>
      </trkpt>
      <trkpt lat="46.04717" lon="14.61777">
        <ele>270.332584</ele>
        <time>2022-08-05T23:40:07.834Z</time>
      </trkpt>
      <trkpt lat="46.04719" lon="14.61785">
        <ele>270.408972</ele>
        <time>2022-08-05T23:40:11.031Z</time>
      </trkpt>
      <trkpt lat="46.04743" lon="14.61824">
        <ele>270.838728</ele>
        <time>2022-08-05T23:40:28.957Z</time>
      </trkpt>
      <trkpt lat="46.04748" lon="14.61841">
        <ele>270.996902</ele>
        <time>2022-08-05T23:40:35.293Z</time>
      </trkpt>
      <trkpt lat="46.04772" lon="14.61916">
        <ele>271.148918</ele>
        <time>2022-08-05T23:41:03.181Z</time>
      </trkpt>
      <trkpt lat="46.04809" lon="14.61958">
        <ele>271.221688</ele>
        <time>2022-08-05T23:41:25.897Z</time>
      </trkpt>
      <trkpt lat="46.04832" lon="14.6197">
        <ele>271.258413</ele>
        <time>2022-08-05T23:41:36.873Z</time>
      </trkpt>
      <trkpt lat="46.04907" lon="14.61955">
        <ele>271.27446</ele>
        <time>2022-08-05T23:42:07.795Z</time>
      </trkpt>
      <trkpt lat="46.04941" lon="14.61957">
        <ele>271.144303</ele>
        <time>2022-08-05T23:42:21.126Z</time>
      </trkpt>
      <trkpt lat="46.04977" lon="14.61967">
        <ele>271.004676</ele>
        <time>2022-08-05T23:42:35.312Z</time>
      </trkpt>
      <trkpt lat="46.0509" lon="14.6199">
        <ele>271.232566</ele>
        <time>2022-08-05T23:43:26.528Z</time>
      </trkpt>
      <trkpt lat="46.05114" lon="14.62">
        <ele>271.835874</ele>
        <time>2022-08-05T23:43:41.213Z</time>
      </trkpt>
      <trkpt lat="46.05143" lon="14.62023">
        <ele>272.654349</ele>
        <time>2022-08-05T23:44:01.281Z</time>
      </trkpt>
      <trkpt lat="46.05178" lon="14.62072">
        <ele>273.848449</ele>
        <time>2022-08-05T23:44:29.907Z</time>
      </trkpt>
      <trkpt lat="46.05204" lon="14.62082">
        <ele>274.502299</ele>
        <time>2022-08-05T23:44:46.766Z</time>
      </trkpt>
      <trkpt lat="46.05257" lon="14.6215">
        <ele>275.4993</ele>
        <time>2022-08-05T23:45:27.458Z</time>
      </trkpt>
      <trkpt lat="46.0528" lon="14.62171">
        <ele>275.742956</ele>
        <time>2022-08-05T23:45:41.876Z</time>
      </trkpt>
      <trkpt lat="46.05331" lon="14.62199">
        <ele>276.235794</ele>
        <time>2022-08-05T23:46:09.268Z</time>
      </trkpt>
      <trkpt lat="46.05352" lon="14.62203">
        <ele>276.433517</ele>
        <time>2022-08-05T23:46:17.923Z</time>
      </trkpt>
      <trkpt lat="46.05406" lon="14.62178">
        <ele>276.675218</ele>
        <time>2022-08-05T23:46:39.353Z</time>
      </trkpt>
      <trkpt lat="46.05437" lon="14.62181">
        <ele>276.661179</ele>
        <time>2022-08-05T23:46:51.002Z</time>
      </trkpt>
      <trkpt lat="46.05479" lon="14.62225">
        <ele>276.637716</ele>
        <time>2022-08-05T23:47:11.757Z</time>
      </trkpt>
      <trkpt lat="46.05557" lon="14.62283">
        <ele>277.392012</ele>
        <time>2022-08-05T23:47:59.540Z</time>
      </trkpt>
      <trkpt lat="46.05585" lon="14.62326">
        <ele>279.0716</ele>
        <time>2022-08-05T23:48:22.919Z</time>
      </trkpt>
      <trkpt lat="46.05623" lon="14.62352">
        <ele>280.786645</ele>
        <time>2022-08-05T23:48:50.564Z</time>
      </trkpt>
      <trkpt lat="46.05628" lon="14.62355">
        <ele>281.002857</ele>
        <time>2022-08-05T23:48:54.175Z</time>
      </trkpt>
      <trkpt lat="46.05645" lon="14.62363">
        <ele>281.71269</ele>
        <time>2022-08-05T23:49:06.964Z</time>
      </trkpt>
      <trkpt lat="46.05701" lon="14.62316">
        <ele>284.25723</ele>
        <time>2022-08-05T23:49:52.046Z</time>
      </trkpt>
      <trkpt lat="46.05732" lon="14.62294">
        <ele>285.362581</ele>
        <time>2022-08-05T23:50:17.056Z</time>
      </trkpt>
      <trkpt lat="46.05771" lon="14.6229">
        <ele>286.618997</ele>
        <time>2022-08-05T23:50:44.740Z</time>
      </trkpt>
      <trkpt lat="46.05933" lon="14.62235">
        <ele>287.596089</ele>
        <time>2022-08-05T23:52:08.693Z</time>
      </trkpt>
      <trkpt lat="46.06025" lon="14.62242">
        <ele>284.89163</ele>
        <time>2022-08-05T23:52:25.239Z</time>
      </trkpt>
      <trkpt lat="46.06068" lon="14.62227">
        <ele>283.301158</ele>
        <time>2022-08-05T23:52:32.866Z</time>
      </trkpt>
      <trkpt lat="46.06116" lon="14.6222">
        <ele>281.377412</ele>
        <time>2022-08-05T23:52:41.266Z</time>
      </trkpt>
      <trkpt lat="46.06157" lon="14.62215">
        <ele>279.734368</ele>
        <time>2022-08-05T23:52:48.848Z</time>
      </trkpt>
      <trkpt lat="46.06185" lon="14.62213">
        <ele>278.608763</ele>
        <time>2022-08-05T23:52:54.211Z</time>
      </trkpt>
      <trkpt lat="46.06211" lon="14.62229">
        <ele>277.490386</ele>
        <time>2022-08-05T23:53:00.079Z</time>
      </trkpt>
      <trkpt lat="46.06223" lon="14.62227">
        <ele>277.487082</ele>
        <time>2022-08-05T23:53:02.676Z</time>
      </trkpt>
      <trkpt lat="46.06245" lon="14.62283">
        <ele>279.603786</ele>
        <time>2022-08-05T23:53:21.225Z</time>
      </trkpt>
      <trkpt lat="46.06308" lon="14.62391">
        <ele>284.22284</ele>
        <time>2022-08-05T23:54:16.110Z</time>
      </trkpt>
      <trkpt lat="46.06338" lon="14.62453">
        <ele>286.85671</ele>
        <time>2022-08-05T23:54:50.546Z</time>
      </trkpt>
      <trkpt lat="46.06407" lon="14.62599">
        <ele>293.629999</ele>
        <time>2022-08-05T23:55:59.464Z</time>
      </trkpt>
      <trkpt lat="46.0649" lon="14.62739">
        <ele>297.359403</ele>
        <time>2022-08-05T23:56:49.001Z</time>
      </trkpt>
      <trkpt lat="46.06561" lon="14.62869">
        <ele>299.432096</ele>
        <time>2022-08-05T23:57:24.260Z</time>
      </trkpt>
      <trkpt lat="46.06698" lon="14.63183">
        <ele>302.820768</ele>
        <time>2022-08-05T23:58:52.859Z</time>
      </trkpt>
      <trkpt lat="46.06726" lon="14.63228">
        <ele>303.298123</ele>
        <time>2022-08-05T23:59:06.182Z</time>
      </trkpt>
      <trkpt lat="46.06753" lon="14.6326">
        <ele>303.682758</ele>
        <time>2022-08-05T23:59:16.644Z</time>
      </trkpt>
      <trkpt lat="46.06894" lon="14.63387">
        <ele>302.452718</ele>
        <time>2022-08-05T23:59:57.883Z</time>
      </trkpt>
      <trkpt lat="46.06929" lon="14.63409">
        <ele>300.995758</ele>
        <time>2022-08-06T00:00:05.790Z</time>
      </trkpt>
      <trkpt lat="46.07011" lon="14.63441">
        <ele>296.397723</ele>
        <time>2022-08-06T00:00:21.388Z</time>
      </trkpt>
      <trkpt lat="46.07039" lon="14.63462">
        <ele>294.666439</ele>
        <time>2022-08-06T00:00:26.898Z</time>
      </trkpt>
      <trkpt lat="46.07159" lon="14.63623">
        <ele>282.502576</ele>
        <time>2022-08-06T00:00:53.980Z</time>
      </trkpt>
      <trkpt lat="46.07167" lon="14.63631">
        <ele>281.699634</ele>
        <time>2022-08-06T00:00:55.634Z</time>
      </trkpt>
      <trkpt lat="46.07172" lon="14.63638">
        <ele>281.152644</ele>
        <time>2022-08-06T00:00:56.763Z</time>
      </trkpt>
      <trkpt lat="46.07174" lon="14.63643">
        <ele>280.83176</ele>
        <time>2022-08-06T00:00:57.422Z</time>
      </trkpt>
      <trkpt lat="46.07207" lon="14.63706">
        <ele>277.544954</ele>
        <time>2022-08-06T00:01:06.851Z</time>
      </trkpt>
      <trkpt lat="46.0733" lon="14.63892">
        <ele>273.714578</ele>
        <time>2022-08-06T00:01:44.083Z</time>
      </trkpt>
      <trkpt lat="46.07342" lon="14.63904">
        <ele>274.19971</ele>
        <time>2022-08-06T00:01:48.939Z</time>
      </trkpt>
      <trkpt lat="46.07399" lon="14.63939">
        <ele>276.288599</ele>
        <time>2022-08-06T00:02:13.549Z</time>
      </trkpt>
      <trkpt lat="46.0743" lon="14.63976">
        <ele>277.651964</ele>
        <time>2022-08-06T00:02:33.862Z</time>
      </trkpt>
      <trkpt lat="46.07479" lon="14.64075">
        <ele>281.806185</ele>
        <time>2022-08-06T00:03:24.969Z</time>
      </trkpt>
      <trkpt lat="46.07516" lon="14.64193">
        <ele>287.692861</ele>
        <time>2022-08-06T00:04:22.582Z</time>
      </trkpt>
      <trkpt lat="46.07527" lon="14.6425">
        <ele>290.387809</ele>
        <time>2022-08-06T00:04:45.209Z</time>
      </trkpt>
      <trkpt lat="46.07532" lon="14.64356">
        <ele>290.651864</ele>
        <time>2022-08-06T00:05:17.029Z</time>
      </trkpt>
      <trkpt lat="46.07514" lon="14.64622">
        <ele>286.666758</ele>
        <time>2022-08-06T00:05:53.445Z</time>
      </trkpt>
      <trkpt lat="46.07536" lon="14.64919">
        <ele>276.484586</ele>
        <time>2022-08-06T00:06:29.718Z</time>
      </trkpt>
      <trkpt lat="46.0755" lon="14.65053">
        <ele>272.504835</ele>
        <time>2022-08-06T00:06:47.675Z</time>
      </trkpt>
      <trkpt lat="46.07552" lon="14.65066">
        <ele>272.481645</ele>
        <time>2022-08-06T00:06:49.483Z</time>
      </trkpt>
      <trkpt lat="46.07555" lon="14.65081">
        <ele>272.451665</ele>
        <time>2022-08-06T00:06:51.818Z</time>
      </trkpt>
      <trkpt lat="46.0758" lon="14.65226">
        <ele>272.176133</ele>
        <time>2022-08-06T00:07:16.987Z</time>
      </trkpt>
      <trkpt lat="46.07597" lon="14.65282">
        <ele>272.06396</ele>
        <time>2022-08-06T00:07:30.610Z</time>
      </trkpt>
      <trkpt lat="46.07687" lon="14.65459">
        <ele>279.533048</ele>
        <time>2022-08-06T00:08:47.077Z</time>
      </trkpt>
      <trkpt lat="46.0772" lon="14.65563">
        <ele>283.988725</ele>
        <time>2022-08-06T00:09:37.120Z</time>
      </trkpt>
      <trkpt lat="46.07726" lon="14.65615">
        <ele>286.185008</ele>
        <time>2022-08-06T00:10:00.330Z</time>
      </trkpt>
      <trkpt lat="46.07731" lon="14.6573">
        <ele>290.977976</ele>
        <time>2022-08-06T00:10:45.842Z</time>
      </trkpt>
      <trkpt lat="46.07757" lon="14.65843">
        <ele>291.864168</ele>
        <time>2022-08-06T00:11:14.166Z</time>
      </trkpt>
      <trkpt lat="46.0778" lon="14.66006">
        <ele>292.163276</ele>
        <time>2022-08-06T00:11:39.178Z</time>
      </trkpt>
      <trkpt lat="46.07788" lon="14.66131">
        <ele>292.86265</ele>
        <time>2022-08-06T00:12:01.861Z</time>
      </trkpt>
      <trkpt lat="46.07777" lon="14.66264">
        <ele>293.613732</ele>
        <time>2022-08-06T00:12:35.864Z</time>
      </trkpt>
      <trkpt lat="46.07783" lon="14.66339">
        <ele>294.09476</ele>
        <time>2022-08-06T00:12:57.565Z</time>
      </trkpt>
      <trkpt lat="46.07796" lon="14.66401">
        <ele>294.503245</ele>
        <time>2022-08-06T00:13:14.510Z</time>
      </trkpt>
      <trkpt lat="46.0785" lon="14.66516">
        <ele>294.864962</ele>
        <time>2022-08-06T00:13:39.010Z</time>
      </trkpt>
      <trkpt lat="46.07859" lon="14.66544">
        <ele>294.487993</ele>
        <time>2022-08-06T00:13:42.788Z</time>
      </trkpt>
      <trkpt lat="46.07875" lon="14.66632">
        <ele>293.360548</ele>
        <time>2022-08-06T00:13:54.079Z</time>
      </trkpt>
      <trkpt lat="46.07923" lon="14.66774">
        <ele>293.485711</ele>
        <time>2022-08-06T00:14:27.955Z</time>
      </trkpt>
      <trkpt lat="46.07925" lon="14.66779">
        <ele>293.680002</ele>
        <time>2022-08-06T00:14:29.619Z</time>
      </trkpt>
      <trkpt lat="46.07934" lon="14.66808">
        <ele>294.61522</ele>
        <time>2022-08-06T00:14:38.769Z</time>
      </trkpt>
      <trkpt lat="46.07968" lon="14.66871">
        <ele>297.055676</ele>
        <time>2022-08-06T00:15:05.595Z</time>
      </trkpt>
      <trkpt lat="46.08036" lon="14.66975">
        <ele>301.243912</ele>
        <time>2022-08-06T00:16:06.131Z</time>
      </trkpt>
      <trkpt lat="46.08081" lon="14.67068">
        <ele>304.353929</ele>
        <time>2022-08-06T00:16:45.529Z</time>
      </trkpt>
      <trkpt lat="46.08125" lon="14.67132">
        <ele>306.822122</ele>
        <time>2022-08-06T00:17:06.588Z</time>
      </trkpt>
      <trkpt lat="46.08147" lon="14.67174">
        <ele>307.262366</ele>
        <time>2022-08-06T00:17:17.015Z</time>
      </trkpt>
      <trkpt lat="46.08163" lon="14.67223">
        <ele>307.579507</ele>
        <time>2022-08-06T00:17:28.115Z</time>
      </trkpt>
      <trkpt lat="46.08198" lon="14.67389">
        <ele>308.418445</ele>
        <time>2022-08-06T00:18:05.528Z</time>
      </trkpt>
      <trkpt lat="46.08222" lon="14.67455">
        <ele>307.984141</ele>
        <time>2022-08-06T00:18:20.581Z</time>
      </trkpt>
      <trkpt lat="46.08258" lon="14.67512">
        <ele>307.535983</ele>
        <time>2022-08-06T00:18:34.305Z</time>
      </trkpt>
      <trkpt lat="46.0831" lon="14.67573">
        <ele>306.937184</ele>
        <time>2022-08-06T00:18:47.731Z</time>
      </trkpt>
      <trkpt lat="46.08373" lon="14.67658">
        <ele>305.284107</ele>
        <time>2022-08-06T00:19:05.529Z</time>
      </trkpt>
      <trkpt lat="46.0842" lon="14.67704">
        <ele>304.185932</ele>
        <time>2022-08-06T00:19:17.504Z</time>
      </trkpt>
      <trkpt lat="46.08455" lon="14.67726">
        <ele>303.551409</ele>
        <time>2022-08-06T00:19:25.868Z</time>
      </trkpt>
      <trkpt lat="46.0856" lon="14.67771">
        <ele>304.198911</ele>
        <time>2022-08-06T00:19:54.849Z</time>
      </trkpt>
      <trkpt lat="46.08613" lon="14.67814">
        <ele>304.563698</ele>
        <time>2022-08-06T00:20:18.865Z</time>
      </trkpt>
      <trkpt lat="46.0868" lon="14.67911">
        <ele>304.92959</ele>
        <time>2022-08-06T00:20:50.897Z</time>
      </trkpt>
      <trkpt lat="46.08723" lon="14.68029">
        <ele>305.197459</ele>
        <time>2022-08-06T00:21:13.581Z</time>
      </trkpt>
      <trkpt lat="46.08736" lon="14.68079">
        <ele>303.997763</ele>
        <time>2022-08-06T00:21:21.615Z</time>
      </trkpt>
      <trkpt lat="46.08752" lon="14.68203">
        <ele>301.168678</ele>
        <time>2022-08-06T00:21:40.113Z</time>
      </trkpt>
      <trkpt lat="46.08769" lon="14.68444">
        <ele>291.861533</ele>
        <time>2022-08-06T00:22:11.346Z</time>
      </trkpt>
      <trkpt lat="46.08778" lon="14.68502">
        <ele>289.147179</ele>
        <time>2022-08-06T00:22:18.653Z</time>
      </trkpt>
      <trkpt lat="46.08835" lon="14.68722">
        <ele>276.678139</ele>
        <time>2022-08-06T00:22:47.034Z</time>
      </trkpt>
      <trkpt lat="46.08878" lon="14.68915">
        <ele>269.695199</ele>
        <time>2022-08-06T00:23:13.209Z</time>
      </trkpt>
      <trkpt lat="46.08889" lon="14.68991">
        <ele>267.669831</ele>
        <time>2022-08-06T00:23:24.800Z</time>
      </trkpt>
      <trkpt lat="46.08902" lon="14.69151">
        <ele>267.197867</ele>
        <time>2022-08-06T00:23:55.899Z</time>
      </trkpt>
      <trkpt lat="46.08903" lon="14.69288">
        <ele>267.80137</ele>
        <time>2022-08-06T00:24:29.090Z</time>
      </trkpt>
      <trkpt lat="46.08895" lon="14.69414">
        <ele>268.704532</ele>
        <time>2022-08-06T00:24:59.812Z</time>
      </trkpt>
      <trkpt lat="46.08874" lon="14.69579">
        <ele>269.544946</ele>
        <time>2022-08-06T00:25:36.376Z</time>
      </trkpt>
      <trkpt lat="46.08728" lon="14.70211">
        <ele>267.52596</ele>
        <time>2022-08-06T00:27:34.712Z</time>
      </trkpt>
      <trkpt lat="46.08629" lon="14.70655">
        <ele>266.691037</ele>
        <time>2022-08-06T00:29:01.000Z</time>
      </trkpt>
      <trkpt lat="46.08596" lon="14.70753">
        <ele>266.58042</ele>
        <time>2022-08-06T00:29:20.748Z</time>
      </trkpt>
      <trkpt lat="46.0858" lon="14.70825">
        <ele>267.141642</ele>
        <time>2022-08-06T00:29:36.258Z</time>
      </trkpt>
      <trkpt lat="46.08561" lon="14.70876">
        <ele>267.73662</ele>
        <time>2022-08-06T00:29:49.161Z</time>
      </trkpt>
      <trkpt lat="46.08528" lon="14.70936">
        <ele>268.527278</ele>
        <time>2022-08-06T00:30:08.183Z</time>
      </trkpt>
      <trkpt lat="46.08427" lon="14.71209">
        <ele>273.897267</ele>
        <time>2022-08-06T00:31:37.542Z</time>
      </trkpt>
      <trkpt lat="46.08369" lon="14.71461">
        <ele>278.923439</ele>
        <time>2022-08-06T00:32:51.161Z</time>
      </trkpt>
      <trkpt lat="46.08356" lon="14.71605">
        <ele>282.553319</ele>
        <time>2022-08-06T00:33:37.038Z</time>
      </trkpt>
      <trkpt lat="46.08351" lon="14.7173">
        <ele>285.74375</ele>
        <time>2022-08-06T00:34:18.766Z</time>
      </trkpt>
      <trkpt lat="46.08346" lon="14.71804">
        <ele>286.728068</ele>
        <time>2022-08-06T00:34:41.127Z</time>
      </trkpt>
      <trkpt lat="46.08331" lon="14.7188">
        <ele>287.75108</ele>
        <time>2022-08-06T00:35:01.365Z</time>
      </trkpt>
      <trkpt lat="46.08327" lon="14.71932">
        <ele>288.437631</ele>
        <time>2022-08-06T00:35:14.031Z</time>
      </trkpt>
      <trkpt lat="46.08318" lon="14.72355">
        <ele>288.890262</ele>
        <time>2022-08-06T00:36:34.878Z</time>
      </trkpt>
      <trkpt lat="46.08306" lon="14.72495">
        <ele>288.557062</ele>
        <time>2022-08-06T00:37:00.508Z</time>
      </trkpt>
      <trkpt lat="46.08291" lon="14.7251">
        <ele>288.406718</ele>
        <time>2022-08-06T00:37:04.613Z</time>
      </trkpt>
      <trkpt lat="46.08287" lon="14.72611">
        <ele>287.610981</ele>
        <time>2022-08-06T00:37:22.024Z</time>
      </trkpt>
      <trkpt lat="46.08288" lon="14.72676">
        <ele>287.100434</ele>
        <time>2022-08-06T00:37:32.622Z</time>
      </trkpt>
      <trkpt lat="46.08295" lon="14.72713">
        <ele>286.800892</ele>
        <time>2022-08-06T00:37:38.449Z</time>
      </trkpt>
      <trkpt lat="46.08299" lon="14.72799">
        <ele>286.483859</ele>
        <time>2022-08-06T00:37:52.284Z</time>
      </trkpt>
      <trkpt lat="46.08309" lon="14.72859">
        <ele>286.459636</ele>
        <time>2022-08-06T00:38:03.203Z</time>
      </trkpt>
      <trkpt lat="46.08321" lon="14.7297">
        <ele>286.41574</ele>
        <time>2022-08-06T00:38:27.067Z</time>
      </trkpt>
      <trkpt lat="46.08325" lon="14.73156">
        <ele>286.433179</ele>
        <time>2022-08-06T00:39:09.047Z</time>
      </trkpt>
      <trkpt lat="46.08321" lon="14.7322">
        <ele>286.447105</ele>
        <time>2022-08-06T00:39:22.209Z</time>
      </trkpt>
      <trkpt lat="46.0832" lon="14.73253">
        <ele>286.454107</ele>
        <time>2022-08-06T00:39:27.360Z</time>
      </trkpt>
      <trkpt lat="46.0833" lon="14.73374">
        <ele>282.725222</ele>
        <time>2022-08-06T00:39:44.942Z</time>
      </trkpt>
      <trkpt lat="46.08329" lon="14.73462">
        <ele>279.697296</ele>
        <time>2022-08-06T00:39:55.876Z</time>
      </trkpt>
      <trkpt lat="46.08333" lon="14.73543">
        <ele>277.368899</ele>
        <time>2022-08-06T00:40:06.123Z</time>
      </trkpt>
      <trkpt lat="46.08353" lon="14.73622">
        <ele>276.638309</ele>
        <time>2022-08-06T00:40:16.855Z</time>
      </trkpt>
      <trkpt lat="46.08345" lon="14.73724">
        <ele>275.738594</ele>
        <time>2022-08-06T00:40:34.075Z</time>
      </trkpt>
      <trkpt lat="46.08343" lon="14.73733">
        <ele>275.652695</ele>
        <time>2022-08-06T00:40:35.878Z</time>
      </trkpt>
      <trkpt lat="46.08336" lon="14.73748">
        <ele>275.493078</ele>
        <time>2022-08-06T00:40:42.770Z</time>
      </trkpt>
      <trkpt lat="46.0832" lon="14.73787">
        <ele>276.595051</ele>
        <time>2022-08-06T00:40:58.376Z</time>
      </trkpt>
      <trkpt lat="46.08298" lon="14.73821">
        <ele>279.904822</ele>
        <time>2022-08-06T00:41:20.825Z</time>
      </trkpt>
      <trkpt lat="46.08307" lon="14.73832">
        <ele>281.115515</ele>
        <time>2022-08-06T00:41:33.127Z</time>
      </trkpt>
      <trkpt lat="46.08359" lon="14.73836">
        <ele>286.471826</ele>
        <time>2022-08-06T00:42:15.190Z</time>
      </trkpt>
      <trkpt lat="46.08369" lon="14.73842">
        <ele>287.555307</ele>
        <time>2022-08-06T00:42:23.105Z</time>
      </trkpt>
      <trkpt lat="46.08387" lon="14.73868">
        <ele>290.164282</ele>
        <time>2022-08-06T00:42:47.784Z</time>
      </trkpt>
      <trkpt lat="46.08422" lon="14.73928">
        <ele>295.254939</ele>
        <time>2022-08-06T00:43:38.892Z</time>
      </trkpt>
      <trkpt lat="46.08437" lon="14.73964">
        <ele>297.472129</ele>
        <time>2022-08-06T00:44:01.720Z</time>
      </trkpt>
      <trkpt lat="46.08498" lon="14.74168">
        <ele>306.414818</ele>
        <time>2022-08-06T00:45:31.834Z</time>
      </trkpt>
      <trkpt lat="46.08522" lon="14.74313">
        <ele>302.397019</ele>
        <time>2022-08-06T00:45:53.449Z</time>
      </trkpt>
      <trkpt lat="46.08539" lon="14.74381">
        <ele>300.443193</ele>
        <time>2022-08-06T00:46:02.007Z</time>
      </trkpt>
      <trkpt lat="46.08543" lon="14.74434">
        <ele>296.017677</ele>
        <time>2022-08-06T00:46:08.112Z</time>
      </trkpt>
      <trkpt lat="46.08551" lon="14.74458">
        <ele>293.687859</ele>
        <time>2022-08-06T00:46:11.092Z</time>
      </trkpt>
      <trkpt lat="46.08589" lon="14.74493">
        <ele>287.949435</ele>
        <time>2022-08-06T00:46:18.423Z</time>
      </trkpt>
      <trkpt lat="46.08615" lon="14.74544">
        <ele>282.299677</ele>
        <time>2022-08-06T00:46:25.691Z</time>
      </trkpt>
      <trkpt lat="46.08646" lon="14.74579">
        <ele>277.251582</ele>
        <time>2022-08-06T00:46:32.234Z</time>
      </trkpt>
      <trkpt lat="46.08696" lon="14.74682">
        <ele>272.280745</ele>
        <time>2022-08-06T00:46:47.286Z</time>
      </trkpt>
      <trkpt lat="46.08713" lon="14.74734">
        <ele>270.025395</ele>
        <time>2022-08-06T00:46:55.279Z</time>
      </trkpt>
      <trkpt lat="46.08738" lon="14.74868">
        <ele>267.541309</ele>
        <time>2022-08-06T00:47:23.097Z</time>
      </trkpt>
      <trkpt lat="46.08777" lon="14.74977">
        <ele>268.513373</ele>
        <time>2022-08-06T00:47:53.525Z</time>
      </trkpt>
      <trkpt lat="46.08859" lon="14.7507">
        <ele>269.4207</ele>
        <time>2022-08-06T00:48:31.065Z</time>
      </trkpt>
      <trkpt lat="46.08865" lon="14.75103">
        <ele>269.55874</ele>
        <time>2022-08-06T00:48:38.355Z</time>
      </trkpt>
      <trkpt lat="46.08858" lon="14.75135">
        <ele>269.697898</ele>
        <time>2022-08-06T00:48:45.927Z</time>
      </trkpt>
      <trkpt lat="46.08855" lon="14.75161">
        <ele>269.804213</ele>
        <time>2022-08-06T00:48:50.677Z</time>
      </trkpt>
      <trkpt lat="46.08859" lon="14.75186">
        <ele>269.910644</ele>
        <time>2022-08-06T00:48:55.937Z</time>
      </trkpt>
      <trkpt lat="46.0888" lon="14.75241">
        <ele>270.166314</ele>
        <time>2022-08-06T00:49:07.410Z</time>
      </trkpt>
      <trkpt lat="46.08908" lon="14.75335">
        <ele>269.236467</ele>
        <time>2022-08-06T00:49:25.470Z</time>
      </trkpt>
      <trkpt lat="46.08915" lon="14.75418">
        <ele>268.477356</ele>
        <time>2022-08-06T00:49:38.610Z</time>
      </trkpt>
      <trkpt lat="46.08919" lon="14.75447">
        <ele>268.212522</ele>
        <time>2022-08-06T00:49:43.113Z</time>
      </trkpt>
      <trkpt lat="46.0893" lon="14.75504">
        <ele>267.616835</ele>
        <time>2022-08-06T00:49:52.212Z</time>
      </trkpt>
      <trkpt lat="46.0898" lon="14.75622">
        <ele>265.863783</ele>
        <time>2022-08-06T00:50:13.205Z</time>
      </trkpt>
      <trkpt lat="46.09024" lon="14.758">
        <ele>264.3482</ele>
        <time>2022-08-06T00:50:43.327Z</time>
      </trkpt>
      <trkpt lat="46.09063" lon="14.75884">
        <ele>264.132831</ele>
        <time>2022-08-06T00:51:02.376Z</time>
      </trkpt>
      <trkpt lat="46.0906" lon="14.7593">
        <ele>264.034366</ele>
        <time>2022-08-06T00:51:11.340Z</time>
      </trkpt>
      <trkpt lat="46.0903" lon="14.76042">
        <ele>265.451523</ele>
        <time>2022-08-06T00:51:39.881Z</time>
      </trkpt>
      <trkpt lat="46.09026" lon="14.76128">
        <ele>266.847619</ele>
        <time>2022-08-06T00:52:03.325Z</time>
      </trkpt>
      <trkpt lat="46.09043" lon="14.76168">
        <ele>267.603589</ele>
        <time>2022-08-06T00:52:17.304Z</time>
      </trkpt>
      <trkpt lat="46.09045" lon="14.76177">
        <ele>267.758276</ele>
        <time>2022-08-06T00:52:20.039Z</time>
      </trkpt>
      <trkpt lat="46.09066" lon="14.76212">
        <ele>268.882852</ele>
        <time>2022-08-06T00:52:35.098Z</time>
      </trkpt>
      <trkpt lat="46.0908" lon="14.7627">
        <ele>270.968994</ele>
        <time>2022-08-06T00:52:54.530Z</time>
      </trkpt>
      <trkpt lat="46.09076" lon="14.76368">
        <ele>274.373009</ele>
        <time>2022-08-06T00:53:29.714Z</time>
      </trkpt>
      <trkpt lat="46.09085" lon="14.76386">
        <ele>275.123686</ele>
        <time>2022-08-06T00:53:40.188Z</time>
      </trkpt>
      <trkpt lat="46.09112" lon="14.76391">
        <ele>276.49981</ele>
        <time>2022-08-06T00:53:54.297Z</time>
      </trkpt>
      <trkpt lat="46.09117" lon="14.76395">
        <ele>276.794408</ele>
        <time>2022-08-06T00:53:58.823Z</time>
      </trkpt>
      <trkpt lat="46.09119" lon="14.76469">
        <ele>280.230026</ele>
        <time>2022-08-06T00:54:26.361Z</time>
      </trkpt>
      <trkpt lat="46.0914" lon="14.76626">
        <ele>287.919715</ele>
        <time>2022-08-06T00:55:34.970Z</time>
      </trkpt>
      <trkpt lat="46.09183" lon="14.76803">
        <ele>295.739701</ele>
        <time>2022-08-06T00:56:56.103Z</time>
      </trkpt>
      <trkpt lat="46.09215" lon="14.76891">
        <ele>299.726214</ele>
        <time>2022-08-06T00:57:29.366Z</time>
      </trkpt>
      <trkpt lat="46.09248" lon="14.76967">
        <ele>299.829751</ele>
        <time>2022-08-06T00:57:52.014Z</time>
      </trkpt>
      <trkpt lat="46.09303" lon="14.7706">
        <ele>299.577204</ele>
        <time>2022-08-06T00:58:12.111Z</time>
      </trkpt>
      <trkpt lat="46.094" lon="14.77185">
        <ele>296.116314</ele>
        <time>2022-08-06T00:58:36.865Z</time>
      </trkpt>
      <trkpt lat="46.09476" lon="14.77268">
        <ele>292.842885</ele>
        <time>2022-08-06T00:58:54.571Z</time>
      </trkpt>
      <trkpt lat="46.09538" lon="14.77353">
        <ele>291.381075</ele>
        <time>2022-08-06T00:59:12.462Z</time>
      </trkpt>
      <trkpt lat="46.09597" lon="14.77412">
        <ele>290.16399</ele>
        <time>2022-08-06T00:59:28.984Z</time>
      </trkpt>
      <trkpt lat="46.096" lon="14.77421">
        <ele>290.049974</ele>
        <time>2022-08-06T00:59:30.321Z</time>
      </trkpt>
      <trkpt lat="46.09597" lon="14.77445">
        <ele>289.978006</ele>
        <time>2022-08-06T00:59:36.093Z</time>
      </trkpt>
      <trkpt lat="46.09602" lon="14.77458">
        <ele>290.051964</ele>
        <time>2022-08-06T00:59:38.781Z</time>
      </trkpt>
      <trkpt lat="46.09635" lon="14.77495">
        <ele>290.34728</ele>
        <time>2022-08-06T00:59:51.008Z</time>
      </trkpt>
      <trkpt lat="46.09681" lon="14.77564">
        <ele>290.810761</ele>
        <time>2022-08-06T01:00:15.419Z</time>
      </trkpt>
      <trkpt lat="46.09798" lon="14.77685">
        <ele>289.900986</ele>
        <time>2022-08-06T01:00:53.714Z</time>
      </trkpt>
      <trkpt lat="46.09871" lon="14.77785">
        <ele>288.291294</ele>
        <time>2022-08-06T01:01:13.792Z</time>
      </trkpt>
      <trkpt lat="46.09897" lon="14.77832">
        <ele>286.978427</ele>
        <time>2022-08-06T01:01:21.853Z</time>
      </trkpt>
      <trkpt lat="46.09897" lon="14.77844">
        <ele>286.706819</ele>
        <time>2022-08-06T01:01:23.496Z</time>
      </trkpt>
      <trkpt lat="46.09904" lon="14.77857">
        <ele>286.34619</ele>
        <time>2022-08-06T01:01:25.854Z</time>
      </trkpt>
      <trkpt lat="46.0996" lon="14.77906">
        <ele>284.30431</ele>
        <time>2022-08-06T01:01:39.178Z</time>
      </trkpt>
      <trkpt lat="46.1002" lon="14.77993">
        <ele>282.161892</ele>
        <time>2022-08-06T01:01:56.675Z</time>
      </trkpt>
      <trkpt lat="46.10038" lon="14.78047">
        <ele>281.371902</ele>
        <time>2022-08-06T01:02:05.850Z</time>
      </trkpt>
      <trkpt lat="46.10073" lon="14.78065">
        <ele>280.659257</ele>
        <time>2022-08-06T01:02:14.757Z</time>
      </trkpt>
      <trkpt lat="46.10101" lon="14.78089">
        <ele>280.047072</ele>
        <time>2022-08-06T01:02:22.390Z</time>
      </trkpt>
      <trkpt lat="46.10151" lon="14.78147">
        <ele>279.900217</ele>
        <time>2022-08-06T01:02:37.746Z</time>
      </trkpt>
      <trkpt lat="46.10159" lon="14.78172">
        <ele>280.05423</ele>
        <time>2022-08-06T01:02:43.107Z</time>
      </trkpt>
      <trkpt lat="46.10172" lon="14.78191">
        <ele>280.199151</ele>
        <time>2022-08-06T01:02:47.044Z</time>
      </trkpt>
      <trkpt lat="46.10162" lon="14.78188">
        <ele>280.276976</ele>
        <time>2022-08-06T01:02:50.951Z</time>
      </trkpt>
      <trkpt lat="46.10162" lon="14.78197">
        <ele>280.327606</ele>
        <time>2022-08-06T01:02:52.800Z</time>
      </trkpt>
      <trkpt lat="46.10191" lon="14.7828">
        <ele>280.835112</ele>
        <time>2022-08-06T01:03:16.739Z</time>
      </trkpt>
      <trkpt lat="46.10205" lon="14.78356">
        <ele>281.764288</ele>
        <time>2022-08-06T01:03:39.916Z</time>
      </trkpt>
      <trkpt lat="46.10205" lon="14.78451">
        <ele>283.258692</ele>
        <time>2022-08-06T01:04:07.420Z</time>
      </trkpt>
      <trkpt lat="46.10212" lon="14.78549">
        <ele>284.820838</ele>
        <time>2022-08-06T01:04:32.581Z</time>
      </trkpt>
      <trkpt lat="46.10209" lon="14.78561">
        <ele>285.022553</ele>
        <time>2022-08-06T01:04:35.697Z</time>
      </trkpt>
      <trkpt lat="46.10197" lon="14.78618">
        <ele>285.139198</ele>
        <time>2022-08-06T01:04:49.875Z</time>
      </trkpt>
      <trkpt lat="46.10188" lon="14.78656">
        <ele>285.170343</ele>
        <time>2022-08-06T01:04:58.379Z</time>
      </trkpt>
      <trkpt lat="46.10172" lon="14.78784">
        <ele>285.269515</ele>
        <time>2022-08-06T01:05:23.388Z</time>
      </trkpt>
      <trkpt lat="46.1016" lon="14.78833">
        <ele>284.804474</ele>
        <time>2022-08-06T01:05:31.836Z</time>
      </trkpt>
      <trkpt lat="46.10161" lon="14.78858">
        <ele>284.104805</ele>
        <time>2022-08-06T01:05:35.557Z</time>
      </trkpt>
      <trkpt lat="46.10156" lon="14.78869">
        <ele>283.734151</ele>
        <time>2022-08-06T01:05:37.780Z</time>
      </trkpt>
      <trkpt lat="46.10141" lon="14.78967">
        <ele>280.909974</ele>
        <time>2022-08-06T01:05:52.129Z</time>
      </trkpt>
      <trkpt lat="46.10131" lon="14.79071">
        <ele>277.923642</ele>
        <time>2022-08-06T01:06:05.596Z</time>
      </trkpt>
      <trkpt lat="46.10104" lon="14.7914">
        <ele>273.988207</ele>
        <time>2022-08-06T01:06:15.229Z</time>
      </trkpt>
      <trkpt lat="46.10119" lon="14.79137">
        <ele>272.865948</ele>
        <time>2022-08-06T01:06:17.910Z</time>
      </trkpt>
      <trkpt lat="46.10175" lon="14.79171">
        <ele>268.505126</ele>
        <time>2022-08-06T01:06:28.467Z</time>
      </trkpt>
      <trkpt lat="46.1015" lon="14.79219">
        <ele>265.508029</ele>
        <time>2022-08-06T01:06:35.882Z</time>
      </trkpt>
      <trkpt lat="46.1012" lon="14.79256">
        <ele>264.499965</ele>
        <time>2022-08-06T01:06:43.264Z</time>
      </trkpt>
      <trkpt lat="46.10074" lon="14.79287">
        <ele>263.692508</ele>
        <time>2022-08-06T01:06:53.904Z</time>
      </trkpt>
      <trkpt lat="46.10074" lon="14.79299">
        <ele>263.565774</ele>
        <time>2022-08-06T01:06:55.353Z</time>
      </trkpt>
      <trkpt lat="46.10014" lon="14.79312">
        <ele>262.609534</ele>
        <time>2022-08-06T01:07:14.788Z</time>
      </trkpt>
      <trkpt lat="46.09942" lon="14.79348">
        <ele>263.122915</ele>
        <time>2022-08-06T01:07:46.079Z</time>
      </trkpt>
      <trkpt lat="46.09839" lon="14.79376">
        <ele>265.142411</ele>
        <time>2022-08-06T01:08:24.757Z</time>
      </trkpt>
      <trkpt lat="46.0978" lon="14.79462">
        <ele>265.268666</ele>
        <time>2022-08-06T01:08:49.678Z</time>
      </trkpt>
      <trkpt lat="46.09738" lon="14.79489">
        <ele>264.976608</ele>
        <time>2022-08-06T01:09:00.538Z</time>
      </trkpt>
      <trkpt lat="46.09704" lon="14.79498">
        <ele>264.75545</ele>
        <time>2022-08-06T01:09:07.827Z</time>
      </trkpt>
      <trkpt lat="46.09669" lon="14.79534">
        <ele>264.481186</ele>
        <time>2022-08-06T01:09:16.892Z</time>
      </trkpt>
      <trkpt lat="46.09596" lon="14.79583">
        <ele>264.048672</ele>
        <time>2022-08-06T01:09:35.563Z</time>
      </trkpt>
      <trkpt lat="46.09572" lon="14.79612">
        <ele>263.880287</ele>
        <time>2022-08-06T01:09:43.590Z</time>
      </trkpt>
      <trkpt lat="46.09556" lon="14.79621">
        <ele>263.787829</ele>
        <time>2022-08-06T01:09:48.496Z</time>
      </trkpt>
      <trkpt lat="46.09515" lon="14.79626">
        <ele>263.566463</ele>
        <time>2022-08-06T01:10:00.807Z</time>
      </trkpt>
      <trkpt lat="46.09466" lon="14.79648">
        <ele>262.86744</ele>
        <time>2022-08-06T01:10:14.144Z</time>
      </trkpt>
      <trkpt lat="46.0944" lon="14.79649">
        <ele>262.488224</ele>
        <time>2022-08-06T01:10:20.051Z</time>
      </trkpt>
      <trkpt lat="46.09402" lon="14.79719">
        <ele>261.576256</ele>
        <time>2022-08-06T01:10:33.360Z</time>
      </trkpt>
      <trkpt lat="46.09335" lon="14.79825">
        <ele>259.680979</ele>
        <time>2022-08-06T01:10:53.152Z</time>
      </trkpt>
      <trkpt lat="46.09258" lon="14.79897">
        <ele>257.58591</ele>
        <time>2022-08-06T01:11:10.901Z</time>
      </trkpt>
      <trkpt lat="46.09176" lon="14.79948">
        <ele>258.053379</ele>
        <time>2022-08-06T01:11:35.605Z</time>
      </trkpt>
      <trkpt lat="46.09159" lon="14.79957">
        <ele>258.510727</ele>
        <time>2022-08-06T01:11:41.335Z</time>
      </trkpt>
      <trkpt lat="46.09108" lon="14.79971">
        <ele>259.846469</ele>
        <time>2022-08-06T01:12:04.344Z</time>
      </trkpt>
      <trkpt lat="46.09059" lon="14.80005">
        <ele>261.235346</ele>
        <time>2022-08-06T01:12:30.303Z</time>
      </trkpt>
      <trkpt lat="46.09007" lon="14.80031">
        <ele>262.914342</ele>
        <time>2022-08-06T01:12:59.368Z</time>
      </trkpt>
      <trkpt lat="46.08974" lon="14.80083">
        <ele>264.415099</ele>
        <time>2022-08-06T01:13:21.218Z</time>
      </trkpt>
      <trkpt lat="46.08931" lon="14.80194">
        <ele>266.834244</ele>
        <time>2022-08-06T01:13:53.159Z</time>
      </trkpt>
      <trkpt lat="46.08801" lon="14.80356">
        <ele>266.649918</ele>
        <time>2022-08-06T01:14:34.522Z</time>
      </trkpt>
      <trkpt lat="46.08732" lon="14.80456">
        <ele>267.760548</ele>
        <time>2022-08-06T01:15:03.991Z</time>
      </trkpt>
      <trkpt lat="46.08665" lon="14.80512">
        <ele>268.63756</ele>
        <time>2022-08-06T01:15:31.588Z</time>
      </trkpt>
      <trkpt lat="46.08641" lon="14.80563">
        <ele>269.255491</ele>
        <time>2022-08-06T01:15:47.644Z</time>
      </trkpt>
      <trkpt lat="46.08625" lon="14.8063">
        <ele>269.979569</ele>
        <time>2022-08-06T01:16:05.794Z</time>
      </trkpt>
      <trkpt lat="46.08624" lon="14.80691">
        <ele>270.60761</ele>
        <time>2022-08-06T01:16:20.923Z</time>
      </trkpt>
      <trkpt lat="46.08513" lon="14.80956">
        <ele>272.455086</ele>
        <time>2022-08-06T01:17:20.350Z</time>
      </trkpt>
      <trkpt lat="46.08472" lon="14.81113">
        <ele>275.438541</ele>
        <time>2022-08-06T01:18:06.054Z</time>
      </trkpt>
      <trkpt lat="46.08462" lon="14.81189">
        <ele>276.973503</ele>
        <time>2022-08-06T01:18:30.219Z</time>
      </trkpt>
      <trkpt lat="46.0846" lon="14.81317">
        <ele>279.077335</ele>
        <time>2022-08-06T01:19:08.866Z</time>
      </trkpt>
      <trkpt lat="46.0848" lon="14.81714">
        <ele>282.48101</ele>
        <time>2022-08-06T01:20:40.715Z</time>
      </trkpt>
      <trkpt lat="46.08485" lon="14.81809">
        <ele>280.748996</ele>
        <time>2022-08-06T01:20:54.043Z</time>
      </trkpt>
      <trkpt lat="46.08499" lon="14.82048">
        <ele>273.902391</ele>
        <time>2022-08-06T01:21:24.292Z</time>
      </trkpt>
      <trkpt lat="46.08496" lon="14.82139">
        <ele>270.822589</ele>
        <time>2022-08-06T01:21:35.780Z</time>
      </trkpt>
      <trkpt lat="46.08442" lon="14.82354">
        <ele>263.681059</ele>
        <time>2022-08-06T01:22:04.764Z</time>
      </trkpt>
      <trkpt lat="46.08436" lon="14.82353">
        <ele>263.456273</ele>
        <time>2022-08-06T01:22:05.679Z</time>
      </trkpt>
      <trkpt lat="46.08434" lon="14.82311">
        <ele>262.239922</ele>
        <time>2022-08-06T01:22:11.335Z</time>
      </trkpt>
      <trkpt lat="46.08426" lon="14.82311">
        <ele>261.919448</ele>
        <time>2022-08-06T01:22:12.664Z</time>
      </trkpt>
      <trkpt lat="46.08421" lon="14.82371">
        <ele>260.17368</ele>
        <time>2022-08-06T01:22:20.781Z</time>
      </trkpt>
      <trkpt lat="46.08405" lon="14.82383">
        <ele>259.446108</ele>
        <time>2022-08-06T01:22:24.173Z</time>
      </trkpt>
      <trkpt lat="46.08404" lon="14.82283">
        <ele>257.661837</ele>
        <time>2022-08-06T01:22:37.866Z</time>
      </trkpt>
      <trkpt lat="46.08401" lon="14.82259">
        <ele>257.240747</ele>
        <time>2022-08-06T01:22:41.141Z</time>
      </trkpt>
      <trkpt lat="46.08344" lon="14.82184">
        <ele>255.328621</ele>
        <time>2022-08-06T01:22:57.554Z</time>
      </trkpt>
      <trkpt lat="46.08284" lon="14.82058">
        <ele>253.626664</ele>
        <time>2022-08-06T01:23:20.818Z</time>
      </trkpt>
      <trkpt lat="46.08255" lon="14.8201">
        <ele>253.01139</ele>
        <time>2022-08-06T01:23:30.285Z</time>
      </trkpt>
      <trkpt lat="46.08164" lon="14.81918">
        <ele>252.250245</ele>
        <time>2022-08-06T01:23:56.014Z</time>
      </trkpt>
      <trkpt lat="46.08128" lon="14.81888">
        <ele>252.214624</ele>
        <time>2022-08-06T01:24:06.497Z</time>
      </trkpt>
      <trkpt lat="46.08096" lon="14.81871">
        <ele>252.184563</ele>
        <time>2022-08-06T01:24:16.224Z</time>
      </trkpt>
      <trkpt lat="46.08071" lon="14.81825">
        <ele>252.149637</ele>
        <time>2022-08-06T01:24:28.935Z</time>
      </trkpt>
      <trkpt lat="46.08022" lon="14.81772">
        <ele>253.079771</ele>
        <time>2022-08-06T01:24:49.429Z</time>
      </trkpt>
      <trkpt lat="46.07998" lon="14.8173">
        <ele>253.667505</ele>
        <time>2022-08-06T01:25:02.320Z</time>
      </trkpt>
      <trkpt lat="46.07997" lon="14.81699">
        <ele>253.998843</ele>
        <time>2022-08-06T01:25:09.834Z</time>
      </trkpt>
      <trkpt lat="46.07992" lon="14.81692">
        <ele>254.10946</ele>
        <time>2022-08-06T01:25:12.505Z</time>
      </trkpt>
      <trkpt lat="46.07969" lon="14.81707">
        <ele>254.506678</ele>
        <time>2022-08-06T01:25:21.353Z</time>
      </trkpt>
      <trkpt lat="46.07947" lon="14.81703">
        <ele>254.850237</ele>
        <time>2022-08-06T01:25:29.013Z</time>
      </trkpt>
      <trkpt lat="46.07919" lon="14.81694">
        <ele>255.448772</ele>
        <time>2022-08-06T01:25:39.247Z</time>
      </trkpt>
      <trkpt lat="46.07876" lon="14.81665">
        <ele>256.529001</ele>
        <time>2022-08-06T01:25:56.943Z</time>
      </trkpt>
      <trkpt lat="46.07775" lon="14.8157">
        <ele>259.388436</ele>
        <time>2022-08-06T01:26:42.570Z</time>
      </trkpt>
      <trkpt lat="46.07762" lon="14.8154">
        <ele>260.249801</ele>
        <time>2022-08-06T01:26:52.566Z</time>
      </trkpt>
      <trkpt lat="46.07572" lon="14.81492">
        <ele>266.6155</ele>
        <time>2022-08-06T01:28:18.957Z</time>
      </trkpt>
      <trkpt lat="46.07533" lon="14.81469">
        <ele>267.775999</ele>
        <time>2022-08-06T01:28:37.686Z</time>
      </trkpt>
      <trkpt lat="46.07475" lon="14.81462">
        <ele>269.386497</ele>
        <time>2022-08-06T01:29:01.413Z</time>
      </trkpt>
      <trkpt lat="46.07452" lon="14.81469">
        <ele>270.05371</ele>
        <time>2022-08-06T01:29:09.456Z</time>
      </trkpt>
      <trkpt lat="46.07383" lon="14.81537">
        <ele>267.534578</ele>
        <time>2022-08-06T01:29:31.684Z</time>
      </trkpt>
      <trkpt lat="46.07299" lon="14.81649">
        <ele>263.016086</ele>
        <time>2022-08-06T01:29:51.657Z</time>
      </trkpt>
      <trkpt lat="46.07283" lon="14.81676">
        <ele>261.227693</ele>
        <time>2022-08-06T01:29:55.819Z</time>
      </trkpt>
      <trkpt lat="46.07266" lon="14.81719">
        <ele>258.777321</ele>
        <time>2022-08-06T01:30:01.569Z</time>
      </trkpt>
      <trkpt lat="46.07243" lon="14.8174">
        <ele>256.799769</ele>
        <time>2022-08-06T01:30:06.348Z</time>
      </trkpt>
      <trkpt lat="46.07228" lon="14.81741">
        <ele>255.723526</ele>
        <time>2022-08-06T01:30:08.710Z</time>
      </trkpt>
      <trkpt lat="46.07214" lon="14.81733">
        <ele>254.674748</ele>
        <time>2022-08-06T01:30:11.504Z</time>
      </trkpt>
      <trkpt lat="46.07158" lon="14.81641">
        <ele>249.742602</ele>
        <time>2022-08-06T01:30:26.173Z</time>
      </trkpt>
      <trkpt lat="46.07134" lon="14.81618">
        <ele>248.75163</ele>
        <time>2022-08-06T01:30:31.388Z</time>
      </trkpt>
      <trkpt lat="46.07093" lon="14.81582">
        <ele>247.093997</ele>
        <time>2022-08-06T01:30:40.460Z</time>
      </trkpt>
      <trkpt lat="46.07067" lon="14.81548">
        <ele>245.888261</ele>
        <time>2022-08-06T01:30:48.700Z</time>
      </trkpt>
      <trkpt lat="46.06982" lon="14.81463">
        <ele>244.310251</ele>
        <time>2022-08-06T01:31:13.020Z</time>
      </trkpt>
      <trkpt lat="46.06896" lon="14.81327">
        <ele>243.621434</ele>
        <time>2022-08-06T01:31:46.747Z</time>
      </trkpt>
      <trkpt lat="46.06874" lon="14.81301">
        <ele>243.301581</ele>
        <time>2022-08-06T01:31:53.384Z</time>
      </trkpt>
      <trkpt lat="46.06844" lon="14.81234">
        <ele>242.663631</ele>
        <time>2022-08-06T01:32:06.268Z</time>
      </trkpt>
      <trkpt lat="46.06829" lon="14.81224">
        <ele>242.477169</ele>
        <time>2022-08-06T01:32:10.014Z</time>
      </trkpt>
      <trkpt lat="46.06807" lon="14.81226">
        <ele>242.222971</ele>
        <time>2022-08-06T01:32:14.901Z</time>
      </trkpt>
      <trkpt lat="46.06771" lon="14.81246">
        <ele>241.792296</ele>
        <time>2022-08-06T01:32:23.026Z</time>
      </trkpt>
      <trkpt lat="46.06706" lon="14.8126">
        <ele>240.657052</ele>
        <time>2022-08-06T01:32:36.781Z</time>
      </trkpt>
      <trkpt lat="46.06611" lon="14.81233">
        <ele>238.934329</ele>
        <time>2022-08-06T01:32:56.949Z</time>
      </trkpt>
      <trkpt lat="46.06459" lon="14.81148">
        <ele>237.982903</ele>
        <time>2022-08-06T01:33:37.524Z</time>
      </trkpt>
      <trkpt lat="46.06321" lon="14.81108">
        <ele>238.348607</ele>
        <time>2022-08-06T01:34:16.646Z</time>
      </trkpt>
      <trkpt lat="46.06197" lon="14.8113">
        <ele>240.189226</ele>
        <time>2022-08-06T01:34:54.799Z</time>
      </trkpt>
      <trkpt lat="46.06074" lon="14.81166">
        <ele>243.996176</ele>
        <time>2022-08-06T01:35:48.036Z</time>
      </trkpt>
      <trkpt lat="46.05967" lon="14.81175">
        <ele>250.900804</ele>
        <time>2022-08-06T01:36:50.484Z</time>
      </trkpt>
      <trkpt lat="46.05964" lon="14.81177">
        <ele>251.11658</ele>
        <time>2022-08-06T01:36:52.311Z</time>
      </trkpt>
      <trkpt lat="46.05956" lon="14.81183">
        <ele>251.714322</ele>
        <time>2022-08-06T01:36:57.678Z</time>
      </trkpt>
      <trkpt lat="46.05918" lon="14.81218">
        <ele>254.743694</ele>
        <time>2022-08-06T01:37:27.381Z</time>
      </trkpt>
      <trkpt lat="46.05837" lon="14.81279">
        <ele>260.755062</ele>
        <time>2022-08-06T01:38:24.682Z</time>
      </trkpt>
      <trkpt lat="46.05803" lon="14.81315">
        <ele>263.4534</ele>
        <time>2022-08-06T01:38:49.763Z</time>
      </trkpt>
      <trkpt lat="46.05694" lon="14.81484">
        <ele>272.471914</ele>
        <time>2022-08-06T01:40:12.369Z</time>
      </trkpt>
      <trkpt lat="46.05652" lon="14.81538">
        <ele>275.230857</ele>
        <time>2022-08-06T01:40:40.276Z</time>
      </trkpt>
      <trkpt lat="46.05625" lon="14.81596">
        <ele>277.426123</ele>
        <time>2022-08-06T01:41:05.028Z</time>
      </trkpt>
      <trkpt lat="46.05578" lon="14.8177">
        <ele>281.939785</ele>
        <time>2022-08-06T01:42:03.672Z</time>
      </trkpt>
      <trkpt lat="46.05563" lon="14.81844">
        <ele>283.207325</ele>
        <time>2022-08-06T01:42:23.542Z</time>
      </trkpt>
      <trkpt lat="46.05549" lon="14.82008">
        <ele>283.591764</ele>
        <time>2022-08-06T01:42:55.254Z</time>
      </trkpt>
      <trkpt lat="46.0553" lon="14.8216">
        <ele>283.965031</ele>
        <time>2022-08-06T01:43:20.146Z</time>
      </trkpt>
      <trkpt lat="46.05538" lon="14.82312">
        <ele>284.342376</ele>
        <time>2022-08-06T01:43:51.949Z</time>
      </trkpt>
      <trkpt lat="46.05538" lon="14.82433">
        <ele>284.389991</ele>
        <time>2022-08-06T01:44:22.582Z</time>
      </trkpt>
      <trkpt lat="46.05544" lon="14.82496">
        <ele>284.39195</ele>
        <time>2022-08-06T01:44:38.947Z</time>
      </trkpt>
      <trkpt lat="46.05598" lon="14.82695">
        <ele>276.799822</ele>
        <time>2022-08-06T01:45:07.891Z</time>
      </trkpt>
      <trkpt lat="46.05624" lon="14.82838">
        <ele>267.195022</ele>
        <time>2022-08-06T01:45:24.043Z</time>
      </trkpt>
      <trkpt lat="46.05643" lon="14.82831">
        <ele>264.596205</ele>
        <time>2022-08-06T01:45:27.196Z</time>
      </trkpt>
      <trkpt lat="46.05649" lon="14.82835">
        <ele>263.766349</ele>
        <time>2022-08-06T01:45:28.219Z</time>
      </trkpt>
      <trkpt lat="46.05667" lon="14.82886">
        <ele>258.517985</ele>
        <time>2022-08-06T01:45:34.604Z</time>
      </trkpt>
      <trkpt lat="46.05681" lon="14.82911">
        <ele>255.455029</ele>
        <time>2022-08-06T01:45:38.317Z</time>
      </trkpt>
      <trkpt lat="46.0569" lon="14.82894">
        <ele>253.527477</ele>
        <time>2022-08-06T01:45:40.607Z</time>
      </trkpt>
      <trkpt lat="46.05788" lon="14.82808">
        <ele>242.081433</ele>
        <time>2022-08-06T01:45:59.186Z</time>
      </trkpt>
      <trkpt lat="46.05814" lon="14.82779">
        <ele>240.581582</ele>
        <time>2022-08-06T01:46:05.112Z</time>
      </trkpt>
      <trkpt lat="46.05829" lon="14.82817">
        <ele>239.191665</ele>
        <time>2022-08-06T01:46:11.053Z</time>
      </trkpt>
      <trkpt lat="46.0584" lon="14.82846">
        <ele>238.128305</ele>
        <time>2022-08-06T01:46:15.812Z</time>
      </trkpt>
      <trkpt lat="46.05859" lon="14.82833">
        <ele>237.14573</ele>
        <time>2022-08-06T01:46:20.519Z</time>
      </trkpt>
      <trkpt lat="46.05879" lon="14.8284">
        <ele>236.180388</ele>
        <time>2022-08-06T01:46:25.769Z</time>
      </trkpt>
      <trkpt lat="46.05906" lon="14.829">
        <ele>235.659941</ele>
        <time>2022-08-06T01:46:39.291Z</time>
      </trkpt>
      <trkpt lat="46.05935" lon="14.8295">
        <ele>235.498321</ele>
        <time>2022-08-06T01:46:52.335Z</time>
      </trkpt>
      <trkpt lat="46.05963" lon="14.83">
        <ele>235.339092</ele>
        <time>2022-08-06T01:47:04.740Z</time>
      </trkpt>
      <trkpt lat="46.05989" lon="14.83037">
        <ele>235.209685</ele>
        <time>2022-08-06T01:47:13.736Z</time>
      </trkpt>
      <trkpt lat="46.0599" lon="14.83034">
        <ele>235.201629</ele>
        <time>2022-08-06T01:47:14.555Z</time>
      </trkpt>
      <trkpt lat="46.05989" lon="14.83037">
        <ele>235.193573</ele>
        <time>2022-08-06T01:47:15.004Z</time>
      </trkpt>
      <trkpt lat="46.05964" lon="14.83069">
        <ele>235.043267</ele>
        <time>2022-08-06T01:47:23.350Z</time>
      </trkpt>
      <trkpt lat="46.05991" lon="14.83107">
        <ele>234.864049</ele>
        <time>2022-08-06T01:47:32.244Z</time>
      </trkpt>
      <trkpt lat="46.06019" lon="14.83133">
        <ele>234.703993</ele>
        <time>2022-08-06T01:47:40.536Z</time>
      </trkpt>
      <trkpt lat="46.06064" lon="14.83169">
        <ele>234.457326</ele>
        <time>2022-08-06T01:47:53.358Z</time>
      </trkpt>
      <trkpt lat="46.06162" lon="14.83237">
        <ele>234.939248</ele>
        <time>2022-08-06T01:48:21.910Z</time>
      </trkpt>
      <trkpt lat="46.062" lon="14.83269">
        <ele>235.310049</ele>
        <time>2022-08-06T01:48:35.925Z</time>
      </trkpt>
      <trkpt lat="46.06294" lon="14.83366">
        <ele>236.928628</ele>
        <time>2022-08-06T01:49:16.862Z</time>
      </trkpt>
      <trkpt lat="46.06316" lon="14.8339">
        <ele>237.477261</ele>
        <time>2022-08-06T01:49:27.413Z</time>
      </trkpt>
      <trkpt lat="46.0635" lon="14.83441">
        <ele>238.448288</ele>
        <time>2022-08-06T01:49:46.078Z</time>
      </trkpt>
      <trkpt lat="46.06377" lon="14.83495">
        <ele>239.369251</ele>
        <time>2022-08-06T01:50:02.975Z</time>
      </trkpt>
      <trkpt lat="46.06395" lon="14.83545">
        <ele>239.387822</ele>
        <time>2022-08-06T01:50:16.241Z</time>
      </trkpt>
      <trkpt lat="46.06415" lon="14.83624">
        <ele>239.402588</ele>
        <time>2022-08-06T01:50:33.298Z</time>
      </trkpt>
      <trkpt lat="46.06489" lon="14.83952">
        <ele>237.39449</ele>
        <time>2022-08-06T01:51:29.638Z</time>
      </trkpt>
      <trkpt lat="46.06504" lon="14.84004">
        <ele>236.984056</ele>
        <time>2022-08-06T01:51:38.372Z</time>
      </trkpt>
      <trkpt lat="46.06562" lon="14.84157">
        <ele>236.132519</ele>
        <time>2022-08-06T01:52:08.818Z</time>
      </trkpt>
      <trkpt lat="46.0657" lon="14.84165">
        <ele>236.061969</ele>
        <time>2022-08-06T01:52:11.812Z</time>
      </trkpt>
      <trkpt lat="46.0659" lon="14.84164">
        <ele>235.919899</ele>
        <time>2022-08-06T01:52:16.726Z</time>
      </trkpt>
      <trkpt lat="46.06601" lon="14.84168">
        <ele>235.843308</ele>
        <time>2022-08-06T01:52:20.309Z</time>
      </trkpt>
      <trkpt lat="46.06677" lon="14.84297">
        <ele>235.267338</ele>
        <time>2022-08-06T01:52:51.808Z</time>
      </trkpt>
      <trkpt lat="46.06806" lon="14.84664">
        <ele>232.926509</ele>
        <time>2022-08-06T01:54:01.275Z</time>
      </trkpt>
      <trkpt lat="46.06872" lon="14.84829">
        <ele>231.979915</ele>
        <time>2022-08-06T01:54:34.456Z</time>
      </trkpt>
      <trkpt lat="46.06895" lon="14.84891">
        <ele>231.978597</ele>
        <time>2022-08-06T01:54:47.281Z</time>
      </trkpt>
      <trkpt lat="46.06904" lon="14.84917">
        <ele>232.002087</ele>
        <time>2022-08-06T01:54:52.614Z</time>
      </trkpt>
      <trkpt lat="46.0692" lon="14.84963">
        <ele>232.042883</ele>
        <time>2022-08-06T01:55:02.230Z</time>
      </trkpt>
      <trkpt lat="46.0694" lon="14.85014">
        <ele>232.090561</ele>
        <time>2022-08-06T01:55:13.805Z</time>
      </trkpt>
      <trkpt lat="46.07085" lon="14.8538">
        <ele>234.361603</ele>
        <time>2022-08-06T01:56:50.782Z</time>
      </trkpt>
      <trkpt lat="46.07099" lon="14.85409">
        <ele>234.454231</ele>
        <time>2022-08-06T01:56:58.229Z</time>
      </trkpt>
      <trkpt lat="46.0714" lon="14.85475">
        <ele>234.687329</ele>
        <time>2022-08-06T01:57:15.051Z</time>
      </trkpt>
      <trkpt lat="46.07219" lon="14.85646">
        <ele>234.14582</ele>
        <time>2022-08-06T01:57:50.845Z</time>
      </trkpt>
      <trkpt lat="46.0729" lon="14.85786">
        <ele>234.077296</ele>
        <time>2022-08-06T01:58:22.508Z</time>
      </trkpt>
      <trkpt lat="46.07333" lon="14.85827">
        <ele>234.285275</ele>
        <time>2022-08-06T01:58:38.532Z</time>
      </trkpt>
      <trkpt lat="46.07347" lon="14.85849">
        <ele>234.367971</ele>
        <time>2022-08-06T01:58:44.951Z</time>
      </trkpt>
      <trkpt lat="46.07363" lon="14.8589">
        <ele>234.500698</ele>
        <time>2022-08-06T01:58:55.687Z</time>
      </trkpt>
      <trkpt lat="46.07388" lon="14.85924">
        <ele>234.68185</ele>
        <time>2022-08-06T01:59:07.127Z</time>
      </trkpt>
      <trkpt lat="46.07456" lon="14.85973">
        <ele>235.149406</ele>
        <time>2022-08-06T01:59:31.011Z</time>
      </trkpt>
      <trkpt lat="46.07503" lon="14.8604">
        <ele>235.554552</ele>
        <time>2022-08-06T01:59:50.776Z</time>
      </trkpt>
      <trkpt lat="46.07575" lon="14.8614">
        <ele>235.461666</ele>
        <time>2022-08-06T02:00:19.021Z</time>
      </trkpt>
      <trkpt lat="46.07635" lon="14.86268">
        <ele>235.148834</ele>
        <time>2022-08-06T02:00:46.478Z</time>
      </trkpt>
      <trkpt lat="46.07721" lon="14.86386">
        <ele>234.305679</ele>
        <time>2022-08-06T02:01:16.269Z</time>
      </trkpt>
      <trkpt lat="46.07777" lon="14.86502">
        <ele>233.74597</ele>
        <time>2022-08-06T02:01:40.748Z</time>
      </trkpt>
      <trkpt lat="46.078" lon="14.86532">
        <ele>233.619104</ele>
        <time>2022-08-06T02:01:48.569Z</time>
      </trkpt>
      <trkpt lat="46.07835" lon="14.86588">
        <ele>233.401818</ele>
        <time>2022-08-06T02:02:02.309Z</time>
      </trkpt>
      <trkpt lat="46.07865" lon="14.86665">
        <ele>233.217043</ele>
        <time>2022-08-06T02:02:18.672Z</time>
      </trkpt>
      <trkpt lat="46.0797" lon="14.86782">
        <ele>233.480311</ele>
        <time>2022-08-06T02:02:57.191Z</time>
      </trkpt>
      <trkpt lat="46.08062" lon="14.86853">
        <ele>233.845755</ele>
        <time>2022-08-06T02:03:27.858Z</time>
      </trkpt>
      <trkpt lat="46.08108" lon="14.86876">
        <ele>234.057787</ele>
        <time>2022-08-06T02:03:42.629Z</time>
      </trkpt>
      <trkpt lat="46.08126" lon="14.86916">
        <ele>234.201757</ele>
        <time>2022-08-06T02:03:52.772Z</time>
      </trkpt>
      <trkpt lat="46.08223" lon="14.87037">
        <ele>234.805183</ele>
        <time>2022-08-06T02:04:31.235Z</time>
      </trkpt>
      <trkpt lat="46.08273" lon="14.87109">
        <ele>235.147362</ele>
        <time>2022-08-06T02:04:53.174Z</time>
      </trkpt>
      <trkpt lat="46.08289" lon="14.87136">
        <ele>235.16467</ele>
        <time>2022-08-06T02:05:00.536Z</time>
      </trkpt>
      <trkpt lat="46.08293" lon="14.87152">
        <ele>235.133141</ele>
        <time>2022-08-06T02:05:03.971Z</time>
      </trkpt>
      <trkpt lat="46.08313" lon="14.87276">
        <ele>234.896818</ele>
        <time>2022-08-06T02:05:27.584Z</time>
      </trkpt>
      <trkpt lat="46.08366" lon="14.87463">
        <ele>234.208695</ele>
        <time>2022-08-06T02:06:02.754Z</time>
      </trkpt>
      <trkpt lat="46.0839" lon="14.8751">
        <ele>233.92988</ele>
        <time>2022-08-06T02:06:12.569Z</time>
      </trkpt>
      <trkpt lat="46.08423" lon="14.87555">
        <ele>233.619509</ele>
        <time>2022-08-06T02:06:23.733Z</time>
      </trkpt>
      <trkpt lat="46.08565" lon="14.87856">
        <ele>233.334393</ele>
        <time>2022-08-06T02:07:32.221Z</time>
      </trkpt>
      <trkpt lat="46.08604" lon="14.87964">
        <ele>233.580912</ele>
        <time>2022-08-06T02:07:57.223Z</time>
      </trkpt>
      <trkpt lat="46.08614" lon="14.87988">
        <ele>233.636947</ele>
        <time>2022-08-06T02:08:02.957Z</time>
      </trkpt>
      <trkpt lat="46.08678" lon="14.88208">
        <ele>234.716498</ele>
        <time>2022-08-06T02:08:54.714Z</time>
      </trkpt>
      <trkpt lat="46.08733" lon="14.88525">
        <ele>235.975876</ele>
        <time>2022-08-06T02:10:05.863Z</time>
      </trkpt>
      <trkpt lat="46.08834" lon="14.88689">
        <ele>234.863844</ele>
        <time>2022-08-06T02:10:43.455Z</time>
      </trkpt>
      <trkpt lat="46.08836" lon="14.88702">
        <ele>234.796545</ele>
        <time>2022-08-06T02:10:45.438Z</time>
      </trkpt>
      <trkpt lat="46.08835" lon="14.88708">
        <ele>234.766293</ele>
        <time>2022-08-06T02:10:46.343Z</time>
      </trkpt>
      <trkpt lat="46.08832" lon="14.88722">
        <ele>234.682094</ele>
        <time>2022-08-06T02:10:48.928Z</time>
      </trkpt>
      <trkpt lat="46.08814" lon="14.8874">
        <ele>234.484021</ele>
        <time>2022-08-06T02:10:54.039Z</time>
      </trkpt>
      <trkpt lat="46.08809" lon="14.88753">
        <ele>234.394838</ele>
        <time>2022-08-06T02:10:56.370Z</time>
      </trkpt>
      <trkpt lat="46.08809" lon="14.88781">
        <ele>234.219473</ele>
        <time>2022-08-06T02:11:01.153Z</time>
      </trkpt>
      <trkpt lat="46.08827" lon="14.88893">
        <ele>233.508803</ele>
        <time>2022-08-06T02:11:19.874Z</time>
      </trkpt>
      <trkpt lat="46.0882" lon="14.88918">
        <ele>233.337017</ele>
        <time>2022-08-06T02:11:24.697Z</time>
      </trkpt>
      <trkpt lat="46.08791" lon="14.88937">
        <ele>233.212345</ele>
        <time>2022-08-06T02:11:33.167Z</time>
      </trkpt>
      <trkpt lat="46.08785" lon="14.88949">
        <ele>233.347182</ele>
        <time>2022-08-06T02:11:36.302Z</time>
      </trkpt>
      <trkpt lat="46.08788" lon="14.89085">
        <ele>234.57767</ele>
        <time>2022-08-06T02:12:06.202Z</time>
      </trkpt>
      <trkpt lat="46.08788" lon="14.89131">
        <ele>234.993917</ele>
        <time>2022-08-06T02:12:17.622Z</time>
      </trkpt>
      <trkpt lat="46.08789" lon="14.89193">
        <ele>235.620398</ele>
        <time>2022-08-06T02:12:35.484Z</time>
      </trkpt>
      <trkpt lat="46.088" lon="14.89264">
        <ele>236.695242</ele>
        <time>2022-08-06T02:12:58.355Z</time>
      </trkpt>
      <trkpt lat="46.08807" lon="14.89272">
        <ele>236.892711</ele>
        <time>2022-08-06T02:13:02.183Z</time>
      </trkpt>
      <trkpt lat="46.08819" lon="14.89271">
        <ele>237.139235</ele>
        <time>2022-08-06T02:13:07.347Z</time>
      </trkpt>
      <trkpt lat="46.0888" lon="14.89242">
        <ele>238.518628</ele>
        <time>2022-08-06T02:13:31.395Z</time>
      </trkpt>
      <trkpt lat="46.08896" lon="14.89246">
        <ele>238.867484</ele>
        <time>2022-08-06T02:13:37.323Z</time>
      </trkpt>
      <trkpt lat="46.08915" lon="14.89278">
        <ele>239.199305</ele>
        <time>2022-08-06T02:13:46.035Z</time>
      </trkpt>
      <trkpt lat="46.08916" lon="14.89304">
        <ele>238.931427</ele>
        <time>2022-08-06T02:13:51.423Z</time>
      </trkpt>
      <trkpt lat="46.08906" lon="14.89336">
        <ele>238.582281</ele>
        <time>2022-08-06T02:13:58.587Z</time>
      </trkpt>
      <trkpt lat="46.08885" lon="14.89415">
        <ele>237.742087</ele>
        <time>2022-08-06T02:14:12.475Z</time>
      </trkpt>
      <trkpt lat="46.08881" lon="14.89446">
        <ele>237.426895</ele>
        <time>2022-08-06T02:14:17.253Z</time>
      </trkpt>
      <trkpt lat="46.08885" lon="14.89485">
        <ele>237.030845</ele>
        <time>2022-08-06T02:14:22.766Z</time>
      </trkpt>
      <trkpt lat="46.08856" lon="14.89635">
        <ele>234.422015</ele>
        <time>2022-08-06T02:14:44.274Z</time>
      </trkpt>
      <trkpt lat="46.08855" lon="14.89698">
        <ele>233.250759</ele>
        <time>2022-08-06T02:14:53.791Z</time>
      </trkpt>
      <trkpt lat="46.08876" lon="14.89806">
        <ele>231.801026</ele>
        <time>2022-08-06T02:15:11.486Z</time>
      </trkpt>
      <trkpt lat="46.08914" lon="14.89888">
        <ele>231.488093</ele>
        <time>2022-08-06T02:15:29.356Z</time>
      </trkpt>
      <trkpt lat="46.08933" lon="14.89916">
        <ele>231.362637</ele>
        <time>2022-08-06T02:15:37.631Z</time>
      </trkpt>
      <trkpt lat="46.08965" lon="14.9">
        <ele>231.287951</ele>
        <time>2022-08-06T02:15:56.866Z</time>
      </trkpt>
      <trkpt lat="46.0898" lon="14.90047">
        <ele>231.907937</ele>
        <time>2022-08-06T02:16:05.829Z</time>
      </trkpt>
      <trkpt lat="46.09036" lon="14.90103">
        <ele>233.079073</ele>
        <time>2022-08-06T02:16:22.162Z</time>
      </trkpt>
      <trkpt lat="46.09042" lon="14.9012">
        <ele>233.310417</ele>
        <time>2022-08-06T02:16:25.917Z</time>
      </trkpt>
      <trkpt lat="46.09042" lon="14.9014">
        <ele>233.559152</ele>
        <time>2022-08-06T02:16:29.341Z</time>
      </trkpt>
      <trkpt lat="46.09001" lon="14.90175">
        <ele>235.379422</ele>
        <time>2022-08-06T02:16:57.414Z</time>
      </trkpt>
      <trkpt lat="46.08975" lon="14.902">
        <ele>239.127785</ele>
        <time>2022-08-06T02:17:21.022Z</time>
      </trkpt>
      <trkpt lat="46.08975" lon="14.90223">
        <ele>241.038147</ele>
        <time>2022-08-06T02:17:39.604Z</time>
      </trkpt>
      <trkpt lat="46.09006" lon="14.90277">
        <ele>246.862164</ele>
        <time>2022-08-06T02:18:23.090Z</time>
      </trkpt>
      <trkpt lat="46.09001" lon="14.90284">
        <ele>247.683062</ele>
        <time>2022-08-06T02:18:27.178Z</time>
      </trkpt>
      <trkpt lat="46.08985" lon="14.9031">
        <ele>250.556877</ele>
        <time>2022-08-06T02:18:53.705Z</time>
      </trkpt>
      <trkpt lat="46.08947" lon="14.90374">
        <ele>257.218996</ele>
        <time>2022-08-06T02:19:47.192Z</time>
      </trkpt>
      <trkpt lat="46.08941" lon="14.90384">
        <ele>258.172036</ele>
        <time>2022-08-06T02:20:00.354Z</time>
      </trkpt>
      <trkpt lat="46.09058" lon="14.90541">
        <ele>273.594048</ele>
        <time>2022-08-06T02:22:00.115Z</time>
      </trkpt>
      <trkpt lat="46.09199" lon="14.90709">
        <ele>274.74481</ele>
        <time>2022-08-06T02:22:45.425Z</time>
      </trkpt>
      <trkpt lat="46.0924" lon="14.90771">
        <ele>273.154747</ele>
        <time>2022-08-06T02:22:57.925Z</time>
      </trkpt>
      <trkpt lat="46.09264" lon="14.90846">
        <ele>271.635318</ele>
        <time>2022-08-06T02:23:09.245Z</time>
      </trkpt>
      <trkpt lat="46.09282" lon="14.91013">
        <ele>268.534405</ele>
        <time>2022-08-06T02:23:31.448Z</time>
      </trkpt>
      <trkpt lat="46.09283" lon="14.91118">
        <ele>266.632951</ele>
        <time>2022-08-06T02:23:45.872Z</time>
      </trkpt>
      <trkpt lat="46.09279" lon="14.9122">
        <ele>265.747495</ele>
        <time>2022-08-06T02:24:01.987Z</time>
      </trkpt>
      <trkpt lat="46.09261" lon="14.9132">
        <ele>266.719302</ele>
        <time>2022-08-06T02:24:23.025Z</time>
      </trkpt>
      <trkpt lat="46.09171" lon="14.91723">
        <ele>272.502028</ele>
        <time>2022-08-06T02:26:25.783Z</time>
      </trkpt>
      <trkpt lat="46.09159" lon="14.91809">
        <ele>271.215376</ele>
        <time>2022-08-06T02:26:40.042Z</time>
      </trkpt>
      <trkpt lat="46.09152" lon="14.91906">
        <ele>269.774482</ele>
        <time>2022-08-06T02:26:52.903Z</time>
      </trkpt>
      <trkpt lat="46.0915" lon="14.92015">
        <ele>265.587642</ele>
        <time>2022-08-06T02:27:05.866Z</time>
      </trkpt>
      <trkpt lat="46.09166" lon="14.92195">
        <ele>256.929854</ele>
        <time>2022-08-06T02:27:26.798Z</time>
      </trkpt>
      <trkpt lat="46.09177" lon="14.92247">
        <ele>257.74016</ele>
        <time>2022-08-06T02:27:35.455Z</time>
      </trkpt>
      <trkpt lat="46.09202" lon="14.92329">
        <ele>259.093908</ele>
        <time>2022-08-06T02:27:59.329Z</time>
      </trkpt>
      <trkpt lat="46.09205" lon="14.92358">
        <ele>259.529795</ele>
        <time>2022-08-06T02:28:07.097Z</time>
      </trkpt>
      <trkpt lat="46.09205" lon="14.92365">
        <ele>259.627668</ele>
        <time>2022-08-06T02:28:09.463Z</time>
      </trkpt>
      <trkpt lat="46.09206" lon="14.92403">
        <ele>260.205439</ele>
        <time>2022-08-06T02:28:24.877Z</time>
      </trkpt>
      <trkpt lat="46.0921" lon="14.92447">
        <ele>260.941611</ele>
        <time>2022-08-06T02:28:44.655Z</time>
      </trkpt>
      <trkpt lat="46.09233" lon="14.92547">
        <ele>264.755782</ele>
        <time>2022-08-06T02:29:29.117Z</time>
      </trkpt>
      <trkpt lat="46.09237" lon="14.92594">
        <ele>266.510378</ele>
        <time>2022-08-06T02:29:49.938Z</time>
      </trkpt>
      <trkpt lat="46.09234" lon="14.92692">
        <ele>270.054633</ele>
        <time>2022-08-06T02:30:20.992Z</time>
      </trkpt>
      <trkpt lat="46.09222" lon="14.92812">
        <ele>270.020514</ele>
        <time>2022-08-06T02:30:40.993Z</time>
      </trkpt>
      <trkpt lat="46.09211" lon="14.92876">
        <ele>269.900404</ele>
        <time>2022-08-06T02:30:51.137Z</time>
      </trkpt>
      <trkpt lat="46.09195" lon="14.92933">
        <ele>269.789172</ele>
        <time>2022-08-06T02:31:00.646Z</time>
      </trkpt>
      <trkpt lat="46.09187" lon="14.92996">
        <ele>270.242639</ele>
        <time>2022-08-06T02:31:12.261Z</time>
      </trkpt>
      <trkpt lat="46.09183" lon="14.93062">
        <ele>270.907746</ele>
        <time>2022-08-06T02:31:27.541Z</time>
      </trkpt>
      <trkpt lat="46.09169" lon="14.93178">
        <ele>272.082415</ele>
        <time>2022-08-06T02:31:58.961Z</time>
      </trkpt>
      <trkpt lat="46.09145" lon="14.93286">
        <ele>273.388972</ele>
        <time>2022-08-06T02:32:28.162Z</time>
      </trkpt>
      <trkpt lat="46.09105" lon="14.93423">
        <ele>275.196077</ele>
        <time>2022-08-06T02:33:03.356Z</time>
      </trkpt>
      <trkpt lat="46.09095" lon="14.93475">
        <ele>275.44913</ele>
        <time>2022-08-06T02:33:15.988Z</time>
      </trkpt>
      <trkpt lat="46.09094" lon="14.93544">
        <ele>275.347764</ele>
        <time>2022-08-06T02:33:31.485Z</time>
      </trkpt>
      <trkpt lat="46.09099" lon="14.93638">
        <ele>275.209826</ele>
        <time>2022-08-06T02:33:48.899Z</time>
      </trkpt>
      <trkpt lat="46.09078" lon="14.93776">
        <ele>273.031007</ele>
        <time>2022-08-06T02:34:08.961Z</time>
      </trkpt>
      <trkpt lat="46.09077" lon="14.93807">
        <ele>272.161052</ele>
        <time>2022-08-06T02:34:13.009Z</time>
      </trkpt>
      <trkpt lat="46.09086" lon="14.93869">
        <ele>270.417147</ele>
        <time>2022-08-06T02:34:21.035Z</time>
      </trkpt>
      <trkpt lat="46.09141" lon="14.93995">
        <ele>266.630606</ele>
        <time>2022-08-06T02:34:39.576Z</time>
      </trkpt>
      <trkpt lat="46.09152" lon="14.94042">
        <ele>265.535474</ele>
        <time>2022-08-06T02:34:45.863Z</time>
      </trkpt>
      <trkpt lat="46.09155" lon="14.9421">
        <ele>262.202519</ele>
        <time>2022-08-06T02:35:09.839Z</time>
      </trkpt>
      <trkpt lat="46.0919" lon="14.94415">
        <ele>262.386322</ele>
        <time>2022-08-06T02:35:55.716Z</time>
      </trkpt>
      <trkpt lat="46.09178" lon="14.94545">
        <ele>260.696201</ele>
        <time>2022-08-06T02:36:17.652Z</time>
      </trkpt>
      <trkpt lat="46.09179" lon="14.94643">
        <ele>258.989163</ele>
        <time>2022-08-06T02:36:31.493Z</time>
      </trkpt>
      <trkpt lat="46.09197" lon="14.9472">
        <ele>257.106664</ele>
        <time>2022-08-06T02:36:41.795Z</time>
      </trkpt>
      <trkpt lat="46.09251" lon="14.94835">
        <ele>251.266049</ele>
        <time>2022-08-06T02:36:58.409Z</time>
      </trkpt>
      <trkpt lat="46.09279" lon="14.94912">
        <ele>247.581244</ele>
        <time>2022-08-06T02:37:08.724Z</time>
      </trkpt>
      <trkpt lat="46.09321" lon="14.95101">
        <ele>244.862409</ele>
        <time>2022-08-06T02:37:35.723Z</time>
      </trkpt>
      <trkpt lat="46.09367" lon="14.95206">
        <ele>245.994593</ele>
        <time>2022-08-06T02:38:07.451Z</time>
      </trkpt>
      <trkpt lat="46.09433" lon="14.95324">
        <ele>252.07926</ele>
        <time>2022-08-06T02:39:09.300Z</time>
      </trkpt>
      <trkpt lat="46.09551" lon="14.95579">
        <ele>266.862785</ele>
        <time>2022-08-06T02:41:26.142Z</time>
      </trkpt>
      <trkpt lat="46.09578" lon="14.95621">
        <ele>267.772948</ele>
        <time>2022-08-06T02:41:45.649Z</time>
      </trkpt>
      <trkpt lat="46.09604" lon="14.95652">
        <ele>268.174666</ele>
        <time>2022-08-06T02:42:00.729Z</time>
      </trkpt>
      <trkpt lat="46.09796" lon="14.95819">
        <ele>267.104282</ele>
        <time>2022-08-06T02:42:51.459Z</time>
      </trkpt>
      <trkpt lat="46.09928" lon="14.95873">
        <ele>264.673107</ele>
        <time>2022-08-06T02:43:17.528Z</time>
      </trkpt>
      <trkpt lat="46.09985" lon="14.95919">
        <ele>263.803073</ele>
        <time>2022-08-06T02:43:32.862Z</time>
      </trkpt>
      <trkpt lat="46.10043" lon="14.95981">
        <ele>263.960937</ele>
        <time>2022-08-06T02:43:56.228Z</time>
      </trkpt>
      <trkpt lat="46.10127" lon="14.96085">
        <ele>267.274608</ele>
        <time>2022-08-06T02:44:39.193Z</time>
      </trkpt>
      <trkpt lat="46.10167" lon="14.96111">
        <ele>268.619967</ele>
        <time>2022-08-06T02:44:56.515Z</time>
      </trkpt>
      <trkpt lat="46.10282" lon="14.96139">
        <ele>280.399852</ele>
        <time>2022-08-06T02:46:17.687Z</time>
      </trkpt>
      <trkpt lat="46.1032" lon="14.96163">
        <ele>284.6531</ele>
        <time>2022-08-06T02:46:57.191Z</time>
      </trkpt>
      <trkpt lat="46.10413" lon="14.96219">
        <ele>295.622494</ele>
        <time>2022-08-06T02:48:36.222Z</time>
      </trkpt>
      <trkpt lat="46.10456" lon="14.9626">
        <ele>301.326119</ele>
        <time>2022-08-06T02:49:25.529Z</time>
      </trkpt>
      <trkpt lat="46.10494" lon="14.96314">
        <ele>306.679727</ele>
        <time>2022-08-06T02:49:56.992Z</time>
      </trkpt>
      <trkpt lat="46.1055" lon="14.9645">
        <ele>304.343256</ele>
        <time>2022-08-06T02:50:19.692Z</time>
      </trkpt>
      <trkpt lat="46.10578" lon="14.96514">
        <ele>303.224118</ele>
        <time>2022-08-06T02:50:29.374Z</time>
      </trkpt>
      <trkpt lat="46.1066" lon="14.96734">
        <ele>295.02685</ele>
        <time>2022-08-06T02:51:00.420Z</time>
      </trkpt>
      <trkpt lat="46.10747" lon="14.96864">
        <ele>291.06808</ele>
        <time>2022-08-06T02:51:25.291Z</time>
      </trkpt>
      <trkpt lat="46.10835" lon="14.97014">
        <ele>287.724822</ele>
        <time>2022-08-06T02:51:53.550Z</time>
      </trkpt>
      <trkpt lat="46.10951" lon="14.97184">
        <ele>285.162019</ele>
        <time>2022-08-06T02:52:28.476Z</time>
      </trkpt>
      <trkpt lat="46.1106" lon="14.97371">
        <ele>286.57159</ele>
        <time>2022-08-06T02:53:13.866Z</time>
      </trkpt>
      <trkpt lat="46.1109" lon="14.9745">
        <ele>289.812705</ele>
        <time>2022-08-06T02:53:44.008Z</time>
      </trkpt>
      <trkpt lat="46.11101" lon="14.97493">
        <ele>291.476452</ele>
        <time>2022-08-06T02:54:02.915Z</time>
      </trkpt>
      <trkpt lat="46.11112" lon="14.97619">
        <ele>297.449135</ele>
        <time>2022-08-06T02:55:05.590Z</time>
      </trkpt>
      <trkpt lat="46.11121" lon="14.97682">
        <ele>301.333628</ele>
        <time>2022-08-06T02:55:40.100Z</time>
      </trkpt>
      <trkpt lat="46.11151" lon="14.97799">
        <ele>308.871072</ele>
        <time>2022-08-06T02:56:39.448Z</time>
      </trkpt>
      <trkpt lat="46.11161" lon="14.97906">
        <ele>311.914369</ele>
        <time>2022-08-06T02:57:20.585Z</time>
      </trkpt>
      <trkpt lat="46.11172" lon="14.9796">
        <ele>313.213001</ele>
        <time>2022-08-06T02:57:38.386Z</time>
      </trkpt>
      <trkpt lat="46.11303" lon="14.9824">
        <ele>313.713611</ele>
        <time>2022-08-06T02:58:42.828Z</time>
      </trkpt>
      <trkpt lat="46.11419" lon="14.9838">
        <ele>302.40352</ele>
        <time>2022-08-06T02:59:08.545Z</time>
      </trkpt>
      <trkpt lat="46.11459" lon="14.98428">
        <ele>297.912597</ele>
        <time>2022-08-06T02:59:16.842Z</time>
      </trkpt>
      <trkpt lat="46.11486" lon="14.98453">
        <ele>294.408281</ele>
        <time>2022-08-06T02:59:21.995Z</time>
      </trkpt>
      <trkpt lat="46.11555" lon="14.98493">
        <ele>286.384077</ele>
        <time>2022-08-06T02:59:33.821Z</time>
      </trkpt>
      <trkpt lat="46.11616" lon="14.98561">
        <ele>278.382591</ele>
        <time>2022-08-06T02:59:46.338Z</time>
      </trkpt>
      <trkpt lat="46.11692" lon="14.98624">
        <ele>273.157592</ele>
        <time>2022-08-06T03:00:01.855Z</time>
      </trkpt>
      <trkpt lat="46.11724" lon="14.98658">
        <ele>270.785959</ele>
        <time>2022-08-06T03:00:09.512Z</time>
      </trkpt>
      <trkpt lat="46.11824" lon="14.98798">
        <ele>262.423252</ele>
        <time>2022-08-06T03:00:34.358Z</time>
      </trkpt>
      <trkpt lat="46.11885" lon="14.98904">
        <ele>256.756567</ele>
        <time>2022-08-06T03:00:50.795Z</time>
      </trkpt>
      <trkpt lat="46.11909" lon="14.98966">
        <ele>254.264464</ele>
        <time>2022-08-06T03:00:59.250Z</time>
      </trkpt>
      <trkpt lat="46.11914" lon="14.98992">
        <ele>253.294191</ele>
        <time>2022-08-06T03:01:02.518Z</time>
      </trkpt>
      <trkpt lat="46.11917" lon="14.9904">
        <ele>251.582404</ele>
        <time>2022-08-06T03:01:08.458Z</time>
      </trkpt>
      <trkpt lat="46.11915" lon="14.99092">
        <ele>249.740906</ele>
        <time>2022-08-06T03:01:15.220Z</time>
      </trkpt>
      <trkpt lat="46.11905" lon="14.99147">
        <ele>247.816531</ele>
        <time>2022-08-06T03:01:23.175Z</time>
      </trkpt>
      <trkpt lat="46.11852" lon="14.99312">
        <ele>243.957278</ele>
        <time>2022-08-06T03:01:48.516Z</time>
      </trkpt>
      <trkpt lat="46.11814" lon="14.99427">
        <ele>241.022022</ele>
        <time>2022-08-06T03:02:05.498Z</time>
      </trkpt>
      <trkpt lat="46.11774" lon="14.9952">
        <ele>238.256594</ele>
        <time>2022-08-06T03:02:19.749Z</time>
      </trkpt>
      <trkpt lat="46.11668" lon="14.9967">
        <ele>233.739317</ele>
        <time>2022-08-06T03:02:48.537Z</time>
      </trkpt>
      <trkpt lat="46.11621" lon="14.99726">
        <ele>232.17713</ele>
        <time>2022-08-06T03:03:01.367Z</time>
      </trkpt>
      <trkpt lat="46.11522" lon="14.99816">
        <ele>230.961482</ele>
        <time>2022-08-06T03:03:27.338Z</time>
      </trkpt>
      <trkpt lat="46.11373" lon="14.99898">
        <ele>234.320693</ele>
        <time>2022-08-06T03:04:12.405Z</time>
      </trkpt>
      <trkpt lat="46.11303" lon="14.99955">
        <ele>239.20233</ele>
        <time>2022-08-06T03:05:02.308Z</time>
      </trkpt>
      <trkpt lat="46.11288" lon="14.99971">
        <ele>240.332716</ele>
        <time>2022-08-06T03:05:17.038Z</time>
      </trkpt>
      <trkpt lat="46.1128" lon="14.99981">
        <ele>240.990795</ele>
        <time>2022-08-06T03:05:27.077Z</time>
      </trkpt>
      <trkpt lat="46.11176" lon="15.00144">
        <ele>256.194395</ele>
        <time>2022-08-06T03:07:37.907Z</time>
      </trkpt>
      <trkpt lat="46.11153" lon="15.00192">
        <ele>259.593387</ele>
        <time>2022-08-06T03:08:03.653Z</time>
      </trkpt>
      <trkpt lat="46.1114" lon="15.00266">
        <ele>257.869145</ele>
        <time>2022-08-06T03:08:23.244Z</time>
      </trkpt>
      <trkpt lat="46.11138" lon="15.00434">
        <ele>254.124247</ele>
        <time>2022-08-06T03:08:43.250Z</time>
      </trkpt>
      <trkpt lat="46.11132" lon="15.00512">
        <ele>250.320229</ele>
        <time>2022-08-06T03:08:52.117Z</time>
      </trkpt>
      <trkpt lat="46.11122" lon="15.00655">
        <ele>242.928156</ele>
        <time>2022-08-06T03:09:08.892Z</time>
      </trkpt>
      <trkpt lat="46.11121" lon="15.00768">
        <ele>239.959995</ele>
        <time>2022-08-06T03:09:23.516Z</time>
      </trkpt>
      <trkpt lat="46.11131" lon="15.0088">
        <ele>238.800973</ele>
        <time>2022-08-06T03:09:41.724Z</time>
      </trkpt>
      <trkpt lat="46.11146" lon="15.00952">
        <ele>238.035175</ele>
        <time>2022-08-06T03:09:56.753Z</time>
      </trkpt>
      <trkpt lat="46.1118" lon="15.01039">
        <ele>239.51017</ele>
        <time>2022-08-06T03:10:21.453Z</time>
      </trkpt>
      <trkpt lat="46.11245" lon="15.01145">
        <ele>241.688182</ele>
        <time>2022-08-06T03:10:58.373Z</time>
      </trkpt>
      <trkpt lat="46.11426" lon="15.01767">
        <ele>260.409089</ele>
        <time>2022-08-06T03:14:36.720Z</time>
      </trkpt>
      <trkpt lat="46.11532" lon="15.0206">
        <ele>267.723549</ele>
        <time>2022-08-06T03:16:18.909Z</time>
      </trkpt>
      <trkpt lat="46.11598" lon="15.02221">
        <ele>266.740893</ele>
        <time>2022-08-06T03:16:51.387Z</time>
      </trkpt>
      <trkpt lat="46.11679" lon="15.02371">
        <ele>262.235798</ele>
        <time>2022-08-06T03:17:15.973Z</time>
      </trkpt>
      <trkpt lat="46.11812" lon="15.02553">
        <ele>252.362827</ele>
        <time>2022-08-06T03:17:47.828Z</time>
      </trkpt>
      <trkpt lat="46.1185" lon="15.02596">
        <ele>250.485828</ele>
        <time>2022-08-06T03:17:56.556Z</time>
      </trkpt>
      <trkpt lat="46.11912" lon="15.02637">
        <ele>247.822885</ele>
        <time>2022-08-06T03:18:10.263Z</time>
      </trkpt>
      <trkpt lat="46.11949" lon="15.02674">
        <ele>247.689443</ele>
        <time>2022-08-06T03:18:20.929Z</time>
      </trkpt>
      <trkpt lat="46.1202" lon="15.02794">
        <ele>249.49517</ele>
        <time>2022-08-06T03:18:59.972Z</time>
      </trkpt>
      <trkpt lat="46.12105" lon="15.02868">
        <ele>251.892425</ele>
        <time>2022-08-06T03:19:45.691Z</time>
      </trkpt>
      <trkpt lat="46.12134" lon="15.02905">
        <ele>253.020669</ele>
        <time>2022-08-06T03:20:01.509Z</time>
      </trkpt>
      <trkpt lat="46.12171" lon="15.02997">
        <ele>255.191316</ele>
        <time>2022-08-06T03:20:29.929Z</time>
      </trkpt>
      <trkpt lat="46.12204" lon="15.03066">
        <ele>255.687384</ele>
        <time>2022-08-06T03:20:51.542Z</time>
      </trkpt>
      <trkpt lat="46.12523" lon="15.0366">
        <ele>257.766213</ele>
        <time>2022-08-06T03:23:13.296Z</time>
      </trkpt>
      <trkpt lat="46.12562" lon="15.03777">
        <ele>258.768592</ele>
        <time>2022-08-06T03:23:45.235Z</time>
      </trkpt>
      <trkpt lat="46.12572" lon="15.03821">
        <ele>259.121849</ele>
        <time>2022-08-06T03:23:56.050Z</time>
      </trkpt>
      <trkpt lat="46.12579" lon="15.03848">
        <ele>259.348366</ele>
        <time>2022-08-06T03:24:02.625Z</time>
      </trkpt>
      <trkpt lat="46.12595" lon="15.03974">
        <ele>258.931235</ele>
        <time>2022-08-06T03:24:27.393Z</time>
      </trkpt>
      <trkpt lat="46.12617" lon="15.04224">
        <ele>257.642779</ele>
        <time>2022-08-06T03:25:05.557Z</time>
      </trkpt>
      <trkpt lat="46.12632" lon="15.04571">
        <ele>255.791971</ele>
        <time>2022-08-06T03:26:05.968Z</time>
      </trkpt>
      <trkpt lat="46.12626" lon="15.04653">
        <ele>255.15239</ele>
        <time>2022-08-06T03:26:19.445Z</time>
      </trkpt>
      <trkpt lat="46.12582" lon="15.04991">
        <ele>249.051328</ele>
        <time>2022-08-06T03:27:07.301Z</time>
      </trkpt>
      <trkpt lat="46.12569" lon="15.05072">
        <ele>247.370665</ele>
        <time>2022-08-06T03:27:18.532Z</time>
      </trkpt>
      <trkpt lat="46.12532" lon="15.05236">
        <ele>244.260375</ele>
        <time>2022-08-06T03:27:42.364Z</time>
      </trkpt>
      <trkpt lat="46.12499" lon="15.05437">
        <ele>241.351116</ele>
        <time>2022-08-06T03:28:12.208Z</time>
      </trkpt>
      <trkpt lat="46.12464" lon="15.05745">
        <ele>242.603979</ele>
        <time>2022-08-06T03:29:04.965Z</time>
      </trkpt>
      <trkpt lat="46.12457" lon="15.05834">
        <ele>244.913156</ele>
        <time>2022-08-06T03:29:36.148Z</time>
      </trkpt>
      <trkpt lat="46.12453" lon="15.05882">
        <ele>246.16441</ele>
        <time>2022-08-06T03:29:57.384Z</time>
      </trkpt>
      <trkpt lat="46.12453" lon="15.05935">
        <ele>248.341108</ele>
        <time>2022-08-06T03:30:22.686Z</time>
      </trkpt>
      <trkpt lat="46.12469" lon="15.06043">
        <ele>253.832633</ele>
        <time>2022-08-06T03:31:15.940Z</time>
      </trkpt>
      <trkpt lat="46.12491" lon="15.06112">
        <ele>257.63208</ele>
        <time>2022-08-06T03:31:50.784Z</time>
      </trkpt>
      <trkpt lat="46.12555" lon="15.06269">
        <ele>258.650857</ele>
        <time>2022-08-06T03:32:40.789Z</time>
      </trkpt>
      <trkpt lat="46.12582" lon="15.06375">
        <ele>257.824178</ele>
        <time>2022-08-06T03:32:54.914Z</time>
      </trkpt>
      <trkpt lat="46.12587" lon="15.06475">
        <ele>251.108817</ele>
        <time>2022-08-06T03:33:06.461Z</time>
      </trkpt>
      <trkpt lat="46.12576" lon="15.06561">
        <ele>244.950546</ele>
        <time>2022-08-06T03:33:16.097Z</time>
      </trkpt>
      <trkpt lat="46.12561" lon="15.06615">
        <ele>240.857994</ele>
        <time>2022-08-06T03:33:22.532Z</time>
      </trkpt>
      <trkpt lat="46.12522" lon="15.06709">
        <ele>234.553022</ele>
        <time>2022-08-06T03:33:34.876Z</time>
      </trkpt>
      <trkpt lat="46.12496" lon="15.06759">
        <ele>231.166381</ele>
        <time>2022-08-06T03:33:42.054Z</time>
      </trkpt>
      <trkpt lat="46.12461" lon="15.06805">
        <ele>227.429986</ele>
        <time>2022-08-06T03:33:50.257Z</time>
      </trkpt>
      <trkpt lat="46.12446" lon="15.06815">
        <ele>226.143201</ele>
        <time>2022-08-06T03:33:53.158Z</time>
      </trkpt>
      <trkpt lat="46.124" lon="15.06828">
        <ele>225.592279</ele>
        <time>2022-08-06T03:34:02.750Z</time>
      </trkpt>
      <trkpt lat="46.12337" lon="15.0683">
        <ele>225.988325</ele>
        <time>2022-08-06T03:34:23.271Z</time>
      </trkpt>
      <trkpt lat="46.1228" lon="15.06843">
        <ele>226.350554</ele>
        <time>2022-08-06T03:34:46.737Z</time>
      </trkpt>
      <trkpt lat="46.12247" lon="15.0686">
        <ele>226.926413</ele>
        <time>2022-08-06T03:35:00.219Z</time>
      </trkpt>
      <trkpt lat="46.12174" lon="15.06915">
        <ele>229.639938</ele>
        <time>2022-08-06T03:35:32.833Z</time>
      </trkpt>
      <trkpt lat="46.12143" lon="15.06946">
        <ele>230.896225</ele>
        <time>2022-08-06T03:35:49.385Z</time>
      </trkpt>
      <trkpt lat="46.12117" lon="15.06982">
        <ele>232.082693</ele>
        <time>2022-08-06T03:36:06.114Z</time>
      </trkpt>
      <trkpt lat="46.12061" lon="15.0711">
        <ele>235.59863</ele>
        <time>2022-08-06T03:36:56.313Z</time>
      </trkpt>
      <trkpt lat="46.12002" lon="15.07196">
        <ele>238.431743</ele>
        <time>2022-08-06T03:37:31.553Z</time>
      </trkpt>
      <trkpt lat="46.11984" lon="15.07245">
        <ele>238.105704</ele>
        <time>2022-08-06T03:37:43.714Z</time>
      </trkpt>
      <trkpt lat="46.11942" lon="15.07446">
        <ele>236.504362</ele>
        <time>2022-08-06T03:38:14.217Z</time>
      </trkpt>
      <trkpt lat="46.11938" lon="15.07521">
        <ele>235.682359</ele>
        <time>2022-08-06T03:38:25.008Z</time>
      </trkpt>
      <trkpt lat="46.1194" lon="15.07612">
        <ele>234.690744</ele>
        <time>2022-08-06T03:38:38.848Z</time>
      </trkpt>
      <trkpt lat="46.11924" lon="15.07738">
        <ele>233.351106</ele>
        <time>2022-08-06T03:38:59.438Z</time>
      </trkpt>
      <trkpt lat="46.11922" lon="15.07815">
        <ele>232.641592</ele>
        <time>2022-08-06T03:39:11.095Z</time>
      </trkpt>
      <trkpt lat="46.11927" lon="15.07861">
        <ele>232.210863</ele>
        <time>2022-08-06T03:39:18.757Z</time>
      </trkpt>
      <trkpt lat="46.1195" lon="15.07981">
        <ele>231.334131</ele>
        <time>2022-08-06T03:39:37.157Z</time>
      </trkpt>
      <trkpt lat="46.11971" lon="15.08107">
        <ele>231.461692</ele>
        <time>2022-08-06T03:39:59.200Z</time>
      </trkpt>
      <trkpt lat="46.12015" lon="15.08511">
        <ele>233.016324</ele>
        <time>2022-08-06T03:41:38.540Z</time>
      </trkpt>
      <trkpt lat="46.12029" lon="15.08573">
        <ele>231.322275</ele>
        <time>2022-08-06T03:41:47.462Z</time>
      </trkpt>
      <trkpt lat="46.12118" lon="15.08872">
        <ele>220.782827</ele>
        <time>2022-08-06T03:42:26.962Z</time>
      </trkpt>
      <trkpt lat="46.12141" lon="15.08954">
        <ele>217.559821</ele>
        <time>2022-08-06T03:42:38.263Z</time>
      </trkpt>
      <trkpt lat="46.12162" lon="15.09097">
        <ele>214.775917</ele>
        <time>2022-08-06T03:42:58.547Z</time>
      </trkpt>
      <trkpt lat="46.12163" lon="15.09102">
        <ele>214.673473</ele>
        <time>2022-08-06T03:42:59.264Z</time>
      </trkpt>
      <trkpt lat="46.12159" lon="15.09204">
        <ele>212.725304</ele>
        <time>2022-08-06T03:43:14.284Z</time>
      </trkpt>
      <trkpt lat="46.12162" lon="15.09223">
        <ele>212.492943</ele>
        <time>2022-08-06T03:43:16.957Z</time>
      </trkpt>
      <trkpt lat="46.12153" lon="15.09258">
        <ele>212.054717</ele>
        <time>2022-08-06T03:43:22.329Z</time>
      </trkpt>
      <trkpt lat="46.12139" lon="15.09255">
        <ele>211.801381</ele>
        <time>2022-08-06T03:43:25.459Z</time>
      </trkpt>
      <trkpt lat="46.12132" lon="15.09237">
        <ele>211.567382</ele>
        <time>2022-08-06T03:43:28.693Z</time>
      </trkpt>
      <trkpt lat="46.12126" lon="15.09243">
        <ele>211.44316</ele>
        <time>2022-08-06T03:43:30.139Z</time>
      </trkpt>
      <trkpt lat="46.12121" lon="15.09262">
        <ele>211.209242</ele>
        <time>2022-08-06T03:43:33.235Z</time>
      </trkpt>
      <trkpt lat="46.12122" lon="15.09287">
        <ele>210.913104</ele>
        <time>2022-08-06T03:43:37.418Z</time>
      </trkpt>
      <trkpt lat="46.12131" lon="15.09314">
        <ele>210.560628</ele>
        <time>2022-08-06T03:43:41.912Z</time>
      </trkpt>
      <trkpt lat="46.12134" lon="15.09337">
        <ele>210.283082</ele>
        <time>2022-08-06T03:43:45.810Z</time>
      </trkpt>
      <trkpt lat="46.12123" lon="15.09383">
        <ele>209.704564</ele>
        <time>2022-08-06T03:43:53.696Z</time>
      </trkpt>
      <trkpt lat="46.12103" lon="15.09427">
        <ele>209.673514</ele>
        <time>2022-08-06T03:44:02.929Z</time>
      </trkpt>
      <trkpt lat="46.12081" lon="15.09458">
        <ele>209.681131</ele>
        <time>2022-08-06T03:44:10.319Z</time>
      </trkpt>
      <trkpt lat="46.12053" lon="15.0948">
        <ele>209.68927</ele>
        <time>2022-08-06T03:44:18.749Z</time>
      </trkpt>
      <trkpt lat="46.12032" lon="15.0951">
        <ele>209.696557</ele>
        <time>2022-08-06T03:44:28.351Z</time>
      </trkpt>
      <trkpt lat="46.11927" lon="15.09546">
        <ele>210.276449</ele>
        <time>2022-08-06T03:45:04.050Z</time>
      </trkpt>
      <trkpt lat="46.119" lon="15.09566">
        <ele>210.597507</ele>
        <time>2022-08-06T03:45:14.330Z</time>
      </trkpt>
      <trkpt lat="46.11765" lon="15.09712">
        <ele>211.76233</ele>
        <time>2022-08-06T03:46:08.633Z</time>
      </trkpt>
      <trkpt lat="46.11633" lon="15.09834">
        <ele>211.701622</ele>
        <time>2022-08-06T03:46:50.470Z</time>
      </trkpt>
      <trkpt lat="46.11575" lon="15.0991">
        <ele>211.231863</ele>
        <time>2022-08-06T03:47:09.866Z</time>
      </trkpt>
      <trkpt lat="46.11503" lon="15.10005">
        <ele>211.019732</ele>
        <time>2022-08-06T03:47:34.214Z</time>
      </trkpt>
      <trkpt lat="46.11446" lon="15.10078">
        <ele>211.180237</ele>
        <time>2022-08-06T03:47:55.624Z</time>
      </trkpt>
      <trkpt lat="46.11352" lon="15.10177">
        <ele>212.495964</ele>
        <time>2022-08-06T03:48:35.161Z</time>
      </trkpt>
      <trkpt lat="46.11337" lon="15.102">
        <ele>212.94072</ele>
        <time>2022-08-06T03:48:43.595Z</time>
      </trkpt>
      <trkpt lat="46.11324" lon="15.10224">
        <ele>213.370952</ele>
        <time>2022-08-06T03:48:51.773Z</time>
      </trkpt>
      <trkpt lat="46.11312" lon="15.10261">
        <ele>213.93637</ele>
        <time>2022-08-06T03:49:02.823Z</time>
      </trkpt>
      <trkpt lat="46.11294" lon="15.10343">
        <ele>215.162348</ele>
        <time>2022-08-06T03:49:26.933Z</time>
      </trkpt>
      <trkpt lat="46.1126" lon="15.10604">
        <ele>219.042915</ele>
        <time>2022-08-06T03:50:39.475Z</time>
      </trkpt>
      <trkpt lat="46.11257" lon="15.10733">
        <ele>219.145883</ele>
        <time>2022-08-06T03:51:06.559Z</time>
      </trkpt>
      <trkpt lat="46.11262" lon="15.10808">
        <ele>219.206265</ele>
        <time>2022-08-06T03:51:19.545Z</time>
      </trkpt>
      <trkpt lat="46.11286" lon="15.10991">
        <ele>218.161671</ele>
        <time>2022-08-06T03:51:49.268Z</time>
      </trkpt>
      <trkpt lat="46.11286" lon="15.1105">
        <ele>217.749918</ele>
        <time>2022-08-06T03:51:59.263Z</time>
      </trkpt>
      <trkpt lat="46.11252" lon="15.11246">
        <ele>217.185172</ele>
        <time>2022-08-06T03:52:37.118Z</time>
      </trkpt>
      <trkpt lat="46.11222" lon="15.11319">
        <ele>217.060069</ele>
        <time>2022-08-06T03:52:53.823Z</time>
      </trkpt>
      <trkpt lat="46.11197" lon="15.11421">
        <ele>215.976162</ele>
        <time>2022-08-06T03:53:13.265Z</time>
      </trkpt>
      <trkpt lat="46.11115" lon="15.11635">
        <ele>212.371465</ele>
        <time>2022-08-06T03:53:49.478Z</time>
      </trkpt>
      <trkpt lat="46.11033" lon="15.11795">
        <ele>208.440365</ele>
        <time>2022-08-06T03:54:17.402Z</time>
      </trkpt>
      <trkpt lat="46.11001" lon="15.11842">
        <ele>208.595304</ele>
        <time>2022-08-06T03:54:27.112Z</time>
      </trkpt>
      <trkpt lat="46.10981" lon="15.11867">
        <ele>208.684841</ele>
        <time>2022-08-06T03:54:33.604Z</time>
      </trkpt>
      <trkpt lat="46.10969" lon="15.11874">
        <ele>208.729835</ele>
        <time>2022-08-06T03:54:37.350Z</time>
      </trkpt>
      <trkpt lat="46.10876" lon="15.11907">
        <ele>209.44834</ele>
        <time>2022-08-06T03:55:15.514Z</time>
      </trkpt>
      <trkpt lat="46.10779" lon="15.11962">
        <ele>213.982241</ele>
        <time>2022-08-06T03:56:06.894Z</time>
      </trkpt>
      <trkpt lat="46.10685" lon="15.12083">
        <ele>219.24832</ele>
        <time>2022-08-06T03:57:12.505Z</time>
      </trkpt>
      <trkpt lat="46.10586" lon="15.12184">
        <ele>224.003076</ele>
        <time>2022-08-06T03:58:07.659Z</time>
      </trkpt>
      <trkpt lat="46.10533" lon="15.12269">
        <ele>225.395809</ele>
        <time>2022-08-06T03:58:37.468Z</time>
      </trkpt>
      <trkpt lat="46.10518" lon="15.12318">
        <ele>226.04755</ele>
        <time>2022-08-06T03:58:49.828Z</time>
      </trkpt>
      <trkpt lat="46.10505" lon="15.12408">
        <ele>227.209602</ele>
        <time>2022-08-06T03:59:09.536Z</time>
      </trkpt>
      <trkpt lat="46.10507" lon="15.12589">
        <ele>231.465938</ele>
        <time>2022-08-06T03:59:57.880Z</time>
      </trkpt>
      <trkpt lat="46.10498" lon="15.12646">
        <ele>232.848759</ele>
        <time>2022-08-06T04:00:19.718Z</time>
      </trkpt>
      <trkpt lat="46.10468" lon="15.12766">
        <ele>239.185458</ele>
        <time>2022-08-06T04:01:17.199Z</time>
      </trkpt>
      <trkpt lat="46.10465" lon="15.12832">
        <ele>242.676727</ele>
        <time>2022-08-06T04:01:49.458Z</time>
      </trkpt>
      <trkpt lat="46.10477" lon="15.12915">
        <ele>247.177807</ele>
        <time>2022-08-06T04:02:30.304Z</time>
      </trkpt>
      <trkpt lat="46.10505" lon="15.13005">
        <ele>249.164869</ele>
        <time>2022-08-06T04:03:09.874Z</time>
      </trkpt>
      <trkpt lat="46.10519" lon="15.13075">
        <ele>250.653904</ele>
        <time>2022-08-06T04:03:32.571Z</time>
      </trkpt>
      <trkpt lat="46.10509" lon="15.13135">
        <ele>251.892333</ele>
        <time>2022-08-06T04:03:44.107Z</time>
      </trkpt>
      <trkpt lat="46.10505" lon="15.13193">
        <ele>250.556546</ele>
        <time>2022-08-06T04:03:52.563Z</time>
      </trkpt>
      <trkpt lat="46.10481" lon="15.13272">
        <ele>245.884528</ele>
        <time>2022-08-06T04:04:03.592Z</time>
      </trkpt>
      <trkpt lat="46.10463" lon="15.133">
        <ele>243.88091</ele>
        <time>2022-08-06T04:04:08.047Z</time>
      </trkpt>
      <trkpt lat="46.10425" lon="15.13395">
        <ele>237.752087</ele>
        <time>2022-08-06T04:04:21.015Z</time>
      </trkpt>
      <trkpt lat="46.10396" lon="15.13443">
        <ele>233.249765</ele>
        <time>2022-08-06T04:04:28.181Z</time>
      </trkpt>
      <trkpt lat="46.10364" lon="15.13471">
        <ele>229.384727</ele>
        <time>2022-08-06T04:04:34.409Z</time>
      </trkpt>
      <trkpt lat="46.10327" lon="15.13539">
        <ele>223.204796</ele>
        <time>2022-08-06T04:04:44.728Z</time>
      </trkpt>
      <trkpt lat="46.10308" lon="15.13558">
        <ele>220.782714</ele>
        <time>2022-08-06T04:04:48.783Z</time>
      </trkpt>
      <trkpt lat="46.10248" lon="15.13618">
        <ele>218.711465</ele>
        <time>2022-08-06T04:05:02.588Z</time>
      </trkpt>
      <trkpt lat="46.10202" lon="15.13691">
        <ele>217.498867</ele>
        <time>2022-08-06T04:05:18.693Z</time>
      </trkpt>
      <trkpt lat="46.10152" lon="15.1379">
        <ele>217.704123</ele>
        <time>2022-08-06T04:05:56.054Z</time>
      </trkpt>
      <trkpt lat="46.10136" lon="15.13841">
        <ele>218.799331</ele>
        <time>2022-08-06T04:06:13.193Z</time>
      </trkpt>
      <trkpt lat="46.10104" lon="15.13973">
        <ele>221.536394</ele>
        <time>2022-08-06T04:06:52.460Z</time>
      </trkpt>
      <trkpt lat="46.10056" lon="15.1408">
        <ele>223.689252</ele>
        <time>2022-08-06T04:07:27.632Z</time>
      </trkpt>
      <trkpt lat="46.10046" lon="15.14115">
        <ele>224.310064</ele>
        <time>2022-08-06T04:07:37.242Z</time>
      </trkpt>
      <trkpt lat="46.10034" lon="15.14179">
        <ele>225.413887</ele>
        <time>2022-08-06T04:07:56.698Z</time>
      </trkpt>
      <trkpt lat="46.09996" lon="15.14277">
        <ele>226.054921</ele>
        <time>2022-08-06T04:08:25.806Z</time>
      </trkpt>
      <trkpt lat="46.09963" lon="15.14327">
        <ele>226.062432</ele>
        <time>2022-08-06T04:08:40.793Z</time>
      </trkpt>
      <trkpt lat="46.09947" lon="15.14375">
        <ele>226.068228</ele>
        <time>2022-08-06T04:08:50.249Z</time>
      </trkpt>
      <trkpt lat="46.09908" lon="15.14437">
        <ele>225.596371</ele>
        <time>2022-08-06T04:09:02.881Z</time>
      </trkpt>
      <trkpt lat="46.09833" lon="15.14585">
        <ele>221.409725</ele>
        <time>2022-08-06T04:09:28.119Z</time>
      </trkpt>
      <trkpt lat="46.09704" lon="15.14907">
        <ele>213.450088</ele>
        <time>2022-08-06T04:10:21.223Z</time>
      </trkpt>
      <trkpt lat="46.09652" lon="15.15022">
        <ele>210.996242</ele>
        <time>2022-08-06T04:10:41.326Z</time>
      </trkpt>
      <trkpt lat="46.09615" lon="15.15112">
        <ele>209.736028</ele>
        <time>2022-08-06T04:10:57.388Z</time>
      </trkpt>
      <trkpt lat="46.09591" lon="15.15146">
        <ele>209.595502</ele>
        <time>2022-08-06T04:11:05.501Z</time>
      </trkpt>
      <trkpt lat="46.09498" lon="15.15249">
        <ele>209.109518</ele>
        <time>2022-08-06T04:11:38.964Z</time>
      </trkpt>
      <trkpt lat="46.09413" lon="15.15363">
        <ele>209.65717</ele>
        <time>2022-08-06T04:12:14.947Z</time>
      </trkpt>
      <trkpt lat="46.0939" lon="15.15387">
        <ele>209.795396</ele>
        <time>2022-08-06T04:12:23.381Z</time>
      </trkpt>
      <trkpt lat="46.09238" lon="15.15518">
        <ele>210.517503</ele>
        <time>2022-08-06T04:13:14.929Z</time>
      </trkpt>
      <trkpt lat="46.09144" lon="15.1558">
        <ele>211.990603</ele>
        <time>2022-08-06T04:13:46.652Z</time>
      </trkpt>
      <trkpt lat="46.09033" lon="15.15628">
        <ele>214.404753</ele>
        <time>2022-08-06T04:14:28.310Z</time>
      </trkpt>
      <trkpt lat="46.08986" lon="15.1567">
        <ele>219.985091</ele>
        <time>2022-08-06T04:15:04.937Z</time>
      </trkpt>
      <trkpt lat="46.08944" lon="15.15705">
        <ele>224.874995</ele>
        <time>2022-08-06T04:15:42.359Z</time>
      </trkpt>
      <trkpt lat="46.08874" lon="15.15762">
        <ele>233.100149</ele>
        <time>2022-08-06T04:16:54.571Z</time>
      </trkpt>
      <trkpt lat="46.08819" lon="15.15846">
        <ele>242.108199</ele>
        <time>2022-08-06T04:18:15.092Z</time>
      </trkpt>
      <trkpt lat="46.08771" lon="15.15961">
        <ele>252.587632</ele>
        <time>2022-08-06T04:19:29.200Z</time>
      </trkpt>
      <trkpt lat="46.08754" lon="15.16017">
        <ele>251.897996</ele>
        <time>2022-08-06T04:19:47.332Z</time>
      </trkpt>
      <trkpt lat="46.08736" lon="15.16115">
        <ele>250.199295</ele>
        <time>2022-08-06T04:20:02.491Z</time>
      </trkpt>
      <trkpt lat="46.08731" lon="15.16321">
        <ele>241.076057</ele>
        <time>2022-08-06T04:20:27.491Z</time>
      </trkpt>
      <trkpt lat="46.08722" lon="15.16409">
        <ele>234.774545</ele>
        <time>2022-08-06T04:20:37.875Z</time>
      </trkpt>
      <trkpt lat="46.08705" lon="15.1647">
        <ele>230.135016</ele>
        <time>2022-08-06T04:20:45.600Z</time>
      </trkpt>
      <trkpt lat="46.08682" lon="15.16531">
        <ele>225.364</ele>
        <time>2022-08-06T04:20:53.709Z</time>
      </trkpt>
      <trkpt lat="46.08663" lon="15.16657">
        <ele>216.425195</ele>
        <time>2022-08-06T04:21:09.026Z</time>
      </trkpt>
      <trkpt lat="46.08634" lon="15.16773">
        <ele>209.411601</ele>
        <time>2022-08-06T04:21:23.818Z</time>
      </trkpt>
      <trkpt lat="46.08605" lon="15.16818">
        <ele>206.644154</ele>
        <time>2022-08-06T04:21:31.438Z</time>
      </trkpt>
      <trkpt lat="46.0855" lon="15.16877">
        <ele>202.280406</ele>
        <time>2022-08-06T04:21:43.955Z</time>
      </trkpt>
      <trkpt lat="46.08447" lon="15.17013">
        <ele>198.665274</ele>
        <time>2022-08-06T04:22:14.471Z</time>
      </trkpt>
      <trkpt lat="46.08375" lon="15.17096">
        <ele>197.728226</ele>
        <time>2022-08-06T04:22:38.701Z</time>
      </trkpt>
      <trkpt lat="46.08356" lon="15.17105">
        <ele>197.858893</ele>
        <time>2022-08-06T04:22:44.219Z</time>
      </trkpt>
      <trkpt lat="46.08351" lon="15.17107">
        <ele>197.898582</ele>
        <time>2022-08-06T04:22:45.950Z</time>
      </trkpt>
      <trkpt lat="46.08292" lon="15.17113">
        <ele>198.296186</ele>
        <time>2022-08-06T04:23:04.097Z</time>
      </trkpt>
      <trkpt lat="46.08267" lon="15.17108">
        <ele>198.466083</ele>
        <time>2022-08-06T04:23:12.172Z</time>
      </trkpt>
      <trkpt lat="46.08206" lon="15.17089">
        <ele>199.441319</ele>
        <time>2022-08-06T04:23:33.583Z</time>
      </trkpt>
      <trkpt lat="46.08126" lon="15.17043">
        <ele>202.424931</ele>
        <time>2022-08-06T04:24:08.435Z</time>
      </trkpt>
      <trkpt lat="46.08086" lon="15.17038">
        <ele>203.850137</ele>
        <time>2022-08-06T04:24:27.345Z</time>
      </trkpt>
      <trkpt lat="46.07929" lon="15.17094">
        <ele>213.406131</ele>
        <time>2022-08-06T04:26:00.804Z</time>
      </trkpt>
      <trkpt lat="46.07886" lon="15.171">
        <ele>216.221793</ele>
        <time>2022-08-06T04:26:28.553Z</time>
      </trkpt>
      <trkpt lat="46.07842" lon="15.17119">
        <ele>219.422255</ele>
        <time>2022-08-06T04:26:58.679Z</time>
      </trkpt>
      <trkpt lat="46.07817" lon="15.17137">
        <ele>221.295813</ele>
        <time>2022-08-06T04:27:16.235Z</time>
      </trkpt>
      <trkpt lat="46.07803" lon="15.1717">
        <ele>223.151834</ele>
        <time>2022-08-06T04:27:33.579Z</time>
      </trkpt>
      <trkpt lat="46.07797" lon="15.17219">
        <ele>225.552194</ele>
        <time>2022-08-06T04:27:56.331Z</time>
      </trkpt>
      <trkpt lat="46.0779" lon="15.17241">
        <ele>226.672537</ele>
        <time>2022-08-06T04:28:06.770Z</time>
      </trkpt>
      <trkpt lat="46.07734" lon="15.17356">
        <ele>229.183031</ele>
        <time>2022-08-06T04:28:57.457Z</time>
      </trkpt>
      <trkpt lat="46.07712" lon="15.17422">
        <ele>229.132942</ele>
        <time>2022-08-06T04:29:11.231Z</time>
      </trkpt>
      <trkpt lat="46.07681" lon="15.17496">
        <ele>229.073095</ele>
        <time>2022-08-06T04:29:23.322Z</time>
      </trkpt>
      <trkpt lat="46.07665" lon="15.17549">
        <ele>227.016625</ele>
        <time>2022-08-06T04:29:30.655Z</time>
      </trkpt>
      <trkpt lat="46.07644" lon="15.17661">
        <ele>221.879639</ele>
        <time>2022-08-06T04:29:44.786Z</time>
      </trkpt>
      <trkpt lat="46.07613" lon="15.17722">
        <ele>218.500629</ele>
        <time>2022-08-06T04:29:53.988Z</time>
      </trkpt>
      <trkpt lat="46.0748" lon="15.17847">
        <ele>215.615853</ele>
        <time>2022-08-06T04:30:28.452Z</time>
      </trkpt>
      <trkpt lat="46.07395" lon="15.17891">
        <ele>215.073204</ele>
        <time>2022-08-06T04:31:10.859Z</time>
      </trkpt>
      <trkpt lat="46.07338" lon="15.17907">
        <ele>215.00693</ele>
        <time>2022-08-06T04:31:29.848Z</time>
      </trkpt>
      <trkpt lat="46.07306" lon="15.17929">
        <ele>214.966496</ele>
        <time>2022-08-06T04:31:38.213Z</time>
      </trkpt>
      <trkpt lat="46.07255" lon="15.17978">
        <ele>213.005003</ele>
        <time>2022-08-06T04:31:49.951Z</time>
      </trkpt>
      <trkpt lat="46.07201" lon="15.18068">
        <ele>207.559255</ele>
        <time>2022-08-06T04:32:04.835Z</time>
      </trkpt>
      <trkpt lat="46.07154" lon="15.18111">
        <ele>203.873159</ele>
        <time>2022-08-06T04:32:14.546Z</time>
      </trkpt>
      <trkpt lat="46.07157" lon="15.18119">
        <ele>203.456099</ele>
        <time>2022-08-06T04:32:18.966Z</time>
      </trkpt>
      <trkpt lat="46.07186" lon="15.18178">
        <ele>202.346775</ele>
        <time>2022-08-06T04:32:53.942Z</time>
      </trkpt>
      <trkpt lat="46.07203" lon="15.18211">
        <ele>201.890232</ele>
        <time>2022-08-06T04:33:13.395Z</time>
      </trkpt>
      <trkpt lat="46.07206" lon="15.18217">
        <ele>201.806366</ele>
        <time>2022-08-06T04:33:14.766Z</time>
      </trkpt>
      <trkpt lat="46.07332" lon="15.18094">
        <ele>202.045565</ele>
        <time>2022-08-06T04:34:06.109Z</time>
      </trkpt>
      <trkpt lat="46.0743" lon="15.18023">
        <ele>206.215739</ele>
        <time>2022-08-06T04:35:02.114Z</time>
      </trkpt>
      <trkpt lat="46.07572" lon="15.17945">
        <ele>210.642766</ele>
        <time>2022-08-06T04:36:12.704Z</time>
      </trkpt>
      <trkpt lat="46.07611" lon="15.17917">
        <ele>211.833032</ele>
        <time>2022-08-06T04:36:24.969Z</time>
      </trkpt>
      <trkpt lat="46.07674" lon="15.17841">
        <ele>209.958247</ele>
        <time>2022-08-06T04:36:42.756Z</time>
      </trkpt>
      <trkpt lat="46.07727" lon="15.17749">
        <ele>207.836961</ele>
        <time>2022-08-06T04:36:58.245Z</time>
      </trkpt>
      <trkpt lat="46.07782" lon="15.17613">
        <ele>205.220113</ele>
        <time>2022-08-06T04:37:19.667Z</time>
      </trkpt>
      <trkpt lat="46.07829" lon="15.17474">
        <ele>203.166085</ele>
        <time>2022-08-06T04:37:42.791Z</time>
      </trkpt>
      <trkpt lat="46.07869" lon="15.17342">
        <ele>203.505656</ele>
        <time>2022-08-06T04:38:08.861Z</time>
      </trkpt>
      <trkpt lat="46.07905" lon="15.17267">
        <ele>203.737385</ele>
        <time>2022-08-06T04:38:30.217Z</time>
      </trkpt>
      <trkpt lat="46.07938" lon="15.17234">
        <ele>205.219599</ele>
        <time>2022-08-06T04:38:46.017Z</time>
      </trkpt>
      <trkpt lat="46.08017" lon="15.17196">
        <ele>208.338408</ele>
        <time>2022-08-06T04:39:25.092Z</time>
      </trkpt>
      <trkpt lat="46.08041" lon="15.17189">
        <ele>209.249326</ele>
        <time>2022-08-06T04:39:37.690Z</time>
      </trkpt>
      <trkpt lat="46.08087" lon="15.17191">
        <ele>210.651431</ele>
        <time>2022-08-06T04:40:02.209Z</time>
      </trkpt>
      <trkpt lat="46.08228" lon="15.17219">
        <ele>213.100492</ele>
        <time>2022-08-06T04:40:54.415Z</time>
      </trkpt>
      <trkpt lat="46.08283" lon="15.17237">
        <ele>212.871888</ele>
        <time>2022-08-06T04:41:05.880Z</time>
      </trkpt>
      <trkpt lat="46.08395" lon="15.17298">
        <ele>210.670997</ele>
        <time>2022-08-06T04:41:29.955Z</time>
      </trkpt>
      <trkpt lat="46.08406" lon="15.17306">
        <ele>210.449947</ele>
        <time>2022-08-06T04:41:32.894Z</time>
      </trkpt>
      <trkpt lat="46.08438" lon="15.17333">
        <ele>211.115286</ele>
        <time>2022-08-06T04:41:41.714Z</time>
      </trkpt>
      <trkpt lat="46.08458" lon="15.17359">
        <ele>212.178075</ele>
        <time>2022-08-06T04:41:49.236Z</time>
      </trkpt>
      <trkpt lat="46.08462" lon="15.17372">
        <ele>212.588392</ele>
        <time>2022-08-06T04:41:53.062Z</time>
      </trkpt>
      <trkpt lat="46.08487" lon="15.174">
        <ele>213.827774</ele>
        <time>2022-08-06T04:42:05.006Z</time>
      </trkpt>
      <trkpt lat="46.0859" lon="15.17513">
        <ele>220.79517</ele>
        <time>2022-08-06T04:43:25.840Z</time>
      </trkpt>
      <trkpt lat="46.08614" lon="15.17574">
        <ele>224.95387</ele>
        <time>2022-08-06T04:44:00.328Z</time>
      </trkpt>
      <trkpt lat="46.08631" lon="15.17646">
        <ele>229.423368</ele>
        <time>2022-08-06T04:44:38.161Z</time>
      </trkpt>
      <trkpt lat="46.08652" lon="15.17745">
        <ele>234.336799</ele>
        <time>2022-08-06T04:45:27.192Z</time>
      </trkpt>
      <trkpt lat="46.08672" lon="15.17913">
        <ele>240.288062</ele>
        <time>2022-08-06T04:46:30.754Z</time>
      </trkpt>
      <trkpt lat="46.08706" lon="15.18328">
        <ele>238.891962</ele>
        <time>2022-08-06T04:47:41.053Z</time>
      </trkpt>
      <trkpt lat="46.08753" lon="15.1864">
        <ele>231.019266</ele>
        <time>2022-08-06T04:48:21.549Z</time>
      </trkpt>
      <trkpt lat="46.0878" lon="15.18799">
        <ele>229.62615</ele>
        <time>2022-08-06T04:48:43.450Z</time>
      </trkpt>
      <trkpt lat="46.08798" lon="15.18872">
        <ele>230.507272</ele>
        <time>2022-08-06T04:49:08.554Z</time>
      </trkpt>
      <trkpt lat="46.08815" lon="15.18919">
        <ele>231.107607</ele>
        <time>2022-08-06T04:49:24.360Z</time>
      </trkpt>
      <trkpt lat="46.08804" lon="15.1894">
        <ele>231.404067</ele>
        <time>2022-08-06T04:49:30.906Z</time>
      </trkpt>
      <trkpt lat="46.08787" lon="15.18971">
        <ele>232.300107</ele>
        <time>2022-08-06T04:49:45.972Z</time>
      </trkpt>
      <trkpt lat="46.08786" lon="15.18995">
        <ele>233.149355</ele>
        <time>2022-08-06T04:49:54.907Z</time>
      </trkpt>
      <trkpt lat="46.08798" lon="15.19014">
        <ele>234.058889</ele>
        <time>2022-08-06T04:50:05.340Z</time>
      </trkpt>
      <trkpt lat="46.08819" lon="15.19033">
        <ele>235.253967</ele>
        <time>2022-08-06T04:50:20.742Z</time>
      </trkpt>
      <trkpt lat="46.08823" lon="15.19037">
        <ele>235.535455</ele>
        <time>2022-08-06T04:50:23.883Z</time>
      </trkpt>
      <trkpt lat="46.08835" lon="15.19051">
        <ele>236.302739</ele>
        <time>2022-08-06T04:50:31.209Z</time>
      </trkpt>
      <trkpt lat="46.08894" lon="15.19075">
        <ele>239.365099</ele>
        <time>2022-08-06T04:51:08.360Z</time>
      </trkpt>
      <trkpt lat="46.08911" lon="15.19089">
        <ele>240.317759</ele>
        <time>2022-08-06T04:51:16.031Z</time>
      </trkpt>
      <trkpt lat="46.0894" lon="15.19142">
        <ele>239.617091</ele>
        <time>2022-08-06T04:51:32.534Z</time>
      </trkpt>
      <trkpt lat="46.08952" lon="15.19202">
        <ele>238.582049</ele>
        <time>2022-08-06T04:51:40.189Z</time>
      </trkpt>
      <trkpt lat="46.08962" lon="15.19227">
        <ele>238.096286</ele>
        <time>2022-08-06T04:51:44.366Z</time>
      </trkpt>
      <trkpt lat="46.08996" lon="15.19285">
        <ele>236.833406</ele>
        <time>2022-08-06T04:51:54.133Z</time>
      </trkpt>
      <trkpt lat="46.09012" lon="15.19301">
        <ele>236.370531</ele>
        <time>2022-08-06T04:51:58.109Z</time>
      </trkpt>
      <trkpt lat="46.09054" lon="15.19324">
        <ele>233.926398</ele>
        <time>2022-08-06T04:52:06.136Z</time>
      </trkpt>
      <trkpt lat="46.091" lon="15.19336">
        <ele>231.267898</ele>
        <time>2022-08-06T04:52:14.562Z</time>
      </trkpt>
      <trkpt lat="46.09132" lon="15.19357">
        <ele>229.245332</ele>
        <time>2022-08-06T04:52:20.736Z</time>
      </trkpt>
      <trkpt lat="46.0917" lon="15.194">
        <ele>226.513972</ele>
        <time>2022-08-06T04:52:28.810Z</time>
      </trkpt>
      <trkpt lat="46.09198" lon="15.1945">
        <ele>225.242823</ele>
        <time>2022-08-06T04:52:36.904Z</time>
      </trkpt>
      <trkpt lat="46.09224" lon="15.19478">
        <ele>224.526913</ele>
        <time>2022-08-06T04:52:43.095Z</time>
      </trkpt>
      <trkpt lat="46.09296" lon="15.19598">
        <ele>222.084526</ele>
        <time>2022-08-06T04:53:08.994Z</time>
      </trkpt>
      <trkpt lat="46.09308" lon="15.19608">
        <ele>222.464026</ele>
        <time>2022-08-06T04:53:14.183Z</time>
      </trkpt>
      <trkpt lat="46.09336" lon="15.19607">
        <ele>223.28538</ele>
        <time>2022-08-06T04:53:23.822Z</time>
      </trkpt>
      <trkpt lat="46.09367" lon="15.19667">
        <ele>224.805647</ele>
        <time>2022-08-06T04:53:44.656Z</time>
      </trkpt>
      <trkpt lat="46.0938" lon="15.19701">
        <ele>225.597343</ele>
        <time>2022-08-06T04:53:56.659Z</time>
      </trkpt>
      <trkpt lat="46.09429" lon="15.19768">
        <ele>227.751377</ele>
        <time>2022-08-06T04:54:27.873Z</time>
      </trkpt>
      <trkpt lat="46.09492" lon="15.1985">
        <ele>232.222581</ele>
        <time>2022-08-06T04:55:13.219Z</time>
      </trkpt>
      <trkpt lat="46.09565" lon="15.19926">
        <ele>236.929673</ele>
        <time>2022-08-06T04:56:00.477Z</time>
      </trkpt>
      <trkpt lat="46.09589" lon="15.19961">
        <ele>238.344143</ele>
        <time>2022-08-06T04:56:19.143Z</time>
      </trkpt>
      <trkpt lat="46.09614" lon="15.20019">
        <ele>240.318508</ele>
        <time>2022-08-06T04:56:43.255Z</time>
      </trkpt>
      <trkpt lat="46.09625" lon="15.20067">
        <ele>241.805134</ele>
        <time>2022-08-06T04:57:00.030Z</time>
      </trkpt>
      <trkpt lat="46.09647" lon="15.20086">
        <ele>242.851597</ele>
        <time>2022-08-06T04:57:10.799Z</time>
      </trkpt>
      <trkpt lat="46.09678" lon="15.20127">
        <ele>244.511685</ele>
        <time>2022-08-06T04:57:27.047Z</time>
      </trkpt>
      <trkpt lat="46.09723" lon="15.20205">
        <ele>246.271001</ele>
        <time>2022-08-06T04:57:52.304Z</time>
      </trkpt>
      <trkpt lat="46.09756" lon="15.20281">
        <ele>247.804865</ele>
        <time>2022-08-06T04:58:13.183Z</time>
      </trkpt>
      <trkpt lat="46.09797" lon="15.2043">
        <ele>253.203545</ele>
        <time>2022-08-06T04:59:04.270Z</time>
      </trkpt>
      <trkpt lat="46.09813" lon="15.20438">
        <ele>254.31094</ele>
        <time>2022-08-06T04:59:14.429Z</time>
      </trkpt>
      <trkpt lat="46.0986" lon="15.20504">
        <ele>258.381569</ele>
        <time>2022-08-06T04:59:54.926Z</time>
      </trkpt>
      <trkpt lat="46.09919" lon="15.20565">
        <ele>264.268067</ele>
        <time>2022-08-06T05:00:45.902Z</time>
      </trkpt>
      <trkpt lat="46.09971" lon="15.20607">
        <ele>269.659355</ele>
        <time>2022-08-06T05:01:31.637Z</time>
      </trkpt>
      <trkpt lat="46.10028" lon="15.20728">
        <ele>278.613431</ele>
        <time>2022-08-06T05:02:40.956Z</time>
      </trkpt>
      <trkpt lat="46.10043" lon="15.20787">
        <ele>282.020956</ele>
        <time>2022-08-06T05:03:08.814Z</time>
      </trkpt>
      <trkpt lat="46.10064" lon="15.20839">
        <ele>285.28068</ele>
        <time>2022-08-06T05:03:35.110Z</time>
      </trkpt>
      <trkpt lat="46.10054" lon="15.20867">
        <ele>286.973356</ele>
        <time>2022-08-06T05:03:47.871Z</time>
      </trkpt>
      <trkpt lat="46.10052" lon="15.20936">
        <ele>290.694511</ele>
        <time>2022-08-06T05:04:18.710Z</time>
      </trkpt>
      <trkpt lat="46.10057" lon="15.20944">
        <ele>291.288109</ele>
        <time>2022-08-06T05:04:23.639Z</time>
      </trkpt>
      <trkpt lat="46.10134" lon="15.20986">
        <ele>297.441924</ele>
        <time>2022-08-06T05:05:15.931Z</time>
      </trkpt>
      <trkpt lat="46.10272" lon="15.21114">
        <ele>306.138716</ele>
        <time>2022-08-06T05:06:58.448Z</time>
      </trkpt>
      <trkpt lat="46.10391" lon="15.21285">
        <ele>306.116165</ele>
        <time>2022-08-06T05:07:38.415Z</time>
      </trkpt>
      <trkpt lat="46.10451" lon="15.2139">
        <ele>302.035626</ele>
        <time>2022-08-06T05:07:54.715Z</time>
      </trkpt>
      <trkpt lat="46.10484" lon="15.21456">
        <ele>300.011472</ele>
        <time>2022-08-06T05:08:04.621Z</time>
      </trkpt>
      <trkpt lat="46.10488" lon="15.21473">
        <ele>299.62421</ele>
        <time>2022-08-06T05:08:06.820Z</time>
      </trkpt>
      <trkpt lat="46.10474" lon="15.21552">
        <ele>297.863548</ele>
        <time>2022-08-06T05:08:17.444Z</time>
      </trkpt>
      <trkpt lat="46.10476" lon="15.21586">
        <ele>297.10628</ele>
        <time>2022-08-06T05:08:22.508Z</time>
      </trkpt>
      <trkpt lat="46.10489" lon="15.21632">
        <ele>296.034227</ele>
        <time>2022-08-06T05:08:30.318Z</time>
      </trkpt>
      <trkpt lat="46.10505" lon="15.21667">
        <ele>295.606374</ele>
        <time>2022-08-06T05:08:37.674Z</time>
      </trkpt>
      <trkpt lat="46.10524" lon="15.21777">
        <ele>296.621393</ele>
        <time>2022-08-06T05:09:05.454Z</time>
      </trkpt>
      <trkpt lat="46.10521" lon="15.21821">
        <ele>297.009791</ele>
        <time>2022-08-06T05:09:17.409Z</time>
      </trkpt>
      <trkpt lat="46.10507" lon="15.21843">
        <ele>297.281488</ele>
        <time>2022-08-06T05:09:25.015Z</time>
      </trkpt>
      <trkpt lat="46.10479" lon="15.21875">
        <ele>297.741216</ele>
        <time>2022-08-06T05:09:37.867Z</time>
      </trkpt>
      <trkpt lat="46.1046" lon="15.21921">
        <ele>297.115565</ele>
        <time>2022-08-06T05:09:48.823Z</time>
      </trkpt>
      <trkpt lat="46.10461" lon="15.21934">
        <ele>296.942375</ele>
        <time>2022-08-06T05:09:51.296Z</time>
      </trkpt>
      <trkpt lat="46.10468" lon="15.21942">
        <ele>296.763661</ele>
        <time>2022-08-06T05:09:53.714Z</time>
      </trkpt>
      <trkpt lat="46.10506" lon="15.2195">
        <ele>296.041325</ele>
        <time>2022-08-06T05:10:01.769Z</time>
      </trkpt>
      <trkpt lat="46.10534" lon="15.21965">
        <ele>295.467263</ele>
        <time>2022-08-06T05:10:07.935Z</time>
      </trkpt>
      <trkpt lat="46.10563" lon="15.2199">
        <ele>294.828515</ele>
        <time>2022-08-06T05:10:14.635Z</time>
      </trkpt>
      <trkpt lat="46.1058" lon="15.22037">
        <ele>293.275493</ele>
        <time>2022-08-06T05:10:21.582Z</time>
      </trkpt>
      <trkpt lat="46.10619" lon="15.22096">
        <ele>288.084973</ele>
        <time>2022-08-06T05:10:31.595Z</time>
      </trkpt>
      <trkpt lat="46.1067" lon="15.22161">
        <ele>281.913431</ele>
        <time>2022-08-06T05:10:42.504Z</time>
      </trkpt>
      <trkpt lat="46.10721" lon="15.22217">
        <ele>275.143718</ele>
        <time>2022-08-06T05:10:52.745Z</time>
      </trkpt>
      <trkpt lat="46.10756" lon="15.22262">
        <ele>268.634828</ele>
        <time>2022-08-06T05:11:00.164Z</time>
      </trkpt>
      <trkpt lat="46.10762" lon="15.22252">
        <ele>267.381695</ele>
        <time>2022-08-06T05:11:01.527Z</time>
      </trkpt>
      <trkpt lat="46.1076" lon="15.22239">
        <ele>266.104327</ele>
        <time>2022-08-06T05:11:02.994Z</time>
      </trkpt>
      <trkpt lat="46.10748" lon="15.22182">
        <ele>260.303532</ele>
        <time>2022-08-06T05:11:09.456Z</time>
      </trkpt>
      <trkpt lat="46.10728" lon="15.22144">
        <ele>255.712072</ele>
        <time>2022-08-06T05:11:14.561Z</time>
      </trkpt>
      <trkpt lat="46.10728" lon="15.22132">
        <ele>254.542657</ele>
        <time>2022-08-06T05:11:15.880Z</time>
      </trkpt>
      <trkpt lat="46.10736" lon="15.22131">
        <ele>253.509235</ele>
        <time>2022-08-06T05:11:17.033Z</time>
      </trkpt>
      <trkpt lat="46.10807" lon="15.22181">
        <ele>246.255579</ele>
        <time>2022-08-06T05:11:29.775Z</time>
      </trkpt>
      <trkpt lat="46.1084" lon="15.22187">
        <ele>243.259017</ele>
        <time>2022-08-06T05:11:35.521Z</time>
      </trkpt>
      <trkpt lat="46.10979" lon="15.2221">
        <ele>232.989255</ele>
        <time>2022-08-06T05:12:00.327Z</time>
      </trkpt>
      <trkpt lat="46.11043" lon="15.22206">
        <ele>229.258636</ele>
        <time>2022-08-06T05:12:11.890Z</time>
      </trkpt>
      <trkpt lat="46.11091" lon="15.22191">
        <ele>226.47482</ele>
        <time>2022-08-06T05:12:20.392Z</time>
      </trkpt>
      <trkpt lat="46.11112" lon="15.22186">
        <ele>225.306298</ele>
        <time>2022-08-06T05:12:27.189Z</time>
      </trkpt>
      <trkpt lat="46.11127" lon="15.22179">
        <ele>224.497272</ele>
        <time>2022-08-06T05:12:29.845Z</time>
      </trkpt>
      <trkpt lat="46.11133" lon="15.22153">
        <ele>223.493022</ele>
        <time>2022-08-06T05:12:33.016Z</time>
      </trkpt>
      <trkpt lat="46.11177" lon="15.22096">
        <ele>220.312277</ele>
        <time>2022-08-06T05:12:43.327Z</time>
      </trkpt>
      <trkpt lat="46.11224" lon="15.22005">
        <ele>217.117631</ele>
        <time>2022-08-06T05:12:57.759Z</time>
      </trkpt>
      <trkpt lat="46.11301" lon="15.21782">
        <ele>218.636518</ele>
        <time>2022-08-06T05:13:57.653Z</time>
      </trkpt>
      <trkpt lat="46.1136" lon="15.21735">
        <ele>220.598548</ele>
        <time>2022-08-06T05:14:26.618Z</time>
      </trkpt>
      <trkpt lat="46.11395" lon="15.21671">
        <ele>222.265208</ele>
        <time>2022-08-06T05:14:50.530Z</time>
      </trkpt>
      <trkpt lat="46.11427" lon="15.21627">
        <ele>223.560295</ele>
        <time>2022-08-06T05:15:09.131Z</time>
      </trkpt>
      <trkpt lat="46.11461" lon="15.21597">
        <ele>223.979715</ele>
        <time>2022-08-06T05:15:25.436Z</time>
      </trkpt>
      <trkpt lat="46.11479" lon="15.21588">
        <ele>224.158349</ele>
        <time>2022-08-06T05:15:32.394Z</time>
      </trkpt>
      <trkpt lat="46.11553" lon="15.21578">
        <ele>224.845586</ele>
        <time>2022-08-06T05:15:55.629Z</time>
      </trkpt>
      <trkpt lat="46.11572" lon="15.21545">
        <ele>225.121303</ele>
        <time>2022-08-06T05:16:02.882Z</time>
      </trkpt>
      <trkpt lat="46.1159" lon="15.21532">
        <ele>225.289302</ele>
        <time>2022-08-06T05:16:07.383Z</time>
      </trkpt>
      <trkpt lat="46.11725" lon="15.21523">
        <ele>222.930587</ele>
        <time>2022-08-06T05:16:36.448Z</time>
      </trkpt>
      <trkpt lat="46.11772" lon="15.21505">
        <ele>222.077773</ele>
        <time>2022-08-06T05:16:46.549Z</time>
      </trkpt>
      <trkpt lat="46.11853" lon="15.21461">
        <ele>220.483036</ele>
        <time>2022-08-06T05:17:04.988Z</time>
      </trkpt>
      <trkpt lat="46.11886" lon="15.21433">
        <ele>219.777564</ele>
        <time>2022-08-06T05:17:13.257Z</time>
      </trkpt>
      <trkpt lat="46.11971" lon="15.21376">
        <ele>217.784576</ele>
        <time>2022-08-06T05:17:33.394Z</time>
      </trkpt>
      <trkpt lat="46.1201" lon="15.21346">
        <ele>216.699765</ele>
        <time>2022-08-06T05:17:42.594Z</time>
      </trkpt>
      <trkpt lat="46.12149" lon="15.21188">
        <ele>212.33739</ele>
        <time>2022-08-06T05:18:17.759Z</time>
      </trkpt>
      <trkpt lat="46.12186" lon="15.21122">
        <ele>210.876516</ele>
        <time>2022-08-06T05:18:29.665Z</time>
      </trkpt>
      <trkpt lat="46.12198" lon="15.21089">
        <ele>210.231044</ele>
        <time>2022-08-06T05:18:35.064Z</time>
      </trkpt>
      <trkpt lat="46.12203" lon="15.21075">
        <ele>209.974729</ele>
        <time>2022-08-06T05:18:37.471Z</time>
      </trkpt>
      <trkpt lat="46.12214" lon="15.21005">
        <ele>209.706597</ele>
        <time>2022-08-06T05:18:48.545Z</time>
      </trkpt>
      <trkpt lat="46.12207" lon="15.20996">
        <ele>209.656241</ele>
        <time>2022-08-06T05:18:50.576Z</time>
      </trkpt>
      <trkpt lat="46.12198" lon="15.20993">
        <ele>209.606185</ele>
        <time>2022-08-06T05:18:52.855Z</time>
      </trkpt>
      <trkpt lat="46.12193" lon="15.2099">
        <ele>209.578548</ele>
        <time>2022-08-06T05:18:54.101Z</time>
      </trkpt>
      <trkpt lat="46.12216" lon="15.20703">
        <ele>208.545644</ele>
        <time>2022-08-06T05:19:49.414Z</time>
      </trkpt>
      <trkpt lat="46.1225" lon="15.20584">
        <ele>208.101034</ele>
        <time>2022-08-06T05:20:09.349Z</time>
      </trkpt>
      <trkpt lat="46.123" lon="15.20458">
        <ele>207.456658</ele>
        <time>2022-08-06T05:20:32.749Z</time>
      </trkpt>
      <trkpt lat="46.12326" lon="15.20325">
        <ele>207.275364</ele>
        <time>2022-08-06T05:20:56.964Z</time>
      </trkpt>
      <trkpt lat="46.12325" lon="15.2031">
        <ele>207.425142</ele>
        <time>2022-08-06T05:21:00.307Z</time>
      </trkpt>
      <trkpt lat="46.12335" lon="15.20284">
        <ele>207.723908</ele>
        <time>2022-08-06T05:21:06.926Z</time>
      </trkpt>
      <trkpt lat="46.12378" lon="15.20213">
        <ele>208.652115</ele>
        <time>2022-08-06T05:21:30.223Z</time>
      </trkpt>
      <trkpt lat="46.12401" lon="15.20138">
        <ele>209.464144</ele>
        <time>2022-08-06T05:21:51.494Z</time>
      </trkpt>
      <trkpt lat="46.12419" lon="15.19999">
        <ele>210.911625</ele>
        <time>2022-08-06T05:22:24.982Z</time>
      </trkpt>
      <trkpt lat="46.12432" lon="15.19977">
        <ele>211.205073</ele>
        <time>2022-08-06T05:22:32.036Z</time>
      </trkpt>
      <trkpt lat="46.12448" lon="15.19967">
        <ele>211.468822</ele>
        <time>2022-08-06T05:22:37.224Z</time>
      </trkpt>
      <trkpt lat="46.12468" lon="15.19963">
        <ele>211.771003</ele>
        <time>2022-08-06T05:22:44.541Z</time>
      </trkpt>
      <trkpt lat="46.12493" lon="15.19956">
        <ele>212.14278</ele>
        <time>2022-08-06T05:22:52.257Z</time>
      </trkpt>
      <trkpt lat="46.12538" lon="15.19896">
        <ele>212.796857</ele>
        <time>2022-08-06T05:23:11.861Z</time>
      </trkpt>
      <trkpt lat="46.12555" lon="15.19886">
        <ele>212.98655</ele>
        <time>2022-08-06T05:23:18.312Z</time>
      </trkpt>
      <trkpt lat="46.12699" lon="15.19836">
        <ele>214.949963</ele>
        <time>2022-08-06T05:24:03.346Z</time>
      </trkpt>
      <trkpt lat="46.12784" lon="15.19824">
        <ele>216.699714</ele>
        <time>2022-08-06T05:24:35.263Z</time>
      </trkpt>
      <trkpt lat="46.1288" lon="15.19827">
        <ele>218.997436</ele>
        <time>2022-08-06T05:25:14.585Z</time>
      </trkpt>
      <trkpt lat="46.12888" lon="15.19829">
        <ele>219.21011</ele>
        <time>2022-08-06T05:25:17.042Z</time>
      </trkpt>
      <trkpt lat="46.12889" lon="15.19835">
        <ele>219.32859</ele>
        <time>2022-08-06T05:25:19.944Z</time>
      </trkpt>
      <trkpt lat="46.12889" lon="15.19857">
        <ele>219.742412</ele>
        <time>2022-08-06T05:25:26.528Z</time>
      </trkpt>
      <trkpt lat="46.12931" lon="15.19859">
        <ele>220.900271</ele>
        <time>2022-08-06T05:25:42.865Z</time>
      </trkpt>
      <trkpt lat="46.13001" lon="15.19847">
        <ele>222.816176</ele>
        <time>2022-08-06T05:26:11.054Z</time>
      </trkpt>
      <trkpt lat="46.13037" lon="15.1986">
        <ele>223.453127</ele>
        <time>2022-08-06T05:26:25.095Z</time>
      </trkpt>
      <trkpt lat="46.13086" lon="15.19838">
        <ele>224.342708</ele>
        <time>2022-08-06T05:26:41.259Z</time>
      </trkpt>
      <trkpt lat="46.13109" lon="15.19837">
        <ele>224.755792</ele>
        <time>2022-08-06T05:26:49.240Z</time>
      </trkpt>
      <trkpt lat="46.13161" lon="15.1982">
        <ele>225.682311</ele>
        <time>2022-08-06T05:27:06.825Z</time>
      </trkpt>
      <trkpt lat="46.13197" lon="15.19823">
        <ele>226.579153</ele>
        <time>2022-08-06T05:27:18.719Z</time>
      </trkpt>
      <trkpt lat="46.13235" lon="15.19817">
        <ele>227.650765</ele>
        <time>2022-08-06T05:27:35.386Z</time>
      </trkpt>
      <trkpt lat="46.13257" lon="15.19799">
        <ele>228.362976</ele>
        <time>2022-08-06T05:27:46.697Z</time>
      </trkpt>
      <trkpt lat="46.13283" lon="15.1979">
        <ele>229.104757</ele>
        <time>2022-08-06T05:27:58.403Z</time>
      </trkpt>
      <trkpt lat="46.13327" lon="15.19788">
        <ele>230.329811</ele>
        <time>2022-08-06T05:28:17.016Z</time>
      </trkpt>
      <trkpt lat="46.13352" lon="15.19795">
        <ele>230.95234</ele>
        <time>2022-08-06T05:28:27.187Z</time>
      </trkpt>
      <trkpt lat="46.13364" lon="15.19837">
        <ele>231.329548</ele>
        <time>2022-08-06T05:28:39.183Z</time>
      </trkpt>
      <trkpt lat="46.13453" lon="15.19787">
        <ele>232.472167</ele>
        <time>2022-08-06T05:29:07.250Z</time>
      </trkpt>
      <trkpt lat="46.13499" lon="15.19718">
        <ele>233.510768</ele>
        <time>2022-08-06T05:29:26.946Z</time>
      </trkpt>
      <trkpt lat="46.13574" lon="15.19659">
        <ele>235.585239</ele>
        <time>2022-08-06T05:29:54.026Z</time>
      </trkpt>
      <trkpt lat="46.13609" lon="15.19669">
        <ele>236.468174</ele>
        <time>2022-08-06T05:30:10.971Z</time>
      </trkpt>
      <trkpt lat="46.13651" lon="15.19694">
        <ele>237.495365</ele>
        <time>2022-08-06T05:30:33.791Z</time>
      </trkpt>
      <trkpt lat="46.13701" lon="15.19745">
        <ele>238.111354</ele>
        <time>2022-08-06T05:31:04.071Z</time>
      </trkpt>
      <trkpt lat="46.13715" lon="15.19791">
        <ele>238.462828</ele>
        <time>2022-08-06T05:31:17.062Z</time>
      </trkpt>
      <trkpt lat="46.13737" lon="15.19823">
        <ele>238.781081</ele>
        <time>2022-08-06T05:31:24.475Z</time>
      </trkpt>
      <trkpt lat="46.13756" lon="15.1987">
        <ele>239.158974</ele>
        <time>2022-08-06T05:31:32.963Z</time>
      </trkpt>
      <trkpt lat="46.13768" lon="15.19926">
        <ele>237.084368</ele>
        <time>2022-08-06T05:31:40.391Z</time>
      </trkpt>
      <trkpt lat="46.13804" lon="15.19999">
        <ele>232.724995</ele>
        <time>2022-08-06T05:31:50.895Z</time>
      </trkpt>
      <trkpt lat="46.13817" lon="15.20059">
        <ele>229.724313</ele>
        <time>2022-08-06T05:31:58.020Z</time>
      </trkpt>
      <trkpt lat="46.13826" lon="15.20066">
        <ele>228.96723</ele>
        <time>2022-08-06T05:31:59.835Z</time>
      </trkpt>
      <trkpt lat="46.13836" lon="15.20063">
        <ele>228.307209</ele>
        <time>2022-08-06T05:32:01.375Z</time>
      </trkpt>
      <trkpt lat="46.13847" lon="15.20051">
        <ele>227.333739</ele>
        <time>2022-08-06T05:32:03.668Z</time>
      </trkpt>
      <trkpt lat="46.13857" lon="15.20047">
        <ele>226.625099</ele>
        <time>2022-08-06T05:32:05.482Z</time>
      </trkpt>
      <trkpt lat="46.13862" lon="15.20053">
        <ele>226.354059</ele>
        <time>2022-08-06T05:32:06.499Z</time>
      </trkpt>
      <trkpt lat="46.13923" lon="15.20227">
        <ele>220.305153</ele>
        <time>2022-08-06T05:32:30.959Z</time>
      </trkpt>
      <trkpt lat="46.13945" lon="15.20274">
        <ele>218.721839</ele>
        <time>2022-08-06T05:32:40.448Z</time>
      </trkpt>
      <trkpt lat="46.13995" lon="15.20352">
        <ele>219.747475</ele>
        <time>2022-08-06T05:33:02.198Z</time>
      </trkpt>
      <trkpt lat="46.14069" lon="15.20436">
        <ele>221.047017</ele>
        <time>2022-08-06T05:33:37.604Z</time>
      </trkpt>
      <trkpt lat="46.1416" lon="15.20551">
        <ele>224.553331</ele>
        <time>2022-08-06T05:34:30.552Z</time>
      </trkpt>
      <trkpt lat="46.14241" lon="15.20638">
        <ele>226.766993</ele>
        <time>2022-08-06T05:35:10.848Z</time>
      </trkpt>
      <trkpt lat="46.14276" lon="15.20685">
        <ele>226.969903</ele>
        <time>2022-08-06T05:35:26.215Z</time>
      </trkpt>
      <trkpt lat="46.14324" lon="15.20722">
        <ele>227.200492</ele>
        <time>2022-08-06T05:35:40.458Z</time>
      </trkpt>
      <trkpt lat="46.1442" lon="15.20773">
        <ele>226.49446</ele>
        <time>2022-08-06T05:36:02.651Z</time>
      </trkpt>
      <trkpt lat="46.1445" lon="15.208">
        <ele>225.93404</ele>
        <time>2022-08-06T05:36:10.182Z</time>
      </trkpt>
      <trkpt lat="46.14472" lon="15.2081">
        <ele>225.561824</ele>
        <time>2022-08-06T05:36:15.133Z</time>
      </trkpt>
      <trkpt lat="46.14504" lon="15.20827">
        <ele>225.02988</ele>
        <time>2022-08-06T05:36:22.463Z</time>
      </trkpt>
      <trkpt lat="46.1452" lon="15.20844">
        <ele>224.707249</ele>
        <time>2022-08-06T05:36:27.054Z</time>
      </trkpt>
      <trkpt lat="46.14553" lon="15.20894">
        <ele>224.152967</ele>
        <time>2022-08-06T05:36:37.890Z</time>
      </trkpt>
      <trkpt lat="46.14568" lon="15.20929">
        <ele>223.857399</ele>
        <time>2022-08-06T05:36:44.674Z</time>
      </trkpt>
      <trkpt lat="46.14582" lon="15.21">
        <ele>223.324188</ele>
        <time>2022-08-06T05:36:56.523Z</time>
      </trkpt>
      <trkpt lat="46.14576" lon="15.21068">
        <ele>222.831064</ele>
        <time>2022-08-06T05:37:07.047Z</time>
      </trkpt>
      <trkpt lat="46.14564" lon="15.21108">
        <ele>222.60661</ele>
        <time>2022-08-06T05:37:14.285Z</time>
      </trkpt>
      <trkpt lat="46.14563" lon="15.21147">
        <ele>222.496894</ele>
        <time>2022-08-06T05:37:20.795Z</time>
      </trkpt>
      <trkpt lat="46.1454" lon="15.21244">
        <ele>222.205474</ele>
        <time>2022-08-06T05:37:38.465Z</time>
      </trkpt>
      <trkpt lat="46.14523" lon="15.21333">
        <ele>221.942412</ele>
        <time>2022-08-06T05:37:54.774Z</time>
      </trkpt>
      <trkpt lat="46.14518" lon="15.21383">
        <ele>222.272471</ele>
        <time>2022-08-06T05:38:03.723Z</time>
      </trkpt>
      <trkpt lat="46.14519" lon="15.21564">
        <ele>223.610917</ele>
        <time>2022-08-06T05:38:46.050Z</time>
      </trkpt>
      <trkpt lat="46.14535" lon="15.21906">
        <ele>226.390817</ele>
        <time>2022-08-06T05:40:06.617Z</time>
      </trkpt>
      <trkpt lat="46.1456" lon="15.22155">
        <ele>225.938904</ele>
        <time>2022-08-06T05:40:49.838Z</time>
      </trkpt>
      <trkpt lat="46.14577" lon="15.22246">
        <ele>225.051552</ele>
        <time>2022-08-06T05:41:04.359Z</time>
      </trkpt>
      <trkpt lat="46.14595" lon="15.22305">
        <ele>224.448417</ele>
        <time>2022-08-06T05:41:14.091Z</time>
      </trkpt>
      <trkpt lat="46.1462" lon="15.22466">
        <ele>222.668605</ele>
        <time>2022-08-06T05:41:38.308Z</time>
      </trkpt>
      <trkpt lat="46.14609" lon="15.2263">
        <ele>220.817954</ele>
        <time>2022-08-06T05:42:03.282Z</time>
      </trkpt>
      <trkpt lat="46.14546" lon="15.22861">
        <ele>219.2462</ele>
        <time>2022-08-06T05:42:43.884Z</time>
      </trkpt>
      <trkpt lat="46.14519" lon="15.23094">
        <ele>218.379305</ele>
        <time>2022-08-06T05:43:23.611Z</time>
      </trkpt>
      <trkpt lat="46.14508" lon="15.23237">
        <ele>218.705197</ele>
        <time>2022-08-06T05:43:50.043Z</time>
      </trkpt>
      <trkpt lat="46.14495" lon="15.23324">
        <ele>219.006257</ele>
        <time>2022-08-06T05:44:08.547Z</time>
      </trkpt>
      <trkpt lat="46.14483" lon="15.23368">
        <ele>219.168179</ele>
        <time>2022-08-06T05:44:19.287Z</time>
      </trkpt>
      <trkpt lat="46.14447" lon="15.23458">
        <ele>220.313323</ele>
        <time>2022-08-06T05:44:44.145Z</time>
      </trkpt>
      <trkpt lat="46.14401" lon="15.23673">
        <ele>222.717785</ele>
        <time>2022-08-06T05:45:38.670Z</time>
      </trkpt>
      <trkpt lat="46.14402" lon="15.23754">
        <ele>223.460046</ele>
        <time>2022-08-06T05:45:58.331Z</time>
      </trkpt>
      <trkpt lat="46.14412" lon="15.23824">
        <ele>224.113182</ele>
        <time>2022-08-06T05:46:15.164Z</time>
      </trkpt>
      <trkpt lat="46.14423" lon="15.23823">
        <ele>224.261952</ele>
        <time>2022-08-06T05:46:18.702Z</time>
      </trkpt>
      <trkpt lat="46.14432" lon="15.23835">
        <ele>224.428371</ele>
        <time>2022-08-06T05:46:22.085Z</time>
      </trkpt>
      <trkpt lat="46.14435" lon="15.23846">
        <ele>224.451979</ele>
        <time>2022-08-06T05:46:24.583Z</time>
      </trkpt>
      <trkpt lat="46.14445" lon="15.23883">
        <ele>224.198181</ele>
        <time>2022-08-06T05:46:31.721Z</time>
      </trkpt>
      <trkpt lat="46.14474" lon="15.23934">
        <ele>223.77721</ele>
        <time>2022-08-06T05:46:42.388Z</time>
      </trkpt>
      <trkpt lat="46.1451" lon="15.23979">
        <ele>223.344576</ele>
        <time>2022-08-06T05:46:52.770Z</time>
      </trkpt>
      <trkpt lat="46.14558" lon="15.24018">
        <ele>222.836143</ele>
        <time>2022-08-06T05:47:05.092Z</time>
      </trkpt>
      <trkpt lat="46.14602" lon="15.24032">
        <ele>222.28559</ele>
        <time>2022-08-06T05:47:14.925Z</time>
      </trkpt>
      <trkpt lat="46.14656" lon="15.24035">
        <ele>221.624257</ele>
        <time>2022-08-06T05:47:26.071Z</time>
      </trkpt>
      <trkpt lat="46.14674" lon="15.24044">
        <ele>221.383716</ele>
        <time>2022-08-06T05:47:30.321Z</time>
      </trkpt>
      <trkpt lat="46.14757" lon="15.23964">
        <ele>220.966876</ele>
        <time>2022-08-06T05:47:55.770Z</time>
      </trkpt>
      <trkpt lat="46.14789" lon="15.23913">
        <ele>221.399989</ele>
        <time>2022-08-06T05:48:11.528Z</time>
      </trkpt>
      <trkpt lat="46.14853" lon="15.23803">
        <ele>222.273966</ele>
        <time>2022-08-06T05:48:44.660Z</time>
      </trkpt>
      <trkpt lat="46.14903" lon="15.23736">
        <ele>222.60903</ele>
        <time>2022-08-06T05:49:06.513Z</time>
      </trkpt>
      <trkpt lat="46.14935" lon="15.23706">
        <ele>222.797474</ele>
        <time>2022-08-06T05:49:17.918Z</time>
      </trkpt>
      <trkpt lat="46.15057" lon="15.23625">
        <ele>223.058695</ele>
        <time>2022-08-06T05:49:51.547Z</time>
      </trkpt>
      <trkpt lat="46.15153" lon="15.23595">
        <ele>222.948084</ele>
        <time>2022-08-06T05:50:16.718Z</time>
      </trkpt>
      <trkpt lat="46.15306" lon="15.23544">
        <ele>223.776442</ele>
        <time>2022-08-06T05:51:03.700Z</time>
      </trkpt>
      <trkpt lat="46.15358" lon="15.23523">
        <ele>224.159091</ele>
        <time>2022-08-06T05:51:20.210Z</time>
      </trkpt>
      <trkpt lat="46.15388" lon="15.23494">
        <ele>224.534604</ele>
        <time>2022-08-06T05:51:31.090Z</time>
      </trkpt>
      <trkpt lat="46.15386" lon="15.23478">
        <ele>224.651486</ele>
        <time>2022-08-06T05:51:34.130Z</time>
      </trkpt>
      <trkpt lat="46.15471" lon="15.23444">
        <ele>225.554465</ele>
        <time>2022-08-06T05:52:14.820Z</time>
      </trkpt>
      <trkpt lat="46.1565" lon="15.23396">
        <ele>231.542905</ele>
        <time>2022-08-06T05:54:02.186Z</time>
      </trkpt>
      <trkpt lat="46.15618" lon="15.23459">
        <ele>235.192436</ele>
        <time>2022-08-06T05:54:33.525Z</time>
      </trkpt>
      <trkpt lat="46.15633" lon="15.2349">
        <ele>237.817003</ele>
        <time>2022-08-06T05:54:51.983Z</time>
      </trkpt>
      <trkpt lat="46.15643" lon="15.23497">
        <ele>238.868487</ele>
        <time>2022-08-06T05:54:59.019Z</time>
      </trkpt>
      <trkpt lat="46.15664" lon="15.23495">
        <ele>240.966101</ele>
        <time>2022-08-06T05:55:15.519Z</time>
      </trkpt>
      <trkpt lat="46.15715" lon="15.2346">
        <ele>246.5067</ele>
        <time>2022-08-06T05:56:01.120Z</time>
      </trkpt>
      <trkpt lat="46.15749" lon="15.23448">
        <ele>249.947969</ele>
        <time>2022-08-06T05:56:32.486Z</time>
      </trkpt>
      <trkpt lat="46.15812" lon="15.23471">
        <ele>258.658298</ele>
        <time>2022-08-06T05:57:30.140Z</time>
      </trkpt>
      <trkpt lat="46.15843" lon="15.23465">
        <ele>262.923254</ele>
        <time>2022-08-06T05:58:02.198Z</time>
      </trkpt>
      <trkpt lat="46.15902" lon="15.2343">
        <ele>271.682372</ele>
        <time>2022-08-06T05:59:09.058Z</time>
      </trkpt>
      <trkpt lat="46.15937" lon="15.23425">
        <ele>274.947429</ele>
        <time>2022-08-06T05:59:39.069Z</time>
      </trkpt>
      <trkpt lat="46.15954" lon="15.23425">
        <ele>275.218862</ele>
        <time>2022-08-06T05:59:52.187Z</time>
      </trkpt>
      <trkpt lat="46.16019" lon="15.23447">
        <ele>276.297622</ele>
        <time>2022-08-06T06:00:39.843Z</time>
      </trkpt>
      <trkpt lat="46.16031" lon="15.23437">
        <ele>276.522367</ele>
        <time>2022-08-06T06:00:43.719Z</time>
      </trkpt>
      <trkpt lat="46.16022" lon="15.23419">
        <ele>276.763917</ele>
        <time>2022-08-06T06:00:50.660Z</time>
      </trkpt>
      <trkpt lat="46.16048" lon="15.23414">
        <ele>277.182306</ele>
        <time>2022-08-06T06:00:58.356Z</time>
      </trkpt>
      <trkpt lat="46.16055" lon="15.23419">
        <ele>277.313876</ele>
        <time>2022-08-06T06:01:01.549Z</time>
      </trkpt>
      <trkpt lat="46.16071" lon="15.23404">
        <ele>277.6238</ele>
        <time>2022-08-06T06:01:07.282Z</time>
      </trkpt>
      <trkpt lat="46.16099" lon="15.23402">
        <ele>274.457462</ele>
        <time>2022-08-06T06:01:15.979Z</time>
      </trkpt>
      <trkpt lat="46.16119" lon="15.23379">
        <ele>271.151153</ele>
        <time>2022-08-06T06:01:23.004Z</time>
      </trkpt>
      <trkpt lat="46.16133" lon="15.23382">
        <ele>269.380559</ele>
        <time>2022-08-06T06:01:26.958Z</time>
      </trkpt>
      <trkpt lat="46.1615" lon="15.23369">
        <ele>266.938427</ele>
        <time>2022-08-06T06:01:32.061Z</time>
      </trkpt>
      <trkpt lat="46.1614" lon="15.23349">
        <ele>264.703157</ele>
        <time>2022-08-06T06:01:35.003Z</time>
      </trkpt>
      <trkpt lat="46.16162" lon="15.23343">
        <ele>261.761013</ele>
        <time>2022-08-06T06:01:38.690Z</time>
      </trkpt>
      <trkpt lat="46.16394" lon="15.23355">
        <ele>239.337593</ele>
        <time>2022-08-06T06:02:18.420Z</time>
      </trkpt>
      <trkpt lat="46.16402" lon="15.23366">
        <ele>239.006002</ele>
        <time>2022-08-06T06:02:21.872Z</time>
      </trkpt>
      <trkpt lat="46.16428" lon="15.23412">
        <ele>238.871357</ele>
        <time>2022-08-06T06:02:34.361Z</time>
      </trkpt>
      <trkpt lat="46.16451" lon="15.23477">
        <ele>238.70311</ele>
        <time>2022-08-06T06:02:50.528Z</time>
      </trkpt>
      <trkpt lat="46.1648" lon="15.2355">
        <ele>238.509055</ele>
        <time>2022-08-06T06:03:12.410Z</time>
      </trkpt>
      <trkpt lat="46.16507" lon="15.2357">
        <ele>238.369648</ele>
        <time>2022-08-06T06:03:21.439Z</time>
      </trkpt>
      <trkpt lat="46.16626" lon="15.23615">
        <ele>237.253706</ele>
        <time>2022-08-06T06:03:52.159Z</time>
      </trkpt>
      <trkpt lat="46.16636" lon="15.23611">
        <ele>237.160844</ele>
        <time>2022-08-06T06:03:54.218Z</time>
      </trkpt>
      <trkpt lat="46.16641" lon="15.23601">
        <ele>237.082876</ele>
        <time>2022-08-06T06:03:55.683Z</time>
      </trkpt>
      <trkpt lat="46.16646" lon="15.23624">
        <ele>236.928906</ele>
        <time>2022-08-06T06:04:00.398Z</time>
      </trkpt>
      <trkpt lat="46.16664" lon="15.2366">
        <ele>236.89993</ele>
        <time>2022-08-06T06:04:06.977Z</time>
      </trkpt>
      <trkpt lat="46.16673" lon="15.23672">
        <ele>236.973778</ele>
        <time>2022-08-06T06:04:10.881Z</time>
      </trkpt>
      <trkpt lat="46.16692" lon="15.23687">
        <ele>237.099176</ele>
        <time>2022-08-06T06:04:15.363Z</time>
      </trkpt>
      <trkpt lat="46.1676" lon="15.23712">
        <ele>237.509949</ele>
        <time>2022-08-06T06:04:34.564Z</time>
      </trkpt>
      <trkpt lat="46.1686" lon="15.23767">
        <ele>240.552662</ele>
        <time>2022-08-06T06:05:18.636Z</time>
      </trkpt>
      <trkpt lat="46.16871" lon="15.2378">
        <ele>241.379892</ele>
        <time>2022-08-06T06:05:24.687Z</time>
      </trkpt>
      <trkpt lat="46.16885" lon="15.23795">
        <ele>242.400513</ele>
        <time>2022-08-06T06:05:32.001Z</time>
      </trkpt>
      <trkpt lat="46.16908" lon="15.23805">
        <ele>243.751617</ele>
        <time>2022-08-06T06:05:41.544Z</time>
      </trkpt>
      <trkpt lat="46.16928" lon="15.2383">
        <ele>245.242092</ele>
        <time>2022-08-06T06:05:58.508Z</time>
      </trkpt>
      <trkpt lat="46.1694" lon="15.23833">
        <ele>245.919512</ele>
        <time>2022-08-06T06:06:04.924Z</time>
      </trkpt>
      <trkpt lat="46.17004" lon="15.23816">
        <ele>251.2261</ele>
        <time>2022-08-06T06:06:56.978Z</time>
      </trkpt>
      <trkpt lat="46.17021" lon="15.23818">
        <ele>253.119732</ele>
        <time>2022-08-06T06:07:10.826Z</time>
      </trkpt>
      <trkpt lat="46.17039" lon="15.23843">
        <ele>255.947949</ele>
        <time>2022-08-06T06:07:28.787Z</time>
      </trkpt>
      <trkpt lat="46.17049" lon="15.23867">
        <ele>258.127782</ele>
        <time>2022-08-06T06:07:44.878Z</time>
      </trkpt>
      <trkpt lat="46.17074" lon="15.23942">
        <ele>264.712405</ele>
        <time>2022-08-06T06:08:32.704Z</time>
      </trkpt>
      <trkpt lat="46.1709" lon="15.23965">
        <ele>267.246848</ele>
        <time>2022-08-06T06:08:54.188Z</time>
      </trkpt>
      <trkpt lat="46.17106" lon="15.23973">
        <ele>268.843587</ele>
        <time>2022-08-06T06:09:08.766Z</time>
      </trkpt>
      <trkpt lat="46.1715" lon="15.23975">
        <ele>271.538914</ele>
        <time>2022-08-06T06:09:48.942Z</time>
      </trkpt>
      <trkpt lat="46.17182" lon="15.23993">
        <ele>273.568869</ele>
        <time>2022-08-06T06:10:09.711Z</time>
      </trkpt>
      <trkpt lat="46.17188" lon="15.24006">
        <ele>274.263584</ele>
        <time>2022-08-06T06:10:16.806Z</time>
      </trkpt>
      <trkpt lat="46.17191" lon="15.24047">
        <ele>275.958316</ele>
        <time>2022-08-06T06:10:27.680Z</time>
      </trkpt>
      <trkpt lat="46.17201" lon="15.24062">
        <ele>276.841508</ele>
        <time>2022-08-06T06:10:32.286Z</time>
      </trkpt>
      <trkpt lat="46.17225" lon="15.24058">
        <ele>278.313244</ele>
        <time>2022-08-06T06:10:39.652Z</time>
      </trkpt>
      <trkpt lat="46.17251" lon="15.24075">
        <ele>278.963047</ele>
        <time>2022-08-06T06:10:47.190Z</time>
      </trkpt>
      <trkpt lat="46.17282" lon="15.24068">
        <ele>277.894385</ele>
        <time>2022-08-06T06:10:55.225Z</time>
      </trkpt>
      <trkpt lat="46.17317" lon="15.24045">
        <ele>276.539105</ele>
        <time>2022-08-06T06:11:04.281Z</time>
      </trkpt>
      <trkpt lat="46.17343" lon="15.24044">
        <ele>275.637941</ele>
        <time>2022-08-06T06:11:08.861Z</time>
      </trkpt>
      <trkpt lat="46.17426" lon="15.24119">
        <ele>271.61291</ele>
        <time>2022-08-06T06:11:25.784Z</time>
      </trkpt>
      <trkpt lat="46.17446" lon="15.24122">
        <ele>270.404185</ele>
        <time>2022-08-06T06:11:29.495Z</time>
      </trkpt>
      <trkpt lat="46.17494" lon="15.24089">
        <ele>267.210482</ele>
        <time>2022-08-06T06:11:39.104Z</time>
      </trkpt>
      <trkpt lat="46.17505" lon="15.24087">
        <ele>266.529129</ele>
        <time>2022-08-06T06:11:41.147Z</time>
      </trkpt>
      <trkpt lat="46.1753" lon="15.24097">
        <ele>264.967594</ele>
        <time>2022-08-06T06:11:45.826Z</time>
      </trkpt>
      <trkpt lat="46.17559" lon="15.24081">
        <ele>263.111399</ele>
        <time>2022-08-06T06:11:51.227Z</time>
      </trkpt>
      <trkpt lat="46.17611" lon="15.24078">
        <ele>259.635422</ele>
        <time>2022-08-06T06:12:00.032Z</time>
      </trkpt>
      <trkpt lat="46.17629" lon="15.24069">
        <ele>258.304258</ele>
        <time>2022-08-06T06:12:03.306Z</time>
      </trkpt>
      <trkpt lat="46.1767" lon="15.24063">
        <ele>255.478715</ele>
        <time>2022-08-06T06:12:10.232Z</time>
      </trkpt>
      <trkpt lat="46.17707" lon="15.24065">
        <ele>252.914738</ele>
        <time>2022-08-06T06:12:16.590Z</time>
      </trkpt>
      <trkpt lat="46.17711" lon="15.24066">
        <ele>252.631129</ele>
        <time>2022-08-06T06:12:17.315Z</time>
      </trkpt>
      <trkpt lat="46.17727" lon="15.24072">
        <ele>251.495982</ele>
        <time>2022-08-06T06:12:20.060Z</time>
      </trkpt>
      <trkpt lat="46.17738" lon="15.24063">
        <ele>250.623442</ele>
        <time>2022-08-06T06:12:22.350Z</time>
      </trkpt>
      <trkpt lat="46.17733" lon="15.24017">
        <ele>249.932619</ele>
        <time>2022-08-06T06:12:28.043Z</time>
      </trkpt>
      <trkpt lat="46.17743" lon="15.23998">
        <ele>249.96989</ele>
        <time>2022-08-06T06:12:31.068Z</time>
      </trkpt>
      <trkpt lat="46.17807" lon="15.23996">
        <ele>250.110995</ele>
        <time>2022-08-06T06:12:45.275Z</time>
      </trkpt>
      <trkpt lat="46.1785" lon="15.23986">
        <ele>250.207749</ele>
        <time>2022-08-06T06:13:03.509Z</time>
      </trkpt>
      <trkpt lat="46.17886" lon="15.23991">
        <ele>250.487518</ele>
        <time>2022-08-06T06:13:23.764Z</time>
      </trkpt>
      <trkpt lat="46.18002" lon="15.24026">
        <ele>258.712538</ele>
        <time>2022-08-06T06:14:40.001Z</time>
      </trkpt>
      <trkpt lat="46.18056" lon="15.24029">
        <ele>262.535628</ele>
        <time>2022-08-06T06:15:14.306Z</time>
      </trkpt>
      <trkpt lat="46.18118" lon="15.24061">
        <ele>264.427137</ele>
        <time>2022-08-06T06:15:47.647Z</time>
      </trkpt>
      <trkpt lat="46.18173" lon="15.24058">
        <ele>265.861539</ele>
        <time>2022-08-06T06:16:06.858Z</time>
      </trkpt>
      <trkpt lat="46.18189" lon="15.24054">
        <ele>266.288266</ele>
        <time>2022-08-06T06:16:12.319Z</time>
      </trkpt>
      <trkpt lat="46.18209" lon="15.2406">
        <ele>266.83644</ele>
        <time>2022-08-06T06:16:18.000Z</time>
      </trkpt>
      <trkpt lat="46.18246" lon="15.24097">
        <ele>267.360916</ele>
        <time>2022-08-06T06:16:30.766Z</time>
      </trkpt>
      <trkpt lat="46.18273" lon="15.24159">
        <ele>266.863305</ele>
        <time>2022-08-06T06:16:42.107Z</time>
      </trkpt>
      <trkpt lat="46.18295" lon="15.24232">
        <ele>266.329106</ele>
        <time>2022-08-06T06:16:54.413Z</time>
      </trkpt>
      <trkpt lat="46.18309" lon="15.24247">
        <ele>266.16347</ele>
        <time>2022-08-06T06:16:58.027Z</time>
      </trkpt>
      <trkpt lat="46.18328" lon="15.24242">
        <ele>265.973864</ele>
        <time>2022-08-06T06:17:02.523Z</time>
      </trkpt>
      <trkpt lat="46.18326" lon="15.24166">
        <ele>266.603472</ele>
        <time>2022-08-06T06:17:14.424Z</time>
      </trkpt>
      <trkpt lat="46.18319" lon="15.24123">
        <ele>267.36172</ele>
        <time>2022-08-06T06:17:21.948Z</time>
      </trkpt>
      <trkpt lat="46.18322" lon="15.24101">
        <ele>267.750324</ele>
        <time>2022-08-06T06:17:27.305Z</time>
      </trkpt>
      <trkpt lat="46.18337" lon="15.24084">
        <ele>268.22763</ele>
        <time>2022-08-06T06:17:33.313Z</time>
      </trkpt>
      <trkpt lat="46.18444" lon="15.24093">
        <ele>272.504167</ele>
        <time>2022-08-06T06:18:28.378Z</time>
      </trkpt>
      <trkpt lat="46.18515" lon="15.24113">
        <ele>278.880117</ele>
        <time>2022-08-06T06:19:22.658Z</time>
      </trkpt>
      <trkpt lat="46.1856" lon="15.24156">
        <ele>283.555636</ele>
        <time>2022-08-06T06:20:06.025Z</time>
      </trkpt>
      <trkpt lat="46.18624" lon="15.24275">
        <ele>288.48458</ele>
        <time>2022-08-06T06:21:11.948Z</time>
      </trkpt>
      <trkpt lat="46.18633" lon="15.24282">
        <ele>288.797457</ele>
        <time>2022-08-06T06:21:15.676Z</time>
      </trkpt>
      <trkpt lat="46.18639" lon="15.2428">
        <ele>289.020495</ele>
        <time>2022-08-06T06:21:18.051Z</time>
      </trkpt>
      <trkpt lat="46.18656" lon="15.24243">
        <ele>290.024488</ele>
        <time>2022-08-06T06:21:27.404Z</time>
      </trkpt>
      <trkpt lat="46.18679" lon="15.24213">
        <ele>291.050249</ele>
        <time>2022-08-06T06:21:34.887Z</time>
      </trkpt>
      <trkpt lat="46.18766" lon="15.242">
        <ele>288.272153</ele>
        <time>2022-08-06T06:21:53.059Z</time>
      </trkpt>
      <trkpt lat="46.18775" lon="15.2419">
        <ele>287.642763</ele>
        <time>2022-08-06T06:21:55.248Z</time>
      </trkpt>
      <trkpt lat="46.18797" lon="15.24185">
        <ele>286.352863</ele>
        <time>2022-08-06T06:21:59.523Z</time>
      </trkpt>
      <trkpt lat="46.18802" lon="15.24176">
        <ele>285.881866</ele>
        <time>2022-08-06T06:22:01.061Z</time>
      </trkpt>
      <trkpt lat="46.1881" lon="15.24123">
        <ele>283.749934</ele>
        <time>2022-08-06T06:22:07.064Z</time>
      </trkpt>
      <trkpt lat="46.18817" lon="15.24109">
        <ele>283.019463</ele>
        <time>2022-08-06T06:22:09.058Z</time>
      </trkpt>
      <trkpt lat="46.18827" lon="15.24104">
        <ele>282.41111</ele>
        <time>2022-08-06T06:22:10.749Z</time>
      </trkpt>
      <trkpt lat="46.18844" lon="15.24107">
        <ele>281.429299</ele>
        <time>2022-08-06T06:22:13.608Z</time>
      </trkpt>
      <trkpt lat="46.18877" lon="15.24148">
        <ele>277.538194</ele>
        <time>2022-08-06T06:22:20.785Z</time>
      </trkpt>
      <trkpt lat="46.18885" lon="15.24147">
        <ele>276.841378</ele>
        <time>2022-08-06T06:22:22.037Z</time>
      </trkpt>
      <trkpt lat="46.18892" lon="15.2413">
        <ele>275.561176</ele>
        <time>2022-08-06T06:22:25.102Z</time>
      </trkpt>
      <trkpt lat="46.18891" lon="15.24096">
        <ele>273.436111</ele>
        <time>2022-08-06T06:22:28.923Z</time>
      </trkpt>
      <trkpt lat="46.18898" lon="15.24074">
        <ele>271.934227</ele>
        <time>2022-08-06T06:22:32.138Z</time>
      </trkpt>
      <trkpt lat="46.18939" lon="15.24037">
        <ele>267.602082</ele>
        <time>2022-08-06T06:22:40.173Z</time>
      </trkpt>
      <trkpt lat="46.18937" lon="15.2399">
        <ele>264.705394</ele>
        <time>2022-08-06T06:22:45.446Z</time>
      </trkpt>
      <trkpt lat="46.1894" lon="15.23973">
        <ele>263.647839</ele>
        <time>2022-08-06T06:22:47.336Z</time>
      </trkpt>
      <trkpt lat="46.18949" lon="15.23965">
        <ele>262.71298</ele>
        <time>2022-08-06T06:22:49.235Z</time>
      </trkpt>
      <trkpt lat="46.19026" lon="15.23969">
        <ele>256.020668</ele>
        <time>2022-08-06T06:23:01.770Z</time>
      </trkpt>
      <trkpt lat="46.19037" lon="15.23959">
        <ele>254.914668</ele>
        <time>2022-08-06T06:23:03.949Z</time>
      </trkpt>
      <trkpt lat="46.19045" lon="15.23941">
        <ele>253.613917</ele>
        <time>2022-08-06T06:23:06.586Z</time>
      </trkpt>
      <trkpt lat="46.19046" lon="15.23923">
        <ele>252.507989</ele>
        <time>2022-08-06T06:23:08.727Z</time>
      </trkpt>
      <trkpt lat="46.19045" lon="15.23895">
        <ele>250.784006</ele>
        <time>2022-08-06T06:23:12.029Z</time>
      </trkpt>
      <trkpt lat="46.19066" lon="15.23838">
        <ele>247.670139</ele>
        <time>2022-08-06T06:23:19.563Z</time>
      </trkpt>
      <trkpt lat="46.19065" lon="15.23813">
        <ele>246.56384</ele>
        <time>2022-08-06T06:23:22.474Z</time>
      </trkpt>
      <trkpt lat="46.19081" lon="15.23803">
        <ele>245.445892</ele>
        <time>2022-08-06T06:23:25.420Z</time>
      </trkpt>
      <trkpt lat="46.19095" lon="15.23785">
        <ele>244.247728</ele>
        <time>2022-08-06T06:23:28.571Z</time>
      </trkpt>
      <trkpt lat="46.19109" lon="15.23721">
        <ele>241.278592</ele>
        <time>2022-08-06T06:23:36.320Z</time>
      </trkpt>
      <trkpt lat="46.19152" lon="15.23254">
        <ele>230.615286</ele>
        <time>2022-08-06T06:24:44.753Z</time>
      </trkpt>
      <trkpt lat="46.19175" lon="15.2318">
        <ele>229.38164</ele>
        <time>2022-08-06T06:24:57.225Z</time>
      </trkpt>
      <trkpt lat="46.1921" lon="15.2314">
        <ele>229.014971</ele>
        <time>2022-08-06T06:25:07.620Z</time>
      </trkpt>
      <trkpt lat="46.19243" lon="15.23112">
        <ele>229.430024</ele>
        <time>2022-08-06T06:25:17.359Z</time>
      </trkpt>
      <trkpt lat="46.19282" lon="15.23097">
        <ele>229.856715</ele>
        <time>2022-08-06T06:25:28.325Z</time>
      </trkpt>
      <trkpt lat="46.19321" lon="15.23097">
        <ele>230.261124</ele>
        <time>2022-08-06T06:25:39.943Z</time>
      </trkpt>
      <trkpt lat="46.19372" lon="15.23123">
        <ele>231.402986</ele>
        <time>2022-08-06T06:26:03.493Z</time>
      </trkpt>
      <trkpt lat="46.19407" lon="15.23166">
        <ele>234.326259</ele>
        <time>2022-08-06T06:26:33.243Z</time>
      </trkpt>
      <trkpt lat="46.19423" lon="15.23197">
        <ele>236.015735</ele>
        <time>2022-08-06T06:26:53.649Z</time>
      </trkpt>
      <trkpt lat="46.19436" lon="15.23237">
        <ele>237.938743</ele>
        <time>2022-08-06T06:27:20.136Z</time>
      </trkpt>
      <trkpt lat="46.19454" lon="15.23459">
        <ele>242.366814</ele>
        <time>2022-08-06T06:28:27.868Z</time>
      </trkpt>
      <trkpt lat="46.19528" lon="15.23456">
        <ele>242.628524</ele>
        <time>2022-08-06T06:28:45.179Z</time>
      </trkpt>
      <trkpt lat="46.19537" lon="15.23459">
        <ele>242.660985</ele>
        <time>2022-08-06T06:28:46.859Z</time>
      </trkpt>
      <trkpt lat="46.19541" lon="15.2346">
        <ele>242.677067</ele>
        <time>2022-08-06T06:28:47.631Z</time>
      </trkpt>
      <trkpt lat="46.19549" lon="15.23638">
        <ele>240.538572</ele>
        <time>2022-08-06T06:29:11.079Z</time>
      </trkpt>
      <trkpt lat="46.19578" lon="15.23767">
        <ele>239.671668</ele>
        <time>2022-08-06T06:29:53.551Z</time>
      </trkpt>
      <trkpt lat="46.19599" lon="15.23823">
        <ele>239.96857</ele>
        <time>2022-08-06T06:30:11.222Z</time>
      </trkpt>
      <trkpt lat="46.19643" lon="15.2391">
        <ele>240.470103</ele>
        <time>2022-08-06T06:30:32.473Z</time>
      </trkpt>
      <trkpt lat="46.19665" lon="15.23937">
        <ele>240.616001</ele>
        <time>2022-08-06T06:30:38.872Z</time>
      </trkpt>
      <trkpt lat="46.19686" lon="15.23951">
        <ele>239.722103</ele>
        <time>2022-08-06T06:30:43.818Z</time>
      </trkpt>
      <trkpt lat="46.19767" lon="15.23967">
        <ele>236.68748</ele>
        <time>2022-08-06T06:30:59.828Z</time>
      </trkpt>
      <trkpt lat="46.19802" lon="15.23962">
        <ele>235.379034</ele>
        <time>2022-08-06T06:31:06.572Z</time>
      </trkpt>
      <trkpt lat="46.199" lon="15.23933">
        <ele>232.22986</ele>
        <time>2022-08-06T06:31:26.333Z</time>
      </trkpt>
      <trkpt lat="46.1994" lon="15.23909">
        <ele>231.00441</ele>
        <time>2022-08-06T06:31:35.593Z</time>
      </trkpt>
      <trkpt lat="46.20022" lon="15.23822">
        <ele>228.669239</ele>
        <time>2022-08-06T06:31:58.077Z</time>
      </trkpt>
      <trkpt lat="46.20065" lon="15.23791">
        <ele>228.224502</ele>
        <time>2022-08-06T06:32:09.456Z</time>
      </trkpt>
      <trkpt lat="46.20088" lon="15.23757">
        <ele>227.921258</ele>
        <time>2022-08-06T06:32:17.255Z</time>
      </trkpt>
      <trkpt lat="46.20142" lon="15.23717">
        <ele>227.356375</ele>
        <time>2022-08-06T06:32:32.851Z</time>
      </trkpt>
      <trkpt lat="46.20216" lon="15.23694">
        <ele>229.25465</ele>
        <time>2022-08-06T06:32:56.218Z</time>
      </trkpt>
      <trkpt lat="46.20216" lon="15.23704">
        <ele>229.468981</ele>
        <time>2022-08-06T06:32:58.142Z</time>
      </trkpt>
      <trkpt lat="46.20217" lon="15.23802">
        <ele>231.551027</ele>
        <time>2022-08-06T06:33:27.468Z</time>
      </trkpt>
      <trkpt lat="46.20211" lon="15.23826">
        <ele>232.106139</ele>
        <time>2022-08-06T06:33:36.739Z</time>
      </trkpt>
      <trkpt lat="46.2022" lon="15.23834">
        <ele>232.435412</ele>
        <time>2022-08-06T06:33:43.445Z</time>
      </trkpt>
      <trkpt lat="46.20258" lon="15.23817">
        <ele>235.347332</ele>
        <time>2022-08-06T06:34:08.203Z</time>
      </trkpt>
      <trkpt lat="46.20285" lon="15.2382">
        <ele>237.81768</ele>
        <time>2022-08-06T06:34:26.703Z</time>
      </trkpt>
      <trkpt lat="46.20462" lon="15.23882">
        <ele>252.874544</ele>
        <time>2022-08-06T06:36:47.651Z</time>
      </trkpt>
      <trkpt lat="46.20501" lon="15.23907">
        <ele>255.532336</ele>
        <time>2022-08-06T06:37:14.206Z</time>
      </trkpt>
      <trkpt lat="46.20556" lon="15.2395">
        <ele>259.499235</ele>
        <time>2022-08-06T06:37:44.490Z</time>
      </trkpt>
      <trkpt lat="46.20607" lon="15.24015">
        <ele>260.939461</ele>
        <time>2022-08-06T06:38:06.928Z</time>
      </trkpt>
      <trkpt lat="46.20654" lon="15.24135">
        <ele>261.468621</ele>
        <time>2022-08-06T06:38:32.986Z</time>
      </trkpt>
      <trkpt lat="46.20676" lon="15.24255">
        <ele>261.546491</ele>
        <time>2022-08-06T06:38:57.361Z</time>
      </trkpt>
      <trkpt lat="46.20683" lon="15.24376">
        <ele>261.362196</ele>
        <time>2022-08-06T06:39:21.106Z</time>
      </trkpt>
      <trkpt lat="46.20659" lon="15.24703">
        <ele>260.31211</ele>
        <time>2022-08-06T06:40:15.944Z</time>
      </trkpt>
      <trkpt lat="46.20656" lon="15.24808">
        <ele>262.871085</ele>
        <time>2022-08-06T06:40:44.518Z</time>
      </trkpt>
      <trkpt lat="46.20654" lon="15.24993">
        <ele>267.580764</ele>
        <time>2022-08-06T06:41:52.874Z</time>
      </trkpt>
      <trkpt lat="46.20661" lon="15.25339">
        <ele>274.607559</ele>
        <time>2022-08-06T06:43:45.273Z</time>
      </trkpt>
      <trkpt lat="46.20667" lon="15.25401">
        <ele>274.834587</ele>
        <time>2022-08-06T06:43:56.548Z</time>
      </trkpt>
      <trkpt lat="46.20678" lon="15.25455">
        <ele>275.04078</ele>
        <time>2022-08-06T06:44:05.138Z</time>
      </trkpt>
      <trkpt lat="46.20694" lon="15.25509">
        <ele>273.024498</ele>
        <time>2022-08-06T06:44:13.026Z</time>
      </trkpt>
      <trkpt lat="46.2073" lon="15.25611">
        <ele>266.846449</ele>
        <time>2022-08-06T06:44:27.072Z</time>
      </trkpt>
      <trkpt lat="46.20752" lon="15.2566">
        <ele>263.63875</ele>
        <time>2022-08-06T06:44:34.124Z</time>
      </trkpt>
      <trkpt lat="46.20813" lon="15.25766">
        <ele>255.34144</ele>
        <time>2022-08-06T06:44:50.217Z</time>
      </trkpt>
      <trkpt lat="46.2089" lon="15.25872">
        <ele>245.515192</ele>
        <time>2022-08-06T06:45:08.544Z</time>
      </trkpt>
      <trkpt lat="46.2095" lon="15.25939">
        <ele>241.578344</ele>
        <time>2022-08-06T06:45:21.723Z</time>
      </trkpt>
      <trkpt lat="46.21056" lon="15.26036">
        <ele>236.228268</ele>
        <time>2022-08-06T06:45:46.355Z</time>
      </trkpt>
      <trkpt lat="46.21113" lon="15.26076">
        <ele>235.271901</ele>
        <time>2022-08-06T06:46:00.101Z</time>
      </trkpt>
      <trkpt lat="46.21206" lon="15.26159">
        <ele>233.670702</ele>
        <time>2022-08-06T06:46:25.158Z</time>
      </trkpt>
      <trkpt lat="46.21227" lon="15.26218">
        <ele>233.685591</ele>
        <time>2022-08-06T06:46:36.308Z</time>
      </trkpt>
      <trkpt lat="46.2123" lon="15.26221">
        <ele>233.686537</ele>
        <time>2022-08-06T06:46:37.022Z</time>
      </trkpt>
      <trkpt lat="46.21234" lon="15.26225">
        <ele>233.68818</ele>
        <time>2022-08-06T06:46:38.246Z</time>
      </trkpt>
      <trkpt lat="46.2124" lon="15.2623">
        <ele>233.690564</ele>
        <time>2022-08-06T06:46:40.097Z</time>
      </trkpt>
      <trkpt lat="46.21308" lon="15.26224">
        <ele>233.712484</ele>
        <time>2022-08-06T06:46:58.279Z</time>
      </trkpt>
      <trkpt lat="46.21336" lon="15.26231">
        <ele>233.721534</ele>
        <time>2022-08-06T06:47:06.596Z</time>
      </trkpt>
      <trkpt lat="46.21378" lon="15.26256">
        <ele>234.12753</ele>
        <time>2022-08-06T06:47:21.125Z</time>
      </trkpt>
      <trkpt lat="46.2163" lon="15.26438">
        <ele>237.860283</ele>
        <time>2022-08-06T06:48:59.532Z</time>
      </trkpt>
      <trkpt lat="46.21654" lon="15.26447">
        <ele>238.130782</ele>
        <time>2022-08-06T06:49:06.315Z</time>
      </trkpt>
      <trkpt lat="46.21661" lon="15.2645">
        <ele>238.208245</ele>
        <time>2022-08-06T06:49:08.223Z</time>
      </trkpt>
      <trkpt lat="46.21696" lon="15.26458">
        <ele>238.361034</ele>
        <time>2022-08-06T06:49:17.446Z</time>
      </trkpt>
      <trkpt lat="46.21796" lon="15.26463">
        <ele>237.946931</ele>
        <time>2022-08-06T06:49:40.521Z</time>
      </trkpt>
      <trkpt lat="46.21854" lon="15.26476">
        <ele>237.704006</ele>
        <time>2022-08-06T06:49:55.174Z</time>
      </trkpt>
      <trkpt lat="46.21903" lon="15.26501">
        <ele>238.132607</ele>
        <time>2022-08-06T06:50:10.413Z</time>
      </trkpt>
      <trkpt lat="46.22033" lon="15.26585">
        <ele>239.390243</ele>
        <time>2022-08-06T06:50:58.906Z</time>
      </trkpt>
      <trkpt lat="46.22075" lon="15.26627">
        <ele>238.980575</ele>
        <time>2022-08-06T06:51:12.400Z</time>
      </trkpt>
      <trkpt lat="46.22087" lon="15.26641">
        <ele>238.852671</ele>
        <time>2022-08-06T06:51:16.180Z</time>
      </trkpt>
      <trkpt lat="46.22093" lon="15.26666">
        <ele>238.705327</ele>
        <time>2022-08-06T06:51:20.726Z</time>
      </trkpt>
      <trkpt lat="46.22096" lon="15.26667">
        <ele>238.679342</ele>
        <time>2022-08-06T06:51:21.386Z</time>
      </trkpt>
      <trkpt lat="46.22129" lon="15.2667">
        <ele>238.414897</ele>
        <time>2022-08-06T06:51:29.252Z</time>
      </trkpt>
      <trkpt lat="46.22161" lon="15.26703">
        <ele>238.10035</ele>
        <time>2022-08-06T06:51:37.622Z</time>
      </trkpt>
      <trkpt lat="46.22215" lon="15.26734">
        <ele>236.994504</ele>
        <time>2022-08-06T06:51:49.632Z</time>
      </trkpt>
      <trkpt lat="46.22279" lon="15.26758">
        <ele>235.577652</ele>
        <time>2022-08-06T06:52:02.385Z</time>
      </trkpt>
      <trkpt lat="46.22365" lon="15.26759">
        <ele>234.266501</ele>
        <time>2022-08-06T06:52:21.730Z</time>
      </trkpt>
      <trkpt lat="46.22428" lon="15.26747">
        <ele>234.559631</ele>
        <time>2022-08-06T06:52:39.474Z</time>
      </trkpt>
      <trkpt lat="46.22453" lon="15.26732">
        <ele>234.687734</ele>
        <time>2022-08-06T06:52:47.957Z</time>
      </trkpt>
      <trkpt lat="46.22516" lon="15.26688">
        <ele>235.022285</ele>
        <time>2022-08-06T06:53:10.664Z</time>
      </trkpt>
      <trkpt lat="46.22542" lon="15.26682">
        <ele>235.458963</ele>
        <time>2022-08-06T06:53:19.563Z</time>
      </trkpt>
      <trkpt lat="46.22547" lon="15.26687">
        <ele>235.557384</ele>
        <time>2022-08-06T06:53:21.558Z</time>
      </trkpt>
      <trkpt lat="46.2255" lon="15.2668">
        <ele>235.652468</ele>
        <time>2022-08-06T06:53:23.798Z</time>
      </trkpt>
      <trkpt lat="46.22556" lon="15.2668">
        <ele>235.753538</ele>
        <time>2022-08-06T06:53:26.008Z</time>
      </trkpt>
      <trkpt lat="46.22563" lon="15.26667">
        <ele>235.946596</ele>
        <time>2022-08-06T06:53:30.025Z</time>
      </trkpt>
      <trkpt lat="46.22712" lon="15.26704">
        <ele>238.251573</ele>
        <time>2022-08-06T06:54:23.665Z</time>
      </trkpt>
      <trkpt lat="46.22773" lon="15.2672">
        <ele>238.741541</ele>
        <time>2022-08-06T06:54:43.796Z</time>
      </trkpt>
      <trkpt lat="46.22798" lon="15.26728">
        <ele>238.950553</ele>
        <time>2022-08-06T06:54:51.550Z</time>
      </trkpt>
      <trkpt lat="46.22847" lon="15.26742">
        <ele>239.347211</ele>
        <time>2022-08-06T06:55:05.463Z</time>
      </trkpt>
      <trkpt lat="46.22881" lon="15.26752">
        <ele>239.349823</ele>
        <time>2022-08-06T06:55:14.331Z</time>
      </trkpt>
      <trkpt lat="46.22905" lon="15.26759">
        <ele>239.20483</ele>
        <time>2022-08-06T06:55:20.262Z</time>
      </trkpt>
      <trkpt lat="46.22955" lon="15.26773">
        <ele>238.897897</ele>
        <time>2022-08-06T06:55:32.637Z</time>
      </trkpt>
      <trkpt lat="46.23049" lon="15.26778">
        <ele>238.391843</ele>
        <time>2022-08-06T06:55:54.259Z</time>
      </trkpt>
      <trkpt lat="46.23158" lon="15.26781">
        <ele>238.424968</ele>
        <time>2022-08-06T06:56:23.375Z</time>
      </trkpt>
      <trkpt lat="46.23159" lon="15.26768">
        <ele>238.427618</ele>
        <time>2022-08-06T06:56:26.035Z</time>
      </trkpt>
      <trkpt lat="46.23162" lon="15.2675">
        <ele>238.431624</ele>
        <time>2022-08-06T06:56:29.886Z</time>
      </trkpt>
      <trkpt lat="46.23167" lon="15.26713">
        <ele>238.439524</ele>
        <time>2022-08-06T06:56:37.652Z</time>
      </trkpt>
      <trkpt lat="46.23184" lon="15.26611">
        <ele>238.639381</ele>
        <time>2022-08-06T06:56:58.528Z</time>
      </trkpt>
      <trkpt lat="46.23207" lon="15.26632">
        <ele>238.730275</ele>
        <time>2022-08-06T06:57:17.487Z</time>
      </trkpt>
      <trkpt lat="46.2323" lon="15.26694">
        <ele>238.890813</ele>
        <time>2022-08-06T06:57:31.766Z</time>
      </trkpt>
      <trkpt lat="46.23245" lon="15.26723">
        <ele>238.977087</ele>
        <time>2022-08-06T06:57:39.356Z</time>
      </trkpt>
      <trkpt lat="46.23276" lon="15.26752">
        <ele>238.983701</ele>
        <time>2022-08-06T06:57:49.510Z</time>
      </trkpt>
      <trkpt lat="46.23278" lon="15.26766">
        <ele>238.947899</ele>
        <time>2022-08-06T06:57:52.160Z</time>
      </trkpt>
      <trkpt lat="46.23304" lon="15.26771">
        <ele>238.857503</ele>
        <time>2022-08-06T06:57:58.999Z</time>
      </trkpt>
      <trkpt lat="46.23354" lon="15.26799">
        <ele>238.669565</ele>
        <time>2022-08-06T06:58:12.638Z</time>
      </trkpt>
      <trkpt lat="46.23424" lon="15.26869">
        <ele>238.366119</ele>
        <time>2022-08-06T06:58:33.243Z</time>
      </trkpt>
      <trkpt lat="46.23466" lon="15.2693">
        <ele>238.132044</ele>
        <time>2022-08-06T06:58:47.775Z</time>
      </trkpt>
      <trkpt lat="46.23486" lon="15.2695">
        <ele>238.037894</ele>
        <time>2022-08-06T06:58:53.638Z</time>
      </trkpt>
      <trkpt lat="46.23489" lon="15.26973">
        <ele>237.973809</ele>
        <time>2022-08-06T06:58:57.933Z</time>
      </trkpt>
      <trkpt lat="46.23508" lon="15.27002">
        <ele>237.865263</ele>
        <time>2022-08-06T06:59:05.209Z</time>
      </trkpt>
      <trkpt lat="46.23515" lon="15.27002">
        <ele>237.839066</ele>
        <time>2022-08-06T06:59:06.831Z</time>
      </trkpt>
      <trkpt lat="46.23518" lon="15.27006">
        <ele>237.822741</ele>
        <time>2022-08-06T06:59:07.907Z</time>
      </trkpt>
      <trkpt lat="46.2353" lon="15.27037">
        <ele>237.726301</ele>
        <time>2022-08-06T06:59:14.349Z</time>
      </trkpt>
      <trkpt lat="46.2354" lon="15.27048">
        <ele>237.748281</ele>
        <time>2022-08-06T06:59:17.645Z</time>
      </trkpt>
      <trkpt lat="46.23556" lon="15.27052">
        <ele>237.815727</ele>
        <time>2022-08-06T06:59:21.696Z</time>
      </trkpt>
      <trkpt lat="46.23558" lon="15.27058">
        <ele>237.836601</ele>
        <time>2022-08-06T06:59:23.110Z</time>
      </trkpt>
      <trkpt lat="46.2356" lon="15.27066">
        <ele>237.86101</ele>
        <time>2022-08-06T06:59:24.739Z</time>
      </trkpt>
      <trkpt lat="46.23569" lon="15.2707">
        <ele>237.899317</ele>
        <time>2022-08-06T06:59:27.024Z</time>
      </trkpt>
      <trkpt lat="46.23578" lon="15.27075">
        <ele>237.942126</ele>
        <time>2022-08-06T06:59:29.598Z</time>
      </trkpt>
      <trkpt lat="46.23585" lon="15.27109">
        <ele>238.04484</ele>
        <time>2022-08-06T06:59:36.553Z</time>
      </trkpt>
      <trkpt lat="46.23612" lon="15.27145">
        <ele>238.204041</ele>
        <time>2022-08-06T06:59:47.757Z</time>
      </trkpt>
      <trkpt lat="46.23657" lon="15.27192">
        <ele>238.440881</ele>
        <time>2022-08-06T07:00:04.739Z</time>
      </trkpt>
      <trkpt lat="46.23696" lon="15.2721">
        <ele>238.569472</ele>
        <time>2022-08-06T07:00:17.245Z</time>
      </trkpt>
      <trkpt lat="46.23738" lon="15.27241">
        <ele>238.707638</ele>
        <time>2022-08-06T07:00:30.892Z</time>
      </trkpt>
      <trkpt lat="46.23742" lon="15.27254">
        <ele>238.737223</ele>
        <time>2022-08-06T07:00:33.624Z</time>
      </trkpt>
      <trkpt lat="46.23921" lon="15.2738">
        <ele>239.002863</ele>
        <time>2022-08-06T07:01:26.684Z</time>
      </trkpt>
      <trkpt lat="46.24046" lon="15.27485">
        <ele>239.264073</ele>
        <time>2022-08-06T07:02:05.331Z</time>
      </trkpt>
      <trkpt lat="46.24075" lon="15.27505">
        <ele>239.378612</ele>
        <time>2022-08-06T07:02:14.972Z</time>
      </trkpt>
      <trkpt lat="46.24096" lon="15.27509">
        <ele>239.452792</ele>
        <time>2022-08-06T07:02:21.394Z</time>
      </trkpt>
      <trkpt lat="46.24106" lon="15.27517">
        <ele>239.493307</ele>
        <time>2022-08-06T07:02:25.049Z</time>
      </trkpt>
      <trkpt lat="46.24102" lon="15.27534">
        <ele>239.536581</ele>
        <time>2022-08-06T07:02:28.579Z</time>
      </trkpt>
      <trkpt lat="46.24098" lon="15.27546">
        <ele>239.570589</ele>
        <time>2022-08-06T07:02:31.428Z</time>
      </trkpt>
      <trkpt lat="46.24086" lon="15.27556">
        <ele>239.620759</ele>
        <time>2022-08-06T07:02:35.765Z</time>
      </trkpt>
      <trkpt lat="46.24051" lon="15.27703">
        <ele>239.819667</ele>
        <time>2022-08-06T07:03:05.603Z</time>
      </trkpt>
      <trkpt lat="46.24036" lon="15.27776">
        <ele>239.912626</ele>
        <time>2022-08-06T07:03:20.164Z</time>
      </trkpt>
      <trkpt lat="46.24014" lon="15.27913">
        <ele>239.479702</ele>
        <time>2022-08-06T07:03:44.801Z</time>
      </trkpt>
      <trkpt lat="46.2402" lon="15.27926">
        <ele>239.406328</ele>
        <time>2022-08-06T07:03:47.357Z</time>
      </trkpt>
      <trkpt lat="46.24016" lon="15.27938">
        <ele>239.344119</ele>
        <time>2022-08-06T07:03:49.512Z</time>
      </trkpt>
      <trkpt lat="46.24001" lon="15.2795">
        <ele>239.231524</ele>
        <time>2022-08-06T07:03:53.427Z</time>
      </trkpt>
      <trkpt lat="46.23995" lon="15.27962">
        <ele>239.159656</ele>
        <time>2022-08-06T07:03:55.928Z</time>
      </trkpt>
      <trkpt lat="46.23968" lon="15.28106">
        <ele>238.317151</ele>
        <time>2022-08-06T07:04:20.003Z</time>
      </trkpt>
      <trkpt lat="46.23947" lon="15.28236">
        <ele>237.364919</ele>
        <time>2022-08-06T07:04:40.950Z</time>
      </trkpt>
      <trkpt lat="46.23943" lon="15.28298">
        <ele>236.916917</ele>
        <time>2022-08-06T07:04:50.979Z</time>
      </trkpt>
      <trkpt lat="46.23944" lon="15.28376">
        <ele>236.705327</ele>
        <time>2022-08-06T07:05:03.487Z</time>
      </trkpt>
      <trkpt lat="46.23952" lon="15.28622">
        <ele>236.374967</ele>
        <time>2022-08-06T07:05:47.746Z</time>
      </trkpt>
      <trkpt lat="46.23962" lon="15.28646">
        <ele>236.444245</ele>
        <time>2022-08-06T07:05:53.138Z</time>
      </trkpt>
      <trkpt lat="46.23955" lon="15.28709">
        <ele>236.603737</ele>
        <time>2022-08-06T07:06:06.364Z</time>
      </trkpt>
      <trkpt lat="46.23956" lon="15.28846">
        <ele>236.9683</ele>
        <time>2022-08-06T07:06:34.262Z</time>
      </trkpt>
      <trkpt lat="46.23959" lon="15.28922">
        <ele>237.209905</ele>
        <time>2022-08-06T07:06:49.331Z</time>
      </trkpt>
      <trkpt lat="46.23971" lon="15.2897">
        <ele>237.375691</ele>
        <time>2022-08-06T07:06:59.577Z</time>
      </trkpt>
      <trkpt lat="46.23987" lon="15.29015">
        <ele>237.53696</ele>
        <time>2022-08-06T07:07:09.654Z</time>
      </trkpt>
      <trkpt lat="46.24013" lon="15.29033">
        <ele>237.670094</ele>
        <time>2022-08-06T07:07:18.143Z</time>
      </trkpt>
      <trkpt lat="46.24027" lon="15.29059">
        <ele>237.756494</ele>
        <time>2022-08-06T07:07:24.834Z</time>
      </trkpt>
      <trkpt lat="46.24026" lon="15.29065">
        <ele>237.771814</ele>
        <time>2022-08-06T07:07:26.281Z</time>
      </trkpt>
      <trkpt lat="46.2402" lon="15.29084">
        <ele>237.819273</ele>
        <time>2022-08-06T07:07:30.056Z</time>
      </trkpt>
      <trkpt lat="46.24073" lon="15.29204">
        <ele>238.1562</ele>
        <time>2022-08-06T07:07:57.474Z</time>
      </trkpt>
      <trkpt lat="46.24109" lon="15.29326">
        <ele>238.504255</ele>
        <time>2022-08-06T07:08:23.479Z</time>
      </trkpt>
      <trkpt lat="46.24166" lon="15.29586">
        <ele>239.487606</ele>
        <time>2022-08-06T07:09:17.810Z</time>
      </trkpt>
      <trkpt lat="46.24175" lon="15.29642">
        <ele>239.79274</ele>
        <time>2022-08-06T07:09:29.631Z</time>
      </trkpt>
      <trkpt lat="46.24162" lon="15.29744">
        <ele>240.34298</ele>
        <time>2022-08-06T07:09:52.013Z</time>
      </trkpt>
      <trkpt lat="46.24099" lon="15.29916">
        <ele>241.994703</ele>
        <time>2022-08-06T07:10:36.489Z</time>
      </trkpt>
      <trkpt lat="46.24087" lon="15.29971">
        <ele>242.49905</ele>
        <time>2022-08-06T07:10:49.789Z</time>
      </trkpt>
      <trkpt lat="46.24083" lon="15.30071">
        <ele>243.128105</ele>
        <time>2022-08-06T07:11:12.653Z</time>
      </trkpt>
      <trkpt lat="46.24095" lon="15.30242">
        <ele>243.998672</ele>
        <time>2022-08-06T07:11:47.547Z</time>
      </trkpt>
      <trkpt lat="46.24087" lon="15.30243">
        <ele>244.061135</ele>
        <time>2022-08-06T07:11:50.201Z</time>
      </trkpt>
      <trkpt lat="46.24108" lon="15.30555">
        <ele>244.886432</ele>
        <time>2022-08-06T07:12:49.691Z</time>
      </trkpt>
      <trkpt lat="46.24106" lon="15.30624">
        <ele>245.445914</ele>
        <time>2022-08-06T07:13:03.801Z</time>
      </trkpt>
      <trkpt lat="46.2404" lon="15.31316">
        <ele>251.694366</ele>
        <time>2022-08-06T07:15:45.340Z</time>
      </trkpt>
      <trkpt lat="46.2402" lon="15.31407">
        <ele>252.775816</ele>
        <time>2022-08-06T07:16:08.103Z</time>
      </trkpt>
      <trkpt lat="46.24006" lon="15.31426">
        <ele>253.105057</ele>
        <time>2022-08-06T07:16:15.348Z</time>
      </trkpt>
      <trkpt lat="46.2401" lon="15.31442">
        <ele>253.296771</ele>
        <time>2022-08-06T07:16:19.193Z</time>
      </trkpt>
      <trkpt lat="46.23974" lon="15.31645">
        <ele>255.365211</ele>
        <time>2022-08-06T07:17:09.640Z</time>
      </trkpt>
      <trkpt lat="46.23954" lon="15.31799">
        <ele>256.709812</ele>
        <time>2022-08-06T07:17:43.655Z</time>
      </trkpt>
      <trkpt lat="46.23923" lon="15.31919">
        <ele>257.620379</ele>
        <time>2022-08-06T07:18:09.102Z</time>
      </trkpt>
      <trkpt lat="46.23919" lon="15.31993">
        <ele>258.144583</ele>
        <time>2022-08-06T07:18:25.386Z</time>
      </trkpt>
      <trkpt lat="46.23923" lon="15.32113">
        <ele>259.786293</ele>
        <time>2022-08-06T07:18:56.192Z</time>
      </trkpt>
      <trkpt lat="46.23954" lon="15.32369">
        <ele>263.311367</ele>
        <time>2022-08-06T07:20:07.145Z</time>
      </trkpt>
      <trkpt lat="46.23984" lon="15.3253">
        <ele>264.540786</ele>
        <time>2022-08-06T07:20:40.608Z</time>
      </trkpt>
      <trkpt lat="46.24002" lon="15.32671">
        <ele>264.432728</ele>
        <time>2022-08-06T07:21:04.492Z</time>
      </trkpt>
      <trkpt lat="46.24005" lon="15.32719">
        <ele>264.365876</ele>
        <time>2022-08-06T07:21:13.439Z</time>
      </trkpt>
      <trkpt lat="46.24001" lon="15.32768">
        <ele>264.298188</ele>
        <time>2022-08-06T07:21:22.874Z</time>
      </trkpt>
      <trkpt lat="46.23993" lon="15.32809">
        <ele>264.193386</ele>
        <time>2022-08-06T07:21:31.048Z</time>
      </trkpt>
      <trkpt lat="46.23975" lon="15.32864">
        <ele>263.899989</ele>
        <time>2022-08-06T07:21:42.701Z</time>
      </trkpt>
      <trkpt lat="46.23912" lon="15.33078">
        <ele>262.986767</ele>
        <time>2022-08-06T07:22:19.450Z</time>
      </trkpt>
      <trkpt lat="46.23903" lon="15.33142">
        <ele>262.967388</ele>
        <time>2022-08-06T07:22:30.155Z</time>
      </trkpt>
      <trkpt lat="46.23903" lon="15.33185">
        <ele>262.954656</ele>
        <time>2022-08-06T07:22:37.193Z</time>
      </trkpt>
      <trkpt lat="46.23904" lon="15.3326">
        <ele>262.932285</ele>
        <time>2022-08-06T07:22:52.207Z</time>
      </trkpt>
      <trkpt lat="46.23894" lon="15.33312">
        <ele>263.406606</ele>
        <time>2022-08-06T07:23:04.173Z</time>
      </trkpt>
      <trkpt lat="46.23817" lon="15.33434">
        <ele>266.742705</ele>
        <time>2022-08-06T07:23:51.541Z</time>
      </trkpt>
      <trkpt lat="46.23796" lon="15.33478">
        <ele>267.818458</ele>
        <time>2022-08-06T07:24:08.548Z</time>
      </trkpt>
      <trkpt lat="46.23788" lon="15.33515">
        <ele>268.55527</ele>
        <time>2022-08-06T07:24:20.807Z</time>
      </trkpt>
      <trkpt lat="46.23786" lon="15.33561">
        <ele>269.376346</ele>
        <time>2022-08-06T07:24:35.232Z</time>
      </trkpt>
      <trkpt lat="46.238" lon="15.3366">
        <ele>271.192411</ele>
        <time>2022-08-06T07:25:04.853Z</time>
      </trkpt>
      <trkpt lat="46.23798" lon="15.33711">
        <ele>272.099167</ele>
        <time>2022-08-06T07:25:17.588Z</time>
      </trkpt>
      <trkpt lat="46.23792" lon="15.33734">
        <ele>272.545248</ele>
        <time>2022-08-06T07:25:23.376Z</time>
      </trkpt>
      <trkpt lat="46.2376" lon="15.33777">
        <ele>272.029258</ele>
        <time>2022-08-06T07:25:36.274Z</time>
      </trkpt>
      <trkpt lat="46.23751" lon="15.33797">
        <ele>271.629372</ele>
        <time>2022-08-06T07:25:40.226Z</time>
      </trkpt>
      <trkpt lat="46.23704" lon="15.33961">
        <ele>268.596499</ele>
        <time>2022-08-06T07:26:03.995Z</time>
      </trkpt>
      <trkpt lat="46.23695" lon="15.34027">
        <ele>266.81952</ele>
        <time>2022-08-06T07:26:12.256Z</time>
      </trkpt>
      <trkpt lat="46.23705" lon="15.34072">
        <ele>265.472751</ele>
        <time>2022-08-06T07:26:18.100Z</time>
      </trkpt>
      <trkpt lat="46.23744" lon="15.34151">
        <ele>262.71149</ele>
        <time>2022-08-06T07:26:30.424Z</time>
      </trkpt>
      <trkpt lat="46.23777" lon="15.34274">
        <ele>261.475822</ele>
        <time>2022-08-06T07:26:48.954Z</time>
      </trkpt>
      <trkpt lat="46.23852" lon="15.34394">
        <ele>262.594938</ele>
        <time>2022-08-06T07:27:29.947Z</time>
      </trkpt>
      <trkpt lat="46.23876" lon="15.34447">
        <ele>263.611772</ele>
        <time>2022-08-06T07:27:50.003Z</time>
      </trkpt>
      <trkpt lat="46.23889" lon="15.34497">
        <ele>264.854999</ele>
        <time>2022-08-06T07:28:08.020Z</time>
      </trkpt>
      <trkpt lat="46.23899" lon="15.34597">
        <ele>267.18123</ele>
        <time>2022-08-06T07:28:40.375Z</time>
      </trkpt>
      <trkpt lat="46.23916" lon="15.34689">
        <ele>268.633987</ele>
        <time>2022-08-06T07:29:05.821Z</time>
      </trkpt>
      <trkpt lat="46.23915" lon="15.34705">
        <ele>268.550014</ele>
        <time>2022-08-06T07:29:09.192Z</time>
      </trkpt>
      <trkpt lat="46.23921" lon="15.34714">
        <ele>268.488076</ele>
        <time>2022-08-06T07:29:11.565Z</time>
      </trkpt>
      <trkpt lat="46.23929" lon="15.34714">
        <ele>268.42598</ele>
        <time>2022-08-06T07:29:13.934Z</time>
      </trkpt>
      <trkpt lat="46.23938" lon="15.34775">
        <ele>268.10169</ele>
        <time>2022-08-06T07:29:24.508Z</time>
      </trkpt>
      <trkpt lat="46.2394" lon="15.34832">
        <ele>267.798106</ele>
        <time>2022-08-06T07:29:33.228Z</time>
      </trkpt>
      <trkpt lat="46.23932" lon="15.34906">
        <ele>267.408205</ele>
        <time>2022-08-06T07:29:43.652Z</time>
      </trkpt>
      <trkpt lat="46.239" lon="15.35032">
        <ele>265.709833</ele>
        <time>2022-08-06T07:30:01.705Z</time>
      </trkpt>
      <trkpt lat="46.23886" lon="15.35059">
        <ele>265.281124</ele>
        <time>2022-08-06T07:30:06.396Z</time>
      </trkpt>
      <trkpt lat="46.23865" lon="15.3508">
        <ele>264.81627</ele>
        <time>2022-08-06T07:30:12.646Z</time>
      </trkpt>
      <trkpt lat="46.23806" lon="15.35122">
        <ele>264.744668</ele>
        <time>2022-08-06T07:30:30.683Z</time>
      </trkpt>
      <trkpt lat="46.23792" lon="15.35151">
        <ele>265.312747</ele>
        <time>2022-08-06T07:30:38.535Z</time>
      </trkpt>
      <trkpt lat="46.23789" lon="15.35171">
        <ele>265.637642</ele>
        <time>2022-08-06T07:30:44.653Z</time>
      </trkpt>
      <trkpt lat="46.23792" lon="15.3521">
        <ele>266.27153</ele>
        <time>2022-08-06T07:30:54.039Z</time>
      </trkpt>
      <trkpt lat="46.23788" lon="15.35223">
        <ele>266.486648</ele>
        <time>2022-08-06T07:30:59.181Z</time>
      </trkpt>
      <trkpt lat="46.23724" lon="15.35308">
        <ele>268.648917</ele>
        <time>2022-08-06T07:31:36.040Z</time>
      </trkpt>
      <trkpt lat="46.23711" lon="15.35336">
        <ele>269.502898</ele>
        <time>2022-08-06T07:31:47.778Z</time>
      </trkpt>
      <trkpt lat="46.23703" lon="15.35363">
        <ele>270.230067</ele>
        <time>2022-08-06T07:31:56.606Z</time>
      </trkpt>
      <trkpt lat="46.23685" lon="15.35481">
        <ele>273.260319</ele>
        <time>2022-08-06T07:32:34.821Z</time>
      </trkpt>
      <trkpt lat="46.23651" lon="15.35602">
        <ele>276.143828</ele>
        <time>2022-08-06T07:33:12.010Z</time>
      </trkpt>
      <trkpt lat="46.23629" lon="15.35664">
        <ele>277.483454</ele>
        <time>2022-08-06T07:33:31.763Z</time>
      </trkpt>
      <trkpt lat="46.23638" lon="15.35694">
        <ele>278.124008</ele>
        <time>2022-08-06T07:33:40.912Z</time>
      </trkpt>
      <trkpt lat="46.23687" lon="15.3579">
        <ele>280.289135</ele>
        <time>2022-08-06T07:34:13.255Z</time>
      </trkpt>
      <trkpt lat="46.23706" lon="15.35884">
        <ele>281.741493</ele>
        <time>2022-08-06T07:34:38.929Z</time>
      </trkpt>
      <trkpt lat="46.23708" lon="15.35918">
        <ele>282.247636</ele>
        <time>2022-08-06T07:34:48.126Z</time>
      </trkpt>
      <trkpt lat="46.23704" lon="15.35938">
        <ele>282.56262</ele>
        <time>2022-08-06T07:34:53.759Z</time>
      </trkpt>
      <trkpt lat="46.23672" lon="15.36064">
        <ele>283.210917</ele>
        <time>2022-08-06T07:35:25.486Z</time>
      </trkpt>
      <trkpt lat="46.23668" lon="15.36095">
        <ele>282.953966</ele>
        <time>2022-08-06T07:35:31.759Z</time>
      </trkpt>
      <trkpt lat="46.23669" lon="15.36182">
        <ele>282.241083</ele>
        <time>2022-08-06T07:35:45.270Z</time>
      </trkpt>
      <trkpt lat="46.23675" lon="15.36211">
        <ele>282.000925</ele>
        <time>2022-08-06T07:35:49.305Z</time>
      </trkpt>
      <trkpt lat="46.23688" lon="15.36237">
        <ele>281.741423</ele>
        <time>2022-08-06T07:35:53.738Z</time>
      </trkpt>
      <trkpt lat="46.23749" lon="15.36302">
        <ele>278.752825</ele>
        <time>2022-08-06T07:36:07.772Z</time>
      </trkpt>
      <trkpt lat="46.23729" lon="15.36365">
        <ele>276.567785</ele>
        <time>2022-08-06T07:36:16.232Z</time>
      </trkpt>
      <trkpt lat="46.23726" lon="15.36396">
        <ele>275.559835</ele>
        <time>2022-08-06T07:36:20.243Z</time>
      </trkpt>
      <trkpt lat="46.2373" lon="15.36537">
        <ele>272.374518</ele>
        <time>2022-08-06T07:36:38.171Z</time>
      </trkpt>
      <trkpt lat="46.23732" lon="15.36748">
        <ele>270.210954</ele>
        <time>2022-08-06T07:37:11.465Z</time>
      </trkpt>
      <trkpt lat="46.23737" lon="15.3682">
        <ele>271.483751</ele>
        <time>2022-08-06T07:37:28.802Z</time>
      </trkpt>
      <trkpt lat="46.23741" lon="15.36962">
        <ele>273.968942</ele>
        <time>2022-08-06T07:38:10.728Z</time>
      </trkpt>
      <trkpt lat="46.23746" lon="15.37004">
        <ele>275.008853</ele>
        <time>2022-08-06T07:38:25.632Z</time>
      </trkpt>
      <trkpt lat="46.2379" lon="15.37252">
        <ele>283.123737</ele>
        <time>2022-08-06T07:39:55.930Z</time>
      </trkpt>
      <trkpt lat="46.23834" lon="15.37375">
        <ele>285.05146</ele>
        <time>2022-08-06T07:40:37.008Z</time>
      </trkpt>
      <trkpt lat="46.23841" lon="15.37406">
        <ele>285.50921</ele>
        <time>2022-08-06T07:40:44.910Z</time>
      </trkpt>
      <trkpt lat="46.23851" lon="15.37516">
        <ele>285.679556</ele>
        <time>2022-08-06T07:41:03.108Z</time>
      </trkpt>
      <trkpt lat="46.2385" lon="15.37621">
        <ele>283.107478</ele>
        <time>2022-08-06T07:41:17.352Z</time>
      </trkpt>
      <trkpt lat="46.23854" lon="15.37654">
        <ele>282.287517</ele>
        <time>2022-08-06T07:41:21.645Z</time>
      </trkpt>
      <trkpt lat="46.23879" lon="15.37763">
        <ele>279.102301</ele>
        <time>2022-08-06T07:41:35.963Z</time>
      </trkpt>
      <trkpt lat="46.23869" lon="15.37833">
        <ele>276.418155</ele>
        <time>2022-08-06T07:41:44.675Z</time>
      </trkpt>
      <trkpt lat="46.23833" lon="15.37975">
        <ele>270.785451</ele>
        <time>2022-08-06T07:42:03.169Z</time>
      </trkpt>
      <trkpt lat="46.23828" lon="15.38114">
        <ele>268.385111</ele>
        <time>2022-08-06T07:42:22.193Z</time>
      </trkpt>
      <trkpt lat="46.23842" lon="15.38187">
        <ele>267.169972</ele>
        <time>2022-08-06T07:42:33.612Z</time>
      </trkpt>
      <trkpt lat="46.23857" lon="15.38234">
        <ele>266.330356</ele>
        <time>2022-08-06T07:42:42.034Z</time>
      </trkpt>
      <trkpt lat="46.23859" lon="15.38256">
        <ele>266.262195</ele>
        <time>2022-08-06T07:42:45.905Z</time>
      </trkpt>
      <trkpt lat="46.23857" lon="15.38366">
        <ele>265.991897</ele>
        <time>2022-08-06T07:43:06.246Z</time>
      </trkpt>
      <trkpt lat="46.23849" lon="15.38374">
        <ele>265.955365</ele>
        <time>2022-08-06T07:43:08.869Z</time>
      </trkpt>
      <trkpt lat="46.23847" lon="15.38389">
        <ele>265.918949</ele>
        <time>2022-08-06T07:43:11.495Z</time>
      </trkpt>
      <trkpt lat="46.23856" lon="15.38402">
        <ele>265.875123</ele>
        <time>2022-08-06T07:43:15.023Z</time>
      </trkpt>
      <trkpt lat="46.23864" lon="15.38402">
        <ele>265.8452</ele>
        <time>2022-08-06T07:43:17.270Z</time>
      </trkpt>
      <trkpt lat="46.23871" lon="15.38507">
        <ele>265.781843</ele>
        <time>2022-08-06T07:43:34.951Z</time>
      </trkpt>
      <trkpt lat="46.23865" lon="15.38595">
        <ele>266.046756</ele>
        <time>2022-08-06T07:43:49.056Z</time>
      </trkpt>
      <trkpt lat="46.23875" lon="15.38778">
        <ele>268.398268</ele>
        <time>2022-08-06T07:44:30.528Z</time>
      </trkpt>
      <trkpt lat="46.23861" lon="15.38833">
        <ele>270.745337</ele>
        <time>2022-08-06T07:44:52.129Z</time>
      </trkpt>
      <trkpt lat="46.23848" lon="15.38856">
        <ele>271.918376</ele>
        <time>2022-08-06T07:45:03.694Z</time>
      </trkpt>
      <trkpt lat="46.23775" lon="15.38982">
        <ele>278.939724</ele>
        <time>2022-08-06T07:46:17.468Z</time>
      </trkpt>
      <trkpt lat="46.23764" lon="15.39022">
        <ele>281.044777</ele>
        <time>2022-08-06T07:46:37.588Z</time>
      </trkpt>
      <trkpt lat="46.23764" lon="15.39054">
        <ele>282.679048</ele>
        <time>2022-08-06T07:46:54.046Z</time>
      </trkpt>
      <trkpt lat="46.23775" lon="15.39089">
        <ele>284.584007</ele>
        <time>2022-08-06T07:47:12.529Z</time>
      </trkpt>
      <trkpt lat="46.23851" lon="15.39184">
        <ele>290.331035</ele>
        <time>2022-08-06T07:48:06.903Z</time>
      </trkpt>
      <trkpt lat="46.23886" lon="15.39236">
        <ele>291.202355</ele>
        <time>2022-08-06T07:48:24.619Z</time>
      </trkpt>
      <trkpt lat="46.23915" lon="15.393">
        <ele>292.127862</ele>
        <time>2022-08-06T07:48:39.849Z</time>
      </trkpt>
      <trkpt lat="46.23945" lon="15.39387">
        <ele>292.914752</ele>
        <time>2022-08-06T07:48:58.420Z</time>
      </trkpt>
      <trkpt lat="46.23959" lon="15.39434">
        <ele>292.77358</ele>
        <time>2022-08-06T07:49:07.321Z</time>
      </trkpt>
      <trkpt lat="46.24009" lon="15.39596">
        <ele>292.283358</ele>
        <time>2022-08-06T07:49:36.859Z</time>
      </trkpt>
      <trkpt lat="46.24018" lon="15.39755">
        <ele>291.496167</ele>
        <time>2022-08-06T07:50:05.214Z</time>
      </trkpt>
      <trkpt lat="46.24024" lon="15.39784">
        <ele>291.342613</ele>
        <time>2022-08-06T07:50:09.991Z</time>
      </trkpt>
      <trkpt lat="46.24072" lon="15.39896">
        <ele>290.777145</ele>
        <time>2022-08-06T07:50:30.074Z</time>
      </trkpt>
      <trkpt lat="46.2409" lon="15.4002">
        <ele>290.34469</ele>
        <time>2022-08-06T07:50:50.738Z</time>
      </trkpt>
      <trkpt lat="46.24112" lon="15.40135">
        <ele>290.810532</ele>
        <time>2022-08-06T07:51:14.511Z</time>
      </trkpt>
      <trkpt lat="46.24093" lon="15.40248">
        <ele>292.861513</ele>
        <time>2022-08-06T07:51:44.298Z</time>
      </trkpt>
      <trkpt lat="46.24092" lon="15.4027">
        <ele>293.251623</ele>
        <time>2022-08-06T07:51:50.471Z</time>
      </trkpt>
      <trkpt lat="46.24096" lon="15.40287">
        <ele>293.557325</ele>
        <time>2022-08-06T07:51:56.064Z</time>
      </trkpt>
      <trkpt lat="46.24162" lon="15.40425">
        <ele>298.591984</ele>
        <time>2022-08-06T07:52:51.788Z</time>
      </trkpt>
      <trkpt lat="46.24197" lon="15.40554">
        <ele>303.713173</ele>
        <time>2022-08-06T07:53:46.865Z</time>
      </trkpt>
      <trkpt lat="46.24228" lon="15.40731">
        <ele>308.009997</ele>
        <time>2022-08-06T07:54:52.792Z</time>
      </trkpt>
      <trkpt lat="46.24259" lon="15.40849">
        <ele>309.068056</ele>
        <time>2022-08-06T07:55:16.587Z</time>
      </trkpt>
      <trkpt lat="46.24285" lon="15.409">
        <ele>307.138244</ele>
        <time>2022-08-06T07:55:24.946Z</time>
      </trkpt>
      <trkpt lat="46.24307" lon="15.40943">
        <ele>305.508901</ele>
        <time>2022-08-06T07:55:31.394Z</time>
      </trkpt>
      <trkpt lat="46.24316" lon="15.40973">
        <ele>304.494554</ele>
        <time>2022-08-06T07:55:35.442Z</time>
      </trkpt>
      <trkpt lat="46.2433" lon="15.41072">
        <ele>301.986906</ele>
        <time>2022-08-06T07:55:47.485Z</time>
      </trkpt>
      <trkpt lat="46.24343" lon="15.41143">
        <ele>301.548258</ele>
        <time>2022-08-06T07:55:56.427Z</time>
      </trkpt>
      <trkpt lat="46.24515" lon="15.41687">
        <ele>300.589768</ele>
        <time>2022-08-06T07:57:55.958Z</time>
      </trkpt>
      <trkpt lat="46.24576" lon="15.41892">
        <ele>302.03188</ele>
        <time>2022-08-06T07:58:57.895Z</time>
      </trkpt>
      <trkpt lat="46.24602" lon="15.4194">
        <ele>302.340494</ele>
        <time>2022-08-06T07:59:09.572Z</time>
      </trkpt>
      <trkpt lat="46.24648" lon="15.42001">
        <ele>301.792634</ele>
        <time>2022-08-06T07:59:22.630Z</time>
      </trkpt>
      <trkpt lat="46.24657" lon="15.42015">
        <ele>301.234805</ele>
        <time>2022-08-06T07:59:25.161Z</time>
      </trkpt>
      <trkpt lat="46.2476" lon="15.42156">
        <ele>295.409825</ele>
        <time>2022-08-06T07:59:50.876Z</time>
      </trkpt>
      <trkpt lat="46.24781" lon="15.42204">
        <ele>294.065157</ele>
        <time>2022-08-06T07:59:58.146Z</time>
      </trkpt>
      <trkpt lat="46.24787" lon="15.42248">
        <ele>293.04044</ele>
        <time>2022-08-06T08:00:04.003Z</time>
      </trkpt>
      <trkpt lat="46.24757" lon="15.42458">
        <ele>288.020242</ele>
        <time>2022-08-06T08:00:34.068Z</time>
      </trkpt>
      <trkpt lat="46.24771" lon="15.42522">
        <ele>286.353103</ele>
        <time>2022-08-06T08:00:43.210Z</time>
      </trkpt>
      <trkpt lat="46.24797" lon="15.42588">
        <ele>284.485446</ele>
        <time>2022-08-06T08:00:53.134Z</time>
      </trkpt>
      <trkpt lat="46.24816" lon="15.42674">
        <ele>282.246455</ele>
        <time>2022-08-06T08:01:04.584Z</time>
      </trkpt>
      <trkpt lat="46.24854" lon="15.4281">
        <ele>278.450832</ele>
        <time>2022-08-06T08:01:23.634Z</time>
      </trkpt>
      <trkpt lat="46.24896" lon="15.42921">
        <ele>276.079058</ele>
        <time>2022-08-06T08:01:40.727Z</time>
      </trkpt>
      <trkpt lat="46.24919" lon="15.42963">
        <ele>276.003385</ele>
        <time>2022-08-06T08:01:48.586Z</time>
      </trkpt>
      <trkpt lat="46.24941" lon="15.42992">
        <ele>275.940136</ele>
        <time>2022-08-06T08:01:55.958Z</time>
      </trkpt>
      <trkpt lat="46.24947" lon="15.42999">
        <ele>275.925075</ele>
        <time>2022-08-06T08:01:57.908Z</time>
      </trkpt>
      <trkpt lat="46.24961" lon="15.43017">
        <ele>275.886479</ele>
        <time>2022-08-06T08:02:03.039Z</time>
      </trkpt>
      <trkpt lat="46.24974" lon="15.43043">
        <ele>275.840562</ele>
        <time>2022-08-06T08:02:09.722Z</time>
      </trkpt>
      <trkpt lat="46.24982" lon="15.43063">
        <ele>275.806912</ele>
        <time>2022-08-06T08:02:15.115Z</time>
      </trkpt>
      <trkpt lat="46.24996" lon="15.43095">
        <ele>275.945395</ele>
        <time>2022-08-06T08:02:25.822Z</time>
      </trkpt>
      <trkpt lat="46.25056" lon="15.43221">
        <ele>281.837538</ele>
        <time>2022-08-06T08:03:13.126Z</time>
      </trkpt>
      <trkpt lat="46.25064" lon="15.43238">
        <ele>282.625354</ele>
        <time>2022-08-06T08:03:21.802Z</time>
      </trkpt>
      <trkpt lat="46.25089" lon="15.4327">
        <ele>284.503734</ele>
        <time>2022-08-06T08:03:44.701Z</time>
      </trkpt>
      <trkpt lat="46.2512" lon="15.43284">
        <ele>286.738454</ele>
        <time>2022-08-06T08:04:07.800Z</time>
      </trkpt>
      <trkpt lat="46.25151" lon="15.43284">
        <ele>290.03129</ele>
        <time>2022-08-06T08:04:31.746Z</time>
      </trkpt>
      <trkpt lat="46.25159" lon="15.43278">
        <ele>290.9758</ele>
        <time>2022-08-06T08:04:38.024Z</time>
      </trkpt>
      <trkpt lat="46.25179" lon="15.43241">
        <ele>294.353159</ele>
        <time>2022-08-06T08:05:01.927Z</time>
      </trkpt>
      <trkpt lat="46.25199" lon="15.43241">
        <ele>296.520629</ele>
        <time>2022-08-06T08:05:21.150Z</time>
      </trkpt>
      <trkpt lat="46.25211" lon="15.43253">
        <ele>298.055143</ele>
        <time>2022-08-06T08:05:31.186Z</time>
      </trkpt>
      <trkpt lat="46.25242" lon="15.43338">
        <ele>304.944642</ele>
        <time>2022-08-06T08:06:24.359Z</time>
      </trkpt>
      <trkpt lat="46.25278" lon="15.43371">
        <ele>308.626168</ele>
        <time>2022-08-06T08:06:58.330Z</time>
      </trkpt>
      <trkpt lat="46.25304" lon="15.43425">
        <ele>312.517611</ele>
        <time>2022-08-06T08:07:33.032Z</time>
      </trkpt>
      <trkpt lat="46.25324" lon="15.43453">
        <ele>314.921141</ele>
        <time>2022-08-06T08:07:50.489Z</time>
      </trkpt>
      <trkpt lat="46.25356" lon="15.43524">
        <ele>319.844007</ele>
        <time>2022-08-06T08:08:24.978Z</time>
      </trkpt>
      <trkpt lat="46.25358" lon="15.4355">
        <ele>320.561819</ele>
        <time>2022-08-06T08:08:35.040Z</time>
      </trkpt>
      <trkpt lat="46.25352" lon="15.43574">
        <ele>321.116455</ele>
        <time>2022-08-06T08:08:43.897Z</time>
      </trkpt>
      <trkpt lat="46.25289" lon="15.4365">
        <ele>323.728504</ele>
        <time>2022-08-06T08:09:17.038Z</time>
      </trkpt>
      <trkpt lat="46.25277" lon="15.43667">
        <ele>324.238007</ele>
        <time>2022-08-06T08:09:22.641Z</time>
      </trkpt>
      <trkpt lat="46.25258" lon="15.43694">
        <ele>325.086012</ele>
        <time>2022-08-06T08:09:31.977Z</time>
      </trkpt>
      <trkpt lat="46.25245" lon="15.43737">
        <ele>325.959958</ele>
        <time>2022-08-06T08:09:43.034Z</time>
      </trkpt>
      <trkpt lat="46.25245" lon="15.43799">
        <ele>326.76274</ele>
        <time>2022-08-06T08:09:57.479Z</time>
      </trkpt>
      <trkpt lat="46.25275" lon="15.44029">
        <ele>330.006319</ele>
        <time>2022-08-06T08:10:56.221Z</time>
      </trkpt>
      <trkpt lat="46.25276" lon="15.44149">
        <ele>331.990293</ele>
        <time>2022-08-06T08:11:28.845Z</time>
      </trkpt>
      <trkpt lat="46.25272" lon="15.44253">
        <ele>333.696775</ele>
        <time>2022-08-06T08:11:56.421Z</time>
      </trkpt>
      <trkpt lat="46.25278" lon="15.44274">
        <ele>334.076411</ele>
        <time>2022-08-06T08:12:02.530Z</time>
      </trkpt>
      <trkpt lat="46.25305" lon="15.4432">
        <ele>335.062694</ele>
        <time>2022-08-06T08:12:18.477Z</time>
      </trkpt>
      <trkpt lat="46.25373" lon="15.44399">
        <ele>337.101409</ele>
        <time>2022-08-06T08:12:51.600Z</time>
      </trkpt>
      <trkpt lat="46.25405" lon="15.44382">
        <ele>337.744338</ele>
        <time>2022-08-06T08:13:04.456Z</time>
      </trkpt>
      <trkpt lat="46.25422" lon="15.44379">
        <ele>337.906005</ele>
        <time>2022-08-06T08:13:10.941Z</time>
      </trkpt>
      <trkpt lat="46.25449" lon="15.44394">
        <ele>338.172721</ele>
        <time>2022-08-06T08:13:20.976Z</time>
      </trkpt>
      <trkpt lat="46.25469" lon="15.44416">
        <ele>338.409307</ele>
        <time>2022-08-06T08:13:28.957Z</time>
      </trkpt>
      <trkpt lat="46.25491" lon="15.44455">
        <ele>338.736817</ele>
        <time>2022-08-06T08:13:38.903Z</time>
      </trkpt>
      <trkpt lat="46.25521" lon="15.44529">
        <ele>339.30165</ele>
        <time>2022-08-06T08:13:54.796Z</time>
      </trkpt>
      <trkpt lat="46.25527" lon="15.44542">
        <ele>339.432194</ele>
        <time>2022-08-06T08:13:57.623Z</time>
      </trkpt>
      <trkpt lat="46.25558" lon="15.44595">
        <ele>340.151263</ele>
        <time>2022-08-06T08:14:10.646Z</time>
      </trkpt>
      <trkpt lat="46.25629" lon="15.44664">
        <ele>341.419573</ele>
        <time>2022-08-06T08:14:39.107Z</time>
      </trkpt>
      <trkpt lat="46.25655" lon="15.44698">
        <ele>341.944271</ele>
        <time>2022-08-06T08:14:52.270Z</time>
      </trkpt>
      <trkpt lat="46.25684" lon="15.44738">
        <ele>343.54617</ele>
        <time>2022-08-06T08:15:11.313Z</time>
      </trkpt>
      <trkpt lat="46.25755" lon="15.44782">
        <ele>346.872183</ele>
        <time>2022-08-06T08:15:50.187Z</time>
      </trkpt>
      <trkpt lat="46.25792" lon="15.44822">
        <ele>348.891013</ele>
        <time>2022-08-06T08:16:14.655Z</time>
      </trkpt>
      <trkpt lat="46.2581" lon="15.44836">
        <ele>349.767394</ele>
        <time>2022-08-06T08:16:24.952Z</time>
      </trkpt>
      <trkpt lat="46.2587" lon="15.44856">
        <ele>351.080315</ele>
        <time>2022-08-06T08:16:49.633Z</time>
      </trkpt>
      <trkpt lat="46.25916" lon="15.44904">
        <ele>352.277891</ele>
        <time>2022-08-06T08:17:09.871Z</time>
      </trkpt>
      <trkpt lat="46.25947" lon="15.44953">
        <ele>353.234921</ele>
        <time>2022-08-06T08:17:23.190Z</time>
      </trkpt>
      <trkpt lat="46.2598" lon="15.4503">
        <ele>354.759732</ele>
        <time>2022-08-06T08:17:42.742Z</time>
      </trkpt>
      <trkpt lat="46.25989" lon="15.4507">
        <ele>355.504114</ele>
        <time>2022-08-06T08:17:52.680Z</time>
      </trkpt>
      <trkpt lat="46.25989" lon="15.45212">
        <ele>357.989996</ele>
        <time>2022-08-06T08:18:33.309Z</time>
      </trkpt>
      <trkpt lat="46.25958" lon="15.4527">
        <ele>360.384386</ele>
        <time>2022-08-06T08:18:59.197Z</time>
      </trkpt>
      <trkpt lat="46.2594" lon="15.45328">
        <ele>362.555147</ele>
        <time>2022-08-06T08:19:23.873Z</time>
      </trkpt>
      <trkpt lat="46.25952" lon="15.45409">
        <ele>365.424247</ele>
        <time>2022-08-06T08:19:55.207Z</time>
      </trkpt>
      <trkpt lat="46.25991" lon="15.45491">
        <ele>367.490204</ele>
        <time>2022-08-06T08:20:29.194Z</time>
      </trkpt>
      <trkpt lat="46.26115" lon="15.45658">
        <ele>368.116601</ele>
        <time>2022-08-06T08:21:16.428Z</time>
      </trkpt>
      <trkpt lat="46.26144" lon="15.45708">
        <ele>366.392074</ele>
        <time>2022-08-06T08:21:24.798Z</time>
      </trkpt>
      <trkpt lat="46.26149" lon="15.45774">
        <ele>364.649706</ele>
        <time>2022-08-06T08:21:33.233Z</time>
      </trkpt>
      <trkpt lat="46.26143" lon="15.45889">
        <ele>361.645149</ele>
        <time>2022-08-06T08:21:47.551Z</time>
      </trkpt>
      <trkpt lat="46.26128" lon="15.46069">
        <ele>356.982353</ele>
        <time>2022-08-06T08:22:10.709Z</time>
      </trkpt>
      <trkpt lat="46.26131" lon="15.46093">
        <ele>356.373353</ele>
        <time>2022-08-06T08:22:14.096Z</time>
      </trkpt>
      <trkpt lat="46.26155" lon="15.46187">
        <ele>355.0384</ele>
        <time>2022-08-06T08:22:31.709Z</time>
      </trkpt>
      <trkpt lat="46.26174" lon="15.46289">
        <ele>354.246675</ele>
        <time>2022-08-06T08:22:49.851Z</time>
      </trkpt>
      <trkpt lat="46.26187" lon="15.46323">
        <ele>353.954057</ele>
        <time>2022-08-06T08:22:56.848Z</time>
      </trkpt>
      <trkpt lat="46.26366" lon="15.46702">
        <ele>344.492354</ele>
        <time>2022-08-06T08:24:01.751Z</time>
      </trkpt>
      <trkpt lat="46.26374" lon="15.46728">
        <ele>343.574288</ele>
        <time>2022-08-06T08:24:05.123Z</time>
      </trkpt>
      <trkpt lat="46.26372" lon="15.46761">
        <ele>342.46883</ele>
        <time>2022-08-06T08:24:09.114Z</time>
      </trkpt>
      <trkpt lat="46.26361" lon="15.46795">
        <ele>341.247467</ele>
        <time>2022-08-06T08:24:13.422Z</time>
      </trkpt>
      <trkpt lat="46.26324" lon="15.46977">
        <ele>330.682929</ele>
        <time>2022-08-06T08:24:35.255Z</time>
      </trkpt>
      <trkpt lat="46.2631" lon="15.47001">
        <ele>328.9075</ele>
        <time>2022-08-06T08:24:38.822Z</time>
      </trkpt>
      <trkpt lat="46.26273" lon="15.4701">
        <ele>325.878241</ele>
        <time>2022-08-06T08:24:45.186Z</time>
      </trkpt>
      <trkpt lat="46.26249" lon="15.47038">
        <ele>323.824485</ele>
        <time>2022-08-06T08:24:50.412Z</time>
      </trkpt>
      <trkpt lat="46.26235" lon="15.47099">
        <ele>320.791312</ele>
        <time>2022-08-06T08:24:58.334Z</time>
      </trkpt>
      <trkpt lat="46.26201" lon="15.47201">
        <ele>315.560247</ele>
        <time>2022-08-06T08:25:12.082Z</time>
      </trkpt>
      <trkpt lat="46.26207" lon="15.47222">
        <ele>314.493996</ele>
        <time>2022-08-06T08:25:14.765Z</time>
      </trkpt>
      <trkpt lat="46.26214" lon="15.47229">
        <ele>313.902908</ele>
        <time>2022-08-06T08:25:16.203Z</time>
      </trkpt>
      <trkpt lat="46.26283" lon="15.47244">
        <ele>308.504614</ele>
        <time>2022-08-06T08:25:27.801Z</time>
      </trkpt>
      <trkpt lat="46.26327" lon="15.47301">
        <ele>303.876003</ele>
        <time>2022-08-06T08:25:37.734Z</time>
      </trkpt>
      <trkpt lat="46.26369" lon="15.47319">
        <ele>300.452499</ele>
        <time>2022-08-06T08:25:45.205Z</time>
      </trkpt>
      <trkpt lat="46.26391" lon="15.47337">
        <ele>299.783716</ele>
        <time>2022-08-06T08:25:49.534Z</time>
      </trkpt>
      <trkpt lat="46.2642" lon="15.47407">
        <ele>299.018558</ele>
        <time>2022-08-06T08:25:59.560Z</time>
      </trkpt>
      <trkpt lat="46.26486" lon="15.47627">
        <ele>302.135554</ele>
        <time>2022-08-06T08:27:01.283Z</time>
      </trkpt>
      <trkpt lat="46.26569" lon="15.47666">
        <ele>308.51279</ele>
        <time>2022-08-06T08:28:04.551Z</time>
      </trkpt>
      <trkpt lat="46.26595" lon="15.4769">
        <ele>310.729802</ele>
        <time>2022-08-06T08:28:28.588Z</time>
      </trkpt>
      <trkpt lat="46.2662" lon="15.47795">
        <ele>318.983489</ele>
        <time>2022-08-06T08:29:32.394Z</time>
      </trkpt>
      <trkpt lat="46.26652" lon="15.47842">
        <ele>323.912702</ele>
        <time>2022-08-06T08:30:09.445Z</time>
      </trkpt>
      <trkpt lat="46.26681" lon="15.47865">
        <ele>327.468229</ele>
        <time>2022-08-06T08:30:35.140Z</time>
      </trkpt>
      <trkpt lat="46.26745" lon="15.47876">
        <ele>332.95042</ele>
        <time>2022-08-06T08:31:21.175Z</time>
      </trkpt>
      <trkpt lat="46.26787" lon="15.47902">
        <ele>336.276191</ele>
        <time>2022-08-06T08:31:49.958Z</time>
      </trkpt>
      <trkpt lat="46.26802" lon="15.47901">
        <ele>337.39601</ele>
        <time>2022-08-06T08:31:59.136Z</time>
      </trkpt>
      <trkpt lat="46.26838" lon="15.47872">
        <ele>340.36008</ele>
        <time>2022-08-06T08:32:22.374Z</time>
      </trkpt>
      <trkpt lat="46.26855" lon="15.47867">
        <ele>341.643491</ele>
        <time>2022-08-06T08:32:32.037Z</time>
      </trkpt>
      <trkpt lat="46.26867" lon="15.4787">
        <ele>342.523063</ele>
        <time>2022-08-06T08:32:38.739Z</time>
      </trkpt>
      <trkpt lat="46.26903" lon="15.47942">
        <ele>344.939697</ele>
        <time>2022-08-06T08:33:10.589Z</time>
      </trkpt>
      <trkpt lat="46.26977" lon="15.47977">
        <ele>347.579179</ele>
        <time>2022-08-06T08:33:45.845Z</time>
      </trkpt>
      <trkpt lat="46.26995" lon="15.48002">
        <ele>348.427369</ele>
        <time>2022-08-06T08:33:54.725Z</time>
      </trkpt>
      <trkpt lat="46.27039" lon="15.48035">
        <ele>348.720316</ele>
        <time>2022-08-06T08:34:09.120Z</time>
      </trkpt>
      <trkpt lat="46.27069" lon="15.48077">
        <ele>347.903909</ele>
        <time>2022-08-06T08:34:18.743Z</time>
      </trkpt>
      <trkpt lat="46.27112" lon="15.4819">
        <ele>346.146933</ele>
        <time>2022-08-06T08:34:36.382Z</time>
      </trkpt>
      <trkpt lat="46.27141" lon="15.48346">
        <ele>341.615954</ele>
        <time>2022-08-06T08:34:57.373Z</time>
      </trkpt>
      <trkpt lat="46.27148" lon="15.48436">
        <ele>338.730435</ele>
        <time>2022-08-06T08:35:08.851Z</time>
      </trkpt>
      <trkpt lat="46.27161" lon="15.48521">
        <ele>335.148758</ele>
        <time>2022-08-06T08:35:19.539Z</time>
      </trkpt>
      <trkpt lat="46.27175" lon="15.48558">
        <ele>333.032107</ele>
        <time>2022-08-06T08:35:24.596Z</time>
      </trkpt>
      <trkpt lat="46.27261" lon="15.4873">
        <ele>322.576003</ele>
        <time>2022-08-06T08:35:49.295Z</time>
      </trkpt>
      <trkpt lat="46.27296" lon="15.48867">
        <ele>315.696948</ele>
        <time>2022-08-06T08:36:06.527Z</time>
      </trkpt>
      <trkpt lat="46.27311" lon="15.4891">
        <ele>313.407024</ele>
        <time>2022-08-06T08:36:12.454Z</time>
      </trkpt>
      <trkpt lat="46.2733" lon="15.48949">
        <ele>311.497227</ele>
        <time>2022-08-06T08:36:18.303Z</time>
      </trkpt>
      <trkpt lat="46.27414" lon="15.49038">
        <ele>306.981734</ele>
        <time>2022-08-06T08:36:37.080Z</time>
      </trkpt>
      <trkpt lat="46.27452" lon="15.49092">
        <ele>304.67382</ele>
        <time>2022-08-06T08:36:47.374Z</time>
      </trkpt>
      <trkpt lat="46.27498" lon="15.49132">
        <ele>305.271585</ele>
        <time>2022-08-06T08:36:58.898Z</time>
      </trkpt>
      <trkpt lat="46.27567" lon="15.49151">
        <ele>306.779054</ele>
        <time>2022-08-06T08:37:18.020Z</time>
      </trkpt>
      <trkpt lat="46.27687" lon="15.49211">
        <ele>314.225733</ele>
        <time>2022-08-06T08:38:37.895Z</time>
      </trkpt>
      <trkpt lat="46.2772" lon="15.49241">
        <ele>318.005842</ele>
        <time>2022-08-06T08:39:07.254Z</time>
      </trkpt>
      <trkpt lat="46.2775" lon="15.49261">
        <ele>321.255763</ele>
        <time>2022-08-06T08:39:33.973Z</time>
      </trkpt>
      <trkpt lat="46.27824" lon="15.49285">
        <ele>328.479593</ele>
        <time>2022-08-06T08:40:36.703Z</time>
      </trkpt>
      <trkpt lat="46.27899" lon="15.49328">
        <ele>336.075844</ele>
        <time>2022-08-06T08:41:41.039Z</time>
      </trkpt>
      <trkpt lat="46.27916" lon="15.49348">
        <ele>338.164336</ele>
        <time>2022-08-06T08:41:56.125Z</time>
      </trkpt>
      <trkpt lat="46.27958" lon="15.4948">
        <ele>342.853103</ele>
        <time>2022-08-06T08:42:52.493Z</time>
      </trkpt>
      <trkpt lat="46.27993" lon="15.4951">
        <ele>343.110222</ele>
        <time>2022-08-06T08:43:05.285Z</time>
      </trkpt>
      <trkpt lat="46.28052" lon="15.49593">
        <ele>343.637874</ele>
        <time>2022-08-06T08:43:22.167Z</time>
      </trkpt>
      <trkpt lat="46.28109" lon="15.49638">
        <ele>339.985114</ele>
        <time>2022-08-06T08:43:33.561Z</time>
      </trkpt>
      <trkpt lat="46.28211" lon="15.49786">
        <ele>331.884262</ele>
        <time>2022-08-06T08:43:58.505Z</time>
      </trkpt>
      <trkpt lat="46.28221" lon="15.49809">
        <ele>331.080145</ele>
        <time>2022-08-06T08:44:02.169Z</time>
      </trkpt>
      <trkpt lat="46.28236" lon="15.4988">
        <ele>328.940414</ele>
        <time>2022-08-06T08:44:12.065Z</time>
      </trkpt>
      <trkpt lat="46.28252" lon="15.49914">
        <ele>327.734498</ele>
        <time>2022-08-06T08:44:17.657Z</time>
      </trkpt>
      <trkpt lat="46.28311" lon="15.49961">
        <ele>324.888412</ele>
        <time>2022-08-06T08:44:30.410Z</time>
      </trkpt>
      <trkpt lat="46.28345" lon="15.50022">
        <ele>322.515242</ele>
        <time>2022-08-06T08:44:40.546Z</time>
      </trkpt>
      <trkpt lat="46.28382" lon="15.50076">
        <ele>320.218869</ele>
        <time>2022-08-06T08:44:50.280Z</time>
      </trkpt>
      <trkpt lat="46.28407" lon="15.50159">
        <ele>317.489678</ele>
        <time>2022-08-06T08:45:01.862Z</time>
      </trkpt>
      <trkpt lat="46.28452" lon="15.50225">
        <ele>314.769417</ele>
        <time>2022-08-06T08:45:13.344Z</time>
      </trkpt>
      <trkpt lat="46.28522" lon="15.50285">
        <ele>311.254662</ele>
        <time>2022-08-06T08:45:28.598Z</time>
      </trkpt>
      <trkpt lat="46.2872" lon="15.50355">
        <ele>304.471206</ele>
        <time>2022-08-06T08:46:07.859Z</time>
      </trkpt>
      <trkpt lat="46.28822" lon="15.50428">
        <ele>302.26854</ele>
        <time>2022-08-06T08:46:33.584Z</time>
      </trkpt>
      <trkpt lat="46.2886" lon="15.50465">
        <ele>301.429789</ele>
        <time>2022-08-06T08:46:43.619Z</time>
      </trkpt>
      <trkpt lat="46.28934" lon="15.50555">
        <ele>299.220557</ele>
        <time>2022-08-06T08:47:03.198Z</time>
      </trkpt>
      <trkpt lat="46.28967" lon="15.50581">
        <ele>298.290203</ele>
        <time>2022-08-06T08:47:10.619Z</time>
      </trkpt>
      <trkpt lat="46.29037" lon="15.50677">
        <ele>296.596843</ele>
        <time>2022-08-06T08:47:29.884Z</time>
      </trkpt>
      <trkpt lat="46.29124" lon="15.50823">
        <ele>297.488937</ele>
        <time>2022-08-06T08:48:09.218Z</time>
      </trkpt>
      <trkpt lat="46.29134" lon="15.50853">
        <ele>297.643746</ele>
        <time>2022-08-06T08:48:22.941Z</time>
      </trkpt>
      <trkpt lat="46.29135" lon="15.50897">
        <ele>297.950909</ele>
        <time>2022-08-06T08:48:35.726Z</time>
      </trkpt>
      <trkpt lat="46.29148" lon="15.50932">
        <ele>298.231015</ele>
        <time>2022-08-06T08:48:46.205Z</time>
      </trkpt>
      <trkpt lat="46.29167" lon="15.50953">
        <ele>298.480388</ele>
        <time>2022-08-06T08:48:54.975Z</time>
      </trkpt>
      <trkpt lat="46.29234" lon="15.50984">
        <ele>299.204308</ele>
        <time>2022-08-06T08:49:15.752Z</time>
      </trkpt>
      <trkpt lat="46.29209" lon="15.51003">
        <ele>299.496675</ele>
        <time>2022-08-06T08:49:22.118Z</time>
      </trkpt>
      <trkpt lat="46.2915" lon="15.51032">
        <ele>297.722252</ele>
        <time>2022-08-06T08:49:36.283Z</time>
      </trkpt>
      <trkpt lat="46.29093" lon="15.51051">
        <ele>296.030802</ele>
        <time>2022-08-06T08:49:47.972Z</time>
      </trkpt>
      <trkpt lat="46.29027" lon="15.51111">
        <ele>294.02069</ele>
        <time>2022-08-06T08:50:03.251Z</time>
      </trkpt>
      <trkpt lat="46.2899" lon="15.51109">
        <ele>293.374767</ele>
        <time>2022-08-06T08:50:11.629Z</time>
      </trkpt>
      <trkpt lat="46.28977" lon="15.51114">
        <ele>293.158707</ele>
        <time>2022-08-06T08:50:14.318Z</time>
      </trkpt>
      <trkpt lat="46.28966" lon="15.51126">
        <ele>292.92337</ele>
        <time>2022-08-06T08:50:17.824Z</time>
      </trkpt>
      <trkpt lat="46.28968" lon="15.51144">
        <ele>292.7078</ele>
        <time>2022-08-06T08:50:20.644Z</time>
      </trkpt>
      <trkpt lat="46.29005" lon="15.51269">
        <ele>291.320294</ele>
        <time>2022-08-06T08:50:43.225Z</time>
      </trkpt>
      <trkpt lat="46.29053" lon="15.51391">
        <ele>291.84847</ele>
        <time>2022-08-06T08:51:12.027Z</time>
      </trkpt>
      <trkpt lat="46.29074" lon="15.51456">
        <ele>292.117882</ele>
        <time>2022-08-06T08:51:28.370Z</time>
      </trkpt>
      <trkpt lat="46.29087" lon="15.51558">
        <ele>292.585645</ele>
        <time>2022-08-06T08:51:53.656Z</time>
      </trkpt>
      <trkpt lat="46.29065" lon="15.51592">
        <ele>292.815064</ele>
        <time>2022-08-06T08:52:05.511Z</time>
      </trkpt>
      <trkpt lat="46.29025" lon="15.51627">
        <ele>293.145386</ele>
        <time>2022-08-06T08:52:21.311Z</time>
      </trkpt>
      <trkpt lat="46.2902" lon="15.51639">
        <ele>293.216497</ele>
        <time>2022-08-06T08:52:24.405Z</time>
      </trkpt>
      <trkpt lat="46.29011" lon="15.51769">
        <ele>292.03368</ele>
        <time>2022-08-06T08:52:46.455Z</time>
      </trkpt>
      <trkpt lat="46.28971" lon="15.51872">
        <ele>289.477683</ele>
        <time>2022-08-06T08:53:03.000Z</time>
      </trkpt>
      <trkpt lat="46.28926" lon="15.51962">
        <ele>287.05287</ele>
        <time>2022-08-06T08:53:17.674Z</time>
      </trkpt>
      <trkpt lat="46.28921" lon="15.51982">
        <ele>286.595464</ele>
        <time>2022-08-06T08:53:20.281Z</time>
      </trkpt>
      <trkpt lat="46.28915" lon="15.52093">
        <ele>284.123385</ele>
        <time>2022-08-06T08:53:35.049Z</time>
      </trkpt>
      <trkpt lat="46.28884" lon="15.52214">
        <ele>282.329242</ele>
        <time>2022-08-06T08:53:57.424Z</time>
      </trkpt>
      <trkpt lat="46.28913" lon="15.52245">
        <ele>282.623496</ele>
        <time>2022-08-06T08:54:09.062Z</time>
      </trkpt>
      <trkpt lat="46.28927" lon="15.52274">
        <ele>282.826486</ele>
        <time>2022-08-06T08:54:17.283Z</time>
      </trkpt>
      <trkpt lat="46.28929" lon="15.52297">
        <ele>282.959789</ele>
        <time>2022-08-06T08:54:23.052Z</time>
      </trkpt>
      <trkpt lat="46.28938" lon="15.52382">
        <ele>283.446464</ele>
        <time>2022-08-06T08:54:44.126Z</time>
      </trkpt>
      <trkpt lat="46.2897" lon="15.52527">
        <ele>281.934164</ele>
        <time>2022-08-06T08:55:13.311Z</time>
      </trkpt>
      <trkpt lat="46.28977" lon="15.52575">
        <ele>281.294031</ele>
        <time>2022-08-06T08:55:20.180Z</time>
      </trkpt>
      <trkpt lat="46.28975" lon="15.52586">
        <ele>281.147983</ele>
        <time>2022-08-06T08:55:21.660Z</time>
      </trkpt>
      <trkpt lat="46.28988" lon="15.52642">
        <ele>280.374996</ele>
        <time>2022-08-06T08:55:29.157Z</time>
      </trkpt>
      <trkpt lat="46.29013" lon="15.52688">
        <ele>279.068677</ele>
        <time>2022-08-06T08:55:36.306Z</time>
      </trkpt>
      <trkpt lat="46.2909" lon="15.52754">
        <ele>275.784721</ele>
        <time>2022-08-06T08:55:52.897Z</time>
      </trkpt>
      <trkpt lat="46.2913" lon="15.52771">
        <ele>274.278564</ele>
        <time>2022-08-06T08:56:01.132Z</time>
      </trkpt>
      <trkpt lat="46.29154" lon="15.52763">
        <ele>273.659415</ele>
        <time>2022-08-06T08:56:06.793Z</time>
      </trkpt>
      <trkpt lat="46.29174" lon="15.52766">
        <ele>273.711315</ele>
        <time>2022-08-06T08:56:11.591Z</time>
      </trkpt>
      <trkpt lat="46.29227" lon="15.52804">
        <ele>273.863608</ele>
        <time>2022-08-06T08:56:27.706Z</time>
      </trkpt>
      <trkpt lat="46.29251" lon="15.52813">
        <ele>273.926677</ele>
        <time>2022-08-06T08:56:35.334Z</time>
      </trkpt>
      <trkpt lat="46.29295" lon="15.52819">
        <ele>274.040372</ele>
        <time>2022-08-06T08:56:50.657Z</time>
      </trkpt>
      <trkpt lat="46.2932" lon="15.52833">
        <ele>274.088282</ele>
        <time>2022-08-06T08:56:59.443Z</time>
      </trkpt>
      <trkpt lat="46.29382" lon="15.52901">
        <ele>273.648706</ele>
        <time>2022-08-06T08:57:22.891Z</time>
      </trkpt>
      <trkpt lat="46.29465" lon="15.53024">
        <ele>272.45925</ele>
        <time>2022-08-06T08:57:49.137Z</time>
      </trkpt>
      <trkpt lat="46.29513" lon="15.53076">
        <ele>270.48986</ele>
        <time>2022-08-06T08:58:00.493Z</time>
      </trkpt>
      <trkpt lat="46.2958" lon="15.53176">
        <ele>267.308754</ele>
        <time>2022-08-06T08:58:18.802Z</time>
      </trkpt>
      <trkpt lat="46.29592" lon="15.53206">
        <ele>266.857383</ele>
        <time>2022-08-06T08:58:23.425Z</time>
      </trkpt>
      <trkpt lat="46.2959" lon="15.53213">
        <ele>266.77867</ele>
        <time>2022-08-06T08:58:24.464Z</time>
      </trkpt>
      <trkpt lat="46.29586" lon="15.53218">
        <ele>266.701242</ele>
        <time>2022-08-06T08:58:25.501Z</time>
      </trkpt>
      <trkpt lat="46.29579" lon="15.53235">
        <ele>266.485919</ele>
        <time>2022-08-06T08:58:28.257Z</time>
      </trkpt>
      <trkpt lat="46.29579" lon="15.5325">
        <ele>266.328037</ele>
        <time>2022-08-06T08:58:30.292Z</time>
      </trkpt>
      <trkpt lat="46.29583" lon="15.53259">
        <ele>266.216705</ele>
        <time>2022-08-06T08:58:31.828Z</time>
      </trkpt>
      <trkpt lat="46.296" lon="15.53272">
        <ele>265.912874</ele>
        <time>2022-08-06T08:58:39.237Z</time>
      </trkpt>
      <trkpt lat="46.29616" lon="15.53267">
        <ele>265.65387</ele>
        <time>2022-08-06T08:58:42.805Z</time>
      </trkpt>
      <trkpt lat="46.29714" lon="15.53499">
        <ele>264.327043</ele>
        <time>2022-08-06T08:59:31.620Z</time>
      </trkpt>
      <trkpt lat="46.29775" lon="15.53682">
        <ele>264.083175</ele>
        <time>2022-08-06T09:00:09.648Z</time>
      </trkpt>
      <trkpt lat="46.2987" lon="15.53935">
        <ele>263.029705</ele>
        <time>2022-08-06T09:00:58.185Z</time>
      </trkpt>
      <trkpt lat="46.29882" lon="15.54005">
        <ele>262.629845</ele>
        <time>2022-08-06T09:01:09.795Z</time>
      </trkpt>
      <trkpt lat="46.29896" lon="15.54043">
        <ele>262.393246</ele>
        <time>2022-08-06T09:01:16.590Z</time>
      </trkpt>
      <trkpt lat="46.29911" lon="15.54071">
        <ele>262.192835</ele>
        <time>2022-08-06T09:01:22.258Z</time>
      </trkpt>
      <trkpt lat="46.2992" lon="15.54092">
        <ele>262.04405</ele>
        <time>2022-08-06T09:01:26.242Z</time>
      </trkpt>
      <trkpt lat="46.29984" lon="15.54221">
        <ele>261.106171</ele>
        <time>2022-08-06T09:01:51.857Z</time>
      </trkpt>
      <trkpt lat="46.30067" lon="15.54314">
        <ele>260.469036</ele>
        <time>2022-08-06T09:02:17.212Z</time>
      </trkpt>
      <trkpt lat="46.30112" lon="15.54385">
        <ele>260.185086</ele>
        <time>2022-08-06T09:02:34.049Z</time>
      </trkpt>
      <trkpt lat="46.30183" lon="15.54509">
        <ele>259.8695</ele>
        <time>2022-08-06T09:03:02.301Z</time>
      </trkpt>
      <trkpt lat="46.30209" lon="15.54572">
        <ele>259.790222</ele>
        <time>2022-08-06T09:03:15.499Z</time>
      </trkpt>
      <trkpt lat="46.30219" lon="15.54634">
        <ele>259.721301</ele>
        <time>2022-08-06T09:03:27.142Z</time>
      </trkpt>
      <trkpt lat="46.30244" lon="15.54872">
        <ele>259.583873</ele>
        <time>2022-08-06T09:04:11.351Z</time>
      </trkpt>
      <trkpt lat="46.30246" lon="15.54891">
        <ele>259.574606</ele>
        <time>2022-08-06T09:04:14.930Z</time>
      </trkpt>
      <trkpt lat="46.30256" lon="15.55012">
        <ele>259.448502</ele>
        <time>2022-08-06T09:04:36.731Z</time>
      </trkpt>
      <trkpt lat="46.3026" lon="15.55079">
        <ele>259.362099</ele>
        <time>2022-08-06T09:04:48.424Z</time>
      </trkpt>
      <trkpt lat="46.30274" lon="15.55117">
        <ele>259.305589</ele>
        <time>2022-08-06T09:04:56.044Z</time>
      </trkpt>
      <trkpt lat="46.30314" lon="15.55197">
        <ele>259.410177</ele>
        <time>2022-08-06T09:05:13.599Z</time>
      </trkpt>
      <trkpt lat="46.30317" lon="15.55221">
        <ele>259.55891</ele>
        <time>2022-08-06T09:05:18.062Z</time>
      </trkpt>
      <trkpt lat="46.30313" lon="15.5529">
        <ele>259.979222</ele>
        <time>2022-08-06T09:05:31.498Z</time>
      </trkpt>
      <trkpt lat="46.30317" lon="15.55323">
        <ele>260.181472</ele>
        <time>2022-08-06T09:05:38.760Z</time>
      </trkpt>
      <trkpt lat="46.30207" lon="15.55374">
        <ele>261.614698</ele>
        <time>2022-08-06T09:06:19.925Z</time>
      </trkpt>
      <trkpt lat="46.30198" lon="15.55384">
        <ele>261.82073</ele>
        <time>2022-08-06T09:06:24.431Z</time>
      </trkpt>
      <trkpt lat="46.30145" lon="15.55422">
        <ele>262.875446</ele>
        <time>2022-08-06T09:06:44.539Z</time>
      </trkpt>
      <trkpt lat="46.30132" lon="15.55451">
        <ele>263.305585</ele>
        <time>2022-08-06T09:06:53.797Z</time>
      </trkpt>
      <trkpt lat="46.30139" lon="15.55461">
        <ele>263.474954</ele>
        <time>2022-08-06T09:06:56.170Z</time>
      </trkpt>
      <trkpt lat="46.30192" lon="15.55495">
        <ele>264.310251</ele>
        <time>2022-08-06T09:07:17.048Z</time>
      </trkpt>
      <trkpt lat="46.30206" lon="15.5553">
        <ele>264.605189</ele>
        <time>2022-08-06T09:07:26.573Z</time>
      </trkpt>
      <trkpt lat="46.30208" lon="15.55556">
        <ele>264.7959</ele>
        <time>2022-08-06T09:07:32.634Z</time>
      </trkpt>
      <trkpt lat="46.30205" lon="15.55628">
        <ele>265.315541</ele>
        <time>2022-08-06T09:07:47.559Z</time>
      </trkpt>
      <trkpt lat="46.30241" lon="15.55829">
        <ele>266.55485</ele>
        <time>2022-08-06T09:08:30.017Z</time>
      </trkpt>
      <trkpt lat="46.30239" lon="15.5585">
        <ele>266.66211</ele>
        <time>2022-08-06T09:08:34.328Z</time>
      </trkpt>
      <trkpt lat="46.30221" lon="15.55896">
        <ele>266.933096</ele>
        <time>2022-08-06T09:08:44.633Z</time>
      </trkpt>
      <trkpt lat="46.30214" lon="15.55948">
        <ele>267.206602</ele>
        <time>2022-08-06T09:08:55.389Z</time>
      </trkpt>
      <trkpt lat="46.30217" lon="15.55964">
        <ele>267.438888</ele>
        <time>2022-08-06T09:08:58.605Z</time>
      </trkpt>
      <trkpt lat="46.30248" lon="15.55996">
        <ele>268.81843</ele>
        <time>2022-08-06T09:09:12.005Z</time>
      </trkpt>
      <trkpt lat="46.3026" lon="15.56009">
        <ele>269.367588</ele>
        <time>2022-08-06T09:09:18.583Z</time>
      </trkpt>
      <trkpt lat="46.30264" lon="15.56021">
        <ele>269.720485</ele>
        <time>2022-08-06T09:09:22.260Z</time>
      </trkpt>
      <trkpt lat="46.30269" lon="15.56101">
        <ele>271.73506</ele>
        <time>2022-08-06T09:09:47.070Z</time>
      </trkpt>
      <trkpt lat="46.30255" lon="15.56199">
        <ele>274.343065</ele>
        <time>2022-08-06T09:10:24.847Z</time>
      </trkpt>
      <trkpt lat="46.30227" lon="15.56375">
        <ele>279.649648</ele>
        <time>2022-08-06T09:11:34.880Z</time>
      </trkpt>
      <trkpt lat="46.30225" lon="15.56518">
        <ele>280.043382</ele>
        <time>2022-08-06T09:12:00.284Z</time>
      </trkpt>
      <trkpt lat="46.30227" lon="15.5655">
        <ele>279.489942</ele>
        <time>2022-08-06T09:12:04.283Z</time>
      </trkpt>
      <trkpt lat="46.30244" lon="15.56633">
        <ele>277.993446</ele>
        <time>2022-08-06T09:12:15.300Z</time>
      </trkpt>
      <trkpt lat="46.30232" lon="15.56802">
        <ele>277.36775</ele>
        <time>2022-08-06T09:12:38.931Z</time>
      </trkpt>
      <trkpt lat="46.30238" lon="15.56857">
        <ele>277.568548</ele>
        <time>2022-08-06T09:12:51.883Z</time>
      </trkpt>
      <trkpt lat="46.30198" lon="15.57067">
        <ele>279.047912</ele>
        <time>2022-08-06T09:13:59.403Z</time>
      </trkpt>
      <trkpt lat="46.30201" lon="15.57138">
        <ele>279.709446</ele>
        <time>2022-08-06T09:14:15.110Z</time>
      </trkpt>
      <trkpt lat="46.3021" lon="15.57173">
        <ele>280.05374</ele>
        <time>2022-08-06T09:14:20.884Z</time>
      </trkpt>
      <trkpt lat="46.30211" lon="15.57253">
        <ele>279.109356</ele>
        <time>2022-08-06T09:14:32.034Z</time>
      </trkpt>
      <trkpt lat="46.3022" lon="15.57344">
        <ele>276.958748</ele>
        <time>2022-08-06T09:14:43.917Z</time>
      </trkpt>
      <trkpt lat="46.30236" lon="15.57392">
        <ele>275.716897</ele>
        <time>2022-08-06T09:14:50.787Z</time>
      </trkpt>
      <trkpt lat="46.30264" lon="15.57504">
        <ele>273.403221</ele>
        <time>2022-08-06T09:15:06.635Z</time>
      </trkpt>
      <trkpt lat="46.30268" lon="15.5754">
        <ele>272.865075</ele>
        <time>2022-08-06T09:15:11.692Z</time>
      </trkpt>
      <trkpt lat="46.30279" lon="15.57585">
        <ele>272.174525</ele>
        <time>2022-08-06T09:15:18.210Z</time>
      </trkpt>
      <trkpt lat="46.30312" lon="15.57648">
        <ele>271.008484</ele>
        <time>2022-08-06T09:15:30.754Z</time>
      </trkpt>
      <trkpt lat="46.30334" lon="15.57704">
        <ele>270.228567</ele>
        <time>2022-08-06T09:15:41.694Z</time>
      </trkpt>
      <trkpt lat="46.30378" lon="15.57867">
        <ele>268.82625</ele>
        <time>2022-08-06T09:16:10.897Z</time>
      </trkpt>
      <trkpt lat="46.30395" lon="15.57972">
        <ele>267.29277</ele>
        <time>2022-08-06T09:16:26.288Z</time>
      </trkpt>
      <trkpt lat="46.30395" lon="15.58027">
        <ele>266.021208</ele>
        <time>2022-08-06T09:16:33.805Z</time>
      </trkpt>
      <trkpt lat="46.30447" lon="15.57983">
        <ele>264.036267</ele>
        <time>2022-08-06T09:16:45.254Z</time>
      </trkpt>
      <trkpt lat="46.30474" lon="15.57952">
        <ele>262.893609</ele>
        <time>2022-08-06T09:16:51.749Z</time>
      </trkpt>
      <trkpt lat="46.30505" lon="15.57916">
        <ele>261.647577</ele>
        <time>2022-08-06T09:16:59.260Z</time>
      </trkpt>
      <trkpt lat="46.30526" lon="15.57889">
        <ele>260.804939</ele>
        <time>2022-08-06T09:17:04.533Z</time>
      </trkpt>
      <trkpt lat="46.30651" lon="15.57731">
        <ele>256.882501</ele>
        <time>2022-08-06T09:17:38.074Z</time>
      </trkpt>
      <trkpt lat="46.30678" lon="15.57697">
        <ele>256.757821</ele>
        <time>2022-08-06T09:17:46.802Z</time>
      </trkpt>
      <trkpt lat="46.30716" lon="15.57654">
        <ele>256.586479</ele>
        <time>2022-08-06T09:18:00.054Z</time>
      </trkpt>
      <trkpt lat="46.30751" lon="15.57632">
        <ele>256.455815</ele>
        <time>2022-08-06T09:18:11.499Z</time>
      </trkpt>
      <trkpt lat="46.30772" lon="15.57625">
        <ele>256.408749</ele>
        <time>2022-08-06T09:18:18.583Z</time>
      </trkpt>
      <trkpt lat="46.30844" lon="15.57628">
        <ele>257.175618</ele>
        <time>2022-08-06T09:18:42.003Z</time>
      </trkpt>
      <trkpt lat="46.30891" lon="15.57688">
        <ele>257.846241</ele>
        <time>2022-08-06T09:19:02.241Z</time>
      </trkpt>
      <trkpt lat="46.30943" lon="15.5775">
        <ele>258.513861</ele>
        <time>2022-08-06T09:19:23.417Z</time>
      </trkpt>
      <trkpt lat="46.30958" lon="15.57763">
        <ele>258.666255</ele>
        <time>2022-08-06T09:19:28.752Z</time>
      </trkpt>
      <trkpt lat="46.31022" lon="15.57809">
        <ele>259.29263</ele>
        <time>2022-08-06T09:19:50.524Z</time>
      </trkpt>
      <trkpt lat="46.31231" lon="15.57841">
        <ele>261.249928</ele>
        <time>2022-08-06T09:20:55.100Z</time>
      </trkpt>
      <trkpt lat="46.31273" lon="15.57849">
        <ele>261.735748</ele>
        <time>2022-08-06T09:21:08.430Z</time>
      </trkpt>
      <trkpt lat="46.31284" lon="15.5785">
        <ele>261.976782</ele>
        <time>2022-08-06T09:21:12.028Z</time>
      </trkpt>
      <trkpt lat="46.31359" lon="15.57862">
        <ele>263.633327</ele>
        <time>2022-08-06T09:21:39.315Z</time>
      </trkpt>
      <trkpt lat="46.31379" lon="15.57863">
        <ele>264.073589</ele>
        <time>2022-08-06T09:21:46.660Z</time>
      </trkpt>
      <trkpt lat="46.31417" lon="15.57849">
        <ele>264.930073</ele>
        <time>2022-08-06T09:22:01.597Z</time>
      </trkpt>
      <trkpt lat="46.31424" lon="15.57886">
        <ele>265.524859</ele>
        <time>2022-08-06T09:22:12.215Z</time>
      </trkpt>
      <trkpt lat="46.31432" lon="15.57903">
        <ele>266.347041</ele>
        <time>2022-08-06T09:22:17.773Z</time>
      </trkpt>
      <trkpt lat="46.31438" lon="15.57912">
        <ele>266.91439</ele>
        <time>2022-08-06T09:22:21.623Z</time>
      </trkpt>
      <trkpt lat="46.31456" lon="15.5792">
        <ele>268.095497</ele>
        <time>2022-08-06T09:22:30.085Z</time>
      </trkpt>
      <trkpt lat="46.31488" lon="15.57889">
        <ele>270.490314</ele>
        <time>2022-08-06T09:22:50.021Z</time>
      </trkpt>
      <trkpt lat="46.31569" lon="15.57831">
        <ele>276.222559</ele>
        <time>2022-08-06T09:23:47.979Z</time>
      </trkpt>
      <trkpt lat="46.31616" lon="15.57815">
        <ele>280.684523</ele>
        <time>2022-08-06T09:24:21.532Z</time>
      </trkpt>
      <trkpt lat="46.31642" lon="15.57853">
        <ele>284.462891</ele>
        <time>2022-08-06T09:24:48.939Z</time>
      </trkpt>
      <trkpt lat="46.31665" lon="15.57892">
        <ele>288.170359</ele>
        <time>2022-08-06T09:25:16.537Z</time>
      </trkpt>
      <trkpt lat="46.31684" lon="15.57928">
        <ele>291.320262</ele>
        <time>2022-08-06T09:25:41.045Z</time>
      </trkpt>
      <trkpt lat="46.31695" lon="15.5795">
        <ele>293.25114</ele>
        <time>2022-08-06T09:25:56.899Z</time>
      </trkpt>
      <trkpt lat="46.31699" lon="15.57958">
        <ele>293.95491</ele>
        <time>2022-08-06T09:26:02.781Z</time>
      </trkpt>
      <trkpt lat="46.31705" lon="15.57972">
        <ele>295.106381</ele>
        <time>2022-08-06T09:26:12.773Z</time>
      </trkpt>
      <trkpt lat="46.31726" lon="15.58015">
        <ele>298.58937</ele>
        <time>2022-08-06T09:26:43.128Z</time>
      </trkpt>
      <trkpt lat="46.31753" lon="15.58089">
        <ele>304.028344</ele>
        <time>2022-08-06T09:27:26.609Z</time>
      </trkpt>
      <trkpt lat="46.31799" lon="15.5817">
        <ele>310.849255</ele>
        <time>2022-08-06T09:28:16.795Z</time>
      </trkpt>
      <trkpt lat="46.31833" lon="15.58194">
        <ele>313.096465</ele>
        <time>2022-08-06T09:28:39.139Z</time>
      </trkpt>
      <trkpt lat="46.31879" lon="15.5827">
        <ele>315.66809</ele>
        <time>2022-08-06T09:29:13.731Z</time>
      </trkpt>
      <trkpt lat="46.31903" lon="15.58327">
        <ele>317.367702</ele>
        <time>2022-08-06T09:29:31.406Z</time>
      </trkpt>
      <trkpt lat="46.31913" lon="15.58389">
        <ele>318.913543</ele>
        <time>2022-08-06T09:29:45.036Z</time>
      </trkpt>
      <trkpt lat="46.3194" lon="15.58428">
        <ele>318.889582</ele>
        <time>2022-08-06T09:29:55.602Z</time>
      </trkpt>
      <trkpt lat="46.31961" lon="15.58433">
        <ele>318.876018</ele>
        <time>2022-08-06T09:30:01.326Z</time>
      </trkpt>
      <trkpt lat="46.3201" lon="15.58426">
        <ele>318.844505</ele>
        <time>2022-08-06T09:30:13.517Z</time>
      </trkpt>
      <trkpt lat="46.32094" lon="15.58395">
        <ele>318.974972</ele>
        <time>2022-08-06T09:30:34.086Z</time>
      </trkpt>
      <trkpt lat="46.32178" lon="15.58439">
        <ele>319.819282</ele>
        <time>2022-08-06T09:31:04.576Z</time>
      </trkpt>
      <trkpt lat="46.32197" lon="15.58457">
        <ele>320.034895</ele>
        <time>2022-08-06T09:31:12.228Z</time>
      </trkpt>
      <trkpt lat="46.32214" lon="15.58486">
        <ele>320.2855</ele>
        <time>2022-08-06T09:31:19.812Z</time>
      </trkpt>
      <trkpt lat="46.32235" lon="15.58515">
        <ele>320.544283</ele>
        <time>2022-08-06T09:31:29.446Z</time>
      </trkpt>
      <trkpt lat="46.32244" lon="15.58519">
        <ele>320.612696</ele>
        <time>2022-08-06T09:31:32.187Z</time>
      </trkpt>
      <trkpt lat="46.32285" lon="15.58516">
        <ele>320.895608</ele>
        <time>2022-08-06T09:31:45.299Z</time>
      </trkpt>
      <trkpt lat="46.32329" lon="15.58495">
        <ele>321.215076</ele>
        <time>2022-08-06T09:31:59.418Z</time>
      </trkpt>
      <trkpt lat="46.32337" lon="15.58496">
        <ele>321.275123</ele>
        <time>2022-08-06T09:32:01.862Z</time>
      </trkpt>
      <trkpt lat="46.3237" lon="15.58535">
        <ele>321.565608</ele>
        <time>2022-08-06T09:32:15.713Z</time>
      </trkpt>
      <trkpt lat="46.32389" lon="15.58548">
        <ele>321.716536</ele>
        <time>2022-08-06T09:32:21.277Z</time>
      </trkpt>
      <trkpt lat="46.32444" lon="15.58547">
        <ele>321.664928</ele>
        <time>2022-08-06T09:32:34.550Z</time>
      </trkpt>
      <trkpt lat="46.32457" lon="15.58553">
        <ele>321.638893</ele>
        <time>2022-08-06T09:32:37.939Z</time>
      </trkpt>
      <trkpt lat="46.3249" lon="15.58586">
        <ele>321.564866</ele>
        <time>2022-08-06T09:32:47.980Z</time>
      </trkpt>
      <trkpt lat="46.32539" lon="15.58653">
        <ele>321.439448</ele>
        <time>2022-08-06T09:33:05.764Z</time>
      </trkpt>
      <trkpt lat="46.32552" lon="15.58657">
        <ele>321.408682</ele>
        <time>2022-08-06T09:33:09.573Z</time>
      </trkpt>
      <trkpt lat="46.32621" lon="15.5865">
        <ele>321.155771</ele>
        <time>2022-08-06T09:33:27.388Z</time>
      </trkpt>
      <trkpt lat="46.32712" lon="15.58628">
        <ele>320.814048</ele>
        <time>2022-08-06T09:33:50.522Z</time>
      </trkpt>
      <trkpt lat="46.32764" lon="15.58594">
        <ele>320.418626</ele>
        <time>2022-08-06T09:34:03.983Z</time>
      </trkpt>
      <trkpt lat="46.32807" lon="15.58537">
        <ele>319.955069</ele>
        <time>2022-08-06T09:34:17.407Z</time>
      </trkpt>
      <trkpt lat="46.32867" lon="15.58512">
        <ele>319.449052</ele>
        <time>2022-08-06T09:34:31.763Z</time>
      </trkpt>
      <trkpt lat="46.32923" lon="15.58506">
        <ele>319.363174</ele>
        <time>2022-08-06T09:34:46.357Z</time>
      </trkpt>
      <trkpt lat="46.33023" lon="15.58535">
        <ele>319.483354</ele>
        <time>2022-08-06T09:35:15.753Z</time>
      </trkpt>
      <trkpt lat="46.33048" lon="15.58524">
        <ele>319.514566</ele>
        <time>2022-08-06T09:35:23.392Z</time>
      </trkpt>
      <trkpt lat="46.33102" lon="15.58498">
        <ele>319.088332</ele>
        <time>2022-08-06T09:35:38.553Z</time>
      </trkpt>
      <trkpt lat="46.33199" lon="15.58479">
        <ele>318.122986</ele>
        <time>2022-08-06T09:36:00.747Z</time>
      </trkpt>
      <trkpt lat="46.33272" lon="15.58426">
        <ele>317.803906</ele>
        <time>2022-08-06T09:36:18.011Z</time>
      </trkpt>
      <trkpt lat="46.33361" lon="15.58434">
        <ele>317.92103</ele>
        <time>2022-08-06T09:36:40.011Z</time>
      </trkpt>
      <trkpt lat="46.33429" lon="15.58475">
        <ele>319.288103</ele>
        <time>2022-08-06T09:37:08.353Z</time>
      </trkpt>
      <trkpt lat="46.33519" lon="15.58479">
        <ele>323.611814</ele>
        <time>2022-08-06T09:37:54.518Z</time>
      </trkpt>
      <trkpt lat="46.33538" lon="15.58485">
        <ele>324.55106</ele>
        <time>2022-08-06T09:38:07.297Z</time>
      </trkpt>
      <trkpt lat="46.33558" lon="15.58499">
        <ele>325.60718</ele>
        <time>2022-08-06T09:38:21.748Z</time>
      </trkpt>
      <trkpt lat="46.3363" lon="15.58593">
        <ele>329.090939</ele>
        <time>2022-08-06T09:39:06.876Z</time>
      </trkpt>
      <trkpt lat="46.33635" lon="15.58606">
        <ele>329.435789</ele>
        <time>2022-08-06T09:39:14.100Z</time>
      </trkpt>
      <trkpt lat="46.33636" lon="15.58762">
        <ele>332.414971</ele>
        <time>2022-08-06T09:39:52.396Z</time>
      </trkpt>
      <trkpt lat="46.33645" lon="15.58806">
        <ele>332.263908</ele>
        <time>2022-08-06T09:40:00.757Z</time>
      </trkpt>
      <trkpt lat="46.33693" lon="15.58848">
        <ele>331.991038</ele>
        <time>2022-08-06T09:40:13.744Z</time>
      </trkpt>
      <trkpt lat="46.33695" lon="15.5885">
        <ele>331.976914</ele>
        <time>2022-08-06T09:40:14.993Z</time>
      </trkpt>
      <trkpt lat="46.33734" lon="15.58901">
        <ele>331.727553</ele>
        <time>2022-08-06T09:40:26.474Z</time>
      </trkpt>
      <trkpt lat="46.3382" lon="15.58971">
        <ele>329.63688</ele>
        <time>2022-08-06T09:40:49.095Z</time>
      </trkpt>
      <trkpt lat="46.33885" lon="15.58983">
        <ele>327.945018</ele>
        <time>2022-08-06T09:41:01.914Z</time>
      </trkpt>
      <trkpt lat="46.33961" lon="15.59011">
        <ele>324.920345</ele>
        <time>2022-08-06T09:41:16.536Z</time>
      </trkpt>
      <trkpt lat="46.34082" lon="15.5909">
        <ele>318.125609</ele>
        <time>2022-08-06T09:41:40.279Z</time>
      </trkpt>
      <trkpt lat="46.34177" lon="15.59141">
        <ele>312.783215</ele>
        <time>2022-08-06T09:41:58.424Z</time>
      </trkpt>
      <trkpt lat="46.34288" lon="15.59226">
        <ele>306.46312</ele>
        <time>2022-08-06T09:42:21.039Z</time>
      </trkpt>
      <trkpt lat="46.34299" lon="15.59218">
        <ele>305.893832</ele>
        <time>2022-08-06T09:42:23.171Z</time>
      </trkpt>
      <trkpt lat="46.34305" lon="15.592">
        <ele>305.287058</ele>
        <time>2022-08-06T09:42:25.994Z</time>
      </trkpt>
      <trkpt lat="46.34301" lon="15.59169">
        <ele>304.313569</ele>
        <time>2022-08-06T09:42:29.918Z</time>
      </trkpt>
      <trkpt lat="46.34268" lon="15.59114">
        <ele>302.030632</ele>
        <time>2022-08-06T09:42:39.700Z</time>
      </trkpt>
      <trkpt lat="46.34267" lon="15.59093">
        <ele>301.383503</ele>
        <time>2022-08-06T09:42:42.351Z</time>
      </trkpt>
      <trkpt lat="46.34281" lon="15.59074">
        <ele>300.54798</ele>
        <time>2022-08-06T09:42:45.758Z</time>
      </trkpt>
      <trkpt lat="46.34296" lon="15.59077">
        <ele>299.83531</ele>
        <time>2022-08-06T09:42:48.680Z</time>
      </trkpt>
      <trkpt lat="46.3432" lon="15.59117">
        <ele>298.182788</ele>
        <time>2022-08-06T09:42:55.380Z</time>
      </trkpt>
      <trkpt lat="46.3433" lon="15.59123">
        <ele>297.659323</ele>
        <time>2022-08-06T09:42:57.711Z</time>
      </trkpt>
      <trkpt lat="46.34344" lon="15.59124">
        <ele>297.010367</ele>
        <time>2022-08-06T09:43:00.622Z</time>
      </trkpt>
      <trkpt lat="46.34376" lon="15.59112">
        <ele>295.510797</ele>
        <time>2022-08-06T09:43:06.789Z</time>
      </trkpt>
      <trkpt lat="46.34441" lon="15.5914">
        <ele>292.40801</ele>
        <time>2022-08-06T09:43:18.792Z</time>
      </trkpt>
      <trkpt lat="46.34492" lon="15.59136">
        <ele>289.497731</ele>
        <time>2022-08-06T09:43:27.869Z</time>
      </trkpt>
      <trkpt lat="46.34527" lon="15.59157">
        <ele>287.183515</ele>
        <time>2022-08-06T09:43:34.682Z</time>
      </trkpt>
      <trkpt lat="46.34581" lon="15.59174">
        <ele>283.908635</ele>
        <time>2022-08-06T09:43:44.266Z</time>
      </trkpt>
      <trkpt lat="46.34656" lon="15.59233">
        <ele>279.268582</ele>
        <time>2022-08-06T09:43:59.133Z</time>
      </trkpt>
      <trkpt lat="46.34787" lon="15.59318">
        <ele>272.366002</ele>
        <time>2022-08-06T09:44:25.680Z</time>
      </trkpt>
      <trkpt lat="46.34873" lon="15.59351">
        <ele>269.522159</ele>
        <time>2022-08-06T09:44:42.521Z</time>
      </trkpt>
      <trkpt lat="46.34948" lon="15.59389">
        <ele>266.975756</ele>
        <time>2022-08-06T09:44:58.656Z</time>
      </trkpt>
      <trkpt lat="46.34969" lon="15.59391">
        <ele>266.524668</ele>
        <time>2022-08-06T09:45:03.045Z</time>
      </trkpt>
      <trkpt lat="46.35024" lon="15.59369">
        <ele>265.712572</ele>
        <time>2022-08-06T09:45:15.417Z</time>
      </trkpt>
      <trkpt lat="46.35038" lon="15.59362">
        <ele>265.503921</ele>
        <time>2022-08-06T09:45:18.684Z</time>
      </trkpt>
      <trkpt lat="46.35108" lon="15.59338">
        <ele>264.480344</ele>
        <time>2022-08-06T09:45:35.182Z</time>
      </trkpt>
      <trkpt lat="46.35237" lon="15.59381">
        <ele>262.888554</ele>
        <time>2022-08-06T09:46:05.874Z</time>
      </trkpt>
      <trkpt lat="46.35257" lon="15.59383">
        <ele>262.654495</ele>
        <time>2022-08-06T09:46:10.480Z</time>
      </trkpt>
      <trkpt lat="46.35358" lon="15.5937">
        <ele>261.254583</ele>
        <time>2022-08-06T09:46:33.106Z</time>
      </trkpt>
      <trkpt lat="46.35403" lon="15.59379">
        <ele>260.514424</ele>
        <time>2022-08-06T09:46:42.884Z</time>
      </trkpt>
      <trkpt lat="46.35427" lon="15.59398">
        <ele>260.063593</ele>
        <time>2022-08-06T09:46:48.865Z</time>
      </trkpt>
      <trkpt lat="46.35579" lon="15.59638">
        <ele>256.573517</ele>
        <time>2022-08-06T09:47:36.756Z</time>
      </trkpt>
      <trkpt lat="46.35903" lon="15.59416">
        <ele>257.015654</ele>
        <time>2022-08-06T09:49:17.020Z</time>
      </trkpt>
      <trkpt lat="46.36199" lon="15.59215">
        <ele>258.490166</ele>
        <time>2022-08-06T09:50:54.871Z</time>
      </trkpt>
      <trkpt lat="46.36262" lon="15.59197">
        <ele>258.348192</ele>
        <time>2022-08-06T09:51:10.029Z</time>
      </trkpt>
      <trkpt lat="46.36269" lon="15.59196">
        <ele>258.247408</ele>
        <time>2022-08-06T09:51:11.734Z</time>
      </trkpt>
      <trkpt lat="46.36273" lon="15.59196">
        <ele>258.193912</ele>
        <time>2022-08-06T09:51:12.628Z</time>
      </trkpt>
      <trkpt lat="46.36288" lon="15.59195">
        <ele>257.994226</ele>
        <time>2022-08-06T09:51:15.939Z</time>
      </trkpt>
      <trkpt lat="46.36298" lon="15.59206">
        <ele>257.825952</ele>
        <time>2022-08-06T09:51:18.704Z</time>
      </trkpt>
      <trkpt lat="46.36306" lon="15.59247">
        <ele>257.426799</ele>
        <time>2022-08-06T09:51:25.135Z</time>
      </trkpt>
      <trkpt lat="46.36331" lon="15.59597">
        <ele>254.145461</ele>
        <time>2022-08-06T09:52:17.962Z</time>
      </trkpt>
      <trkpt lat="46.36345" lon="15.59771">
        <ele>253.54142</ele>
        <time>2022-08-06T09:52:48.645Z</time>
      </trkpt>
      <trkpt lat="46.3636" lon="15.598">
        <ele>253.492112</ele>
        <time>2022-08-06T09:52:55.197Z</time>
      </trkpt>
      <trkpt lat="46.36381" lon="15.59821">
        <ele>253.441052</ele>
        <time>2022-08-06T09:53:02.264Z</time>
      </trkpt>
      <trkpt lat="46.36411" lon="15.59835">
        <ele>253.377147</ele>
        <time>2022-08-06T09:53:10.924Z</time>
      </trkpt>
      <trkpt lat="46.36451" lon="15.59836">
        <ele>253.318332</ele>
        <time>2022-08-06T09:53:21.549Z</time>
      </trkpt>
      <trkpt lat="46.36713" lon="15.59819">
        <ele>253.046525</ele>
        <time>2022-08-06T09:54:29.131Z</time>
      </trkpt>
      <trkpt lat="46.36763" lon="15.59808">
        <ele>253.015215</ele>
        <time>2022-08-06T09:54:42.728Z</time>
      </trkpt>
      <trkpt lat="46.3685" lon="15.5977">
        <ele>253.361846</ele>
        <time>2022-08-06T09:55:08.573Z</time>
      </trkpt>
      <trkpt lat="46.3717" lon="15.59554">
        <ele>255.024325</ele>
        <time>2022-08-06T09:56:52.998Z</time>
      </trkpt>
      <trkpt lat="46.37316" lon="15.59437">
        <ele>255.292294</ele>
        <time>2022-08-06T09:57:35.641Z</time>
      </trkpt>
      <trkpt lat="46.3732" lon="15.59433">
        <ele>255.306336</ele>
        <time>2022-08-06T09:57:36.876Z</time>
      </trkpt>
      <trkpt lat="46.37335" lon="15.59421">
        <ele>255.356526</ele>
        <time>2022-08-06T09:57:41.294Z</time>
      </trkpt>
      <trkpt lat="46.37345" lon="15.59413">
        <ele>255.389464</ele>
        <time>2022-08-06T09:57:44.168Z</time>
      </trkpt>
      <trkpt lat="46.38263" lon="15.58672">
        <ele>258.397393</ele>
        <time>2022-08-06T10:02:42.440Z</time>
      </trkpt>
      <trkpt lat="46.38265" lon="15.58697">
        <ele>258.406659</ele>
        <time>2022-08-06T10:02:46.931Z</time>
      </trkpt>
      <trkpt lat="46.3825" lon="15.58773">
        <ele>258.435157</ele>
        <time>2022-08-06T10:03:01.109Z</time>
      </trkpt>
      <trkpt lat="46.3825" lon="15.58801">
        <ele>258.445554</ele>
        <time>2022-08-06T10:03:06.365Z</time>
      </trkpt>
      <trkpt lat="46.3829" lon="15.58848">
        <ele>258.534177</ele>
        <time>2022-08-06T10:03:19.901Z</time>
      </trkpt>
      <trkpt lat="46.38319" lon="15.58883">
        <ele>258.65113</ele>
        <time>2022-08-06T10:03:29.887Z</time>
      </trkpt>
      <trkpt lat="46.38332" lon="15.58902">
        <ele>258.707807</ele>
        <time>2022-08-06T10:03:34.920Z</time>
      </trkpt>
      <trkpt lat="46.38366" lon="15.58956">
        <ele>258.866558</ele>
        <time>2022-08-06T10:03:48.871Z</time>
      </trkpt>
      <trkpt lat="46.38462" lon="15.59133">
        <ele>260.873501</ele>
        <time>2022-08-06T10:04:37.060Z</time>
      </trkpt>
      <trkpt lat="46.38505" lon="15.59311">
        <ele>265.255356</ele>
        <time>2022-08-06T10:05:29.426Z</time>
      </trkpt>
      <trkpt lat="46.38544" lon="15.59433">
        <ele>270.343757</ele>
        <time>2022-08-06T10:06:21.841Z</time>
      </trkpt>
      <trkpt lat="46.38555" lon="15.59487">
        <ele>272.698862</ele>
        <time>2022-08-06T10:06:46.973Z</time>
      </trkpt>
      <trkpt lat="46.38557" lon="15.59527">
        <ele>274.911655</ele>
        <time>2022-08-06T10:07:05.690Z</time>
      </trkpt>
      <trkpt lat="46.38544" lon="15.59592">
        <ele>278.613729</ele>
        <time>2022-08-06T10:07:36.071Z</time>
      </trkpt>
      <trkpt lat="46.3854" lon="15.59671">
        <ele>283.033964</ele>
        <time>2022-08-06T10:08:13.093Z</time>
      </trkpt>
      <trkpt lat="46.38548" lon="15.59747">
        <ele>287.015188</ele>
        <time>2022-08-06T10:08:48.298Z</time>
      </trkpt>
      <trkpt lat="46.38554" lon="15.59755">
        <ele>287.463935</ele>
        <time>2022-08-06T10:08:53.312Z</time>
      </trkpt>
      <trkpt lat="46.3856" lon="15.59752">
        <ele>287.824996</ele>
        <time>2022-08-06T10:08:57.413Z</time>
      </trkpt>
      <trkpt lat="46.38582" lon="15.59726">
        <ele>289.401907</ele>
        <time>2022-08-06T10:09:14.188Z</time>
      </trkpt>
      <trkpt lat="46.38696" lon="15.59695">
        <ele>295.900719</ele>
        <time>2022-08-06T10:10:13.376Z</time>
      </trkpt>
      <trkpt lat="46.388" lon="15.5966">
        <ele>298.697263</ele>
        <time>2022-08-06T10:10:58.255Z</time>
      </trkpt>
      <trkpt lat="46.38813" lon="15.59665">
        <ele>298.986026</ele>
        <time>2022-08-06T10:11:02.707Z</time>
      </trkpt>
      <trkpt lat="46.38844" lon="15.59708">
        <ele>299.963795</ele>
        <time>2022-08-06T10:11:16.551Z</time>
      </trkpt>
      <trkpt lat="46.38926" lon="15.5974">
        <ele>300.643307</ele>
        <time>2022-08-06T10:11:40.973Z</time>
      </trkpt>
      <trkpt lat="46.38937" lon="15.59772">
        <ele>300.664143</ele>
        <time>2022-08-06T10:11:47.585Z</time>
      </trkpt>
      <trkpt lat="46.38912" lon="15.59823">
        <ele>300.700834</ele>
        <time>2022-08-06T10:11:58.721Z</time>
      </trkpt>
      <trkpt lat="46.38905" lon="15.59847">
        <ele>300.716433</ele>
        <time>2022-08-06T10:12:03.856Z</time>
      </trkpt>
      <trkpt lat="46.38906" lon="15.59866">
        <ele>300.727456</ele>
        <time>2022-08-06T10:12:07.156Z</time>
      </trkpt>
      <trkpt lat="46.38919" lon="15.59898">
        <ele>300.755932</ele>
        <time>2022-08-06T10:12:13.695Z</time>
      </trkpt>
      <trkpt lat="46.38931" lon="15.59968">
        <ele>300.977622</ele>
        <time>2022-08-06T10:12:26.169Z</time>
      </trkpt>
      <trkpt lat="46.38933" lon="15.60021">
        <ele>301.136743</ele>
        <time>2022-08-06T10:12:35.787Z</time>
      </trkpt>
      <trkpt lat="46.38929" lon="15.60053">
        <ele>301.237461</ele>
        <time>2022-08-06T10:12:42.811Z</time>
      </trkpt>
      <trkpt lat="46.3892" lon="15.60112">
        <ele>301.421768</ele>
        <time>2022-08-06T10:12:55.132Z</time>
      </trkpt>
      <trkpt lat="46.38918" lon="15.60119">
        <ele>301.443917</ele>
        <time>2022-08-06T10:12:56.545Z</time>
      </trkpt>
      <trkpt lat="46.38902" lon="15.60198">
        <ele>302.13558</ele>
        <time>2022-08-06T10:13:15.558Z</time>
      </trkpt>
      <trkpt lat="46.38844" lon="15.60244">
        <ele>303.255224</ele>
        <time>2022-08-06T10:13:41.660Z</time>
      </trkpt>
      <trkpt lat="46.38828" lon="15.60263">
        <ele>303.604472</ele>
        <time>2022-08-06T10:13:48.687Z</time>
      </trkpt>
      <trkpt lat="46.38804" lon="15.60298">
        <ele>304.174204</ele>
        <time>2022-08-06T10:14:00.757Z</time>
      </trkpt>
      <trkpt lat="46.38775" lon="15.60357">
        <ele>304.227736</ele>
        <time>2022-08-06T10:14:18.566Z</time>
      </trkpt>
      <trkpt lat="46.38824" lon="15.60589">
        <ele>301.216577</ele>
        <time>2022-08-06T10:14:54.785Z</time>
      </trkpt>
      <trkpt lat="46.38846" lon="15.60615">
        <ele>299.54585</ele>
        <time>2022-08-06T10:14:59.598Z</time>
      </trkpt>
      <trkpt lat="46.38884" lon="15.60741">
        <ele>293.809011</ele>
        <time>2022-08-06T10:15:15.967Z</time>
      </trkpt>
      <trkpt lat="46.38892" lon="15.608">
        <ele>291.338254</ele>
        <time>2022-08-06T10:15:23.007Z</time>
      </trkpt>
      <trkpt lat="46.38885" lon="15.60915">
        <ele>287.165179</ele>
        <time>2022-08-06T10:15:36.870Z</time>
      </trkpt>
      <trkpt lat="46.38891" lon="15.61005">
        <ele>283.908331</ele>
        <time>2022-08-06T10:15:48.238Z</time>
      </trkpt>
      <trkpt lat="46.38891" lon="15.6111">
        <ele>280.922032</ele>
        <time>2022-08-06T10:16:02.336Z</time>
      </trkpt>
      <trkpt lat="46.38886" lon="15.61149">
        <ele>280.171334</ele>
        <time>2022-08-06T10:16:07.654Z</time>
      </trkpt>
      <trkpt lat="46.38858" lon="15.61247">
        <ele>278.140818</ele>
        <time>2022-08-06T10:16:22.355Z</time>
      </trkpt>
      <trkpt lat="46.38851" lon="15.61304">
        <ele>277.012854</ele>
        <time>2022-08-06T10:16:30.618Z</time>
      </trkpt>
      <trkpt lat="46.38846" lon="15.61433">
        <ele>275.556488</ele>
        <time>2022-08-06T10:16:49.691Z</time>
      </trkpt>
      <trkpt lat="46.38846" lon="15.6145">
        <ele>275.377961</ele>
        <time>2022-08-06T10:16:52.322Z</time>
      </trkpt>
      <trkpt lat="46.38843" lon="15.61472">
        <ele>275.133598</ele>
        <time>2022-08-06T10:16:56.079Z</time>
      </trkpt>
      <trkpt lat="46.38819" lon="15.61527">
        <ele>274.444846</ele>
        <time>2022-08-06T10:17:06.453Z</time>
      </trkpt>
      <trkpt lat="46.38801" lon="15.61571">
        <ele>273.783476</ele>
        <time>2022-08-06T10:17:14.324Z</time>
      </trkpt>
      <trkpt lat="46.38789" lon="15.61687">
        <ele>271.454188</ele>
        <time>2022-08-06T10:17:31.418Z</time>
      </trkpt>
      <trkpt lat="46.38758" lon="15.61827">
        <ele>268.31973</ele>
        <time>2022-08-06T10:17:50.820Z</time>
      </trkpt>
      <trkpt lat="46.3876" lon="15.61914">
        <ele>265.491502</ele>
        <time>2022-08-06T10:18:01.583Z</time>
      </trkpt>
      <trkpt lat="46.38742" lon="15.61988">
        <ele>262.944693</ele>
        <time>2022-08-06T10:18:11.366Z</time>
      </trkpt>
      <trkpt lat="46.38735" lon="15.62039">
        <ele>261.269604</ele>
        <time>2022-08-06T10:18:17.817Z</time>
      </trkpt>
      <trkpt lat="46.38735" lon="15.62174">
        <ele>258.476244</ele>
        <time>2022-08-06T10:18:35.526Z</time>
      </trkpt>
      <trkpt lat="46.38745" lon="15.62193">
        <ele>258.063905</ele>
        <time>2022-08-06T10:18:38.737Z</time>
      </trkpt>
      <trkpt lat="46.38773" lon="15.62264">
        <ele>256.60761</ele>
        <time>2022-08-06T10:18:50.685Z</time>
      </trkpt>
      <trkpt lat="46.38812" lon="15.62392">
        <ele>255.694615</ele>
        <time>2022-08-06T10:19:14.422Z</time>
      </trkpt>
      <trkpt lat="46.38829" lon="15.62491">
        <ele>255.605157</ele>
        <time>2022-08-06T10:19:33.408Z</time>
      </trkpt>
      <trkpt lat="46.38831" lon="15.62593">
        <ele>255.463387</ele>
        <time>2022-08-06T10:19:53.676Z</time>
      </trkpt>
      <trkpt lat="46.38822" lon="15.62733">
        <ele>255.137619</ele>
        <time>2022-08-06T10:20:19.329Z</time>
      </trkpt>
      <trkpt lat="46.38809" lon="15.62813">
        <ele>254.947474</ele>
        <time>2022-08-06T10:20:32.801Z</time>
      </trkpt>
      <trkpt lat="46.38774" lon="15.62911">
        <ele>253.734763</ele>
        <time>2022-08-06T10:20:49.283Z</time>
      </trkpt>
      <trkpt lat="46.38738" lon="15.62978">
        <ele>252.795432</ele>
        <time>2022-08-06T10:21:01.687Z</time>
      </trkpt>
      <trkpt lat="46.38733" lon="15.63014">
        <ele>252.390571</ele>
        <time>2022-08-06T10:21:06.965Z</time>
      </trkpt>
      <trkpt lat="46.38804" lon="15.63052">
        <ele>251.624777</ele>
        <time>2022-08-06T10:21:23.844Z</time>
      </trkpt>
      <trkpt lat="46.38826" lon="15.63044">
        <ele>251.448207</ele>
        <time>2022-08-06T10:21:29.117Z</time>
      </trkpt>
      <trkpt lat="46.389" lon="15.63003">
        <ele>250.831307</ele>
        <time>2022-08-06T10:21:48.189Z</time>
      </trkpt>
      <trkpt lat="46.38956" lon="15.62962">
        <ele>250.788584</ele>
        <time>2022-08-06T10:22:05.996Z</time>
      </trkpt>
      <trkpt lat="46.38998" lon="15.62957">
        <ele>250.934905</ele>
        <time>2022-08-06T10:22:18.808Z</time>
      </trkpt>
      <trkpt lat="46.39061" lon="15.62953">
        <ele>251.157094</ele>
        <time>2022-08-06T10:22:36.864Z</time>
      </trkpt>
      <trkpt lat="46.39122" lon="15.6295">
        <ele>251.308886</ele>
        <time>2022-08-06T10:22:53.909Z</time>
      </trkpt>
      <trkpt lat="46.39158" lon="15.62959">
        <ele>251.35129</ele>
        <time>2022-08-06T10:23:03.806Z</time>
      </trkpt>
      <trkpt lat="46.39204" lon="15.62972">
        <ele>251.406248</ele>
        <time>2022-08-06T10:23:16.362Z</time>
      </trkpt>
      <trkpt lat="46.39263" lon="15.62991">
        <ele>251.477962</ele>
        <time>2022-08-06T10:23:32.763Z</time>
      </trkpt>
      <trkpt lat="46.39338" lon="15.63002">
        <ele>252.007849</ele>
        <time>2022-08-06T10:23:53.029Z</time>
      </trkpt>
      <trkpt lat="46.39388" lon="15.63003">
        <ele>252.405134</ele>
        <time>2022-08-06T10:24:08.594Z</time>
      </trkpt>
      <trkpt lat="46.39426" lon="15.62983">
        <ele>252.732621</ele>
        <time>2022-08-06T10:24:22.753Z</time>
      </trkpt>
      <trkpt lat="46.39475" lon="15.62968">
        <ele>253.104145</ele>
        <time>2022-08-06T10:24:39.392Z</time>
      </trkpt>
      <trkpt lat="46.395" lon="15.62968">
        <ele>253.28327</ele>
        <time>2022-08-06T10:24:47.320Z</time>
      </trkpt>
      <trkpt lat="46.39571" lon="15.63007">
        <ele>253.825733</ele>
        <time>2022-08-06T10:25:11.040Z</time>
      </trkpt>
      <trkpt lat="46.39577" lon="15.63068">
        <ele>254.128821</ele>
        <time>2022-08-06T10:25:22.969Z</time>
      </trkpt>
      <trkpt lat="46.39597" lon="15.63151">
        <ele>253.883386</ele>
        <time>2022-08-06T10:25:38.160Z</time>
      </trkpt>
      <trkpt lat="46.39635" lon="15.63257">
        <ele>253.36117</ele>
        <time>2022-08-06T10:25:56.723Z</time>
      </trkpt>
      <trkpt lat="46.3966" lon="15.63302">
        <ele>253.110221</ele>
        <time>2022-08-06T10:26:06.076Z</time>
      </trkpt>
      <trkpt lat="46.39691" lon="15.63341">
        <ele>253.29525</ele>
        <time>2022-08-06T10:26:16.840Z</time>
      </trkpt>
      <trkpt lat="46.39749" lon="15.63398">
        <ele>253.781565</ele>
        <time>2022-08-06T10:26:38.063Z</time>
      </trkpt>
      <trkpt lat="46.39762" lon="15.63387">
        <ele>253.884922</ele>
        <time>2022-08-06T10:26:43.192Z</time>
      </trkpt>
      <trkpt lat="46.398" lon="15.63378">
        <ele>254.150082</ele>
        <time>2022-08-06T10:26:56.097Z</time>
      </trkpt>
      <trkpt lat="46.39832" lon="15.63367">
        <ele>254.426383</ele>
        <time>2022-08-06T10:27:07.531Z</time>
      </trkpt>
      <trkpt lat="46.39902" lon="15.63364">
        <ele>255.249509</ele>
        <time>2022-08-06T10:27:32.304Z</time>
      </trkpt>
      <trkpt lat="46.39984" lon="15.63379">
        <ele>256.21005</ele>
        <time>2022-08-06T10:28:00.097Z</time>
      </trkpt>
      <trkpt lat="46.40054" lon="15.63381">
        <ele>256.522261</ele>
        <time>2022-08-06T10:28:20.473Z</time>
      </trkpt>
      <trkpt lat="46.40106" lon="15.63394">
        <ele>256.637441</ele>
        <time>2022-08-06T10:28:35.274Z</time>
      </trkpt>
      <trkpt lat="46.40222" lon="15.63439">
        <ele>256.806392</ele>
        <time>2022-08-06T10:29:08.742Z</time>
      </trkpt>
      <trkpt lat="46.40377" lon="15.63556">
        <ele>256.98553</ele>
        <time>2022-08-06T10:29:57.619Z</time>
      </trkpt>
      <trkpt lat="46.40476" lon="15.63634">
        <ele>257.405564</ele>
        <time>2022-08-06T10:30:31.191Z</time>
      </trkpt>
      <trkpt lat="46.40527" lon="15.6371">
        <ele>257.844327</ele>
        <time>2022-08-06T10:30:52.924Z</time>
      </trkpt>
      <trkpt lat="46.40552" lon="15.63727">
        <ele>258.038148</ele>
        <time>2022-08-06T10:31:01.116Z</time>
      </trkpt>
      <trkpt lat="46.40561" lon="15.63733">
        <ele>258.112327</ele>
        <time>2022-08-06T10:31:04.164Z</time>
      </trkpt>
      <trkpt lat="46.40561" lon="15.63741">
        <ele>258.147614</ele>
        <time>2022-08-06T10:31:05.669Z</time>
      </trkpt>
      <trkpt lat="46.40562" lon="15.63761">
        <ele>258.251344</ele>
        <time>2022-08-06T10:31:10.281Z</time>
      </trkpt>
      <trkpt lat="46.40563" lon="15.6377">
        <ele>258.292764</ele>
        <time>2022-08-06T10:31:12.138Z</time>
      </trkpt>
      <trkpt lat="46.40604" lon="15.63771">
        <ele>258.585182</ele>
        <time>2022-08-06T10:31:24.740Z</time>
      </trkpt>
      <trkpt lat="46.40661" lon="15.63794">
        <ele>258.961405</ele>
        <time>2022-08-06T10:31:42.937Z</time>
      </trkpt>
      <trkpt lat="46.40759" lon="15.63813">
        <ele>259.507764</ele>
        <time>2022-08-06T10:32:11.237Z</time>
      </trkpt>
      <trkpt lat="46.4082" lon="15.63834">
        <ele>259.868313</ele>
        <time>2022-08-06T10:32:29.604Z</time>
      </trkpt>
      <trkpt lat="46.40901" lon="15.63807">
        <ele>260.438728</ele>
        <time>2022-08-06T10:32:54.570Z</time>
      </trkpt>
      <trkpt lat="46.40953" lon="15.63806">
        <ele>260.79193</ele>
        <time>2022-08-06T10:33:10.125Z</time>
      </trkpt>
      <trkpt lat="46.4103" lon="15.63822">
        <ele>261.380484</ele>
        <time>2022-08-06T10:33:33.625Z</time>
      </trkpt>
      <trkpt lat="46.41052" lon="15.63821">
        <ele>261.553993</ele>
        <time>2022-08-06T10:33:40.402Z</time>
      </trkpt>
      <trkpt lat="46.41076" lon="15.6381">
        <ele>261.754853</ele>
        <time>2022-08-06T10:33:48.423Z</time>
      </trkpt>
      <trkpt lat="46.41152" lon="15.63751">
        <ele>262.448191</ele>
        <time>2022-08-06T10:34:15.201Z</time>
      </trkpt>
      <trkpt lat="46.41179" lon="15.63737">
        <ele>262.531088</ele>
        <time>2022-08-06T10:34:23.785Z</time>
      </trkpt>
      <trkpt lat="46.4122" lon="15.6374">
        <ele>262.643488</ele>
        <time>2022-08-06T10:34:35.402Z</time>
      </trkpt>
      <trkpt lat="46.41308" lon="15.63789">
        <ele>262.903306</ele>
        <time>2022-08-06T10:35:01.232Z</time>
      </trkpt>
      <trkpt lat="46.41314" lon="15.63832">
        <ele>262.904339</ele>
        <time>2022-08-06T10:35:09.409Z</time>
      </trkpt>
      <trkpt lat="46.41334" lon="15.63856">
        <ele>262.817041</ele>
        <time>2022-08-06T10:35:16.008Z</time>
      </trkpt>
      <trkpt lat="46.41377" lon="15.63923">
        <ele>262.6044</ele>
        <time>2022-08-06T10:35:31.671Z</time>
      </trkpt>
      <trkpt lat="46.41387" lon="15.63949">
        <ele>262.534197</ele>
        <time>2022-08-06T10:35:36.826Z</time>
      </trkpt>
      <trkpt lat="46.41391" lon="15.63992">
        <ele>262.432715</ele>
        <time>2022-08-06T10:35:44.025Z</time>
      </trkpt>
      <trkpt lat="46.41522" lon="15.64098">
        <ele>261.896618</ele>
        <time>2022-08-06T10:36:22.010Z</time>
      </trkpt>
      <trkpt lat="46.41556" lon="15.64164">
        <ele>261.691519</ele>
        <time>2022-08-06T10:36:36.297Z</time>
      </trkpt>
      <trkpt lat="46.41581" lon="15.64187">
        <ele>261.564693</ele>
        <time>2022-08-06T10:36:43.762Z</time>
      </trkpt>
      <trkpt lat="46.41646" lon="15.64209">
        <ele>261.282037</ele>
        <time>2022-08-06T10:37:00.312Z</time>
      </trkpt>
      <trkpt lat="46.41867" lon="15.64264">
        <ele>260.476686</ele>
        <time>2022-08-06T10:37:55.895Z</time>
      </trkpt>
      <trkpt lat="46.41925" lon="15.64288">
        <ele>260.363497</ele>
        <time>2022-08-06T10:38:12.129Z</time>
      </trkpt>
      <trkpt lat="46.41999" lon="15.64272">
        <ele>260.414752</ele>
        <time>2022-08-06T10:38:32.175Z</time>
      </trkpt>
      <trkpt lat="46.42019" lon="15.64314">
        <ele>260.438949</ele>
        <time>2022-08-06T10:38:42.813Z</time>
      </trkpt>
      <trkpt lat="46.42071" lon="15.64395">
        <ele>260.440896</ele>
        <time>2022-08-06T10:39:06.246Z</time>
      </trkpt>
      <trkpt lat="46.42088" lon="15.64434">
        <ele>260.404075</ele>
        <time>2022-08-06T10:39:15.660Z</time>
      </trkpt>
      <trkpt lat="46.42104" lon="15.64563">
        <ele>260.298113</ele>
        <time>2022-08-06T10:39:41.362Z</time>
      </trkpt>
      <trkpt lat="46.42097" lon="15.64663">
        <ele>260.241281</ele>
        <time>2022-08-06T10:40:01.127Z</time>
      </trkpt>
      <trkpt lat="46.42101" lon="15.64685">
        <ele>260.23248</ele>
        <time>2022-08-06T10:40:05.538Z</time>
      </trkpt>
      <trkpt lat="46.42293" lon="15.64604">
        <ele>260.179472</ele>
        <time>2022-08-06T10:41:35.109Z</time>
      </trkpt>
      <trkpt lat="46.42302" lon="15.64604">
        <ele>260.181498</ele>
        <time>2022-08-06T10:41:39.227Z</time>
      </trkpt>
      <trkpt lat="46.42316" lon="15.64629">
        <ele>260.186452</ele>
        <time>2022-08-06T10:41:45.912Z</time>
      </trkpt>
      <trkpt lat="46.42329" lon="15.6467">
        <ele>260.193344</ele>
        <time>2022-08-06T10:41:55.162Z</time>
      </trkpt>
      <trkpt lat="46.42432" lon="15.651">
        <ele>260.123612</ele>
        <time>2022-08-06T10:43:25.699Z</time>
      </trkpt>
      <trkpt lat="46.42435" lon="15.65135">
        <ele>260.191898</ele>
        <time>2022-08-06T10:43:33.717Z</time>
      </trkpt>
      <trkpt lat="46.42432" lon="15.65212">
        <ele>260.336535</ele>
        <time>2022-08-06T10:43:51.460Z</time>
      </trkpt>
      <trkpt lat="46.42398" lon="15.65451">
        <ele>260.979184</ele>
        <time>2022-08-06T10:44:47.846Z</time>
      </trkpt>
      <trkpt lat="46.42298" lon="15.66157">
        <ele>256.032297</ele>
        <time>2022-08-06T10:46:54.198Z</time>
      </trkpt>
      <trkpt lat="46.423" lon="15.66214">
        <ele>255.734682</ele>
        <time>2022-08-06T10:47:05.375Z</time>
      </trkpt>
      <trkpt lat="46.42307" lon="15.66241">
        <ele>255.583774</ele>
        <time>2022-08-06T10:47:11.219Z</time>
      </trkpt>
      <trkpt lat="46.42333" lon="15.66293">
        <ele>256.003573</ele>
        <time>2022-08-06T10:47:24.665Z</time>
      </trkpt>
      <trkpt lat="46.42361" lon="15.66325">
        <ele>256.448724</ele>
        <time>2022-08-06T10:47:36.247Z</time>
      </trkpt>
      <trkpt lat="46.424" lon="15.6634">
        <ele>256.944633</ele>
        <time>2022-08-06T10:47:50.801Z</time>
      </trkpt>
      <trkpt lat="46.42413" lon="15.66337">
        <ele>257.110332</ele>
        <time>2022-08-06T10:47:55.878Z</time>
      </trkpt>
      <trkpt lat="46.42426" lon="15.66326">
        <ele>257.295832</ele>
        <time>2022-08-06T10:48:01.403Z</time>
      </trkpt>
      <trkpt lat="46.42459" lon="15.66341">
        <ele>257.731399</ele>
        <time>2022-08-06T10:48:15.291Z</time>
      </trkpt>
      <trkpt lat="46.425" lon="15.66341">
        <ele>259.178924</ele>
        <time>2022-08-06T10:48:33.026Z</time>
      </trkpt>
      <trkpt lat="46.42546" lon="15.66338">
        <ele>260.864543</ele>
        <time>2022-08-06T10:48:54.992Z</time>
      </trkpt>
      <trkpt lat="46.42565" lon="15.66346">
        <ele>261.57875</ele>
        <time>2022-08-06T10:49:04.745Z</time>
      </trkpt>
      <trkpt lat="46.42577" lon="15.66361">
        <ele>262.190754</ele>
        <time>2022-08-06T10:49:13.381Z</time>
      </trkpt>
      <trkpt lat="46.426" lon="15.66417">
        <ele>263.831712</ele>
        <time>2022-08-06T10:49:35.909Z</time>
      </trkpt>
      <trkpt lat="46.42602" lon="15.66452">
        <ele>264.508394</ele>
        <time>2022-08-06T10:49:48.107Z</time>
      </trkpt>
      <trkpt lat="46.42636" lon="15.66549">
        <ele>265.472041</ele>
        <time>2022-08-06T10:50:23.785Z</time>
      </trkpt>
      <trkpt lat="46.42859" lon="15.67105">
        <ele>269.439772</ele>
        <time>2022-08-06T10:52:45.137Z</time>
      </trkpt>
      <trkpt lat="46.4287" lon="15.67161">
        <ele>269.218537</ele>
        <time>2022-08-06T10:52:55.996Z</time>
      </trkpt>
      <trkpt lat="46.42888" lon="15.67211">
        <ele>268.866065</ele>
        <time>2022-08-06T10:53:06.115Z</time>
      </trkpt>
      <trkpt lat="46.42884" lon="15.67235">
        <ele>268.713859</ele>
        <time>2022-08-06T10:53:10.410Z</time>
      </trkpt>
      <trkpt lat="46.42865" lon="15.67259">
        <ele>268.485112</ele>
        <time>2022-08-06T10:53:16.945Z</time>
      </trkpt>
      <trkpt lat="46.42771" lon="15.67331">
        <ele>267.64511</ele>
        <time>2022-08-06T10:53:44.181Z</time>
      </trkpt>
      <trkpt lat="46.42654" lon="15.67422">
        <ele>266.899479</ele>
        <time>2022-08-06T10:54:20.356Z</time>
      </trkpt>
      <trkpt lat="46.42642" lon="15.67437">
        <ele>266.855788</ele>
        <time>2022-08-06T10:54:25.126Z</time>
      </trkpt>
      <trkpt lat="46.42654" lon="15.67462">
        <ele>266.968833</ele>
        <time>2022-08-06T10:54:32.092Z</time>
      </trkpt>
      <trkpt lat="46.42704" lon="15.67571">
        <ele>267.447172</ele>
        <time>2022-08-06T10:55:01.871Z</time>
      </trkpt>
      <trkpt lat="46.42725" lon="15.67633">
        <ele>267.699455</ele>
        <time>2022-08-06T10:55:18.045Z</time>
      </trkpt>
      <trkpt lat="46.42764" lon="15.67787">
        <ele>267.334992</ele>
        <time>2022-08-06T10:55:53.490Z</time>
      </trkpt>
      <trkpt lat="46.42839" lon="15.67985">
        <ele>264.828146</ele>
        <time>2022-08-06T10:56:32.093Z</time>
      </trkpt>
      <trkpt lat="46.42872" lon="15.68126">
        <ele>261.820033</ele>
        <time>2022-08-06T10:56:54.127Z</time>
      </trkpt>
      <trkpt lat="46.42934" lon="15.6829">
        <ele>257.476796</ele>
        <time>2022-08-06T10:57:21.551Z</time>
      </trkpt>
      <trkpt lat="46.42971" lon="15.68363">
        <ele>255.541887</ele>
        <time>2022-08-06T10:57:35.619Z</time>
      </trkpt>
      <trkpt lat="46.43125" lon="15.68663">
        <ele>254.025643</ele>
        <time>2022-08-06T10:59:24.809Z</time>
      </trkpt>
      <trkpt lat="46.43199" lon="15.68585">
        <ele>253.951851</ele>
        <time>2022-08-06T10:59:50.286Z</time>
      </trkpt>
      <trkpt lat="46.43256" lon="15.68506">
        <ele>254.36983</ele>
        <time>2022-08-06T11:00:12.584Z</time>
      </trkpt>
      <trkpt lat="46.43302" lon="15.68431">
        <ele>254.75909</ele>
        <time>2022-08-06T11:00:32.217Z</time>
      </trkpt>
      <trkpt lat="46.43347" lon="15.68391">
        <ele>255.240672</ele>
        <time>2022-08-06T11:00:49.182Z</time>
      </trkpt>
      <trkpt lat="46.43421" lon="15.6831">
        <ele>256.749094</ele>
        <time>2022-08-06T11:01:21.495Z</time>
      </trkpt>
      <trkpt lat="46.43454" lon="15.68275">
        <ele>257.402513</ele>
        <time>2022-08-06T11:01:35.882Z</time>
      </trkpt>
      <trkpt lat="46.43489" lon="15.68248">
        <ele>258.068701</ele>
        <time>2022-08-06T11:01:50.429Z</time>
      </trkpt>
      <trkpt lat="46.4367" lon="15.68147">
        <ele>261.278324</ele>
        <time>2022-08-06T11:02:58.938Z</time>
      </trkpt>
      <trkpt lat="46.43706" lon="15.68137">
        <ele>261.583837</ele>
        <time>2022-08-06T11:03:10.474Z</time>
      </trkpt>
      <trkpt lat="46.43738" lon="15.68138">
        <ele>261.854798</ele>
        <time>2022-08-06T11:03:20.463Z</time>
      </trkpt>
      <trkpt lat="46.43741" lon="15.68144">
        <ele>261.896764</ele>
        <time>2022-08-06T11:03:21.925Z</time>
      </trkpt>
      <trkpt lat="46.43747" lon="15.68149">
        <ele>261.95573</ele>
        <time>2022-08-06T11:03:24.119Z</time>
      </trkpt>
      <trkpt lat="46.43753" lon="15.68149">
        <ele>262.003855</ele>
        <time>2022-08-06T11:03:25.965Z</time>
      </trkpt>
      <trkpt lat="46.43777" lon="15.68177">
        <ele>262.263759</ele>
        <time>2022-08-06T11:03:35.278Z</time>
      </trkpt>
      <trkpt lat="46.4378" lon="15.68199">
        <ele>262.397913</ele>
        <time>2022-08-06T11:03:39.875Z</time>
      </trkpt>
      <trkpt lat="46.43778" lon="15.68341">
        <ele>261.562354</ele>
        <time>2022-08-06T11:04:04.798Z</time>
      </trkpt>
      <trkpt lat="46.43788" lon="15.68386">
        <ele>261.120377</ele>
        <time>2022-08-06T11:04:11.529Z</time>
      </trkpt>
      <trkpt lat="46.43828" lon="15.68477">
        <ele>260.079171</ele>
        <time>2022-08-06T11:04:26.939Z</time>
      </trkpt>
      <trkpt lat="46.4386" lon="15.68568">
        <ele>258.635065</ele>
        <time>2022-08-06T11:04:41.487Z</time>
      </trkpt>
      <trkpt lat="46.43942" lon="15.6874">
        <ele>256.165125</ele>
        <time>2022-08-06T11:05:12.009Z</time>
      </trkpt>
      <trkpt lat="46.43945" lon="15.68752">
        <ele>256.101178</ele>
        <time>2022-08-06T11:05:14.086Z</time>
      </trkpt>
      <trkpt lat="46.4404" lon="15.69013">
        <ele>254.926588</ele>
        <time>2022-08-06T11:06:05.356Z</time>
      </trkpt>
      <trkpt lat="46.44082" lon="15.69139">
        <ele>254.722049</ele>
        <time>2022-08-06T11:06:29.921Z</time>
      </trkpt>
      <trkpt lat="46.44121" lon="15.69279">
        <ele>254.9032</ele>
        <time>2022-08-06T11:06:58.594Z</time>
      </trkpt>
      <trkpt lat="46.44145" lon="15.69372">
        <ele>255.064967</ele>
        <time>2022-08-06T11:07:17.723Z</time>
      </trkpt>
      <trkpt lat="46.4418" lon="15.69438">
        <ele>255.281504</ele>
        <time>2022-08-06T11:07:34.719Z</time>
      </trkpt>
      <trkpt lat="46.442" lon="15.69553">
        <ele>255.662727</ele>
        <time>2022-08-06T11:07:59.154Z</time>
      </trkpt>
      <trkpt lat="46.44194" lon="15.6957">
        <ele>255.724764</ele>
        <time>2022-08-06T11:08:02.900Z</time>
      </trkpt>
      <trkpt lat="46.44211" lon="15.69578">
        <ele>255.811078</ele>
        <time>2022-08-06T11:08:08.438Z</time>
      </trkpt>
      <trkpt lat="46.44244" lon="15.69566">
        <ele>255.945888</ele>
        <time>2022-08-06T11:08:18.220Z</time>
      </trkpt>
      <trkpt lat="46.44286" lon="15.6956">
        <ele>255.833427</ele>
        <time>2022-08-06T11:08:29.957Z</time>
      </trkpt>
      <trkpt lat="46.44315" lon="15.69564">
        <ele>255.757443</ele>
        <time>2022-08-06T11:08:38.061Z</time>
      </trkpt>
      <trkpt lat="46.44339" lon="15.69567">
        <ele>255.692389</ele>
        <time>2022-08-06T11:08:44.639Z</time>
      </trkpt>
      <trkpt lat="46.4445" lon="15.69559">
        <ele>255.319205</ele>
        <time>2022-08-06T11:09:13.002Z</time>
      </trkpt>
      <trkpt lat="46.44515" lon="15.69548">
        <ele>254.980791</ele>
        <time>2022-08-06T11:09:29.162Z</time>
      </trkpt>
      <trkpt lat="46.44565" lon="15.69539">
        <ele>254.722283</ele>
        <time>2022-08-06T11:09:42.000Z</time>
      </trkpt>
      <trkpt lat="46.44635" lon="15.69531">
        <ele>254.677927</ele>
        <time>2022-08-06T11:10:01.084Z</time>
      </trkpt>
      <trkpt lat="46.44784" lon="15.69499">
        <ele>255.23402</ele>
        <time>2022-08-06T11:10:46.534Z</time>
      </trkpt>
      <trkpt lat="46.4482" lon="15.69498">
        <ele>255.402805</ele>
        <time>2022-08-06T11:10:58.080Z</time>
      </trkpt>
      <trkpt lat="46.44824" lon="15.69503">
        <ele>255.424942</ele>
        <time>2022-08-06T11:11:00.358Z</time>
      </trkpt>
      <trkpt lat="46.44851" lon="15.69509">
        <ele>255.552626</ele>
        <time>2022-08-06T11:11:08.993Z</time>
      </trkpt>
      <trkpt lat="46.44891" lon="15.69499">
        <ele>255.736142</ele>
        <time>2022-08-06T11:11:21.183Z</time>
      </trkpt>
      <trkpt lat="46.45076" lon="15.69428">
        <ele>256.264356</ele>
        <time>2022-08-06T11:12:16.071Z</time>
      </trkpt>
      <trkpt lat="46.45231" lon="15.69361">
        <ele>256.767643</ele>
        <time>2022-08-06T11:13:02.037Z</time>
      </trkpt>
      <trkpt lat="46.45289" lon="15.69343">
        <ele>256.989664</ele>
        <time>2022-08-06T11:13:20.722Z</time>
      </trkpt>
      <trkpt lat="46.45403" lon="15.69301">
        <ele>257.708205</ele>
        <time>2022-08-06T11:13:58.161Z</time>
      </trkpt>
      <trkpt lat="46.45402" lon="15.69292">
        <ele>257.748757</ele>
        <time>2022-08-06T11:14:00.129Z</time>
      </trkpt>
      <trkpt lat="46.45399" lon="15.6926">
        <ele>257.889884</ele>
        <time>2022-08-06T11:14:06.766Z</time>
      </trkpt>
      <trkpt lat="46.45485" lon="15.69265">
        <ele>257.976906</ele>
        <time>2022-08-06T11:14:31.936Z</time>
      </trkpt>
      <trkpt lat="46.45533" lon="15.69244">
        <ele>257.733087</ele>
        <time>2022-08-06T11:14:44.389Z</time>
      </trkpt>
      <trkpt lat="46.45583" lon="15.69224">
        <ele>257.476855</ele>
        <time>2022-08-06T11:14:57.110Z</time>
      </trkpt>
      <trkpt lat="46.457" lon="15.69177">
        <ele>257.265847</ele>
        <time>2022-08-06T11:15:27.794Z</time>
      </trkpt>
      <trkpt lat="46.45719" lon="15.69169">
        <ele>257.259055</ele>
        <time>2022-08-06T11:15:33.104Z</time>
      </trkpt>
      <trkpt lat="46.46011" lon="15.69001">
        <ele>258.685746</ele>
        <time>2022-08-06T11:17:10.996Z</time>
      </trkpt>
      <trkpt lat="46.46019" lon="15.68997">
        <ele>258.715048</ele>
        <time>2022-08-06T11:17:13.748Z</time>
      </trkpt>
      <trkpt lat="46.46527" lon="15.68709">
        <ele>260.431126</ele>
        <time>2022-08-06T11:19:51.487Z</time>
      </trkpt>
      <trkpt lat="46.46647" lon="15.68648">
        <ele>260.925926</ele>
        <time>2022-08-06T11:20:30.377Z</time>
      </trkpt>
      <trkpt lat="46.46693" lon="15.6858">
        <ele>261.085689</ele>
        <time>2022-08-06T11:20:50.027Z</time>
      </trkpt>
      <trkpt lat="46.46697" lon="15.68574">
        <ele>261.100199</ele>
        <time>2022-08-06T11:20:51.784Z</time>
      </trkpt>
      <trkpt lat="46.46705" lon="15.68563">
        <ele>261.126671</ele>
        <time>2022-08-06T11:20:54.958Z</time>
      </trkpt>
      <trkpt lat="46.46709" lon="15.68556">
        <ele>261.14113</ele>
        <time>2022-08-06T11:20:56.693Z</time>
      </trkpt>
      <trkpt lat="46.46745" lon="15.68493">
        <ele>261.278391</ele>
        <time>2022-08-06T11:21:12.509Z</time>
      </trkpt>
      <trkpt lat="46.46765" lon="15.6844">
        <ele>261.240792</ele>
        <time>2022-08-06T11:21:23.675Z</time>
      </trkpt>
      <trkpt lat="46.46785" lon="15.68354">
        <ele>261.069908</ele>
        <time>2022-08-06T11:21:40.254Z</time>
      </trkpt>
      <trkpt lat="46.46806" lon="15.68294">
        <ele>260.942917</ele>
        <time>2022-08-06T11:21:52.446Z</time>
      </trkpt>
      <trkpt lat="46.46838" lon="15.68209">
        <ele>260.836708</ele>
        <time>2022-08-06T11:22:10.183Z</time>
      </trkpt>
      <trkpt lat="46.46914" lon="15.68044">
        <ele>260.921436</ele>
        <time>2022-08-06T11:22:48.439Z</time>
      </trkpt>
      <trkpt lat="46.46935" lon="15.67976">
        <ele>261.063282</ele>
        <time>2022-08-06T11:23:03.897Z</time>
      </trkpt>
      <trkpt lat="46.46937" lon="15.67956">
        <ele>261.120442</ele>
        <time>2022-08-06T11:23:08.197Z</time>
      </trkpt>
      <trkpt lat="46.46905" lon="15.67848">
        <ele>261.455847</ele>
        <time>2022-08-06T11:23:31.985Z</time>
      </trkpt>
      <trkpt lat="46.46853" lon="15.67769">
        <ele>261.817773</ele>
        <time>2022-08-06T11:23:54.343Z</time>
      </trkpt>
      <trkpt lat="46.46825" lon="15.67718">
        <ele>262.108733</ele>
        <time>2022-08-06T11:24:08.550Z</time>
      </trkpt>
      <trkpt lat="46.46789" lon="15.67668">
        <ele>262.432766</ele>
        <time>2022-08-06T11:24:24.492Z</time>
      </trkpt>
      <trkpt lat="46.46745" lon="15.67618">
        <ele>262.798146</ele>
        <time>2022-08-06T11:24:41.655Z</time>
      </trkpt>
      <trkpt lat="46.46729" lon="15.67591">
        <ele>262.906652</ele>
        <time>2022-08-06T11:24:48.982Z</time>
      </trkpt>
      <trkpt lat="46.46695" lon="15.67474">
        <ele>263.195653</ele>
        <time>2022-08-06T11:25:15.269Z</time>
      </trkpt>
      <trkpt lat="46.46706" lon="15.67466">
        <ele>263.234787</ele>
        <time>2022-08-06T11:25:18.580Z</time>
      </trkpt>
      <trkpt lat="46.46764" lon="15.67387">
        <ele>263.476849</ele>
        <time>2022-08-06T11:25:40.131Z</time>
      </trkpt>
      <trkpt lat="46.46845" lon="15.67277">
        <ele>263.697766</ele>
        <time>2022-08-06T11:26:09.654Z</time>
      </trkpt>
      <trkpt lat="46.46887" lon="15.67217">
        <ele>263.862189</ele>
        <time>2022-08-06T11:26:26.714Z</time>
      </trkpt>
      <trkpt lat="46.46968" lon="15.67104">
        <ele>265.019254</ele>
        <time>2022-08-06T11:27:02.343Z</time>
      </trkpt>
      <trkpt lat="46.46977" lon="15.67073">
        <ele>265.256215</ele>
        <time>2022-08-06T11:27:09.879Z</time>
      </trkpt>
      <trkpt lat="46.47" lon="15.66944">
        <ele>266.232804</ele>
        <time>2022-08-06T11:27:39.627Z</time>
      </trkpt>
      <trkpt lat="46.47012" lon="15.66905">
        <ele>266.554202</ele>
        <time>2022-08-06T11:27:49.180Z</time>
      </trkpt>
      <trkpt lat="46.47051" lon="15.66856">
        <ele>267.116732</ele>
        <time>2022-08-06T11:28:06.022Z</time>
      </trkpt>
      <trkpt lat="46.47093" lon="15.66775">
        <ele>267.777964</ele>
        <time>2022-08-06T11:28:27.769Z</time>
      </trkpt>
      <trkpt lat="46.4716" lon="15.66734">
        <ele>268.28855</ele>
        <time>2022-08-06T11:28:49.404Z</time>
      </trkpt>
      <trkpt lat="46.472" lon="15.667">
        <ele>268.610691</ele>
        <time>2022-08-06T11:29:02.940Z</time>
      </trkpt>
      <trkpt lat="46.47225" lon="15.66668">
        <ele>268.846274</ele>
        <time>2022-08-06T11:29:12.918Z</time>
      </trkpt>
      <trkpt lat="46.47262" lon="15.66614">
        <ele>269.220506</ele>
        <time>2022-08-06T11:29:28.676Z</time>
      </trkpt>
      <trkpt lat="46.47307" lon="15.66462">
        <ele>270.028543</ele>
        <time>2022-08-06T11:30:02.717Z</time>
      </trkpt>
      <trkpt lat="46.4736" lon="15.66356">
        <ele>270.764478</ele>
        <time>2022-08-06T11:30:30.393Z</time>
      </trkpt>
      <trkpt lat="46.47367" lon="15.66341">
        <ele>270.877184</ele>
        <time>2022-08-06T11:30:34.525Z</time>
      </trkpt>
      <trkpt lat="46.47372" lon="15.66329">
        <ele>270.954479</ele>
        <time>2022-08-06T11:30:37.446Z</time>
      </trkpt>
      <trkpt lat="46.47387" lon="15.66295">
        <ele>271.191716</ele>
        <time>2022-08-06T11:30:46.357Z</time>
      </trkpt>
      <trkpt lat="46.47397" lon="15.66269">
        <ele>271.363628</ele>
        <time>2022-08-06T11:30:52.669Z</time>
      </trkpt>
      <trkpt lat="46.47461" lon="15.66119">
        <ele>272.22174</ele>
        <time>2022-08-06T11:31:29.144Z</time>
      </trkpt>
      <trkpt lat="46.47484" lon="15.66095">
        <ele>272.403851</ele>
        <time>2022-08-06T11:31:37.561Z</time>
      </trkpt>
      <trkpt lat="46.4749" lon="15.66091">
        <ele>272.448988</ele>
        <time>2022-08-06T11:31:39.678Z</time>
      </trkpt>
      <trkpt lat="46.47493" lon="15.6608">
        <ele>272.500044</ele>
        <time>2022-08-06T11:31:42.157Z</time>
      </trkpt>
      <trkpt lat="46.47628" lon="15.6599">
        <ele>273.557591</ele>
        <time>2022-08-06T11:32:27.045Z</time>
      </trkpt>
      <trkpt lat="46.47698" lon="15.65955">
        <ele>274.11366</ele>
        <time>2022-08-06T11:32:50.784Z</time>
      </trkpt>
      <trkpt lat="46.47727" lon="15.65935">
        <ele>274.556072</ele>
        <time>2022-08-06T11:33:01.555Z</time>
      </trkpt>
      <trkpt lat="46.47747" lon="15.65911">
        <ele>274.973622</ele>
        <time>2022-08-06T11:33:10.396Z</time>
      </trkpt>
      <trkpt lat="46.47711" lon="15.65803">
        <ele>276.309806</ele>
        <time>2022-08-06T11:33:40.091Z</time>
      </trkpt>
      <trkpt lat="46.47685" lon="15.65673">
        <ele>277.904402</ele>
        <time>2022-08-06T11:34:14.899Z</time>
      </trkpt>
      <trkpt lat="46.47658" lon="15.65539">
        <ele>279.644887</ele>
        <time>2022-08-06T11:34:50.418Z</time>
      </trkpt>
      <trkpt lat="46.47644" lon="15.65494">
        <ele>280.258503</ele>
        <time>2022-08-06T11:35:02.639Z</time>
      </trkpt>
      <trkpt lat="46.47653" lon="15.65488">
        <ele>280.391199</ele>
        <time>2022-08-06T11:35:06.002Z</time>
      </trkpt>
      <trkpt lat="46.47659" lon="15.65484">
        <ele>280.462047</ele>
        <time>2022-08-06T11:35:08.429Z</time>
      </trkpt>
      <trkpt lat="46.47664" lon="15.65468">
        <ele>280.582611</ele>
        <time>2022-08-06T11:35:12.651Z</time>
      </trkpt>
      <trkpt lat="46.47725" lon="15.65411">
        <ele>281.292395</ele>
        <time>2022-08-06T11:35:36.775Z</time>
      </trkpt>
      <trkpt lat="46.47723" lon="15.65403">
        <ele>281.349229</ele>
        <time>2022-08-06T11:35:38.859Z</time>
      </trkpt>
      <trkpt lat="46.4773" lon="15.65397">
        <ele>281.429879</ele>
        <time>2022-08-06T11:35:41.201Z</time>
      </trkpt>
      <trkpt lat="46.47752" lon="15.65382">
        <ele>281.668512</ele>
        <time>2022-08-06T11:35:48.445Z</time>
      </trkpt>
      <trkpt lat="46.47759" lon="15.65377">
        <ele>281.737293</ele>
        <time>2022-08-06T11:35:50.677Z</time>
      </trkpt>
      <trkpt lat="46.47823" lon="15.6535">
        <ele>282.082514</ele>
        <time>2022-08-06T11:36:10.217Z</time>
      </trkpt>
      <trkpt lat="46.47831" lon="15.65352">
        <ele>282.073954</ele>
        <time>2022-08-06T11:36:12.280Z</time>
      </trkpt>
      <trkpt lat="46.47874" lon="15.65336">
        <ele>282.025639</ele>
        <time>2022-08-06T11:36:24.590Z</time>
      </trkpt>
      <trkpt lat="46.47883" lon="15.65344">
        <ele>282.014162</ele>
        <time>2022-08-06T11:36:27.434Z</time>
      </trkpt>
      <trkpt lat="46.47888" lon="15.65342">
        <ele>282.009161</ele>
        <time>2022-08-06T11:36:28.610Z</time>
      </trkpt>
      <trkpt lat="46.4789" lon="15.65341">
        <ele>282.006372</ele>
        <time>2022-08-06T11:36:29.270Z</time>
      </trkpt>
      <trkpt lat="46.47895" lon="15.65329">
        <ele>281.995601</ele>
        <time>2022-08-06T11:36:31.689Z</time>
      </trkpt>
      <trkpt lat="46.47901" lon="15.65327">
        <ele>281.98952</ele>
        <time>2022-08-06T11:36:33.175Z</time>
      </trkpt>
      <trkpt lat="46.47901" lon="15.65321">
        <ele>281.985286</ele>
        <time>2022-08-06T11:36:34.240Z</time>
      </trkpt>
      <trkpt lat="46.47902" lon="15.65314">
        <ele>281.979853</ele>
        <time>2022-08-06T11:36:35.561Z</time>
      </trkpt>
      <trkpt lat="46.47902" lon="15.65307">
        <ele>281.974806</ele>
        <time>2022-08-06T11:36:36.804Z</time>
      </trkpt>
      <trkpt lat="46.47921" lon="15.65308">
        <ele>281.953921</ele>
        <time>2022-08-06T11:36:41.467Z</time>
      </trkpt>
      <trkpt lat="46.48048" lon="15.65267">
        <ele>280.980933</ele>
        <time>2022-08-06T11:37:12.584Z</time>
      </trkpt>
      <trkpt lat="46.48234" lon="15.65225">
        <ele>278.847528</ele>
        <time>2022-08-06T11:37:55.084Z</time>
      </trkpt>
      <trkpt lat="46.48348" lon="15.6522">
        <ele>277.296699</ele>
        <time>2022-08-06T11:38:20.524Z</time>
      </trkpt>
      <trkpt lat="46.48643" lon="15.65196">
        <ele>272.869997</ele>
        <time>2022-08-06T11:39:24.956Z</time>
      </trkpt>
      <trkpt lat="46.48757" lon="15.65197">
        <ele>271.738347</ele>
        <time>2022-08-06T11:39:51.287Z</time>
      </trkpt>
      <trkpt lat="46.48889" lon="15.65203">
        <ele>270.799497</ele>
        <time>2022-08-06T11:40:23.470Z</time>
      </trkpt>
      <trkpt lat="46.48935" lon="15.65194">
        <ele>270.617037</ele>
        <time>2022-08-06T11:40:34.938Z</time>
      </trkpt>
      <trkpt lat="46.48968" lon="15.65169">
        <ele>270.468786</ele>
        <time>2022-08-06T11:40:44.327Z</time>
      </trkpt>
      <trkpt lat="46.48975" lon="15.65179">
        <ele>270.427911</ele>
        <time>2022-08-06T11:40:47.074Z</time>
      </trkpt>
      <trkpt lat="46.49013" lon="15.65153">
        <ele>270.261878</ele>
        <time>2022-08-06T11:40:57.740Z</time>
      </trkpt>
      <trkpt lat="46.49022" lon="15.65148">
        <ele>270.254739</ele>
        <time>2022-08-06T11:41:00.200Z</time>
      </trkpt>
      <trkpt lat="46.49038" lon="15.65138">
        <ele>270.252078</ele>
        <time>2022-08-06T11:41:04.740Z</time>
      </trkpt>
      <trkpt lat="46.49062" lon="15.65135">
        <ele>270.24839</ele>
        <time>2022-08-06T11:41:11.053Z</time>
      </trkpt>
      <trkpt lat="46.49081" lon="15.65142">
        <ele>270.24554</ele>
        <time>2022-08-06T11:41:15.937Z</time>
      </trkpt>
      <trkpt lat="46.49101" lon="15.65161">
        <ele>270.241921</ele>
        <time>2022-08-06T11:41:22.178Z</time>
      </trkpt>
      <trkpt lat="46.49126" lon="15.65133">
        <ele>270.237074</ele>
        <time>2022-08-06T11:41:31.047Z</time>
      </trkpt>
      <trkpt lat="46.49149" lon="15.65132">
        <ele>270.233639</ele>
        <time>2022-08-06T11:41:37.441Z</time>
      </trkpt>
      <trkpt lat="46.49169" lon="15.65146">
        <ele>270.230248</ele>
        <time>2022-08-06T11:41:43.911Z</time>
      </trkpt>
      <trkpt lat="46.492" lon="15.65181">
        <ele>270.368793</ele>
        <time>2022-08-06T11:41:55.218Z</time>
      </trkpt>
      <trkpt lat="46.49224" lon="15.65199">
        <ele>270.503462</ele>
        <time>2022-08-06T11:42:03.447Z</time>
      </trkpt>
      <trkpt lat="46.49272" lon="15.65203">
        <ele>270.733959</ele>
        <time>2022-08-06T11:42:17.737Z</time>
      </trkpt>
      <trkpt lat="46.49556" lon="15.65142">
        <ele>272.570422</ele>
        <time>2022-08-06T11:43:47.015Z</time>
      </trkpt>
      <trkpt lat="46.49668" lon="15.65075">
        <ele>273.575351</ele>
        <time>2022-08-06T11:44:25.071Z</time>
      </trkpt>
      <trkpt lat="46.49729" lon="15.65041">
        <ele>274.304627</ele>
        <time>2022-08-06T11:44:46.197Z</time>
      </trkpt>
      <trkpt lat="46.49826" lon="15.64978">
        <ele>275.690651</ele>
        <time>2022-08-06T11:45:23.499Z</time>
      </trkpt>
      <trkpt lat="46.49897" lon="15.64923">
        <ele>276.569233</ele>
        <time>2022-08-06T11:45:51.439Z</time>
      </trkpt>
      <trkpt lat="46.49948" lon="15.64887">
        <ele>277.090684</ele>
        <time>2022-08-06T11:46:10.014Z</time>
      </trkpt>
      <trkpt lat="46.49949" lon="15.64891">
        <ele>277.112509</ele>
        <time>2022-08-06T11:46:10.681Z</time>
      </trkpt>
      <trkpt lat="46.49959" lon="15.64897">
        <ele>277.211611</ele>
        <time>2022-08-06T11:46:13.943Z</time>
      </trkpt>
      <trkpt lat="46.49964" lon="15.64883">
        <ele>277.311723</ele>
        <time>2022-08-06T11:46:17.388Z</time>
      </trkpt>
      <trkpt lat="46.49983" lon="15.64876">
        <ele>277.487837</ele>
        <time>2022-08-06T11:46:23.414Z</time>
      </trkpt>
      <trkpt lat="46.49991" lon="15.64874">
        <ele>277.561316</ele>
        <time>2022-08-06T11:46:25.864Z</time>
      </trkpt>
      <trkpt lat="46.50006" lon="15.64869">
        <ele>277.702765</ele>
        <time>2022-08-06T11:46:30.656Z</time>
      </trkpt>
      <trkpt lat="46.50053" lon="15.64853">
        <ele>277.756209</ele>
        <time>2022-08-06T11:46:44.701Z</time>
      </trkpt>
      <trkpt lat="46.50103" lon="15.64841">
        <ele>277.69293</ele>
        <time>2022-08-06T11:46:58.232Z</time>
      </trkpt>
      <trkpt lat="46.50152" lon="15.64839">
        <ele>277.629622</ele>
        <time>2022-08-06T11:47:11.570Z</time>
      </trkpt>
      <trkpt lat="46.50199" lon="15.64851">
        <ele>277.546782</ele>
        <time>2022-08-06T11:47:23.895Z</time>
      </trkpt>
      <trkpt lat="46.50224" lon="15.64868">
        <ele>277.38816</ele>
        <time>2022-08-06T11:47:30.704Z</time>
      </trkpt>
      <trkpt lat="46.50262" lon="15.64916">
        <ele>277.089567</ele>
        <time>2022-08-06T11:47:43.871Z</time>
      </trkpt>
      <trkpt lat="46.50302" lon="15.64959">
        <ele>276.799807</ele>
        <time>2022-08-06T11:47:56.504Z</time>
      </trkpt>
      <trkpt lat="46.50336" lon="15.64987">
        <ele>276.571364</ele>
        <time>2022-08-06T11:48:06.249Z</time>
      </trkpt>
      <trkpt lat="46.50425" lon="15.64993">
        <ele>276.014733</ele>
        <time>2022-08-06T11:48:28.294Z</time>
      </trkpt>
      <trkpt lat="46.50506" lon="15.65011">
        <ele>275.492488</ele>
        <time>2022-08-06T11:48:49.240Z</time>
      </trkpt>
      <trkpt lat="46.50597" lon="15.65041">
        <ele>274.991529</ele>
        <time>2022-08-06T11:49:13.477Z</time>
      </trkpt>
      <trkpt lat="46.5081" lon="15.65142">
        <ele>273.787006</ele>
        <time>2022-08-06T11:50:10.529Z</time>
      </trkpt>
      <trkpt lat="46.50847" lon="15.65168">
        <ele>273.559119</ele>
        <time>2022-08-06T11:50:21.203Z</time>
      </trkpt>
      <trkpt lat="46.50868" lon="15.65169">
        <ele>273.448479</ele>
        <time>2022-08-06T11:50:26.744Z</time>
      </trkpt>
      <trkpt lat="46.50881" lon="15.65159">
        <ele>273.392159</ele>
        <time>2022-08-06T11:50:30.610Z</time>
      </trkpt>
      <trkpt lat="46.50902" lon="15.6515">
        <ele>273.310423</ele>
        <time>2022-08-06T11:50:36.403Z</time>
      </trkpt>
      <trkpt lat="46.5093" lon="15.65154">
        <ele>273.207339</ele>
        <time>2022-08-06T11:50:43.683Z</time>
      </trkpt>
      <trkpt lat="46.51094" lon="15.65188">
        <ele>272.518672</ele>
        <time>2022-08-06T11:51:27.253Z</time>
      </trkpt>
      <trkpt lat="46.51229" lon="15.65196">
        <ele>271.867463</ele>
        <time>2022-08-06T11:52:01.637Z</time>
      </trkpt>
      <trkpt lat="46.51305" lon="15.65226">
        <ele>271.66048</ele>
        <time>2022-08-06T11:52:22.146Z</time>
      </trkpt>
      <trkpt lat="46.51374" lon="15.65216">
        <ele>271.478284</ele>
        <time>2022-08-06T11:52:40.816Z</time>
      </trkpt>
      <trkpt lat="46.51559" lon="15.65158">
        <ele>271.401345</ele>
        <time>2022-08-06T11:53:33.866Z</time>
      </trkpt>
      <trkpt lat="46.51612" lon="15.65133">
        <ele>271.441982</ele>
        <time>2022-08-06T11:53:48.912Z</time>
      </trkpt>
      <trkpt lat="46.51688" lon="15.65089">
        <ele>271.525639</ele>
        <time>2022-08-06T11:54:12.188Z</time>
      </trkpt>
      <trkpt lat="46.51702" lon="15.6514">
        <ele>271.564219</ele>
        <time>2022-08-06T11:54:22.833Z</time>
      </trkpt>
      <trkpt lat="46.51706" lon="15.65154">
        <ele>271.574752</ele>
        <time>2022-08-06T11:54:25.712Z</time>
      </trkpt>
      <trkpt lat="46.51707" lon="15.65159">
        <ele>271.578215</ele>
        <time>2022-08-06T11:54:26.678Z</time>
      </trkpt>
      <trkpt lat="46.5172" lon="15.65225">
        <ele>271.717453</ele>
        <time>2022-08-06T11:54:39.918Z</time>
      </trkpt>
      <trkpt lat="46.51721" lon="15.65233">
        <ele>271.735214</ele>
        <time>2022-08-06T11:54:41.578Z</time>
      </trkpt>
      <trkpt lat="46.51881" lon="15.65131">
        <ele>272.249834</ele>
        <time>2022-08-06T11:55:30.640Z</time>
      </trkpt>
      <trkpt lat="46.51962" lon="15.65066">
        <ele>272.477628</ele>
        <time>2022-08-06T11:55:56.492Z</time>
      </trkpt>
      <trkpt lat="46.52018" lon="15.65024">
        <ele>272.700899</ele>
        <time>2022-08-06T11:56:14.077Z</time>
      </trkpt>
      <trkpt lat="46.52053" lon="15.6501">
        <ele>272.909348</ele>
        <time>2022-08-06T11:56:23.885Z</time>
      </trkpt>
      <trkpt lat="46.52077" lon="15.65009">
        <ele>273.04823</ele>
        <time>2022-08-06T11:56:30.673Z</time>
      </trkpt>
      <trkpt lat="46.52076" lon="15.65006">
        <ele>273.061704</ele>
        <time>2022-08-06T11:56:31.339Z</time>
      </trkpt>
      <trkpt lat="46.5208" lon="15.64999">
        <ele>273.098466</ele>
        <time>2022-08-06T11:56:33.151Z</time>
      </trkpt>
      <trkpt lat="46.5208" lon="15.64987">
        <ele>273.147822</ele>
        <time>2022-08-06T11:56:35.582Z</time>
      </trkpt>
      <trkpt lat="46.52126" lon="15.64928">
        <ele>273.504643</ele>
        <time>2022-08-06T11:56:54.265Z</time>
      </trkpt>
      <trkpt lat="46.52174" lon="15.64887">
        <ele>273.968653</ele>
        <time>2022-08-06T11:57:11.743Z</time>
      </trkpt>
      <trkpt lat="46.52223" lon="15.64865">
        <ele>274.491988</ele>
        <time>2022-08-06T11:57:28.467Z</time>
      </trkpt>
      <trkpt lat="46.52282" lon="15.6485">
        <ele>275.096745</ele>
        <time>2022-08-06T11:57:47.392Z</time>
      </trkpt>
      <trkpt lat="46.52286" lon="15.64841">
        <ele>275.173498</ele>
        <time>2022-08-06T11:57:50.085Z</time>
      </trkpt>
      <trkpt lat="46.52316" lon="15.64838">
        <ele>275.467156</ele>
        <time>2022-08-06T11:57:59.249Z</time>
      </trkpt>
      <trkpt lat="46.5243" lon="15.64844">
        <ele>276.142683</ele>
        <time>2022-08-06T11:58:34.461Z</time>
      </trkpt>
      <trkpt lat="46.52446" lon="15.6485">
        <ele>276.240614</ele>
        <time>2022-08-06T11:58:38.879Z</time>
      </trkpt>
      <trkpt lat="46.52581" lon="15.64834">
        <ele>276.393602</ele>
        <time>2022-08-06T11:59:17.034Z</time>
      </trkpt>
      <trkpt lat="46.52598" lon="15.6483">
        <ele>276.369931</ele>
        <time>2022-08-06T11:59:21.385Z</time>
      </trkpt>
      <trkpt lat="46.52704" lon="15.64798">
        <ele>276.069374</ele>
        <time>2022-08-06T11:59:50.058Z</time>
      </trkpt>
      <trkpt lat="46.52761" lon="15.64774">
        <ele>275.737808</ele>
        <time>2022-08-06T12:00:05.023Z</time>
      </trkpt>
      <trkpt lat="46.52848" lon="15.64729">
        <ele>275.235101</ele>
        <time>2022-08-06T12:00:28.191Z</time>
      </trkpt>
      <trkpt lat="46.52892" lon="15.64699">
        <ele>275.077152</ele>
        <time>2022-08-06T12:00:40.587Z</time>
      </trkpt>
      <trkpt lat="46.52944" lon="15.64669">
        <ele>274.895029</ele>
        <time>2022-08-06T12:00:55.572Z</time>
      </trkpt>
      <trkpt lat="46.52951" lon="15.64662">
        <ele>274.868934</ele>
        <time>2022-08-06T12:00:57.731Z</time>
      </trkpt>
      <trkpt lat="46.52995" lon="15.64638">
        <ele>274.71791</ele>
        <time>2022-08-06T12:01:10.462Z</time>
      </trkpt>
      <trkpt lat="46.53077" lon="15.64607">
        <ele>274.753665</ele>
        <time>2022-08-06T12:01:33.953Z</time>
      </trkpt>
      <trkpt lat="46.53172" lon="15.64599">
        <ele>274.865408</ele>
        <time>2022-08-06T12:02:00.680Z</time>
      </trkpt>
      <trkpt lat="46.5322" lon="15.64604">
        <ele>275.148438</ele>
        <time>2022-08-06T12:02:15.507Z</time>
      </trkpt>
      <trkpt lat="46.53296" lon="15.64626">
        <ele>275.74381</ele>
        <time>2022-08-06T12:02:40.206Z</time>
      </trkpt>
      <trkpt lat="46.53375" lon="15.64653">
        <ele>276.328365</ele>
        <time>2022-08-06T12:03:06.763Z</time>
      </trkpt>
      <trkpt lat="46.53517" lon="15.64706">
        <ele>277.027461</ele>
        <time>2022-08-06T12:03:51.471Z</time>
      </trkpt>
      <trkpt lat="46.53584" lon="15.6475">
        <ele>276.794517</ele>
        <time>2022-08-06T12:04:10.975Z</time>
      </trkpt>
      <trkpt lat="46.53602" lon="15.64765">
        <ele>276.664731</ele>
        <time>2022-08-06T12:04:16.394Z</time>
      </trkpt>
      <trkpt lat="46.53674" lon="15.64842">
        <ele>276.114168</ele>
        <time>2022-08-06T12:04:37.948Z</time>
      </trkpt>
      <trkpt lat="46.53707" lon="15.64885">
        <ele>275.859553</ele>
        <time>2022-08-06T12:04:48.818Z</time>
      </trkpt>
      <trkpt lat="46.53718" lon="15.64878">
        <ele>275.791338</ele>
        <time>2022-08-06T12:04:51.848Z</time>
      </trkpt>
      <trkpt lat="46.5374" lon="15.64833">
        <ele>275.578976</ele>
        <time>2022-08-06T12:05:01.326Z</time>
      </trkpt>
      <trkpt lat="46.53752" lon="15.64808">
        <ele>275.46011</ele>
        <time>2022-08-06T12:05:06.714Z</time>
      </trkpt>
      <trkpt lat="46.53765" lon="15.64817">
        <ele>275.380542</ele>
        <time>2022-08-06T12:05:10.148Z</time>
      </trkpt>
      <trkpt lat="46.53824" lon="15.64829">
        <ele>275.045077</ele>
        <time>2022-08-06T12:05:24.918Z</time>
      </trkpt>
      <trkpt lat="46.53825" lon="15.64822">
        <ele>275.016215</ele>
        <time>2022-08-06T12:05:26.162Z</time>
      </trkpt>
      <trkpt lat="46.53856" lon="15.64834">
        <ele>275.086243</ele>
        <time>2022-08-06T12:05:39.340Z</time>
      </trkpt>
      <trkpt lat="46.53872" lon="15.64848">
        <ele>275.136973</ele>
        <time>2022-08-06T12:05:47.270Z</time>
      </trkpt>
      <trkpt lat="46.53953" lon="15.64977">
        <ele>275.464407</ele>
        <time>2022-08-06T12:06:43.509Z</time>
      </trkpt>
      <trkpt lat="46.53983" lon="15.64998">
        <ele>275.675249</ele>
        <time>2022-08-06T12:07:00.184Z</time>
      </trkpt>
      <trkpt lat="46.53998" lon="15.64988">
        <ele>275.815512</ele>
        <time>2022-08-06T12:07:08.756Z</time>
      </trkpt>
      <trkpt lat="46.53994" lon="15.64959">
        <ele>275.98434</ele>
        <time>2022-08-06T12:07:15.419Z</time>
      </trkpt>
      <trkpt lat="46.53965" lon="15.6485">
        <ele>276.651759</ele>
        <time>2022-08-06T12:07:39.744Z</time>
      </trkpt>
      <trkpt lat="46.53955" lon="15.64794">
        <ele>276.978779</ele>
        <time>2022-08-06T12:07:51.786Z</time>
      </trkpt>
      <trkpt lat="46.53963" lon="15.64792">
        <ele>276.983322</ele>
        <time>2022-08-06T12:07:54.026Z</time>
      </trkpt>
      <trkpt lat="46.53973" lon="15.6479">
        <ele>276.980738</ele>
        <time>2022-08-06T12:07:57.194Z</time>
      </trkpt>
      <trkpt lat="46.53978" lon="15.64789">
        <ele>276.979567</ele>
        <time>2022-08-06T12:07:58.655Z</time>
      </trkpt>
      <trkpt lat="46.53985" lon="15.64785">
        <ele>276.977745</ele>
        <time>2022-08-06T12:08:01.137Z</time>
      </trkpt>
      <trkpt lat="46.53993" lon="15.64791">
        <ele>276.975664</ele>
        <time>2022-08-06T12:08:03.866Z</time>
      </trkpt>
      <trkpt lat="46.53996" lon="15.64795">
        <ele>276.974724</ele>
        <time>2022-08-06T12:08:05.027Z</time>
      </trkpt>
      <trkpt lat="46.5401" lon="15.64788">
        <ele>276.971233</ele>
        <time>2022-08-06T12:08:09.020Z</time>
      </trkpt>
      <trkpt lat="46.54102" lon="15.64828">
        <ele>276.948218</ele>
        <time>2022-08-06T12:08:34.946Z</time>
      </trkpt>
      <trkpt lat="46.54229" lon="15.6489">
        <ele>276.199912</ele>
        <time>2022-08-06T12:09:08.149Z</time>
      </trkpt>
      <trkpt lat="46.54231" lon="15.64888">
        <ele>276.180613</ele>
        <time>2022-08-06T12:09:08.877Z</time>
      </trkpt>
      <trkpt lat="46.54244" lon="15.6489">
        <ele>276.088069</ele>
        <time>2022-08-06T12:09:12.225Z</time>
      </trkpt>
      <trkpt lat="46.54253" lon="15.64892">
        <ele>276.025014</ele>
        <time>2022-08-06T12:09:14.502Z</time>
      </trkpt>
      <trkpt lat="46.54293" lon="15.64901">
        <ele>275.746846</ele>
        <time>2022-08-06T12:09:24.548Z</time>
      </trkpt>
      <trkpt lat="46.5436" lon="15.64909">
        <ele>275.701818</ele>
        <time>2022-08-06T12:09:41.767Z</time>
      </trkpt>
      <trkpt lat="46.54423" lon="15.64904">
        <ele>275.706096</ele>
        <time>2022-08-06T12:09:58.539Z</time>
      </trkpt>
      <trkpt lat="46.54448" lon="15.64905">
        <ele>275.707805</ele>
        <time>2022-08-06T12:10:05.752Z</time>
      </trkpt>
      <trkpt lat="46.54553" lon="15.64895">
        <ele>276.444466</ele>
        <time>2022-08-06T12:10:41.593Z</time>
      </trkpt>
      <trkpt lat="46.54691" lon="15.64892">
        <ele>277.358796</ele>
        <time>2022-08-06T12:11:26.416Z</time>
      </trkpt>
      <trkpt lat="46.54708" lon="15.64895">
        <ele>277.285602</ele>
        <time>2022-08-06T12:11:31.329Z</time>
      </trkpt>
      <trkpt lat="46.54724" lon="15.6489">
        <ele>277.214616</ele>
        <time>2022-08-06T12:11:35.805Z</time>
      </trkpt>
      <trkpt lat="46.54818" lon="15.64887">
        <ele>276.806543</ele>
        <time>2022-08-06T12:11:59.202Z</time>
      </trkpt>
      <trkpt lat="46.54837" lon="15.64888">
        <ele>276.725328</ele>
        <time>2022-08-06T12:12:03.449Z</time>
      </trkpt>
      <trkpt lat="46.54871" lon="15.64901">
        <ele>276.315012</ele>
        <time>2022-08-06T12:12:11.127Z</time>
      </trkpt>
      <trkpt lat="46.55072" lon="15.64994">
        <ele>274.394733</ele>
        <time>2022-08-06T12:13:01.837Z</time>
      </trkpt>
      <trkpt lat="46.55092" lon="15.6501">
        <ele>274.347314</ele>
        <time>2022-08-06T12:13:08.329Z</time>
      </trkpt>
      <trkpt lat="46.55096" lon="15.65024">
        <ele>274.324984</ele>
        <time>2022-08-06T12:13:11.204Z</time>
      </trkpt>
      <trkpt lat="46.55104" lon="15.65027">
        <ele>274.307013</ele>
        <time>2022-08-06T12:13:13.717Z</time>
      </trkpt>
      <trkpt lat="46.55112" lon="15.65029">
        <ele>274.289979</ele>
        <time>2022-08-06T12:13:16.083Z</time>
      </trkpt>
      <trkpt lat="46.55139" lon="15.65014">
        <ele>274.229768</ele>
        <time>2022-08-06T12:13:24.654Z</time>
      </trkpt>
      <trkpt lat="46.5518" lon="15.65025">
        <ele>274.127027</ele>
        <time>2022-08-06T12:13:37.294Z</time>
      </trkpt>
      <trkpt lat="46.55293" lon="15.65047">
        <ele>273.583873</ele>
        <time>2022-08-06T12:14:09.868Z</time>
      </trkpt>
      <trkpt lat="46.5536" lon="15.65056">
        <ele>273.091858</ele>
        <time>2022-08-06T12:14:25.820Z</time>
      </trkpt>
      <trkpt lat="46.55411" lon="15.6506">
        <ele>271.567067</ele>
        <time>2022-08-06T12:14:36.364Z</time>
      </trkpt>
      <trkpt lat="46.55432" lon="15.65079">
        <ele>270.817466</ele>
        <time>2022-08-06T12:14:41.427Z</time>
      </trkpt>
      <trkpt lat="46.55435" lon="15.65074">
        <ele>270.696761</ele>
        <time>2022-08-06T12:14:42.168Z</time>
      </trkpt>
      <trkpt lat="46.55454" lon="15.65071">
        <ele>270.110963</ele>
        <time>2022-08-06T12:14:45.796Z</time>
      </trkpt>
      <trkpt lat="46.55459" lon="15.65077">
        <ele>269.917065</ele>
        <time>2022-08-06T12:14:47.013Z</time>
      </trkpt>
      <trkpt lat="46.55461" lon="15.65081">
        <ele>269.812712</ele>
        <time>2022-08-06T12:14:47.664Z</time>
      </trkpt>
      <trkpt lat="46.55476" lon="15.65071">
        <ele>269.315292</ele>
        <time>2022-08-06T12:14:50.668Z</time>
      </trkpt>
      <trkpt lat="46.55481" lon="15.6507">
        <ele>269.16253</ele>
        <time>2022-08-06T12:14:51.603Z</time>
      </trkpt>
      <trkpt lat="46.5568" lon="15.65094">
        <ele>264.988475</ele>
        <time>2022-08-06T12:15:31.949Z</time>
      </trkpt>
      <trkpt lat="46.55726" lon="15.65101">
        <ele>265.21836</ele>
        <time>2022-08-06T12:15:47.284Z</time>
      </trkpt>
      <trkpt lat="46.55754" lon="15.65106">
        <ele>265.980549</ele>
        <time>2022-08-06T12:15:57.866Z</time>
      </trkpt>
      <trkpt lat="46.55781" lon="15.65113">
        <ele>266.742198</ele>
        <time>2022-08-06T12:16:09.449Z</time>
      </trkpt>
      <trkpt lat="46.55792" lon="15.65128">
        <ele>267.148591</ele>
        <time>2022-08-06T12:16:15.747Z</time>
      </trkpt>
      <trkpt lat="46.55794" lon="15.65143">
        <ele>267.441763</ele>
        <time>2022-08-06T12:16:21.018Z</time>
      </trkpt>
      <trkpt lat="46.55794" lon="15.65151">
        <ele>267.587836</ele>
        <time>2022-08-06T12:16:23.350Z</time>
      </trkpt>
      <trkpt lat="46.55799" lon="15.65151">
        <ele>267.714397</ele>
        <time>2022-08-06T12:16:25.376Z</time>
      </trkpt>
      <trkpt lat="46.55806" lon="15.65152">
        <ele>267.912913</ele>
        <time>2022-08-06T12:16:28.792Z</time>
      </trkpt>
      <trkpt lat="46.55812" lon="15.65135">
        <ele>268.264323</ele>
        <time>2022-08-06T12:16:34.999Z</time>
      </trkpt>
      <trkpt lat="46.55825" lon="15.65127">
        <ele>268.662473</ele>
        <time>2022-08-06T12:16:42.176Z</time>
      </trkpt>
      <trkpt lat="46.55898" lon="15.65136">
        <ele>269.934275</ele>
        <time>2022-08-06T12:17:13.706Z</time>
      </trkpt>
      <trkpt lat="46.55923" lon="15.65138">
        <ele>270.187403</ele>
        <time>2022-08-06T12:17:22.149Z</time>
      </trkpt>
      <trkpt lat="46.55988" lon="15.65146">
        <ele>270.84395</ele>
        <time>2022-08-06T12:17:40.362Z</time>
      </trkpt>
      <trkpt lat="46.56009" lon="15.65154">
        <ele>271.062412</ele>
        <time>2022-08-06T12:17:45.777Z</time>
      </trkpt>
      <trkpt lat="46.56027" lon="15.65184">
        <ele>271.310108</ele>
        <time>2022-08-06T12:17:54.674Z</time>
      </trkpt>
      <trkpt lat="46.56028" lon="15.65186">
        <ele>271.295607</ele>
        <time>2022-08-06T12:17:55.040Z</time>
      </trkpt>
      <trkpt lat="46.56034" lon="15.65264">
        <ele>270.774291</ele>
        <time>2022-08-06T12:18:07.958Z</time>
      </trkpt>
      <trkpt lat="46.56037" lon="15.65295">
        <ele>270.564483</ele>
        <time>2022-08-06T12:18:12.946Z</time>
      </trkpt>
      <trkpt lat="46.56047" lon="15.65404">
        <ele>269.8352</ele>
        <time>2022-08-06T12:18:30.601Z</time>
      </trkpt>
      <trkpt lat="46.56065" lon="15.65554">
        <ele>269.785575</ele>
        <time>2022-08-06T12:18:58.838Z</time>
      </trkpt>
      <trkpt lat="46.56076" lon="15.65555">
        <ele>269.813325</ele>
        <time>2022-08-06T12:19:01.949Z</time>
      </trkpt>
      <trkpt lat="46.56085" lon="15.65557">
        <ele>269.835812</ele>
        <time>2022-08-06T12:19:04.575Z</time>
      </trkpt>
      <trkpt lat="46.56094" lon="15.65574">
        <ele>269.873956</ele>
        <time>2022-08-06T12:19:08.937Z</time>
      </trkpt>
      <trkpt lat="46.56142" lon="15.65642">
        <ele>270.050812</ele>
        <time>2022-08-06T12:19:29.367Z</time>
      </trkpt>
      <trkpt lat="46.5616" lon="15.65662">
        <ele>270.223434</ele>
        <time>2022-08-06T12:19:36.149Z</time>
      </trkpt>
      <trkpt lat="46.5617" lon="15.65667">
        <ele>270.306077</ele>
        <time>2022-08-06T12:19:39.709Z</time>
      </trkpt>
      <trkpt lat="46.56174" lon="15.6567">
        <ele>270.338878</ele>
        <time>2022-08-06T12:19:40.978Z</time>
      </trkpt>
      <trkpt lat="46.56204" lon="15.65696">
        <ele>270.607125</ele>
        <time>2022-08-06T12:19:52.029Z</time>
      </trkpt>
      <trkpt lat="46.56201" lon="15.65704">
        <ele>270.656523</ele>
        <time>2022-08-06T12:19:53.870Z</time>
      </trkpt>
      <trkpt lat="46.56204" lon="15.65706">
        <ele>270.683123</ele>
        <time>2022-08-06T12:19:54.969Z</time>
      </trkpt>
      <trkpt lat="46.56226" lon="15.65723">
        <ele>270.868754</ele>
        <time>2022-08-06T12:20:02.789Z</time>
      </trkpt>
      <trkpt lat="46.56302" lon="15.65778">
        <ele>271.495183</ele>
        <time>2022-08-06T12:20:29.130Z</time>
      </trkpt>
      <trkpt lat="46.56305" lon="15.6578">
        <ele>271.513214</ele>
        <time>2022-08-06T12:20:30.106Z</time>
      </trkpt>
      <trkpt lat="46.5631" lon="15.65783">
        <ele>271.543177</ele>
        <time>2022-08-06T12:20:31.740Z</time>
      </trkpt>
      <trkpt lat="46.56437" lon="15.65858">
        <ele>272.313357</ele>
        <time>2022-08-06T12:21:12.932Z</time>
      </trkpt>
      <trkpt lat="46.56526" lon="15.65906">
        <ele>273.396242</ele>
        <time>2022-08-06T12:21:42.915Z</time>
      </trkpt>
      <trkpt lat="46.56538" lon="15.65913">
        <ele>273.567548</ele>
        <time>2022-08-06T12:21:47.298Z</time>
      </trkpt>
      <trkpt lat="46.56569" lon="15.65931">
        <ele>274.012262</ele>
        <time>2022-08-06T12:21:59.117Z</time>
      </trkpt>
      <trkpt lat="46.5659" lon="15.65942">
        <ele>274.303472</ele>
        <time>2022-08-06T12:22:06.779Z</time>
      </trkpt>
      <trkpt lat="46.56644" lon="15.65953">
        <ele>275.162041</ele>
        <time>2022-08-06T12:22:26.193Z</time>
      </trkpt>
      <trkpt lat="46.56681" lon="15.65936">
        <ele>276.034834</ele>
        <time>2022-08-06T12:22:40.603Z</time>
      </trkpt>
      <trkpt lat="46.56712" lon="15.65911">
        <ele>276.817458</ele>
        <time>2022-08-06T12:22:54.065Z</time>
      </trkpt>
      <trkpt lat="46.56732" lon="15.65895">
        <ele>277.316904</ele>
        <time>2022-08-06T12:23:02.834Z</time>
      </trkpt>
      <trkpt lat="46.56806" lon="15.65853">
        <ele>278.966172</ele>
        <time>2022-08-06T12:23:33.441Z</time>
      </trkpt>
      <trkpt lat="46.56898" lon="15.6583">
        <ele>280.283758</ele>
        <time>2022-08-06T12:24:06.330Z</time>
      </trkpt>
      <trkpt lat="46.56924" lon="15.65827">
        <ele>280.642362</ele>
        <time>2022-08-06T12:24:14.350Z</time>
      </trkpt>
      <trkpt lat="46.5699" lon="15.65822">
        <ele>281.313285</ele>
        <time>2022-08-06T12:24:33.895Z</time>
      </trkpt>
      <trkpt lat="46.57078" lon="15.65812">
        <ele>281.392126</ele>
        <time>2022-08-06T12:24:58.170Z</time>
      </trkpt>
      <trkpt lat="46.57225" lon="15.65799">
        <ele>281.658675</ele>
        <time>2022-08-06T12:25:36.080Z</time>
      </trkpt>
      <trkpt lat="46.57405" lon="15.65782">
        <ele>282.739599</ele>
        <time>2022-08-06T12:26:29.335Z</time>
      </trkpt>
      <trkpt lat="46.57622" lon="15.65762">
        <ele>285.459895</ele>
        <time>2022-08-06T12:27:41.838Z</time>
      </trkpt>
      <trkpt lat="46.57682" lon="15.65763">
        <ele>286.316449</ele>
        <time>2022-08-06T12:28:02.291Z</time>
      </trkpt>
      <trkpt lat="46.5774" lon="15.65785">
        <ele>287.380738</ele>
        <time>2022-08-06T12:28:22.719Z</time>
      </trkpt>
      <trkpt lat="46.57841" lon="15.65871">
        <ele>289.490036</ele>
        <time>2022-08-06T12:29:03.449Z</time>
      </trkpt>
      <trkpt lat="46.5793" lon="15.65936">
        <ele>291.936812</ele>
        <time>2022-08-06T12:29:42.571Z</time>
      </trkpt>
      <trkpt lat="46.57966" lon="15.65984">
        <ele>293.149064</ele>
        <time>2022-08-06T12:30:02.777Z</time>
      </trkpt>
      <trkpt lat="46.58069" lon="15.66175">
        <ele>295.836984</ele>
        <time>2022-08-06T12:31:04.324Z</time>
      </trkpt>
      <trkpt lat="46.58109" lon="15.66301">
        <ele>296.346546</ele>
        <time>2022-08-06T12:31:28.067Z</time>
      </trkpt>
      <trkpt lat="46.58169" lon="15.66479">
        <ele>295.680692</ele>
        <time>2022-08-06T12:31:59.911Z</time>
      </trkpt>
      <trkpt lat="46.58199" lon="15.66539">
        <ele>296.660615</ele>
        <time>2022-08-06T12:32:15.639Z</time>
      </trkpt>
      <trkpt lat="46.58223" lon="15.66563">
        <ele>297.257412</ele>
        <time>2022-08-06T12:32:25.746Z</time>
      </trkpt>
      <trkpt lat="46.58252" lon="15.66576">
        <ele>297.87502</ele>
        <time>2022-08-06T12:32:37.217Z</time>
      </trkpt>
      <trkpt lat="46.58514" lon="15.66573">
        <ele>306.096335</ele>
        <time>2022-08-06T12:34:30.888Z</time>
      </trkpt>
      <trkpt lat="46.58557" lon="15.66561">
        <ele>307.82447</ele>
        <time>2022-08-06T12:34:50.228Z</time>
      </trkpt>
      <trkpt lat="46.58594" lon="15.66534">
        <ele>309.448268</ele>
        <time>2022-08-06T12:35:10.445Z</time>
      </trkpt>
      <trkpt lat="46.58641" lon="15.66461">
        <ele>312.131418</ele>
        <time>2022-08-06T12:35:45.986Z</time>
      </trkpt>
      <trkpt lat="46.58705" lon="15.66333">
        <ele>311.603772</ele>
        <time>2022-08-06T12:36:22.854Z</time>
      </trkpt>
      <trkpt lat="46.58734" lon="15.66279">
        <ele>311.031325</ele>
        <time>2022-08-06T12:36:32.631Z</time>
      </trkpt>
      <trkpt lat="46.58783" lon="15.66247">
        <ele>309.293283</ele>
        <time>2022-08-06T12:36:42.077Z</time>
      </trkpt>
      <trkpt lat="46.58834" lon="15.66244">
        <ele>304.846376</ele>
        <time>2022-08-06T12:36:50.582Z</time>
      </trkpt>
      <trkpt lat="46.58861" lon="15.66251">
        <ele>302.529698</ele>
        <time>2022-08-06T12:36:54.896Z</time>
      </trkpt>
      <trkpt lat="46.58896" lon="15.66274">
        <ele>299.141393</ele>
        <time>2022-08-06T12:37:01.180Z</time>
      </trkpt>
      <trkpt lat="46.58973" lon="15.66366">
        <ele>291.495112</ele>
        <time>2022-08-06T12:37:17.817Z</time>
      </trkpt>
      <trkpt lat="46.59053" lon="15.66398">
        <ele>285.941197</ele>
        <time>2022-08-06T12:37:32.299Z</time>
      </trkpt>
      <trkpt lat="46.59074" lon="15.66411">
        <ele>284.401306</ele>
        <time>2022-08-06T12:37:36.469Z</time>
      </trkpt>
      <trkpt lat="46.59098" lon="15.66439">
        <ele>282.443067</ele>
        <time>2022-08-06T12:37:42.036Z</time>
      </trkpt>
      <trkpt lat="46.5916" lon="15.66599">
        <ele>275.665428</ele>
        <time>2022-08-06T12:38:04.273Z</time>
      </trkpt>
      <trkpt lat="46.59184" lon="15.66623">
        <ele>274.091957</ele>
        <time>2022-08-06T12:38:09.546Z</time>
      </trkpt>
      <trkpt lat="46.59205" lon="15.66634">
        <ele>273.019612</ele>
        <time>2022-08-06T12:38:13.605Z</time>
      </trkpt>
      <trkpt lat="46.59249" lon="15.6664">
        <ele>271.700353</ele>
        <time>2022-08-06T12:38:22.142Z</time>
      </trkpt>
      <trkpt lat="46.59257" lon="15.66649">
        <ele>271.392422</ele>
        <time>2022-08-06T12:38:24.091Z</time>
      </trkpt>
      <trkpt lat="46.5928" lon="15.66657">
        <ele>270.70956</ele>
        <time>2022-08-06T12:38:28.748Z</time>
      </trkpt>
      <trkpt lat="46.59284" lon="15.6665">
        <ele>270.531047</ele>
        <time>2022-08-06T12:38:29.937Z</time>
      </trkpt>
      <trkpt lat="46.59286" lon="15.66635">
        <ele>270.216419</ele>
        <time>2022-08-06T12:38:32.026Z</time>
      </trkpt>
      <trkpt lat="46.59288" lon="15.66628">
        <ele>270.061856</ele>
        <time>2022-08-06T12:38:33.110Z</time>
      </trkpt>
      <trkpt lat="46.59303" lon="15.66621">
        <ele>269.606945</ele>
        <time>2022-08-06T12:38:36.362Z</time>
      </trkpt>
      <trkpt lat="46.59345" lon="15.66589">
        <ele>268.202565</ele>
        <time>2022-08-06T12:38:46.331Z</time>
      </trkpt>
      <trkpt lat="46.59374" lon="15.66584">
        <ele>267.690569</ele>
        <time>2022-08-06T12:38:53.029Z</time>
      </trkpt>
      <trkpt lat="46.59404" lon="15.66589">
        <ele>267.373614</ele>
        <time>2022-08-06T12:39:00.285Z</time>
      </trkpt>
      <trkpt lat="46.5945" lon="15.66621">
        <ele>266.830709</ele>
        <time>2022-08-06T12:39:12.525Z</time>
      </trkpt>
      <trkpt lat="46.59503" lon="15.66618">
        <ele>266.270717</ele>
        <time>2022-08-06T12:39:25.240Z</time>
      </trkpt>
      <trkpt lat="46.59506" lon="15.66624">
        <ele>266.215747</ele>
        <time>2022-08-06T12:39:26.404Z</time>
      </trkpt>
      <trkpt lat="46.5951" lon="15.6664">
        <ele>266.09521</ele>
        <time>2022-08-06T12:39:28.796Z</time>
      </trkpt>
      <trkpt lat="46.59471" lon="15.66676">
        <ele>265.235526</ele>
        <time>2022-08-06T12:39:39.067Z</time>
      </trkpt>
      <trkpt lat="46.59448" lon="15.66707">
        <ele>264.56087</ele>
        <time>2022-08-06T12:39:45.840Z</time>
      </trkpt>
      <trkpt lat="46.59441" lon="15.66761">
        <ele>263.760343</ele>
        <time>2022-08-06T12:39:53.783Z</time>
      </trkpt>
      <trkpt lat="46.59446" lon="15.66782">
        <ele>263.442963</ele>
        <time>2022-08-06T12:39:57.000Z</time>
      </trkpt>
      <trkpt lat="46.59457" lon="15.668">
        <ele>263.084847</ele>
        <time>2022-08-06T12:40:00.351Z</time>
      </trkpt>
      <trkpt lat="46.59559" lon="15.66903">
        <ele>259.907348</ele>
        <time>2022-08-06T12:40:25.239Z</time>
      </trkpt>
      <trkpt lat="46.59563" lon="15.66928">
        <ele>259.413449</ele>
        <time>2022-08-06T12:40:28.615Z</time>
      </trkpt>
      <trkpt lat="46.59542" lon="15.66958">
        <ele>258.583487</ele>
        <time>2022-08-06T12:40:34.703Z</time>
      </trkpt>
      <trkpt lat="46.5954" lon="15.66967">
        <ele>258.418889</ele>
        <time>2022-08-06T12:40:35.788Z</time>
      </trkpt>
      <trkpt lat="46.59573" lon="15.67004">
        <ele>257.249722</ele>
        <time>2022-08-06T12:40:44.297Z</time>
      </trkpt>
      <trkpt lat="46.59591" lon="15.6703">
        <ele>256.75927</ele>
        <time>2022-08-06T12:40:49.412Z</time>
      </trkpt>
      <trkpt lat="46.5966" lon="15.67135">
        <ele>254.860932</ele>
        <time>2022-08-06T12:41:10.254Z</time>
      </trkpt>
      <trkpt lat="46.59671" lon="15.67153">
        <ele>254.557723</ele>
        <time>2022-08-06T12:41:13.726Z</time>
      </trkpt>
      <trkpt lat="46.59689" lon="15.67187">
        <ele>253.993081</ele>
        <time>2022-08-06T12:41:20.487Z</time>
      </trkpt>
      <trkpt lat="46.59715" lon="15.67162">
        <ele>253.655841</ele>
        <time>2022-08-06T12:41:27.721Z</time>
      </trkpt>
      <trkpt lat="46.59727" lon="15.6716">
        <ele>253.579875</ele>
        <time>2022-08-06T12:41:30.725Z</time>
      </trkpt>
      <trkpt lat="46.59803" lon="15.67201">
        <ele>253.089179</ele>
        <time>2022-08-06T12:41:50.231Z</time>
      </trkpt>
      <trkpt lat="46.59828" lon="15.67215">
        <ele>252.932725</ele>
        <time>2022-08-06T12:41:56.738Z</time>
      </trkpt>
      <trkpt lat="46.59844" lon="15.67225">
        <ele>252.825834</ele>
        <time>2022-08-06T12:42:01.269Z</time>
      </trkpt>
      <trkpt lat="46.59899" lon="15.67265">
        <ele>252.742774</ele>
        <time>2022-08-06T12:42:17.394Z</time>
      </trkpt>
      <trkpt lat="46.5994" lon="15.67305">
        <ele>252.816425</ele>
        <time>2022-08-06T12:42:30.579Z</time>
      </trkpt>
      <trkpt lat="46.60045" lon="15.67452">
        <ele>253.075854</ele>
        <time>2022-08-06T12:43:12.020Z</time>
      </trkpt>
      <trkpt lat="46.60052" lon="15.67457">
        <ele>253.093456</ele>
        <time>2022-08-06T12:43:14.068Z</time>
      </trkpt>
      <trkpt lat="46.60063" lon="15.67455">
        <ele>253.118498</ele>
        <time>2022-08-06T12:43:16.965Z</time>
      </trkpt>
      <trkpt lat="46.60067" lon="15.67459">
        <ele>253.131501</ele>
        <time>2022-08-06T12:43:18.603Z</time>
      </trkpt>
      <trkpt lat="46.60096" lon="15.67497">
        <ele>253.218286</ele>
        <time>2022-08-06T12:43:29.182Z</time>
      </trkpt>
      <trkpt lat="46.60101" lon="15.6749">
        <ele>253.234988</ele>
        <time>2022-08-06T12:43:31.380Z</time>
      </trkpt>
      <trkpt lat="46.60106" lon="15.67485">
        <ele>253.248809</ele>
        <time>2022-08-06T12:43:33.035Z</time>
      </trkpt>
      <trkpt lat="46.60119" lon="15.6749">
        <ele>253.279451</ele>
        <time>2022-08-06T12:43:36.520Z</time>
      </trkpt>
      <trkpt lat="46.60128" lon="15.67485">
        <ele>253.300925</ele>
        <time>2022-08-06T12:43:39.279Z</time>
      </trkpt>
      <trkpt lat="46.60135" lon="15.67479">
        <ele>253.318758</ele>
        <time>2022-08-06T12:43:41.655Z</time>
      </trkpt>
      <trkpt lat="46.60135" lon="15.67476">
        <ele>253.323814</ele>
        <time>2022-08-06T12:43:42.251Z</time>
      </trkpt>
      <trkpt lat="46.60136" lon="15.67445">
        <ele>253.367201</ele>
        <time>2022-08-06T12:43:47.832Z</time>
      </trkpt>
      <trkpt lat="46.60134" lon="15.67411">
        <ele>253.395342</ele>
        <time>2022-08-06T12:43:54.571Z</time>
      </trkpt>
      <trkpt lat="46.60134" lon="15.67404">
        <ele>253.40035</ele>
        <time>2022-08-06T12:43:55.699Z</time>
      </trkpt>
      <trkpt lat="46.60127" lon="15.67365">
        <ele>253.433213</ele>
        <time>2022-08-06T12:44:03.705Z</time>
      </trkpt>
      <trkpt lat="46.60124" lon="15.67281">
        <ele>253.501656</ele>
        <time>2022-08-06T12:44:19.473Z</time>
      </trkpt>
      <trkpt lat="46.60145" lon="15.67174">
        <ele>253.682076</ele>
        <time>2022-08-06T12:44:39.152Z</time>
      </trkpt>
      <trkpt lat="46.60202" lon="15.66994">
        <ele>254.680889</ele>
        <time>2022-08-06T12:45:19.493Z</time>
      </trkpt>
      <trkpt lat="46.60224" lon="15.66958">
        <ele>254.964037</ele>
        <time>2022-08-06T12:45:30.550Z</time>
      </trkpt>
      <trkpt lat="46.60231" lon="15.66954">
        <ele>255.124061</ele>
        <time>2022-08-06T12:45:33.347Z</time>
      </trkpt>
      <trkpt lat="46.60266" lon="15.66965">
        <ele>255.824918</ele>
        <time>2022-08-06T12:45:46.408Z</time>
      </trkpt>
      <trkpt lat="46.60277" lon="15.66963">
        <ele>256.058742</ele>
        <time>2022-08-06T12:45:50.700Z</time>
      </trkpt>
      <trkpt lat="46.60286" lon="15.66953">
        <ele>256.274794</ele>
        <time>2022-08-06T12:45:55.005Z</time>
      </trkpt>
      <trkpt lat="46.60367" lon="15.6681">
        <ele>258.653623</ele>
        <time>2022-08-06T12:46:44.005Z</time>
      </trkpt>
      <trkpt lat="46.60417" lon="15.66731">
        <ele>259.519942</ele>
        <time>2022-08-06T12:47:11.412Z</time>
      </trkpt>
      <trkpt lat="46.60515" lon="15.66614">
        <ele>260.643927</ele>
        <time>2022-08-06T12:47:48.375Z</time>
      </trkpt>
      <trkpt lat="46.60567" lon="15.66519">
        <ele>260.836042</ele>
        <time>2022-08-06T12:48:11.443Z</time>
      </trkpt>
      <trkpt lat="46.60613" lon="15.66469">
        <ele>260.969731</ele>
        <time>2022-08-06T12:48:28.504Z</time>
      </trkpt>
      <trkpt lat="46.60656" lon="15.6644">
        <ele>261.484133</ele>
        <time>2022-08-06T12:48:42.937Z</time>
      </trkpt>
      <trkpt lat="46.60682" lon="15.66432">
        <ele>261.772648</ele>
        <time>2022-08-06T12:48:51.421Z</time>
      </trkpt>
      <trkpt lat="46.60811" lon="15.66421">
        <ele>263.224413</ele>
        <time>2022-08-06T12:49:36.307Z</time>
      </trkpt>
      <trkpt lat="46.60892" lon="15.66412">
        <ele>264.202827</ele>
        <time>2022-08-06T12:50:03.425Z</time>
      </trkpt>
      <trkpt lat="46.60931" lon="15.66431">
        <ele>264.692764</ele>
        <time>2022-08-06T12:50:16.709Z</time>
      </trkpt>
      <trkpt lat="46.60985" lon="15.66473">
        <ele>265.363083</ele>
        <time>2022-08-06T12:50:35.537Z</time>
      </trkpt>
      <trkpt lat="46.61028" lon="15.66486">
        <ele>265.791065</ele>
        <time>2022-08-06T12:50:49.096Z</time>
      </trkpt>
      <trkpt lat="46.61076" lon="15.66476">
        <ele>266.257427</ele>
        <time>2022-08-06T12:51:04.368Z</time>
      </trkpt>
      <trkpt lat="46.61123" lon="15.66454">
        <ele>266.737038</ele>
        <time>2022-08-06T12:51:20.140Z</time>
      </trkpt>
      <trkpt lat="46.61166" lon="15.66448">
        <ele>267.05053</ele>
        <time>2022-08-06T12:51:33.786Z</time>
      </trkpt>
      <trkpt lat="46.61282" lon="15.66485">
        <ele>267.819807</ele>
        <time>2022-08-06T12:52:09.674Z</time>
      </trkpt>
      <trkpt lat="46.61305" lon="15.66489">
        <ele>267.96984</ele>
        <time>2022-08-06T12:52:16.560Z</time>
      </trkpt>
      <trkpt lat="46.61337" lon="15.66485">
        <ele>267.741531</ele>
        <time>2022-08-06T12:52:25.236Z</time>
      </trkpt>
      <trkpt lat="46.61397" lon="15.66499">
        <ele>267.082623</ele>
        <time>2022-08-06T12:52:39.461Z</time>
      </trkpt>
      <trkpt lat="46.61432" lon="15.6649">
        <ele>266.691324</ele>
        <time>2022-08-06T12:52:47.254Z</time>
      </trkpt>
      <trkpt lat="46.61451" lon="15.66477">
        <ele>266.464966</ele>
        <time>2022-08-06T12:52:51.746Z</time>
      </trkpt>
      <trkpt lat="46.61471" lon="15.66457">
        <ele>266.2028</ele>
        <time>2022-08-06T12:52:56.709Z</time>
      </trkpt>
      <trkpt lat="46.61499" lon="15.66408">
        <ele>266.073145</ele>
        <time>2022-08-06T12:53:06.143Z</time>
      </trkpt>
      <trkpt lat="46.61508" lon="15.66389">
        <ele>266.079204</ele>
        <time>2022-08-06T12:53:09.511Z</time>
      </trkpt>
      <trkpt lat="46.61551" lon="15.66299">
        <ele>266.108148</ele>
        <time>2022-08-06T12:53:28.691Z</time>
      </trkpt>
      <trkpt lat="46.61579" lon="15.66265">
        <ele>266.122352</ele>
        <time>2022-08-06T12:53:40.930Z</time>
      </trkpt>
      <trkpt lat="46.61581" lon="15.66262">
        <ele>266.12338</ele>
        <time>2022-08-06T12:53:41.996Z</time>
      </trkpt>
      <trkpt lat="46.61623" lon="15.66254">
        <ele>266.496333</ele>
        <time>2022-08-06T12:53:58.626Z</time>
      </trkpt>
      <trkpt lat="46.61733" lon="15.66268">
        <ele>268.191242</ele>
        <time>2022-08-06T12:54:39.598Z</time>
      </trkpt>
      <trkpt lat="46.61783" lon="15.66246">
        <ele>268.830863</ele>
        <time>2022-08-06T12:54:55.343Z</time>
      </trkpt>
      <trkpt lat="46.61813" lon="15.66212">
        <ele>268.298985</ele>
        <time>2022-08-06T12:55:04.514Z</time>
      </trkpt>
      <trkpt lat="46.61834" lon="15.66169">
        <ele>267.812834</ele>
        <time>2022-08-06T12:55:12.071Z</time>
      </trkpt>
      <trkpt lat="46.61872" lon="15.66023">
        <ele>266.484625</ele>
        <time>2022-08-06T12:55:34.166Z</time>
      </trkpt>
      <trkpt lat="46.61902" lon="15.65979">
        <ele>266.671256</ele>
        <time>2022-08-06T12:55:44.334Z</time>
      </trkpt>
      <trkpt lat="46.62019" lon="15.65928">
        <ele>267.20813</ele>
        <time>2022-08-06T12:56:25.810Z</time>
      </trkpt>
      <trkpt lat="46.62093" lon="15.65925">
        <ele>267.285417</ele>
        <time>2022-08-06T12:56:47.404Z</time>
      </trkpt>
      <trkpt lat="46.62151" lon="15.65912">
        <ele>267.326051</ele>
        <time>2022-08-06T12:57:03.599Z</time>
      </trkpt>
      <trkpt lat="46.62151" lon="15.65895">
        <ele>267.334077</ele>
        <time>2022-08-06T12:57:05.930Z</time>
      </trkpt>
      <trkpt lat="46.62137" lon="15.6579">
        <ele>267.387407</ele>
        <time>2022-08-06T12:57:24.443Z</time>
      </trkpt>
      <trkpt lat="46.62134" lon="15.65768">
        <ele>267.399473</ele>
        <time>2022-08-06T12:57:29.243Z</time>
      </trkpt>
      <trkpt lat="46.62158" lon="15.65761">
        <ele>267.418325</ele>
        <time>2022-08-06T12:57:34.811Z</time>
      </trkpt>
      <trkpt lat="46.62215" lon="15.65777">
        <ele>267.463044</ele>
        <time>2022-08-06T12:57:48.955Z</time>
      </trkpt>
      <trkpt lat="46.62269" lon="15.65773">
        <ele>267.549857</ele>
        <time>2022-08-06T12:58:06.787Z</time>
      </trkpt>
      <trkpt lat="46.62378" lon="15.65744">
        <ele>269.194465</ele>
        <time>2022-08-06T12:58:47.285Z</time>
      </trkpt>
      <trkpt lat="46.62575" lon="15.65732">
        <ele>270.748562</ele>
        <time>2022-08-06T12:59:48.591Z</time>
      </trkpt>
      <trkpt lat="46.6262" lon="15.6571">
        <ele>270.951913</ele>
        <time>2022-08-06T13:00:00.314Z</time>
      </trkpt>
      <trkpt lat="46.62713" lon="15.6565">
        <ele>270.097747</ele>
        <time>2022-08-06T13:00:24.243Z</time>
      </trkpt>
      <trkpt lat="46.62733" lon="15.65654">
        <ele>269.92969</ele>
        <time>2022-08-06T13:00:28.665Z</time>
      </trkpt>
      <trkpt lat="46.62809" lon="15.65702">
        <ele>269.359086</ele>
        <time>2022-08-06T13:00:47.655Z</time>
      </trkpt>
      <trkpt lat="46.62918" lon="15.65709">
        <ele>269.09586</ele>
        <time>2022-08-06T13:01:14.485Z</time>
      </trkpt>
      <trkpt lat="46.63003" lon="15.657">
        <ele>269.647456</ele>
        <time>2022-08-06T13:01:40.382Z</time>
      </trkpt>
      <trkpt lat="46.63058" lon="15.65708">
        <ele>270.625679</ele>
        <time>2022-08-06T13:01:59.691Z</time>
      </trkpt>
      <trkpt lat="46.63132" lon="15.65709">
        <ele>271.94145</ele>
        <time>2022-08-06T13:02:28.204Z</time>
      </trkpt>
      <trkpt lat="46.63157" lon="15.65702">
        <ele>272.354559</ele>
        <time>2022-08-06T13:02:37.847Z</time>
      </trkpt>
      <trkpt lat="46.63226" lon="15.65638">
        <ele>273.570526</ele>
        <time>2022-08-06T13:03:08.158Z</time>
      </trkpt>
      <trkpt lat="46.63312" lon="15.65589">
        <ele>274.853539</ele>
        <time>2022-08-06T13:03:36.595Z</time>
      </trkpt>
      <trkpt lat="46.63346" lon="15.65586">
        <ele>274.856134</ele>
        <time>2022-08-06T13:03:45.822Z</time>
      </trkpt>
      <trkpt lat="46.63438" lon="15.65597">
        <ele>274.86305</ele>
        <time>2022-08-06T13:04:08.925Z</time>
      </trkpt>
      <trkpt lat="46.63483" lon="15.65591">
        <ele>274.866474</ele>
        <time>2022-08-06T13:04:20.628Z</time>
      </trkpt>
      <trkpt lat="46.63598" lon="15.65527">
        <ele>275.523871</ele>
        <time>2022-08-06T13:04:56.838Z</time>
      </trkpt>
      <trkpt lat="46.6364" lon="15.65521">
        <ele>275.752388</ele>
        <time>2022-08-06T13:05:10.408Z</time>
      </trkpt>
      <trkpt lat="46.63659" lon="15.6551">
        <ele>275.862235</ele>
        <time>2022-08-06T13:05:16.384Z</time>
      </trkpt>
      <trkpt lat="46.63714" lon="15.65445">
        <ele>276.276105</ele>
        <time>2022-08-06T13:05:37.426Z</time>
      </trkpt>
      <trkpt lat="46.63734" lon="15.65429">
        <ele>276.409119</ele>
        <time>2022-08-06T13:05:44.424Z</time>
      </trkpt>
      <trkpt lat="46.6382" lon="15.65391">
        <ele>276.924876</ele>
        <time>2022-08-06T13:06:10.090Z</time>
      </trkpt>
      <trkpt lat="46.64193" lon="15.65118">
        <ele>278.82668</ele>
        <time>2022-08-06T13:08:09.923Z</time>
      </trkpt>
      <trkpt lat="46.64244" lon="15.65078">
        <ele>279.184303</ele>
        <time>2022-08-06T13:08:27.536Z</time>
      </trkpt>
      <trkpt lat="46.64298" lon="15.65014">
        <ele>279.574177</ele>
        <time>2022-08-06T13:08:48.460Z</time>
      </trkpt>
      <trkpt lat="46.64321" lon="15.65">
        <ele>279.659832</ele>
        <time>2022-08-06T13:08:56.304Z</time>
      </trkpt>
      <trkpt lat="46.64341" lon="15.64992">
        <ele>279.729003</ele>
        <time>2022-08-06T13:09:02.172Z</time>
      </trkpt>
      <trkpt lat="46.64395" lon="15.64995">
        <ele>279.907422</ele>
        <time>2022-08-06T13:09:17.368Z</time>
      </trkpt>
      <trkpt lat="46.64434" lon="15.6499">
        <ele>280.038465</ele>
        <time>2022-08-06T13:09:27.882Z</time>
      </trkpt>
      <trkpt lat="46.64642" lon="15.64913">
        <ele>280.619038</ele>
        <time>2022-08-06T13:10:26.041Z</time>
      </trkpt>
      <trkpt lat="46.64698" lon="15.64903">
        <ele>281.389954</ele>
        <time>2022-08-06T13:10:44.130Z</time>
      </trkpt>
      <trkpt lat="46.64847" lon="15.64869">
        <ele>283.493061</ele>
        <time>2022-08-06T13:11:37.274Z</time>
      </trkpt>
      <trkpt lat="46.64943" lon="15.64835">
        <ele>284.92547</ele>
        <time>2022-08-06T13:12:10.738Z</time>
      </trkpt>
      <trkpt lat="46.6497" lon="15.64834">
        <ele>285.320606</ele>
        <time>2022-08-06T13:12:19.769Z</time>
      </trkpt>
      <trkpt lat="46.65065" lon="15.64837">
        <ele>286.118114</ele>
        <time>2022-08-06T13:12:49.703Z</time>
      </trkpt>
      <trkpt lat="46.65171" lon="15.64778">
        <ele>286.868903</ele>
        <time>2022-08-06T13:13:22.244Z</time>
      </trkpt>
      <trkpt lat="46.65177" lon="15.64751">
        <ele>286.963816</ele>
        <time>2022-08-06T13:13:27.549Z</time>
      </trkpt>
      <trkpt lat="46.65196" lon="15.64727">
        <ele>287.084323</ele>
        <time>2022-08-06T13:13:34.556Z</time>
      </trkpt>
      <trkpt lat="46.65307" lon="15.64718">
        <ele>287.625092</ele>
        <time>2022-08-06T13:14:06.951Z</time>
      </trkpt>
      <trkpt lat="46.65345" lon="15.64704">
        <ele>287.922353</ele>
        <time>2022-08-06T13:14:18.650Z</time>
      </trkpt>
      <trkpt lat="46.65456" lon="15.64661">
        <ele>288.99862</ele>
        <time>2022-08-06T13:14:54.949Z</time>
      </trkpt>
      <trkpt lat="46.65582" lon="15.64642">
        <ele>290.254654</ele>
        <time>2022-08-06T13:15:34.906Z</time>
      </trkpt>
      <trkpt lat="46.65616" lon="15.6462">
        <ele>290.632175</ele>
        <time>2022-08-06T13:15:46.475Z</time>
      </trkpt>
      <trkpt lat="46.65647" lon="15.6459">
        <ele>291.011523</ele>
        <time>2022-08-06T13:15:58.161Z</time>
      </trkpt>
      <trkpt lat="46.6568" lon="15.64575">
        <ele>291.433454</ele>
        <time>2022-08-06T13:16:09.054Z</time>
      </trkpt>
      <trkpt lat="46.65716" lon="15.64576">
        <ele>291.975059</ele>
        <time>2022-08-06T13:16:20.725Z</time>
      </trkpt>
      <trkpt lat="46.65794" lon="15.64607">
        <ele>293.204255</ele>
        <time>2022-08-06T13:16:48.182Z</time>
      </trkpt>
      <trkpt lat="46.65889" lon="15.6463">
        <ele>294.912604</ele>
        <time>2022-08-06T13:17:22.756Z</time>
      </trkpt>
      <trkpt lat="46.65961" lon="15.64615">
        <ele>296.399957</ele>
        <time>2022-08-06T13:17:49.955Z</time>
      </trkpt>
      <trkpt lat="46.66062" lon="15.64583">
        <ele>299.276794</ele>
        <time>2022-08-06T13:18:27.147Z</time>
      </trkpt>
      <trkpt lat="46.66116" lon="15.64582">
        <ele>301.331082</ele>
        <time>2022-08-06T13:18:47.191Z</time>
      </trkpt>
      <trkpt lat="46.66157" lon="15.64553">
        <ele>303.07827</ele>
        <time>2022-08-06T13:19:12.299Z</time>
      </trkpt>
      <trkpt lat="46.66229" lon="15.64485">
        <ele>308.265719</ele>
        <time>2022-08-06T13:19:58.975Z</time>
      </trkpt>
      <trkpt lat="46.66239" lon="15.64481">
        <ele>309.079296</ele>
        <time>2022-08-06T13:20:04.737Z</time>
      </trkpt>
      <trkpt lat="46.66243" lon="15.64522">
        <ele>311.312882</ele>
        <time>2022-08-06T13:20:23.336Z</time>
      </trkpt>
      <trkpt lat="46.6625" lon="15.64545">
        <ele>312.641953</ele>
        <time>2022-08-06T13:20:33.999Z</time>
      </trkpt>
      <trkpt lat="46.66268" lon="15.64582">
        <ele>315.061534</ele>
        <time>2022-08-06T13:20:55.752Z</time>
      </trkpt>
      <trkpt lat="46.66286" lon="15.64595">
        <ele>316.611427</ele>
        <time>2022-08-06T13:21:10.987Z</time>
      </trkpt>
      <trkpt lat="46.66314" lon="15.64596">
        <ele>318.821634</ele>
        <time>2022-08-06T13:21:31.582Z</time>
      </trkpt>
      <trkpt lat="46.6643" lon="15.64566">
        <ele>329.163254</ele>
        <time>2022-08-06T13:22:54.560Z</time>
      </trkpt>
      <trkpt lat="46.66496" lon="15.64564">
        <ele>334.518598</ele>
        <time>2022-08-06T13:23:39.269Z</time>
      </trkpt>
      <trkpt lat="46.66518" lon="15.64571">
        <ele>335.439686</ele>
        <time>2022-08-06T13:23:53.103Z</time>
      </trkpt>
      <trkpt lat="46.6653" lon="15.64584">
        <ele>336.03452</ele>
        <time>2022-08-06T13:24:01.377Z</time>
      </trkpt>
      <trkpt lat="46.66541" lon="15.64625">
        <ele>337.288352</ele>
        <time>2022-08-06T13:24:18.001Z</time>
      </trkpt>
      <trkpt lat="46.66535" lon="15.64663">
        <ele>338.389335</ele>
        <time>2022-08-06T13:24:30.561Z</time>
      </trkpt>
      <trkpt lat="46.66525" lon="15.6468">
        <ele>339.021758</ele>
        <time>2022-08-06T13:24:36.868Z</time>
      </trkpt>
      <trkpt lat="46.66489" lon="15.64714">
        <ele>340.780365</ele>
        <time>2022-08-06T13:24:53.570Z</time>
      </trkpt>
      <trkpt lat="46.66476" lon="15.64738">
        <ele>341.27257</ele>
        <time>2022-08-06T13:24:59.697Z</time>
      </trkpt>
      <trkpt lat="46.66471" lon="15.64762">
        <ele>340.217469</ele>
        <time>2022-08-06T13:25:04.176Z</time>
      </trkpt>
      <trkpt lat="46.66478" lon="15.64808">
        <ele>338.194983</ele>
        <time>2022-08-06T13:25:10.860Z</time>
      </trkpt>
      <trkpt lat="46.66533" lon="15.64898">
        <ele>332.957881</ele>
        <time>2022-08-06T13:25:25.181Z</time>
      </trkpt>
      <trkpt lat="46.66602" lon="15.65177">
        <ele>310.932603</ele>
        <time>2022-08-06T13:25:57.536Z</time>
      </trkpt>
      <trkpt lat="46.66642" lon="15.65283">
        <ele>303.005122</ele>
        <time>2022-08-06T13:26:10.784Z</time>
      </trkpt>
      <trkpt lat="46.6664" lon="15.65321">
        <ele>300.724619</ele>
        <time>2022-08-06T13:26:14.975Z</time>
      </trkpt>
      <trkpt lat="46.6655" lon="15.65567">
        <ele>287.759529</ele>
        <time>2022-08-06T13:26:48.241Z</time>
      </trkpt>
      <trkpt lat="46.66504" lon="15.65634">
        <ele>284.571663</ele>
        <time>2022-08-06T13:27:00.929Z</time>
      </trkpt>
      <trkpt lat="46.66471" lon="15.65662">
        <ele>283.345948</ele>
        <time>2022-08-06T13:27:08.444Z</time>
      </trkpt>
      <trkpt lat="46.66442" lon="15.65701">
        <ele>282.561062</ele>
        <time>2022-08-06T13:27:16.343Z</time>
      </trkpt>
      <trkpt lat="46.66426" lon="15.65735">
        <ele>282.000922</ele>
        <time>2022-08-06T13:27:22.368Z</time>
      </trkpt>
      <trkpt lat="46.66414" lon="15.6578">
        <ele>281.334091</ele>
        <time>2022-08-06T13:27:29.556Z</time>
      </trkpt>
      <trkpt lat="46.66405" lon="15.65854">
        <ele>280.309192</ele>
        <time>2022-08-06T13:27:40.891Z</time>
      </trkpt>
      <trkpt lat="46.66394" lon="15.65949">
        <ele>280.456992</ele>
        <time>2022-08-06T13:27:57.123Z</time>
      </trkpt>
      <trkpt lat="46.66437" lon="15.65953">
        <ele>280.621756</ele>
        <time>2022-08-06T13:28:08.752Z</time>
      </trkpt>
      <trkpt lat="46.66481" lon="15.6598">
        <ele>280.80539</ele>
        <time>2022-08-06T13:28:24.334Z</time>
      </trkpt>
      <trkpt lat="46.66555" lon="15.66071">
        <ele>281.966978</ele>
        <time>2022-08-06T13:28:59.777Z</time>
      </trkpt>
      <trkpt lat="46.66697" lon="15.66228">
        <ele>284.294562</ele>
        <time>2022-08-06T13:29:57.999Z</time>
      </trkpt>
      <trkpt lat="46.66734" lon="15.66261">
        <ele>284.703717</ele>
        <time>2022-08-06T13:30:10.424Z</time>
      </trkpt>
      <trkpt lat="46.66768" lon="15.66281">
        <ele>285.055111</ele>
        <time>2022-08-06T13:30:21.533Z</time>
      </trkpt>
      <trkpt lat="46.66845" lon="15.66297">
        <ele>286.451079</ele>
        <time>2022-08-06T13:30:46.073Z</time>
      </trkpt>
      <trkpt lat="46.66977" lon="15.66277">
        <ele>289.595286</ele>
        <time>2022-08-06T13:31:37.866Z</time>
      </trkpt>
      <trkpt lat="46.6703" lon="15.66254">
        <ele>291.26496</ele>
        <time>2022-08-06T13:32:04.758Z</time>
      </trkpt>
      <trkpt lat="46.67055" lon="15.66235">
        <ele>292.133349</ele>
        <time>2022-08-06T13:32:18.900Z</time>
      </trkpt>
      <trkpt lat="46.67086" lon="15.66196">
        <ele>293.382619</ele>
        <time>2022-08-06T13:32:36.511Z</time>
      </trkpt>
      <trkpt lat="46.67105" lon="15.6616">
        <ele>294.329573</ele>
        <time>2022-08-06T13:32:48.584Z</time>
      </trkpt>
      <trkpt lat="46.67118" lon="15.66135">
        <ele>294.976341</ele>
        <time>2022-08-06T13:32:55.876Z</time>
      </trkpt>
      <trkpt lat="46.67142" lon="15.66089">
        <ele>294.673708</ele>
        <time>2022-08-06T13:33:07.851Z</time>
      </trkpt>
      <trkpt lat="46.6719" lon="15.66005">
        <ele>293.746033</ele>
        <time>2022-08-06T13:33:25.065Z</time>
      </trkpt>
      <trkpt lat="46.67255" lon="15.65907">
        <ele>292.351298</ele>
        <time>2022-08-06T13:33:43.447Z</time>
      </trkpt>
      <trkpt lat="46.6732" lon="15.65843">
        <ele>290.632299</ele>
        <time>2022-08-06T13:33:59.092Z</time>
      </trkpt>
      <trkpt lat="46.67375" lon="15.65795">
        <ele>289.246379</ele>
        <time>2022-08-06T13:34:12.854Z</time>
      </trkpt>
      <trkpt lat="46.67424" lon="15.65747">
        <ele>289.037132</ele>
        <time>2022-08-06T13:34:28.307Z</time>
      </trkpt>
      <trkpt lat="46.67468" lon="15.65697">
        <ele>289.144918</ele>
        <time>2022-08-06T13:34:44.196Z</time>
      </trkpt>
      <trkpt lat="46.67475" lon="15.65689">
        <ele>289.162153</ele>
        <time>2022-08-06T13:34:47.145Z</time>
      </trkpt>
      <trkpt lat="46.67521" lon="15.65638">
        <ele>289.275556</ele>
        <time>2022-08-06T13:35:05.668Z</time>
      </trkpt>
      <trkpt lat="46.67603" lon="15.65541">
        <ele>290.189244</ele>
        <time>2022-08-06T13:35:39.426Z</time>
      </trkpt>
      <trkpt lat="46.67687" lon="15.65412">
        <ele>291.451348</ele>
        <time>2022-08-06T13:36:19.685Z</time>
      </trkpt>
      <trkpt lat="46.67719" lon="15.65369">
        <ele>291.983559</ele>
        <time>2022-08-06T13:36:33.439Z</time>
      </trkpt>
      <trkpt lat="46.67766" lon="15.6532">
        <ele>292.685427</ele>
        <time>2022-08-06T13:36:52.725Z</time>
      </trkpt>
      <trkpt lat="46.67783" lon="15.65303">
        <ele>292.943032</ele>
        <time>2022-08-06T13:36:59.865Z</time>
      </trkpt>
      <trkpt lat="46.67818" lon="15.65274">
        <ele>293.591558</ele>
        <time>2022-08-06T13:37:14.391Z</time>
      </trkpt>
      <trkpt lat="46.67903" lon="15.65208">
        <ele>295.540446</ele>
        <time>2022-08-06T13:37:49.927Z</time>
      </trkpt>
      <trkpt lat="46.67935" lon="15.65184">
        <ele>296.260746</ele>
        <time>2022-08-06T13:38:03.844Z</time>
      </trkpt>
      <trkpt lat="46.67953" lon="15.6517">
        <ele>296.693053</ele>
        <time>2022-08-06T13:38:12.366Z</time>
      </trkpt>
      <trkpt lat="46.67997" lon="15.65145">
        <ele>297.279278</ele>
        <time>2022-08-06T13:38:31.570Z</time>
      </trkpt>
      <trkpt lat="46.68018" lon="15.65145">
        <ele>297.500445</ele>
        <time>2022-08-06T13:38:39.143Z</time>
      </trkpt>
      <trkpt lat="46.6803" lon="15.6514">
        <ele>297.640536</ele>
        <time>2022-08-06T13:38:43.902Z</time>
      </trkpt>
      <trkpt lat="46.6806" lon="15.65131">
        <ele>297.967414</ele>
        <time>2022-08-06T13:38:53.963Z</time>
      </trkpt>
      <trkpt lat="46.68115" lon="15.6511">
        <ele>298.587652</ele>
        <time>2022-08-06T13:39:11.049Z</time>
      </trkpt>
      <trkpt lat="46.68133" lon="15.651">
        <ele>298.796438</ele>
        <time>2022-08-06T13:39:16.389Z</time>
      </trkpt>
      <trkpt lat="46.68265" lon="15.65039">
        <ele>296.500277</ele>
        <time>2022-08-06T13:39:48.581Z</time>
      </trkpt>
      <trkpt lat="46.68316" lon="15.64995">
        <ele>295.276252</ele>
        <time>2022-08-06T13:40:00.719Z</time>
      </trkpt>
      <trkpt lat="46.68371" lon="15.64936">
        <ele>293.208785</ele>
        <time>2022-08-06T13:40:14.824Z</time>
      </trkpt>
      <trkpt lat="46.68403" lon="15.64901">
        <ele>292.002371</ele>
        <time>2022-08-06T13:40:23.129Z</time>
      </trkpt>
      <trkpt lat="46.68425" lon="15.6488">
        <ele>291.183216</ele>
        <time>2022-08-06T13:40:28.687Z</time>
      </trkpt>
      <trkpt lat="46.6847" lon="15.64836">
        <ele>289.607956</ele>
        <time>2022-08-06T13:40:39.760Z</time>
      </trkpt>
      <trkpt lat="46.68497" lon="15.64811">
        <ele>288.720729</ele>
        <time>2022-08-06T13:40:46.312Z</time>
      </trkpt>
      <trkpt lat="46.68651" lon="15.64657">
        <ele>284.022433</ele>
        <time>2022-08-06T13:41:25.964Z</time>
      </trkpt>
      <trkpt lat="46.68689" lon="15.64622">
        <ele>283.133383</ele>
        <time>2022-08-06T13:41:35.873Z</time>
      </trkpt>
      <trkpt lat="46.69009" lon="15.64309">
        <ele>277.195631</ele>
        <time>2022-08-06T13:43:05.835Z</time>
      </trkpt>
      <trkpt lat="46.69053" lon="15.6426">
        <ele>276.313262</ele>
        <time>2022-08-06T13:43:18.212Z</time>
      </trkpt>
      <trkpt lat="46.69071" lon="15.64243">
        <ele>275.923699</ele>
        <time>2022-08-06T13:43:22.865Z</time>
      </trkpt>
      <trkpt lat="46.69165" lon="15.64157">
        <ele>273.848685</ele>
        <time>2022-08-06T13:43:47.379Z</time>
      </trkpt>
      <trkpt lat="46.69172" lon="15.64143">
        <ele>273.619883</ele>
        <time>2022-08-06T13:43:49.979Z</time>
      </trkpt>
      <trkpt lat="46.69197" lon="15.64123">
        <ele>273.126</ele>
        <time>2022-08-06T13:43:56.118Z</time>
      </trkpt>
      <trkpt lat="46.69225" lon="15.641">
        <ele>272.829193</ele>
        <time>2022-08-06T13:44:03.607Z</time>
      </trkpt>
      <trkpt lat="46.69237" lon="15.64101">
        <ele>272.721587</ele>
        <time>2022-08-06T13:44:06.136Z</time>
      </trkpt>
      <trkpt lat="46.69273" lon="15.64082">
        <ele>272.376029</ele>
        <time>2022-08-06T13:44:14.930Z</time>
      </trkpt>
      <trkpt lat="46.69286" lon="15.6407">
        <ele>272.233835</ele>
        <time>2022-08-06T13:44:18.769Z</time>
      </trkpt>
      <trkpt lat="46.69303" lon="15.64054">
        <ele>272.047564</ele>
        <time>2022-08-06T13:44:23.461Z</time>
      </trkpt>
      <trkpt lat="46.69305" lon="15.64052">
        <ele>272.029143</ele>
        <time>2022-08-06T13:44:23.977Z</time>
      </trkpt>
      <trkpt lat="46.69327" lon="15.64031">
        <ele>271.785677</ele>
        <time>2022-08-06T13:44:30.357Z</time>
      </trkpt>
      <trkpt lat="46.69336" lon="15.6401">
        <ele>271.634023</ele>
        <time>2022-08-06T13:44:34.596Z</time>
      </trkpt>
      <trkpt lat="46.6935" lon="15.63997">
        <ele>271.493217</ele>
        <time>2022-08-06T13:44:38.797Z</time>
      </trkpt>
      <trkpt lat="46.69379" lon="15.6397">
        <ele>271.277072</ele>
        <time>2022-08-06T13:44:48.075Z</time>
      </trkpt>
      <trkpt lat="46.69426" lon="15.63924">
        <ele>270.926189</ele>
        <time>2022-08-06T13:45:03.071Z</time>
      </trkpt>
      <trkpt lat="46.69456" lon="15.63894">
        <ele>270.694019</ele>
        <time>2022-08-06T13:45:12.049Z</time>
      </trkpt>
      <trkpt lat="46.69465" lon="15.63885">
        <ele>270.625995</ele>
        <time>2022-08-06T13:45:14.445Z</time>
      </trkpt>
      <trkpt lat="46.69489" lon="15.63865">
        <ele>270.456878</ele>
        <time>2022-08-06T13:45:20.568Z</time>
      </trkpt>
      <trkpt lat="46.69502" lon="15.6386">
        <ele>270.340529</ele>
        <time>2022-08-06T13:45:23.397Z</time>
      </trkpt>
      <trkpt lat="46.69518" lon="15.63848">
        <ele>269.991929</ele>
        <time>2022-08-06T13:45:27.547Z</time>
      </trkpt>
      <trkpt lat="46.69558" lon="15.63813">
        <ele>269.109433</ele>
        <time>2022-08-06T13:45:37.534Z</time>
      </trkpt>
      <trkpt lat="46.69597" lon="15.63786">
        <ele>268.303459</ele>
        <time>2022-08-06T13:45:46.611Z</time>
      </trkpt>
      <trkpt lat="46.6962" lon="15.63772">
        <ele>267.836306</ele>
        <time>2022-08-06T13:45:51.898Z</time>
      </trkpt>
      <trkpt lat="46.69686" lon="15.63737">
        <ele>266.81107</ele>
        <time>2022-08-06T13:46:05.928Z</time>
      </trkpt>
      <trkpt lat="46.6987" lon="15.63676">
        <ele>265.435756</ele>
        <time>2022-08-06T13:46:53.467Z</time>
      </trkpt>
      <trkpt lat="46.69901" lon="15.6367">
        <ele>265.289233</ele>
        <time>2022-08-06T13:47:02.676Z</time>
      </trkpt>
      <trkpt lat="46.69939" lon="15.63662">
        <ele>265.108066</ele>
        <time>2022-08-06T13:47:12.779Z</time>
      </trkpt>
      <trkpt lat="46.69949" lon="15.6366">
        <ele>265.062105</ele>
        <time>2022-08-06T13:47:15.223Z</time>
      </trkpt>
      <trkpt lat="46.69975" lon="15.63655">
        <ele>264.939</ele>
        <time>2022-08-06T13:47:21.312Z</time>
      </trkpt>
      <trkpt lat="46.69993" lon="15.63652">
        <ele>264.850462</ele>
        <time>2022-08-06T13:47:25.655Z</time>
      </trkpt>
      <trkpt lat="46.7" lon="15.63651">
        <ele>264.819199</ele>
        <time>2022-08-06T13:47:27.201Z</time>
      </trkpt>
      <trkpt lat="46.70003" lon="15.6365">
        <ele>264.804596</ele>
        <time>2022-08-06T13:47:27.924Z</time>
      </trkpt>
      <trkpt lat="46.70053" lon="15.63642">
        <ele>264.022469</ele>
        <time>2022-08-06T13:47:39.516Z</time>
      </trkpt>
      <trkpt lat="46.70106" lon="15.63634">
        <ele>263.037256</ele>
        <time>2022-08-06T13:47:50.713Z</time>
      </trkpt>
      <trkpt lat="46.70114" lon="15.63633">
        <ele>262.886862</ele>
        <time>2022-08-06T13:47:52.364Z</time>
      </trkpt>
      <trkpt lat="46.70131" lon="15.6363">
        <ele>262.569688</ele>
        <time>2022-08-06T13:47:55.827Z</time>
      </trkpt>
      <trkpt lat="46.70159" lon="15.63626">
        <ele>262.048619</ele>
        <time>2022-08-06T13:48:01.544Z</time>
      </trkpt>
      <trkpt lat="46.70302" lon="15.63603">
        <ele>259.985875</ele>
        <time>2022-08-06T13:48:32.426Z</time>
      </trkpt>
      <trkpt lat="46.70385" lon="15.6358">
        <ele>258.887172</ele>
        <time>2022-08-06T13:48:53.625Z</time>
      </trkpt>
      <trkpt lat="46.70477" lon="15.63541">
        <ele>257.77286</ele>
        <time>2022-08-06T13:49:15.251Z</time>
      </trkpt>
      <trkpt lat="46.70467" lon="15.63507">
        <ele>257.485013</ele>
        <time>2022-08-06T13:49:21.001Z</time>
      </trkpt>
      <trkpt lat="46.70557" lon="15.63472">
        <ele>256.512408</ele>
        <time>2022-08-06T13:49:41.432Z</time>
      </trkpt>
      <trkpt lat="46.70591" lon="15.63451">
        <ele>256.162079</ele>
        <time>2022-08-06T13:49:49.863Z</time>
      </trkpt>
      <trkpt lat="46.70608" lon="15.63439">
        <ele>255.979777</ele>
        <time>2022-08-06T13:49:54.468Z</time>
      </trkpt>
      <trkpt lat="46.70616" lon="15.63431">
        <ele>255.884063</ele>
        <time>2022-08-06T13:49:56.659Z</time>
      </trkpt>
      <trkpt lat="46.70687" lon="15.63353">
        <ele>255.196934</ele>
        <time>2022-08-06T13:50:18.048Z</time>
      </trkpt>
      <trkpt lat="46.70733" lon="15.63303">
        <ele>255.03064</ele>
        <time>2022-08-06T13:50:33.904Z</time>
      </trkpt>
      <trkpt lat="46.70787" lon="15.63241">
        <ele>254.831021</ele>
        <time>2022-08-06T13:50:51.396Z</time>
      </trkpt>
      <trkpt lat="46.70817" lon="15.63215">
        <ele>254.673951</ele>
        <time>2022-08-06T13:51:00.275Z</time>
      </trkpt>
      <trkpt lat="46.70859" lon="15.63214">
        <ele>254.034687</ele>
        <time>2022-08-06T13:51:10.774Z</time>
      </trkpt>
      <trkpt lat="46.70862" lon="15.63227">
        <ele>253.893268</ele>
        <time>2022-08-06T13:51:13.028Z</time>
      </trkpt>
      <trkpt lat="46.70868" lon="15.63238">
        <ele>253.748056</ele>
        <time>2022-08-06T13:51:15.250Z</time>
      </trkpt>
      <trkpt lat="46.70889" lon="15.63254">
        <ele>253.388815</ele>
        <time>2022-08-06T13:51:20.617Z</time>
      </trkpt>
      <trkpt lat="46.70903" lon="15.63276">
        <ele>253.08004</ele>
        <time>2022-08-06T13:51:25.046Z</time>
      </trkpt>
      <trkpt lat="46.70907" lon="15.63288">
        <ele>252.93719</ele>
        <time>2022-08-06T13:51:27.023Z</time>
      </trkpt>
      <trkpt lat="46.70908" lon="15.63308">
        <ele>252.732175</ele>
        <time>2022-08-06T13:51:29.832Z</time>
      </trkpt>
      <trkpt lat="46.70904" lon="15.63345">
        <ele>252.348751</ele>
        <time>2022-08-06T13:51:34.956Z</time>
      </trkpt>
      <trkpt lat="46.70899" lon="15.63389">
        <ele>251.869913</ele>
        <time>2022-08-06T13:51:40.898Z</time>
      </trkpt>
      <trkpt lat="46.70912" lon="15.63391">
        <ele>251.646712</ele>
        <time>2022-08-06T13:51:43.533Z</time>
      </trkpt>
      <trkpt lat="46.71042" lon="15.6341">
        <ele>249.370105</ele>
        <time>2022-08-06T13:52:11.201Z</time>
      </trkpt>
      <trkpt lat="46.71051" lon="15.63412">
        <ele>249.201749</ele>
        <time>2022-08-06T13:52:13.548Z</time>
      </trkpt>
      <trkpt lat="46.71104" lon="15.63273">
        <ele>248.8727</ele>
        <time>2022-08-06T13:52:40.321Z</time>
      </trkpt>
      <trkpt lat="46.71145" lon="15.63164">
        <ele>248.85909</ele>
        <time>2022-08-06T13:53:06.282Z</time>
      </trkpt>
      <trkpt lat="46.71164" lon="15.63136">
        <ele>248.91533</ele>
        <time>2022-08-06T13:53:14.310Z</time>
      </trkpt>
      <trkpt lat="46.71263" lon="15.62934">
        <ele>249.352113</ele>
        <time>2022-08-06T13:54:00.697Z</time>
      </trkpt>
      <trkpt lat="46.71273" lon="15.62927">
        <ele>249.399448</ele>
        <time>2022-08-06T13:54:03.750Z</time>
      </trkpt>
      <trkpt lat="46.71292" lon="15.62934">
        <ele>249.481138</ele>
        <time>2022-08-06T13:54:09.012Z</time>
      </trkpt>
      <trkpt lat="46.71303" lon="15.62913">
        <ele>249.560311</ele>
        <time>2022-08-06T13:54:14.234Z</time>
      </trkpt>
      <trkpt lat="46.71291" lon="15.62887">
        <ele>249.654689</ele>
        <time>2022-08-06T13:54:20.535Z</time>
      </trkpt>
      <trkpt lat="46.71294" lon="15.6287">
        <ele>249.705594</ele>
        <time>2022-08-06T13:54:24.023Z</time>
      </trkpt>
      <trkpt lat="46.71341" lon="15.62817">
        <ele>249.960831</ele>
        <time>2022-08-06T13:54:41.703Z</time>
      </trkpt>
      <trkpt lat="46.71387" lon="15.62733">
        <ele>250.282126</ele>
        <time>2022-08-06T13:55:03.604Z</time>
      </trkpt>
      <trkpt lat="46.71449" lon="15.62666">
        <ele>250.621444</ele>
        <time>2022-08-06T13:55:26.684Z</time>
      </trkpt>
      <trkpt lat="46.71639" lon="15.62348">
        <ele>250.970844</ele>
        <time>2022-08-06T13:56:43.517Z</time>
      </trkpt>
      <trkpt lat="46.71648" lon="15.6234">
        <ele>250.997239</ele>
        <time>2022-08-06T13:56:46.162Z</time>
      </trkpt>
      <trkpt lat="46.71659" lon="15.62329">
        <ele>251.03475</ele>
        <time>2022-08-06T13:56:49.921Z</time>
      </trkpt>
      <trkpt lat="46.71771" lon="15.62275">
        <ele>251.311373</ele>
        <time>2022-08-06T13:57:24.351Z</time>
      </trkpt>
      <trkpt lat="46.71797" lon="15.62243">
        <ele>251.337516</ele>
        <time>2022-08-06T13:57:34.224Z</time>
      </trkpt>
      <trkpt lat="46.71875" lon="15.62124">
        <ele>251.423506</ele>
        <time>2022-08-06T13:58:04.702Z</time>
      </trkpt>
      <trkpt lat="46.71866" lon="15.62108">
        <ele>251.432396</ele>
        <time>2022-08-06T13:58:08.302Z</time>
      </trkpt>
      <trkpt lat="46.71928" lon="15.62011">
        <ele>250.752844</ele>
        <time>2022-08-06T13:58:29.480Z</time>
      </trkpt>
      <trkpt lat="46.71955" lon="15.6196">
        <ele>250.417528</ele>
        <time>2022-08-06T13:58:39.448Z</time>
      </trkpt>
      <trkpt lat="46.71995" lon="15.61824">
        <ele>250.465678</ele>
        <time>2022-08-06T13:59:04.524Z</time>
      </trkpt>
      <trkpt lat="46.72051" lon="15.6159">
        <ele>251.81924</ele>
        <time>2022-08-06T14:00:00.262Z</time>
      </trkpt>
      <trkpt lat="46.7209" lon="15.61428">
        <ele>253.150525</ele>
        <time>2022-08-06T14:00:39.003Z</time>
      </trkpt>
      <trkpt lat="46.72163" lon="15.61224">
        <ele>254.059484</ele>
        <time>2022-08-06T14:01:24.105Z</time>
      </trkpt>
      <trkpt lat="46.72237" lon="15.60993">
        <ele>255.121292</ele>
        <time>2022-08-06T14:02:15.845Z</time>
      </trkpt>
      <trkpt lat="46.72334" lon="15.60749">
        <ele>256.17744</ele>
        <time>2022-08-06T14:03:13.958Z</time>
      </trkpt>
      <trkpt lat="46.72429" lon="15.60549">
        <ele>256.130861</ele>
        <time>2022-08-06T14:03:58.510Z</time>
      </trkpt>
      <trkpt lat="46.72446" lon="15.60502">
        <ele>256.078548</ele>
        <time>2022-08-06T14:04:07.234Z</time>
      </trkpt>
      <trkpt lat="46.7252" lon="15.60212">
        <ele>254.896796</ele>
        <time>2022-08-06T14:04:57.816Z</time>
      </trkpt>
      <trkpt lat="46.72644" lon="15.59615">
        <ele>255.869682</ele>
        <time>2022-08-06T14:06:58.441Z</time>
      </trkpt>
      <trkpt lat="46.72708" lon="15.59411">
        <ele>256.277144</ele>
        <time>2022-08-06T14:07:41.525Z</time>
      </trkpt>
      <trkpt lat="46.72818" lon="15.59099">
        <ele>256.725037</ele>
        <time>2022-08-06T14:08:47.820Z</time>
      </trkpt>
      <trkpt lat="46.72858" lon="15.58949">
        <ele>256.783165</ele>
        <time>2022-08-06T14:09:17.548Z</time>
      </trkpt>
      <trkpt lat="46.72867" lon="15.58915">
        <ele>256.775713</ele>
        <time>2022-08-06T14:09:24.385Z</time>
      </trkpt>
      <trkpt lat="46.72898" lon="15.5871">
        <ele>256.51984</ele>
        <time>2022-08-06T14:10:02.243Z</time>
      </trkpt>
      <trkpt lat="46.72905" lon="15.58635">
        <ele>256.279302</ele>
        <time>2022-08-06T14:10:14.761Z</time>
      </trkpt>
      <trkpt lat="46.72903" lon="15.58623">
        <ele>256.240127</ele>
        <time>2022-08-06T14:10:16.891Z</time>
      </trkpt>
      <trkpt lat="46.72902" lon="15.5857">
        <ele>256.072009</ele>
        <time>2022-08-06T14:10:25.687Z</time>
      </trkpt>
      <trkpt lat="46.7291" lon="15.585">
        <ele>255.882117</ele>
        <time>2022-08-06T14:10:37.447Z</time>
      </trkpt>
      <trkpt lat="46.7291" lon="15.58495">
        <ele>255.874511</ele>
        <time>2022-08-06T14:10:38.322Z</time>
      </trkpt>
      <trkpt lat="46.72911" lon="15.58473">
        <ele>255.843253</ele>
        <time>2022-08-06T14:10:41.926Z</time>
      </trkpt>
      <trkpt lat="46.7291" lon="15.58455">
        <ele>255.817123</ele>
        <time>2022-08-06T14:10:44.888Z</time>
      </trkpt>
      <trkpt lat="46.72909" lon="15.58451">
        <ele>255.810638</ele>
        <time>2022-08-06T14:10:45.686Z</time>
      </trkpt>
      <trkpt lat="46.72907" lon="15.58445">
        <ele>255.801808</ele>
        <time>2022-08-06T14:10:46.710Z</time>
      </trkpt>
      <trkpt lat="46.72909" lon="15.58366">
        <ele>255.686872</ele>
        <time>2022-08-06T14:11:00.112Z</time>
      </trkpt>
      <trkpt lat="46.72892" lon="15.58172">
        <ele>255.948072</ele>
        <time>2022-08-06T14:11:37.968Z</time>
      </trkpt>
      <trkpt lat="46.72892" lon="15.58134">
        <ele>256.122191</ele>
        <time>2022-08-06T14:11:45.875Z</time>
      </trkpt>
      <trkpt lat="46.72909" lon="15.58047">
        <ele>256.537578</ele>
        <time>2022-08-06T14:12:04.853Z</time>
      </trkpt>
      <trkpt lat="46.72941" lon="15.57972">
        <ele>257.096343</ele>
        <time>2022-08-06T14:12:23.622Z</time>
      </trkpt>
      <trkpt lat="46.73" lon="15.57884">
        <ele>258.122246</ele>
        <time>2022-08-06T14:12:50.937Z</time>
      </trkpt>
      <trkpt lat="46.73047" lon="15.57849">
        <ele>258.760117</ele>
        <time>2022-08-06T14:13:08.470Z</time>
      </trkpt>
      <trkpt lat="46.73092" lon="15.57829">
        <ele>259.30625</ele>
        <time>2022-08-06T14:13:24.180Z</time>
      </trkpt>
      <trkpt lat="46.73156" lon="15.57815">
        <ele>260.053135</ele>
        <time>2022-08-06T14:13:45.728Z</time>
      </trkpt>
      <trkpt lat="46.73182" lon="15.57812">
        <ele>260.357522</ele>
        <time>2022-08-06T14:13:54.503Z</time>
      </trkpt>
      <trkpt lat="46.73342" lon="15.57843">
        <ele>261.352867</ele>
        <time>2022-08-06T14:14:43.155Z</time>
      </trkpt>
      <trkpt lat="46.73399" lon="15.57848">
        <ele>261.546389</ele>
        <time>2022-08-06T14:14:58.172Z</time>
      </trkpt>
      <trkpt lat="46.73504" lon="15.57841">
        <ele>261.341085</ele>
        <time>2022-08-06T14:15:24.204Z</time>
      </trkpt>
      <trkpt lat="46.73559" lon="15.5783">
        <ele>261.178542</ele>
        <time>2022-08-06T14:15:38.046Z</time>
      </trkpt>
      <trkpt lat="46.73627" lon="15.57805">
        <ele>261.201041</ele>
        <time>2022-08-06T14:15:56.729Z</time>
      </trkpt>
      <trkpt lat="46.73679" lon="15.57779">
        <ele>261.397981</ele>
        <time>2022-08-06T14:16:12.246Z</time>
      </trkpt>
      <trkpt lat="46.73782" lon="15.57702">
        <ele>261.836767</ele>
        <time>2022-08-06T14:16:46.519Z</time>
      </trkpt>
      <trkpt lat="46.74054" lon="15.57456">
        <ele>263.062565</ele>
        <time>2022-08-06T14:18:18.052Z</time>
      </trkpt>
      <trkpt lat="46.74244" lon="15.57293">
        <ele>263.059688</ele>
        <time>2022-08-06T14:19:16.231Z</time>
      </trkpt>
      <trkpt lat="46.74273" lon="15.5728">
        <ele>263.084043</ele>
        <time>2022-08-06T14:19:24.326Z</time>
      </trkpt>
      <trkpt lat="46.74475" lon="15.57234">
        <ele>263.29544</ele>
        <time>2022-08-06T14:20:20.235Z</time>
      </trkpt>
      <trkpt lat="46.74487" lon="15.57229">
        <ele>263.313635</ele>
        <time>2022-08-06T14:20:23.856Z</time>
      </trkpt>
      <trkpt lat="46.74538" lon="15.57231">
        <ele>263.384213</ele>
        <time>2022-08-06T14:20:37.614Z</time>
      </trkpt>
      <trkpt lat="46.74659" lon="15.57167">
        <ele>263.743179</ele>
        <time>2022-08-06T14:21:12.126Z</time>
      </trkpt>
      <trkpt lat="46.74679" lon="15.57155">
        <ele>263.816944</ele>
        <time>2022-08-06T14:21:18.285Z</time>
      </trkpt>
      <trkpt lat="46.74731" lon="15.57125">
        <ele>264.003069</ele>
        <time>2022-08-06T14:21:34.560Z</time>
      </trkpt>
      <trkpt lat="46.74955" lon="15.57014">
        <ele>266.365165</ele>
        <time>2022-08-06T14:22:50.884Z</time>
      </trkpt>
      <trkpt lat="46.7506" lon="15.56983">
        <ele>267.155299</ele>
        <time>2022-08-06T14:23:23.350Z</time>
      </trkpt>
      <trkpt lat="46.75184" lon="15.56968">
        <ele>267.36717</ele>
        <time>2022-08-06T14:23:57.014Z</time>
      </trkpt>
      <trkpt lat="46.75267" lon="15.5697">
        <ele>267.380945</ele>
        <time>2022-08-06T14:24:18.882Z</time>
      </trkpt>
      <trkpt lat="46.75868" lon="15.57096">
        <ele>266.19472</ele>
        <time>2022-08-06T14:26:55.600Z</time>
      </trkpt>
      <trkpt lat="46.76539" lon="15.57239">
        <ele>264.662272</ele>
        <time>2022-08-06T14:29:50.170Z</time>
      </trkpt>
      <trkpt lat="46.76547" lon="15.57257">
        <ele>264.581072</ele>
        <time>2022-08-06T14:29:53.821Z</time>
      </trkpt>
      <trkpt lat="46.76556" lon="15.57319">
        <ele>264.34063</ele>
        <time>2022-08-06T14:30:04.451Z</time>
      </trkpt>
      <trkpt lat="46.76566" lon="15.57348">
        <ele>264.21877</ele>
        <time>2022-08-06T14:30:09.694Z</time>
      </trkpt>
      <trkpt lat="46.76577" lon="15.57344">
        <ele>264.155365</ele>
        <time>2022-08-06T14:30:12.440Z</time>
      </trkpt>
      <trkpt lat="46.7659" lon="15.57341">
        <ele>264.08395</ele>
        <time>2022-08-06T14:30:15.517Z</time>
      </trkpt>
      <trkpt lat="46.76605" lon="15.57338">
        <ele>263.996812</ele>
        <time>2022-08-06T14:30:19.193Z</time>
      </trkpt>
      <trkpt lat="46.766" lon="15.57318">
        <ele>263.914544</ele>
        <time>2022-08-06T14:30:22.683Z</time>
      </trkpt>
      <trkpt lat="46.76602" lon="15.57289">
        <ele>263.820594</ele>
        <time>2022-08-06T14:30:27.238Z</time>
      </trkpt>
      <trkpt lat="46.76611" lon="15.5725">
        <ele>263.784708</ele>
        <time>2022-08-06T14:30:34.150Z</time>
      </trkpt>
      <trkpt lat="46.7663" lon="15.57207">
        <ele>263.740544</ele>
        <time>2022-08-06T14:30:43.429Z</time>
      </trkpt>
      <trkpt lat="46.76655" lon="15.57162">
        <ele>263.690417</ele>
        <time>2022-08-06T14:30:54.387Z</time>
      </trkpt>
      <trkpt lat="46.7668" lon="15.5713">
        <ele>263.64805</ele>
        <time>2022-08-06T14:31:03.535Z</time>
      </trkpt>
      <trkpt lat="46.76703" lon="15.57107">
        <ele>263.613692</ele>
        <time>2022-08-06T14:31:10.821Z</time>
      </trkpt>
      <trkpt lat="46.76701" lon="15.571">
        <ele>263.607305</ele>
        <time>2022-08-06T14:31:12.518Z</time>
      </trkpt>
      <trkpt lat="46.76726" lon="15.57077">
        <ele>263.586535</ele>
        <time>2022-08-06T14:31:20.460Z</time>
      </trkpt>
      <trkpt lat="46.76722" lon="15.57073">
        <ele>263.58386</ele>
        <time>2022-08-06T14:31:21.834Z</time>
      </trkpt>
      <trkpt lat="46.76675" lon="15.57014">
        <ele>263.552128</ele>
        <time>2022-08-06T14:31:39.058Z</time>
      </trkpt>
      <trkpt lat="46.76666" lon="15.57002">
        <ele>263.545812</ele>
        <time>2022-08-06T14:31:42.402Z</time>
      </trkpt>
      <trkpt lat="46.76537" lon="15.56848">
        <ele>263.419113</ele>
        <time>2022-08-06T14:32:28.049Z</time>
      </trkpt>
      <trkpt lat="46.76518" lon="15.56819">
        <ele>263.392227</ele>
        <time>2022-08-06T14:32:35.383Z</time>
      </trkpt>
      <trkpt lat="46.76494" lon="15.56748">
        <ele>263.339087</ele>
        <time>2022-08-06T14:32:50.163Z</time>
      </trkpt>
      <trkpt lat="46.76475" lon="15.56672">
        <ele>263.333265</ele>
        <time>2022-08-06T14:33:05.286Z</time>
      </trkpt>
      <trkpt lat="46.76459" lon="15.56605">
        <ele>263.337332</ele>
        <time>2022-08-06T14:33:18.945Z</time>
      </trkpt>
      <trkpt lat="46.76344" lon="15.56379">
        <ele>264.015249</ele>
        <time>2022-08-06T14:34:13.055Z</time>
      </trkpt>
      <trkpt lat="46.76274" lon="15.5621">
        <ele>264.975964</ele>
        <time>2022-08-06T14:35:00.201Z</time>
      </trkpt>
      <trkpt lat="46.7623" lon="15.56124">
        <ele>265.568028</ele>
        <time>2022-08-06T14:35:23.800Z</time>
      </trkpt>
      <trkpt lat="46.76185" lon="15.56053">
        <ele>265.831839</ele>
        <time>2022-08-06T14:35:42.117Z</time>
      </trkpt>
      <trkpt lat="46.76125" lon="15.56">
        <ele>265.570257</ele>
        <time>2022-08-06T14:36:00.857Z</time>
      </trkpt>
      <trkpt lat="46.76097" lon="15.55971">
        <ele>265.441855</ele>
        <time>2022-08-06T14:36:09.386Z</time>
      </trkpt>
      <trkpt lat="46.7607" lon="15.5593">
        <ele>265.300892</ele>
        <time>2022-08-06T14:36:18.851Z</time>
      </trkpt>
      <trkpt lat="46.76053" lon="15.55889">
        <ele>265.29315</ele>
        <time>2022-08-06T14:36:27.245Z</time>
      </trkpt>
      <trkpt lat="46.76052" lon="15.55883">
        <ele>265.301929</ele>
        <time>2022-08-06T14:36:28.304Z</time>
      </trkpt>
      <trkpt lat="46.76123" lon="15.55853">
        <ele>265.472965</ele>
        <time>2022-08-06T14:36:49.403Z</time>
      </trkpt>
      <trkpt lat="46.76216" lon="15.55759">
        <ele>265.831624</ele>
        <time>2022-08-06T14:37:24.853Z</time>
      </trkpt>
      <trkpt lat="46.76277" lon="15.55688">
        <ele>266.25236</ele>
        <time>2022-08-06T14:37:48.664Z</time>
      </trkpt>
      <trkpt lat="46.76319" lon="15.55641">
        <ele>266.535996</ele>
        <time>2022-08-06T14:38:04.434Z</time>
      </trkpt>
      <trkpt lat="46.76363" lon="15.55587">
        <ele>266.766277</ele>
        <time>2022-08-06T14:38:21.475Z</time>
      </trkpt>
      <trkpt lat="46.76426" lon="15.55511">
        <ele>267.045769</ele>
        <time>2022-08-06T14:38:45.758Z</time>
      </trkpt>
      <trkpt lat="46.7654" lon="15.55353">
        <ele>267.178931</ele>
        <time>2022-08-06T14:39:31.488Z</time>
      </trkpt>
      <trkpt lat="46.76607" lon="15.55274">
        <ele>267.095025</ele>
        <time>2022-08-06T14:39:53.835Z</time>
      </trkpt>
      <trkpt lat="46.76609" lon="15.55265">
        <ele>267.056076</ele>
        <time>2022-08-06T14:39:55.413Z</time>
      </trkpt>
      <trkpt lat="46.76633" lon="15.55233">
        <ele>266.862938</ele>
        <time>2022-08-06T14:40:03.428Z</time>
      </trkpt>
      <trkpt lat="46.7664" lon="15.55228">
        <ele>266.813997</ele>
        <time>2022-08-06T14:40:05.464Z</time>
      </trkpt>
      <trkpt lat="46.76635" lon="15.55203">
        <ele>266.70857</ele>
        <time>2022-08-06T14:40:09.698Z</time>
      </trkpt>
      <trkpt lat="46.76664" lon="15.55183">
        <ele>266.513149</ele>
        <time>2022-08-06T14:40:17.927Z</time>
      </trkpt>
      <trkpt lat="46.76687" lon="15.55159">
        <ele>266.343551</ele>
        <time>2022-08-06T14:40:25.120Z</time>
      </trkpt>
      <trkpt lat="46.76696" lon="15.55133">
        <ele>266.225847</ele>
        <time>2022-08-06T14:40:30.083Z</time>
      </trkpt>
      <trkpt lat="46.76705" lon="15.5511">
        <ele>266.118166</ele>
        <time>2022-08-06T14:40:34.651Z</time>
      </trkpt>
      <trkpt lat="46.76719" lon="15.55097">
        <ele>266.032448</ele>
        <time>2022-08-06T14:40:39.103Z</time>
      </trkpt>
      <trkpt lat="46.76744" lon="15.55095">
        <ele>265.974689</ele>
        <time>2022-08-06T14:40:45.407Z</time>
      </trkpt>
      <trkpt lat="46.76746" lon="15.55089">
        <ele>265.962834</ele>
        <time>2022-08-06T14:40:46.697Z</time>
      </trkpt>
      <trkpt lat="46.76763" lon="15.55081">
        <ele>265.919962</ele>
        <time>2022-08-06T14:40:51.337Z</time>
      </trkpt>
      <trkpt lat="46.76841" lon="15.55003">
        <ele>265.695932</ele>
        <time>2022-08-06T14:41:15.839Z</time>
      </trkpt>
      <trkpt lat="46.76897" lon="15.54956">
        <ele>265.616037</ele>
        <time>2022-08-06T14:41:33.089Z</time>
      </trkpt>
      <trkpt lat="46.76964" lon="15.54929">
        <ele>265.608495</ele>
        <time>2022-08-06T14:41:51.372Z</time>
      </trkpt>
      <trkpt lat="46.77" lon="15.54884">
        <ele>265.603388</ele>
        <time>2022-08-06T14:42:03.942Z</time>
      </trkpt>
      <trkpt lat="46.77022" lon="15.54838">
        <ele>265.592797</ele>
        <time>2022-08-06T14:42:14.269Z</time>
      </trkpt>
      <trkpt lat="46.77105" lon="15.54791">
        <ele>265.505408</ele>
        <time>2022-08-06T14:42:38.095Z</time>
      </trkpt>
      <trkpt lat="46.77115" lon="15.54786">
        <ele>265.494884</ele>
        <time>2022-08-06T14:42:40.963Z</time>
      </trkpt>
      <trkpt lat="46.77154" lon="15.54763">
        <ele>265.453855</ele>
        <time>2022-08-06T14:42:51.860Z</time>
      </trkpt>
      <trkpt lat="46.77174" lon="15.54742">
        <ele>265.429506</ele>
        <time>2022-08-06T14:42:58.259Z</time>
      </trkpt>
      <trkpt lat="46.77187" lon="15.54717">
        <ele>265.367611</ele>
        <time>2022-08-06T14:43:03.825Z</time>
      </trkpt>
      <trkpt lat="46.77152" lon="15.54546">
        <ele>264.925384</ele>
        <time>2022-08-06T14:43:36.006Z</time>
      </trkpt>
      <trkpt lat="46.77136" lon="15.54439">
        <ele>264.67822</ele>
        <time>2022-08-06T14:43:55.362Z</time>
      </trkpt>
      <trkpt lat="46.77134" lon="15.54369">
        <ele>264.53849</ele>
        <time>2022-08-06T14:44:07.927Z</time>
      </trkpt>
      <trkpt lat="46.77139" lon="15.54333">
        <ele>264.464836</ele>
        <time>2022-08-06T14:44:14.698Z</time>
      </trkpt>
      <trkpt lat="46.77148" lon="15.54302">
        <ele>264.398139</ele>
        <time>2022-08-06T14:44:20.830Z</time>
      </trkpt>
      <trkpt lat="46.7717" lon="15.54211">
        <ele>264.298855</ele>
        <time>2022-08-06T14:44:38.859Z</time>
      </trkpt>
      <trkpt lat="46.7719" lon="15.54149">
        <ele>264.432</ele>
        <time>2022-08-06T14:44:51.950Z</time>
      </trkpt>
      <trkpt lat="46.77289" lon="15.53959">
        <ele>264.8865</ele>
        <time>2022-08-06T14:45:40.950Z</time>
      </trkpt>
      <trkpt lat="46.77323" lon="15.53882">
        <ele>265.052871</ele>
        <time>2022-08-06T14:45:59.676Z</time>
      </trkpt>
      <trkpt lat="46.77324" lon="15.53878">
        <ele>265.061442</ele>
        <time>2022-08-06T14:46:00.606Z</time>
      </trkpt>
      <trkpt lat="46.77336" lon="15.53793">
        <ele>265.217816</ele>
        <time>2022-08-06T14:46:16.503Z</time>
      </trkpt>
      <trkpt lat="46.77333" lon="15.53763">
        <ele>265.265506</ele>
        <time>2022-08-06T14:46:22.014Z</time>
      </trkpt>
      <trkpt lat="46.77324" lon="15.53735">
        <ele>265.310006</ele>
        <time>2022-08-06T14:46:27.546Z</time>
      </trkpt>
      <trkpt lat="46.77284" lon="15.53665">
        <ele>265.441718</ele>
        <time>2022-08-06T14:46:43.581Z</time>
      </trkpt>
      <trkpt lat="46.77261" lon="15.53624">
        <ele>265.517528</ele>
        <time>2022-08-06T14:46:52.660Z</time>
      </trkpt>
      <trkpt lat="46.77172" lon="15.53467">
        <ele>266.774248</ele>
        <time>2022-08-06T14:47:37.904Z</time>
      </trkpt>
      <trkpt lat="46.77166" lon="15.53454">
        <ele>266.911955</ele>
        <time>2022-08-06T14:47:41.723Z</time>
      </trkpt>
      <trkpt lat="46.77147" lon="15.53414">
        <ele>267.33004</ele>
        <time>2022-08-06T14:47:52.751Z</time>
      </trkpt>
      <trkpt lat="46.77143" lon="15.53408">
        <ele>267.402323</ele>
        <time>2022-08-06T14:47:55.020Z</time>
      </trkpt>
      <trkpt lat="46.77095" lon="15.53429">
        <ele>268.010532</ele>
        <time>2022-08-06T14:48:11.281Z</time>
      </trkpt>
      <trkpt lat="46.7705" lon="15.53441">
        <ele>268.502821</ele>
        <time>2022-08-06T14:48:26.692Z</time>
      </trkpt>
      <trkpt lat="46.77024" lon="15.53442">
        <ele>268.774764</ele>
        <time>2022-08-06T14:48:35.313Z</time>
      </trkpt>
      <trkpt lat="46.76975" lon="15.5342">
        <ele>269.320658</ele>
        <time>2022-08-06T14:48:49.869Z</time>
      </trkpt>
      <trkpt lat="46.76923" lon="15.53374">
        <ele>270.199732</ele>
        <time>2022-08-06T14:49:08.070Z</time>
      </trkpt>
      <trkpt lat="46.7688" lon="15.53356">
        <ele>271.376814</ele>
        <time>2022-08-06T14:49:24.195Z</time>
      </trkpt>
      <trkpt lat="46.76864" lon="15.53264">
        <ele>273.059009</ele>
        <time>2022-08-06T14:49:49.067Z</time>
      </trkpt>
      <trkpt lat="46.76851" lon="15.53154">
        <ele>275.881541</ele>
        <time>2022-08-06T14:50:23.943Z</time>
      </trkpt>
      <trkpt lat="46.76851" lon="15.53119">
        <ele>277.387844</ele>
        <time>2022-08-06T14:50:36.226Z</time>
      </trkpt>
      <trkpt lat="46.7686" lon="15.53082">
        <ele>279.097638</ele>
        <time>2022-08-06T14:50:51.121Z</time>
      </trkpt>
      <trkpt lat="46.76893" lon="15.53019">
        <ele>282.51146</ele>
        <time>2022-08-06T14:51:22.693Z</time>
      </trkpt>
      <trkpt lat="46.76914" lon="15.52942">
        <ele>286.265058</ele>
        <time>2022-08-06T14:51:57.441Z</time>
      </trkpt>
      <trkpt lat="46.76986" lon="15.52851">
        <ele>296.324887</ele>
        <time>2022-08-06T14:53:07.215Z</time>
      </trkpt>
      <trkpt lat="46.77022" lon="15.52822">
        <ele>300.683375</ele>
        <time>2022-08-06T14:53:41.742Z</time>
      </trkpt>
      <trkpt lat="46.77214" lon="15.52707">
        <ele>325.971789</ele>
        <time>2022-08-06T14:56:46.102Z</time>
      </trkpt>
      <trkpt lat="46.7724" lon="15.52681">
        <ele>329.076267</ele>
        <time>2022-08-06T14:57:11.704Z</time>
      </trkpt>
      <trkpt lat="46.77271" lon="15.52634">
        <ele>332.736771</ele>
        <time>2022-08-06T14:57:46.491Z</time>
      </trkpt>
      <trkpt lat="46.77294" lon="15.52614">
        <ele>334.92151</ele>
        <time>2022-08-06T14:58:04.795Z</time>
      </trkpt>
      <trkpt lat="46.77369" lon="15.52585">
        <ele>341.299842</ele>
        <time>2022-08-06T14:58:49.375Z</time>
      </trkpt>
      <trkpt lat="46.77407" lon="15.52587">
        <ele>343.107438</ele>
        <time>2022-08-06T14:59:08.065Z</time>
      </trkpt>
      <trkpt lat="46.77434" lon="15.52605">
        <ele>344.106267</ele>
        <time>2022-08-06T14:59:21.447Z</time>
      </trkpt>
      <trkpt lat="46.77445" lon="15.52624">
        <ele>344.646834</ele>
        <time>2022-08-06T14:59:28.465Z</time>
      </trkpt>
      <trkpt lat="46.77473" lon="15.52641">
        <ele>345.658304</ele>
        <time>2022-08-06T14:59:43.053Z</time>
      </trkpt>
      <trkpt lat="46.77513" lon="15.52628">
        <ele>347.016539</ele>
        <time>2022-08-06T15:00:01.821Z</time>
      </trkpt>
      <trkpt lat="46.77562" lon="15.52625">
        <ele>348.003255</ele>
        <time>2022-08-06T15:00:20.282Z</time>
      </trkpt>
      <trkpt lat="46.77576" lon="15.52622">
        <ele>347.859329</ele>
        <time>2022-08-06T15:00:23.454Z</time>
      </trkpt>
      <trkpt lat="46.77592" lon="15.52607">
        <ele>347.657179</ele>
        <time>2022-08-06T15:00:27.506Z</time>
      </trkpt>
      <trkpt lat="46.77606" lon="15.52569">
        <ele>347.342741</ele>
        <time>2022-08-06T15:00:33.583Z</time>
      </trkpt>
      <trkpt lat="46.77626" lon="15.52506">
        <ele>346.839518</ele>
        <time>2022-08-06T15:00:43.467Z</time>
      </trkpt>
      <trkpt lat="46.77644" lon="15.52484">
        <ele>346.589217</ele>
        <time>2022-08-06T15:00:50.622Z</time>
      </trkpt>
      <trkpt lat="46.77681" lon="15.52461">
        <ele>346.020764</ele>
        <time>2022-08-06T15:01:02.198Z</time>
      </trkpt>
      <trkpt lat="46.7771" lon="15.52429">
        <ele>344.954455</ele>
        <time>2022-08-06T15:01:11.804Z</time>
      </trkpt>
      <trkpt lat="46.77716" lon="15.52416">
        <ele>344.629567</ele>
        <time>2022-08-06T15:01:14.253Z</time>
      </trkpt>
      <trkpt lat="46.77705" lon="15.52405">
        <ele>344.245169</ele>
        <time>2022-08-06T15:01:17.002Z</time>
      </trkpt>
      <trkpt lat="46.77645" lon="15.52374">
        <ele>342.36202</ele>
        <time>2022-08-06T15:01:29.197Z</time>
      </trkpt>
      <trkpt lat="46.77619" lon="15.52329">
        <ele>341.191198</ele>
        <time>2022-08-06T15:01:37.155Z</time>
      </trkpt>
      <trkpt lat="46.77568" lon="15.52145">
        <ele>329.839021</ele>
        <time>2022-08-06T15:02:00.390Z</time>
      </trkpt>
      <trkpt lat="46.77569" lon="15.52117">
        <ele>328.204151</ele>
        <time>2022-08-06T15:02:03.398Z</time>
      </trkpt>
      <trkpt lat="46.776" lon="15.52051">
        <ele>323.281286</ele>
        <time>2022-08-06T15:02:12.038Z</time>
      </trkpt>
      <trkpt lat="46.77618" lon="15.51996">
        <ele>319.399524</ele>
        <time>2022-08-06T15:02:18.644Z</time>
      </trkpt>
      <trkpt lat="46.77631" lon="15.51874">
        <ele>311.556506</ele>
        <time>2022-08-06T15:02:32.314Z</time>
      </trkpt>
      <trkpt lat="46.77633" lon="15.51816">
        <ele>308.665563</ele>
        <time>2022-08-06T15:02:42.388Z</time>
      </trkpt>
      <trkpt lat="46.77556" lon="15.51646">
        <ele>309.860628</ele>
        <time>2022-08-06T15:03:30.707Z</time>
      </trkpt>
      <trkpt lat="46.77449" lon="15.51499">
        <ele>312.451504</ele>
        <time>2022-08-06T15:04:35.612Z</time>
      </trkpt>
      <trkpt lat="46.77388" lon="15.51425">
        <ele>313.364948</ele>
        <time>2022-08-06T15:04:57.478Z</time>
      </trkpt>
      <trkpt lat="46.77342" lon="15.51349">
        <ele>311.332448</ele>
        <time>2022-08-06T15:05:11.740Z</time>
      </trkpt>
      <trkpt lat="46.772" lon="15.51207">
        <ele>305.511524</ele>
        <time>2022-08-06T15:05:43.924Z</time>
      </trkpt>
      <trkpt lat="46.77143" lon="15.51161">
        <ele>302.937136</ele>
        <time>2022-08-06T15:05:56.107Z</time>
      </trkpt>
      <trkpt lat="46.77066" lon="15.51061">
        <ele>298.254952</ele>
        <time>2022-08-06T15:06:16.014Z</time>
      </trkpt>
      <trkpt lat="46.77041" lon="15.51018">
        <ele>296.361554</ele>
        <time>2022-08-06T15:06:23.108Z</time>
      </trkpt>
      <trkpt lat="46.77021" lon="15.51002">
        <ele>295.274424</ele>
        <time>2022-08-06T15:06:27.198Z</time>
      </trkpt>
      <trkpt lat="46.77001" lon="15.51">
        <ele>294.270416</ele>
        <time>2022-08-06T15:06:30.782Z</time>
      </trkpt>
      <trkpt lat="46.7699" lon="15.50984">
        <ele>293.51105</ele>
        <time>2022-08-06T15:06:33.519Z</time>
      </trkpt>
      <trkpt lat="46.76946" lon="15.50883">
        <ele>288.165842</ele>
        <time>2022-08-06T15:06:47.481Z</time>
      </trkpt>
      <trkpt lat="46.76928" lon="15.5086">
        <ele>286.514351</ele>
        <time>2022-08-06T15:06:51.521Z</time>
      </trkpt>
      <trkpt lat="46.76838" lon="15.50777">
        <ele>279.465915</ele>
        <time>2022-08-06T15:07:09.781Z</time>
      </trkpt>
      <trkpt lat="46.76795" lon="15.5075">
        <ele>277.631008</ele>
        <time>2022-08-06T15:07:21.275Z</time>
      </trkpt>
      <trkpt lat="46.76751" lon="15.50734">
        <ele>275.839576</ele>
        <time>2022-08-06T15:07:32.890Z</time>
      </trkpt>
      <trkpt lat="46.7672" lon="15.50732">
        <ele>274.611639</ele>
        <time>2022-08-06T15:07:41.395Z</time>
      </trkpt>
      <trkpt lat="46.76721" lon="15.50717">
        <ele>274.211306</ele>
        <time>2022-08-06T15:07:43.656Z</time>
      </trkpt>
      <trkpt lat="46.76725" lon="15.50678">
        <ele>273.145141</ele>
        <time>2022-08-06T15:07:51.901Z</time>
      </trkpt>
      <trkpt lat="46.76726" lon="15.50667">
        <ele>272.919946</ele>
        <time>2022-08-06T15:07:54.492Z</time>
      </trkpt>
      <trkpt lat="46.76737" lon="15.50609">
        <ele>272.747656</ele>
        <time>2022-08-06T15:08:08.118Z</time>
      </trkpt>
      <trkpt lat="46.7682" lon="15.50427">
        <ele>272.203381</ele>
        <time>2022-08-06T15:08:59.265Z</time>
      </trkpt>
      <trkpt lat="46.76813" lon="15.50392">
        <ele>272.24671</ele>
        <time>2022-08-06T15:09:07.981Z</time>
      </trkpt>
      <trkpt lat="46.76735" lon="15.50147">
        <ele>272.806549</ele>
        <time>2022-08-06T15:10:14.972Z</time>
      </trkpt>
      <trkpt lat="46.76735" lon="15.5013">
        <ele>272.889143</ele>
        <time>2022-08-06T15:10:19.292Z</time>
      </trkpt>
      <trkpt lat="46.7674" lon="15.50114">
        <ele>272.980799</ele>
        <time>2022-08-06T15:10:24.129Z</time>
      </trkpt>
      <trkpt lat="46.76673" lon="15.49991">
        <ele>273.758834</ele>
        <time>2022-08-06T15:10:57.685Z</time>
      </trkpt>
      <trkpt lat="46.76681" lon="15.49982">
        <ele>273.844558</ele>
        <time>2022-08-06T15:11:00.971Z</time>
      </trkpt>
      <trkpt lat="46.76743" lon="15.49915">
        <ele>274.584071</ele>
        <time>2022-08-06T15:11:25.919Z</time>
      </trkpt>
      <trkpt lat="46.7682" lon="15.49833">
        <ele>275.486328</ele>
        <time>2022-08-06T15:11:55.642Z</time>
      </trkpt>
      <trkpt lat="46.76906" lon="15.49742">
        <ele>275.754145</ele>
        <time>2022-08-06T15:12:45.196Z</time>
      </trkpt>
      <trkpt lat="46.77005" lon="15.49875">
        <ele>275.872997</ele>
        <time>2022-08-06T15:13:43.961Z</time>
      </trkpt>
      <trkpt lat="46.77147" lon="15.49733">
        <ele>276.40792</ele>
        <time>2022-08-06T15:14:59.724Z</time>
      </trkpt>
      <trkpt lat="46.77152" lon="15.49729">
        <ele>276.483371</ele>
        <time>2022-08-06T15:15:02.425Z</time>
      </trkpt>
      <trkpt lat="46.77156" lon="15.49725">
        <ele>276.543854</ele>
        <time>2022-08-06T15:15:04.619Z</time>
      </trkpt>
      <trkpt lat="46.77166" lon="15.49717">
        <ele>276.696711</ele>
        <time>2022-08-06T15:15:10.409Z</time>
      </trkpt>
      <trkpt lat="46.77192" lon="15.49714">
        <ele>277.028558</ele>
        <time>2022-08-06T15:15:23.316Z</time>
      </trkpt>
      <trkpt lat="46.77241" lon="15.49722">
        <ele>277.655308</ele>
        <time>2022-08-06T15:15:49.924Z</time>
      </trkpt>
      <trkpt lat="46.77276" lon="15.49727">
        <ele>278.204388</ele>
        <time>2022-08-06T15:16:10.022Z</time>
      </trkpt>
      <trkpt lat="46.77313" lon="15.49733">
        <ele>279.463045</ele>
        <time>2022-08-06T15:16:25.124Z</time>
      </trkpt>
      <trkpt lat="46.77301" lon="15.49639">
        <ele>281.677316</ele>
        <time>2022-08-06T15:16:53.823Z</time>
      </trkpt>
      <trkpt lat="46.77294" lon="15.49515">
        <ele>284.65914</ele>
        <time>2022-08-06T15:17:33.697Z</time>
      </trkpt>
      <trkpt lat="46.77308" lon="15.49347">
        <ele>289.417616</ele>
        <time>2022-08-06T15:18:28.520Z</time>
      </trkpt>
      <trkpt lat="46.77337" lon="15.49238">
        <ele>293.609159</ele>
        <time>2022-08-06T15:19:07.290Z</time>
      </trkpt>
      <trkpt lat="46.7734" lon="15.49186">
        <ele>296.168791</ele>
        <time>2022-08-06T15:19:24.620Z</time>
      </trkpt>
      <trkpt lat="46.77335" lon="15.49153">
        <ele>297.835685</ele>
        <time>2022-08-06T15:19:36.027Z</time>
      </trkpt>
      <trkpt lat="46.77321" lon="15.49109">
        <ele>300.223713</ele>
        <time>2022-08-06T15:19:56.394Z</time>
      </trkpt>
      <trkpt lat="46.77252" lon="15.48994">
        <ele>310.067848</ele>
        <time>2022-08-06T15:21:22.320Z</time>
      </trkpt>
      <trkpt lat="46.77238" lon="15.48963">
        <ele>313.235516</ele>
        <time>2022-08-06T15:21:43.173Z</time>
      </trkpt>
      <trkpt lat="46.77234" lon="15.48939">
        <ele>315.297116</ele>
        <time>2022-08-06T15:21:59.468Z</time>
      </trkpt>
      <trkpt lat="46.77243" lon="15.4888">
        <ele>320.366624</ele>
        <time>2022-08-06T15:22:36.622Z</time>
      </trkpt>
      <trkpt lat="46.77255" lon="15.48851">
        <ele>323.180566</ele>
        <time>2022-08-06T15:22:56.289Z</time>
      </trkpt>
      <trkpt lat="46.7727" lon="15.48839">
        <ele>325.336369</ele>
        <time>2022-08-06T15:23:13.196Z</time>
      </trkpt>
      <trkpt lat="46.77328" lon="15.48823">
        <ele>330.951293</ele>
        <time>2022-08-06T15:24:07.077Z</time>
      </trkpt>
      <trkpt lat="46.77355" lon="15.48802">
        <ele>333.703058</ele>
        <time>2022-08-06T15:24:32.515Z</time>
      </trkpt>
      <trkpt lat="46.77384" lon="15.48765">
        <ele>337.077453</ele>
        <time>2022-08-06T15:24:56.487Z</time>
      </trkpt>
      <trkpt lat="46.77401" lon="15.48759">
        <ele>338.686539</ele>
        <time>2022-08-06T15:25:07.057Z</time>
      </trkpt>
      <trkpt lat="46.7744" lon="15.4876">
        <ele>342.192507</ele>
        <time>2022-08-06T15:25:28.564Z</time>
      </trkpt>
      <trkpt lat="46.77468" lon="15.48773">
        <ele>343.242578</ele>
        <time>2022-08-06T15:25:43.732Z</time>
      </trkpt>
      <trkpt lat="46.7749" lon="15.48808">
        <ele>343.972692</ele>
        <time>2022-08-06T15:25:58.876Z</time>
      </trkpt>
      <trkpt lat="46.77496" lon="15.4884">
        <ele>344.480084</ele>
        <time>2022-08-06T15:26:08.078Z</time>
      </trkpt>
      <trkpt lat="46.77502" lon="15.48937">
        <ele>345.97998</ele>
        <time>2022-08-06T15:26:31.049Z</time>
      </trkpt>
      <trkpt lat="46.77521" lon="15.49026">
        <ele>346.401934</ele>
        <time>2022-08-06T15:26:47.897Z</time>
      </trkpt>
      <trkpt lat="46.77559" lon="15.49014">
        <ele>345.934502</ele>
        <time>2022-08-06T15:26:57.206Z</time>
      </trkpt>
      <trkpt lat="46.7759" lon="15.48995">
        <ele>345.526088</ele>
        <time>2022-08-06T15:27:04.979Z</time>
      </trkpt>
      <trkpt lat="46.77614" lon="15.48986">
        <ele>345.2292</ele>
        <time>2022-08-06T15:27:10.269Z</time>
      </trkpt>
      <trkpt lat="46.77653" lon="15.48977">
        <ele>344.755542</ele>
        <time>2022-08-06T15:27:18.384Z</time>
      </trkpt>
      <trkpt lat="46.77685" lon="15.48972">
        <ele>344.366335</ele>
        <time>2022-08-06T15:27:25.037Z</time>
      </trkpt>
      <trkpt lat="46.77748" lon="15.48956">
        <ele>343.590784</ele>
        <time>2022-08-06T15:27:38.818Z</time>
      </trkpt>
      <trkpt lat="46.77806" lon="15.48904">
        <ele>342.771718</ele>
        <time>2022-08-06T15:27:55.213Z</time>
      </trkpt>
      <trkpt lat="46.77872" lon="15.48855">
        <ele>342.914381</ele>
        <time>2022-08-06T15:28:13.320Z</time>
      </trkpt>
      <trkpt lat="46.7794" lon="15.48787">
        <ele>343.838353</ele>
        <time>2022-08-06T15:28:37.903Z</time>
      </trkpt>
      <trkpt lat="46.78009" lon="15.48745">
        <ele>345.240877</ele>
        <time>2022-08-06T15:29:09.188Z</time>
      </trkpt>
      <trkpt lat="46.78015" lon="15.48731">
        <ele>345.660798</ele>
        <time>2022-08-06T15:29:13.638Z</time>
      </trkpt>
      <trkpt lat="46.78015" lon="15.48711">
        <ele>346.166881</ele>
        <time>2022-08-06T15:29:19.163Z</time>
      </trkpt>
      <trkpt lat="46.78006" lon="15.4868">
        <ele>347.021936</ele>
        <time>2022-08-06T15:29:28.992Z</time>
      </trkpt>
      <trkpt lat="46.77987" lon="15.48637">
        <ele>348.357533</ele>
        <time>2022-08-06T15:29:45.088Z</time>
      </trkpt>
      <trkpt lat="46.77988" lon="15.48608">
        <ele>349.083861</ele>
        <time>2022-08-06T15:29:53.811Z</time>
      </trkpt>
      <trkpt lat="46.77999" lon="15.48597">
        <ele>349.589815</ele>
        <time>2022-08-06T15:30:00.091Z</time>
      </trkpt>
      <trkpt lat="46.78045" lon="15.48566">
        <ele>351.611359</ele>
        <time>2022-08-06T15:30:23.957Z</time>
      </trkpt>
      <trkpt lat="46.78053" lon="15.48562">
        <ele>352.057205</ele>
        <time>2022-08-06T15:30:28.212Z</time>
      </trkpt>
      <trkpt lat="46.78111" lon="15.48538">
        <ele>355.27828</ele>
        <time>2022-08-06T15:30:58.828Z</time>
      </trkpt>
      <trkpt lat="46.78145" lon="15.48515">
        <ele>357.276942</ele>
        <time>2022-08-06T15:31:17.773Z</time>
      </trkpt>
      <trkpt lat="46.78155" lon="15.48514">
        <ele>357.851446</ele>
        <time>2022-08-06T15:31:23.540Z</time>
      </trkpt>
      <trkpt lat="46.78236" lon="15.48579">
        <ele>362.235632</ele>
        <time>2022-08-06T15:32:17.399Z</time>
      </trkpt>
      <trkpt lat="46.7834" lon="15.48548">
        <ele>366.311197</ele>
        <time>2022-08-06T15:33:07.538Z</time>
      </trkpt>
      <trkpt lat="46.78404" lon="15.48541">
        <ele>367.334115</ele>
        <time>2022-08-06T15:33:27.029Z</time>
      </trkpt>
      <trkpt lat="46.78431" lon="15.48527">
        <ele>366.896709</ele>
        <time>2022-08-06T15:33:34.093Z</time>
      </trkpt>
      <trkpt lat="46.78449" lon="15.48482">
        <ele>366.359404</ele>
        <time>2022-08-06T15:33:41.953Z</time>
      </trkpt>
      <trkpt lat="46.78453" lon="15.48442">
        <ele>365.950781</ele>
        <time>2022-08-06T15:33:47.300Z</time>
      </trkpt>
      <trkpt lat="46.78453" lon="15.4837">
        <ele>365.211878</ele>
        <time>2022-08-06T15:33:57.034Z</time>
      </trkpt>
      <trkpt lat="46.78459" lon="15.48343">
        <ele>365.218968</ele>
        <time>2022-08-06T15:34:00.556Z</time>
      </trkpt>
      <trkpt lat="46.7847" lon="15.48318">
        <ele>365.634228</ele>
        <time>2022-08-06T15:34:04.439Z</time>
      </trkpt>
      <trkpt lat="46.785" lon="15.48256">
        <ele>366.707204</ele>
        <time>2022-08-06T15:34:17.715Z</time>
      </trkpt>
      <trkpt lat="46.78547" lon="15.48217">
        <ele>367.810176</ele>
        <time>2022-08-06T15:34:43.713Z</time>
      </trkpt>
      <trkpt lat="46.78549" lon="15.48217">
        <ele>367.845187</ele>
        <time>2022-08-06T15:34:44.096Z</time>
      </trkpt>
      <trkpt lat="46.78547" lon="15.48217">
        <ele>367.880199</ele>
        <time>2022-08-06T15:34:45.669Z</time>
      </trkpt>
      <trkpt lat="46.78601" lon="15.48164">
        <ele>369.70952</ele>
        <time>2022-08-06T15:35:22.883Z</time>
      </trkpt>
      <trkpt lat="46.78634" lon="15.48117">
        <ele>371.682409</ele>
        <time>2022-08-06T15:35:48.610Z</time>
      </trkpt>
      <trkpt lat="46.78649" lon="15.48082">
        <ele>372.887664</ele>
        <time>2022-08-06T15:36:03.913Z</time>
      </trkpt>
      <trkpt lat="46.78678" lon="15.48034">
        <ele>374.73747</ele>
        <time>2022-08-06T15:36:20.427Z</time>
      </trkpt>
      <trkpt lat="46.78709" lon="15.47965">
        <ele>376.247803</ele>
        <time>2022-08-06T15:36:44.160Z</time>
      </trkpt>
      <trkpt lat="46.78778" lon="15.47915">
        <ele>375.755021</ele>
        <time>2022-08-06T15:37:05.653Z</time>
      </trkpt>
      <trkpt lat="46.78778" lon="15.47914">
        <ele>375.749568</ele>
        <time>2022-08-06T15:37:05.810Z</time>
      </trkpt>
      <trkpt lat="46.78791" lon="15.47898">
        <ele>375.639239</ele>
        <time>2022-08-06T15:37:09.016Z</time>
      </trkpt>
      <trkpt lat="46.78798" lon="15.47883">
        <ele>375.562081</ele>
        <time>2022-08-06T15:37:11.893Z</time>
      </trkpt>
      <trkpt lat="46.78807" lon="15.47814">
        <ele>375.254241</ele>
        <time>2022-08-06T15:37:21.156Z</time>
      </trkpt>
      <trkpt lat="46.78882" lon="15.47832">
        <ele>374.412289</ele>
        <time>2022-08-06T15:37:37.976Z</time>
      </trkpt>
      <trkpt lat="46.78916" lon="15.47826">
        <ele>374.01862</ele>
        <time>2022-08-06T15:37:48.520Z</time>
      </trkpt>
      <trkpt lat="46.78937" lon="15.47816">
        <ele>373.762467</ele>
        <time>2022-08-06T15:37:54.850Z</time>
      </trkpt>
      <trkpt lat="46.79011" lon="15.47786">
        <ele>372.983119</ele>
        <time>2022-08-06T15:38:13.152Z</time>
      </trkpt>
      <trkpt lat="46.79064" lon="15.4778">
        <ele>372.642821</ele>
        <time>2022-08-06T15:38:25.684Z</time>
      </trkpt>
      <trkpt lat="46.79082" lon="15.47777">
        <ele>372.525032</ele>
        <time>2022-08-06T15:38:30.472Z</time>
      </trkpt>
      <trkpt lat="46.79098" lon="15.47786">
        <ele>372.413928</ele>
        <time>2022-08-06T15:38:34.639Z</time>
      </trkpt>
      <trkpt lat="46.79126" lon="15.47762">
        <ele>372.202622</ele>
        <time>2022-08-06T15:38:42.965Z</time>
      </trkpt>
      <trkpt lat="46.79166" lon="15.47749">
        <ele>372.004896</ele>
        <time>2022-08-06T15:38:53.455Z</time>
      </trkpt>
      <trkpt lat="46.79197" lon="15.47773">
        <ele>372.523354</ele>
        <time>2022-08-06T15:39:02.492Z</time>
      </trkpt>
      <trkpt lat="46.79227" lon="15.47746">
        <ele>373.039221</ele>
        <time>2022-08-06T15:39:12.124Z</time>
      </trkpt>
      <trkpt lat="46.79249" lon="15.47701">
        <ele>373.604613</ele>
        <time>2022-08-06T15:39:23.761Z</time>
      </trkpt>
      <trkpt lat="46.79276" lon="15.47622">
        <ele>374.49597</ele>
        <time>2022-08-06T15:39:47.777Z</time>
      </trkpt>
      <trkpt lat="46.79315" lon="15.47486">
        <ele>378.502129</ele>
        <time>2022-08-06T15:40:37.198Z</time>
      </trkpt>
      <trkpt lat="46.79341" lon="15.47442">
        <ele>380.152278</ele>
        <time>2022-08-06T15:40:56.169Z</time>
      </trkpt>
      <trkpt lat="46.79432" lon="15.47331">
        <ele>384.268474</ele>
        <time>2022-08-06T15:41:50.677Z</time>
      </trkpt>
      <trkpt lat="46.79528" lon="15.47268">
        <ele>387.416228</ele>
        <time>2022-08-06T15:42:31.372Z</time>
      </trkpt>
      <trkpt lat="46.79563" lon="15.47232">
        <ele>388.248482</ele>
        <time>2022-08-06T15:42:46.150Z</time>
      </trkpt>
      <trkpt lat="46.79592" lon="15.4719">
        <ele>389.002492</ele>
        <time>2022-08-06T15:42:59.372Z</time>
      </trkpt>
      <trkpt lat="46.79602" lon="15.47174">
        <ele>389.282659</ele>
        <time>2022-08-06T15:43:04.353Z</time>
      </trkpt>
      <trkpt lat="46.79631" lon="15.47104">
        <ele>390.326064</ele>
        <time>2022-08-06T15:43:23.476Z</time>
      </trkpt>
      <trkpt lat="46.79665" lon="15.47053">
        <ele>391.459805</ele>
        <time>2022-08-06T15:43:42.528Z</time>
      </trkpt>
      <trkpt lat="46.79729" lon="15.4702">
        <ele>393.526457</ele>
        <time>2022-08-06T15:44:11.256Z</time>
      </trkpt>
      <trkpt lat="46.79761" lon="15.46967">
        <ele>395.003648</ele>
        <time>2022-08-06T15:44:31.640Z</time>
      </trkpt>
      <trkpt lat="46.79773" lon="15.46941">
        <ele>395.65003</ele>
        <time>2022-08-06T15:44:40.483Z</time>
      </trkpt>
      <trkpt lat="46.79788" lon="15.46911">
        <ele>396.381347</ele>
        <time>2022-08-06T15:44:51.958Z</time>
      </trkpt>
      <trkpt lat="46.7984" lon="15.46841">
        <ele>397.438182</ele>
        <time>2022-08-06T15:45:20.548Z</time>
      </trkpt>
      <trkpt lat="46.79849" lon="15.46814">
        <ele>397.756317</ele>
        <time>2022-08-06T15:45:28.104Z</time>
      </trkpt>
      <trkpt lat="46.79858" lon="15.46731">
        <ele>398.615112</ele>
        <time>2022-08-06T15:45:43.974Z</time>
      </trkpt>
      <trkpt lat="46.79859" lon="15.46605">
        <ele>398.88016</ele>
        <time>2022-08-06T15:46:06.393Z</time>
      </trkpt>
      <trkpt lat="46.79877" lon="15.46533">
        <ele>398.744775</ele>
        <time>2022-08-06T15:46:19.942Z</time>
      </trkpt>
      <trkpt lat="46.79892" lon="15.46461">
        <ele>398.611188</ele>
        <time>2022-08-06T15:46:33.794Z</time>
      </trkpt>
      <trkpt lat="46.79909" lon="15.46382">
        <ele>398.076891</ele>
        <time>2022-08-06T15:46:46.710Z</time>
      </trkpt>
      <trkpt lat="46.79936" lon="15.46286">
        <ele>397.199903</ele>
        <time>2022-08-06T15:47:03.326Z</time>
      </trkpt>
      <trkpt lat="46.79951" lon="15.46252">
        <ele>396.852847</ele>
        <time>2022-08-06T15:47:09.758Z</time>
      </trkpt>
      <trkpt lat="46.79966" lon="15.46235">
        <ele>396.618732</ele>
        <time>2022-08-06T15:47:13.635Z</time>
      </trkpt>
      <trkpt lat="46.80014" lon="15.46211">
        <ele>395.971379</ele>
        <time>2022-08-06T15:47:24.274Z</time>
      </trkpt>
      <trkpt lat="46.80064" lon="15.46176">
        <ele>395.23433</ele>
        <time>2022-08-06T15:47:35.781Z</time>
      </trkpt>
      <trkpt lat="46.80151" lon="15.46161">
        <ele>394.071203</ele>
        <time>2022-08-06T15:47:55.664Z</time>
      </trkpt>
      <trkpt lat="46.80192" lon="15.46148">
        <ele>394.017125</ele>
        <time>2022-08-06T15:48:07.540Z</time>
      </trkpt>
      <trkpt lat="46.80226" lon="15.46126">
        <ele>394.099237</ele>
        <time>2022-08-06T15:48:18.549Z</time>
      </trkpt>
      <trkpt lat="46.80246" lon="15.46106">
        <ele>394.152675</ele>
        <time>2022-08-06T15:48:25.865Z</time>
      </trkpt>
      <trkpt lat="46.80262" lon="15.46077">
        <ele>394.209781</ele>
        <time>2022-08-06T15:48:33.477Z</time>
      </trkpt>
      <trkpt lat="46.80293" lon="15.45997">
        <ele>394.305065</ele>
        <time>2022-08-06T15:48:51.393Z</time>
      </trkpt>
      <trkpt lat="46.80342" lon="15.45845">
        <ele>392.943095</ele>
        <time>2022-08-06T15:49:19.122Z</time>
      </trkpt>
      <trkpt lat="46.80359" lon="15.45815">
        <ele>392.62181</ele>
        <time>2022-08-06T15:49:25.069Z</time>
      </trkpt>
      <trkpt lat="46.80462" lon="15.45811">
        <ele>388.665399</ele>
        <time>2022-08-06T15:49:45.450Z</time>
      </trkpt>
      <trkpt lat="46.80532" lon="15.45824">
        <ele>384.950325</ele>
        <time>2022-08-06T15:49:58.207Z</time>
      </trkpt>
      <trkpt lat="46.80629" lon="15.45746">
        <ele>375.288559</ele>
        <time>2022-08-06T15:50:16.601Z</time>
      </trkpt>
      <trkpt lat="46.80688" lon="15.45751">
        <ele>368.903121</ele>
        <time>2022-08-06T15:50:25.944Z</time>
      </trkpt>
      <trkpt lat="46.80704" lon="15.45765">
        <ele>366.900409</ele>
        <time>2022-08-06T15:50:28.891Z</time>
      </trkpt>
      <trkpt lat="46.80764" lon="15.45831">
        <ele>358.350261</ele>
        <time>2022-08-06T15:50:40.852Z</time>
      </trkpt>
      <trkpt lat="46.80778" lon="15.45835">
        <ele>356.657803</ele>
        <time>2022-08-06T15:50:43.133Z</time>
      </trkpt>
      <trkpt lat="46.80845" lon="15.45763">
        <ele>346.884583</ele>
        <time>2022-08-06T15:50:56.533Z</time>
      </trkpt>
      <trkpt lat="46.80872" lon="15.45696">
        <ele>340.919742</ele>
        <time>2022-08-06T15:51:05.056Z</time>
      </trkpt>
      <trkpt lat="46.80877" lon="15.4561">
        <ele>335.257188</ele>
        <time>2022-08-06T15:51:14.479Z</time>
      </trkpt>
      <trkpt lat="46.80883" lon="15.45586">
        <ele>333.568299</ele>
        <time>2022-08-06T15:51:17.383Z</time>
      </trkpt>
      <trkpt lat="46.80902" lon="15.45573">
        <ele>331.454989</ele>
        <time>2022-08-06T15:51:20.967Z</time>
      </trkpt>
      <trkpt lat="46.80967" lon="15.4559">
        <ele>325.093418</ele>
        <time>2022-08-06T15:51:31.976Z</time>
      </trkpt>
      <trkpt lat="46.8103" lon="15.45596">
        <ele>321.586283</ele>
        <time>2022-08-06T15:51:42.712Z</time>
      </trkpt>
      <trkpt lat="46.81074" lon="15.45585">
        <ele>319.197615</ele>
        <time>2022-08-06T15:51:50.445Z</time>
      </trkpt>
      <trkpt lat="46.81243" lon="15.45464">
        <ele>312.284824</ele>
        <time>2022-08-06T15:52:28.519Z</time>
      </trkpt>
      <trkpt lat="46.8127" lon="15.45451">
        <ele>311.568865</ele>
        <time>2022-08-06T15:52:34.223Z</time>
      </trkpt>
      <trkpt lat="46.81329" lon="15.45442">
        <ele>310.437148</ele>
        <time>2022-08-06T15:52:46.505Z</time>
      </trkpt>
      <trkpt lat="46.81336" lon="15.45441">
        <ele>310.387412</ele>
        <time>2022-08-06T15:52:47.889Z</time>
      </trkpt>
      <trkpt lat="46.81346" lon="15.4544">
        <ele>310.316834</ele>
        <time>2022-08-06T15:52:49.943Z</time>
      </trkpt>
      <trkpt lat="46.81375" lon="15.45437">
        <ele>310.096963</ele>
        <time>2022-08-06T15:52:56.163Z</time>
      </trkpt>
      <trkpt lat="46.81413" lon="15.45422">
        <ele>309.808194</ele>
        <time>2022-08-06T15:53:04.733Z</time>
      </trkpt>
      <trkpt lat="46.81426" lon="15.4541">
        <ele>309.69157</ele>
        <time>2022-08-06T15:53:08.334Z</time>
      </trkpt>
      <trkpt lat="46.81507" lon="15.45296">
        <ele>310.955502</ele>
        <time>2022-08-06T15:53:45.566Z</time>
      </trkpt>
      <trkpt lat="46.81597" lon="15.4519">
        <ele>314.530478</ele>
        <time>2022-08-06T15:54:36.538Z</time>
      </trkpt>
      <trkpt lat="46.81622" lon="15.45169">
        <ele>315.783822</ele>
        <time>2022-08-06T15:54:50.915Z</time>
      </trkpt>
      <trkpt lat="46.81692" lon="15.45137">
        <ele>319.499966</ele>
        <time>2022-08-06T15:55:31.202Z</time>
      </trkpt>
      <trkpt lat="46.81827" lon="15.45062">
        <ele>325.877558</ele>
        <time>2022-08-06T15:56:42.937Z</time>
      </trkpt>
      <trkpt lat="46.81893" lon="15.4504">
        <ele>328.228478</ele>
        <time>2022-08-06T15:57:12.383Z</time>
      </trkpt>
      <trkpt lat="46.81933" lon="15.45035">
        <ele>329.646366</ele>
        <time>2022-08-06T15:57:28.179Z</time>
      </trkpt>
      <trkpt lat="46.81991" lon="15.45022">
        <ele>330.822915</ele>
        <time>2022-08-06T15:57:48.504Z</time>
      </trkpt>
      <trkpt lat="46.82029" lon="15.44972">
        <ele>331.598848</ele>
        <time>2022-08-06T15:58:06.284Z</time>
      </trkpt>
      <trkpt lat="46.82049" lon="15.44928">
        <ele>332.151869</ele>
        <time>2022-08-06T15:58:19.619Z</time>
      </trkpt>
      <trkpt lat="46.82076" lon="15.44926">
        <ele>332.55117</ele>
        <time>2022-08-06T15:58:28.812Z</time>
      </trkpt>
      <trkpt lat="46.82107" lon="15.44961">
        <ele>332.577827</ele>
        <time>2022-08-06T15:58:39.756Z</time>
      </trkpt>
      <trkpt lat="46.82123" lon="15.44977">
        <ele>332.20249</ele>
        <time>2022-08-06T15:58:45.197Z</time>
      </trkpt>
      <trkpt lat="46.82125" lon="15.44973">
        <ele>332.132986</ele>
        <time>2022-08-06T15:58:46.268Z</time>
      </trkpt>
      <trkpt lat="46.82136" lon="15.44948">
        <ele>331.750939</ele>
        <time>2022-08-06T15:58:50.922Z</time>
      </trkpt>
      <trkpt lat="46.82156" lon="15.44926">
        <ele>331.273315</ele>
        <time>2022-08-06T15:58:56.672Z</time>
      </trkpt>
      <trkpt lat="46.82183" lon="15.44917">
        <ele>330.74363</ele>
        <time>2022-08-06T15:59:02.778Z</time>
      </trkpt>
      <trkpt lat="46.82229" lon="15.44911">
        <ele>329.871076</ele>
        <time>2022-08-06T15:59:11.786Z</time>
      </trkpt>
      <trkpt lat="46.82281" lon="15.44941">
        <ele>327.449057</ele>
        <time>2022-08-06T15:59:22.069Z</time>
      </trkpt>
      <trkpt lat="46.82369" lon="15.44963">
        <ele>322.35758</ele>
        <time>2022-08-06T15:59:37.384Z</time>
      </trkpt>
      <trkpt lat="46.8246" lon="15.45029">
        <ele>318.51444</ele>
        <time>2022-08-06T15:59:55.423Z</time>
      </trkpt>
      <trkpt lat="46.82519" lon="15.45032">
        <ele>317.603584</ele>
        <time>2022-08-06T16:00:08.610Z</time>
      </trkpt>
      <trkpt lat="46.82576" lon="15.45026">
        <ele>316.743838</ele>
        <time>2022-08-06T16:00:23.647Z</time>
      </trkpt>
      <trkpt lat="46.82613" lon="15.4501">
        <ele>317.526321</ele>
        <time>2022-08-06T16:00:37.777Z</time>
      </trkpt>
      <trkpt lat="46.82625" lon="15.44993">
        <ele>318.314704</ele>
        <time>2022-08-06T16:00:46.396Z</time>
      </trkpt>
      <trkpt lat="46.82641" lon="15.44945">
        <ele>320.087753</ele>
        <time>2022-08-06T16:01:03.074Z</time>
      </trkpt>
      <trkpt lat="46.82661" lon="15.44911">
        <ele>321.548652</ele>
        <time>2022-08-06T16:01:17.869Z</time>
      </trkpt>
      <trkpt lat="46.82678" lon="15.44902">
        <ele>322.428676</ele>
        <time>2022-08-06T16:01:27.565Z</time>
      </trkpt>
      <trkpt lat="46.82712" lon="15.44897">
        <ele>324.113429</ele>
        <time>2022-08-06T16:01:48.788Z</time>
      </trkpt>
      <trkpt lat="46.82732" lon="15.44886">
        <ele>325.121209</ele>
        <time>2022-08-06T16:02:02.702Z</time>
      </trkpt>
      <trkpt lat="46.82747" lon="15.4487">
        <ele>326.401343</ele>
        <time>2022-08-06T16:02:13.933Z</time>
      </trkpt>
      <trkpt lat="46.82779" lon="15.44807">
        <ele>330.095696</ele>
        <time>2022-08-06T16:02:46.160Z</time>
      </trkpt>
      <trkpt lat="46.82788" lon="15.4476">
        <ele>332.352375</ele>
        <time>2022-08-06T16:03:06.989Z</time>
      </trkpt>
      <trkpt lat="46.82805" lon="15.44566">
        <ele>339.210225</ele>
        <time>2022-08-06T16:04:24.735Z</time>
      </trkpt>
      <trkpt lat="46.82818" lon="15.44506">
        <ele>340.481727</ele>
        <time>2022-08-06T16:04:42.963Z</time>
      </trkpt>
      <trkpt lat="46.82833" lon="15.4447">
        <ele>341.336715</ele>
        <time>2022-08-06T16:04:52.709Z</time>
      </trkpt>
      <trkpt lat="46.82845" lon="15.44454">
        <ele>341.815409</ele>
        <time>2022-08-06T16:04:57.172Z</time>
      </trkpt>
      <trkpt lat="46.82854" lon="15.44448">
        <ele>342.108169</ele>
        <time>2022-08-06T16:04:59.979Z</time>
      </trkpt>
      <trkpt lat="46.82876" lon="15.44448">
        <ele>342.750755</ele>
        <time>2022-08-06T16:05:05.156Z</time>
      </trkpt>
      <trkpt lat="46.82888" lon="15.44457">
        <ele>342.84604</ele>
        <time>2022-08-06T16:05:08.380Z</time>
      </trkpt>
      <trkpt lat="46.82921" lon="15.44497">
        <ele>343.066703</ele>
        <time>2022-08-06T16:05:17.588Z</time>
      </trkpt>
      <trkpt lat="46.8294" lon="15.44499">
        <ele>343.16573</ele>
        <time>2022-08-06T16:05:21.817Z</time>
      </trkpt>
      <trkpt lat="46.82965" lon="15.44483">
        <ele>343.310127</ele>
        <time>2022-08-06T16:05:28.390Z</time>
      </trkpt>
      <trkpt lat="46.83024" lon="15.44418">
        <ele>343.693034</ele>
        <time>2022-08-06T16:05:51.854Z</time>
      </trkpt>
      <trkpt lat="46.83096" lon="15.44391">
        <ele>347.808818</ele>
        <time>2022-08-06T16:06:30.928Z</time>
      </trkpt>
      <trkpt lat="46.83146" lon="15.44362">
        <ele>350.907101</ele>
        <time>2022-08-06T16:07:04.276Z</time>
      </trkpt>
      <trkpt lat="46.83156" lon="15.4435">
        <ele>351.651942</ele>
        <time>2022-08-06T16:07:11.608Z</time>
      </trkpt>
      <trkpt lat="46.83158" lon="15.44339">
        <ele>352.096711</ele>
        <time>2022-08-06T16:07:16.936Z</time>
      </trkpt>
      <trkpt lat="46.83138" lon="15.44273">
        <ele>354.485809</ele>
        <time>2022-08-06T16:07:48.113Z</time>
      </trkpt>
      <trkpt lat="46.83137" lon="15.44111">
        <ele>357.365015</ele>
        <time>2022-08-06T16:08:38.456Z</time>
      </trkpt>
      <trkpt lat="46.83098" lon="15.44">
        <ele>358.172967</ele>
        <time>2022-08-06T16:08:56.779Z</time>
      </trkpt>
      <trkpt lat="46.83112" lon="15.439">
        <ele>356.835186</ele>
        <time>2022-08-06T16:09:10.555Z</time>
      </trkpt>
      <trkpt lat="46.83126" lon="15.43856">
        <ele>356.194311</ele>
        <time>2022-08-06T16:09:17.085Z</time>
      </trkpt>
      <trkpt lat="46.83232" lon="15.43666">
        <ele>356.357375</ele>
        <time>2022-08-06T16:09:58.784Z</time>
      </trkpt>
      <trkpt lat="46.83243" lon="15.43619">
        <ele>356.643216</ele>
        <time>2022-08-06T16:10:12.570Z</time>
      </trkpt>
      <trkpt lat="46.83254" lon="15.43537">
        <ele>358.347842</ele>
        <time>2022-08-06T16:10:38.324Z</time>
      </trkpt>
      <trkpt lat="46.83282" lon="15.43331">
        <ele>364.842281</ele>
        <time>2022-08-06T16:11:52.858Z</time>
      </trkpt>
      <trkpt lat="46.833" lon="15.43276">
        <ele>365.123782</ele>
        <time>2022-08-06T16:12:11.305Z</time>
      </trkpt>
      <trkpt lat="46.83337" lon="15.43216">
        <ele>365.349442</ele>
        <time>2022-08-06T16:12:32.019Z</time>
      </trkpt>
      <trkpt lat="46.83338" lon="15.43197">
        <ele>365.404377</ele>
        <time>2022-08-06T16:12:34.737Z</time>
      </trkpt>
      <trkpt lat="46.83331" lon="15.43159">
        <ele>365.513477</ele>
        <time>2022-08-06T16:12:41.925Z</time>
      </trkpt>
      <trkpt lat="46.83291" lon="15.43031">
        <ele>362.087034</ele>
        <time>2022-08-06T16:13:00.323Z</time>
      </trkpt>
      <trkpt lat="46.83287" lon="15.42982">
        <ele>359.676275</ele>
        <time>2022-08-06T16:13:05.982Z</time>
      </trkpt>
      <trkpt lat="46.83302" lon="15.42855">
        <ele>353.340706</ele>
        <time>2022-08-06T16:13:20.727Z</time>
      </trkpt>
      <trkpt lat="46.83313" lon="15.42818">
        <ele>350.878065</ele>
        <time>2022-08-06T16:13:25.198Z</time>
      </trkpt>
      <trkpt lat="46.83372" lon="15.42707">
        <ele>341.538071</ele>
        <time>2022-08-06T16:13:40.972Z</time>
      </trkpt>
      <trkpt lat="46.834" lon="15.42636">
        <ele>336.175766</ele>
        <time>2022-08-06T16:13:50.046Z</time>
      </trkpt>
      <trkpt lat="46.83423" lon="15.42528">
        <ele>329.642427</ele>
        <time>2022-08-06T16:14:02.920Z</time>
      </trkpt>
      <trkpt lat="46.83442" lon="15.42439">
        <ele>324.320011</ele>
        <time>2022-08-06T16:14:13.627Z</time>
      </trkpt>
      <trkpt lat="46.83448" lon="15.42411">
        <ele>322.621371</ele>
        <time>2022-08-06T16:14:17.027Z</time>
      </trkpt>
      <trkpt lat="46.83472" lon="15.42355">
        <ele>319.289839</ele>
        <time>2022-08-06T16:14:24.738Z</time>
      </trkpt>
      <trkpt lat="46.83497" lon="15.42305">
        <ele>316.691295</ele>
        <time>2022-08-06T16:14:32.049Z</time>
      </trkpt>
      <trkpt lat="46.83593" lon="15.42161">
        <ele>308.763275</ele>
        <time>2022-08-06T16:14:56.487Z</time>
      </trkpt>
      <trkpt lat="46.83596" lon="15.42141">
        <ele>308.229755</ele>
        <time>2022-08-06T16:14:59.165Z</time>
      </trkpt>
      <trkpt lat="46.83592" lon="15.42123">
        <ele>307.740653</ele>
        <time>2022-08-06T16:15:01.597Z</time>
      </trkpt>
      <trkpt lat="46.83572" lon="15.42096">
        <ele>306.740504</ele>
        <time>2022-08-06T16:15:06.642Z</time>
      </trkpt>
      <trkpt lat="46.83558" lon="15.42082">
        <ele>306.104601</ele>
        <time>2022-08-06T16:15:09.845Z</time>
      </trkpt>
      <trkpt lat="46.83541" lon="15.42064">
        <ele>305.329459</ele>
        <time>2022-08-06T16:15:13.895Z</time>
      </trkpt>
      <trkpt lat="46.83514" lon="15.4202">
        <ele>303.799203</ele>
        <time>2022-08-06T16:15:21.960Z</time>
      </trkpt>
      <trkpt lat="46.83511" lon="15.41995">
        <ele>303.155669</ele>
        <time>2022-08-06T16:15:25.376Z</time>
      </trkpt>
      <trkpt lat="46.83525" lon="15.41956">
        <ele>302.17775</ele>
        <time>2022-08-06T16:15:31.683Z</time>
      </trkpt>
      <trkpt lat="46.83545" lon="15.41877">
        <ele>300.516303</ele>
        <time>2022-08-06T16:15:43.223Z</time>
      </trkpt>
      <trkpt lat="46.83577" lon="15.41747">
        <ele>297.768478</ele>
        <time>2022-08-06T16:16:01.693Z</time>
      </trkpt>
      <trkpt lat="46.83669" lon="15.41456">
        <ele>292.364532</ele>
        <time>2022-08-06T16:16:45.477Z</time>
      </trkpt>
      <trkpt lat="46.83685" lon="15.41409">
        <ele>292.112784</ele>
        <time>2022-08-06T16:16:53.956Z</time>
      </trkpt>
      <trkpt lat="46.83687" lon="15.41401">
        <ele>292.070619</ele>
        <time>2022-08-06T16:16:55.470Z</time>
      </trkpt>
      <trkpt lat="46.83698" lon="15.41365">
        <ele>291.885082</ele>
        <time>2022-08-06T16:17:02.282Z</time>
      </trkpt>
      <trkpt lat="46.837" lon="15.4136">
        <ele>291.858804</ele>
        <time>2022-08-06T16:17:03.213Z</time>
      </trkpt>
      <trkpt lat="46.83762" lon="15.41177">
        <ele>291.533466</ele>
        <time>2022-08-06T16:17:42.356Z</time>
      </trkpt>
      <trkpt lat="46.83709" lon="15.41139">
        <ele>291.725572</ele>
        <time>2022-08-06T16:18:00.044Z</time>
      </trkpt>
      <trkpt lat="46.83665" lon="15.41116">
        <ele>291.875352</ele>
        <time>2022-08-06T16:18:13.012Z</time>
      </trkpt>
      <trkpt lat="46.83521" lon="15.4108">
        <ele>291.874872</ele>
        <time>2022-08-06T16:18:50.975Z</time>
      </trkpt>
      <trkpt lat="46.83469" lon="15.41066">
        <ele>291.890455</ele>
        <time>2022-08-06T16:19:05.056Z</time>
      </trkpt>
      <trkpt lat="46.83315" lon="15.40977">
        <ele>292.417877</ele>
        <time>2022-08-06T16:19:51.801Z</time>
      </trkpt>
      <trkpt lat="46.83261" lon="15.40946">
        <ele>293.033882</ele>
        <time>2022-08-06T16:20:09.203Z</time>
      </trkpt>
      <trkpt lat="46.83187" lon="15.40913">
        <ele>293.931656</ele>
        <time>2022-08-06T16:20:34.274Z</time>
      </trkpt>
      <trkpt lat="46.83074" lon="15.40898">
        <ele>295.426436</ele>
        <time>2022-08-06T16:21:14.074Z</time>
      </trkpt>
      <trkpt lat="46.83017" lon="15.40882">
        <ele>296.260976</ele>
        <time>2022-08-06T16:21:34.098Z</time>
      </trkpt>
      <trkpt lat="46.83016" lon="15.40887">
        <ele>296.320013</ele>
        <time>2022-08-06T16:21:35.477Z</time>
      </trkpt>
      <trkpt lat="46.82969" lon="15.40855">
        <ele>297.073048</ele>
        <time>2022-08-06T16:21:53.537Z</time>
      </trkpt>
      <trkpt lat="46.82763" lon="15.40667">
        <ele>297.957825</ele>
        <time>2022-08-06T16:23:05.748Z</time>
      </trkpt>
      <trkpt lat="46.82674" lon="15.40516">
        <ele>297.815081</ele>
        <time>2022-08-06T16:23:41.260Z</time>
      </trkpt>
      <trkpt lat="46.82627" lon="15.40465">
        <ele>297.818033</ele>
        <time>2022-08-06T16:23:57.009Z</time>
      </trkpt>
      <trkpt lat="46.82614" lon="15.40434">
        <ele>297.819302</ele>
        <time>2022-08-06T16:24:03.887Z</time>
      </trkpt>
      <trkpt lat="46.82583" lon="15.40395">
        <ele>297.821364</ele>
        <time>2022-08-06T16:24:15.470Z</time>
      </trkpt>
      <trkpt lat="46.82564" lon="15.40358">
        <ele>297.822965</ele>
        <time>2022-08-06T16:24:24.651Z</time>
      </trkpt>
      <trkpt lat="46.8256" lon="15.40335">
        <ele>297.900237</ele>
        <time>2022-08-06T16:24:29.535Z</time>
      </trkpt>
      <trkpt lat="46.82501" lon="15.40138">
        <ele>299.173213</ele>
        <time>2022-08-06T16:25:14.851Z</time>
      </trkpt>
      <trkpt lat="46.8249" lon="15.401">
        <ele>299.55158</ele>
        <time>2022-08-06T16:25:23.940Z</time>
      </trkpt>
      <trkpt lat="46.82493" lon="15.40093">
        <ele>299.777595</ele>
        <time>2022-08-06T16:25:26.024Z</time>
      </trkpt>
      <trkpt lat="46.825" lon="15.40075">
        <ele>300.302139</ele>
        <time>2022-08-06T16:25:30.954Z</time>
      </trkpt>
      <trkpt lat="46.82507" lon="15.39998">
        <ele>302.376713</ele>
        <time>2022-08-06T16:25:55.513Z</time>
      </trkpt>
      <trkpt lat="46.82498" lon="15.39977">
        <ele>303.0383</ele>
        <time>2022-08-06T16:26:03.364Z</time>
      </trkpt>
      <trkpt lat="46.8246" lon="15.39958">
        <ele>304.594516</ele>
        <time>2022-08-06T16:26:23.255Z</time>
      </trkpt>
      <trkpt lat="46.82483" lon="15.39844">
        <ele>308.325489</ele>
        <time>2022-08-06T16:27:06.536Z</time>
      </trkpt>
      <trkpt lat="46.82535" lon="15.3955">
        <ele>318.56537</ele>
        <time>2022-08-06T16:28:56.877Z</time>
      </trkpt>
      <trkpt lat="46.82536" lon="15.39469">
        <ele>320.661794</ele>
        <time>2022-08-06T16:29:20.880Z</time>
      </trkpt>
      <trkpt lat="46.82537" lon="15.39361">
        <ele>322.937425</ele>
        <time>2022-08-06T16:29:50.337Z</time>
      </trkpt>
      <trkpt lat="46.82549" lon="15.39226">
        <ele>322.978244</ele>
        <time>2022-08-06T16:30:19.342Z</time>
      </trkpt>
      <trkpt lat="46.82574" lon="15.39154">
        <ele>323.002747</ele>
        <time>2022-08-06T16:30:32.184Z</time>
      </trkpt>
      <trkpt lat="46.82655" lon="15.39034">
        <ele>319.601519</ele>
        <time>2022-08-06T16:30:54.724Z</time>
      </trkpt>
      <trkpt lat="46.82662" lon="15.39025">
        <ele>319.291312</ele>
        <time>2022-08-06T16:30:56.348Z</time>
      </trkpt>
      <trkpt lat="46.82696" lon="15.38976">
        <ele>317.614168</ele>
        <time>2022-08-06T16:31:05.309Z</time>
      </trkpt>
      <trkpt lat="46.82732" lon="15.38904">
        <ele>315.593623</ele>
        <time>2022-08-06T16:31:16.722Z</time>
      </trkpt>
      <trkpt lat="46.82753" lon="15.38882">
        <ele>314.779113</ele>
        <time>2022-08-06T16:31:21.562Z</time>
      </trkpt>
      <trkpt lat="46.82862" lon="15.38796">
        <ele>310.882213</ele>
        <time>2022-08-06T16:31:46.277Z</time>
      </trkpt>
      <trkpt lat="46.82893" lon="15.38745">
        <ele>309.902627</ele>
        <time>2022-08-06T16:31:56.104Z</time>
      </trkpt>
      <trkpt lat="46.82911" lon="15.38705">
        <ele>309.223262</ele>
        <time>2022-08-06T16:32:02.991Z</time>
      </trkpt>
      <trkpt lat="46.82946" lon="15.38619">
        <ele>307.815449</ele>
        <time>2022-08-06T16:32:17.546Z</time>
      </trkpt>
      <trkpt lat="46.82949" lon="15.38607">
        <ele>307.63716</ele>
        <time>2022-08-06T16:32:19.435Z</time>
      </trkpt>
      <trkpt lat="46.82952" lon="15.38598">
        <ele>307.489804</ele>
        <time>2022-08-06T16:32:21.002Z</time>
      </trkpt>
      <trkpt lat="46.82963" lon="15.38577">
        <ele>307.070492</ele>
        <time>2022-08-06T16:32:24.910Z</time>
      </trkpt>
      <trkpt lat="46.83012" lon="15.38546">
        <ele>305.691605</ele>
        <time>2022-08-06T16:32:36.151Z</time>
      </trkpt>
      <trkpt lat="46.8303" lon="15.38523">
        <ele>305.063969</ele>
        <time>2022-08-06T16:32:41.032Z</time>
      </trkpt>
      <trkpt lat="46.83054" lon="15.38485">
        <ele>304.121711</ele>
        <time>2022-08-06T16:32:48.240Z</time>
      </trkpt>
      <trkpt lat="46.83098" lon="15.38452">
        <ele>302.843346</ele>
        <time>2022-08-06T16:32:57.795Z</time>
      </trkpt>
      <trkpt lat="46.83105" lon="15.38492">
        <ele>301.987976</ele>
        <time>2022-08-06T16:33:03.208Z</time>
      </trkpt>
      <trkpt lat="46.83113" lon="15.38558">
        <ele>300.465626</ele>
        <time>2022-08-06T16:33:12.014Z</time>
      </trkpt>
      <trkpt lat="46.83188" lon="15.38574">
        <ele>297.946555</ele>
        <time>2022-08-06T16:33:26.528Z</time>
      </trkpt>
      <trkpt lat="46.832" lon="15.38597">
        <ele>297.300493</ele>
        <time>2022-08-06T16:33:30.290Z</time>
      </trkpt>
      <trkpt lat="46.83207" lon="15.38628">
        <ele>296.595886</ele>
        <time>2022-08-06T16:33:34.723Z</time>
      </trkpt>
      <trkpt lat="46.83212" lon="15.38652">
        <ele>296.490884</ele>
        <time>2022-08-06T16:33:38.137Z</time>
      </trkpt>
      <trkpt lat="46.8323" lon="15.38741">
        <ele>296.096216</ele>
        <time>2022-08-06T16:33:52.048Z</time>
      </trkpt>
      <trkpt lat="46.83241" lon="15.38804">
        <ele>295.82391</ele>
        <time>2022-08-06T16:34:03.734Z</time>
      </trkpt>
      <trkpt lat="46.83254" lon="15.38867">
        <ele>295.542753</ele>
        <time>2022-08-06T16:34:17.427Z</time>
      </trkpt>
      <trkpt lat="46.83261" lon="15.38924">
        <ele>296.707041</ele>
        <time>2022-08-06T16:34:32.105Z</time>
      </trkpt>
      <trkpt lat="46.83265" lon="15.38961">
        <ele>297.710437</ele>
        <time>2022-08-06T16:34:43.115Z</time>
      </trkpt>
      <trkpt lat="46.83279" lon="15.39004">
        <ele>298.995625</ele>
        <time>2022-08-06T16:34:58.674Z</time>
      </trkpt>
      <trkpt lat="46.83293" lon="15.39023">
        <ele>299.725153</ele>
        <time>2022-08-06T16:35:08.203Z</time>
      </trkpt>
      <trkpt lat="46.83313" lon="15.39037">
        <ele>300.595252</ele>
        <time>2022-08-06T16:35:19.860Z</time>
      </trkpt>
      <trkpt lat="46.83343" lon="15.39207">
        <ele>305.202971</ele>
        <time>2022-08-06T16:36:24.742Z</time>
      </trkpt>
      <trkpt lat="46.83348" lon="15.39269">
        <ele>306.827294</ele>
        <time>2022-08-06T16:36:43.893Z</time>
      </trkpt>
      <trkpt lat="46.83365" lon="15.39302">
        <ele>307.891629</ele>
        <time>2022-08-06T16:36:56.271Z</time>
      </trkpt>
      <trkpt lat="46.83429" lon="15.39341">
        <ele>309.785982</ele>
        <time>2022-08-06T16:37:21.549Z</time>
      </trkpt>
      <trkpt lat="46.83454" lon="15.39362">
        <ele>310.176959</ele>
        <time>2022-08-06T16:37:30.957Z</time>
      </trkpt>
      <trkpt lat="46.8347" lon="15.39391">
        <ele>310.529619</ele>
        <time>2022-08-06T16:37:39.206Z</time>
      </trkpt>
      <trkpt lat="46.835" lon="15.39468">
        <ele>311.363439</ele>
        <time>2022-08-06T16:37:57.273Z</time>
      </trkpt>
      <trkpt lat="46.83566" lon="15.3954">
        <ele>312.340647</ele>
        <time>2022-08-06T16:38:28.953Z</time>
      </trkpt>
      <trkpt lat="46.83641" lon="15.39667">
        <ele>313.5788</ele>
        <time>2022-08-06T16:39:11.805Z</time>
      </trkpt>
      <trkpt lat="46.83677" lon="15.39753">
        <ele>310.999454</ele>
        <time>2022-08-06T16:39:26.688Z</time>
      </trkpt>
      <trkpt lat="46.83786" lon="15.39958">
        <ele>301.624286</ele>
        <time>2022-08-06T16:39:58.537Z</time>
      </trkpt>
      <trkpt lat="46.83819" lon="15.4001">
        <ele>299.015979</ele>
        <time>2022-08-06T16:40:07.209Z</time>
      </trkpt>
      <trkpt lat="46.83837" lon="15.40028">
        <ele>297.829896</ele>
        <time>2022-08-06T16:40:11.251Z</time>
      </trkpt>
      <trkpt lat="46.83843" lon="15.4003">
        <ele>297.521257</ele>
        <time>2022-08-06T16:40:12.353Z</time>
      </trkpt>
      <trkpt lat="46.8386" lon="15.40037">
        <ele>296.559979</ele>
        <time>2022-08-06T16:40:15.784Z</time>
      </trkpt>
      <trkpt lat="46.83939" lon="15.40054">
        <ele>295.320464</ele>
        <time>2022-08-06T16:40:33.683Z</time>
      </trkpt>
      <trkpt lat="46.83975" lon="15.40064">
        <ele>295.922125</ele>
        <time>2022-08-06T16:40:46.178Z</time>
      </trkpt>
      <trkpt lat="46.83962" lon="15.40148">
        <ele>296.874725</ele>
        <time>2022-08-06T16:41:10.886Z</time>
      </trkpt>
      <trkpt lat="46.83976" lon="15.40186">
        <ele>297.355228</ele>
        <time>2022-08-06T16:41:24.525Z</time>
      </trkpt>
      <trkpt lat="46.83979" lon="15.40217">
        <ele>297.908056</ele>
        <time>2022-08-06T16:41:35.764Z</time>
      </trkpt>
      <trkpt lat="46.83958" lon="15.40269">
        <ele>299.399496</ele>
        <time>2022-08-06T16:41:56.872Z</time>
      </trkpt>
      <trkpt lat="46.83959" lon="15.40305">
        <ele>300.277694</ele>
        <time>2022-08-06T16:42:10.794Z</time>
      </trkpt>
      <trkpt lat="46.84104" lon="15.40549">
        <ele>305.092982</ele>
        <time>2022-08-06T16:43:40.420Z</time>
      </trkpt>
      <trkpt lat="46.84163" lon="15.40685">
        <ele>304.199667</ele>
        <time>2022-08-06T16:44:04.606Z</time>
      </trkpt>
      <trkpt lat="46.84167" lon="15.40734">
        <ele>303.17555</ele>
        <time>2022-08-06T16:44:11.624Z</time>
      </trkpt>
      <trkpt lat="46.84152" lon="15.40836">
        <ele>301.003459</ele>
        <time>2022-08-06T16:44:25.912Z</time>
      </trkpt>
      <trkpt lat="46.84133" lon="15.4089">
        <ele>299.710607</ele>
        <time>2022-08-06T16:44:34.127Z</time>
      </trkpt>
      <trkpt lat="46.84099" lon="15.40938">
        <ele>298.120488</ele>
        <time>2022-08-06T16:44:43.696Z</time>
      </trkpt>
      <trkpt lat="46.84096" lon="15.41011">
        <ele>296.465931</ele>
        <time>2022-08-06T16:44:53.898Z</time>
      </trkpt>
      <trkpt lat="46.84092" lon="15.41115">
        <ele>294.12343</ele>
        <time>2022-08-06T16:45:08.639Z</time>
      </trkpt>
      <trkpt lat="46.84098" lon="15.41137">
        <ele>293.772876</ele>
        <time>2022-08-06T16:45:11.805Z</time>
      </trkpt>
      <trkpt lat="46.84104" lon="15.41134">
        <ele>293.636137</ele>
        <time>2022-08-06T16:45:13.098Z</time>
      </trkpt>
      <trkpt lat="46.84171" lon="15.41117">
        <ele>292.116514</ele>
        <time>2022-08-06T16:45:26.574Z</time>
      </trkpt>
      <trkpt lat="46.843" lon="15.41105">
        <ele>289.814095</ele>
        <time>2022-08-06T16:45:55.467Z</time>
      </trkpt>
      <trkpt lat="46.84423" lon="15.41119">
        <ele>288.702989</ele>
        <time>2022-08-06T16:46:24.693Z</time>
      </trkpt>
      <trkpt lat="46.84509" lon="15.41144">
        <ele>288.096041</ele>
        <time>2022-08-06T16:46:45.686Z</time>
      </trkpt>
      <trkpt lat="46.84527" lon="15.4115">
        <ele>287.972627</ele>
        <time>2022-08-06T16:46:50.226Z</time>
      </trkpt>
      <trkpt lat="46.84581" lon="15.4117">
        <ele>287.615761</ele>
        <time>2022-08-06T16:47:03.604Z</time>
      </trkpt>
      <trkpt lat="46.846" lon="15.41177">
        <ele>287.484042</ele>
        <time>2022-08-06T16:47:08.491Z</time>
      </trkpt>
      <trkpt lat="46.846" lon="15.4117">
        <ele>287.456441</ele>
        <time>2022-08-06T16:47:09.917Z</time>
      </trkpt>
      <trkpt lat="46.84823" lon="15.41254">
        <ele>287.167025</ele>
        <time>2022-08-06T16:48:11.310Z</time>
      </trkpt>
      <trkpt lat="46.8484" lon="15.41254">
        <ele>287.276519</ele>
        <time>2022-08-06T16:48:16.238Z</time>
      </trkpt>
      <trkpt lat="46.84858" lon="15.41244">
        <ele>287.4043</ele>
        <time>2022-08-06T16:48:21.773Z</time>
      </trkpt>
      <trkpt lat="46.84864" lon="15.41244">
        <ele>287.439259</ele>
        <time>2022-08-06T16:48:23.349Z</time>
      </trkpt>
      <trkpt lat="46.8487" lon="15.41245">
        <ele>287.483532</ele>
        <time>2022-08-06T16:48:25.344Z</time>
      </trkpt>
      <trkpt lat="46.84874" lon="15.41258">
        <ele>287.546134</ele>
        <time>2022-08-06T16:48:28.270Z</time>
      </trkpt>
      <trkpt lat="46.84886" lon="15.4127">
        <ele>287.644267</ele>
        <time>2022-08-06T16:48:32.878Z</time>
      </trkpt>
      <trkpt lat="46.84927" lon="15.41273">
        <ele>287.913169</ele>
        <time>2022-08-06T16:48:46.412Z</time>
      </trkpt>
      <trkpt lat="46.84973" lon="15.4127">
        <ele>288.74954</ele>
        <time>2022-08-06T16:49:02.981Z</time>
      </trkpt>
      <trkpt lat="46.85006" lon="15.41256">
        <ele>289.772985</ele>
        <time>2022-08-06T16:49:16.386Z</time>
      </trkpt>
      <trkpt lat="46.85018" lon="15.41244">
        <ele>290.19495</ele>
        <time>2022-08-06T16:49:22.325Z</time>
      </trkpt>
      <trkpt lat="46.85134" lon="15.41122">
        <ele>294.453101</ele>
        <time>2022-08-06T16:50:26.963Z</time>
      </trkpt>
      <trkpt lat="46.85138" lon="15.41129">
        <ele>294.642469</ele>
        <time>2022-08-06T16:50:29.759Z</time>
      </trkpt>
      <trkpt lat="46.8514" lon="15.41136">
        <ele>294.790525</ele>
        <time>2022-08-06T16:50:31.951Z</time>
      </trkpt>
      <trkpt lat="46.85151" lon="15.41126">
        <ele>295.175756</ele>
        <time>2022-08-06T16:50:37.863Z</time>
      </trkpt>
      <trkpt lat="46.85221" lon="15.41068">
        <ele>297.621238</ele>
        <time>2022-08-06T16:51:12.612Z</time>
      </trkpt>
      <trkpt lat="46.85255" lon="15.41043">
        <ele>298.787078</ele>
        <time>2022-08-06T16:51:26.733Z</time>
      </trkpt>
      <trkpt lat="46.85263" lon="15.41041">
        <ele>298.834642</ele>
        <time>2022-08-06T16:51:29.338Z</time>
      </trkpt>
      <trkpt lat="46.85273" lon="15.41051">
        <ele>298.820521</ele>
        <time>2022-08-06T16:51:33.536Z</time>
      </trkpt>
      <trkpt lat="46.8529" lon="15.41118">
        <ele>298.765724</ele>
        <time>2022-08-06T16:51:48.103Z</time>
      </trkpt>
      <trkpt lat="46.85302" lon="15.41177">
        <ele>298.718373</ele>
        <time>2022-08-06T16:51:58.499Z</time>
      </trkpt>
      <trkpt lat="46.85332" lon="15.41342">
        <ele>298.548178</ele>
        <time>2022-08-06T16:52:24.767Z</time>
      </trkpt>
      <trkpt lat="46.85338" lon="15.41413">
        <ele>298.453608</ele>
        <time>2022-08-06T16:52:35.699Z</time>
      </trkpt>
      <trkpt lat="46.85329" lon="15.41532">
        <ele>298.294388</ele>
        <time>2022-08-06T16:53:00.395Z</time>
      </trkpt>
      <trkpt lat="46.85314" lon="15.41611">
        <ele>299.30788</ele>
        <time>2022-08-06T16:53:19.989Z</time>
      </trkpt>
      <trkpt lat="46.8529" lon="15.41677">
        <ele>300.268917</ele>
        <time>2022-08-06T16:53:39.685Z</time>
      </trkpt>
      <trkpt lat="46.8521" lon="15.41889">
        <ele>302.341358</ele>
        <time>2022-08-06T16:54:39.789Z</time>
      </trkpt>
      <trkpt lat="46.85196" lon="15.41954">
        <ele>302.674623</ele>
        <time>2022-08-06T16:54:52.142Z</time>
      </trkpt>
      <trkpt lat="46.85189" lon="15.42061">
        <ele>302.48886</ele>
        <time>2022-08-06T16:55:09.084Z</time>
      </trkpt>
      <trkpt lat="46.85194" lon="15.42128">
        <ele>301.749756</ele>
        <time>2022-08-06T16:55:19.225Z</time>
      </trkpt>
      <trkpt lat="46.85215" lon="15.42209">
        <ele>300.812183</ele>
        <time>2022-08-06T16:55:31.595Z</time>
      </trkpt>
      <trkpt lat="46.85241" lon="15.42277">
        <ele>300.027339</ele>
        <time>2022-08-06T16:55:43.055Z</time>
      </trkpt>
      <trkpt lat="46.85305" lon="15.42398">
        <ele>299.11875</ele>
        <time>2022-08-06T16:56:06.626Z</time>
      </trkpt>
      <trkpt lat="46.85376" lon="15.42529">
        <ele>298.719578</ele>
        <time>2022-08-06T16:56:37.089Z</time>
      </trkpt>
      <trkpt lat="46.85418" lon="15.42619">
        <ele>298.982314</ele>
        <time>2022-08-06T16:56:58.605Z</time>
      </trkpt>
      <trkpt lat="46.85443" lon="15.42697">
        <ele>299.202603</ele>
        <time>2022-08-06T16:57:15.521Z</time>
      </trkpt>
      <trkpt lat="46.85518" lon="15.42989">
        <ele>301.004112</ele>
        <time>2022-08-06T16:58:20.365Z</time>
      </trkpt>
      <trkpt lat="46.85556" lon="15.43098">
        <ele>301.963544</ele>
        <time>2022-08-06T16:58:51.242Z</time>
      </trkpt>
      <trkpt lat="46.85595" lon="15.43182">
        <ele>302.592811</ele>
        <time>2022-08-06T16:59:14.740Z</time>
      </trkpt>
      <trkpt lat="46.85774" lon="15.43533">
        <ele>300.556849</ele>
        <time>2022-08-06T17:00:27.161Z</time>
      </trkpt>
      <trkpt lat="46.85809" lon="15.4361">
        <ele>300.262599</ele>
        <time>2022-08-06T17:00:43.740Z</time>
      </trkpt>
      <trkpt lat="46.85843" lon="15.43716">
        <ele>300.80584</ele>
        <time>2022-08-06T17:01:07.898Z</time>
      </trkpt>
      <trkpt lat="46.85926" lon="15.44094">
        <ele>303.214956</ele>
        <time>2022-08-06T17:02:39.311Z</time>
      </trkpt>
      <trkpt lat="46.85948" lon="15.44171">
        <ele>302.332413</ele>
        <time>2022-08-06T17:02:54.075Z</time>
      </trkpt>
      <trkpt lat="46.85965" lon="15.44215">
        <ele>301.798714</ele>
        <time>2022-08-06T17:03:02.141Z</time>
      </trkpt>
      <trkpt lat="46.8599" lon="15.44262">
        <ele>301.160681</ele>
        <time>2022-08-06T17:03:11.175Z</time>
      </trkpt>
      <trkpt lat="46.86081" lon="15.44411">
        <ele>297.671193</ele>
        <time>2022-08-06T17:03:38.749Z</time>
      </trkpt>
      <trkpt lat="46.86083" lon="15.44413">
        <ele>297.617597</ele>
        <time>2022-08-06T17:03:39.097Z</time>
      </trkpt>
      <trkpt lat="46.86129" lon="15.44495">
        <ele>295.413346</ele>
        <time>2022-08-06T17:03:54.136Z</time>
      </trkpt>
      <trkpt lat="46.86133" lon="15.44502">
        <ele>295.23185</ele>
        <time>2022-08-06T17:03:55.441Z</time>
      </trkpt>
      <trkpt lat="46.86143" lon="15.44521">
        <ele>294.990402</ele>
        <time>2022-08-06T17:03:59.100Z</time>
      </trkpt>
      <trkpt lat="46.8616" lon="15.44566">
        <ele>294.846519</ele>
        <time>2022-08-06T17:04:07.027Z</time>
      </trkpt>
      <trkpt lat="46.86184" lon="15.44656">
        <ele>294.574218</ele>
        <time>2022-08-06T17:04:23.579Z</time>
      </trkpt>
      <trkpt lat="46.86302" lon="15.45311">
        <ele>298.483227</ele>
        <time>2022-08-06T17:06:57.518Z</time>
      </trkpt>
      <trkpt lat="46.86324" lon="15.4541">
        <ele>298.935226</ele>
        <time>2022-08-06T17:07:19.066Z</time>
      </trkpt>
      <trkpt lat="46.86356" lon="15.45514">
        <ele>299.473063</ele>
        <time>2022-08-06T17:07:42.355Z</time>
      </trkpt>
      <trkpt lat="46.86361" lon="15.45523">
        <ele>299.601828</ele>
        <time>2022-08-06T17:07:44.652Z</time>
      </trkpt>
      <trkpt lat="46.86388" lon="15.45567">
        <ele>300.253838</ele>
        <time>2022-08-06T17:07:56.679Z</time>
      </trkpt>
      <trkpt lat="46.86391" lon="15.45557">
        <ele>300.382925</ele>
        <time>2022-08-06T17:08:00.637Z</time>
      </trkpt>
      <trkpt lat="46.86408" lon="15.45586">
        <ele>300.799329</ele>
        <time>2022-08-06T17:08:08.482Z</time>
      </trkpt>
      <trkpt lat="46.86452" lon="15.45663">
        <ele>301.913077</ele>
        <time>2022-08-06T17:08:32.491Z</time>
      </trkpt>
      <trkpt lat="46.86448" lon="15.4567">
        <ele>302.017342</ele>
        <time>2022-08-06T17:08:36.385Z</time>
      </trkpt>
      <trkpt lat="46.86487" lon="15.45742">
        <ele>303.879366</ele>
        <time>2022-08-06T17:09:05.915Z</time>
      </trkpt>
      <trkpt lat="46.86516" lon="15.45824">
        <ele>306.096863</ele>
        <time>2022-08-06T17:09:37.341Z</time>
      </trkpt>
      <trkpt lat="46.86527" lon="15.45868">
        <ele>307.21202</ele>
        <time>2022-08-06T17:09:52.102Z</time>
      </trkpt>
      <trkpt lat="46.86549" lon="15.46027">
        <ele>308.773505</ele>
        <time>2022-08-06T17:10:34.823Z</time>
      </trkpt>
      <trkpt lat="46.86564" lon="15.46116">
        <ele>308.923727</ele>
        <time>2022-08-06T17:10:51.904Z</time>
      </trkpt>
      <trkpt lat="46.86651" lon="15.46406">
        <ele>305.121805</ele>
        <time>2022-08-06T17:11:38.448Z</time>
      </trkpt>
      <trkpt lat="46.86678" lon="15.46543">
        <ele>303.433421</ele>
        <time>2022-08-06T17:12:00.161Z</time>
      </trkpt>
      <trkpt lat="46.8668" lon="15.46559">
        <ele>303.246662</ele>
        <time>2022-08-06T17:12:02.748Z</time>
      </trkpt>
      <trkpt lat="46.86673" lon="15.46594">
        <ele>302.830343</ele>
        <time>2022-08-06T17:12:08.532Z</time>
      </trkpt>
      <trkpt lat="46.86652" lon="15.4662">
        <ele>302.371707</ele>
        <time>2022-08-06T17:12:15.096Z</time>
      </trkpt>
      <trkpt lat="46.86639" lon="15.46637">
        <ele>302.074788</ele>
        <time>2022-08-06T17:12:18.990Z</time>
      </trkpt>
      <trkpt lat="46.86653" lon="15.46669">
        <ele>301.644291</ele>
        <time>2022-08-06T17:12:24.810Z</time>
      </trkpt>
      <trkpt lat="46.86679" lon="15.46765">
        <ele>300.433161</ele>
        <time>2022-08-06T17:12:39.999Z</time>
      </trkpt>
      <trkpt lat="46.86687" lon="15.46786">
        <ele>300.146579</ele>
        <time>2022-08-06T17:12:43.454Z</time>
      </trkpt>
      <trkpt lat="46.86697" lon="15.46791">
        <ele>299.978635</ele>
        <time>2022-08-06T17:12:45.791Z</time>
      </trkpt>
      <trkpt lat="46.86698" lon="15.46883">
        <ele>298.891828</ele>
        <time>2022-08-06T17:13:00.019Z</time>
      </trkpt>
      <trkpt lat="46.86698" lon="15.4694">
        <ele>298.162369</ele>
        <time>2022-08-06T17:13:08.757Z</time>
      </trkpt>
      <trkpt lat="46.86696" lon="15.47197">
        <ele>295.072316</ele>
        <time>2022-08-06T17:13:47.533Z</time>
      </trkpt>
      <trkpt lat="46.86663" lon="15.4741">
        <ele>293.407078</ele>
        <time>2022-08-06T17:14:24.012Z</time>
      </trkpt>
      <trkpt lat="46.86662" lon="15.4745">
        <ele>293.407938</ele>
        <time>2022-08-06T17:14:31.136Z</time>
      </trkpt>
      <trkpt lat="46.86666" lon="15.47451">
        <ele>293.408063</ele>
        <time>2022-08-06T17:14:31.965Z</time>
      </trkpt>
      <trkpt lat="46.86671" lon="15.47451">
        <ele>293.408212</ele>
        <time>2022-08-06T17:14:33.551Z</time>
      </trkpt>
      <trkpt lat="46.86676" lon="15.47535">
        <ele>293.41004</ele>
        <time>2022-08-06T17:14:48.722Z</time>
      </trkpt>
      <trkpt lat="46.86686" lon="15.47656">
        <ele>293.412661</ele>
        <time>2022-08-06T17:15:12.491Z</time>
      </trkpt>
      <trkpt lat="46.86698" lon="15.47703">
        <ele>294.622204</ele>
        <time>2022-08-06T17:15:25.034Z</time>
      </trkpt>
      <trkpt lat="46.86707" lon="15.47723">
        <ele>295.243046</ele>
        <time>2022-08-06T17:15:30.936Z</time>
      </trkpt>
      <trkpt lat="46.86718" lon="15.47733">
        <ele>295.73374</ele>
        <time>2022-08-06T17:15:35.770Z</time>
      </trkpt>
      <trkpt lat="46.86742" lon="15.4774">
        <ele>296.653326</ele>
        <time>2022-08-06T17:15:44.678Z</time>
      </trkpt>
      <trkpt lat="46.86917" lon="15.47753">
        <ele>306.148008</ele>
        <time>2022-08-06T17:17:23.627Z</time>
      </trkpt>
      <trkpt lat="46.87086" lon="15.4775">
        <ele>318.765</ele>
        <time>2022-08-06T17:19:18.588Z</time>
      </trkpt>
      <trkpt lat="46.87162" lon="15.47768">
        <ele>324.751392</ele>
        <time>2022-08-06T17:20:04.410Z</time>
      </trkpt>
      <trkpt lat="46.87191" lon="15.47784">
        <ele>327.094914</ele>
        <time>2022-08-06T17:20:25.774Z</time>
      </trkpt>
      <trkpt lat="46.87224" lon="15.47817">
        <ele>330.426931</ele>
        <time>2022-08-06T17:20:53.956Z</time>
      </trkpt>
      <trkpt lat="46.87247" lon="15.47856">
        <ele>333.317756</ele>
        <time>2022-08-06T17:21:16.852Z</time>
      </trkpt>
      <trkpt lat="46.87259" lon="15.47888">
        <ele>335.382114</ele>
        <time>2022-08-06T17:21:32.818Z</time>
      </trkpt>
      <trkpt lat="46.87267" lon="15.47922">
        <ele>337.395222</ele>
        <time>2022-08-06T17:21:52.204Z</time>
      </trkpt>
      <trkpt lat="46.87285" lon="15.48054">
        <ele>343.600092</ele>
        <time>2022-08-06T17:22:52.103Z</time>
      </trkpt>
      <trkpt lat="46.87293" lon="15.48082">
        <ele>344.495141</ele>
        <time>2022-08-06T17:23:06.714Z</time>
      </trkpt>
      <trkpt lat="46.87319" lon="15.48127">
        <ele>346.293415</ele>
        <time>2022-08-06T17:23:31.688Z</time>
      </trkpt>
      <trkpt lat="46.87364" lon="15.4816">
        <ele>348.476716</ele>
        <time>2022-08-06T17:23:49.035Z</time>
      </trkpt>
      <trkpt lat="46.87413" lon="15.4816">
        <ele>349.599782</ele>
        <time>2022-08-06T17:24:03.539Z</time>
      </trkpt>
      <trkpt lat="46.87459" lon="15.48133">
        <ele>348.458266</ele>
        <time>2022-08-06T17:24:15.377Z</time>
      </trkpt>
      <trkpt lat="46.87542" lon="15.48037">
        <ele>346.031107</ele>
        <time>2022-08-06T17:24:36.860Z</time>
      </trkpt>
      <trkpt lat="46.8756" lon="15.47992">
        <ele>344.847915</ele>
        <time>2022-08-06T17:24:43.754Z</time>
      </trkpt>
      <trkpt lat="46.87573" lon="15.47961">
        <ele>343.905525</ele>
        <time>2022-08-06T17:24:48.463Z</time>
      </trkpt>
      <trkpt lat="46.87588" lon="15.47943">
        <ele>343.158229</ele>
        <time>2022-08-06T17:24:52.391Z</time>
      </trkpt>
      <trkpt lat="46.87596" lon="15.47941">
        <ele>342.860595</ele>
        <time>2022-08-06T17:24:53.818Z</time>
      </trkpt>
      <trkpt lat="46.87635" lon="15.47948">
        <ele>341.408329</ele>
        <time>2022-08-06T17:25:01.211Z</time>
      </trkpt>
      <trkpt lat="46.87651" lon="15.47959">
        <ele>340.750033</ele>
        <time>2022-08-06T17:25:04.735Z</time>
      </trkpt>
      <trkpt lat="46.8768" lon="15.47958">
        <ele>339.681559</ele>
        <time>2022-08-06T17:25:10.230Z</time>
      </trkpt>
      <trkpt lat="46.87715" lon="15.47946">
        <ele>338.204898</ele>
        <time>2022-08-06T17:25:17.444Z</time>
      </trkpt>
      <trkpt lat="46.87738" lon="15.4793">
        <ele>337.110625</ele>
        <time>2022-08-06T17:25:22.318Z</time>
      </trkpt>
      <trkpt lat="46.87759" lon="15.47907">
        <ele>336.011201</ele>
        <time>2022-08-06T17:25:26.959Z</time>
      </trkpt>
      <trkpt lat="46.87779" lon="15.47804">
        <ele>332.879926</ele>
        <time>2022-08-06T17:25:40.880Z</time>
      </trkpt>
      <trkpt lat="46.87805" lon="15.47779">
        <ele>331.550559</ele>
        <time>2022-08-06T17:25:46.679Z</time>
      </trkpt>
      <trkpt lat="46.87833" lon="15.47769">
        <ele>329.550464</ele>
        <time>2022-08-06T17:25:51.708Z</time>
      </trkpt>
      <trkpt lat="46.87847" lon="15.47756">
        <ele>328.271657</ele>
        <time>2022-08-06T17:25:54.555Z</time>
      </trkpt>
      <trkpt lat="46.87884" lon="15.47745">
        <ele>325.453109</ele>
        <time>2022-08-06T17:26:00.983Z</time>
      </trkpt>
      <trkpt lat="46.87934" lon="15.4771">
        <ele>321.366987</ele>
        <time>2022-08-06T17:26:10.180Z</time>
      </trkpt>
      <trkpt lat="46.87988" lon="15.47648">
        <ele>316.652008</ele>
        <time>2022-08-06T17:26:21.611Z</time>
      </trkpt>
      <trkpt lat="46.88073" lon="15.47579">
        <ele>311.068103</ele>
        <time>2022-08-06T17:26:38.713Z</time>
      </trkpt>
      <trkpt lat="46.88082" lon="15.47603">
        <ele>309.989531</ele>
        <time>2022-08-06T17:26:42.369Z</time>
      </trkpt>
      <trkpt lat="46.88097" lon="15.47646">
        <ele>308.106539</ele>
        <time>2022-08-06T17:26:48.904Z</time>
      </trkpt>
      <trkpt lat="46.88105" lon="15.47659">
        <ele>307.663788</ele>
        <time>2022-08-06T17:26:51.268Z</time>
      </trkpt>
      <trkpt lat="46.88107" lon="15.4768">
        <ele>307.470151</ele>
        <time>2022-08-06T17:26:54.303Z</time>
      </trkpt>
      <trkpt lat="46.88096" lon="15.47723">
        <ele>307.032288</ele>
        <time>2022-08-06T17:27:01.345Z</time>
      </trkpt>
      <trkpt lat="46.88069" lon="15.47809">
        <ele>306.158279</ele>
        <time>2022-08-06T17:27:17.636Z</time>
      </trkpt>
      <trkpt lat="46.8805" lon="15.47939">
        <ele>304.831113</ele>
        <time>2022-08-06T17:27:41.210Z</time>
      </trkpt>
      <trkpt lat="46.88038" lon="15.47984">
        <ele>304.268775</ele>
        <time>2022-08-06T17:27:49.317Z</time>
      </trkpt>
      <trkpt lat="46.88044" lon="15.48069">
        <ele>303.284232</ele>
        <time>2022-08-06T17:28:02.311Z</time>
      </trkpt>
      <trkpt lat="46.88092" lon="15.48074">
        <ele>302.482857</ele>
        <time>2022-08-06T17:28:12.585Z</time>
      </trkpt>
      <trkpt lat="46.88107" lon="15.48064">
        <ele>302.184972</ele>
        <time>2022-08-06T17:28:16.158Z</time>
      </trkpt>
      <trkpt lat="46.88129" lon="15.48058">
        <ele>301.691455</ele>
        <time>2022-08-06T17:28:20.879Z</time>
      </trkpt>
      <trkpt lat="46.88188" lon="15.48042">
        <ele>300.352333</ele>
        <time>2022-08-06T17:28:33.440Z</time>
      </trkpt>
      <trkpt lat="46.8824" lon="15.4801">
        <ele>299.099214</ele>
        <time>2022-08-06T17:28:45.723Z</time>
      </trkpt>
      <trkpt lat="46.88273" lon="15.47977">
        <ele>298.243145</ele>
        <time>2022-08-06T17:28:54.812Z</time>
      </trkpt>
      <trkpt lat="46.88292" lon="15.47966">
        <ele>298.128674</ele>
        <time>2022-08-06T17:28:59.523Z</time>
      </trkpt>
      <trkpt lat="46.88304" lon="15.47967">
        <ele>298.055767</ele>
        <time>2022-08-06T17:29:02.588Z</time>
      </trkpt>
      <trkpt lat="46.88308" lon="15.47967">
        <ele>298.032227</ele>
        <time>2022-08-06T17:29:03.562Z</time>
      </trkpt>
      <trkpt lat="46.88352" lon="15.47995">
        <ele>297.760694</ele>
        <time>2022-08-06T17:29:15.952Z</time>
      </trkpt>
      <trkpt lat="46.88379" lon="15.4798">
        <ele>297.597811</ele>
        <time>2022-08-06T17:29:23.445Z</time>
      </trkpt>
      <trkpt lat="46.88439" lon="15.47911">
        <ele>297.218979</ele>
        <time>2022-08-06T17:29:44.376Z</time>
      </trkpt>
      <trkpt lat="46.88473" lon="15.47899">
        <ele>297.197562</ele>
        <time>2022-08-06T17:29:53.997Z</time>
      </trkpt>
      <trkpt lat="46.8854" lon="15.47884">
        <ele>297.15596</ele>
        <time>2022-08-06T17:30:12.298Z</time>
      </trkpt>
      <trkpt lat="46.88576" lon="15.47891">
        <ele>297.13433</ele>
        <time>2022-08-06T17:30:22.193Z</time>
      </trkpt>
      <trkpt lat="46.88595" lon="15.47902">
        <ele>297.12194</ele>
        <time>2022-08-06T17:30:28.022Z</time>
      </trkpt>
      <trkpt lat="46.88638" lon="15.47956">
        <ele>297.407498</ele>
        <time>2022-08-06T17:30:44.469Z</time>
      </trkpt>
      <trkpt lat="46.88676" lon="15.47984">
        <ele>297.669299</ele>
        <time>2022-08-06T17:30:57.086Z</time>
      </trkpt>
      <trkpt lat="46.88722" lon="15.48012">
        <ele>297.967183</ele>
        <time>2022-08-06T17:31:12.252Z</time>
      </trkpt>
      <trkpt lat="46.88833" lon="15.48063">
        <ele>299.909094</ele>
        <time>2022-08-06T17:31:51.248Z</time>
      </trkpt>
      <trkpt lat="46.88851" lon="15.4806">
        <ele>300.325582</ele>
        <time>2022-08-06T17:31:58.079Z</time>
      </trkpt>
      <trkpt lat="46.88935" lon="15.48013">
        <ele>302.352425</ele>
        <time>2022-08-06T17:32:37.483Z</time>
      </trkpt>
      <trkpt lat="46.88954" lon="15.48012">
        <ele>302.867899</ele>
        <time>2022-08-06T17:32:45.463Z</time>
      </trkpt>
      <trkpt lat="46.88971" lon="15.48019">
        <ele>303.337475</ele>
        <time>2022-08-06T17:32:54.099Z</time>
      </trkpt>
      <trkpt lat="46.88975" lon="15.48022">
        <ele>303.458329</ele>
        <time>2022-08-06T17:32:55.789Z</time>
      </trkpt>
      <trkpt lat="46.89018" lon="15.47932">
        <ele>305.495913</ele>
        <time>2022-08-06T17:33:27.666Z</time>
      </trkpt>
      <trkpt lat="46.89062" lon="15.47872">
        <ele>307.058228</ele>
        <time>2022-08-06T17:33:52.067Z</time>
      </trkpt>
      <trkpt lat="46.89147" lon="15.47788">
        <ele>306.669862</ele>
        <time>2022-08-06T17:34:20.717Z</time>
      </trkpt>
      <trkpt lat="46.89196" lon="15.47729">
        <ele>306.432232</ele>
        <time>2022-08-06T17:34:35.008Z</time>
      </trkpt>
      <trkpt lat="46.89242" lon="15.4773">
        <ele>305.854693</ele>
        <time>2022-08-06T17:34:45.102Z</time>
      </trkpt>
      <trkpt lat="46.89466" lon="15.47728">
        <ele>303.163417</ele>
        <time>2022-08-06T17:35:36.854Z</time>
      </trkpt>
      <trkpt lat="46.89554" lon="15.47671">
        <ele>302.680537</ele>
        <time>2022-08-06T17:36:04.513Z</time>
      </trkpt>
      <trkpt lat="46.89654" lon="15.47637">
        <ele>303.038043</ele>
        <time>2022-08-06T17:36:35.896Z</time>
      </trkpt>
      <trkpt lat="46.89662" lon="15.47634">
        <ele>303.071658</ele>
        <time>2022-08-06T17:36:38.448Z</time>
      </trkpt>
      <trkpt lat="46.89714" lon="15.47626">
        <ele>303.281377</ele>
        <time>2022-08-06T17:36:54.216Z</time>
      </trkpt>
      <trkpt lat="46.89772" lon="15.47618">
        <ele>303.21847</ele>
        <time>2022-08-06T17:37:10.269Z</time>
      </trkpt>
      <trkpt lat="46.89825" lon="15.47604">
        <ele>302.988254</ele>
        <time>2022-08-06T17:37:24.568Z</time>
      </trkpt>
      <trkpt lat="46.89834" lon="15.47603">
        <ele>302.949585</ele>
        <time>2022-08-06T17:37:26.857Z</time>
      </trkpt>
      <trkpt lat="46.89879" lon="15.47619">
        <ele>302.755455</ele>
        <time>2022-08-06T17:37:38.115Z</time>
      </trkpt>
      <trkpt lat="46.89936" lon="15.47628">
        <ele>302.532887</ele>
        <time>2022-08-06T17:37:52.598Z</time>
      </trkpt>
      <trkpt lat="46.89955" lon="15.47628">
        <ele>302.471898</ele>
        <time>2022-08-06T17:37:57.467Z</time>
      </trkpt>
      <trkpt lat="46.89984" lon="15.47613">
        <ele>302.372802</ele>
        <time>2022-08-06T17:38:05.545Z</time>
      </trkpt>
      <trkpt lat="46.90018" lon="15.47616">
        <ele>302.261303</ele>
        <time>2022-08-06T17:38:14.678Z</time>
      </trkpt>
      <trkpt lat="46.90055" lon="15.47649">
        <ele>302.122146</ele>
        <time>2022-08-06T17:38:26.187Z</time>
      </trkpt>
      <trkpt lat="46.90069" lon="15.47655">
        <ele>302.076128</ele>
        <time>2022-08-06T17:38:30.076Z</time>
      </trkpt>
      <trkpt lat="46.90142" lon="15.47667">
        <ele>302.060857</ele>
        <time>2022-08-06T17:38:50.474Z</time>
      </trkpt>
      <trkpt lat="46.90169" lon="15.47672">
        <ele>302.078664</ele>
        <time>2022-08-06T17:38:58.162Z</time>
      </trkpt>
      <trkpt lat="46.9026" lon="15.47687">
        <ele>302.138726</ele>
        <time>2022-08-06T17:39:24.416Z</time>
      </trkpt>
      <trkpt lat="46.90367" lon="15.47744">
        <ele>302.475032</ele>
        <time>2022-08-06T17:39:57.093Z</time>
      </trkpt>
      <trkpt lat="46.9046" lon="15.47764">
        <ele>302.690976</ele>
        <time>2022-08-06T17:40:25.221Z</time>
      </trkpt>
      <trkpt lat="46.90555" lon="15.47765">
        <ele>302.716345</ele>
        <time>2022-08-06T17:40:53.193Z</time>
      </trkpt>
      <trkpt lat="46.90568" lon="15.47838">
        <ele>302.730037</ele>
        <time>2022-08-06T17:41:07.208Z</time>
      </trkpt>
      <trkpt lat="46.9058" lon="15.48012">
        <ele>301.851336</ele>
        <time>2022-08-06T17:41:35.749Z</time>
      </trkpt>
      <trkpt lat="46.90585" lon="15.48081">
        <ele>301.478725</ele>
        <time>2022-08-06T17:41:47.320Z</time>
      </trkpt>
      <trkpt lat="46.90589" lon="15.48123">
        <ele>301.342875</ele>
        <time>2022-08-06T17:41:54.949Z</time>
      </trkpt>
      <trkpt lat="46.90593" lon="15.48154">
        <ele>301.43849</ele>
        <time>2022-08-06T17:42:00.818Z</time>
      </trkpt>
      <trkpt lat="46.90607" lon="15.48222">
        <ele>301.654971</ele>
        <time>2022-08-06T17:42:13.815Z</time>
      </trkpt>
      <trkpt lat="46.90654" lon="15.48264">
        <ele>301.903987</ele>
        <time>2022-08-06T17:42:30.145Z</time>
      </trkpt>
      <trkpt lat="46.90666" lon="15.48275">
        <ele>301.969206</ele>
        <time>2022-08-06T17:42:34.659Z</time>
      </trkpt>
      <trkpt lat="46.90676" lon="15.48283">
        <ele>302.020507</ele>
        <time>2022-08-06T17:42:38.608Z</time>
      </trkpt>
      <trkpt lat="46.90832" lon="15.48192">
        <ele>303.520174</ele>
        <time>2022-08-06T17:43:34.764Z</time>
      </trkpt>
      <trkpt lat="46.9087" lon="15.48186">
        <ele>303.785614</ele>
        <time>2022-08-06T17:43:45.020Z</time>
      </trkpt>
      <trkpt lat="46.90907" lon="15.4819">
        <ele>303.42507</ele>
        <time>2022-08-06T17:43:54.075Z</time>
      </trkpt>
      <trkpt lat="46.90927" lon="15.48202">
        <ele>303.222871</ele>
        <time>2022-08-06T17:43:58.822Z</time>
      </trkpt>
      <trkpt lat="46.90961" lon="15.48245">
        <ele>302.781824</ele>
        <time>2022-08-06T17:44:09.141Z</time>
      </trkpt>
      <trkpt lat="46.91017" lon="15.48387">
        <ele>301.797507</ele>
        <time>2022-08-06T17:44:33.912Z</time>
      </trkpt>
      <trkpt lat="46.91062" lon="15.48363">
        <ele>301.446468</ele>
        <time>2022-08-06T17:44:44.723Z</time>
      </trkpt>
      <trkpt lat="46.91286" lon="15.48313">
        <ele>300.614158</ele>
        <time>2022-08-06T17:45:43.625Z</time>
      </trkpt>
      <trkpt lat="46.91305" lon="15.48316">
        <ele>300.590647</ele>
        <time>2022-08-06T17:45:48.767Z</time>
      </trkpt>
      <trkpt lat="46.91339" lon="15.48336">
        <ele>300.594577</ele>
        <time>2022-08-06T17:45:58.364Z</time>
      </trkpt>
      <trkpt lat="46.91408" lon="15.48347">
        <ele>300.813842</ele>
        <time>2022-08-06T17:46:16.310Z</time>
      </trkpt>
      <trkpt lat="46.91472" lon="15.48346">
        <ele>301.015045</ele>
        <time>2022-08-06T17:46:34.187Z</time>
      </trkpt>
      <trkpt lat="46.91538" lon="15.48384">
        <ele>301.596544</ele>
        <time>2022-08-06T17:46:57.254Z</time>
      </trkpt>
      <trkpt lat="46.91554" lon="15.48399">
        <ele>301.845489</ele>
        <time>2022-08-06T17:47:03.865Z</time>
      </trkpt>
      <trkpt lat="46.91575" lon="15.48431">
        <ele>302.241284</ele>
        <time>2022-08-06T17:47:14.410Z</time>
      </trkpt>
      <trkpt lat="46.91636" lon="15.48518">
        <ele>303.348505</ele>
        <time>2022-08-06T17:47:42.452Z</time>
      </trkpt>
      <trkpt lat="46.91664" lon="15.48539">
        <ele>303.585907</ele>
        <time>2022-08-06T17:47:52.468Z</time>
      </trkpt>
      <trkpt lat="46.91687" lon="15.48541">
        <ele>303.709892</ele>
        <time>2022-08-06T17:47:59.975Z</time>
      </trkpt>
      <trkpt lat="46.917" lon="15.48535">
        <ele>303.779471</ele>
        <time>2022-08-06T17:48:04.280Z</time>
      </trkpt>
      <trkpt lat="46.91753" lon="15.48484">
        <ele>304.112034</ele>
        <time>2022-08-06T17:48:22.587Z</time>
      </trkpt>
      <trkpt lat="46.91809" lon="15.48465">
        <ele>304.416559</ele>
        <time>2022-08-06T17:48:37.832Z</time>
      </trkpt>
      <trkpt lat="46.91895" lon="15.48417">
        <ele>304.698311</ele>
        <time>2022-08-06T17:49:02.178Z</time>
      </trkpt>
      <trkpt lat="46.91955" lon="15.48495">
        <ele>304.94133</ele>
        <time>2022-08-06T17:49:26.154Z</time>
      </trkpt>
      <trkpt lat="46.92078" lon="15.4868">
        <ele>306.078544</ele>
        <time>2022-08-06T17:50:18.841Z</time>
      </trkpt>
      <trkpt lat="46.9211" lon="15.48727">
        <ele>306.262081</ele>
        <time>2022-08-06T17:50:32.365Z</time>
      </trkpt>
      <trkpt lat="46.92141" lon="15.48766">
        <ele>306.388483</ele>
        <time>2022-08-06T17:50:44.215Z</time>
      </trkpt>
      <trkpt lat="46.9223" lon="15.48913">
        <ele>306.789056</ele>
        <time>2022-08-06T17:51:20.957Z</time>
      </trkpt>
      <trkpt lat="46.92255" lon="15.4894">
        <ele>306.865622</ele>
        <time>2022-08-06T17:51:28.747Z</time>
      </trkpt>
      <trkpt lat="46.92286" lon="15.48987">
        <ele>306.978708</ele>
        <time>2022-08-06T17:51:40.810Z</time>
      </trkpt>
      <trkpt lat="46.92291" lon="15.49004">
        <ele>307.009515</ele>
        <time>2022-08-06T17:51:44.375Z</time>
      </trkpt>
      <trkpt lat="46.92292" lon="15.49025">
        <ele>307.0459</ele>
        <time>2022-08-06T17:51:48.639Z</time>
      </trkpt>
      <trkpt lat="46.92365" lon="15.4903">
        <ele>307.356855</ele>
        <time>2022-08-06T17:52:10.648Z</time>
      </trkpt>
      <trkpt lat="46.92375" lon="15.4903">
        <ele>307.431702</ele>
        <time>2022-08-06T17:52:13.624Z</time>
      </trkpt>
      <trkpt lat="46.92386" lon="15.49031">
        <ele>307.513283</ele>
        <time>2022-08-06T17:52:17.207Z</time>
      </trkpt>
      <trkpt lat="46.92422" lon="15.49031">
        <ele>307.781937</ele>
        <time>2022-08-06T17:52:28.243Z</time>
      </trkpt>
      <trkpt lat="46.9244" lon="15.49033">
        <ele>307.914823</ele>
        <time>2022-08-06T17:52:33.520Z</time>
      </trkpt>
      <trkpt lat="46.92444" lon="15.49033">
        <ele>307.946269</ele>
        <time>2022-08-06T17:52:34.723Z</time>
      </trkpt>
      <trkpt lat="46.92458" lon="15.49033">
        <ele>308.052532</ele>
        <time>2022-08-06T17:52:39.101Z</time>
      </trkpt>
      <trkpt lat="46.92519" lon="15.49032">
        <ele>308.503042</ele>
        <time>2022-08-06T17:52:57.245Z</time>
      </trkpt>
      <trkpt lat="46.92521" lon="15.49032">
        <ele>308.512669</ele>
        <time>2022-08-06T17:52:57.930Z</time>
      </trkpt>
      <trkpt lat="46.92551" lon="15.49032">
        <ele>308.5032</ele>
        <time>2022-08-06T17:53:07.392Z</time>
      </trkpt>
      <trkpt lat="46.92571" lon="15.4903">
        <ele>308.497016</ele>
        <time>2022-08-06T17:53:13.211Z</time>
      </trkpt>
      <trkpt lat="46.92596" lon="15.49019">
        <ele>308.488868</ele>
        <time>2022-08-06T17:53:20.344Z</time>
      </trkpt>
      <trkpt lat="46.92621" lon="15.49017">
        <ele>308.480989</ele>
        <time>2022-08-06T17:53:26.741Z</time>
      </trkpt>
      <trkpt lat="46.92796" lon="15.49002">
        <ele>308.1573</ele>
        <time>2022-08-06T17:54:09.836Z</time>
      </trkpt>
      <trkpt lat="46.92939" lon="15.4899">
        <ele>307.99823</ele>
        <time>2022-08-06T17:54:47.806Z</time>
      </trkpt>
      <trkpt lat="46.93008" lon="15.48994">
        <ele>308.099668</ele>
        <time>2022-08-06T17:55:06.987Z</time>
      </trkpt>
      <trkpt lat="46.93079" lon="15.48997">
        <ele>308.22205</ele>
        <time>2022-08-06T17:55:26.749Z</time>
      </trkpt>
      <trkpt lat="46.93214" lon="15.48955">
        <ele>308.538286</ele>
        <time>2022-08-06T17:56:04.785Z</time>
      </trkpt>
      <trkpt lat="46.93451" lon="15.48939">
        <ele>309.333159</ele>
        <time>2022-08-06T17:57:11.876Z</time>
      </trkpt>
      <trkpt lat="46.93492" lon="15.48926">
        <ele>309.498809</ele>
        <time>2022-08-06T17:57:24.224Z</time>
      </trkpt>
      <trkpt lat="46.93572" lon="15.48881">
        <ele>309.838584</ele>
        <time>2022-08-06T17:57:48.980Z</time>
      </trkpt>
      <trkpt lat="46.93601" lon="15.48863">
        <ele>309.946766</ele>
        <time>2022-08-06T17:57:57.723Z</time>
      </trkpt>
      <trkpt lat="46.93623" lon="15.4884">
        <ele>310.023943</ele>
        <time>2022-08-06T17:58:04.893Z</time>
      </trkpt>
      <trkpt lat="46.93676" lon="15.48816">
        <ele>310.188118</ele>
        <time>2022-08-06T17:58:20.941Z</time>
      </trkpt>
      <trkpt lat="46.93765" lon="15.48789">
        <ele>310.472913</ele>
        <time>2022-08-06T17:58:46.113Z</time>
      </trkpt>
      <trkpt lat="46.93774" lon="15.48786">
        <ele>310.516892</ele>
        <time>2022-08-06T17:58:48.542Z</time>
      </trkpt>
      <trkpt lat="46.93795" lon="15.48775">
        <ele>310.631526</ele>
        <time>2022-08-06T17:58:55.170Z</time>
      </trkpt>
      <trkpt lat="46.93826" lon="15.48743">
        <ele>310.820644</ele>
        <time>2022-08-06T17:59:06.424Z</time>
      </trkpt>
      <trkpt lat="46.93874" lon="15.48707">
        <ele>311.094295</ele>
        <time>2022-08-06T17:59:22.658Z</time>
      </trkpt>
      <trkpt lat="46.93925" lon="15.48687">
        <ele>311.334194</ele>
        <time>2022-08-06T17:59:38.200Z</time>
      </trkpt>
      <trkpt lat="46.93964" lon="15.48681">
        <ele>311.371971</ele>
        <time>2022-08-06T17:59:48.961Z</time>
      </trkpt>
      <trkpt lat="46.94009" lon="15.48683">
        <ele>311.415493</ele>
        <time>2022-08-06T18:00:01.307Z</time>
      </trkpt>
      <trkpt lat="46.94075" lon="15.48693">
        <ele>311.478629</ele>
        <time>2022-08-06T18:00:18.647Z</time>
      </trkpt>
      <trkpt lat="46.94084" lon="15.48695">
        <ele>311.488076</ele>
        <time>2022-08-06T18:00:21.201Z</time>
      </trkpt>
      <trkpt lat="46.9411" lon="15.48701">
        <ele>311.526213</ele>
        <time>2022-08-06T18:00:27.962Z</time>
      </trkpt>
      <trkpt lat="46.94143" lon="15.4871">
        <ele>311.591443</ele>
        <time>2022-08-06T18:00:36.354Z</time>
      </trkpt>
      <trkpt lat="46.94235" lon="15.48759">
        <ele>311.78582</ele>
        <time>2022-08-06T18:01:04.053Z</time>
      </trkpt>
      <trkpt lat="46.94266" lon="15.4877">
        <ele>311.849265</ele>
        <time>2022-08-06T18:01:13.551Z</time>
      </trkpt>
      <trkpt lat="46.94293" lon="15.48776">
        <ele>311.897511</ele>
        <time>2022-08-06T18:01:21.279Z</time>
      </trkpt>
      <trkpt lat="46.94326" lon="15.48763">
        <ele>311.957854</ele>
        <time>2022-08-06T18:01:30.564Z</time>
      </trkpt>
      <trkpt lat="46.94341" lon="15.48756">
        <ele>311.985454</ele>
        <time>2022-08-06T18:01:34.967Z</time>
      </trkpt>
      <trkpt lat="46.94425" lon="15.48764">
        <ele>312.133038</ele>
        <time>2022-08-06T18:01:58.238Z</time>
      </trkpt>
      <trkpt lat="46.94462" lon="15.48774">
        <ele>312.161978</ele>
        <time>2022-08-06T18:02:08.377Z</time>
      </trkpt>
      <trkpt lat="46.94469" lon="15.48791">
        <ele>312.150732</ele>
        <time>2022-08-06T18:02:11.997Z</time>
      </trkpt>
      <trkpt lat="46.94503" lon="15.48808">
        <ele>312.122049</ele>
        <time>2022-08-06T18:02:21.056Z</time>
      </trkpt>
      <trkpt lat="46.94606" lon="15.4884">
        <ele>312.037588</ele>
        <time>2022-08-06T18:02:48.545Z</time>
      </trkpt>
      <trkpt lat="46.94611" lon="15.48841">
        <ele>312.033811</ele>
        <time>2022-08-06T18:02:49.851Z</time>
      </trkpt>
      <trkpt lat="46.9462" lon="15.48842">
        <ele>312.024326</ele>
        <time>2022-08-06T18:02:52.315Z</time>
      </trkpt>
      <trkpt lat="46.94621" lon="15.48851">
        <ele>312.014406</ele>
        <time>2022-08-06T18:02:54.103Z</time>
      </trkpt>
      <trkpt lat="46.94628" lon="15.48856">
        <ele>312.002412</ele>
        <time>2022-08-06T18:02:56.251Z</time>
      </trkpt>
      <trkpt lat="46.94636" lon="15.48847">
        <ele>311.987248</ele>
        <time>2022-08-06T18:02:59.214Z</time>
      </trkpt>
      <trkpt lat="46.94637" lon="15.48842">
        <ele>311.981726</ele>
        <time>2022-08-06T18:03:00.265Z</time>
      </trkpt>
      <trkpt lat="46.94644" lon="15.48841">
        <ele>311.970522</ele>
        <time>2022-08-06T18:03:02.220Z</time>
      </trkpt>
      <trkpt lat="46.94647" lon="15.48841">
        <ele>311.966686</ele>
        <time>2022-08-06T18:03:02.882Z</time>
      </trkpt>
      <trkpt lat="46.9467" lon="15.48849">
        <ele>311.929752</ele>
        <time>2022-08-06T18:03:09.209Z</time>
      </trkpt>
      <trkpt lat="46.94685" lon="15.48858">
        <ele>311.905134</ele>
        <time>2022-08-06T18:03:13.353Z</time>
      </trkpt>
      <trkpt lat="46.94737" lon="15.48892">
        <ele>311.817319</ele>
        <time>2022-08-06T18:03:28.107Z</time>
      </trkpt>
      <trkpt lat="46.94802" lon="15.48894">
        <ele>311.695944</ele>
        <time>2022-08-06T18:03:44.733Z</time>
      </trkpt>
      <trkpt lat="46.94848" lon="15.48924">
        <ele>311.572096</ele>
        <time>2022-08-06T18:03:57.157Z</time>
      </trkpt>
      <trkpt lat="46.94996" lon="15.49018">
        <ele>311.2966</ele>
        <time>2022-08-06T18:04:38.854Z</time>
      </trkpt>
      <trkpt lat="46.95065" lon="15.49037">
        <ele>311.28129</ele>
        <time>2022-08-06T18:04:57.742Z</time>
      </trkpt>
      <trkpt lat="46.95123" lon="15.49039">
        <ele>311.27386</ele>
        <time>2022-08-06T18:05:13.391Z</time>
      </trkpt>
      <trkpt lat="46.95168" lon="15.49006">
        <ele>311.342295</ele>
        <time>2022-08-06T18:05:26.828Z</time>
      </trkpt>
      <trkpt lat="46.95224" lon="15.48933">
        <ele>311.445254</ele>
        <time>2022-08-06T18:05:47.190Z</time>
      </trkpt>
      <trkpt lat="46.95313" lon="15.48863">
        <ele>311.75724</ele>
        <time>2022-08-06T18:06:15.528Z</time>
      </trkpt>
      <trkpt lat="46.95369" lon="15.48813">
        <ele>312.07238</ele>
        <time>2022-08-06T18:06:34.406Z</time>
      </trkpt>
      <trkpt lat="46.95431" lon="15.48738">
        <ele>312.492591</ele>
        <time>2022-08-06T18:06:58.627Z</time>
      </trkpt>
      <trkpt lat="46.95476" lon="15.48693">
        <ele>312.854328</ele>
        <time>2022-08-06T18:07:15.242Z</time>
      </trkpt>
      <trkpt lat="46.95498" lon="15.4867">
        <ele>313.038265</ele>
        <time>2022-08-06T18:07:23.463Z</time>
      </trkpt>
      <trkpt lat="46.95522" lon="15.48649">
        <ele>313.221164</ele>
        <time>2022-08-06T18:07:31.608Z</time>
      </trkpt>
      <trkpt lat="46.95526" lon="15.48647">
        <ele>313.250224</ele>
        <time>2022-08-06T18:07:32.888Z</time>
      </trkpt>
      <trkpt lat="46.95575" lon="15.48619">
        <ele>313.600495</ele>
        <time>2022-08-06T18:07:48.376Z</time>
      </trkpt>
      <trkpt lat="46.95679" lon="15.48607">
        <ele>314.127162</ele>
        <time>2022-08-06T18:08:18.722Z</time>
      </trkpt>
      <trkpt lat="46.95731" lon="15.48594">
        <ele>314.39572</ele>
        <time>2022-08-06T18:08:34.011Z</time>
      </trkpt>
      <trkpt lat="46.95781" lon="15.48578">
        <ele>314.657382</ele>
        <time>2022-08-06T18:08:48.926Z</time>
      </trkpt>
      <trkpt lat="46.95831" lon="15.48573">
        <ele>314.912232</ele>
        <time>2022-08-06T18:09:03.628Z</time>
      </trkpt>
      <trkpt lat="46.95855" lon="15.48558">
        <ele>315.042943</ele>
        <time>2022-08-06T18:09:11.197Z</time>
      </trkpt>
      <trkpt lat="46.95896" lon="15.48493">
        <ele>315.35113</ele>
        <time>2022-08-06T18:09:28.838Z</time>
      </trkpt>
      <trkpt lat="46.95918" lon="15.48469">
        <ele>315.489214</ele>
        <time>2022-08-06T18:09:36.629Z</time>
      </trkpt>
      <trkpt lat="46.95975" lon="15.48425">
        <ele>315.820233</ele>
        <time>2022-08-06T18:09:55.169Z</time>
      </trkpt>
      <trkpt lat="46.96009" lon="15.48399">
        <ele>316.016454</ele>
        <time>2022-08-06T18:10:06.174Z</time>
      </trkpt>
      <trkpt lat="46.96084" lon="15.48374">
        <ele>316.418407</ele>
        <time>2022-08-06T18:10:29.167Z</time>
      </trkpt>
      <trkpt lat="46.96142" lon="15.48362">
        <ele>316.752025</ele>
        <time>2022-08-06T18:10:47.276Z</time>
      </trkpt>
      <trkpt lat="46.96202" lon="15.48228">
        <ele>317.347666</ele>
        <time>2022-08-06T18:11:18.743Z</time>
      </trkpt>
      <trkpt lat="46.96219" lon="15.482">
        <ele>317.310371</ele>
        <time>2022-08-06T18:11:26.074Z</time>
      </trkpt>
      <trkpt lat="46.9625" lon="15.4817">
        <ele>317.256082</ele>
        <time>2022-08-06T18:11:36.658Z</time>
      </trkpt>
      <trkpt lat="46.96327" lon="15.48123">
        <ele>317.136247</ele>
        <time>2022-08-06T18:11:58.091Z</time>
      </trkpt>
      <trkpt lat="46.9637" lon="15.48101">
        <ele>317.018316</ele>
        <time>2022-08-06T18:12:08.675Z</time>
      </trkpt>
      <trkpt lat="46.96377" lon="15.48103">
        <ele>316.982389</ele>
        <time>2022-08-06T18:12:10.368Z</time>
      </trkpt>
      <trkpt lat="46.96385" lon="15.48202">
        <ele>316.646714</ele>
        <time>2022-08-06T18:12:26.790Z</time>
      </trkpt>
      <trkpt lat="46.96404" lon="15.48233">
        <ele>316.50418</ele>
        <time>2022-08-06T18:12:34.027Z</time>
      </trkpt>
      <trkpt lat="46.96438" lon="15.48261">
        <ele>316.315546</ele>
        <time>2022-08-06T18:12:43.773Z</time>
      </trkpt>
      <trkpt lat="46.96445" lon="15.48267">
        <ele>316.275515</ele>
        <time>2022-08-06T18:12:47.360Z</time>
      </trkpt>
      <trkpt lat="46.96461" lon="15.4828">
        <ele>316.204947</ele>
        <time>2022-08-06T18:12:51.893Z</time>
      </trkpt>
      <trkpt lat="46.96477" lon="15.48276">
        <ele>316.201946</ele>
        <time>2022-08-06T18:12:56.018Z</time>
      </trkpt>
      <trkpt lat="46.96551" lon="15.48232">
        <ele>316.187007</ele>
        <time>2022-08-06T18:13:16.346Z</time>
      </trkpt>
      <trkpt lat="46.96558" lon="15.48229">
        <ele>316.185499</ele>
        <time>2022-08-06T18:13:18.376Z</time>
      </trkpt>
      <trkpt lat="46.96714" lon="15.48172">
        <ele>316.672611</ele>
        <time>2022-08-06T18:14:04.282Z</time>
      </trkpt>
      <trkpt lat="46.96736" lon="15.48171">
        <ele>316.798428</ele>
        <time>2022-08-06T18:14:11.046Z</time>
      </trkpt>
      <trkpt lat="46.96815" lon="15.48165">
        <ele>317.245041</ele>
        <time>2022-08-06T18:14:35.320Z</time>
      </trkpt>
      <trkpt lat="46.96989" lon="15.48133">
        <ele>318.232408</ele>
        <time>2022-08-06T18:15:26.640Z</time>
      </trkpt>
      <trkpt lat="46.97016" lon="15.48107">
        <ele>318.415492</ele>
        <time>2022-08-06T18:15:35.260Z</time>
      </trkpt>
      <trkpt lat="46.97043" lon="15.48042">
        <ele>318.71857</ele>
        <time>2022-08-06T18:15:50.399Z</time>
      </trkpt>
      <trkpt lat="46.97056" lon="15.47977">
        <ele>318.986848</ele>
        <time>2022-08-06T18:16:05.240Z</time>
      </trkpt>
      <trkpt lat="46.97067" lon="15.47966">
        <ele>319.063235</ele>
        <time>2022-08-06T18:16:09.690Z</time>
      </trkpt>
      <trkpt lat="46.97079" lon="15.47964">
        <ele>319.134831</ele>
        <time>2022-08-06T18:16:13.508Z</time>
      </trkpt>
      <trkpt lat="46.97096" lon="15.47967">
        <ele>319.234673</ele>
        <time>2022-08-06T18:16:19.154Z</time>
      </trkpt>
      <trkpt lat="46.97118" lon="15.47957">
        <ele>319.314156</ele>
        <time>2022-08-06T18:16:25.633Z</time>
      </trkpt>
      <trkpt lat="46.9714" lon="15.47925">
        <ele>319.417463</ele>
        <time>2022-08-06T18:16:34.589Z</time>
      </trkpt>
      <trkpt lat="46.97167" lon="15.47918">
        <ele>319.510045</ele>
        <time>2022-08-06T18:16:42.787Z</time>
      </trkpt>
      <trkpt lat="46.97172" lon="15.47918">
        <ele>319.529314</ele>
        <time>2022-08-06T18:16:44.529Z</time>
      </trkpt>
      <trkpt lat="46.97226" lon="15.47884">
        <ele>319.726523</ele>
        <time>2022-08-06T18:17:02.543Z</time>
      </trkpt>
      <trkpt lat="46.97217" lon="15.47834">
        <ele>319.845886</ele>
        <time>2022-08-06T18:17:12.784Z</time>
      </trkpt>
      <trkpt lat="46.97219" lon="15.47824">
        <ele>319.802182</ele>
        <time>2022-08-06T18:17:14.713Z</time>
      </trkpt>
      <trkpt lat="46.97381" lon="15.47711">
        <ele>318.66421</ele>
        <time>2022-08-06T18:17:58.593Z</time>
      </trkpt>
      <trkpt lat="46.97463" lon="15.47602">
        <ele>318.430869</ele>
        <time>2022-08-06T18:18:28.260Z</time>
      </trkpt>
      <trkpt lat="46.97504" lon="15.476">
        <ele>318.346008</ele>
        <time>2022-08-06T18:18:39.038Z</time>
      </trkpt>
      <trkpt lat="46.97523" lon="15.47587">
        <ele>318.301755</ele>
        <time>2022-08-06T18:18:44.759Z</time>
      </trkpt>
      <trkpt lat="46.97531" lon="15.47565">
        <ele>318.353507</ele>
        <time>2022-08-06T18:18:49.620Z</time>
      </trkpt>
      <trkpt lat="46.97537" lon="15.47427">
        <ele>318.663979</ele>
        <time>2022-08-06T18:19:16.270Z</time>
      </trkpt>
      <trkpt lat="46.97542" lon="15.47403">
        <ele>318.721067</ele>
        <time>2022-08-06T18:19:21.288Z</time>
      </trkpt>
      <trkpt lat="46.97782" lon="15.47245">
        <ele>319.64992</ele>
        <time>2022-08-06T18:20:36.669Z</time>
      </trkpt>
      <trkpt lat="46.97988" lon="15.4714">
        <ele>320.514171</ele>
        <time>2022-08-06T18:21:39.555Z</time>
      </trkpt>
      <trkpt lat="46.98009" lon="15.47175">
        <ele>320.728155</ele>
        <time>2022-08-06T18:21:49.388Z</time>
      </trkpt>
      <trkpt lat="46.98023" lon="15.4723">
        <ele>321.000419</ele>
        <time>2022-08-06T18:22:02.289Z</time>
      </trkpt>
      <trkpt lat="46.9813" lon="15.4718">
        <ele>322.263923</ele>
        <time>2022-08-06T18:22:40.110Z</time>
      </trkpt>
      <trkpt lat="46.98185" lon="15.47187">
        <ele>323.011742</ele>
        <time>2022-08-06T18:22:59.278Z</time>
      </trkpt>
      <trkpt lat="46.98229" lon="15.47205">
        <ele>323.6331</ele>
        <time>2022-08-06T18:23:15.151Z</time>
      </trkpt>
      <trkpt lat="46.98295" lon="15.47194">
        <ele>324.364213</ele>
        <time>2022-08-06T18:23:38.784Z</time>
      </trkpt>
      <trkpt lat="46.98336" lon="15.47198">
        <ele>324.802086</ele>
        <time>2022-08-06T18:23:52.552Z</time>
      </trkpt>
      <trkpt lat="46.98369" lon="15.47187">
        <ele>325.170841</ele>
        <time>2022-08-06T18:24:03.590Z</time>
      </trkpt>
      <trkpt lat="46.98413" lon="15.47184">
        <ele>325.638837</ele>
        <time>2022-08-06T18:24:16.810Z</time>
      </trkpt>
      <trkpt lat="46.98433" lon="15.47151">
        <ele>325.660912</ele>
        <time>2022-08-06T18:24:25.840Z</time>
      </trkpt>
      <trkpt lat="46.98476" lon="15.4707">
        <ele>325.710934</ele>
        <time>2022-08-06T18:24:45.981Z</time>
      </trkpt>
      <trkpt lat="46.98515" lon="15.47027">
        <ele>325.746185</ele>
        <time>2022-08-06T18:24:59.470Z</time>
      </trkpt>
      <trkpt lat="46.98544" lon="15.47007">
        <ele>325.759797</ele>
        <time>2022-08-06T18:25:07.714Z</time>
      </trkpt>
      <trkpt lat="46.98637" lon="15.47">
        <ele>325.375401</ele>
        <time>2022-08-06T18:25:31.498Z</time>
      </trkpt>
      <trkpt lat="46.98662" lon="15.46996">
        <ele>325.272298</ele>
        <time>2022-08-06T18:25:37.984Z</time>
      </trkpt>
      <trkpt lat="46.98687" lon="15.46979">
        <ele>325.158312</ele>
        <time>2022-08-06T18:25:45.331Z</time>
      </trkpt>
      <trkpt lat="46.98729" lon="15.46954">
        <ele>324.985536</ele>
        <time>2022-08-06T18:25:57.753Z</time>
      </trkpt>
      <trkpt lat="46.98737" lon="15.46947">
        <ele>324.960784</ele>
        <time>2022-08-06T18:26:00.047Z</time>
      </trkpt>
      <trkpt lat="46.98772" lon="15.46907">
        <ele>324.832307</ele>
        <time>2022-08-06T18:26:11.806Z</time>
      </trkpt>
      <trkpt lat="46.98836" lon="15.46866">
        <ele>324.630451</ele>
        <time>2022-08-06T18:26:30.404Z</time>
      </trkpt>
      <trkpt lat="46.98867" lon="15.46835">
        <ele>324.523156</ele>
        <time>2022-08-06T18:26:40.334Z</time>
      </trkpt>
      <trkpt lat="46.98904" lon="15.46781">
        <ele>324.418132</ele>
        <time>2022-08-06T18:26:54.201Z</time>
      </trkpt>
      <trkpt lat="46.9894" lon="15.46701">
        <ele>324.291752</ele>
        <time>2022-08-06T18:27:11.919Z</time>
      </trkpt>
      <trkpt lat="46.98964" lon="15.46623">
        <ele>324.179277</ele>
        <time>2022-08-06T18:27:27.482Z</time>
      </trkpt>
      <trkpt lat="46.99051" lon="15.46505">
        <ele>324.004458</ele>
        <time>2022-08-06T18:27:59.317Z</time>
      </trkpt>
      <trkpt lat="46.99095" lon="15.46431">
        <ele>323.908573</ele>
        <time>2022-08-06T18:28:17.801Z</time>
      </trkpt>
      <trkpt lat="46.99129" lon="15.46412">
        <ele>323.917677</ele>
        <time>2022-08-06T18:28:27.892Z</time>
      </trkpt>
      <trkpt lat="46.9919" lon="15.46358">
        <ele>323.951674</ele>
        <time>2022-08-06T18:28:48.026Z</time>
      </trkpt>
      <trkpt lat="46.99221" lon="15.46327">
        <ele>323.969677</ele>
        <time>2022-08-06T18:28:58.632Z</time>
      </trkpt>
      <trkpt lat="46.99265" lon="15.46309">
        <ele>324.00248</ele>
        <time>2022-08-06T18:29:11.371Z</time>
      </trkpt>
      <trkpt lat="46.99314" lon="15.46307">
        <ele>324.098205</ele>
        <time>2022-08-06T18:29:25.010Z</time>
      </trkpt>
      <trkpt lat="46.99363" lon="15.46277">
        <ele>324.203679</ele>
        <time>2022-08-06T18:29:40.315Z</time>
      </trkpt>
      <trkpt lat="46.99378" lon="15.46261">
        <ele>324.238919</ele>
        <time>2022-08-06T18:29:45.530Z</time>
      </trkpt>
      <trkpt lat="46.99385" lon="15.46235">
        <ele>324.2767</ele>
        <time>2022-08-06T18:29:51.149Z</time>
      </trkpt>
      <trkpt lat="46.99392" lon="15.46197">
        <ele>324.330209</ele>
        <time>2022-08-06T18:29:59.157Z</time>
      </trkpt>
      <trkpt lat="46.99393" lon="15.46125">
        <ele>324.5489</ele>
        <time>2022-08-06T18:30:13.808Z</time>
      </trkpt>
      <trkpt lat="46.99399" lon="15.46094">
        <ele>324.656318</ele>
        <time>2022-08-06T18:30:20.482Z</time>
      </trkpt>
      <trkpt lat="46.99472" lon="15.45945">
        <ele>325.276905</ele>
        <time>2022-08-06T18:30:58.286Z</time>
      </trkpt>
      <trkpt lat="46.99477" lon="15.45865">
        <ele>325.636982</ele>
        <time>2022-08-06T18:31:14.767Z</time>
      </trkpt>
      <trkpt lat="46.9949" lon="15.45808">
        <ele>325.904769</ele>
        <time>2022-08-06T18:31:26.937Z</time>
      </trkpt>
      <trkpt lat="46.99504" lon="15.45789">
        <ele>326.028432</ele>
        <time>2022-08-06T18:31:32.654Z</time>
      </trkpt>
      <trkpt lat="46.99626" lon="15.45704">
        <ele>327.171127</ele>
        <time>2022-08-06T18:32:17.029Z</time>
      </trkpt>
      <trkpt lat="46.99657" lon="15.45665">
        <ele>327.569327</ele>
        <time>2022-08-06T18:32:30.720Z</time>
      </trkpt>
      <trkpt lat="46.99704" lon="15.45603">
        <ele>328.154189</ele>
        <time>2022-08-06T18:32:50.687Z</time>
      </trkpt>
      <trkpt lat="46.99767" lon="15.45575">
        <ele>328.15542</ele>
        <time>2022-08-06T18:33:09.717Z</time>
      </trkpt>
      <trkpt lat="46.99805" lon="15.45546">
        <ele>328.15621</ele>
        <time>2022-08-06T18:33:21.227Z</time>
      </trkpt>
      <trkpt lat="46.99838" lon="15.45522">
        <ele>328.156892</ele>
        <time>2022-08-06T18:33:30.452Z</time>
      </trkpt>
      <trkpt lat="46.99873" lon="15.45516">
        <ele>328.116465</ele>
        <time>2022-08-06T18:33:38.855Z</time>
      </trkpt>
      <trkpt lat="46.99919" lon="15.45494">
        <ele>327.676531</ele>
        <time>2022-08-06T18:33:50.051Z</time>
      </trkpt>
      <trkpt lat="46.99988" lon="15.45478">
        <ele>327.047576</ele>
        <time>2022-08-06T18:34:06.004Z</time>
      </trkpt>
      <trkpt lat="47.00004" lon="15.45479">
        <ele>326.90319</ele>
        <time>2022-08-06T18:34:09.769Z</time>
      </trkpt>
      <trkpt lat="47.00011" lon="15.45491">
        <ele>326.805336</ele>
        <time>2022-08-06T18:34:12.390Z</time>
      </trkpt>
      <trkpt lat="47.00017" lon="15.45515">
        <ele>326.653103</ele>
        <time>2022-08-06T18:34:16.659Z</time>
      </trkpt>
      <trkpt lat="47.00029" lon="15.4554">
        <ele>326.517993</ele>
        <time>2022-08-06T18:34:21.877Z</time>
      </trkpt>
      <trkpt lat="47.00032" lon="15.45541">
        <ele>326.510444</ele>
        <time>2022-08-06T18:34:22.675Z</time>
      </trkpt>
      <trkpt lat="47.0005" lon="15.45552">
        <ele>326.467042</ele>
        <time>2022-08-06T18:34:27.353Z</time>
      </trkpt>
      <trkpt lat="47.00073" lon="15.45586">
        <ele>326.39265</ele>
        <time>2022-08-06T18:34:35.543Z</time>
      </trkpt>
      <trkpt lat="47.00084" lon="15.45588">
        <ele>326.367725</ele>
        <time>2022-08-06T18:34:38.313Z</time>
      </trkpt>
      <trkpt lat="47.00119" lon="15.45572">
        <ele>326.285594</ele>
        <time>2022-08-06T18:34:47.611Z</time>
      </trkpt>
      <trkpt lat="47.00191" lon="15.45522">
        <ele>326.18761</ele>
        <time>2022-08-06T18:35:09.156Z</time>
      </trkpt>
      <trkpt lat="47.00213" lon="15.45514">
        <ele>326.306288</ele>
        <time>2022-08-06T18:35:15.854Z</time>
      </trkpt>
      <trkpt lat="47.0028" lon="15.45506">
        <ele>326.657272</ele>
        <time>2022-08-06T18:35:35.650Z</time>
      </trkpt>
      <trkpt lat="47.00371" lon="15.45513">
        <ele>327.111051</ele>
        <time>2022-08-06T18:36:02.861Z</time>
      </trkpt>
      <trkpt lat="47.00379" lon="15.45508">
        <ele>327.141046</ele>
        <time>2022-08-06T18:36:05.459Z</time>
      </trkpt>
      <trkpt lat="47.00385" lon="15.45495">
        <ele>327.175893</ele>
        <time>2022-08-06T18:36:08.432Z</time>
      </trkpt>
      <trkpt lat="47.0036" lon="15.45389">
        <ele>327.434675</ele>
        <time>2022-08-06T18:36:30.262Z</time>
      </trkpt>
      <trkpt lat="47.00397" lon="15.45383">
        <ele>327.559401</ele>
        <time>2022-08-06T18:36:40.758Z</time>
      </trkpt>
      <trkpt lat="47.00433" lon="15.45419">
        <ele>327.694842</ele>
        <time>2022-08-06T18:36:52.758Z</time>
      </trkpt>
      <trkpt lat="47.00464" lon="15.45434">
        <ele>327.761164</ele>
        <time>2022-08-06T18:37:01.552Z</time>
      </trkpt>
      <trkpt lat="47.0049" lon="15.45431">
        <ele>327.813165</ele>
        <time>2022-08-06T18:37:08.405Z</time>
      </trkpt>
      <trkpt lat="47.00524" lon="15.45413">
        <ele>327.885479</ele>
        <time>2022-08-06T18:37:18.069Z</time>
      </trkpt>
      <trkpt lat="47.00628" lon="15.45356">
        <ele>328.248901</ele>
        <time>2022-08-06T18:37:49.303Z</time>
      </trkpt>
      <trkpt lat="47.00735" lon="15.45279">
        <ele>328.963205</ele>
        <time>2022-08-06T18:38:25.109Z</time>
      </trkpt>
      <trkpt lat="47.00766" lon="15.45245">
        <ele>329.188655</ele>
        <time>2022-08-06T18:38:36.790Z</time>
      </trkpt>
      <trkpt lat="47.00769" lon="15.45216">
        <ele>329.303132</ele>
        <time>2022-08-06T18:38:43.142Z</time>
      </trkpt>
      <trkpt lat="47.00845" lon="15.45194">
        <ele>329.748708</ele>
        <time>2022-08-06T18:39:06.343Z</time>
      </trkpt>
      <trkpt lat="47.00882" lon="15.45198">
        <ele>329.95572</ele>
        <time>2022-08-06T18:39:16.786Z</time>
      </trkpt>
      <trkpt lat="47.00896" lon="15.45209">
        <ele>330.04732</ele>
        <time>2022-08-06T18:39:21.295Z</time>
      </trkpt>
      <trkpt lat="47.00911" lon="15.45268">
        <ele>330.403154</ele>
        <time>2022-08-06T18:39:33.292Z</time>
      </trkpt>
      <trkpt lat="47.0093" lon="15.45316">
        <ele>330.769415</ele>
        <time>2022-08-06T18:39:43.906Z</time>
      </trkpt>
      <trkpt lat="47.00958" lon="15.45476">
        <ele>331.864457</ele>
        <time>2022-08-06T18:40:20.001Z</time>
      </trkpt>
      <trkpt lat="47.01141" lon="15.4546">
        <ele>335.505228</ele>
        <time>2022-08-06T18:41:28.950Z</time>
      </trkpt>
      <trkpt lat="47.01241" lon="15.45441">
        <ele>336.462776</ele>
        <time>2022-08-06T18:42:02.327Z</time>
      </trkpt>
      <trkpt lat="47.01281" lon="15.45446">
        <ele>336.840725</ele>
        <time>2022-08-06T18:42:13.820Z</time>
      </trkpt>
      <trkpt lat="47.01349" lon="15.45503">
        <ele>337.301913</ele>
        <time>2022-08-06T18:42:34.479Z</time>
      </trkpt>
      <trkpt lat="47.01358" lon="15.45543">
        <ele>337.369065</ele>
        <time>2022-08-06T18:42:42.087Z</time>
      </trkpt>
      <trkpt lat="47.01361" lon="15.45555">
        <ele>337.388885</ele>
        <time>2022-08-06T18:42:44.230Z</time>
      </trkpt>
      <trkpt lat="47.01376" lon="15.45548">
        <ele>337.423929</ele>
        <time>2022-08-06T18:42:48.141Z</time>
      </trkpt>
      <trkpt lat="47.01411" lon="15.45533">
        <ele>337.510015</ele>
        <time>2022-08-06T18:42:58.315Z</time>
      </trkpt>
      <trkpt lat="47.01428" lon="15.45525">
        <ele>337.551927</ele>
        <time>2022-08-06T18:43:03.543Z</time>
      </trkpt>
      <trkpt lat="47.01425" lon="15.45514">
        <ele>337.571233</ele>
        <time>2022-08-06T18:43:07.383Z</time>
      </trkpt>
      <trkpt lat="47.01468" lon="15.45462">
        <ele>337.87572</ele>
        <time>2022-08-06T18:43:34.257Z</time>
      </trkpt>
      <trkpt lat="47.01483" lon="15.45437">
        <ele>338.060535</ele>
        <time>2022-08-06T18:43:45.451Z</time>
      </trkpt>
      <trkpt lat="47.0152" lon="15.454">
        <ele>338.417549</ele>
        <time>2022-08-06T18:44:07.174Z</time>
      </trkpt>
      <trkpt lat="47.01539" lon="15.45379">
        <ele>338.610147</ele>
        <time>2022-08-06T18:44:14.571Z</time>
      </trkpt>
      <trkpt lat="47.01576" lon="15.45361">
        <ele>338.924372</ele>
        <time>2022-08-06T18:44:26.849Z</time>
      </trkpt>
      <trkpt lat="47.01622" lon="15.45341">
        <ele>339.231499</ele>
        <time>2022-08-06T18:44:42.371Z</time>
      </trkpt>
      <trkpt lat="47.01643" lon="15.45342">
        <ele>339.337119</ele>
        <time>2022-08-06T18:44:48.714Z</time>
      </trkpt>
      <trkpt lat="47.01719" lon="15.45371">
        <ele>339.741796</ele>
        <time>2022-08-06T18:45:13.521Z</time>
      </trkpt>
      <trkpt lat="47.01759" lon="15.45361">
        <ele>339.947624</ele>
        <time>2022-08-06T18:45:25.255Z</time>
      </trkpt>
      <trkpt lat="47.01818" lon="15.45336">
        <ele>339.676684</ele>
        <time>2022-08-06T18:45:41.294Z</time>
      </trkpt>
      <trkpt lat="47.01829" lon="15.45335">
        <ele>339.604333</ele>
        <time>2022-08-06T18:45:44.184Z</time>
      </trkpt>
      <trkpt lat="47.01864" lon="15.45332">
        <ele>339.373469</ele>
        <time>2022-08-06T18:45:53.144Z</time>
      </trkpt>
      <trkpt lat="47.01915" lon="15.45529">
        <ele>338.149778</ele>
        <time>2022-08-06T18:46:51.333Z</time>
      </trkpt>
      <trkpt lat="47.01914" lon="15.45555">
        <ele>337.953367</ele>
        <time>2022-08-06T18:46:58.238Z</time>
      </trkpt>
      <trkpt lat="47.01901" lon="15.45605">
        <ele>337.54735</ele>
        <time>2022-08-06T18:47:12.592Z</time>
      </trkpt>
      <trkpt lat="47.01919" lon="15.45602">
        <ele>337.348264</ele>
        <time>2022-08-06T18:47:19.680Z</time>
      </trkpt>
      <trkpt lat="47.01926" lon="15.45611">
        <ele>337.236722</ele>
        <time>2022-08-06T18:47:23.714Z</time>
      </trkpt>
      <trkpt lat="47.01946" lon="15.45624">
        <ele>336.995771</ele>
        <time>2022-08-06T18:47:28.686Z</time>
      </trkpt>
      <trkpt lat="47.02013" lon="15.45584">
        <ele>336.354344</ele>
        <time>2022-08-06T18:47:45.304Z</time>
      </trkpt>
      <trkpt lat="47.02031" lon="15.45567">
        <ele>336.174676</ele>
        <time>2022-08-06T18:47:50.231Z</time>
      </trkpt>
      <trkpt lat="47.02073" lon="15.45556">
        <ele>335.819068</ele>
        <time>2022-08-06T18:48:00.605Z</time>
      </trkpt>
      <trkpt lat="47.02133" lon="15.45524">
        <ele>335.305336</ele>
        <time>2022-08-06T18:48:16.096Z</time>
      </trkpt>
      <trkpt lat="47.02252" lon="15.45468">
        <ele>334.723233</ele>
        <time>2022-08-06T18:48:46.141Z</time>
      </trkpt>
      <trkpt lat="47.02365" lon="15.45406">
        <ele>334.564406</ele>
        <time>2022-08-06T18:49:18.376Z</time>
      </trkpt>
      <trkpt lat="47.02468" lon="15.45366">
        <ele>334.684908</ele>
        <time>2022-08-06T18:49:48.168Z</time>
      </trkpt>
      <trkpt lat="47.02562" lon="15.45304">
        <ele>334.819351</ele>
        <time>2022-08-06T18:50:16.385Z</time>
      </trkpt>
      <trkpt lat="47.02679" lon="15.45246">
        <ele>335.104363</ele>
        <time>2022-08-06T18:50:49.482Z</time>
      </trkpt>
      <trkpt lat="47.02699" lon="15.45239">
        <ele>335.192572</ele>
        <time>2022-08-06T18:50:55.347Z</time>
      </trkpt>
      <trkpt lat="47.02728" lon="15.4522">
        <ele>335.323921</ele>
        <time>2022-08-06T18:51:04.290Z</time>
      </trkpt>
      <trkpt lat="47.02749" lon="15.45208">
        <ele>335.416358</ele>
        <time>2022-08-06T18:51:10.762Z</time>
      </trkpt>
      <trkpt lat="47.02875" lon="15.45146">
        <ele>336.184966</ele>
        <time>2022-08-06T18:51:51.026Z</time>
      </trkpt>
      <trkpt lat="47.0294" lon="15.45106">
        <ele>336.693113</ele>
        <time>2022-08-06T18:52:12.697Z</time>
      </trkpt>
      <trkpt lat="47.02975" lon="15.45225">
        <ele>337.074396</ele>
        <time>2022-08-06T18:52:54.817Z</time>
      </trkpt>
      <trkpt lat="47.02995" lon="15.4522">
        <ele>337.11536</ele>
        <time>2022-08-06T18:53:00.176Z</time>
      </trkpt>
      <trkpt lat="47.02997" lon="15.45225">
        <ele>337.123856</ele>
        <time>2022-08-06T18:53:01.287Z</time>
      </trkpt>
      <trkpt lat="47.0299" lon="15.45228">
        <ele>337.138303</ele>
        <time>2022-08-06T18:53:03.143Z</time>
      </trkpt>
      <trkpt lat="47.03005" lon="15.45351">
        <ele>337.311583</ele>
        <time>2022-08-06T18:53:25.676Z</time>
      </trkpt>
      <trkpt lat="47.03029" lon="15.45473">
        <ele>337.383367</ele>
        <time>2022-08-06T18:53:49.495Z</time>
      </trkpt>
      <trkpt lat="47.03033" lon="15.45491">
        <ele>337.390788</ele>
        <time>2022-08-06T18:53:53.175Z</time>
      </trkpt>
      <trkpt lat="47.03053" lon="15.45592">
        <ele>337.434423</ele>
        <time>2022-08-06T18:54:12.275Z</time>
      </trkpt>
      <trkpt lat="47.03056" lon="15.45604">
        <ele>337.439583</ele>
        <time>2022-08-06T18:54:14.422Z</time>
      </trkpt>
      <trkpt lat="47.03062" lon="15.4563">
        <ele>337.457371</ele>
        <time>2022-08-06T18:54:19.014Z</time>
      </trkpt>
      <trkpt lat="47.0308" lon="15.45713">
        <ele>337.568438</ele>
        <time>2022-08-06T18:54:34.963Z</time>
      </trkpt>
      <trkpt lat="47.03007" lon="15.45743">
        <ele>337.70961</ele>
        <time>2022-08-06T18:54:56.378Z</time>
      </trkpt>
      <trkpt lat="47.02972" lon="15.45742">
        <ele>337.77648</ele>
        <time>2022-08-06T18:55:06.355Z</time>
      </trkpt>
      <trkpt lat="47.02987" lon="15.45839">
        <ele>338.173849</ele>
        <time>2022-08-06T18:55:25.319Z</time>
      </trkpt>
      <trkpt lat="47.03039" lon="15.46103">
        <ele>339.39481</ele>
        <time>2022-08-06T18:56:22.656Z</time>
      </trkpt>
      <trkpt lat="47.03066" lon="15.46112">
        <ele>339.59402</ele>
        <time>2022-08-06T18:56:30.423Z</time>
      </trkpt>
      <trkpt lat="47.03077" lon="15.46116">
        <ele>339.669793</ele>
        <time>2022-08-06T18:56:33.433Z</time>
      </trkpt>
      <trkpt lat="47.03072" lon="15.46132">
        <ele>339.755559</ele>
        <time>2022-08-06T18:56:37.047Z</time>
      </trkpt>
      <trkpt lat="47.03077" lon="15.46164">
        <ele>339.917611</ele>
        <time>2022-08-06T18:56:43.626Z</time>
      </trkpt>
      <trkpt lat="47.03074" lon="15.46176">
        <ele>339.980358</ele>
        <time>2022-08-06T18:56:46.454Z</time>
      </trkpt>
      <trkpt lat="47.03061" lon="15.46212">
        <ele>340.175402</ele>
        <time>2022-08-06T18:56:54.843Z</time>
      </trkpt>
      <trkpt lat="47.03049" lon="15.46256">
        <ele>340.486781</ele>
        <time>2022-08-06T18:57:04.997Z</time>
      </trkpt>
      <trkpt lat="47.03041" lon="15.46311">
        <ele>340.860927</ele>
        <time>2022-08-06T18:57:17.336Z</time>
      </trkpt>
      <trkpt lat="47.03037" lon="15.46428">
        <ele>341.635701</ele>
        <time>2022-08-06T18:57:42.472Z</time>
      </trkpt>
      <trkpt lat="47.03032" lon="15.46455">
        <ele>341.817124</ele>
        <time>2022-08-06T18:57:47.990Z</time>
      </trkpt>
      <trkpt lat="47.03035" lon="15.46494">
        <ele>341.986726</ele>
        <time>2022-08-06T18:57:56.542Z</time>
      </trkpt>
      <trkpt lat="47.03042" lon="15.46508">
        <ele>342.040603</ele>
        <time>2022-08-06T18:58:00.269Z</time>
      </trkpt>
      <trkpt lat="47.03054" lon="15.46511">
        <ele>342.096206</ele>
        <time>2022-08-06T18:58:04.631Z</time>
      </trkpt>
      <trkpt lat="47.03056" lon="15.46519">
        <ele>342.120087</ele>
        <time>2022-08-06T18:58:06.307Z</time>
      </trkpt>
      <trkpt lat="47.03058" lon="15.46527">
        <ele>342.147404</ele>
        <time>2022-08-06T18:58:08.215Z</time>
      </trkpt>
      <trkpt lat="47.03058" lon="15.46531">
        <ele>342.159577</ele>
        <time>2022-08-06T18:58:09.045Z</time>
      </trkpt>
      <trkpt lat="47.03059" lon="15.46533">
        <ele>342.165291</ele>
        <time>2022-08-06T18:58:09.429Z</time>
      </trkpt>
      <trkpt lat="47.03051" lon="15.4655">
        <ele>342.226428</ele>
        <time>2022-08-06T18:58:13.930Z</time>
      </trkpt>
      <trkpt lat="47.03074" lon="15.46752">
        <ele>342.60351</ele>
        <time>2022-08-06T18:58:51.851Z</time>
      </trkpt>
      <trkpt lat="47.03086" lon="15.46894">
        <ele>342.262688</ele>
        <time>2022-08-06T18:59:15.298Z</time>
      </trkpt>
      <trkpt lat="47.03106" lon="15.47053">
        <ele>342.087078</ele>
        <time>2022-08-06T18:59:43.457Z</time>
      </trkpt>
      <trkpt lat="47.03111" lon="15.47063">
        <ele>342.088276</ele>
        <time>2022-08-06T18:59:45.844Z</time>
      </trkpt>
      <trkpt lat="47.03112" lon="15.47072">
        <ele>342.089113</ele>
        <time>2022-08-06T18:59:47.510Z</time>
      </trkpt>
      <trkpt lat="47.03114" lon="15.47087">
        <ele>342.09047</ele>
        <time>2022-08-06T18:59:50.246Z</time>
      </trkpt>
      <trkpt lat="47.03136" lon="15.47241">
        <ele>342.118975</ele>
        <time>2022-08-06T19:00:20.061Z</time>
      </trkpt>
      <trkpt lat="47.03168" lon="15.47371">
        <ele>342.257338</ele>
        <time>2022-08-06T19:00:46.474Z</time>
      </trkpt>
      <trkpt lat="47.03193" lon="15.47446">
        <ele>342.340615</ele>
        <time>2022-08-06T19:01:01.663Z</time>
      </trkpt>
      <trkpt lat="47.03246" lon="15.4758">
        <ele>342.410161</ele>
        <time>2022-08-06T19:01:29.279Z</time>
      </trkpt>
      <trkpt lat="47.03328" lon="15.4775">
        <ele>342.902585</ele>
        <time>2022-08-06T19:02:08.107Z</time>
      </trkpt>
      <trkpt lat="47.0333" lon="15.47754">
        <ele>342.932765</ele>
        <time>2022-08-06T19:02:09.108Z</time>
      </trkpt>
      <trkpt lat="47.03345" lon="15.47783">
        <ele>343.160358</ele>
        <time>2022-08-06T19:02:16.776Z</time>
      </trkpt>
      <trkpt lat="47.03374" lon="15.47838">
        <ele>343.58634</ele>
        <time>2022-08-06T19:02:31.817Z</time>
      </trkpt>
      <trkpt lat="47.0339" lon="15.47854">
        <ele>343.76155</ele>
        <time>2022-08-06T19:02:38.252Z</time>
      </trkpt>
      <trkpt lat="47.03389" lon="15.47857">
        <ele>343.78262</ele>
        <time>2022-08-06T19:02:39.066Z</time>
      </trkpt>
      <trkpt lat="47.03388" lon="15.47862">
        <ele>343.813926</ele>
        <time>2022-08-06T19:02:40.266Z</time>
      </trkpt>
      <trkpt lat="47.03393" lon="15.47874">
        <ele>343.894412</ele>
        <time>2022-08-06T19:02:43.254Z</time>
      </trkpt>
      <trkpt lat="47.0339" lon="15.47877">
        <ele>343.928795</ele>
        <time>2022-08-06T19:02:44.572Z</time>
      </trkpt>
      <trkpt lat="47.03385" lon="15.47884">
        <ele>343.988743</ele>
        <time>2022-08-06T19:02:46.808Z</time>
      </trkpt>
      <trkpt lat="47.03379" lon="15.47889">
        <ele>344.047865</ele>
        <time>2022-08-06T19:02:49.098Z</time>
      </trkpt>
      <trkpt lat="47.03378" lon="15.47891">
        <ele>344.065391</ele>
        <time>2022-08-06T19:02:49.754Z</time>
      </trkpt>
      <trkpt lat="47.03373" lon="15.4791">
        <ele>344.232404</ele>
        <time>2022-08-06T19:02:54.467Z</time>
      </trkpt>
      <trkpt lat="47.0337" lon="15.47914">
        <ele>344.290061</ele>
        <time>2022-08-06T19:02:56.028Z</time>
      </trkpt>
      <trkpt lat="47.03378" lon="15.47923">
        <ele>344.420095</ele>
        <time>2022-08-06T19:02:59.497Z</time>
      </trkpt>
      <trkpt lat="47.03383" lon="15.47947">
        <ele>344.632336</ele>
        <time>2022-08-06T19:03:05.269Z</time>
      </trkpt>
      <trkpt lat="47.03421" lon="15.48011">
        <ele>345.376544</ele>
        <time>2022-08-06T19:03:24.949Z</time>
      </trkpt>
      <trkpt lat="47.03429" lon="15.48066">
        <ele>345.867357</ele>
        <time>2022-08-06T19:03:37.857Z</time>
      </trkpt>
      <trkpt lat="47.03422" lon="15.48111">
        <ele>346.275639</ele>
        <time>2022-08-06T19:03:48.277Z</time>
      </trkpt>
      <trkpt lat="47.03332" lon="15.48407">
        <ele>347.14561</ele>
        <time>2022-08-06T19:04:48.631Z</time>
      </trkpt>
      <trkpt lat="47.033" lon="15.48472">
        <ele>347.543442</ele>
        <time>2022-08-06T19:05:05.218Z</time>
      </trkpt>
      <trkpt lat="47.03293" lon="15.48499">
        <ele>347.686596</ele>
        <time>2022-08-06T19:05:11.588Z</time>
      </trkpt>
      <trkpt lat="47.03268" lon="15.48585">
        <ele>348.149206</ele>
        <time>2022-08-06T19:05:32.103Z</time>
      </trkpt>
      <trkpt lat="47.03252" lon="15.48624">
        <ele>348.278293</ele>
        <time>2022-08-06T19:05:41.785Z</time>
      </trkpt>
      <trkpt lat="47.03221" lon="15.48687">
        <ele>348.414589</ele>
        <time>2022-08-06T19:05:56.554Z</time>
      </trkpt>
      <trkpt lat="47.03211" lon="15.48708">
        <ele>348.460264</ele>
        <time>2022-08-06T19:06:01.837Z</time>
      </trkpt>
      <trkpt lat="47.03155" lon="15.48883">
        <ele>348.492555</ele>
        <time>2022-08-06T19:06:36.558Z</time>
      </trkpt>
      <trkpt lat="47.03104" lon="15.49064">
        <ele>347.894875</ele>
        <time>2022-08-06T19:07:08.087Z</time>
      </trkpt>
      <trkpt lat="47.03093" lon="15.49146">
        <ele>348.339966</ele>
        <time>2022-08-06T19:07:23.904Z</time>
      </trkpt>
      <trkpt lat="47.03064" lon="15.4925">
        <ele>348.988216</ele>
        <time>2022-08-06T19:07:48.520Z</time>
      </trkpt>
      <trkpt lat="47.03019" lon="15.49327">
        <ele>349.671336</ele>
        <time>2022-08-06T19:08:12.144Z</time>
      </trkpt>
      <trkpt lat="47.03017" lon="15.49421">
        <ele>350.526583</ele>
        <time>2022-08-06T19:08:33.804Z</time>
      </trkpt>
      <trkpt lat="47.02994" lon="15.49545">
        <ele>351.701502</ele>
        <time>2022-08-06T19:09:03.165Z</time>
      </trkpt>
      <trkpt lat="47.02985" lon="15.49549">
        <ele>351.812426</ele>
        <time>2022-08-06T19:09:06.092Z</time>
      </trkpt>
      <trkpt lat="47.02969" lon="15.49557">
        <ele>351.822901</ele>
        <time>2022-08-06T19:09:11.521Z</time>
      </trkpt>
      <trkpt lat="47.02933" lon="15.49567">
        <ele>351.844516</ele>
        <time>2022-08-06T19:09:21.694Z</time>
      </trkpt>
      <trkpt lat="47.02923" lon="15.49571">
        <ele>351.851171</ele>
        <time>2022-08-06T19:09:24.580Z</time>
      </trkpt>
      <trkpt lat="47.02892" lon="15.49586">
        <ele>351.870792</ele>
        <time>2022-08-06T19:09:32.814Z</time>
      </trkpt>
      <trkpt lat="47.02884" lon="15.49593">
        <ele>351.87612</ele>
        <time>2022-08-06T19:09:35.058Z</time>
      </trkpt>
      <trkpt lat="47.02851" lon="15.49621">
        <ele>351.89904</ele>
        <time>2022-08-06T19:09:45.197Z</time>
      </trkpt>
      <trkpt lat="47.0285" lon="15.49622">
        <ele>351.899996</ele>
        <time>2022-08-06T19:09:45.639Z</time>
      </trkpt>
      <trkpt lat="47.02826" lon="15.49642">
        <ele>351.916639</ele>
        <time>2022-08-06T19:09:52.841Z</time>
      </trkpt>
      <trkpt lat="47.02824" lon="15.49643">
        <ele>351.917688</ele>
        <time>2022-08-06T19:09:53.304Z</time>
      </trkpt>
      <trkpt lat="47.02791" lon="15.49668">
        <ele>351.846857</ele>
        <time>2022-08-06T19:10:03.133Z</time>
      </trkpt>
      <trkpt lat="47.02783" lon="15.49674">
        <ele>351.828427</ele>
        <time>2022-08-06T19:10:05.361Z</time>
      </trkpt>
      <trkpt lat="47.02787" lon="15.49695">
        <ele>351.796595</ele>
        <time>2022-08-06T19:10:08.906Z</time>
      </trkpt>
      <trkpt lat="47.02807" lon="15.49792">
        <ele>351.643803</ele>
        <time>2022-08-06T19:10:26.381Z</time>
      </trkpt>
      <trkpt lat="47.02815" lon="15.49823">
        <ele>351.594681</ele>
        <time>2022-08-06T19:10:32.117Z</time>
      </trkpt>
      <trkpt lat="47.02832" lon="15.49883">
        <ele>351.558746</ele>
        <time>2022-08-06T19:10:44.504Z</time>
      </trkpt>
      <trkpt lat="47.02843" lon="15.49904">
        <ele>351.608107</ele>
        <time>2022-08-06T19:10:49.658Z</time>
      </trkpt>
      <trkpt lat="47.02845" lon="15.4992">
        <ele>351.636609</ele>
        <time>2022-08-06T19:10:52.887Z</time>
      </trkpt>
      <trkpt lat="47.02848" lon="15.49943">
        <ele>351.679593</ele>
        <time>2022-08-06T19:10:57.416Z</time>
      </trkpt>
      <trkpt lat="47.02848" lon="15.49951">
        <ele>351.693177</ele>
        <time>2022-08-06T19:10:58.735Z</time>
      </trkpt>
      <trkpt lat="47.02909" lon="15.50039">
        <ele>351.921755</ele>
        <time>2022-08-06T19:11:22.317Z</time>
      </trkpt>
      <trkpt lat="47.02937" lon="15.50081">
        <ele>352.071417</ele>
        <time>2022-08-06T19:11:33.755Z</time>
      </trkpt>
      <trkpt lat="47.02946" lon="15.50099">
        <ele>352.177008</ele>
        <time>2022-08-06T19:11:37.971Z</time>
      </trkpt>
      <trkpt lat="47.02959" lon="15.50129">
        <ele>352.359621</ele>
        <time>2022-08-06T19:11:45.511Z</time>
      </trkpt>
      <trkpt lat="47.02966" lon="15.50157">
        <ele>352.506666</ele>
        <time>2022-08-06T19:11:51.681Z</time>
      </trkpt>
      <trkpt lat="47.02977" lon="15.50173">
        <ele>352.622454</ele>
        <time>2022-08-06T19:11:56.416Z</time>
      </trkpt>
      <trkpt lat="47.03042" lon="15.50237">
        <ele>353.194836</ele>
        <time>2022-08-06T19:12:20.229Z</time>
      </trkpt>
      <trkpt lat="47.03061" lon="15.50256">
        <ele>353.373304</ele>
        <time>2022-08-06T19:12:27.564Z</time>
      </trkpt>
      <trkpt lat="47.03147" lon="15.50333">
        <ele>354.234537</ele>
        <time>2022-08-06T19:12:58.852Z</time>
      </trkpt>
      <trkpt lat="47.03167" lon="15.50362">
        <ele>354.475586</ele>
        <time>2022-08-06T19:13:07.582Z</time>
      </trkpt>
      <trkpt lat="47.03184" lon="15.50392">
        <ele>354.699064</ele>
        <time>2022-08-06T19:13:15.768Z</time>
      </trkpt>
      <trkpt lat="47.03194" lon="15.50398">
        <ele>354.794146</ele>
        <time>2022-08-06T19:13:19.153Z</time>
      </trkpt>
      <trkpt lat="47.0328" lon="15.50454">
        <ele>355.54934</ele>
        <time>2022-08-06T19:13:46.854Z</time>
      </trkpt>
      <trkpt lat="47.03315" lon="15.50485">
        <ele>355.883054</ele>
        <time>2022-08-06T19:13:59.156Z</time>
      </trkpt>
      <trkpt lat="47.03322" lon="15.50483">
        <ele>355.932942</ele>
        <time>2022-08-06T19:14:01.020Z</time>
      </trkpt>
      <trkpt lat="47.03336" lon="15.50481">
        <ele>356.052107</ele>
        <time>2022-08-06T19:14:05.728Z</time>
      </trkpt>
      <trkpt lat="47.03345" lon="15.50484">
        <ele>356.123111</ele>
        <time>2022-08-06T19:14:08.521Z</time>
      </trkpt>
      <trkpt lat="47.03374" lon="15.5052">
        <ele>356.600876</ele>
        <time>2022-08-06T19:14:20.788Z</time>
      </trkpt>
      <trkpt lat="47.03383" lon="15.50519">
        <ele>356.787342</ele>
        <time>2022-08-06T19:14:24.017Z</time>
      </trkpt>
      <trkpt lat="47.03401" lon="15.50557">
        <ele>357.416454</ele>
        <time>2022-08-06T19:14:34.847Z</time>
      </trkpt>
      <trkpt lat="47.03424" lon="15.50577">
        <ele>357.943759</ele>
        <time>2022-08-06T19:14:44.097Z</time>
      </trkpt>
      <trkpt lat="47.03468" lon="15.5062">
        <ele>358.97932</ele>
        <time>2022-08-06T19:15:02.864Z</time>
      </trkpt>
      <trkpt lat="47.03572" lon="15.50794">
        <ele>363.30571</ele>
        <time>2022-08-06T19:16:06.993Z</time>
      </trkpt>
      <trkpt lat="47.03598" lon="15.50819">
        <ele>364.264644</ele>
        <time>2022-08-06T19:16:20.177Z</time>
      </trkpt>
      <trkpt lat="47.03598" lon="15.50826">
        <ele>364.415129</ele>
        <time>2022-08-06T19:16:22.252Z</time>
      </trkpt>
      <trkpt lat="47.03596" lon="15.50846">
        <ele>364.834316</ele>
        <time>2022-08-06T19:16:29.595Z</time>
      </trkpt>
      <trkpt lat="47.03594" lon="15.50856">
        <ele>365.063478</ele>
        <time>2022-08-06T19:16:33.089Z</time>
      </trkpt>
      <trkpt lat="47.03645" lon="15.50885">
        <ele>366.941726</ele>
        <time>2022-08-06T19:16:56.541Z</time>
      </trkpt>
      <trkpt lat="47.03793" lon="15.51066">
        <ele>373.17864</ele>
        <time>2022-08-06T19:18:21.202Z</time>
      </trkpt>
      <trkpt lat="47.03851" lon="15.51135">
        <ele>375.11099</ele>
        <time>2022-08-06T19:18:49.638Z</time>
      </trkpt>
      <trkpt lat="47.03943" lon="15.5127">
        <ele>377.625436</ele>
        <time>2022-08-06T19:19:34.442Z</time>
      </trkpt>
      <trkpt lat="47.03957" lon="15.51297">
        <ele>377.983783</ele>
        <time>2022-08-06T19:19:41.189Z</time>
      </trkpt>
      <trkpt lat="47.03977" lon="15.51346">
        <ele>378.599305</ele>
        <time>2022-08-06T19:19:54.973Z</time>
      </trkpt>
      <trkpt lat="47.04043" lon="15.51466">
        <ele>380.354837</ele>
        <time>2022-08-06T19:20:32.061Z</time>
      </trkpt>
      <trkpt lat="47.04066" lon="15.51511">
        <ele>381.003221</ele>
        <time>2022-08-06T19:20:47.151Z</time>
      </trkpt>
      <trkpt lat="47.04105" lon="15.51587">
        <ele>382.123116</ele>
        <time>2022-08-06T19:21:09.976Z</time>
      </trkpt>
      <trkpt lat="47.04131" lon="15.51662">
        <ele>381.84104</ele>
        <time>2022-08-06T19:21:26.745Z</time>
      </trkpt>
      <trkpt lat="47.04155" lon="15.51744">
        <ele>381.387621</ele>
        <time>2022-08-06T19:21:40.384Z</time>
      </trkpt>
      <trkpt lat="47.0417" lon="15.51779">
        <ele>381.173415</ele>
        <time>2022-08-06T19:21:46.448Z</time>
      </trkpt>
      <trkpt lat="47.04186" lon="15.51832">
        <ele>380.874526</ele>
        <time>2022-08-06T19:21:55.210Z</time>
      </trkpt>
      <trkpt lat="47.0421" lon="15.51916">
        <ele>379.422992</ele>
        <time>2022-08-06T19:22:08.342Z</time>
      </trkpt>
      <trkpt lat="47.0422" lon="15.51956">
        <ele>378.734899</ele>
        <time>2022-08-06T19:22:14.233Z</time>
      </trkpt>
      <trkpt lat="47.04235" lon="15.51994">
        <ele>378.032736</ele>
        <time>2022-08-06T19:22:20.165Z</time>
      </trkpt>
      <trkpt lat="47.04252" lon="15.5205">
        <ele>377.043485</ele>
        <time>2022-08-06T19:22:28.617Z</time>
      </trkpt>
      <trkpt lat="47.04259" lon="15.52115">
        <ele>376.071015</ele>
        <time>2022-08-06T19:22:37.664Z</time>
      </trkpt>
      <trkpt lat="47.0427" lon="15.5218">
        <ele>375.117344</ele>
        <time>2022-08-06T19:22:47.176Z</time>
      </trkpt>
      <trkpt lat="47.04281" lon="15.52226">
        <ele>374.425196</ele>
        <time>2022-08-06T19:22:54.185Z</time>
      </trkpt>
      <trkpt lat="47.04281" lon="15.52267">
        <ele>373.834555</ele>
        <time>2022-08-06T19:23:00.547Z</time>
      </trkpt>
      <trkpt lat="47.04286" lon="15.52266">
        <ele>373.719488</ele>
        <time>2022-08-06T19:23:01.602Z</time>
      </trkpt>
      <trkpt lat="47.04297" lon="15.52261">
        <ele>373.490774</ele>
        <time>2022-08-06T19:23:04.820Z</time>
      </trkpt>
      <trkpt lat="47.04308" lon="15.52258">
        <ele>373.256854</ele>
        <time>2022-08-06T19:23:08.201Z</time>
      </trkpt>
      <trkpt lat="47.04396" lon="15.52224">
        <ele>372.552932</ele>
        <time>2022-08-06T19:23:27.517Z</time>
      </trkpt>
      <trkpt lat="47.04401" lon="15.52227">
        <ele>372.525327</ele>
        <time>2022-08-06T19:23:29.224Z</time>
      </trkpt>
      <trkpt lat="47.04466" lon="15.52204">
        <ele>372.214016</ele>
        <time>2022-08-06T19:23:47.110Z</time>
      </trkpt>
      <trkpt lat="47.04542" lon="15.52171">
        <ele>372.360073</ele>
        <time>2022-08-06T19:24:12.636Z</time>
      </trkpt>
      <trkpt lat="47.04541" lon="15.52169">
        <ele>372.368623</ele>
        <time>2022-08-06T19:24:13.019Z</time>
      </trkpt>
      <trkpt lat="47.04545" lon="15.52167">
        <ele>372.396469</ele>
        <time>2022-08-06T19:24:14.338Z</time>
      </trkpt>
      <trkpt lat="47.0456" lon="15.52224">
        <ele>372.676037</ele>
        <time>2022-08-06T19:24:26.618Z</time>
      </trkpt>
      <trkpt lat="47.04583" lon="15.52307">
        <ele>373.090205</ele>
        <time>2022-08-06T19:24:44.369Z</time>
      </trkpt>
      <trkpt lat="47.04588" lon="15.52322">
        <ele>373.167659</ele>
        <time>2022-08-06T19:24:47.815Z</time>
      </trkpt>
      <trkpt lat="47.04599" lon="15.52365">
        <ele>373.386345</ele>
        <time>2022-08-06T19:24:57.108Z</time>
      </trkpt>
      <trkpt lat="47.04604" lon="15.52376">
        <ele>373.447764</ele>
        <time>2022-08-06T19:24:59.720Z</time>
      </trkpt>
      <trkpt lat="47.046" lon="15.52379">
        <ele>373.477267</ele>
        <time>2022-08-06T19:25:00.881Z</time>
      </trkpt>
      <trkpt lat="47.0461" lon="15.5241">
        <ele>373.63968</ele>
        <time>2022-08-06T19:25:07.725Z</time>
      </trkpt>
      <trkpt lat="47.04616" lon="15.52427">
        <ele>373.733847</ele>
        <time>2022-08-06T19:25:11.521Z</time>
      </trkpt>
      <trkpt lat="47.04641" lon="15.52486">
        <ele>374.063275</ele>
        <time>2022-08-06T19:25:25.564Z</time>
      </trkpt>
      <trkpt lat="47.047" lon="15.52595">
        <ele>374.954292</ele>
        <time>2022-08-06T19:25:54.821Z</time>
      </trkpt>
      <trkpt lat="47.04756" lon="15.52695">
        <ele>376.278364</ele>
        <time>2022-08-06T19:26:24.459Z</time>
      </trkpt>
      <trkpt lat="47.04761" lon="15.52701">
        <ele>376.376451</ele>
        <time>2022-08-06T19:26:26.746Z</time>
      </trkpt>
      <trkpt lat="47.04833" lon="15.52792">
        <ele>378.218021</ele>
        <time>2022-08-06T19:27:00.902Z</time>
      </trkpt>
      <trkpt lat="47.04881" lon="15.52838">
        <ele>379.683131</ele>
        <time>2022-08-06T19:27:22.605Z</time>
      </trkpt>
      <trkpt lat="47.04933" lon="15.52868">
        <ele>381.121997</ele>
        <time>2022-08-06T19:27:45.048Z</time>
      </trkpt>
      <trkpt lat="47.04938" lon="15.5287">
        <ele>381.269584</ele>
        <time>2022-08-06T19:27:47.444Z</time>
      </trkpt>
      <trkpt lat="47.04976" lon="15.52879">
        <ele>382.290302</ele>
        <time>2022-08-06T19:28:03.655Z</time>
      </trkpt>
      <trkpt lat="47.05024" lon="15.52878">
        <ele>383.635308</ele>
        <time>2022-08-06T19:28:24.068Z</time>
      </trkpt>
      <trkpt lat="47.05069" lon="15.52877">
        <ele>384.871707</ele>
        <time>2022-08-06T19:28:42.478Z</time>
      </trkpt>
      <trkpt lat="47.0511" lon="15.52867">
        <ele>386.037189</ele>
        <time>2022-08-06T19:28:59.207Z</time>
      </trkpt>
      <trkpt lat="47.05195" lon="15.52848">
        <ele>387.480464</ele>
        <time>2022-08-06T19:29:30.313Z</time>
      </trkpt>
      <trkpt lat="47.0522" lon="15.5285">
        <ele>387.751828</ele>
        <time>2022-08-06T19:29:38.530Z</time>
      </trkpt>
      <trkpt lat="47.05281" lon="15.52873">
        <ele>388.417708</ele>
        <time>2022-08-06T19:29:56.750Z</time>
      </trkpt>
      <trkpt lat="47.05295" lon="15.52881">
        <ele>388.583792</ele>
        <time>2022-08-06T19:30:01.112Z</time>
      </trkpt>
      <trkpt lat="47.05327" lon="15.52899">
        <ele>388.916741</ele>
        <time>2022-08-06T19:30:10.546Z</time>
      </trkpt>
      <trkpt lat="47.05335" lon="15.52905">
        <ele>388.989864</ele>
        <time>2022-08-06T19:30:13.014Z</time>
      </trkpt>
      <trkpt lat="47.05393" lon="15.52944">
        <ele>389.527575</ele>
        <time>2022-08-06T19:30:31.495Z</time>
      </trkpt>
      <trkpt lat="47.05406" lon="15.52951">
        <ele>389.63834</ele>
        <time>2022-08-06T19:30:35.463Z</time>
      </trkpt>
      <trkpt lat="47.0545" lon="15.52972">
        <ele>390.02778</ele>
        <time>2022-08-06T19:30:50.431Z</time>
      </trkpt>
      <trkpt lat="47.05494" lon="15.52994">
        <ele>390.41929</ele>
        <time>2022-08-06T19:31:06.435Z</time>
      </trkpt>
      <trkpt lat="47.05535" lon="15.53019">
        <ele>390.826248</ele>
        <time>2022-08-06T19:31:21.922Z</time>
      </trkpt>
      <trkpt lat="47.05576" lon="15.5305">
        <ele>391.244282</ele>
        <time>2022-08-06T19:31:36.830Z</time>
      </trkpt>
      <trkpt lat="47.05597" lon="15.53065">
        <ele>391.453298</ele>
        <time>2022-08-06T19:31:43.931Z</time>
      </trkpt>
      <trkpt lat="47.05628" lon="15.53095">
        <ele>391.790697</ele>
        <time>2022-08-06T19:31:54.305Z</time>
      </trkpt>
      <trkpt lat="47.05634" lon="15.53105">
        <ele>391.876909</ele>
        <time>2022-08-06T19:31:56.773Z</time>
      </trkpt>
      <trkpt lat="47.05653" lon="15.53167">
        <ele>391.877052</ele>
        <time>2022-08-06T19:32:08.536Z</time>
      </trkpt>
      <trkpt lat="47.05672" lon="15.53242">
        <ele>391.789694</ele>
        <time>2022-08-06T19:32:22.260Z</time>
      </trkpt>
      <trkpt lat="47.05675" lon="15.53257">
        <ele>391.772584</ele>
        <time>2022-08-06T19:32:24.933Z</time>
      </trkpt>
      <trkpt lat="47.05683" lon="15.53286">
        <ele>391.738148</ele>
        <time>2022-08-06T19:32:30.322Z</time>
      </trkpt>
      <trkpt lat="47.05687" lon="15.53303">
        <ele>391.718133</ele>
        <time>2022-08-06T19:32:33.523Z</time>
      </trkpt>
      <trkpt lat="47.05699" lon="15.53355">
        <ele>391.658402</ele>
        <time>2022-08-06T19:32:43.002Z</time>
      </trkpt>
      <trkpt lat="47.05699" lon="15.53357">
        <ele>391.656112</ele>
        <time>2022-08-06T19:32:43.390Z</time>
      </trkpt>
      <trkpt lat="47.05706" lon="15.53386">
        <ele>391.75208</ele>
        <time>2022-08-06T19:32:49.117Z</time>
      </trkpt>
      <trkpt lat="47.05714" lon="15.53424">
        <ele>391.904757</ele>
        <time>2022-08-06T19:32:56.840Z</time>
      </trkpt>
      <trkpt lat="47.05729" lon="15.53477">
        <ele>392.128001</ele>
        <time>2022-08-06T19:33:08.517Z</time>
      </trkpt>
      <trkpt lat="47.05734" lon="15.53496">
        <ele>392.206704</ele>
        <time>2022-08-06T19:33:12.710Z</time>
      </trkpt>
      <trkpt lat="47.05738" lon="15.53514">
        <ele>392.280194</ele>
        <time>2022-08-06T19:33:16.782Z</time>
      </trkpt>
      <trkpt lat="47.05748" lon="15.53566">
        <ele>392.488972</ele>
        <time>2022-08-06T19:33:28.232Z</time>
      </trkpt>
      <trkpt lat="47.0575" lon="15.53585">
        <ele>392.56541</ele>
        <time>2022-08-06T19:33:32.336Z</time>
      </trkpt>
      <trkpt lat="47.0575" lon="15.53587">
        <ele>392.572107</ele>
        <time>2022-08-06T19:33:32.677Z</time>
      </trkpt>
      <trkpt lat="47.05754" lon="15.53635">
        <ele>392.676964</ele>
        <time>2022-08-06T19:33:42.751Z</time>
      </trkpt>
      <trkpt lat="47.05757" lon="15.53674">
        <ele>392.67981</ele>
        <time>2022-08-06T19:33:50.614Z</time>
      </trkpt>
      <trkpt lat="47.05759" lon="15.53691">
        <ele>392.680982</ele>
        <time>2022-08-06T19:33:53.750Z</time>
      </trkpt>
      <trkpt lat="47.05759" lon="15.53703">
        <ele>392.681884</ele>
        <time>2022-08-06T19:33:56.028Z</time>
      </trkpt>
      <trkpt lat="47.05763" lon="15.53761">
        <ele>392.686062</ele>
        <time>2022-08-06T19:34:06.522Z</time>
      </trkpt>
      <trkpt lat="47.05766" lon="15.53815">
        <ele>392.689924</ele>
        <time>2022-08-06T19:34:15.651Z</time>
      </trkpt>
      <trkpt lat="47.05769" lon="15.53862">
        <ele>392.693273</ele>
        <time>2022-08-06T19:34:23.530Z</time>
      </trkpt>
      <trkpt lat="47.05775" lon="15.53956">
        <ele>392.954576</ele>
        <time>2022-08-06T19:34:39.850Z</time>
      </trkpt>
      <trkpt lat="47.05775" lon="15.53963">
        <ele>392.974964</ele>
        <time>2022-08-06T19:34:40.920Z</time>
      </trkpt>
      <trkpt lat="47.05779" lon="15.53994">
        <ele>393.077139</ele>
        <time>2022-08-06T19:34:46.719Z</time>
      </trkpt>
      <trkpt lat="47.05784" lon="15.54022">
        <ele>393.172148</ele>
        <time>2022-08-06T19:34:52.162Z</time>
      </trkpt>
      <trkpt lat="47.05801" lon="15.54064">
        <ele>393.32894</ele>
        <time>2022-08-06T19:35:02.702Z</time>
      </trkpt>
      <trkpt lat="47.05808" lon="15.54074">
        <ele>393.375778</ele>
        <time>2022-08-06T19:35:05.997Z</time>
      </trkpt>
      <trkpt lat="47.05827" lon="15.54103">
        <ele>393.502261</ele>
        <time>2022-08-06T19:35:14.944Z</time>
      </trkpt>
      <trkpt lat="47.05859" lon="15.54146">
        <ele>394.117265</ele>
        <time>2022-08-06T19:35:29.609Z</time>
      </trkpt>
      <trkpt lat="47.05887" lon="15.54168">
        <ele>394.644583</ele>
        <time>2022-08-06T19:35:40.466Z</time>
      </trkpt>
      <trkpt lat="47.05915" lon="15.54195">
        <ele>395.197078</ele>
        <time>2022-08-06T19:35:52.391Z</time>
      </trkpt>
      <trkpt lat="47.05927" lon="15.54221">
        <ele>395.558215</ele>
        <time>2022-08-06T19:36:00.009Z</time>
      </trkpt>
      <trkpt lat="47.05952" lon="15.54401">
        <ele>397.713082</ele>
        <time>2022-08-06T19:36:43.837Z</time>
      </trkpt>
      <trkpt lat="47.0596" lon="15.54453">
        <ele>398.369213</ele>
        <time>2022-08-06T19:36:56.633Z</time>
      </trkpt>
      <trkpt lat="47.05984" lon="15.54543">
        <ele>399.542233</ele>
        <time>2022-08-06T19:37:19.826Z</time>
      </trkpt>
      <trkpt lat="47.05985" lon="15.54549">
        <ele>399.616085</ele>
        <time>2022-08-06T19:37:21.406Z</time>
      </trkpt>
      <trkpt lat="47.05991" lon="15.54575">
        <ele>399.985733</ele>
        <time>2022-08-06T19:37:28.245Z</time>
      </trkpt>
      <trkpt lat="47.05999" lon="15.54617">
        <ele>400.592324</ele>
        <time>2022-08-06T19:37:38.804Z</time>
      </trkpt>
      <trkpt lat="47.06011" lon="15.54681">
        <ele>401.534882</ele>
        <time>2022-08-06T19:37:55.279Z</time>
      </trkpt>
      <trkpt lat="47.06037" lon="15.54774">
        <ele>402.944761</ele>
        <time>2022-08-06T19:38:21.079Z</time>
      </trkpt>
      <trkpt lat="47.06056" lon="15.54843">
        <ele>403.93698</ele>
        <time>2022-08-06T19:38:39.893Z</time>
      </trkpt>
      <trkpt lat="47.06059" lon="15.54854">
        <ele>404.079228</ele>
        <time>2022-08-06T19:38:42.667Z</time>
      </trkpt>
      <trkpt lat="47.0608" lon="15.5494">
        <ele>405.224241</ele>
        <time>2022-08-06T19:39:04.617Z</time>
      </trkpt>
      <trkpt lat="47.06083" lon="15.54954">
        <ele>405.407238</ele>
        <time>2022-08-06T19:39:08.019Z</time>
      </trkpt>
      <trkpt lat="47.06109" lon="15.55052">
        <ele>406.733261</ele>
        <time>2022-08-06T19:39:32.882Z</time>
      </trkpt>
      <trkpt lat="47.06111" lon="15.55057">
        <ele>406.810857</ele>
        <time>2022-08-06T19:39:34.151Z</time>
      </trkpt>
      <trkpt lat="47.06114" lon="15.55066">
        <ele>406.970521</ele>
        <time>2022-08-06T19:39:36.478Z</time>
      </trkpt>
      <trkpt lat="47.06125" lon="15.55114">
        <ele>407.802302</ele>
        <time>2022-08-06T19:39:48.750Z</time>
      </trkpt>
      <trkpt lat="47.0613" lon="15.55134">
        <ele>408.134539</ele>
        <time>2022-08-06T19:39:53.922Z</time>
      </trkpt>
      <trkpt lat="47.06131" lon="15.5514">
        <ele>408.239375</ele>
        <time>2022-08-06T19:39:55.525Z</time>
      </trkpt>
      <trkpt lat="47.06138" lon="15.55172">
        <ele>408.797532</ele>
        <time>2022-08-06T19:40:04.157Z</time>
      </trkpt>
      <trkpt lat="47.06173" lon="15.55319">
        <ele>411.418137</ele>
        <time>2022-08-06T19:40:46.202Z</time>
      </trkpt>
      <trkpt lat="47.06175" lon="15.55327">
        <ele>411.618614</ele>
        <time>2022-08-06T19:40:48.818Z</time>
      </trkpt>
      <trkpt lat="47.06199" lon="15.55419">
        <ele>413.834763</ele>
        <time>2022-08-06T19:41:17.644Z</time>
      </trkpt>
      <trkpt lat="47.06263" lon="15.55672">
        <ele>419.40367</ele>
        <time>2022-08-06T19:42:36.849Z</time>
      </trkpt>
      <trkpt lat="47.06266" lon="15.55684">
        <ele>419.639811</ele>
        <time>2022-08-06T19:42:40.284Z</time>
      </trkpt>
      <trkpt lat="47.06268" lon="15.55694">
        <ele>419.837767</ele>
        <time>2022-08-06T19:42:43.116Z</time>
      </trkpt>
      <trkpt lat="47.06283" lon="15.55746">
        <ele>420.889484</ele>
        <time>2022-08-06T19:42:57.793Z</time>
      </trkpt>
      <trkpt lat="47.0634" lon="15.55968">
        <ele>424.160946</ele>
        <time>2022-08-06T19:43:53.912Z</time>
      </trkpt>
      <trkpt lat="47.06387" lon="15.56186">
        <ele>427.627014</ele>
        <time>2022-08-06T19:44:50.728Z</time>
      </trkpt>
      <trkpt lat="47.0639" lon="15.56207">
        <ele>427.988486</ele>
        <time>2022-08-06T19:44:57.060Z</time>
      </trkpt>
      <trkpt lat="47.06395" lon="15.56249">
        <ele>428.714314</ele>
        <time>2022-08-06T19:45:08.961Z</time>
      </trkpt>
      <trkpt lat="47.06395" lon="15.5625">
        <ele>428.726371</ele>
        <time>2022-08-06T19:45:09.179Z</time>
      </trkpt>
      <trkpt lat="47.06395" lon="15.56257">
        <ele>428.850053</ele>
        <time>2022-08-06T19:45:11.398Z</time>
      </trkpt>
      <trkpt lat="47.06395" lon="15.56258">
        <ele>428.86211</ele>
        <time>2022-08-06T19:45:11.615Z</time>
      </trkpt>
      <trkpt lat="47.064" lon="15.56438">
        <ele>432.002557</ele>
        <time>2022-08-06T19:46:00.636Z</time>
      </trkpt>
      <trkpt lat="47.06404" lon="15.56598">
        <ele>434.51622</ele>
        <time>2022-08-06T19:46:43.312Z</time>
      </trkpt>
      <trkpt lat="47.06405" lon="15.568">
        <ele>436.189992</ele>
        <time>2022-08-06T19:47:27.032Z</time>
      </trkpt>
      <trkpt lat="47.06406" lon="15.56909">
        <ele>436.708924</ele>
        <time>2022-08-06T19:47:47.774Z</time>
      </trkpt>
      <trkpt lat="47.0641" lon="15.56976">
        <ele>436.932269</ele>
        <time>2022-08-06T19:48:00.563Z</time>
      </trkpt>
      <trkpt lat="47.06425" lon="15.57048">
        <ele>437.186916</ele>
        <time>2022-08-06T19:48:15.000Z</time>
      </trkpt>
      <trkpt lat="47.0643" lon="15.57072">
        <ele>437.268934</ele>
        <time>2022-08-06T19:48:20.330Z</time>
      </trkpt>
      <trkpt lat="47.06495" lon="15.57287">
        <ele>439.260065</ele>
        <time>2022-08-06T19:49:11.520Z</time>
      </trkpt>
      <trkpt lat="47.06496" lon="15.57291">
        <ele>439.29594</ele>
        <time>2022-08-06T19:49:12.528Z</time>
      </trkpt>
      <trkpt lat="47.065" lon="15.57308">
        <ele>439.455419</ele>
        <time>2022-08-06T19:49:16.792Z</time>
      </trkpt>
      <trkpt lat="47.06513" lon="15.57358">
        <ele>440.145562</ele>
        <time>2022-08-06T19:49:30.609Z</time>
      </trkpt>
      <trkpt lat="47.06569" lon="15.57584">
        <ele>443.979064</ele>
        <time>2022-08-06T19:50:32.562Z</time>
      </trkpt>
      <trkpt lat="47.06584" lon="15.57678">
        <ele>445.989806</ele>
        <time>2022-08-06T19:50:59.668Z</time>
      </trkpt>
      <trkpt lat="47.06587" lon="15.57708">
        <ele>446.626414</ele>
        <time>2022-08-06T19:51:08.203Z</time>
      </trkpt>
      <trkpt lat="47.06589" lon="15.57724">
        <ele>446.968239</ele>
        <time>2022-08-06T19:51:12.776Z</time>
      </trkpt>
      <trkpt lat="47.06604" lon="15.57875">
        <ele>450.230897</ele>
        <time>2022-08-06T19:51:57.855Z</time>
      </trkpt>
      <trkpt lat="47.06613" lon="15.57919">
        <ele>451.295442</ele>
        <time>2022-08-06T19:52:11.034Z</time>
      </trkpt>
      <trkpt lat="47.0663" lon="15.57954">
        <ele>452.277979</ele>
        <time>2022-08-06T19:52:22.655Z</time>
      </trkpt>
      <trkpt lat="47.06641" lon="15.57973">
        <ele>452.858787</ele>
        <time>2022-08-06T19:52:30.029Z</time>
      </trkpt>
      <trkpt lat="47.06649" lon="15.57988">
        <ele>453.297413</ele>
        <time>2022-08-06T19:52:35.559Z</time>
      </trkpt>
      <trkpt lat="47.06665" lon="15.58012">
        <ele>454.065859</ele>
        <time>2022-08-06T19:52:45.655Z</time>
      </trkpt>
      <trkpt lat="47.06736" lon="15.58114">
        <ele>457.046257</ele>
        <time>2022-08-06T19:53:29.229Z</time>
      </trkpt>
      <trkpt lat="47.06782" lon="15.58164">
        <ele>458.632004</ele>
        <time>2022-08-06T19:53:50.473Z</time>
      </trkpt>
      <trkpt lat="47.06787" lon="15.58155">
        <ele>458.836304</ele>
        <time>2022-08-06T19:53:52.321Z</time>
      </trkpt>
      <trkpt lat="47.06797" lon="15.58149">
        <ele>459.135157</ele>
        <time>2022-08-06T19:53:57.100Z</time>
      </trkpt>
      <trkpt lat="47.06821" lon="15.58175">
        <ele>459.957404</ele>
        <time>2022-08-06T19:54:08.274Z</time>
      </trkpt>
      <trkpt lat="47.06858" lon="15.58186">
        <ele>461.023257</ele>
        <time>2022-08-06T19:54:23.569Z</time>
      </trkpt>
      <trkpt lat="47.06873" lon="15.58183">
        <ele>461.430784</ele>
        <time>2022-08-06T19:54:29.621Z</time>
      </trkpt>
      <trkpt lat="47.06891" lon="15.58155">
        <ele>462.163521</ele>
        <time>2022-08-06T19:54:41.323Z</time>
      </trkpt>
      <trkpt lat="47.069" lon="15.58152">
        <ele>462.417654</ele>
        <time>2022-08-06T19:54:44.618Z</time>
      </trkpt>
      <trkpt lat="47.06919" lon="15.58163">
        <ele>463.002838</ele>
        <time>2022-08-06T19:54:53.169Z</time>
      </trkpt>
      <trkpt lat="47.06963" lon="15.58159">
        <ele>464.208612</ele>
        <time>2022-08-06T19:55:09.020Z</time>
      </trkpt>
      <trkpt lat="47.06994" lon="15.58141">
        <ele>465.13921</ele>
        <time>2022-08-06T19:55:20.890Z</time>
      </trkpt>
      <trkpt lat="47.07025" lon="15.58136">
        <ele>466.507021</ele>
        <time>2022-08-06T19:55:33.526Z</time>
      </trkpt>
      <trkpt lat="47.07036" lon="15.58116">
        <ele>467.404927</ele>
        <time>2022-08-06T19:55:42.387Z</time>
      </trkpt>
      <trkpt lat="47.07035" lon="15.58086">
        <ele>468.4505</ele>
        <time>2022-08-06T19:55:54.398Z</time>
      </trkpt>
      <trkpt lat="47.06974" lon="15.58006">
        <ele>472.651312</ele>
        <time>2022-08-06T19:56:37.003Z</time>
      </trkpt>
      <trkpt lat="47.06971" lon="15.57996">
        <ele>473.006838</ele>
        <time>2022-08-06T19:56:40.277Z</time>
      </trkpt>
      <trkpt lat="47.06977" lon="15.57986">
        <ele>473.44688</ele>
        <time>2022-08-06T19:56:44.951Z</time>
      </trkpt>
      <trkpt lat="47.07024" lon="15.57994">
        <ele>476.621786</ele>
        <time>2022-08-06T19:57:12.894Z</time>
      </trkpt>
      <trkpt lat="47.07056" lon="15.58008">
        <ele>479.382564</ele>
        <time>2022-08-06T19:57:32.917Z</time>
      </trkpt>
      <trkpt lat="47.0709" lon="15.58004">
        <ele>482.236115</ele>
        <time>2022-08-06T19:57:56.214Z</time>
      </trkpt>
      <trkpt lat="47.07109" lon="15.57997">
        <ele>483.911434</ele>
        <time>2022-08-06T19:58:10.478Z</time>
      </trkpt>
      <trkpt lat="47.0712" lon="15.57985">
        <ele>485.007858</ele>
        <time>2022-08-06T19:58:20.848Z</time>
      </trkpt>
      <trkpt lat="47.0714" lon="15.5794">
        <ele>488.056297</ele>
        <time>2022-08-06T19:58:48.692Z</time>
      </trkpt>
      <trkpt lat="47.07148" lon="15.57888">
        <ele>491.065925</ele>
        <time>2022-08-06T19:59:12.472Z</time>
      </trkpt>
      <trkpt lat="47.07155" lon="15.5784">
        <ele>493.978199</ele>
        <time>2022-08-06T19:59:34.994Z</time>
      </trkpt>
      <trkpt lat="47.07179" lon="15.57808">
        <ele>496.75275</ele>
        <time>2022-08-06T19:59:57.382Z</time>
      </trkpt>
      <trkpt lat="47.07216" lon="15.57759">
        <ele>501.04927</ele>
        <time>2022-08-06T20:00:33.018Z</time>
      </trkpt>
      <trkpt lat="47.07243" lon="15.57736">
        <ele>503.703311</ele>
        <time>2022-08-06T20:00:53.333Z</time>
      </trkpt>
      <trkpt lat="47.07284" lon="15.57716">
        <ele>507.044489</ele>
        <time>2022-08-06T20:01:21.150Z</time>
      </trkpt>
      <trkpt lat="47.07373" lon="15.57684">
        <ele>513.559647</ele>
        <time>2022-08-06T20:02:15.406Z</time>
      </trkpt>
      <trkpt lat="47.07412" lon="15.57693">
        <ele>516.367791</ele>
        <time>2022-08-06T20:02:39.349Z</time>
      </trkpt>
      <trkpt lat="47.07451" lon="15.5772">
        <ele>519.079096</ele>
        <time>2022-08-06T20:03:04.702Z</time>
      </trkpt>
      <trkpt lat="47.07465" lon="15.57768">
        <ele>521.113521</ele>
        <time>2022-08-06T20:03:26.453Z</time>
      </trkpt>
      <trkpt lat="47.07493" lon="15.5779">
        <ele>522.931357</ele>
        <time>2022-08-06T20:03:45.194Z</time>
      </trkpt>
      <trkpt lat="47.07513" lon="15.57833">
        <ele>524.93815</ele>
        <time>2022-08-06T20:04:03.806Z</time>
      </trkpt>
      <trkpt lat="47.07522" lon="15.5786">
        <ele>526.115737</ele>
        <time>2022-08-06T20:04:14.047Z</time>
      </trkpt>
      <trkpt lat="47.07527" lon="15.57937">
        <ele>528.17803</ele>
        <time>2022-08-06T20:04:39.103Z</time>
      </trkpt>
      <trkpt lat="47.07528" lon="15.57983">
        <ele>528.380727</ele>
        <time>2022-08-06T20:04:52.855Z</time>
      </trkpt>
      <trkpt lat="47.07531" lon="15.57995">
        <ele>528.439467</ele>
        <time>2022-08-06T20:04:55.635Z</time>
      </trkpt>
      <trkpt lat="47.07567" lon="15.58129">
        <ele>529.078997</ele>
        <time>2022-08-06T20:05:18.933Z</time>
      </trkpt>
      <trkpt lat="47.07587" lon="15.58177">
        <ele>529.123916</ele>
        <time>2022-08-06T20:05:27.224Z</time>
      </trkpt>
      <trkpt lat="47.07588" lon="15.5818">
        <ele>529.104068</ele>
        <time>2022-08-06T20:05:27.777Z</time>
      </trkpt>
      <trkpt lat="47.07594" lon="15.58211">
        <ele>528.938923</ele>
        <time>2022-08-06T20:05:32.534Z</time>
      </trkpt>
      <trkpt lat="47.07601" lon="15.58247">
        <ele>528.747518</ele>
        <time>2022-08-06T20:05:38.430Z</time>
      </trkpt>
      <trkpt lat="47.07606" lon="15.58273">
        <ele>528.610584</ele>
        <time>2022-08-06T20:05:42.760Z</time>
      </trkpt>
      <trkpt lat="47.07614" lon="15.58311">
        <ele>528.404396</ele>
        <time>2022-08-06T20:05:48.906Z</time>
      </trkpt>
      <trkpt lat="47.07619" lon="15.58339">
        <ele>528.258487</ele>
        <time>2022-08-06T20:05:53.581Z</time>
      </trkpt>
      <trkpt lat="47.07621" lon="15.5835">
        <ele>528.199962</ele>
        <time>2022-08-06T20:05:55.280Z</time>
      </trkpt>
      <trkpt lat="47.07631" lon="15.58415">
        <ele>527.933728</ele>
        <time>2022-08-06T20:06:06.357Z</time>
      </trkpt>
      <trkpt lat="47.07637" lon="15.58419">
        <ele>528.040449</ele>
        <time>2022-08-06T20:06:08.394Z</time>
      </trkpt>
      <trkpt lat="47.07633" lon="15.58434">
        <ele>528.22317</ele>
        <time>2022-08-06T20:06:11.905Z</time>
      </trkpt>
      <trkpt lat="47.07618" lon="15.58482">
        <ele>528.819478</ele>
        <time>2022-08-06T20:06:24.650Z</time>
      </trkpt>
      <trkpt lat="47.07582" lon="15.58546">
        <ele>529.774066</ele>
        <time>2022-08-06T20:06:47.445Z</time>
      </trkpt>
      <trkpt lat="47.07562" lon="15.58598">
        <ele>530.451247</ele>
        <time>2022-08-06T20:07:03.199Z</time>
      </trkpt>
      <trkpt lat="47.07561" lon="15.58605">
        <ele>530.53126</ele>
        <time>2022-08-06T20:07:04.944Z</time>
      </trkpt>
      <trkpt lat="47.07541" lon="15.58701">
        <ele>531.163117</ele>
        <time>2022-08-06T20:07:26.354Z</time>
      </trkpt>
      <trkpt lat="47.07529" lon="15.58816">
        <ele>531.613202</ele>
        <time>2022-08-06T20:07:48.341Z</time>
      </trkpt>
      <trkpt lat="47.07522" lon="15.58871">
        <ele>531.830939</ele>
        <time>2022-08-06T20:07:59.816Z</time>
      </trkpt>
      <trkpt lat="47.07502" lon="15.58986">
        <ele>531.648019</ele>
        <time>2022-08-06T20:08:20.852Z</time>
      </trkpt>
      <trkpt lat="47.07502" lon="15.59018">
        <ele>531.553005</ele>
        <time>2022-08-06T20:08:26.611Z</time>
      </trkpt>
      <trkpt lat="47.07506" lon="15.59055">
        <ele>531.444623</ele>
        <time>2022-08-06T20:08:32.455Z</time>
      </trkpt>
      <trkpt lat="47.07507" lon="15.5907">
        <ele>531.402229</ele>
        <time>2022-08-06T20:08:34.760Z</time>
      </trkpt>
      <trkpt lat="47.07505" lon="15.59117">
        <ele>531.266168</ele>
        <time>2022-08-06T20:08:42.467Z</time>
      </trkpt>
      <trkpt lat="47.0749" lon="15.59156">
        <ele>531.104742</ele>
        <time>2022-08-06T20:08:49.835Z</time>
      </trkpt>
      <trkpt lat="47.07475" lon="15.59172">
        <ele>530.895504</ele>
        <time>2022-08-06T20:08:54.047Z</time>
      </trkpt>
      <trkpt lat="47.07448" lon="15.59184">
        <ele>530.582662</ele>
        <time>2022-08-06T20:09:01.378Z</time>
      </trkpt>
      <trkpt lat="47.0741" lon="15.59194">
        <ele>530.144868</ele>
        <time>2022-08-06T20:09:10.758Z</time>
      </trkpt>
      <trkpt lat="47.07361" lon="15.59202">
        <ele>529.596093</ele>
        <time>2022-08-06T20:09:21.677Z</time>
      </trkpt>
      <trkpt lat="47.07359" lon="15.59221">
        <ele>529.442868</ele>
        <time>2022-08-06T20:09:24.780Z</time>
      </trkpt>
      <trkpt lat="47.07356" lon="15.59245">
        <ele>529.257476</ele>
        <time>2022-08-06T20:09:28.421Z</time>
      </trkpt>
      <trkpt lat="47.07324" lon="15.5929">
        <ele>528.430465</ele>
        <time>2022-08-06T20:09:38.416Z</time>
      </trkpt>
      <trkpt lat="47.07298" lon="15.59338">
        <ele>527.560738</ele>
        <time>2022-08-06T20:09:47.572Z</time>
      </trkpt>
      <trkpt lat="47.07253" lon="15.59384">
        <ele>526.403675</ele>
        <time>2022-08-06T20:09:59.514Z</time>
      </trkpt>
      <trkpt lat="47.07239" lon="15.59431">
        <ele>525.668202</ele>
        <time>2022-08-06T20:10:07.185Z</time>
      </trkpt>
      <trkpt lat="47.07239" lon="15.59548">
        <ele>524.062999</ele>
        <time>2022-08-06T20:10:24.356Z</time>
      </trkpt>
      <trkpt lat="47.0726" lon="15.59647">
        <ele>522.64628</ele>
        <time>2022-08-06T20:10:39.439Z</time>
      </trkpt>
      <trkpt lat="47.07261" lon="15.59673">
        <ele>522.285511</ele>
        <time>2022-08-06T20:10:43.542Z</time>
      </trkpt>
      <trkpt lat="47.07261" lon="15.59749">
        <ele>521.706426</ele>
        <time>2022-08-06T20:10:56.355Z</time>
      </trkpt>
      <trkpt lat="47.07257" lon="15.59789">
        <ele>521.644737</ele>
        <time>2022-08-06T20:11:03.059Z</time>
      </trkpt>
      <trkpt lat="47.07281" lon="15.59929">
        <ele>521.422884</ele>
        <time>2022-08-06T20:11:31.547Z</time>
      </trkpt>
      <trkpt lat="47.07307" lon="15.59962">
        <ele>521.267837</ele>
        <time>2022-08-06T20:11:41.306Z</time>
      </trkpt>
      <trkpt lat="47.07337" lon="15.59976">
        <ele>520.783562</ele>
        <time>2022-08-06T20:11:50.531Z</time>
      </trkpt>
      <trkpt lat="47.07371" lon="15.59977">
        <ele>520.249501</ele>
        <time>2022-08-06T20:12:00.001Z</time>
      </trkpt>
      <trkpt lat="47.0739" lon="15.5999">
        <ele>519.927787</ele>
        <time>2022-08-06T20:12:04.927Z</time>
      </trkpt>
      <trkpt lat="47.07401" lon="15.60013">
        <ele>519.634878</ele>
        <time>2022-08-06T20:12:09.115Z</time>
      </trkpt>
      <trkpt lat="47.07398" lon="15.6015">
        <ele>517.618213</ele>
        <time>2022-08-06T20:12:28.363Z</time>
      </trkpt>
      <trkpt lat="47.07386" lon="15.60222">
        <ele>515.689648</ele>
        <time>2022-08-06T20:12:38.169Z</time>
      </trkpt>
      <trkpt lat="47.07391" lon="15.60304">
        <ele>513.528818</ele>
        <time>2022-08-06T20:12:49.179Z</time>
      </trkpt>
      <trkpt lat="47.07427" lon="15.60407">
        <ele>511.203273</ele>
        <time>2022-08-06T20:13:04.795Z</time>
      </trkpt>
      <trkpt lat="47.07434" lon="15.60438">
        <ele>510.863989</ele>
        <time>2022-08-06T20:13:09.430Z</time>
      </trkpt>
      <trkpt lat="47.07431" lon="15.60445">
        <ele>510.771025</ele>
        <time>2022-08-06T20:13:10.737Z</time>
      </trkpt>
      <trkpt lat="47.07398" lon="15.60466">
        <ele>510.210451</ele>
        <time>2022-08-06T20:13:18.896Z</time>
      </trkpt>
      <trkpt lat="47.0737" lon="15.60497">
        <ele>509.659588</ele>
        <time>2022-08-06T20:13:27.506Z</time>
      </trkpt>
      <trkpt lat="47.07347" lon="15.60548">
        <ele>509.007268</ele>
        <time>2022-08-06T20:13:38.714Z</time>
      </trkpt>
      <trkpt lat="47.07321" lon="15.60677">
        <ele>508.892917</ele>
        <time>2022-08-06T20:14:07.816Z</time>
      </trkpt>
      <trkpt lat="47.07322" lon="15.60718">
        <ele>508.898329</ele>
        <time>2022-08-06T20:14:16.411Z</time>
      </trkpt>
      <trkpt lat="47.07331" lon="15.60759">
        <ele>508.90406</ele>
        <time>2022-08-06T20:14:24.926Z</time>
      </trkpt>
      <trkpt lat="47.07384" lon="15.60884">
        <ele>507.281315</ele>
        <time>2022-08-06T20:14:48.411Z</time>
      </trkpt>
      <trkpt lat="47.074" lon="15.60994">
        <ele>505.234944</ele>
        <time>2022-08-06T20:15:03.756Z</time>
      </trkpt>
      <trkpt lat="47.07417" lon="15.6104">
        <ele>504.293964</ele>
        <time>2022-08-06T20:15:10.884Z</time>
      </trkpt>
      <trkpt lat="47.07421" lon="15.6108">
        <ele>503.780333</ele>
        <time>2022-08-06T20:15:16.647Z</time>
      </trkpt>
      <trkpt lat="47.07419" lon="15.61111">
        <ele>503.455291</ele>
        <time>2022-08-06T20:15:20.919Z</time>
      </trkpt>
      <trkpt lat="47.0741" lon="15.61134">
        <ele>503.165523</ele>
        <time>2022-08-06T20:15:24.738Z</time>
      </trkpt>
      <trkpt lat="47.07342" lon="15.61266">
        <ele>501.415829</ele>
        <time>2022-08-06T20:15:51.554Z</time>
      </trkpt>
      <trkpt lat="47.07315" lon="15.61412">
        <ele>501.557073</ele>
        <time>2022-08-06T20:16:25.583Z</time>
      </trkpt>
      <trkpt lat="47.07312" lon="15.61443">
        <ele>501.614763</ele>
        <time>2022-08-06T20:16:32.282Z</time>
      </trkpt>
      <trkpt lat="47.07316" lon="15.61485">
        <ele>501.69134</ele>
        <time>2022-08-06T20:16:40.279Z</time>
      </trkpt>
      <trkpt lat="47.07323" lon="15.61514">
        <ele>501.74814</ele>
        <time>2022-08-06T20:16:45.977Z</time>
      </trkpt>
      <trkpt lat="47.07359" lon="15.61563">
        <ele>500.904255</ele>
        <time>2022-08-06T20:16:58.195Z</time>
      </trkpt>
      <trkpt lat="47.07379" lon="15.61598">
        <ele>500.140562</ele>
        <time>2022-08-06T20:17:05.587Z</time>
      </trkpt>
      <trkpt lat="47.07403" lon="15.61659">
        <ele>498.966489</ele>
        <time>2022-08-06T20:17:15.743Z</time>
      </trkpt>
      <trkpt lat="47.07464" lon="15.61747">
        <ele>496.557502</ele>
        <time>2022-08-06T20:17:32.893Z</time>
      </trkpt>
      <trkpt lat="47.07487" lon="15.61798">
        <ele>494.949234</ele>
        <time>2022-08-06T20:17:40.645Z</time>
      </trkpt>
      <trkpt lat="47.07489" lon="15.6184">
        <ele>493.825567</ele>
        <time>2022-08-06T20:17:46.044Z</time>
      </trkpt>
      <trkpt lat="47.07484" lon="15.61961">
        <ele>490.59466</ele>
        <time>2022-08-06T20:18:02.556Z</time>
      </trkpt>
      <trkpt lat="47.0749" lon="15.61998">
        <ele>490.257091</ele>
        <time>2022-08-06T20:18:07.890Z</time>
      </trkpt>
      <trkpt lat="47.0751" lon="15.62047">
        <ele>490.08006</ele>
        <time>2022-08-06T20:18:16.902Z</time>
      </trkpt>
      <trkpt lat="47.07523" lon="15.6219">
        <ele>489.628577</ele>
        <time>2022-08-06T20:18:46.297Z</time>
      </trkpt>
      <trkpt lat="47.07543" lon="15.62304">
        <ele>489.15593</ele>
        <time>2022-08-06T20:19:12.741Z</time>
      </trkpt>
      <trkpt lat="47.07541" lon="15.62362">
        <ele>488.90362</ele>
        <time>2022-08-06T20:19:24.164Z</time>
      </trkpt>
      <trkpt lat="47.07491" lon="15.62468">
        <ele>488.17794</ele>
        <time>2022-08-06T20:19:44.233Z</time>
      </trkpt>
      <trkpt lat="47.07482" lon="15.62486">
        <ele>487.480816</ele>
        <time>2022-08-06T20:19:47.356Z</time>
      </trkpt>
      <trkpt lat="47.07481" lon="15.62502">
        <ele>486.988142</ele>
        <time>2022-08-06T20:19:49.538Z</time>
      </trkpt>
      <trkpt lat="47.07493" lon="15.62596">
        <ele>484.087321</ele>
        <time>2022-08-06T20:20:02.161Z</time>
      </trkpt>
      <trkpt lat="47.07498" lon="15.62743">
        <ele>479.265418</ele>
        <time>2022-08-06T20:20:20.954Z</time>
      </trkpt>
      <trkpt lat="47.07487" lon="15.62793">
        <ele>476.934074</ele>
        <time>2022-08-06T20:20:27.547Z</time>
      </trkpt>
      <trkpt lat="47.07469" lon="15.62831">
        <ele>474.852467</ele>
        <time>2022-08-06T20:20:33.427Z</time>
      </trkpt>
      <trkpt lat="47.07447" lon="15.62871">
        <ele>472.544419</ele>
        <time>2022-08-06T20:20:39.961Z</time>
      </trkpt>
      <trkpt lat="47.07441" lon="15.62903">
        <ele>471.104864</ele>
        <time>2022-08-06T20:20:43.938Z</time>
      </trkpt>
      <trkpt lat="47.07444" lon="15.63054">
        <ele>463.292546</ele>
        <time>2022-08-06T20:21:01.985Z</time>
      </trkpt>
      <trkpt lat="47.07452" lon="15.6307">
        <ele>462.180547</ele>
        <time>2022-08-06T20:21:04.324Z</time>
      </trkpt>
      <trkpt lat="47.0758" lon="15.6315">
        <ele>451.6872</ele>
        <time>2022-08-06T20:21:28.845Z</time>
      </trkpt>
      <trkpt lat="47.0759" lon="15.63162">
        <ele>450.985495</ele>
        <time>2022-08-06T20:21:31.129Z</time>
      </trkpt>
      <trkpt lat="47.07598" lon="15.63186">
        <ele>449.962676</ele>
        <time>2022-08-06T20:21:34.386Z</time>
      </trkpt>
      <trkpt lat="47.07597" lon="15.63206">
        <ele>449.181158</ele>
        <time>2022-08-06T20:21:36.975Z</time>
      </trkpt>
      <trkpt lat="47.07579" lon="15.63265">
        <ele>446.738625</ele>
        <time>2022-08-06T20:21:45.208Z</time>
      </trkpt>
      <trkpt lat="47.07559" lon="15.63309">
        <ele>444.745836</ele>
        <time>2022-08-06T20:21:52.346Z</time>
      </trkpt>
      <trkpt lat="47.07542" lon="15.63335">
        <ele>443.640679</ele>
        <time>2022-08-06T20:21:57.521Z</time>
      </trkpt>
      <trkpt lat="47.07499" lon="15.63337">
        <ele>443.050216</ele>
        <time>2022-08-06T20:22:07.616Z</time>
      </trkpt>
      <trkpt lat="47.0748" lon="15.63346">
        <ele>442.779365</ele>
        <time>2022-08-06T20:22:12.630Z</time>
      </trkpt>
      <trkpt lat="47.07469" lon="15.63368">
        <ele>442.51888</ele>
        <time>2022-08-06T20:22:17.375Z</time>
      </trkpt>
      <trkpt lat="47.07467" lon="15.63404">
        <ele>442.187457</ele>
        <time>2022-08-06T20:22:23.348Z</time>
      </trkpt>
      <trkpt lat="47.07473" lon="15.63448">
        <ele>441.769609</ele>
        <time>2022-08-06T20:22:30.865Z</time>
      </trkpt>
      <trkpt lat="47.0749" lon="15.63511">
        <ele>441.127039</ele>
        <time>2022-08-06T20:22:42.044Z</time>
      </trkpt>
      <trkpt lat="47.07488" lon="15.6355">
        <ele>440.733309</ele>
        <time>2022-08-06T20:22:48.385Z</time>
      </trkpt>
      <trkpt lat="47.07469" lon="15.63572">
        <ele>440.37763</ele>
        <time>2022-08-06T20:22:54.014Z</time>
      </trkpt>
      <trkpt lat="47.07419" lon="15.63596">
        <ele>439.611935</ele>
        <time>2022-08-06T20:23:06.048Z</time>
      </trkpt>
      <trkpt lat="47.07411" lon="15.63596">
        <ele>439.498722</ele>
        <time>2022-08-06T20:23:07.792Z</time>
      </trkpt>
      <trkpt lat="47.07399" lon="15.63596">
        <ele>439.334708</ele>
        <time>2022-08-06T20:23:10.415Z</time>
      </trkpt>
      <trkpt lat="47.07367" lon="15.63566">
        <ele>438.777515</ele>
        <time>2022-08-06T20:23:19.233Z</time>
      </trkpt>
      <trkpt lat="47.07343" lon="15.63557">
        <ele>438.464043</ele>
        <time>2022-08-06T20:23:24.938Z</time>
      </trkpt>
      <trkpt lat="47.07325" lon="15.63542">
        <ele>438.232294</ele>
        <time>2022-08-06T20:23:29.644Z</time>
      </trkpt>
      <trkpt lat="47.07287" lon="15.63446">
        <ele>437.356036</ele>
        <time>2022-08-06T20:23:47.834Z</time>
      </trkpt>
      <trkpt lat="47.07287" lon="15.63421">
        <ele>437.158063</ele>
        <time>2022-08-06T20:23:52.075Z</time>
      </trkpt>
      <trkpt lat="47.07315" lon="15.63355">
        <ele>436.516463</ele>
        <time>2022-08-06T20:24:04.941Z</time>
      </trkpt>
      <trkpt lat="47.07273" lon="15.63241">
        <ele>434.66868</ele>
        <time>2022-08-06T20:24:26.112Z</time>
      </trkpt>
      <trkpt lat="47.07213" lon="15.63229">
        <ele>433.383444</ele>
        <time>2022-08-06T20:24:39.507Z</time>
      </trkpt>
      <trkpt lat="47.0718" lon="15.63185">
        <ele>431.848232</ele>
        <time>2022-08-06T20:24:48.408Z</time>
      </trkpt>
      <trkpt lat="47.07139" lon="15.63091">
        <ele>427.582899</ele>
        <time>2022-08-06T20:25:02.509Z</time>
      </trkpt>
      <trkpt lat="47.07124" lon="15.63068">
        <ele>426.302164</ele>
        <time>2022-08-06T20:25:06.600Z</time>
      </trkpt>
      <trkpt lat="47.07077" lon="15.62999">
        <ele>422.583767</ele>
        <time>2022-08-06T20:25:18.529Z</time>
      </trkpt>
      <trkpt lat="47.07059" lon="15.62993">
        <ele>421.623479</ele>
        <time>2022-08-06T20:25:21.907Z</time>
      </trkpt>
      <trkpt lat="47.07024" lon="15.63019">
        <ele>419.538415</ele>
        <time>2022-08-06T20:25:29.116Z</time>
      </trkpt>
      <trkpt lat="47.06988" lon="15.63058">
        <ele>417.185813</ele>
        <time>2022-08-06T20:25:37.303Z</time>
      </trkpt>
      <trkpt lat="47.07018" lon="15.63132">
        <ele>414.101786</ele>
        <time>2022-08-06T20:25:48.116Z</time>
      </trkpt>
      <trkpt lat="47.07051" lon="15.63243">
        <ele>412.118438</ele>
        <time>2022-08-06T20:26:04.934Z</time>
      </trkpt>
      <trkpt lat="47.07065" lon="15.63283">
        <ele>411.623291</ele>
        <time>2022-08-06T20:26:12.192Z</time>
      </trkpt>
      <trkpt lat="47.07097" lon="15.63341">
        <ele>410.799767</ele>
        <time>2022-08-06T20:26:24.470Z</time>
      </trkpt>
      <trkpt lat="47.07125" lon="15.63378">
        <ele>410.19876</ele>
        <time>2022-08-06T20:26:33.410Z</time>
      </trkpt>
      <trkpt lat="47.07141" lon="15.63402">
        <ele>409.897041</ele>
        <time>2022-08-06T20:26:38.627Z</time>
      </trkpt>
      <trkpt lat="47.07152" lon="15.6343">
        <ele>409.596529</ele>
        <time>2022-08-06T20:26:43.594Z</time>
      </trkpt>
      <trkpt lat="47.07163" lon="15.63514">
        <ele>408.794577</ele>
        <time>2022-08-06T20:26:56.681Z</time>
      </trkpt>
      <trkpt lat="47.07176" lon="15.63677">
        <ele>407.170923</ele>
        <time>2022-08-06T20:27:20.961Z</time>
      </trkpt>
      <trkpt lat="47.07198" lon="15.63739">
        <ele>406.400321</ele>
        <time>2022-08-06T20:27:30.863Z</time>
      </trkpt>
      <trkpt lat="47.07244" lon="15.63813">
        <ele>405.27867</ele>
        <time>2022-08-06T20:27:45.768Z</time>
      </trkpt>
      <trkpt lat="47.07296" lon="15.63887">
        <ele>403.90913</ele>
        <time>2022-08-06T20:28:02.111Z</time>
      </trkpt>
      <trkpt lat="47.07322" lon="15.63914">
        <ele>403.247462</ele>
        <time>2022-08-06T20:28:09.263Z</time>
      </trkpt>
      <trkpt lat="47.07375" lon="15.63946">
        <ele>402.079303</ele>
        <time>2022-08-06T20:28:20.883Z</time>
      </trkpt>
      <trkpt lat="47.07422" lon="15.63947">
        <ele>401.080051</ele>
        <time>2022-08-06T20:28:30.463Z</time>
      </trkpt>
      <trkpt lat="47.07444" lon="15.6395">
        <ele>400.517923</ele>
        <time>2022-08-06T20:28:34.892Z</time>
      </trkpt>
      <trkpt lat="47.07509" lon="15.63978">
        <ele>398.773557</ele>
        <time>2022-08-06T20:28:48.459Z</time>
      </trkpt>
      <trkpt lat="47.07535" lon="15.63998">
        <ele>398.034892</ele>
        <time>2022-08-06T20:28:54.219Z</time>
      </trkpt>
      <trkpt lat="47.07563" lon="15.64042">
        <ele>396.95758</ele>
        <time>2022-08-06T20:29:02.715Z</time>
      </trkpt>
      <trkpt lat="47.07583" lon="15.64106">
        <ele>396.174558</ele>
        <time>2022-08-06T20:29:12.674Z</time>
      </trkpt>
      <trkpt lat="47.07633" lon="15.64193">
        <ele>395.258078</ele>
        <time>2022-08-06T20:29:30.397Z</time>
      </trkpt>
      <trkpt lat="47.07642" lon="15.64202">
        <ele>395.119432</ele>
        <time>2022-08-06T20:29:33.178Z</time>
      </trkpt>
      <trkpt lat="47.07653" lon="15.6421">
        <ele>394.975731</ele>
        <time>2022-08-06T20:29:36.033Z</time>
      </trkpt>
      <trkpt lat="47.07659" lon="15.64214">
        <ele>394.89565</ele>
        <time>2022-08-06T20:29:37.586Z</time>
      </trkpt>
      <trkpt lat="47.07723" lon="15.64246">
        <ele>394.239373</ele>
        <time>2022-08-06T20:29:53.893Z</time>
      </trkpt>
      <trkpt lat="47.07859" lon="15.64292">
        <ele>393.344413</ele>
        <time>2022-08-06T20:30:27.911Z</time>
      </trkpt>
      <trkpt lat="47.07923" lon="15.6431">
        <ele>392.840406</ele>
        <time>2022-08-06T20:30:43.474Z</time>
      </trkpt>
      <trkpt lat="47.0794" lon="15.64322">
        <ele>392.694634</ele>
        <time>2022-08-06T20:30:47.686Z</time>
      </trkpt>
      <trkpt lat="47.07955" lon="15.64339">
        <ele>392.534848</ele>
        <time>2022-08-06T20:30:52.333Z</time>
      </trkpt>
      <trkpt lat="47.07999" lon="15.64413">
        <ele>391.995129</ele>
        <time>2022-08-06T20:31:08.190Z</time>
      </trkpt>
      <trkpt lat="47.08028" lon="15.64464">
        <ele>391.655953</ele>
        <time>2022-08-06T20:31:18.812Z</time>
      </trkpt>
      <trkpt lat="47.08085" lon="15.64536">
        <ele>391.138819</ele>
        <time>2022-08-06T20:31:36.619Z</time>
      </trkpt>
      <trkpt lat="47.0815" lon="15.64585">
        <ele>390.638686</ele>
        <time>2022-08-06T20:31:54.029Z</time>
      </trkpt>
      <trkpt lat="47.08206" lon="15.64612">
        <ele>390.555009</ele>
        <time>2022-08-06T20:32:09.199Z</time>
      </trkpt>
      <trkpt lat="47.08239" lon="15.64624">
        <ele>390.543872</ele>
        <time>2022-08-06T20:32:17.854Z</time>
      </trkpt>
      <trkpt lat="47.08297" lon="15.6469">
        <ele>390.519982</ele>
        <time>2022-08-06T20:32:37.392Z</time>
      </trkpt>
      <trkpt lat="47.08327" lon="15.64725">
        <ele>390.586985</ele>
        <time>2022-08-06T20:32:48.848Z</time>
      </trkpt>
      <trkpt lat="47.08333" lon="15.64733">
        <ele>390.626422</ele>
        <time>2022-08-06T20:32:51.301Z</time>
      </trkpt>
      <trkpt lat="47.08347" lon="15.6475">
        <ele>390.708865</ele>
        <time>2022-08-06T20:32:56.625Z</time>
      </trkpt>
      <trkpt lat="47.0836" lon="15.64771">
        <ele>390.801763</ele>
        <time>2022-08-06T20:33:02.427Z</time>
      </trkpt>
      <trkpt lat="47.08367" lon="15.64782">
        <ele>390.853202</ele>
        <time>2022-08-06T20:33:05.699Z</time>
      </trkpt>
      <trkpt lat="47.0837" lon="15.64787">
        <ele>390.872131</ele>
        <time>2022-08-06T20:33:06.856Z</time>
      </trkpt>
      <trkpt lat="47.08386" lon="15.64807">
        <ele>390.970832</ele>
        <time>2022-08-06T20:33:12.833Z</time>
      </trkpt>
      <trkpt lat="47.08456" lon="15.64871">
        <ele>391.362367</ele>
        <time>2022-08-06T20:33:36.812Z</time>
      </trkpt>
      <trkpt lat="47.08475" lon="15.64896">
        <ele>391.211657</ele>
        <time>2022-08-06T20:33:44.342Z</time>
      </trkpt>
      <trkpt lat="47.08493" lon="15.64945">
        <ele>390.980376</ele>
        <time>2022-08-06T20:33:55.016Z</time>
      </trkpt>
      <trkpt lat="47.08547" lon="15.6507">
        <ele>390.354305</ele>
        <time>2022-08-06T20:34:18.549Z</time>
      </trkpt>
      <trkpt lat="47.0856" lon="15.6512">
        <ele>389.89974</ele>
        <time>2022-08-06T20:34:26.340Z</time>
      </trkpt>
      <trkpt lat="47.08564" lon="15.65214">
        <ele>388.784091</ele>
        <time>2022-08-06T20:34:39.881Z</time>
      </trkpt>
      <trkpt lat="47.0857" lon="15.65241">
        <ele>388.448692</ele>
        <time>2022-08-06T20:34:44.013Z</time>
      </trkpt>
      <trkpt lat="47.08619" lon="15.65389">
        <ele>386.592571</ele>
        <time>2022-08-06T20:35:07.970Z</time>
      </trkpt>
      <trkpt lat="47.08671" lon="15.65496">
        <ele>385.300039</ele>
        <time>2022-08-06T20:35:27.970Z</time>
      </trkpt>
      <trkpt lat="47.08752" lon="15.65681">
        <ele>383.105961</ele>
        <time>2022-08-06T20:36:01.729Z</time>
      </trkpt>
      <trkpt lat="47.08792" lon="15.65762">
        <ele>382.098526</ele>
        <time>2022-08-06T20:36:16.555Z</time>
      </trkpt>
      <trkpt lat="47.08807" lon="15.65802">
        <ele>381.613402</ele>
        <time>2022-08-06T20:36:23.148Z</time>
      </trkpt>
      <trkpt lat="47.08827" lon="15.65897">
        <ele>380.459248</ele>
        <time>2022-08-06T20:36:37.618Z</time>
      </trkpt>
      <trkpt lat="47.08859" lon="15.66045">
        <ele>378.702618</ele>
        <time>2022-08-06T20:37:00.555Z</time>
      </trkpt>
      <trkpt lat="47.08882" lon="15.66198">
        <ele>377.511564</ele>
        <time>2022-08-06T20:37:24.467Z</time>
      </trkpt>
      <trkpt lat="47.08954" lon="15.66407">
        <ele>376.16561</ele>
        <time>2022-08-06T20:38:03.546Z</time>
      </trkpt>
      <trkpt lat="47.09001" lon="15.6651">
        <ele>375.60431</ele>
        <time>2022-08-06T20:38:23.966Z</time>
      </trkpt>
      <trkpt lat="47.09011" lon="15.66534">
        <ele>375.410463</ele>
        <time>2022-08-06T20:38:28.337Z</time>
      </trkpt>
      <trkpt lat="47.09074" lon="15.66727">
        <ele>373.892347</ele>
        <time>2022-08-06T20:39:01.489Z</time>
      </trkpt>
      <trkpt lat="47.0911" lon="15.6681">
        <ele>373.363514</ele>
        <time>2022-08-06T20:39:17.133Z</time>
      </trkpt>
      <trkpt lat="47.09142" lon="15.66872">
        <ele>372.980553</ele>
        <time>2022-08-06T20:39:30.600Z</time>
      </trkpt>
      <trkpt lat="47.09201" lon="15.66963">
        <ele>372.275736</ele>
        <time>2022-08-06T20:39:51.148Z</time>
      </trkpt>
      <trkpt lat="47.09228" lon="15.67031">
        <ele>371.411564</ele>
        <time>2022-08-06T20:40:03.609Z</time>
      </trkpt>
      <trkpt lat="47.09296" lon="15.67204">
        <ele>369.164343</ele>
        <time>2022-08-06T20:40:32.396Z</time>
      </trkpt>
      <trkpt lat="47.09298" lon="15.67249">
        <ele>368.612137</ele>
        <time>2022-08-06T20:40:38.622Z</time>
      </trkpt>
      <trkpt lat="47.09303" lon="15.67266">
        <ele>368.383575</ele>
        <time>2022-08-06T20:40:41.160Z</time>
      </trkpt>
      <trkpt lat="47.09342" lon="15.67326">
        <ele>367.354756</ele>
        <time>2022-08-06T20:40:53.698Z</time>
      </trkpt>
      <trkpt lat="47.0942" lon="15.67518">
        <ele>365.107421</ele>
        <time>2022-08-06T20:41:29.717Z</time>
      </trkpt>
      <trkpt lat="47.09457" lon="15.67628">
        <ele>364.053157</ele>
        <time>2022-08-06T20:41:49.555Z</time>
      </trkpt>
      <trkpt lat="47.09529" lon="15.67798">
        <ele>362.104277</ele>
        <time>2022-08-06T20:42:21.299Z</time>
      </trkpt>
      <trkpt lat="47.09538" lon="15.67855">
        <ele>361.533697</ele>
        <time>2022-08-06T20:42:30.200Z</time>
      </trkpt>
      <trkpt lat="47.09567" lon="15.67843">
        <ele>361.090434</ele>
        <time>2022-08-06T20:42:37.116Z</time>
      </trkpt>
      <trkpt lat="47.09615" lon="15.67949">
        <ele>359.804393</ele>
        <time>2022-08-06T20:42:55.946Z</time>
      </trkpt>
      <trkpt lat="47.09664" lon="15.68038">
        <ele>358.635217</ele>
        <time>2022-08-06T20:43:13.632Z</time>
      </trkpt>
      <trkpt lat="47.09707" lon="15.68098">
        <ele>357.698057</ele>
        <time>2022-08-06T20:43:26.594Z</time>
      </trkpt>
      <trkpt lat="47.09722" lon="15.68136">
        <ele>357.224863</ele>
        <time>2022-08-06T20:43:33.093Z</time>
      </trkpt>
      <trkpt lat="47.09749" lon="15.68269">
        <ele>355.749003</ele>
        <time>2022-08-06T20:43:53.483Z</time>
      </trkpt>
      <trkpt lat="47.0976" lon="15.68296">
        <ele>355.436758</ele>
        <time>2022-08-06T20:43:58.214Z</time>
      </trkpt>
      <trkpt lat="47.09794" lon="15.68343">
        <ele>354.753788</ele>
        <time>2022-08-06T20:44:08.386Z</time>
      </trkpt>
      <trkpt lat="47.09835" lon="15.68372">
        <ele>354.086572</ele>
        <time>2022-08-06T20:44:18.391Z</time>
      </trkpt>
      <trkpt lat="47.09869" lon="15.68394">
        <ele>353.547361</ele>
        <time>2022-08-06T20:44:26.503Z</time>
      </trkpt>
      <trkpt lat="47.1" lon="15.6848">
        <ele>352.408501</ele>
        <time>2022-08-06T20:45:00.757Z</time>
      </trkpt>
      <trkpt lat="47.10031" lon="15.68501">
        <ele>352.174646</ele>
        <time>2022-08-06T20:45:09.162Z</time>
      </trkpt>
      <trkpt lat="47.10042" lon="15.68508">
        <ele>352.093832</ele>
        <time>2022-08-06T20:45:12.103Z</time>
      </trkpt>
      <trkpt lat="47.10153" lon="15.68582">
        <ele>351.847349</ele>
        <time>2022-08-06T20:45:43.015Z</time>
      </trkpt>
      <trkpt lat="47.10183" lon="15.68612">
        <ele>351.789225</ele>
        <time>2022-08-06T20:45:52.255Z</time>
      </trkpt>
      <trkpt lat="47.10188" lon="15.68618">
        <ele>351.777367</ele>
        <time>2022-08-06T20:45:54.253Z</time>
      </trkpt>
      <trkpt lat="47.10217" lon="15.68653">
        <ele>351.803374</ele>
        <time>2022-08-06T20:46:04.445Z</time>
      </trkpt>
      <trkpt lat="47.10225" lon="15.68663">
        <ele>351.855615</ele>
        <time>2022-08-06T20:46:07.510Z</time>
      </trkpt>
      <trkpt lat="47.10233" lon="15.6869">
        <ele>351.950207</ele>
        <time>2022-08-06T20:46:13.051Z</time>
      </trkpt>
      <trkpt lat="47.10233" lon="15.68709">
        <ele>352.015867</ele>
        <time>2022-08-06T20:46:17.142Z</time>
      </trkpt>
      <trkpt lat="47.10236" lon="15.68713">
        <ele>352.035801</ele>
        <time>2022-08-06T20:46:18.364Z</time>
      </trkpt>
      <trkpt lat="47.10241" lon="15.68716">
        <ele>352.061996</ele>
        <time>2022-08-06T20:46:19.914Z</time>
      </trkpt>
      <trkpt lat="47.10246" lon="15.68716">
        <ele>352.088045</ele>
        <time>2022-08-06T20:46:21.424Z</time>
      </trkpt>
      <trkpt lat="47.10255" lon="15.68728">
        <ele>352.150302</ele>
        <time>2022-08-06T20:46:25.316Z</time>
      </trkpt>
      <trkpt lat="47.10262" lon="15.68747">
        <ele>352.219748</ele>
        <time>2022-08-06T20:46:29.661Z</time>
      </trkpt>
      <trkpt lat="47.10265" lon="15.68821">
        <ele>352.466157</ele>
        <time>2022-08-06T20:46:44.481Z</time>
      </trkpt>
      <trkpt lat="47.10265" lon="15.68828">
        <ele>352.490834</ele>
        <time>2022-08-06T20:46:45.956Z</time>
      </trkpt>
      <trkpt lat="47.10265" lon="15.68847">
        <ele>352.552147</ele>
        <time>2022-08-06T20:46:49.592Z</time>
      </trkpt>
      <trkpt lat="47.10267" lon="15.68906">
        <ele>352.719743</ele>
        <time>2022-08-06T20:47:01.211Z</time>
      </trkpt>
      <trkpt lat="47.10287" lon="15.68978">
        <ele>352.917532</ele>
        <time>2022-08-06T20:47:16.919Z</time>
      </trkpt>
      <trkpt lat="47.10297" lon="15.69002">
        <ele>352.990859</ele>
        <time>2022-08-06T20:47:22.723Z</time>
      </trkpt>
      <trkpt lat="47.10299" lon="15.69006">
        <ele>353.002291</ele>
        <time>2022-08-06T20:47:23.585Z</time>
      </trkpt>
      <trkpt lat="47.10307" lon="15.69026">
        <ele>353.063289</ele>
        <time>2022-08-06T20:47:28.306Z</time>
      </trkpt>
      <trkpt lat="47.10317" lon="15.6905">
        <ele>353.134281</ele>
        <time>2022-08-06T20:47:33.770Z</time>
      </trkpt>
      <trkpt lat="47.10353" lon="15.6914">
        <ele>353.181986</ele>
        <time>2022-08-06T20:47:52.610Z</time>
      </trkpt>
      <trkpt lat="47.10368" lon="15.69178">
        <ele>353.062748</ele>
        <time>2022-08-06T20:48:00.154Z</time>
      </trkpt>
      <trkpt lat="47.10373" lon="15.69194">
        <ele>353.014976</ele>
        <time>2022-08-06T20:48:03.140Z</time>
      </trkpt>
      <trkpt lat="47.10374" lon="15.69197">
        <ele>353.00559</ele>
        <time>2022-08-06T20:48:03.722Z</time>
      </trkpt>
      <trkpt lat="47.10374" lon="15.69199">
        <ele>353.000106</ele>
        <time>2022-08-06T20:48:04.066Z</time>
      </trkpt>
      <trkpt lat="47.10386" lon="15.69238">
        <ele>352.882717</ele>
        <time>2022-08-06T20:48:11.474Z</time>
      </trkpt>
      <trkpt lat="47.10396" lon="15.6928">
        <ele>352.761748</ele>
        <time>2022-08-06T20:48:19.222Z</time>
      </trkpt>
      <trkpt lat="47.10415" lon="15.69403">
        <ele>352.163859</ele>
        <time>2022-08-06T20:48:39.375Z</time>
      </trkpt>
      <trkpt lat="47.10432" lon="15.69465">
        <ele>351.688565</ele>
        <time>2022-08-06T20:48:49.832Z</time>
      </trkpt>
      <trkpt lat="47.10438" lon="15.69462">
        <ele>351.621681</ele>
        <time>2022-08-06T20:48:51.347Z</time>
      </trkpt>
      <trkpt lat="47.1044" lon="15.69466">
        <ele>351.587347</ele>
        <time>2022-08-06T20:48:52.086Z</time>
      </trkpt>
      <trkpt lat="47.10456" lon="15.69505">
        <ele>351.259172</ele>
        <time>2022-08-06T20:48:59.205Z</time>
      </trkpt>
      <trkpt lat="47.1047" lon="15.69555">
        <ele>350.876944</ele>
        <time>2022-08-06T20:49:07.531Z</time>
      </trkpt>
      <trkpt lat="47.10468" lon="15.69558">
        <ele>350.847338</ele>
        <time>2022-08-06T20:49:08.175Z</time>
      </trkpt>
      <trkpt lat="47.10466" lon="15.69561">
        <ele>350.814515</ele>
        <time>2022-08-06T20:49:08.873Z</time>
      </trkpt>
      <trkpt lat="47.10479" lon="15.69604">
        <ele>350.60053</ele>
        <time>2022-08-06T20:49:16.135Z</time>
      </trkpt>
      <trkpt lat="47.10481" lon="15.69608">
        <ele>350.58327</ele>
        <time>2022-08-06T20:49:16.962Z</time>
      </trkpt>
      <trkpt lat="47.10493" lon="15.69637">
        <ele>350.476617</ele>
        <time>2022-08-06T20:49:22.208Z</time>
      </trkpt>
      <trkpt lat="47.10494" lon="15.6964">
        <ele>350.46771</ele>
        <time>2022-08-06T20:49:22.652Z</time>
      </trkpt>
      <trkpt lat="47.10496" lon="15.69644">
        <ele>350.453367</ele>
        <time>2022-08-06T20:49:23.430Z</time>
      </trkpt>
      <trkpt lat="47.10495" lon="15.69663">
        <ele>350.391236</ele>
        <time>2022-08-06T20:49:26.612Z</time>
      </trkpt>
      <trkpt lat="47.10493" lon="15.69668">
        <ele>350.373259</ele>
        <time>2022-08-06T20:49:27.547Z</time>
      </trkpt>
      <trkpt lat="47.10491" lon="15.69671">
        <ele>350.360184</ele>
        <time>2022-08-06T20:49:28.191Z</time>
      </trkpt>
      <trkpt lat="47.10535" lon="15.69736">
        <ele>350.070927</ele>
        <time>2022-08-06T20:49:44.208Z</time>
      </trkpt>
      <trkpt lat="47.10558" lon="15.69802">
        <ele>349.855467</ele>
        <time>2022-08-06T20:49:58.084Z</time>
      </trkpt>
      <trkpt lat="47.10558" lon="15.69814">
        <ele>349.843687</ele>
        <time>2022-08-06T20:50:00.468Z</time>
      </trkpt>
      <trkpt lat="47.1056" lon="15.69821">
        <ele>349.837264</ele>
        <time>2022-08-06T20:50:01.757Z</time>
      </trkpt>
      <trkpt lat="47.10565" lon="15.69828">
        <ele>349.827285</ele>
        <time>2022-08-06T20:50:03.680Z</time>
      </trkpt>
      <trkpt lat="47.10567" lon="15.69837">
        <ele>349.818784</ele>
        <time>2022-08-06T20:50:05.312Z</time>
      </trkpt>
      <trkpt lat="47.10572" lon="15.69879">
        <ele>349.77818</ele>
        <time>2022-08-06T20:50:13.110Z</time>
      </trkpt>
      <trkpt lat="47.10565" lon="15.69969">
        <ele>349.693688</ele>
        <time>2022-08-06T20:50:28.895Z</time>
      </trkpt>
      <trkpt lat="47.10564" lon="15.69974">
        <ele>349.688613</ele>
        <time>2022-08-06T20:50:29.886Z</time>
      </trkpt>
      <trkpt lat="47.10563" lon="15.69981">
        <ele>349.682777</ele>
        <time>2022-08-06T20:50:30.999Z</time>
      </trkpt>
      <trkpt lat="47.10559" lon="15.7001">
        <ele>349.654655</ele>
        <time>2022-08-06T20:50:36.211Z</time>
      </trkpt>
      <trkpt lat="47.10554" lon="15.70045">
        <ele>349.621734</ele>
        <time>2022-08-06T20:50:42.344Z</time>
      </trkpt>
      <trkpt lat="47.10553" lon="15.70052">
        <ele>349.616507</ele>
        <time>2022-08-06T20:50:43.761Z</time>
      </trkpt>
      <trkpt lat="47.10552" lon="15.7006">
        <ele>349.620949</ele>
        <time>2022-08-06T20:50:45.100Z</time>
      </trkpt>
      <trkpt lat="47.10537" lon="15.70168">
        <ele>349.687131</ele>
        <time>2022-08-06T20:51:05.231Z</time>
      </trkpt>
      <trkpt lat="47.10536" lon="15.70178">
        <ele>349.692762</ele>
        <time>2022-08-06T20:51:06.997Z</time>
      </trkpt>
      <trkpt lat="47.10535" lon="15.70187">
        <ele>349.698236</ele>
        <time>2022-08-06T20:51:08.684Z</time>
      </trkpt>
      <trkpt lat="47.10526" lon="15.70271">
        <ele>349.749375</ele>
        <time>2022-08-06T20:51:24.693Z</time>
      </trkpt>
      <trkpt lat="47.10525" lon="15.7028">
        <ele>349.754572</ele>
        <time>2022-08-06T20:51:26.415Z</time>
      </trkpt>
      <trkpt lat="47.10524" lon="15.70287">
        <ele>349.758684</ele>
        <time>2022-08-06T20:51:27.739Z</time>
      </trkpt>
      <trkpt lat="47.10507" lon="15.70325">
        <ele>349.803522</ele>
        <time>2022-08-06T20:51:36.556Z</time>
      </trkpt>
      <trkpt lat="47.10478" lon="15.70376">
        <ele>349.896308</ele>
        <time>2022-08-06T20:51:49.188Z</time>
      </trkpt>
      <trkpt lat="47.10467" lon="15.70399">
        <ele>349.93724</ele>
        <time>2022-08-06T20:51:54.877Z</time>
      </trkpt>
      <trkpt lat="47.10465" lon="15.70402">
        <ele>349.942502</ele>
        <time>2022-08-06T20:51:55.606Z</time>
      </trkpt>
      <trkpt lat="47.10466" lon="15.70409">
        <ele>349.952856</ele>
        <time>2022-08-06T20:51:57.098Z</time>
      </trkpt>
      <trkpt lat="47.10456" lon="15.70429">
        <ele>349.986279</ele>
        <time>2022-08-06T20:52:01.944Z</time>
      </trkpt>
      <trkpt lat="47.10437" lon="15.7046">
        <ele>350.045251</ele>
        <time>2022-08-06T20:52:10.397Z</time>
      </trkpt>
      <trkpt lat="47.10421" lon="15.70476">
        <ele>350.086124</ele>
        <time>2022-08-06T20:52:16.141Z</time>
      </trkpt>
      <trkpt lat="47.10406" lon="15.70487">
        <ele>350.122062</ele>
        <time>2022-08-06T20:52:21.042Z</time>
      </trkpt>
      <trkpt lat="47.1039" lon="15.70478">
        <ele>350.12888</ele>
        <time>2022-08-06T20:52:25.363Z</time>
      </trkpt>
      <trkpt lat="47.10381" lon="15.70473">
        <ele>350.084287</ele>
        <time>2022-08-06T20:52:28.138Z</time>
      </trkpt>
      <trkpt lat="47.10355" lon="15.70503">
        <ele>349.947289</ele>
        <time>2022-08-06T20:52:36.559Z</time>
      </trkpt>
      <trkpt lat="47.10344" lon="15.70518">
        <ele>349.884109</ele>
        <time>2022-08-06T20:52:40.436Z</time>
      </trkpt>
      <trkpt lat="47.10313" lon="15.70559">
        <ele>349.70773</ele>
        <time>2022-08-06T20:52:51.110Z</time>
      </trkpt>
      <trkpt lat="47.10307" lon="15.70567">
        <ele>349.673201</ele>
        <time>2022-08-06T20:52:53.185Z</time>
      </trkpt>
      <trkpt lat="47.10292" lon="15.70587">
        <ele>349.587103</ele>
        <time>2022-08-06T20:52:58.373Z</time>
      </trkpt>
      <trkpt lat="47.10273" lon="15.70612">
        <ele>349.47826</ele>
        <time>2022-08-06T20:53:04.941Z</time>
      </trkpt>
      <trkpt lat="47.10262" lon="15.70625">
        <ele>349.418643</ele>
        <time>2022-08-06T20:53:08.650Z</time>
      </trkpt>
      <trkpt lat="47.1026" lon="15.70628">
        <ele>349.408062</ele>
        <time>2022-08-06T20:53:09.294Z</time>
      </trkpt>
      <trkpt lat="47.10259" lon="15.7063">
        <ele>349.400206</ele>
        <time>2022-08-06T20:53:09.781Z</time>
      </trkpt>
      <trkpt lat="47.10248" lon="15.70643">
        <ele>349.336073</ele>
        <time>2022-08-06T20:53:13.378Z</time>
      </trkpt>
      <trkpt lat="47.10242" lon="15.70651">
        <ele>349.296805</ele>
        <time>2022-08-06T20:53:15.558Z</time>
      </trkpt>
      <trkpt lat="47.10237" lon="15.70658">
        <ele>349.264338</ele>
        <time>2022-08-06T20:53:17.348Z</time>
      </trkpt>
      <trkpt lat="47.10224" lon="15.70675">
        <ele>349.181104</ele>
        <time>2022-08-06T20:53:21.845Z</time>
      </trkpt>
      <trkpt lat="47.10218" lon="15.70684">
        <ele>349.141754</ele>
        <time>2022-08-06T20:53:23.983Z</time>
      </trkpt>
      <trkpt lat="47.10212" lon="15.70689">
        <ele>349.108849</ele>
        <time>2022-08-06T20:53:25.725Z</time>
      </trkpt>
      <trkpt lat="47.10205" lon="15.70701">
        <ele>349.057557</ele>
        <time>2022-08-06T20:53:28.391Z</time>
      </trkpt>
      <trkpt lat="47.10195" lon="15.70713">
        <ele>348.994637</ele>
        <time>2022-08-06T20:53:31.682Z</time>
      </trkpt>
      <trkpt lat="47.10186" lon="15.70725">
        <ele>348.940513</ele>
        <time>2022-08-06T20:53:34.651Z</time>
      </trkpt>
      <trkpt lat="47.10158" lon="15.70761">
        <ele>348.763273</ele>
        <time>2022-08-06T20:53:44.295Z</time>
      </trkpt>
      <trkpt lat="47.10147" lon="15.70775">
        <ele>348.692832</ele>
        <time>2022-08-06T20:53:47.926Z</time>
      </trkpt>
      <trkpt lat="47.10142" lon="15.70782">
        <ele>348.660665</ele>
        <time>2022-08-06T20:53:49.613Z</time>
      </trkpt>
      <trkpt lat="47.10132" lon="15.70794">
        <ele>348.60265</ele>
        <time>2022-08-06T20:53:52.652Z</time>
      </trkpt>
      <trkpt lat="47.1013" lon="15.70797">
        <ele>348.587311</ele>
        <time>2022-08-06T20:53:53.433Z</time>
      </trkpt>
      <trkpt lat="47.10119" lon="15.70812">
        <ele>348.510115</ele>
        <time>2022-08-06T20:53:56.855Z</time>
      </trkpt>
      <trkpt lat="47.10096" lon="15.70847">
        <ele>348.290021</ele>
        <time>2022-08-06T20:54:04.746Z</time>
      </trkpt>
      <trkpt lat="47.10088" lon="15.70857">
        <ele>348.225117</ele>
        <time>2022-08-06T20:54:07.106Z</time>
      </trkpt>
      <trkpt lat="47.10075" lon="15.70872">
        <ele>348.114842</ele>
        <time>2022-08-06T20:54:11.142Z</time>
      </trkpt>
      <trkpt lat="47.10058" lon="15.70892">
        <ele>347.974399</ele>
        <time>2022-08-06T20:54:16.177Z</time>
      </trkpt>
      <trkpt lat="47.10053" lon="15.70899">
        <ele>347.924322</ele>
        <time>2022-08-06T20:54:18.072Z</time>
      </trkpt>
      <trkpt lat="47.10046" lon="15.70909">
        <ele>347.861348</ele>
        <time>2022-08-06T20:54:20.387Z</time>
      </trkpt>
      <trkpt lat="47.10037" lon="15.70922">
        <ele>347.780768</ele>
        <time>2022-08-06T20:54:23.297Z</time>
      </trkpt>
      <trkpt lat="47.10028" lon="15.70935">
        <ele>347.696448</ele>
        <time>2022-08-06T20:54:26.545Z</time>
      </trkpt>
      <trkpt lat="47.10028" lon="15.70943">
        <ele>347.662877</ele>
        <time>2022-08-06T20:54:27.845Z</time>
      </trkpt>
      <trkpt lat="47.10032" lon="15.70959">
        <ele>347.588443</ele>
        <time>2022-08-06T20:54:30.495Z</time>
      </trkpt>
      <trkpt lat="47.10035" lon="15.70969">
        <ele>347.539309</ele>
        <time>2022-08-06T20:54:32.346Z</time>
      </trkpt>
      <trkpt lat="47.10038" lon="15.70981">
        <ele>347.480331</ele>
        <time>2022-08-06T20:54:34.608Z</time>
      </trkpt>
      <trkpt lat="47.10047" lon="15.71001">
        <ele>347.373905</ele>
        <time>2022-08-06T20:54:38.630Z</time>
      </trkpt>
      <trkpt lat="47.10057" lon="15.71021">
        <ele>347.313892</ele>
        <time>2022-08-06T20:54:42.742Z</time>
      </trkpt>
      <trkpt lat="47.10092" lon="15.71095">
        <ele>347.119871</ele>
        <time>2022-08-06T20:54:57.910Z</time>
      </trkpt>
      <trkpt lat="47.10104" lon="15.71107">
        <ele>347.076064</ele>
        <time>2022-08-06T20:55:01.349Z</time>
      </trkpt>
      <trkpt lat="47.10108" lon="15.7111">
        <ele>347.061818</ele>
        <time>2022-08-06T20:55:02.463Z</time>
      </trkpt>
      <trkpt lat="47.10108" lon="15.71118">
        <ele>347.042879</ele>
        <time>2022-08-06T20:55:03.990Z</time>
      </trkpt>
      <trkpt lat="47.10091" lon="15.7112">
        <ele>346.987681</ele>
        <time>2022-08-06T20:55:08.575Z</time>
      </trkpt>
      <trkpt lat="47.10084" lon="15.71118">
        <ele>346.966047</ele>
        <time>2022-08-06T20:55:10.444Z</time>
      </trkpt>
      <trkpt lat="47.10045" lon="15.71125">
        <ele>346.84228</ele>
        <time>2022-08-06T20:55:21.362Z</time>
      </trkpt>
      <trkpt lat="47.10024" lon="15.71133">
        <ele>346.774197</ele>
        <time>2022-08-06T20:55:27.362Z</time>
      </trkpt>
      <trkpt lat="47.09984" lon="15.71147">
        <ele>346.635197</ele>
        <time>2022-08-06T20:55:38.931Z</time>
      </trkpt>
      <trkpt lat="47.09977" lon="15.7115">
        <ele>346.613259</ele>
        <time>2022-08-06T20:55:40.668Z</time>
      </trkpt>
      <trkpt lat="47.09973" lon="15.71151">
        <ele>346.598739</ele>
        <time>2022-08-06T20:55:41.789Z</time>
      </trkpt>
      <trkpt lat="47.09926" lon="15.71164">
        <ele>346.440655</ele>
        <time>2022-08-06T20:55:53.663Z</time>
      </trkpt>
      <trkpt lat="47.09904" lon="15.71164">
        <ele>346.365136</ele>
        <time>2022-08-06T20:55:59.514Z</time>
      </trkpt>
      <trkpt lat="47.09901" lon="15.71162">
        <ele>346.355924</ele>
        <time>2022-08-06T20:56:00.191Z</time>
      </trkpt>
      <trkpt lat="47.099" lon="15.71163">
        <ele>346.351874</ele>
        <time>2022-08-06T20:56:00.497Z</time>
      </trkpt>
      <trkpt lat="47.09895" lon="15.71162">
        <ele>346.335804</ele>
        <time>2022-08-06T20:56:01.715Z</time>
      </trkpt>
      <trkpt lat="47.0989" lon="15.71161">
        <ele>346.319566</ele>
        <time>2022-08-06T20:56:02.940Z</time>
      </trkpt>
      <trkpt lat="47.09886" lon="15.71164">
        <ele>346.304676</ele>
        <time>2022-08-06T20:56:04.013Z</time>
      </trkpt>
      <trkpt lat="47.09863" lon="15.71149">
        <ele>346.218736</ele>
        <time>2022-08-06T20:56:10.655Z</time>
      </trkpt>
      <trkpt lat="47.09852" lon="15.7114">
        <ele>346.164826</ele>
        <time>2022-08-06T20:56:13.814Z</time>
      </trkpt>
      <trkpt lat="47.09839" lon="15.71128">
        <ele>346.071489</ele>
        <time>2022-08-06T20:56:17.768Z</time>
      </trkpt>
      <trkpt lat="47.09832" lon="15.71122">
        <ele>346.02029</ele>
        <time>2022-08-06T20:56:19.973Z</time>
      </trkpt>
      <trkpt lat="47.09815" lon="15.71105">
        <ele>345.897744</ele>
        <time>2022-08-06T20:56:25.108Z</time>
      </trkpt>
      <trkpt lat="47.09801" lon="15.7109">
        <ele>345.794618</ele>
        <time>2022-08-06T20:56:29.507Z</time>
      </trkpt>
      <trkpt lat="47.09796" lon="15.71086">
        <ele>345.762777</ele>
        <time>2022-08-06T20:56:30.791Z</time>
      </trkpt>
      <trkpt lat="47.09794" lon="15.7109">
        <ele>345.741278</ele>
        <time>2022-08-06T20:56:31.632Z</time>
      </trkpt>
      <trkpt lat="47.09796" lon="15.71093">
        <ele>345.722801</ele>
        <time>2022-08-06T20:56:32.376Z</time>
      </trkpt>
      <trkpt lat="47.09794" lon="15.71098">
        <ele>345.699787</ele>
        <time>2022-08-06T20:56:33.314Z</time>
      </trkpt>
      <trkpt lat="47.09791" lon="15.71113">
        <ele>345.636856</ele>
        <time>2022-08-06T20:56:36.000Z</time>
      </trkpt>
      <trkpt lat="47.0981" lon="15.71129">
        <ele>345.503931</ele>
        <time>2022-08-06T20:56:41.591Z</time>
      </trkpt>
      <trkpt lat="47.09815" lon="15.71142">
        <ele>345.445194</ele>
        <time>2022-08-06T20:56:44.042Z</time>
      </trkpt>
      <trkpt lat="47.09651" lon="15.71578">
        <ele>343.615483</ele>
        <time>2022-08-06T20:58:10.873Z</time>
      </trkpt>
      <trkpt lat="47.09648" lon="15.71588">
        <ele>343.575184</ele>
        <time>2022-08-06T20:58:12.853Z</time>
      </trkpt>
      <trkpt lat="47.095" lon="15.7196">
        <ele>341.902823</ele>
        <time>2022-08-06T20:59:28.051Z</time>
      </trkpt>
      <trkpt lat="47.09457" lon="15.72035">
        <ele>341.395192</ele>
        <time>2022-08-06T20:59:45.152Z</time>
      </trkpt>
      <trkpt lat="47.09455" lon="15.72039">
        <ele>341.371574</ele>
        <time>2022-08-06T20:59:45.872Z</time>
      </trkpt>
      <trkpt lat="47.09453" lon="15.72055">
        <ele>341.290341</ele>
        <time>2022-08-06T20:59:48.486Z</time>
      </trkpt>
      <trkpt lat="47.09423" lon="15.72048">
        <ele>341.0624</ele>
        <time>2022-08-06T20:59:55.389Z</time>
      </trkpt>
      <trkpt lat="47.09368" lon="15.7203">
        <ele>340.558815</ele>
        <time>2022-08-06T21:00:08.308Z</time>
      </trkpt>
      <trkpt lat="47.09342" lon="15.72021">
        <ele>340.292567</ele>
        <time>2022-08-06T21:00:14.449Z</time>
      </trkpt>
      <trkpt lat="47.0932" lon="15.72011">
        <ele>340.069098</ele>
        <time>2022-08-06T21:00:19.681Z</time>
      </trkpt>
      <trkpt lat="47.09224" lon="15.71968">
        <ele>339.085137</ele>
        <time>2022-08-06T21:01:01.083Z</time>
      </trkpt>
      <trkpt lat="47.09202" lon="15.71966">
        <ele>338.94936</ele>
        <time>2022-08-06T21:01:09.747Z</time>
      </trkpt>
      <trkpt lat="47.09165" lon="15.71975">
        <ele>338.7157</ele>
        <time>2022-08-06T21:01:25.245Z</time>
      </trkpt>
      <trkpt lat="47.0914" lon="15.71993">
        <ele>338.545655</ele>
        <time>2022-08-06T21:01:36.906Z</time>
      </trkpt>
      <trkpt lat="47.09095" lon="15.72042">
        <ele>338.198684</ele>
        <time>2022-08-06T21:02:00.591Z</time>
      </trkpt>
      <trkpt lat="47.09075" lon="15.72055">
        <ele>338.060778</ele>
        <time>2022-08-06T21:02:10.062Z</time>
      </trkpt>
      <trkpt lat="47.0904" lon="15.72062">
        <ele>337.886927</ele>
        <time>2022-08-06T21:02:25.218Z</time>
      </trkpt>
      <trkpt lat="47.08988" lon="15.72063">
        <ele>337.667193</ele>
        <time>2022-08-06T21:02:47.035Z</time>
      </trkpt>
      <trkpt lat="47.08968" lon="15.7207">
        <ele>337.579095</ele>
        <time>2022-08-06T21:02:55.803Z</time>
      </trkpt>
      <trkpt lat="47.08953" lon="15.7208">
        <ele>337.506619</ele>
        <time>2022-08-06T21:03:03.031Z</time>
      </trkpt>
      <trkpt lat="47.08931" lon="15.72111">
        <ele>337.376594</ele>
        <time>2022-08-06T21:03:16.007Z</time>
      </trkpt>
      <trkpt lat="47.08854" lon="15.72296">
        <ele>336.658156</ele>
        <time>2022-08-06T21:04:19.020Z</time>
      </trkpt>
      <trkpt lat="47.08701" lon="15.72585">
        <ele>335.375045</ele>
        <time>2022-08-06T21:06:03.400Z</time>
      </trkpt>
      <trkpt lat="47.08638" lon="15.72669">
        <ele>335.25906</ele>
        <time>2022-08-06T21:06:40.237Z</time>
      </trkpt>
      <trkpt lat="47.08632" lon="15.72678">
        <ele>335.246476</ele>
        <time>2022-08-06T21:06:44.233Z</time>
      </trkpt>
      <trkpt lat="47.08601" lon="15.72725">
        <ele>335.185725</ele>
        <time>2022-08-06T21:07:03.972Z</time>
      </trkpt>
      <trkpt lat="47.08582" lon="15.72772">
        <ele>335.13425</ele>
        <time>2022-08-06T21:07:20.740Z</time>
      </trkpt>
      <trkpt lat="47.08513" lon="15.72831">
        <ele>335.140772</ele>
        <time>2022-08-06T21:07:56.891Z</time>
      </trkpt>
      <trkpt lat="47.08427" lon="15.72934">
        <ele>335.145598</ele>
        <time>2022-08-06T21:08:46.048Z</time>
      </trkpt>
      <trkpt lat="47.08389" lon="15.72953">
        <ele>335.089035</ele>
        <time>2022-08-06T21:09:03.334Z</time>
      </trkpt>
      <trkpt lat="47.08278" lon="15.72965">
        <ele>334.930088</ele>
        <time>2022-08-06T21:09:52.101Z</time>
      </trkpt>
      <trkpt lat="47.08136" lon="15.7301">
        <ele>334.832692</ele>
        <time>2022-08-06T21:10:56.143Z</time>
      </trkpt>
      <trkpt lat="47.0811" lon="15.73023">
        <ele>334.817602</ele>
        <time>2022-08-06T21:11:08.519Z</time>
      </trkpt>
      <trkpt lat="47.07935" lon="15.73109">
        <ele>334.768744</ele>
        <time>2022-08-06T21:12:30.558Z</time>
      </trkpt>
      <trkpt lat="47.0786" lon="15.73211">
        <ele>334.533141</ele>
        <time>2022-08-06T21:13:15.203Z</time>
      </trkpt>
      <trkpt lat="47.07773" lon="15.73295">
        <ele>334.213216</ele>
        <time>2022-08-06T21:13:59.965Z</time>
      </trkpt>
      <trkpt lat="47.07771" lon="15.73321">
        <ele>334.093944</ele>
        <time>2022-08-06T21:14:07.329Z</time>
      </trkpt>
      <trkpt lat="47.07824" lon="15.73454">
        <ele>333.383509</ele>
        <time>2022-08-06T21:14:50.575Z</time>
      </trkpt>
      <trkpt lat="47.07812" lon="15.73471">
        <ele>333.271603</ele>
        <time>2022-08-06T21:14:57.434Z</time>
      </trkpt>
      <trkpt lat="47.07711" lon="15.73541">
        <ele>332.957851</ele>
        <time>2022-08-06T21:15:44.235Z</time>
      </trkpt>
      <trkpt lat="47.07349" lon="15.73827">
        <ele>332.777669</ele>
        <time>2022-08-06T21:18:48.177Z</time>
      </trkpt>
      <trkpt lat="47.07353" lon="15.73921">
        <ele>332.768478</ele>
        <time>2022-08-06T21:19:06.117Z</time>
      </trkpt>
      <trkpt lat="47.07361" lon="15.73978">
        <ele>332.649468</ele>
        <time>2022-08-06T21:19:17.099Z</time>
      </trkpt>
      <trkpt lat="47.07369" lon="15.74005">
        <ele>332.589343</ele>
        <time>2022-08-06T21:19:22.705Z</time>
      </trkpt>
      <trkpt lat="47.07388" lon="15.74045">
        <ele>332.493345</ele>
        <time>2022-08-06T21:19:31.153Z</time>
      </trkpt>
      <trkpt lat="47.07389" lon="15.74099">
        <ele>332.382115</ele>
        <time>2022-08-06T21:19:40.830Z</time>
      </trkpt>
      <trkpt lat="47.07404" lon="15.74187">
        <ele>332.272488</ele>
        <time>2022-08-06T21:19:56.420Z</time>
      </trkpt>
      <trkpt lat="47.07405" lon="15.74257">
        <ele>332.301808</ele>
        <time>2022-08-06T21:20:08.687Z</time>
      </trkpt>
      <trkpt lat="47.07424" lon="15.7431">
        <ele>332.326975</ele>
        <time>2022-08-06T21:20:20.130Z</time>
      </trkpt>
      <trkpt lat="47.07428" lon="15.74322">
        <ele>332.33247</ele>
        <time>2022-08-06T21:20:22.772Z</time>
      </trkpt>
      <trkpt lat="47.0745" lon="15.74378">
        <ele>332.359384</ele>
        <time>2022-08-06T21:20:35.634Z</time>
      </trkpt>
      <trkpt lat="47.07456" lon="15.74404">
        <ele>332.387861</ele>
        <time>2022-08-06T21:20:41.233Z</time>
      </trkpt>
      <trkpt lat="47.07495" lon="15.74508">
        <ele>333.617806</ele>
        <time>2022-08-06T21:21:09.150Z</time>
      </trkpt>
      <trkpt lat="47.07492" lon="15.74549">
        <ele>334.047276</ele>
        <time>2022-08-06T21:21:19.759Z</time>
      </trkpt>
      <trkpt lat="47.07469" lon="15.74628">
        <ele>334.930251</ele>
        <time>2022-08-06T21:21:40.854Z</time>
      </trkpt>
      <trkpt lat="47.07467" lon="15.74675">
        <ele>335.679392</ele>
        <time>2022-08-06T21:21:52.520Z</time>
      </trkpt>
      <trkpt lat="47.07473" lon="15.74716">
        <ele>336.451761</ele>
        <time>2022-08-06T21:22:03.623Z</time>
      </trkpt>
      <trkpt lat="47.0745" lon="15.74733">
        <ele>337.141001</ele>
        <time>2022-08-06T21:22:12.496Z</time>
      </trkpt>
      <trkpt lat="47.07428" lon="15.74754">
        <ele>337.877043</ele>
        <time>2022-08-06T21:22:22.412Z</time>
      </trkpt>
      <trkpt lat="47.07402" lon="15.74781">
        <ele>338.750666</ele>
        <time>2022-08-06T21:22:35.354Z</time>
      </trkpt>
      <trkpt lat="47.07374" lon="15.74816">
        <ele>339.738685</ele>
        <time>2022-08-06T21:22:51.656Z</time>
      </trkpt>
      <trkpt lat="47.07311" lon="15.74902">
        <ele>343.803161</ele>
        <time>2022-08-06T21:23:32.772Z</time>
      </trkpt>
      <trkpt lat="47.07418" lon="15.75027">
        <ele>350.651849</ele>
        <time>2022-08-06T21:24:45.828Z</time>
      </trkpt>
      <trkpt lat="47.07444" lon="15.75071">
        <ele>352.703098</ele>
        <time>2022-08-06T21:25:07.448Z</time>
      </trkpt>
      <trkpt lat="47.07463" lon="15.75134">
        <ele>355.076384</ele>
        <time>2022-08-06T21:25:30.608Z</time>
      </trkpt>
      <trkpt lat="47.07472" lon="15.75212">
        <ele>357.825204</ele>
        <time>2022-08-06T21:25:55.444Z</time>
      </trkpt>
      <trkpt lat="47.07473" lon="15.75216">
        <ele>357.997307</ele>
        <time>2022-08-06T21:25:56.932Z</time>
      </trkpt>
      <trkpt lat="47.07487" lon="15.75408">
        <ele>366.493933</ele>
        <time>2022-08-06T21:27:08.692Z</time>
      </trkpt>
      <trkpt lat="47.07485" lon="15.75465">
        <ele>369.010248</ele>
        <time>2022-08-06T21:27:33.841Z</time>
      </trkpt>
      <trkpt lat="47.07471" lon="15.75515">
        <ele>371.910515</ele>
        <time>2022-08-06T21:27:59.607Z</time>
      </trkpt>
      <trkpt lat="47.07388" lon="15.75707">
        <ele>385.470903</ele>
        <time>2022-08-06T21:29:49.444Z</time>
      </trkpt>
      <trkpt lat="47.07372" lon="15.75751">
        <ele>388.178187</ele>
        <time>2022-08-06T21:30:10.405Z</time>
      </trkpt>
      <trkpt lat="47.07358" lon="15.75789">
        <ele>390.545795</ele>
        <time>2022-08-06T21:30:28.562Z</time>
      </trkpt>
      <trkpt lat="47.07342" lon="15.75859">
        <ele>394.559312</ele>
        <time>2022-08-06T21:31:00.126Z</time>
      </trkpt>
      <trkpt lat="47.07343" lon="15.75909">
        <ele>397.296608</ele>
        <time>2022-08-06T21:31:22.433Z</time>
      </trkpt>
      <trkpt lat="47.07353" lon="15.75949">
        <ele>399.617463</ele>
        <time>2022-08-06T21:31:41.775Z</time>
      </trkpt>
      <trkpt lat="47.0737" lon="15.75989">
        <ele>402.264819</ele>
        <time>2022-08-06T21:32:03.792Z</time>
      </trkpt>
      <trkpt lat="47.07431" lon="15.76092">
        <ele>410.081483</ele>
        <time>2022-08-06T21:33:07.957Z</time>
      </trkpt>
      <trkpt lat="47.07441" lon="15.76127">
        <ele>412.221285</ele>
        <time>2022-08-06T21:33:25.541Z</time>
      </trkpt>
      <trkpt lat="47.07441" lon="15.76148">
        <ele>413.435877</ele>
        <time>2022-08-06T21:33:35.206Z</time>
      </trkpt>
      <trkpt lat="47.07437" lon="15.76178">
        <ele>415.109908</ele>
        <time>2022-08-06T21:33:48.638Z</time>
      </trkpt>
      <trkpt lat="47.07426" lon="15.76203">
        <ele>416.160779</ele>
        <time>2022-08-06T21:34:01.959Z</time>
      </trkpt>
      <trkpt lat="47.07369" lon="15.76291">
        <ele>420.368171</ele>
        <time>2022-08-06T21:34:47.135Z</time>
      </trkpt>
      <trkpt lat="47.07348" lon="15.76385">
        <ele>423.813865</ele>
        <time>2022-08-06T21:35:15.511Z</time>
      </trkpt>
      <trkpt lat="47.07334" lon="15.76415">
        <ele>424.55543</ele>
        <time>2022-08-06T21:35:25.439Z</time>
      </trkpt>
      <trkpt lat="47.07322" lon="15.76426">
        <ele>424.810149</ele>
        <time>2022-08-06T21:35:30.922Z</time>
      </trkpt>
      <trkpt lat="47.07262" lon="15.76457">
        <ele>425.96348</ele>
        <time>2022-08-06T21:35:55.996Z</time>
      </trkpt>
      <trkpt lat="47.07218" lon="15.76471">
        <ele>426.778468</ele>
        <time>2022-08-06T21:36:11.794Z</time>
      </trkpt>
      <trkpt lat="47.07173" lon="15.76474">
        <ele>427.496286</ele>
        <time>2022-08-06T21:36:25.411Z</time>
      </trkpt>
      <trkpt lat="47.07052" lon="15.76457">
        <ele>426.839943</ele>
        <time>2022-08-06T21:36:53.417Z</time>
      </trkpt>
      <trkpt lat="47.07027" lon="15.76476">
        <ele>426.691118</ele>
        <time>2022-08-06T21:36:59.506Z</time>
      </trkpt>
      <trkpt lat="47.07016" lon="15.765">
        <ele>426.586639</ele>
        <time>2022-08-06T21:37:04.950Z</time>
      </trkpt>
      <trkpt lat="47.07012" lon="15.76525">
        <ele>426.712682</ele>
        <time>2022-08-06T21:37:08.922Z</time>
      </trkpt>
      <trkpt lat="47.07004" lon="15.76619">
        <ele>427.645074</ele>
        <time>2022-08-06T21:37:30.008Z</time>
      </trkpt>
      <trkpt lat="47.07014" lon="15.76685">
        <ele>428.314138</ele>
        <time>2022-08-06T21:37:47.076Z</time>
      </trkpt>
      <trkpt lat="47.07016" lon="15.76705">
        <ele>428.51924</ele>
        <time>2022-08-06T21:37:53.184Z</time>
      </trkpt>
      <trkpt lat="47.07008" lon="15.76782">
        <ele>429.294157</ele>
        <time>2022-08-06T21:38:11.980Z</time>
      </trkpt>
      <trkpt lat="47.06989" lon="15.76839">
        <ele>429.967515</ele>
        <time>2022-08-06T21:38:27.782Z</time>
      </trkpt>
      <trkpt lat="47.06964" lon="15.76907">
        <ele>430.788388</ele>
        <time>2022-08-06T21:38:47.382Z</time>
      </trkpt>
      <trkpt lat="47.06945" lon="15.76962">
        <ele>431.437527</ele>
        <time>2022-08-06T21:39:01.537Z</time>
      </trkpt>
      <trkpt lat="47.06929" lon="15.7703">
        <ele>432.058</ele>
        <time>2022-08-06T21:39:15.646Z</time>
      </trkpt>
      <trkpt lat="47.06892" lon="15.772">
        <ele>432.882316</ele>
        <time>2022-08-06T21:39:47.098Z</time>
      </trkpt>
      <trkpt lat="47.06886" lon="15.77228">
        <ele>433.019527</ele>
        <time>2022-08-06T21:39:54.531Z</time>
      </trkpt>
      <trkpt lat="47.06852" lon="15.77343">
        <ele>434.31106</ele>
        <time>2022-08-06T21:40:27.746Z</time>
      </trkpt>
      <trkpt lat="47.06816" lon="15.77437">
        <ele>435.64548</ele>
        <time>2022-08-06T21:40:53.168Z</time>
      </trkpt>
      <trkpt lat="47.06777" lon="15.77525">
        <ele>436.7935</ele>
        <time>2022-08-06T21:41:17.302Z</time>
      </trkpt>
      <trkpt lat="47.06772" lon="15.77522">
        <ele>436.854502</ele>
        <time>2022-08-06T21:41:18.982Z</time>
      </trkpt>
      <trkpt lat="47.06751" lon="15.77581">
        <ele>437.428074</ele>
        <time>2022-08-06T21:41:34.509Z</time>
      </trkpt>
      <trkpt lat="47.06746" lon="15.77611">
        <ele>437.689544</ele>
        <time>2022-08-06T21:41:41.382Z</time>
      </trkpt>
      <trkpt lat="47.06748" lon="15.77648">
        <ele>438.012462</ele>
        <time>2022-08-06T21:41:49.212Z</time>
      </trkpt>
      <trkpt lat="47.06763" lon="15.77696">
        <ele>438.46152</ele>
        <time>2022-08-06T21:42:00.698Z</time>
      </trkpt>
      <trkpt lat="47.06818" lon="15.77808">
        <ele>439.63691</ele>
        <time>2022-08-06T21:42:30.420Z</time>
      </trkpt>
      <trkpt lat="47.06833" lon="15.77867">
        <ele>440.168648</ele>
        <time>2022-08-06T21:42:44.536Z</time>
      </trkpt>
      <trkpt lat="47.06832" lon="15.77902">
        <ele>440.461341</ele>
        <time>2022-08-06T21:42:53.089Z</time>
      </trkpt>
      <trkpt lat="47.06821" lon="15.77992">
        <ele>441.382648</ele>
        <time>2022-08-06T21:43:13.266Z</time>
      </trkpt>
      <trkpt lat="47.06828" lon="15.77993">
        <ele>441.514989</ele>
        <time>2022-08-06T21:43:16.030Z</time>
      </trkpt>
      <trkpt lat="47.06827" lon="15.78047">
        <ele>442.201838</ele>
        <time>2022-08-06T21:43:27.987Z</time>
      </trkpt>
      <trkpt lat="47.06836" lon="15.78092">
        <ele>442.795092</ele>
        <time>2022-08-06T21:43:37.895Z</time>
      </trkpt>
      <trkpt lat="47.06839" lon="15.78099">
        <ele>442.90744</ele>
        <time>2022-08-06T21:43:40.869Z</time>
      </trkpt>
      <trkpt lat="47.06833" lon="15.78107">
        <ele>443.057727</ele>
        <time>2022-08-06T21:43:43.637Z</time>
      </trkpt>
      <trkpt lat="47.06825" lon="15.78119">
        <ele>443.270382</ele>
        <time>2022-08-06T21:43:46.911Z</time>
      </trkpt>
      <trkpt lat="47.06807" lon="15.78158">
        <ele>443.870702</ele>
        <time>2022-08-06T21:43:59.421Z</time>
      </trkpt>
      <trkpt lat="47.06791" lon="15.78282">
        <ele>445.853798</ele>
        <time>2022-08-06T21:44:35.224Z</time>
      </trkpt>
      <trkpt lat="47.06801" lon="15.78287">
        <ele>446.114206</ele>
        <time>2022-08-06T21:44:40.404Z</time>
      </trkpt>
      <trkpt lat="47.06833" lon="15.78275">
        <ele>446.91933</ele>
        <time>2022-08-06T21:44:52.406Z</time>
      </trkpt>
      <trkpt lat="47.06861" lon="15.78277">
        <ele>447.612089</ele>
        <time>2022-08-06T21:45:03.370Z</time>
      </trkpt>
      <trkpt lat="47.06878" lon="15.78282">
        <ele>448.0472</ele>
        <time>2022-08-06T21:45:10.954Z</time>
      </trkpt>
      <trkpt lat="47.06886" lon="15.78294">
        <ele>448.317694</ele>
        <time>2022-08-06T21:45:14.758Z</time>
      </trkpt>
      <trkpt lat="47.06936" lon="15.78399">
        <ele>449.150621</ele>
        <time>2022-08-06T21:45:45.784Z</time>
      </trkpt>
      <trkpt lat="47.06949" lon="15.78438">
        <ele>449.31576</ele>
        <time>2022-08-06T21:45:54.881Z</time>
      </trkpt>
      <trkpt lat="47.06959" lon="15.78484">
        <ele>449.500289</ele>
        <time>2022-08-06T21:46:03.602Z</time>
      </trkpt>
      <trkpt lat="47.06961" lon="15.7863">
        <ele>449.202005</ele>
        <time>2022-08-06T21:46:28.906Z</time>
      </trkpt>
      <trkpt lat="47.06939" lon="15.78829">
        <ele>447.534221</ele>
        <time>2022-08-06T21:47:01.278Z</time>
      </trkpt>
      <trkpt lat="47.0694" lon="15.7894">
        <ele>445.261777</ele>
        <time>2022-08-06T21:47:18.267Z</time>
      </trkpt>
      <trkpt lat="47.06869" lon="15.79143">
        <ele>438.317182</ele>
        <time>2022-08-06T21:47:48.869Z</time>
      </trkpt>
      <trkpt lat="47.06843" lon="15.79255">
        <ele>432.839717</ele>
        <time>2022-08-06T21:48:03.445Z</time>
      </trkpt>
      <trkpt lat="47.06763" lon="15.79461">
        <ele>417.51166</ele>
        <time>2022-08-06T21:48:30.910Z</time>
      </trkpt>
      <trkpt lat="47.06728" lon="15.7952">
        <ele>412.015938</ele>
        <time>2022-08-06T21:48:39.851Z</time>
      </trkpt>
      <trkpt lat="47.06715" lon="15.79571">
        <ele>408.402575</ele>
        <time>2022-08-06T21:48:46.153Z</time>
      </trkpt>
      <trkpt lat="47.06716" lon="15.7975">
        <ele>396.646766</ele>
        <time>2022-08-06T21:49:07.185Z</time>
      </trkpt>
      <trkpt lat="47.06725" lon="15.79782">
        <ele>394.340901</ele>
        <time>2022-08-06T21:49:11.303Z</time>
      </trkpt>
      <trkpt lat="47.06753" lon="15.79844">
        <ele>389.014542</ele>
        <time>2022-08-06T21:49:19.907Z</time>
      </trkpt>
      <trkpt lat="47.06764" lon="15.79856">
        <ele>387.524783</ele>
        <time>2022-08-06T21:49:22.299Z</time>
      </trkpt>
      <trkpt lat="47.06792" lon="15.79868">
        <ele>384.459513</ele>
        <time>2022-08-06T21:49:27.187Z</time>
      </trkpt>
      <trkpt lat="47.06801" lon="15.79869">
        <ele>383.522545</ele>
        <time>2022-08-06T21:49:28.683Z</time>
      </trkpt>
      <trkpt lat="47.06815" lon="15.79883">
        <ele>381.672687</ele>
        <time>2022-08-06T21:49:31.605Z</time>
      </trkpt>
      <trkpt lat="47.06822" lon="15.79904">
        <ele>380.009582</ele>
        <time>2022-08-06T21:49:34.279Z</time>
      </trkpt>
      <trkpt lat="47.06823" lon="15.79932">
        <ele>377.959727</ele>
        <time>2022-08-06T21:49:37.523Z</time>
      </trkpt>
      <trkpt lat="47.06807" lon="15.79988">
        <ele>374.023441</ele>
        <time>2022-08-06T21:49:44.459Z</time>
      </trkpt>
      <trkpt lat="47.06797" lon="15.80019">
        <ele>372.216271</ele>
        <time>2022-08-06T21:49:48.380Z</time>
      </trkpt>
      <trkpt lat="47.06769" lon="15.80119">
        <ele>366.452215</ele>
        <time>2022-08-06T21:50:01.089Z</time>
      </trkpt>
      <trkpt lat="47.06762" lon="15.80143">
        <ele>365.012253</ele>
        <time>2022-08-06T21:50:04.450Z</time>
      </trkpt>
      <trkpt lat="47.06761" lon="15.80163">
        <ele>363.979235</ele>
        <time>2022-08-06T21:50:06.894Z</time>
      </trkpt>
      <trkpt lat="47.06765" lon="15.80188">
        <ele>362.582438</ele>
        <time>2022-08-06T21:50:10.344Z</time>
      </trkpt>
      <trkpt lat="47.06769" lon="15.80201">
        <ele>361.829181</ele>
        <time>2022-08-06T21:50:12.229Z</time>
      </trkpt>
      <trkpt lat="47.06742" lon="15.80242">
        <ele>360.765171</ele>
        <time>2022-08-06T21:50:19.873Z</time>
      </trkpt>
      <trkpt lat="47.06737" lon="15.80256">
        <ele>360.642177</ele>
        <time>2022-08-06T21:50:22.106Z</time>
      </trkpt>
      <trkpt lat="47.06724" lon="15.80295">
        <ele>360.310673</ele>
        <time>2022-08-06T21:50:28.855Z</time>
      </trkpt>
      <trkpt lat="47.06722" lon="15.803">
        <ele>360.266757</ele>
        <time>2022-08-06T21:50:29.688Z</time>
      </trkpt>
      <trkpt lat="47.06719" lon="15.80301">
        <ele>360.235266</ele>
        <time>2022-08-06T21:50:30.379Z</time>
      </trkpt>
      <trkpt lat="47.0671" lon="15.80347">
        <ele>359.863067</ele>
        <time>2022-08-06T21:50:39.474Z</time>
      </trkpt>
      <trkpt lat="47.06697" lon="15.80419">
        <ele>359.292534</ele>
        <time>2022-08-06T21:50:53.901Z</time>
      </trkpt>
      <trkpt lat="47.06692" lon="15.80457">
        <ele>359.062698</ele>
        <time>2022-08-06T21:51:00.116Z</time>
      </trkpt>
      <trkpt lat="47.06686" lon="15.80469">
        <ele>359.046147</ele>
        <time>2022-08-06T21:51:03.430Z</time>
      </trkpt>
      <trkpt lat="47.06685" lon="15.80472">
        <ele>359.042261</ele>
        <time>2022-08-06T21:51:04.086Z</time>
      </trkpt>
      <trkpt lat="47.06687" lon="15.80489">
        <ele>359.023529</ele>
        <time>2022-08-06T21:51:07.130Z</time>
      </trkpt>
      <trkpt lat="47.0668" lon="15.8051">
        <ele>358.997348</ele>
        <time>2022-08-06T21:51:10.894Z</time>
      </trkpt>
      <trkpt lat="47.06638" lon="15.8056">
        <ele>358.908383</ele>
        <time>2022-08-06T21:51:26.446Z</time>
      </trkpt>
      <trkpt lat="47.06641" lon="15.80563">
        <ele>358.901735</ele>
        <time>2022-08-06T21:51:27.360Z</time>
      </trkpt>
      <trkpt lat="47.06647" lon="15.8057">
        <ele>358.889473</ele>
        <time>2022-08-06T21:51:29.024Z</time>
      </trkpt>
      <trkpt lat="47.0665" lon="15.80571">
        <ele>358.885436</ele>
        <time>2022-08-06T21:51:29.604Z</time>
      </trkpt>
      <trkpt lat="47.06641" lon="15.80597">
        <ele>358.853298</ele>
        <time>2022-08-06T21:51:35.673Z</time>
      </trkpt>
      <trkpt lat="47.06635" lon="15.80613">
        <ele>358.832341</ele>
        <time>2022-08-06T21:51:38.504Z</time>
      </trkpt>
      <trkpt lat="47.06588" lon="15.80729">
        <ele>357.94989</ele>
        <time>2022-08-06T21:52:00.956Z</time>
      </trkpt>
      <trkpt lat="47.06543" lon="15.80842">
        <ele>356.698359</ele>
        <time>2022-08-06T21:52:20.468Z</time>
      </trkpt>
      <trkpt lat="47.06492" lon="15.80988">
        <ele>353.98405</ele>
        <time>2022-08-06T21:52:43.334Z</time>
      </trkpt>
      <trkpt lat="47.06439" lon="15.81068">
        <ele>351.825443</ele>
        <time>2022-08-06T21:52:58.185Z</time>
      </trkpt>
      <trkpt lat="47.06334" lon="15.81193">
        <ele>348.424998</ele>
        <time>2022-08-06T21:53:24.525Z</time>
      </trkpt>
      <trkpt lat="47.0632" lon="15.81202">
        <ele>348.041804</ele>
        <time>2022-08-06T21:53:27.844Z</time>
      </trkpt>
      <trkpt lat="47.06283" lon="15.81253">
        <ele>346.798184</ele>
        <time>2022-08-06T21:53:39.072Z</time>
      </trkpt>
      <trkpt lat="47.06252" lon="15.81315">
        <ele>346.479393</ele>
        <time>2022-08-06T21:53:51.680Z</time>
      </trkpt>
      <trkpt lat="47.06248" lon="15.81341">
        <ele>346.384832</ele>
        <time>2022-08-06T21:53:56.061Z</time>
      </trkpt>
      <trkpt lat="47.06241" lon="15.81352">
        <ele>346.334624</ele>
        <time>2022-08-06T21:53:58.807Z</time>
      </trkpt>
      <trkpt lat="47.06226" lon="15.81412">
        <ele>346.107936</ele>
        <time>2022-08-06T21:54:10.313Z</time>
      </trkpt>
      <trkpt lat="47.06217" lon="15.81468">
        <ele>345.907711</ele>
        <time>2022-08-06T21:54:21.426Z</time>
      </trkpt>
      <trkpt lat="47.06151" lon="15.8187">
        <ele>342.510426</ele>
        <time>2022-08-06T21:55:26.528Z</time>
      </trkpt>
      <trkpt lat="47.0614" lon="15.81908">
        <ele>341.963142</ele>
        <time>2022-08-06T21:55:32.077Z</time>
      </trkpt>
      <trkpt lat="47.06141" lon="15.81926">
        <ele>341.717794</ele>
        <time>2022-08-06T21:55:34.704Z</time>
      </trkpt>
      <trkpt lat="47.06132" lon="15.81949">
        <ele>341.356932</ele>
        <time>2022-08-06T21:55:38.263Z</time>
      </trkpt>
      <trkpt lat="47.06122" lon="15.81968">
        <ele>341.036652</ele>
        <time>2022-08-06T21:55:41.646Z</time>
      </trkpt>
      <trkpt lat="47.06122" lon="15.81977">
        <ele>340.919507</ele>
        <time>2022-08-06T21:55:42.818Z</time>
      </trkpt>
      <trkpt lat="47.06125" lon="15.81992">
        <ele>340.698965</ele>
        <time>2022-08-06T21:55:44.969Z</time>
      </trkpt>
      <trkpt lat="47.06128" lon="15.82002">
        <ele>340.547445</ele>
        <time>2022-08-06T21:55:46.376Z</time>
      </trkpt>
      <trkpt lat="47.06121" lon="15.82045">
        <ele>339.755514</ele>
        <time>2022-08-06T21:55:52.400Z</time>
      </trkpt>
      <trkpt lat="47.0609" lon="15.82136">
        <ele>337.951607</ele>
        <time>2022-08-06T21:56:06.024Z</time>
      </trkpt>
      <trkpt lat="47.05958" lon="15.82426">
        <ele>332.775808</ele>
        <time>2022-08-06T21:56:56.107Z</time>
      </trkpt>
      <trkpt lat="47.05919" lon="15.82526">
        <ele>331.530115</ele>
        <time>2022-08-06T21:57:12.926Z</time>
      </trkpt>
      <trkpt lat="47.05898" lon="15.82595">
        <ele>330.783042</ele>
        <time>2022-08-06T21:57:24.177Z</time>
      </trkpt>
      <trkpt lat="47.05879" lon="15.82684">
        <ele>329.848183</ele>
        <time>2022-08-06T21:57:38.670Z</time>
      </trkpt>
      <trkpt lat="47.05873" lon="15.82744">
        <ele>329.501685</ele>
        <time>2022-08-06T21:57:48.048Z</time>
      </trkpt>
      <trkpt lat="47.05834" lon="15.82975">
        <ele>328.371365</ele>
        <time>2022-08-06T21:58:27.558Z</time>
      </trkpt>
      <trkpt lat="47.05829" lon="15.83007">
        <ele>328.271645</ele>
        <time>2022-08-06T21:58:32.914Z</time>
      </trkpt>
      <trkpt lat="47.05815" lon="15.83083">
        <ele>328.029108</ele>
        <time>2022-08-06T21:58:46.708Z</time>
      </trkpt>
      <trkpt lat="47.05806" lon="15.83123">
        <ele>327.900366</ele>
        <time>2022-08-06T21:58:54.046Z</time>
      </trkpt>
      <trkpt lat="47.05774" lon="15.83207">
        <ele>327.574409</ele>
        <time>2022-08-06T21:59:10.063Z</time>
      </trkpt>
      <trkpt lat="47.05766" lon="15.83224">
        <ele>327.45493</ele>
        <time>2022-08-06T21:59:13.581Z</time>
      </trkpt>
      <trkpt lat="47.05764" lon="15.83236">
        <ele>327.386947</ele>
        <time>2022-08-06T21:59:15.445Z</time>
      </trkpt>
      <trkpt lat="47.05727" lon="15.83312">
        <ele>326.843406</ele>
        <time>2022-08-06T21:59:30.564Z</time>
      </trkpt>
      <trkpt lat="47.05702" lon="15.83364">
        <ele>326.475348</ele>
        <time>2022-08-06T21:59:40.758Z</time>
      </trkpt>
      <trkpt lat="47.05612" lon="15.83545">
        <ele>325.150957</ele>
        <time>2022-08-06T22:00:15.842Z</time>
      </trkpt>
      <trkpt lat="47.05616" lon="15.83551">
        <ele>325.098563</ele>
        <time>2022-08-06T22:00:17.539Z</time>
      </trkpt>
      <trkpt lat="47.05595" lon="15.83597">
        <ele>324.76897</ele>
        <time>2022-08-06T22:00:27.474Z</time>
      </trkpt>
      <trkpt lat="47.05581" lon="15.83626">
        <ele>324.555233</ele>
        <time>2022-08-06T22:00:33.524Z</time>
      </trkpt>
      <trkpt lat="47.05579" lon="15.8363">
        <ele>324.527128</ele>
        <time>2022-08-06T22:00:34.477Z</time>
      </trkpt>
      <trkpt lat="47.05576" lon="15.83636">
        <ele>324.498489</ele>
        <time>2022-08-06T22:00:35.814Z</time>
      </trkpt>
      <trkpt lat="47.05569" lon="15.83648">
        <ele>324.435743</ele>
        <time>2022-08-06T22:00:38.411Z</time>
      </trkpt>
      <trkpt lat="47.05552" lon="15.83689">
        <ele>324.244134</ele>
        <time>2022-08-06T22:00:45.998Z</time>
      </trkpt>
      <trkpt lat="47.05545" lon="15.83704">
        <ele>324.172358</ele>
        <time>2022-08-06T22:00:48.780Z</time>
      </trkpt>
      <trkpt lat="47.05526" lon="15.83756">
        <ele>323.936772</ele>
        <time>2022-08-06T22:00:58.154Z</time>
      </trkpt>
      <trkpt lat="47.05518" lon="15.83774">
        <ele>323.854709</ele>
        <time>2022-08-06T22:01:01.525Z</time>
      </trkpt>
      <trkpt lat="47.05497" lon="15.8384">
        <ele>323.561945</ele>
        <time>2022-08-06T22:01:14.223Z</time>
      </trkpt>
      <trkpt lat="47.05491" lon="15.83875">
        <ele>323.541419</ele>
        <time>2022-08-06T22:01:20.784Z</time>
      </trkpt>
      <trkpt lat="47.05483" lon="15.8393">
        <ele>323.744385</ele>
        <time>2022-08-06T22:01:31.436Z</time>
      </trkpt>
      <trkpt lat="47.05479" lon="15.83952">
        <ele>323.825924</ele>
        <time>2022-08-06T22:01:35.857Z</time>
      </trkpt>
      <trkpt lat="47.05473" lon="15.83988">
        <ele>323.956703</ele>
        <time>2022-08-06T22:01:42.806Z</time>
      </trkpt>
      <trkpt lat="47.0547" lon="15.84003">
        <ele>324.012921</ele>
        <time>2022-08-06T22:01:45.823Z</time>
      </trkpt>
      <trkpt lat="47.05466" lon="15.8402">
        <ele>324.078332</ele>
        <time>2022-08-06T22:01:49.391Z</time>
      </trkpt>
      <trkpt lat="47.05459" lon="15.84055">
        <ele>324.208654</ele>
        <time>2022-08-06T22:01:56.881Z</time>
      </trkpt>
      <trkpt lat="47.05453" lon="15.84082">
        <ele>324.312301</ele>
        <time>2022-08-06T22:02:03.047Z</time>
      </trkpt>
      <trkpt lat="47.05447" lon="15.84121">
        <ele>324.470666</ele>
        <time>2022-08-06T22:02:11.884Z</time>
      </trkpt>
      <trkpt lat="47.05444" lon="15.84143">
        <ele>324.613776</ele>
        <time>2022-08-06T22:02:17.020Z</time>
      </trkpt>
      <trkpt lat="47.05439" lon="15.84179">
        <ele>324.839513</ele>
        <time>2022-08-06T22:02:25.236Z</time>
      </trkpt>
      <trkpt lat="47.0543" lon="15.84247">
        <ele>325.277771</ele>
        <time>2022-08-06T22:02:41.542Z</time>
      </trkpt>
      <trkpt lat="47.05429" lon="15.84252">
        <ele>325.305975</ele>
        <time>2022-08-06T22:02:42.599Z</time>
      </trkpt>
      <trkpt lat="47.05428" lon="15.84258">
        <ele>325.343715</ele>
        <time>2022-08-06T22:02:44.017Z</time>
      </trkpt>
      <trkpt lat="47.05425" lon="15.84282">
        <ele>325.494474</ele>
        <time>2022-08-06T22:02:49.349Z</time>
      </trkpt>
      <trkpt lat="47.05422" lon="15.84321">
        <ele>325.740518</ele>
        <time>2022-08-06T22:02:57.651Z</time>
      </trkpt>
      <trkpt lat="47.05418" lon="15.84343">
        <ele>325.884237</ele>
        <time>2022-08-06T22:03:02.154Z</time>
      </trkpt>
      <trkpt lat="47.05405" lon="15.84402">
        <ele>325.878527</ele>
        <time>2022-08-06T22:03:13.180Z</time>
      </trkpt>
      <trkpt lat="47.05401" lon="15.84422">
        <ele>325.737457</ele>
        <time>2022-08-06T22:03:16.846Z</time>
      </trkpt>
      <trkpt lat="47.05399" lon="15.84434">
        <ele>325.655092</ele>
        <time>2022-08-06T22:03:18.908Z</time>
      </trkpt>
      <trkpt lat="47.05395" lon="15.84453">
        <ele>325.528381</ele>
        <time>2022-08-06T22:03:21.899Z</time>
      </trkpt>
      <trkpt lat="47.05395" lon="15.84454">
        <ele>325.518383</ele>
        <time>2022-08-06T22:03:22.141Z</time>
      </trkpt>
      <trkpt lat="47.05393" lon="15.84463">
        <ele>325.455411</ele>
        <time>2022-08-06T22:03:23.713Z</time>
      </trkpt>
      <trkpt lat="47.05392" lon="15.84465">
        <ele>325.441019</ele>
        <time>2022-08-06T22:03:24.069Z</time>
      </trkpt>
      <trkpt lat="47.05392" lon="15.84467">
        <ele>325.42841</ele>
        <time>2022-08-06T22:03:24.378Z</time>
      </trkpt>
      <trkpt lat="47.05385" lon="15.84487">
        <ele>325.285011</ele>
        <time>2022-08-06T22:03:27.747Z</time>
      </trkpt>
      <trkpt lat="47.05373" lon="15.84515">
        <ele>325.063936</ele>
        <time>2022-08-06T22:03:32.937Z</time>
      </trkpt>
      <trkpt lat="47.05363" lon="15.84534">
        <ele>324.909206</ele>
        <time>2022-08-06T22:03:36.423Z</time>
      </trkpt>
      <trkpt lat="47.05354" lon="15.84548">
        <ele>324.780629</ele>
        <time>2022-08-06T22:03:39.421Z</time>
      </trkpt>
      <trkpt lat="47.05342" lon="15.84567">
        <ele>324.607539</ele>
        <time>2022-08-06T22:03:43.424Z</time>
      </trkpt>
      <trkpt lat="47.05339" lon="15.84564">
        <ele>324.576737</ele>
        <time>2022-08-06T22:03:44.059Z</time>
      </trkpt>
      <trkpt lat="47.05318" lon="15.84595">
        <ele>324.2756</ele>
        <time>2022-08-06T22:03:50.622Z</time>
      </trkpt>
      <trkpt lat="47.05307" lon="15.84619">
        <ele>324.042915</ele>
        <time>2022-08-06T22:03:54.796Z</time>
      </trkpt>
      <trkpt lat="47.05227" lon="15.8477">
        <ele>322.49288</ele>
        <time>2022-08-06T22:04:23.884Z</time>
      </trkpt>
      <trkpt lat="47.05191" lon="15.84852">
        <ele>322.022789</ele>
        <time>2022-08-06T22:04:40.551Z</time>
      </trkpt>
      <trkpt lat="47.05145" lon="15.84972">
        <ele>321.631242</ele>
        <time>2022-08-06T22:05:04.184Z</time>
      </trkpt>
      <trkpt lat="47.0511" lon="15.85096">
        <ele>321.256841</ele>
        <time>2022-08-06T22:05:27.550Z</time>
      </trkpt>
      <trkpt lat="47.05088" lon="15.85215">
        <ele>320.917606</ele>
        <time>2022-08-06T22:05:48.268Z</time>
      </trkpt>
      <trkpt lat="47.05066" lon="15.85377">
        <ele>320.337863</ele>
        <time>2022-08-06T22:06:16.750Z</time>
      </trkpt>
      <trkpt lat="47.0506" lon="15.85465">
        <ele>319.977276</ele>
        <time>2022-08-06T22:06:30.734Z</time>
      </trkpt>
      <trkpt lat="47.05063" lon="15.85466">
        <ele>319.95873</ele>
        <time>2022-08-06T22:06:31.513Z</time>
      </trkpt>
      <trkpt lat="47.05061" lon="15.85521">
        <ele>319.73503</ele>
        <time>2022-08-06T22:06:40.586Z</time>
      </trkpt>
      <trkpt lat="47.05061" lon="15.85556">
        <ele>319.550611</ele>
        <time>2022-08-06T22:06:46.708Z</time>
      </trkpt>
      <trkpt lat="47.05062" lon="15.85626">
        <ele>319.047327</ele>
        <time>2022-08-06T22:06:58.502Z</time>
      </trkpt>
      <trkpt lat="47.05073" lon="15.8579">
        <ele>317.875135</ele>
        <time>2022-08-06T22:07:24.032Z</time>
      </trkpt>
      <trkpt lat="47.05073" lon="15.85795">
        <ele>317.837796</ele>
        <time>2022-08-06T22:07:24.850Z</time>
      </trkpt>
      <trkpt lat="47.05074" lon="15.85798">
        <ele>317.814748</ele>
        <time>2022-08-06T22:07:25.334Z</time>
      </trkpt>
      <trkpt lat="47.05074" lon="15.85801">
        <ele>317.793113</ele>
        <time>2022-08-06T22:07:25.783Z</time>
      </trkpt>
      <trkpt lat="47.05098" lon="15.86045">
        <ele>314.409006</ele>
        <time>2022-08-06T22:08:01.110Z</time>
      </trkpt>
      <trkpt lat="47.05109" lon="15.86227">
        <ele>311.484703</ele>
        <time>2022-08-06T22:08:26.199Z</time>
      </trkpt>
      <trkpt lat="47.0511" lon="15.86252">
        <ele>311.063993</ele>
        <time>2022-08-06T22:08:29.858Z</time>
      </trkpt>
      <trkpt lat="47.05111" lon="15.86312">
        <ele>310.090517</ele>
        <time>2022-08-06T22:08:38.206Z</time>
      </trkpt>
      <trkpt lat="47.05112" lon="15.86335">
        <ele>309.76999</ele>
        <time>2022-08-06T22:08:41.449Z</time>
      </trkpt>
      <trkpt lat="47.05112" lon="15.86346">
        <ele>309.704503</ele>
        <time>2022-08-06T22:08:43.137Z</time>
      </trkpt>
      <trkpt lat="47.05114" lon="15.8642">
        <ele>309.289828</ele>
        <time>2022-08-06T22:08:53.976Z</time>
      </trkpt>
      <trkpt lat="47.05116" lon="15.8646">
        <ele>309.062411</ele>
        <time>2022-08-06T22:09:00.408Z</time>
      </trkpt>
      <trkpt lat="47.05116" lon="15.86463">
        <ele>309.043205</ele>
        <time>2022-08-06T22:09:00.951Z</time>
      </trkpt>
      <trkpt lat="47.0512" lon="15.86517">
        <ele>308.739551</ele>
        <time>2022-08-06T22:09:09.988Z</time>
      </trkpt>
      <trkpt lat="47.05115" lon="15.86518">
        <ele>308.703398</ele>
        <time>2022-08-06T22:09:11.015Z</time>
      </trkpt>
      <trkpt lat="47.05127" lon="15.86585">
        <ele>308.313313</ele>
        <time>2022-08-06T22:09:23.699Z</time>
      </trkpt>
      <trkpt lat="47.05146" lon="15.86639">
        <ele>308.696842</ele>
        <time>2022-08-06T22:09:35.919Z</time>
      </trkpt>
      <trkpt lat="47.05157" lon="15.86664">
        <ele>308.894141</ele>
        <time>2022-08-06T22:09:42.329Z</time>
      </trkpt>
      <trkpt lat="47.0518" lon="15.86704">
        <ele>309.239383</ele>
        <time>2022-08-06T22:09:53.712Z</time>
      </trkpt>
      <trkpt lat="47.05186" lon="15.86713">
        <ele>309.322368</ele>
        <time>2022-08-06T22:09:56.479Z</time>
      </trkpt>
      <trkpt lat="47.05191" lon="15.86719">
        <ele>309.383348</ele>
        <time>2022-08-06T22:09:58.599Z</time>
      </trkpt>
      <trkpt lat="47.05201" lon="15.86731">
        <ele>309.507963</ele>
        <time>2022-08-06T22:10:03.027Z</time>
      </trkpt>
      <trkpt lat="47.05223" lon="15.86778">
        <ele>309.880148</ele>
        <time>2022-08-06T22:10:16.010Z</time>
      </trkpt>
      <trkpt lat="47.05231" lon="15.86829">
        <ele>310.039476</ele>
        <time>2022-08-06T22:10:27.888Z</time>
      </trkpt>
      <trkpt lat="47.05225" lon="15.86885">
        <ele>310.040414</ele>
        <time>2022-08-06T22:10:39.899Z</time>
      </trkpt>
      <trkpt lat="47.05216" lon="15.8694">
        <ele>310.041331</ele>
        <time>2022-08-06T22:10:50.507Z</time>
      </trkpt>
      <trkpt lat="47.0519" lon="15.87012">
        <ele>310.042666</ele>
        <time>2022-08-06T22:11:04.050Z</time>
      </trkpt>
      <trkpt lat="47.05147" lon="15.87106">
        <ele>309.373916</ele>
        <time>2022-08-06T22:11:21.331Z</time>
      </trkpt>
      <trkpt lat="47.05115" lon="15.87216">
        <ele>308.267419</ele>
        <time>2022-08-06T22:11:39.202Z</time>
      </trkpt>
      <trkpt lat="47.05089" lon="15.87349">
        <ele>307.133884</ele>
        <time>2022-08-06T22:12:00.271Z</time>
      </trkpt>
      <trkpt lat="47.05079" lon="15.87403">
        <ele>306.741658</ele>
        <time>2022-08-06T22:12:09.101Z</time>
      </trkpt>
      <trkpt lat="47.05068" lon="15.87412">
        <ele>306.605411</ele>
        <time>2022-08-06T22:12:12.212Z</time>
      </trkpt>
      <trkpt lat="47.0502" lon="15.87531">
        <ele>305.656664</ele>
        <time>2022-08-06T22:12:35.707Z</time>
      </trkpt>
      <trkpt lat="47.05007" lon="15.876">
        <ele>305.277097</ele>
        <time>2022-08-06T22:12:47.379Z</time>
      </trkpt>
      <trkpt lat="47.05006" lon="15.87664">
        <ele>304.936862</ele>
        <time>2022-08-06T22:12:58.365Z</time>
      </trkpt>
      <trkpt lat="47.0501" lon="15.87674">
        <ele>304.873025</ele>
        <time>2022-08-06T22:13:00.519Z</time>
      </trkpt>
      <trkpt lat="47.04999" lon="15.87698">
        <ele>304.723691</ele>
        <time>2022-08-06T22:13:05.117Z</time>
      </trkpt>
      <trkpt lat="47.04998" lon="15.87701">
        <ele>304.70267</ele>
        <time>2022-08-06T22:13:05.772Z</time>
      </trkpt>
      <trkpt lat="47.04978" lon="15.87744">
        <ele>304.429841</ele>
        <time>2022-08-06T22:13:14.339Z</time>
      </trkpt>
      <trkpt lat="47.04948" lon="15.87798">
        <ele>303.930675</ele>
        <time>2022-08-06T22:13:25.679Z</time>
      </trkpt>
      <trkpt lat="47.04895" lon="15.87879">
        <ele>303.053224</ele>
        <time>2022-08-06T22:13:43.191Z</time>
      </trkpt>
      <trkpt lat="47.04891" lon="15.87884">
        <ele>302.990791</ele>
        <time>2022-08-06T22:13:44.409Z</time>
      </trkpt>
      <trkpt lat="47.04872" lon="15.87907">
        <ele>302.712071</ele>
        <time>2022-08-06T22:13:49.899Z</time>
      </trkpt>
      <trkpt lat="47.04802" lon="15.88004">
        <ele>301.238324</ele>
        <time>2022-08-06T22:14:11.011Z</time>
      </trkpt>
      <trkpt lat="47.04784" lon="15.8803">
        <ele>300.800113</ele>
        <time>2022-08-06T22:14:16.302Z</time>
      </trkpt>
      <trkpt lat="47.04733" lon="15.88115">
        <ele>299.42798</ele>
        <time>2022-08-06T22:14:32.749Z</time>
      </trkpt>
      <trkpt lat="47.04728" lon="15.88124">
        <ele>299.296239</ele>
        <time>2022-08-06T22:14:34.325Z</time>
      </trkpt>
      <trkpt lat="47.04722" lon="15.88135">
        <ele>299.125358</ele>
        <time>2022-08-06T22:14:36.348Z</time>
      </trkpt>
      <trkpt lat="47.04668" lon="15.88246">
        <ele>297.873542</ele>
        <time>2022-08-06T22:14:56.836Z</time>
      </trkpt>
      <trkpt lat="47.0464" lon="15.88315">
        <ele>297.136302</ele>
        <time>2022-08-06T22:15:09.396Z</time>
      </trkpt>
      <trkpt lat="47.04612" lon="15.88399">
        <ele>296.391505</ele>
        <time>2022-08-06T22:15:24.095Z</time>
      </trkpt>
      <trkpt lat="47.04597" lon="15.88456">
        <ele>295.976731</ele>
        <time>2022-08-06T22:15:33.636Z</time>
      </trkpt>
      <trkpt lat="47.04593" lon="15.88471">
        <ele>295.864979</ele>
        <time>2022-08-06T22:15:36.156Z</time>
      </trkpt>
      <trkpt lat="47.04559" lon="15.88655">
        <ele>294.630237</ele>
        <time>2022-08-06T22:16:06.382Z</time>
      </trkpt>
      <trkpt lat="47.04548" lon="15.88774">
        <ele>293.962566</ele>
        <time>2022-08-06T22:16:25.484Z</time>
      </trkpt>
      <trkpt lat="47.04546" lon="15.88893">
        <ele>293.374811</ele>
        <time>2022-08-06T22:16:45.068Z</time>
      </trkpt>
      <trkpt lat="47.04548" lon="15.88955">
        <ele>293.219203</ele>
        <time>2022-08-06T22:16:55.606Z</time>
      </trkpt>
      <trkpt lat="47.04555" lon="15.89057">
        <ele>292.965609</ele>
        <time>2022-08-06T22:17:13.541Z</time>
      </trkpt>
      <trkpt lat="47.04563" lon="15.89117">
        <ele>292.813371</ele>
        <time>2022-08-06T22:17:24.128Z</time>
      </trkpt>
      <trkpt lat="47.04575" lon="15.89191">
        <ele>292.807255</ele>
        <time>2022-08-06T22:17:37.183Z</time>
      </trkpt>
      <trkpt lat="47.04588" lon="15.89249">
        <ele>292.836048</ele>
        <time>2022-08-06T22:17:48.523Z</time>
      </trkpt>
      <trkpt lat="47.04606" lon="15.89321">
        <ele>292.872558</ele>
        <time>2022-08-06T22:18:03.168Z</time>
      </trkpt>
      <trkpt lat="47.04611" lon="15.89334">
        <ele>292.879657</ele>
        <time>2022-08-06T22:18:06.104Z</time>
      </trkpt>
      <trkpt lat="47.04613" lon="15.89343">
        <ele>292.884394</ele>
        <time>2022-08-06T22:18:08.147Z</time>
      </trkpt>
      <trkpt lat="47.04624" lon="15.89377">
        <ele>292.901758</ele>
        <time>2022-08-06T22:18:15.098Z</time>
      </trkpt>
      <trkpt lat="47.04634" lon="15.89403">
        <ele>292.866829</ele>
        <time>2022-08-06T22:18:20.850Z</time>
      </trkpt>
      <trkpt lat="47.04649" lon="15.8943">
        <ele>292.820136</ele>
        <time>2022-08-06T22:18:27.052Z</time>
      </trkpt>
      <trkpt lat="47.04678" lon="15.89475">
        <ele>292.7373</ele>
        <time>2022-08-06T22:18:37.630Z</time>
      </trkpt>
      <trkpt lat="47.04695" lon="15.89511">
        <ele>292.677503</ele>
        <time>2022-08-06T22:18:45.097Z</time>
      </trkpt>
      <trkpt lat="47.04702" lon="15.89534">
        <ele>292.644848</ele>
        <time>2022-08-06T22:18:49.203Z</time>
      </trkpt>
      <trkpt lat="47.04704" lon="15.89544">
        <ele>292.629945</ele>
        <time>2022-08-06T22:18:51.080Z</time>
      </trkpt>
      <trkpt lat="47.04714" lon="15.8965">
        <ele>292.509539</ele>
        <time>2022-08-06T22:19:09.837Z</time>
      </trkpt>
      <trkpt lat="47.04715" lon="15.89657">
        <ele>292.503316</ele>
        <time>2022-08-06T22:19:11.100Z</time>
      </trkpt>
      <trkpt lat="47.04721" lon="15.89702">
        <ele>292.464901</ele>
        <time>2022-08-06T22:19:18.956Z</time>
      </trkpt>
      <trkpt lat="47.04727" lon="15.8973">
        <ele>292.439759</ele>
        <time>2022-08-06T22:19:24.158Z</time>
      </trkpt>
      <trkpt lat="47.04731" lon="15.89738">
        <ele>292.432152</ele>
        <time>2022-08-06T22:19:25.766Z</time>
      </trkpt>
      <trkpt lat="47.04747" lon="15.89773">
        <ele>292.396368</ele>
        <time>2022-08-06T22:19:33.332Z</time>
      </trkpt>
      <trkpt lat="47.04782" lon="15.89822">
        <ele>292.335977</ele>
        <time>2022-08-06T22:19:46.564Z</time>
      </trkpt>
      <trkpt lat="47.04785" lon="15.89826">
        <ele>292.331253</ele>
        <time>2022-08-06T22:19:47.573Z</time>
      </trkpt>
      <trkpt lat="47.04788" lon="15.8983">
        <ele>292.326058</ele>
        <time>2022-08-06T22:19:48.728Z</time>
      </trkpt>
      <trkpt lat="47.04809" lon="15.89861">
        <ele>292.300302</ele>
        <time>2022-08-06T22:19:56.851Z</time>
      </trkpt>
      <trkpt lat="47.04829" lon="15.89892">
        <ele>292.275895</ele>
        <time>2022-08-06T22:20:04.738Z</time>
      </trkpt>
      <trkpt lat="47.04832" lon="15.89901">
        <ele>292.269916</ele>
        <time>2022-08-06T22:20:06.644Z</time>
      </trkpt>
      <trkpt lat="47.04843" lon="15.89925">
        <ele>292.253696</ele>
        <time>2022-08-06T22:20:12.024Z</time>
      </trkpt>
      <trkpt lat="47.04846" lon="15.89933">
        <ele>292.248147</ele>
        <time>2022-08-06T22:20:13.694Z</time>
      </trkpt>
      <trkpt lat="47.04856" lon="15.89958">
        <ele>292.231344</ele>
        <time>2022-08-06T22:20:19.140Z</time>
      </trkpt>
      <trkpt lat="47.04859" lon="15.89968">
        <ele>292.224912</ele>
        <time>2022-08-06T22:20:21.192Z</time>
      </trkpt>
      <trkpt lat="47.04866" lon="15.89994">
        <ele>292.208753</ele>
        <time>2022-08-06T22:20:26.031Z</time>
      </trkpt>
      <trkpt lat="47.0487" lon="15.90007">
        <ele>292.200578</ele>
        <time>2022-08-06T22:20:28.617Z</time>
      </trkpt>
      <trkpt lat="47.04871" lon="15.90012">
        <ele>292.197455</ele>
        <time>2022-08-06T22:20:29.594Z</time>
      </trkpt>
      <trkpt lat="47.04879" lon="15.90045">
        <ele>292.177374</ele>
        <time>2022-08-06T22:20:35.664Z</time>
      </trkpt>
      <trkpt lat="47.04881" lon="15.90056">
        <ele>292.155858</ele>
        <time>2022-08-06T22:20:37.703Z</time>
      </trkpt>
      <trkpt lat="47.04884" lon="15.90074">
        <ele>292.049942</ele>
        <time>2022-08-06T22:20:40.970Z</time>
      </trkpt>
      <trkpt lat="47.0488" lon="15.90075">
        <ele>292.021625</ele>
        <time>2022-08-06T22:20:41.713Z</time>
      </trkpt>
      <trkpt lat="47.04884" lon="15.90113">
        <ele>291.807801</ele>
        <time>2022-08-06T22:20:48.195Z</time>
      </trkpt>
      <trkpt lat="47.04884" lon="15.90121">
        <ele>291.766106</ele>
        <time>2022-08-06T22:20:49.445Z</time>
      </trkpt>
      <trkpt lat="47.04885" lon="15.90176">
        <ele>291.452618</ele>
        <time>2022-08-06T22:20:58.623Z</time>
      </trkpt>
      <trkpt lat="47.04883" lon="15.90224">
        <ele>291.186827</ele>
        <time>2022-08-06T22:21:06.408Z</time>
      </trkpt>
      <trkpt lat="47.04887" lon="15.903">
        <ele>290.756373</ele>
        <time>2022-08-06T22:21:19.343Z</time>
      </trkpt>
      <trkpt lat="47.04913" lon="15.90385">
        <ele>290.122243</ele>
        <time>2022-08-06T22:21:34.928Z</time>
      </trkpt>
      <trkpt lat="47.04928" lon="15.90475">
        <ele>289.483048</ele>
        <time>2022-08-06T22:21:50.041Z</time>
      </trkpt>
      <trkpt lat="47.04929" lon="15.90482">
        <ele>289.429933</ele>
        <time>2022-08-06T22:21:51.277Z</time>
      </trkpt>
      <trkpt lat="47.04938" lon="15.90572">
        <ele>288.79335</ele>
        <time>2022-08-06T22:22:06.217Z</time>
      </trkpt>
      <trkpt lat="47.04957" lon="15.90633">
        <ele>288.281187</ele>
        <time>2022-08-06T22:22:17.077Z</time>
      </trkpt>
      <trkpt lat="47.05072" lon="15.90795">
        <ele>286.663991</ele>
        <time>2022-08-06T22:22:55.114Z</time>
      </trkpt>
      <trkpt lat="47.05156" lon="15.90908">
        <ele>286.006441</ele>
        <time>2022-08-06T22:23:24.517Z</time>
      </trkpt>
      <trkpt lat="47.05209" lon="15.90954">
        <ele>285.737955</ele>
        <time>2022-08-06T22:23:40.994Z</time>
      </trkpt>
      <trkpt lat="47.05248" lon="15.90982">
        <ele>285.627552</ele>
        <time>2022-08-06T22:23:52.358Z</time>
      </trkpt>
      <trkpt lat="47.05289" lon="15.91029">
        <ele>285.492044</ele>
        <time>2022-08-06T22:24:06.407Z</time>
      </trkpt>
      <trkpt lat="47.05365" lon="15.91161">
        <ele>285.253747</ele>
        <time>2022-08-06T22:24:37.791Z</time>
      </trkpt>
      <trkpt lat="47.05372" lon="15.91172">
        <ele>285.239024</ele>
        <time>2022-08-06T22:24:40.342Z</time>
      </trkpt>
      <trkpt lat="47.05428" lon="15.91265">
        <ele>285.114607</ele>
        <time>2022-08-06T22:25:03.289Z</time>
      </trkpt>
      <trkpt lat="47.05465" lon="15.91348">
        <ele>285.230529</ele>
        <time>2022-08-06T22:25:22.600Z</time>
      </trkpt>
      <trkpt lat="47.05515" lon="15.91476">
        <ele>285.589081</ele>
        <time>2022-08-06T22:25:51.891Z</time>
      </trkpt>
      <trkpt lat="47.05555" lon="15.91559">
        <ele>285.971511</ele>
        <time>2022-08-06T22:26:13.595Z</time>
      </trkpt>
      <trkpt lat="47.05598" lon="15.91625">
        <ele>286.448596</ele>
        <time>2022-08-06T22:26:33.506Z</time>
      </trkpt>
      <trkpt lat="47.0567" lon="15.91709">
        <ele>287.12878</ele>
        <time>2022-08-06T22:27:02.526Z</time>
      </trkpt>
      <trkpt lat="47.05696" lon="15.91751">
        <ele>287.261417</ele>
        <time>2022-08-06T22:27:14.400Z</time>
      </trkpt>
      <trkpt lat="47.05708" lon="15.91793">
        <ele>287.367686</ele>
        <time>2022-08-06T22:27:23.745Z</time>
      </trkpt>
      <trkpt lat="47.05712" lon="15.91822">
        <ele>287.436762</ele>
        <time>2022-08-06T22:27:29.751Z</time>
      </trkpt>
      <trkpt lat="47.05711" lon="15.91864">
        <ele>287.535986</ele>
        <time>2022-08-06T22:27:38.103Z</time>
      </trkpt>
      <trkpt lat="47.05685" lon="15.91987">
        <ele>287.704522</ele>
        <time>2022-08-06T22:28:02.504Z</time>
      </trkpt>
      <trkpt lat="47.05679" lon="15.92043">
        <ele>287.682551</ele>
        <time>2022-08-06T22:28:13.035Z</time>
      </trkpt>
      <trkpt lat="47.05677" lon="15.92131">
        <ele>287.648154</ele>
        <time>2022-08-06T22:28:29.698Z</time>
      </trkpt>
      <trkpt lat="47.05672" lon="15.92264">
        <ele>287.397861</ele>
        <time>2022-08-06T22:28:54.507Z</time>
      </trkpt>
      <trkpt lat="47.05655" lon="15.92325">
        <ele>287.160129</ele>
        <time>2022-08-06T22:29:06.180Z</time>
      </trkpt>
      <trkpt lat="47.05658" lon="15.92331">
        <ele>287.136735</ele>
        <time>2022-08-06T22:29:07.283Z</time>
      </trkpt>
      <trkpt lat="47.0564" lon="15.9236">
        <ele>286.994531</ele>
        <time>2022-08-06T22:29:14.094Z</time>
      </trkpt>
      <trkpt lat="47.05623" lon="15.92391">
        <ele>286.853295</ele>
        <time>2022-08-06T22:29:20.811Z</time>
      </trkpt>
      <trkpt lat="47.05608" lon="15.92438">
        <ele>286.651783</ele>
        <time>2022-08-06T22:29:29.742Z</time>
      </trkpt>
      <trkpt lat="47.05609" lon="15.9245">
        <ele>286.547644</ele>
        <time>2022-08-06T22:29:31.801Z</time>
      </trkpt>
      <trkpt lat="47.05614" lon="15.92502">
        <ele>286.102236</ele>
        <time>2022-08-06T22:29:40.331Z</time>
      </trkpt>
      <trkpt lat="47.05612" lon="15.92556">
        <ele>285.633009</ele>
        <time>2022-08-06T22:29:49.025Z</time>
      </trkpt>
      <trkpt lat="47.05606" lon="15.92572">
        <ele>285.475855</ele>
        <time>2022-08-06T22:29:51.823Z</time>
      </trkpt>
      <trkpt lat="47.05604" lon="15.92576">
        <ele>285.431048</ele>
        <time>2022-08-06T22:29:52.625Z</time>
      </trkpt>
      <trkpt lat="47.0558" lon="15.9262">
        <ele>284.946821</ele>
        <time>2022-08-06T22:30:00.929Z</time>
      </trkpt>
      <trkpt lat="47.05549" lon="15.92655">
        <ele>284.460437</ele>
        <time>2022-08-06T22:30:09.304Z</time>
      </trkpt>
      <trkpt lat="47.0553" lon="15.92678">
        <ele>284.272544</ele>
        <time>2022-08-06T22:30:14.951Z</time>
      </trkpt>
      <trkpt lat="47.05472" lon="15.92733">
        <ele>283.824189</ele>
        <time>2022-08-06T22:30:31.818Z</time>
      </trkpt>
      <trkpt lat="47.05468" lon="15.92736">
        <ele>283.797309</ele>
        <time>2022-08-06T22:30:32.834Z</time>
      </trkpt>
      <trkpt lat="47.05466" lon="15.92748">
        <ele>283.744386</ele>
        <time>2022-08-06T22:30:34.844Z</time>
      </trkpt>
      <trkpt lat="47.0546" lon="15.92779">
        <ele>283.603183</ele>
        <time>2022-08-06T22:30:40.232Z</time>
      </trkpt>
      <trkpt lat="47.05456" lon="15.92795">
        <ele>283.529216</ele>
        <time>2022-08-06T22:30:43.044Z</time>
      </trkpt>
      <trkpt lat="47.05452" lon="15.92793">
        <ele>283.503738</ele>
        <time>2022-08-06T22:30:43.984Z</time>
      </trkpt>
      <trkpt lat="47.05445" lon="15.92836">
        <ele>283.306514</ele>
        <time>2022-08-06T22:30:51.673Z</time>
      </trkpt>
      <trkpt lat="47.05447" lon="15.92873">
        <ele>283.304949</ele>
        <time>2022-08-06T22:30:58.221Z</time>
      </trkpt>
      <trkpt lat="47.0545" lon="15.9291">
        <ele>283.410383</ele>
        <time>2022-08-06T22:31:04.907Z</time>
      </trkpt>
      <trkpt lat="47.05451" lon="15.92968">
        <ele>283.573991</ele>
        <time>2022-08-06T22:31:15.841Z</time>
      </trkpt>
      <trkpt lat="47.05441" lon="15.93023">
        <ele>283.736421</ele>
        <time>2022-08-06T22:31:27.452Z</time>
      </trkpt>
      <trkpt lat="47.05404" lon="15.93152">
        <ele>284.433926</ele>
        <time>2022-08-06T22:31:56.184Z</time>
      </trkpt>
      <trkpt lat="47.05397" lon="15.93189">
        <ele>284.777789</ele>
        <time>2022-08-06T22:32:04.712Z</time>
      </trkpt>
      <trkpt lat="47.05389" lon="15.93288">
        <ele>285.659001</ele>
        <time>2022-08-06T22:32:27.909Z</time>
      </trkpt>
      <trkpt lat="47.05315" lon="15.93521">
        <ele>287.856899</ele>
        <time>2022-08-06T22:33:28.122Z</time>
      </trkpt>
      <trkpt lat="47.05278" lon="15.93616">
        <ele>288.52956</ele>
        <time>2022-08-06T22:33:50.036Z</time>
      </trkpt>
      <trkpt lat="47.05237" lon="15.93671">
        <ele>288.476521</ele>
        <time>2022-08-06T22:34:05.004Z</time>
      </trkpt>
      <trkpt lat="47.05205" lon="15.93696">
        <ele>288.442152</ele>
        <time>2022-08-06T22:34:14.080Z</time>
      </trkpt>
      <trkpt lat="47.05123" lon="15.9374">
        <ele>288.289776</ele>
        <time>2022-08-06T22:34:36.191Z</time>
      </trkpt>
      <trkpt lat="47.0506" lon="15.93803">
        <ele>287.927377</ele>
        <time>2022-08-06T22:34:55.504Z</time>
      </trkpt>
      <trkpt lat="47.05063" lon="15.93809">
        <ele>287.901867</ele>
        <time>2022-08-06T22:34:56.912Z</time>
      </trkpt>
      <trkpt lat="47.05067" lon="15.93816">
        <ele>287.874199</ele>
        <time>2022-08-06T22:34:58.439Z</time>
      </trkpt>
      <trkpt lat="47.05044" lon="15.93842">
        <ele>287.739112</ele>
        <time>2022-08-06T22:35:05.498Z</time>
      </trkpt>
      <trkpt lat="47.04967" lon="15.93926">
        <ele>287.249908</ele>
        <time>2022-08-06T22:35:27.870Z</time>
      </trkpt>
      <trkpt lat="47.0492" lon="15.93985">
        <ele>286.916227</ele>
        <time>2022-08-06T22:35:41.806Z</time>
      </trkpt>
      <trkpt lat="47.04892" lon="15.94054">
        <ele>286.619582</ele>
        <time>2022-08-06T22:35:56.354Z</time>
      </trkpt>
      <trkpt lat="47.04878" lon="15.94137">
        <ele>286.843846</ele>
        <time>2022-08-06T22:36:13.882Z</time>
      </trkpt>
      <trkpt lat="47.04877" lon="15.94156">
        <ele>286.92705</ele>
        <time>2022-08-06T22:36:18.426Z</time>
      </trkpt>
      <trkpt lat="47.04877" lon="15.94177">
        <ele>287.018044</ele>
        <time>2022-08-06T22:36:22.683Z</time>
      </trkpt>
      <trkpt lat="47.04878" lon="15.94205">
        <ele>287.144085</ele>
        <time>2022-08-06T22:36:29.385Z</time>
      </trkpt>
      <trkpt lat="47.04874" lon="15.94242">
        <ele>287.307999</ele>
        <time>2022-08-06T22:36:36.743Z</time>
      </trkpt>
      <trkpt lat="47.04853" lon="15.9431">
        <ele>287.632711</ele>
        <time>2022-08-06T22:36:52.252Z</time>
      </trkpt>
      <trkpt lat="47.04837" lon="15.94343">
        <ele>287.495411</ele>
        <time>2022-08-06T22:37:00.195Z</time>
      </trkpt>
      <trkpt lat="47.04832" lon="15.94351">
        <ele>287.399989</ele>
        <time>2022-08-06T22:37:02.231Z</time>
      </trkpt>
      <trkpt lat="47.04823" lon="15.94364">
        <ele>287.225806</ele>
        <time>2022-08-06T22:37:05.415Z</time>
      </trkpt>
      <trkpt lat="47.0482" lon="15.94361">
        <ele>287.17703</ele>
        <time>2022-08-06T22:37:06.333Z</time>
      </trkpt>
      <trkpt lat="47.04816" lon="15.94369">
        <ele>287.085693</ele>
        <time>2022-08-06T22:37:08.360Z</time>
      </trkpt>
      <trkpt lat="47.04814" lon="15.94372">
        <ele>287.051898</ele>
        <time>2022-08-06T22:37:09.139Z</time>
      </trkpt>
      <trkpt lat="47.04807" lon="15.94366">
        <ele>286.939333</ele>
        <time>2022-08-06T22:37:11.318Z</time>
      </trkpt>
      <trkpt lat="47.04749" lon="15.94307">
        <ele>286.004641</ele>
        <time>2022-08-06T22:37:26.797Z</time>
      </trkpt>
      <trkpt lat="47.0472" lon="15.94284">
        <ele>285.562318</ele>
        <time>2022-08-06T22:37:33.583Z</time>
      </trkpt>
      <trkpt lat="47.04716" lon="15.94281">
        <ele>285.505388</ele>
        <time>2022-08-06T22:37:34.434Z</time>
      </trkpt>
      <trkpt lat="47.04686" lon="15.94258">
        <ele>284.827739</ele>
        <time>2022-08-06T22:37:41.106Z</time>
      </trkpt>
      <trkpt lat="47.04682" lon="15.94255">
        <ele>284.721836</ele>
        <time>2022-08-06T22:37:41.940Z</time>
      </trkpt>
      <trkpt lat="47.04676" lon="15.94254">
        <ele>284.581301</ele>
        <time>2022-08-06T22:37:43.040Z</time>
      </trkpt>
      <trkpt lat="47.04646" lon="15.94283">
        <ele>283.690002</ele>
        <time>2022-08-06T22:37:50.147Z</time>
      </trkpt>
      <trkpt lat="47.04645" lon="15.94283">
        <ele>283.678977</ele>
        <time>2022-08-06T22:37:50.229Z</time>
      </trkpt>
      <trkpt lat="47.0461" lon="15.94319">
        <ele>282.625852</ele>
        <time>2022-08-06T22:37:58.860Z</time>
      </trkpt>
      <trkpt lat="47.046" lon="15.94329">
        <ele>282.341674</ele>
        <time>2022-08-06T22:38:01.233Z</time>
      </trkpt>
      <trkpt lat="47.04558" lon="15.94374">
        <ele>281.045578</ele>
        <time>2022-08-06T22:38:12.415Z</time>
      </trkpt>
      <trkpt lat="47.04529" lon="15.9441">
        <ele>280.560242</ele>
        <time>2022-08-06T22:38:20.843Z</time>
      </trkpt>
      <trkpt lat="47.04502" lon="15.94442">
        <ele>280.185228</ele>
        <time>2022-08-06T22:38:28.637Z</time>
      </trkpt>
      <trkpt lat="47.04473" lon="15.94484">
        <ele>279.738154</ele>
        <time>2022-08-06T22:38:38.098Z</time>
      </trkpt>
      <trkpt lat="47.04445" lon="15.94552">
        <ele>279.150781</ele>
        <time>2022-08-06T22:38:50.829Z</time>
      </trkpt>
      <trkpt lat="47.0442" lon="15.94765">
        <ele>278.282285</ele>
        <time>2022-08-06T22:39:27.009Z</time>
      </trkpt>
      <trkpt lat="47.04395" lon="15.94841">
        <ele>277.969118</ele>
        <time>2022-08-06T22:39:41.432Z</time>
      </trkpt>
      <trkpt lat="47.04377" lon="15.94889">
        <ele>277.692569</ele>
        <time>2022-08-06T22:39:50.723Z</time>
      </trkpt>
      <trkpt lat="47.04325" lon="15.94993">
        <ele>277.044888</ele>
        <time>2022-08-06T22:40:11.892Z</time>
      </trkpt>
      <trkpt lat="47.04249" lon="15.95124">
        <ele>275.857543</ele>
        <time>2022-08-06T22:40:38.706Z</time>
      </trkpt>
      <trkpt lat="47.04208" lon="15.95182">
        <ele>275.171844</ele>
        <time>2022-08-06T22:40:51.394Z</time>
      </trkpt>
      <trkpt lat="47.04181" lon="15.9524">
        <ele>274.591266</ele>
        <time>2022-08-06T22:41:02.114Z</time>
      </trkpt>
      <trkpt lat="47.041" lon="15.95361">
        <ele>273.341221</ele>
        <time>2022-08-06T22:41:28.224Z</time>
      </trkpt>
      <trkpt lat="47.04008" lon="15.95532">
        <ele>272.217568</ele>
        <time>2022-08-06T22:42:03.645Z</time>
      </trkpt>
      <trkpt lat="47.03991" lon="15.95563">
        <ele>272.090608</ele>
        <time>2022-08-06T22:42:10.323Z</time>
      </trkpt>
      <trkpt lat="47.03985" lon="15.9557">
        <ele>272.055121</ele>
        <time>2022-08-06T22:42:12.198Z</time>
      </trkpt>
      <trkpt lat="47.03978" lon="15.9558">
        <ele>272.010191</ele>
        <time>2022-08-06T22:42:14.606Z</time>
      </trkpt>
      <trkpt lat="47.03954" lon="15.95596">
        <ele>271.881741</ele>
        <time>2022-08-06T22:42:21.520Z</time>
      </trkpt>
      <trkpt lat="47.03923" lon="15.95605">
        <ele>271.738394</ele>
        <time>2022-08-06T22:42:29.605Z</time>
      </trkpt>
      <trkpt lat="47.03911" lon="15.9563">
        <ele>271.727392</ele>
        <time>2022-08-06T22:42:35.148Z</time>
      </trkpt>
      <trkpt lat="47.03907" lon="15.95749">
        <ele>271.683971</ele>
        <time>2022-08-06T22:42:56.821Z</time>
      </trkpt>
      <trkpt lat="47.03895" lon="15.95792">
        <ele>271.667394</ele>
        <time>2022-08-06T22:43:04.924Z</time>
      </trkpt>
      <trkpt lat="47.03892" lon="15.95798">
        <ele>271.664513</ele>
        <time>2022-08-06T22:43:06.337Z</time>
      </trkpt>
      <trkpt lat="47.03881" lon="15.95813">
        <ele>271.656779</ele>
        <time>2022-08-06T22:43:10.187Z</time>
      </trkpt>
      <trkpt lat="47.03874" lon="15.95823">
        <ele>271.651226</ele>
        <time>2022-08-06T22:43:12.954Z</time>
      </trkpt>
      <trkpt lat="47.03789" lon="15.95934">
        <ele>271.687494</ele>
        <time>2022-08-06T22:43:43.591Z</time>
      </trkpt>
      <trkpt lat="47.03721" lon="15.96077">
        <ele>271.828915</ele>
        <time>2022-08-06T22:44:15.253Z</time>
      </trkpt>
      <trkpt lat="47.03597" lon="15.96035">
        <ele>272.191421</ele>
        <time>2022-08-06T22:44:51.089Z</time>
      </trkpt>
      <trkpt lat="47.03518" lon="15.96022">
        <ele>272.44402</ele>
        <time>2022-08-06T22:45:14.571Z</time>
      </trkpt>
      <trkpt lat="47.03501" lon="15.96021">
        <ele>272.497779</ele>
        <time>2022-08-06T22:45:19.420Z</time>
      </trkpt>
      <trkpt lat="47.03456" lon="15.96019">
        <ele>272.645631</ele>
        <time>2022-08-06T22:45:32.389Z</time>
      </trkpt>
      <trkpt lat="47.03399" lon="15.96015">
        <ele>272.808625</ele>
        <time>2022-08-06T22:45:47.842Z</time>
      </trkpt>
      <trkpt lat="47.03381" lon="15.96013">
        <ele>272.729228</ele>
        <time>2022-08-06T22:45:52.645Z</time>
      </trkpt>
      <trkpt lat="47.03381" lon="15.96017">
        <ele>272.716917</ele>
        <time>2022-08-06T22:45:53.356Z</time>
      </trkpt>
      <trkpt lat="47.03381" lon="15.96025">
        <ele>272.692906</ele>
        <time>2022-08-06T22:45:54.775Z</time>
      </trkpt>
      <trkpt lat="47.03381" lon="15.96029">
        <ele>272.681494</ele>
        <time>2022-08-06T22:45:55.467Z</time>
      </trkpt>
      <trkpt lat="47.03389" lon="15.96084">
        <ele>272.513135</ele>
        <time>2022-08-06T22:46:05.370Z</time>
      </trkpt>
      <trkpt lat="47.03394" lon="15.96114">
        <ele>272.420077</ele>
        <time>2022-08-06T22:46:10.672Z</time>
      </trkpt>
      <trkpt lat="47.03396" lon="15.96128">
        <ele>272.378816</ele>
        <time>2022-08-06T22:46:12.957Z</time>
      </trkpt>
      <trkpt lat="47.03398" lon="15.96146">
        <ele>272.321631</ele>
        <time>2022-08-06T22:46:16.099Z</time>
      </trkpt>
      <trkpt lat="47.03402" lon="15.96176">
        <ele>272.230949</ele>
        <time>2022-08-06T22:46:21.058Z</time>
      </trkpt>
      <trkpt lat="47.03403" lon="15.96184">
        <ele>272.207801</ele>
        <time>2022-08-06T22:46:22.314Z</time>
      </trkpt>
      <trkpt lat="47.03412" lon="15.96243">
        <ele>272.023707</ele>
        <time>2022-08-06T22:46:32.085Z</time>
      </trkpt>
      <trkpt lat="47.03433" lon="15.96325">
        <ele>271.695781</ele>
        <time>2022-08-06T22:46:45.986Z</time>
      </trkpt>
      <trkpt lat="47.03546" lon="15.96577">
        <ele>271.647037</ele>
        <time>2022-08-06T22:47:37.468Z</time>
      </trkpt>
      <trkpt lat="47.03593" lon="15.96661">
        <ele>272.168171</ele>
        <time>2022-08-06T22:48:01.015Z</time>
      </trkpt>
      <trkpt lat="47.03635" lon="15.96708">
        <ele>273.660966</ele>
        <time>2022-08-06T22:48:21.100Z</time>
      </trkpt>
      <trkpt lat="47.03734" lon="15.9689">
        <ele>279.846883</ele>
        <time>2022-08-06T22:49:38.375Z</time>
      </trkpt>
      <trkpt lat="47.03741" lon="15.96908">
        <ele>280.244316</ele>
        <time>2022-08-06T22:49:46.352Z</time>
      </trkpt>
      <trkpt lat="47.03759" lon="15.97061">
        <ele>283.230364</ele>
        <time>2022-08-06T22:50:36.993Z</time>
      </trkpt>
      <trkpt lat="47.0381" lon="15.97119">
        <ele>284.074171</ele>
        <time>2022-08-06T22:50:51.734Z</time>
      </trkpt>
      <trkpt lat="47.03842" lon="15.97177">
        <ele>282.595766</ele>
        <time>2022-08-06T22:51:02.516Z</time>
      </trkpt>
      <trkpt lat="47.03876" lon="15.97194">
        <ele>281.558362</ele>
        <time>2022-08-06T22:51:09.597Z</time>
      </trkpt>
      <trkpt lat="47.03882" lon="15.97197">
        <ele>281.383732</ele>
        <time>2022-08-06T22:51:10.737Z</time>
      </trkpt>
      <trkpt lat="47.03885" lon="15.97199">
        <ele>281.275985</ele>
        <time>2022-08-06T22:51:11.419Z</time>
      </trkpt>
      <trkpt lat="47.03842" lon="15.97383">
        <ele>277.839721</ele>
        <time>2022-08-06T22:51:35.928Z</time>
      </trkpt>
      <trkpt lat="47.03735" lon="15.97792">
        <ele>273.049104</ele>
        <time>2022-08-06T22:52:45.675Z</time>
      </trkpt>
      <trkpt lat="47.03733" lon="15.97814">
        <ele>272.659133</ele>
        <time>2022-08-06T22:52:48.570Z</time>
      </trkpt>
      <trkpt lat="47.03783" lon="15.97871">
        <ele>270.98514</ele>
        <time>2022-08-06T22:53:01.035Z</time>
      </trkpt>
      <trkpt lat="47.03781" lon="15.9794">
        <ele>269.753568</ele>
        <time>2022-08-06T22:53:10.230Z</time>
      </trkpt>
      <trkpt lat="47.0378" lon="15.97956">
        <ele>269.466265</ele>
        <time>2022-08-06T22:53:12.375Z</time>
      </trkpt>
      <trkpt lat="47.03759" lon="15.98107">
        <ele>267.845317</ele>
        <time>2022-08-06T22:53:33.927Z</time>
      </trkpt>
      <trkpt lat="47.03751" lon="15.98136">
        <ele>267.650236</ele>
        <time>2022-08-06T22:53:39.071Z</time>
      </trkpt>
      <trkpt lat="47.03729" lon="15.98174">
        <ele>267.339885</ele>
        <time>2022-08-06T22:53:48.454Z</time>
      </trkpt>
      <trkpt lat="47.03728" lon="15.98248">
        <ele>266.878506</ele>
        <time>2022-08-06T22:54:02.612Z</time>
      </trkpt>
      <trkpt lat="47.03708" lon="15.98343">
        <ele>267.691164</ele>
        <time>2022-08-06T22:54:21.282Z</time>
      </trkpt>
      <trkpt lat="47.03701" lon="15.98392">
        <ele>268.192877</ele>
        <time>2022-08-06T22:54:31.333Z</time>
      </trkpt>
      <trkpt lat="47.03672" lon="15.98421">
        <ele>268.703526</ele>
        <time>2022-08-06T22:54:42.545Z</time>
      </trkpt>
      <trkpt lat="47.03664" lon="15.98429">
        <ele>268.851655</ele>
        <time>2022-08-06T22:54:46.131Z</time>
      </trkpt>
      <trkpt lat="47.03661" lon="15.9843">
        <ele>268.900943</ele>
        <time>2022-08-06T22:54:47.412Z</time>
      </trkpt>
      <trkpt lat="47.03642" lon="15.98433">
        <ele>269.171523</ele>
        <time>2022-08-06T22:54:55.157Z</time>
      </trkpt>
      <trkpt lat="47.03583" lon="15.98421">
        <ele>270.923946</ele>
        <time>2022-08-06T22:55:23.166Z</time>
      </trkpt>
      <trkpt lat="47.03525" lon="15.98413">
        <ele>273.034263</ele>
        <time>2022-08-06T22:55:50.642Z</time>
      </trkpt>
      <trkpt lat="47.03508" lon="15.98407">
        <ele>273.655752</ele>
        <time>2022-08-06T22:55:59.578Z</time>
      </trkpt>
      <trkpt lat="47.03459" lon="15.98401">
        <ele>275.438686</ele>
        <time>2022-08-06T22:56:21.481Z</time>
      </trkpt>
      <trkpt lat="47.0345" lon="15.98485">
        <ele>275.376573</ele>
        <time>2022-08-06T22:56:42.357Z</time>
      </trkpt>
      <trkpt lat="47.03449" lon="15.98503">
        <ele>275.215419</ele>
        <time>2022-08-06T22:56:46.865Z</time>
      </trkpt>
      <trkpt lat="47.03419" lon="15.98545">
        <ele>274.701689</ele>
        <time>2022-08-06T22:56:57.185Z</time>
      </trkpt>
      <trkpt lat="47.03413" lon="15.98572">
        <ele>274.452385</ele>
        <time>2022-08-06T22:57:00.898Z</time>
      </trkpt>
      <trkpt lat="47.03394" lon="15.98603">
        <ele>274.090337</ele>
        <time>2022-08-06T22:57:06.457Z</time>
      </trkpt>
      <trkpt lat="47.03353" lon="15.98705">
        <ele>271.988655</ele>
        <time>2022-08-06T22:57:21.066Z</time>
      </trkpt>
      <trkpt lat="47.03336" lon="15.98794">
        <ele>269.689746</ele>
        <time>2022-08-06T22:57:33.434Z</time>
      </trkpt>
      <trkpt lat="47.03333" lon="15.98828">
        <ele>268.834418</ele>
        <time>2022-08-06T22:57:38.159Z</time>
      </trkpt>
      <trkpt lat="47.03334" lon="15.98857">
        <ele>268.116031</ele>
        <time>2022-08-06T22:57:42.200Z</time>
      </trkpt>
      <trkpt lat="47.0336" lon="15.99004">
        <ele>267.36913</ele>
        <time>2022-08-06T22:58:06.219Z</time>
      </trkpt>
      <trkpt lat="47.03357" lon="15.99081">
        <ele>267.527559</ele>
        <time>2022-08-06T22:58:22.405Z</time>
      </trkpt>
      <trkpt lat="47.03345" lon="15.99124">
        <ele>267.624849</ele>
        <time>2022-08-06T22:58:34.133Z</time>
      </trkpt>
      <trkpt lat="47.03308" lon="15.99212">
        <ele>269.246807</ele>
        <time>2022-08-06T22:59:04.740Z</time>
      </trkpt>
      <trkpt lat="47.0325" lon="15.99399">
        <ele>273.150138</ele>
        <time>2022-08-06T23:00:07.495Z</time>
      </trkpt>
      <trkpt lat="47.03233" lon="15.99436">
        <ele>272.99068</ele>
        <time>2022-08-06T23:00:18.696Z</time>
      </trkpt>
      <trkpt lat="47.03189" lon="15.99494">
        <ele>272.687635</ele>
        <time>2022-08-06T23:00:34.583Z</time>
      </trkpt>
      <trkpt lat="47.03181" lon="15.99573">
        <ele>272.408342</ele>
        <time>2022-08-06T23:00:46.506Z</time>
      </trkpt>
      <trkpt lat="47.03156" lon="15.99617">
        <ele>271.859038</ele>
        <time>2022-08-06T23:00:54.433Z</time>
      </trkpt>
      <trkpt lat="47.03114" lon="15.99666">
        <ele>270.248851</ele>
        <time>2022-08-06T23:01:05.066Z</time>
      </trkpt>
      <trkpt lat="47.02975" lon="15.99808">
        <ele>265.837761</ele>
        <time>2022-08-06T23:01:40.830Z</time>
      </trkpt>
      <trkpt lat="47.02916" lon="15.99892">
        <ele>264.327252</ele>
        <time>2022-08-06T23:01:59.839Z</time>
      </trkpt>
      <trkpt lat="47.02912" lon="15.99905">
        <ele>264.143204</ele>
        <time>2022-08-06T23:02:01.961Z</time>
      </trkpt>
      <trkpt lat="47.02936" lon="15.99948">
        <ele>263.52307</ele>
        <time>2022-08-06T23:02:10.500Z</time>
      </trkpt>
      <trkpt lat="47.02899" lon="15.99988">
        <ele>263.167305</ele>
        <time>2022-08-06T23:02:21.092Z</time>
      </trkpt>
      <trkpt lat="47.02866" lon="15.9997">
        <ele>262.895019</ele>
        <time>2022-08-06T23:02:29.248Z</time>
      </trkpt>
      <trkpt lat="47.02848" lon="15.99974">
        <ele>262.753456</ele>
        <time>2022-08-06T23:02:33.625Z</time>
      </trkpt>
      <trkpt lat="47.02831" lon="15.99988">
        <ele>262.602835</ele>
        <time>2022-08-06T23:02:38.152Z</time>
      </trkpt>
      <trkpt lat="47.02776" lon="16.00042">
        <ele>262.166869</ele>
        <time>2022-08-06T23:02:54.901Z</time>
      </trkpt>
      <trkpt lat="47.02665" lon="16.00187">
        <ele>261.905893</ele>
        <time>2022-08-06T23:03:33.985Z</time>
      </trkpt>
      <trkpt lat="47.02609" lon="16.00242">
        <ele>261.719002</ele>
        <time>2022-08-06T23:03:51.336Z</time>
      </trkpt>
      <trkpt lat="47.02598" lon="16.00274">
        <ele>261.641503</ele>
        <time>2022-08-06T23:03:57.526Z</time>
      </trkpt>
      <trkpt lat="47.02599" lon="16.00391">
        <ele>261.388097</ele>
        <time>2022-08-06T23:04:17.257Z</time>
      </trkpt>
      <trkpt lat="47.02561" lon="16.0049">
        <ele>261.21226</ele>
        <time>2022-08-06T23:04:36.627Z</time>
      </trkpt>
      <trkpt lat="47.0254" lon="16.00537">
        <ele>261.146442</ele>
        <time>2022-08-06T23:04:46.234Z</time>
      </trkpt>
      <trkpt lat="47.02517" lon="16.00572">
        <ele>261.08869</ele>
        <time>2022-08-06T23:04:54.794Z</time>
      </trkpt>
      <trkpt lat="47.02502" lon="16.00546">
        <ele>261.047947</ele>
        <time>2022-08-06T23:05:01.106Z</time>
      </trkpt>
      <trkpt lat="47.02452" lon="16.00464">
        <ele>261.208413</ele>
        <time>2022-08-06T23:05:21.751Z</time>
      </trkpt>
      <trkpt lat="47.02436" lon="16.00445">
        <ele>261.328646</ele>
        <time>2022-08-06T23:05:27.953Z</time>
      </trkpt>
      <trkpt lat="47.02425" lon="16.00432">
        <ele>261.404673</ele>
        <time>2022-08-06T23:05:31.847Z</time>
      </trkpt>
      <trkpt lat="47.02406" lon="16.00417">
        <ele>261.528859</ele>
        <time>2022-08-06T23:05:38.398Z</time>
      </trkpt>
      <trkpt lat="47.02372" lon="16.00397">
        <ele>261.735522</ele>
        <time>2022-08-06T23:05:49.362Z</time>
      </trkpt>
      <trkpt lat="47.02355" lon="16.00396">
        <ele>261.833115</ele>
        <time>2022-08-06T23:05:54.487Z</time>
      </trkpt>
      <trkpt lat="47.02302" lon="16.00412">
        <ele>262.186764</ele>
        <time>2022-08-06T23:06:11.071Z</time>
      </trkpt>
      <trkpt lat="47.02259" lon="16.00407">
        <ele>262.517952</ele>
        <time>2022-08-06T23:06:24.591Z</time>
      </trkpt>
      <trkpt lat="47.02239" lon="16.00396">
        <ele>262.688494</ele>
        <time>2022-08-06T23:06:31.526Z</time>
      </trkpt>
      <trkpt lat="47.02201" lon="16.00394">
        <ele>262.977853</ele>
        <time>2022-08-06T23:06:42.851Z</time>
      </trkpt>
      <trkpt lat="47.02175" lon="16.00401">
        <ele>263.18543</ele>
        <time>2022-08-06T23:06:50.633Z</time>
      </trkpt>
      <trkpt lat="47.0214" lon="16.0041">
        <ele>263.392731</ele>
        <time>2022-08-06T23:07:01.106Z</time>
      </trkpt>
      <trkpt lat="47.02132" lon="16.00412">
        <ele>263.389882</ele>
        <time>2022-08-06T23:07:03.354Z</time>
      </trkpt>
      <trkpt lat="47.0209" lon="16.00424">
        <ele>263.373969</ele>
        <time>2022-08-06T23:07:16.113Z</time>
      </trkpt>
      <trkpt lat="47.02049" lon="16.00447">
        <ele>263.357515</ele>
        <time>2022-08-06T23:07:28.821Z</time>
      </trkpt>
      <trkpt lat="47.02043" lon="16.00451">
        <ele>263.355077</ele>
        <time>2022-08-06T23:07:30.295Z</time>
      </trkpt>
      <trkpt lat="47.01956" lon="16.00513">
        <ele>263.102669</ele>
        <time>2022-08-06T23:07:53.340Z</time>
      </trkpt>
      <trkpt lat="47.01943" lon="16.00527">
        <ele>262.958287</ele>
        <time>2022-08-06T23:07:57.060Z</time>
      </trkpt>
      <trkpt lat="47.01928" lon="16.00555">
        <ele>262.750045</ele>
        <time>2022-08-06T23:08:02.860Z</time>
      </trkpt>
      <trkpt lat="47.01921" lon="16.00588">
        <ele>262.550703</ele>
        <time>2022-08-06T23:08:08.108Z</time>
      </trkpt>
      <trkpt lat="47.01926" lon="16.00636">
        <ele>262.266343</ele>
        <time>2022-08-06T23:08:16.047Z</time>
      </trkpt>
      <trkpt lat="47.01921" lon="16.00678">
        <ele>262.016732</ele>
        <time>2022-08-06T23:08:22.943Z</time>
      </trkpt>
      <trkpt lat="47.01871" lon="16.00771">
        <ele>261.645552</ele>
        <time>2022-08-06T23:08:41.919Z</time>
      </trkpt>
      <trkpt lat="47.01852" lon="16.00811">
        <ele>261.560057</ele>
        <time>2022-08-06T23:08:50.679Z</time>
      </trkpt>
      <trkpt lat="47.01815" lon="16.00906">
        <ele>261.366689</ele>
        <time>2022-08-06T23:09:10.897Z</time>
      </trkpt>
      <trkpt lat="47.01787" lon="16.0098">
        <ele>261.346983</ele>
        <time>2022-08-06T23:09:26.331Z</time>
      </trkpt>
      <trkpt lat="47.01764" lon="16.01012">
        <ele>261.369274</ele>
        <time>2022-08-06T23:09:34.842Z</time>
      </trkpt>
      <trkpt lat="47.01796" lon="16.01123">
        <ele>261.427103</ele>
        <time>2022-08-06T23:09:56.968Z</time>
      </trkpt>
      <trkpt lat="47.01815" lon="16.01165">
        <ele>261.50946</ele>
        <time>2022-08-06T23:10:06.308Z</time>
      </trkpt>
      <trkpt lat="47.01901" lon="16.01292">
        <ele>262.505578</ele>
        <time>2022-08-06T23:10:40.249Z</time>
      </trkpt>
      <trkpt lat="47.0202" lon="16.01449">
        <ele>265.751574</ele>
        <time>2022-08-06T23:11:40.487Z</time>
      </trkpt>
      <trkpt lat="47.0201" lon="16.01453">
        <ele>266.013706</ele>
        <time>2022-08-06T23:11:45.583Z</time>
      </trkpt>
      <trkpt lat="47.01961" lon="16.01438">
        <ele>267.304587</ele>
        <time>2022-08-06T23:12:05.394Z</time>
      </trkpt>
      <trkpt lat="47.01949" lon="16.01443">
        <ele>267.619813</ele>
        <time>2022-08-06T23:12:11.475Z</time>
      </trkpt>
      <trkpt lat="47.01939" lon="16.01464">
        <ele>267.985824</ele>
        <time>2022-08-06T23:12:18.886Z</time>
      </trkpt>
      <trkpt lat="47.01938" lon="16.01497">
        <ele>268.457452</ele>
        <time>2022-08-06T23:12:28.676Z</time>
      </trkpt>
      <trkpt lat="47.01969" lon="16.0177">
        <ele>270.734272</ele>
        <time>2022-08-06T23:13:34.580Z</time>
      </trkpt>
      <trkpt lat="47.01974" lon="16.01844">
        <ele>270.175385</ele>
        <time>2022-08-06T23:13:46.151Z</time>
      </trkpt>
      <trkpt lat="47.01952" lon="16.01947">
        <ele>269.362324</ele>
        <time>2022-08-06T23:14:01.028Z</time>
      </trkpt>
      <trkpt lat="47.01928" lon="16.0214">
        <ele>264.299834</ele>
        <time>2022-08-06T23:14:25.885Z</time>
      </trkpt>
      <trkpt lat="47.01918" lon="16.02172">
        <ele>263.378734</ele>
        <time>2022-08-06T23:14:30.263Z</time>
      </trkpt>
      <trkpt lat="47.01866" lon="16.02231">
        <ele>261.862607</ele>
        <time>2022-08-06T23:14:43.129Z</time>
      </trkpt>
      <trkpt lat="47.01821" lon="16.02301">
        <ele>261.015807</ele>
        <time>2022-08-06T23:14:57.176Z</time>
      </trkpt>
      <trkpt lat="47.01798" lon="16.02339">
        <ele>260.567249</ele>
        <time>2022-08-06T23:15:06.320Z</time>
      </trkpt>
      <trkpt lat="47.01784" lon="16.02376">
        <ele>260.190122</ele>
        <time>2022-08-06T23:15:15.017Z</time>
      </trkpt>
      <trkpt lat="47.01752" lon="16.0247">
        <ele>260.223502</ele>
        <time>2022-08-06T23:15:36.818Z</time>
      </trkpt>
      <trkpt lat="47.01748" lon="16.02502">
        <ele>260.285527</ele>
        <time>2022-08-06T23:15:43.827Z</time>
      </trkpt>
      <trkpt lat="47.01765" lon="16.03019">
        <ele>260.257208</ele>
        <time>2022-08-06T23:17:16.168Z</time>
      </trkpt>
      <trkpt lat="47.01761" lon="16.03039">
        <ele>260.247678</ele>
        <time>2022-08-06T23:17:19.718Z</time>
      </trkpt>
      <trkpt lat="47.017" lon="16.03123">
        <ele>260.190912</ele>
        <time>2022-08-06T23:17:41.618Z</time>
      </trkpt>
      <trkpt lat="47.01655" lon="16.03153">
        <ele>260.148372</ele>
        <time>2022-08-06T23:17:55.544Z</time>
      </trkpt>
      <trkpt lat="47.01607" lon="16.03164">
        <ele>260.104559</ele>
        <time>2022-08-06T23:18:09.494Z</time>
      </trkpt>
      <trkpt lat="47.01552" lon="16.03162">
        <ele>260.055723</ele>
        <time>2022-08-06T23:18:23.779Z</time>
      </trkpt>
      <trkpt lat="47.01484" lon="16.03168">
        <ele>259.599004</ele>
        <time>2022-08-06T23:18:40.399Z</time>
      </trkpt>
      <trkpt lat="47.01531" lon="16.03272">
        <ele>258.581829</ele>
        <time>2022-08-06T23:18:59.929Z</time>
      </trkpt>
      <trkpt lat="47.0154" lon="16.03306">
        <ele>258.291043</ele>
        <time>2022-08-06T23:19:05.301Z</time>
      </trkpt>
      <trkpt lat="47.01553" lon="16.03366">
        <ele>257.778642</ele>
        <time>2022-08-06T23:19:14.521Z</time>
      </trkpt>
      <trkpt lat="47.01561" lon="16.03402">
        <ele>257.474997</ele>
        <time>2022-08-06T23:19:19.929Z</time>
      </trkpt>
      <trkpt lat="47.01572" lon="16.03563">
        <ele>256.168033</ele>
        <time>2022-08-06T23:19:44.910Z</time>
      </trkpt>
      <trkpt lat="47.01574" lon="16.03688">
        <ele>255.605788</ele>
        <time>2022-08-06T23:20:05.862Z</time>
      </trkpt>
      <trkpt lat="47.01572" lon="16.03744">
        <ele>255.488258</ele>
        <time>2022-08-06T23:20:15.322Z</time>
      </trkpt>
      <trkpt lat="47.01564" lon="16.0392">
        <ele>255.523328</ele>
        <time>2022-08-06T23:20:46.979Z</time>
      </trkpt>
      <trkpt lat="47.01565" lon="16.0398">
        <ele>255.950055</ele>
        <time>2022-08-06T23:20:58.223Z</time>
      </trkpt>
      <trkpt lat="47.01599" lon="16.04247">
        <ele>258.924945</ele>
        <time>2022-08-06T23:22:03.032Z</time>
      </trkpt>
      <trkpt lat="47.01603" lon="16.0434">
        <ele>260.456738</ele>
        <time>2022-08-06T23:22:32.406Z</time>
      </trkpt>
      <trkpt lat="47.01599" lon="16.04395">
        <ele>261.361369</ele>
        <time>2022-08-06T23:22:46.479Z</time>
      </trkpt>
      <trkpt lat="47.01599" lon="16.04411">
        <ele>261.365553</ele>
        <time>2022-08-06T23:22:50.699Z</time>
      </trkpt>
      <trkpt lat="47.016" lon="16.04422">
        <ele>261.315701</ele>
        <time>2022-08-06T23:22:53.620Z</time>
      </trkpt>
      <trkpt lat="47.01621" lon="16.04509">
        <ele>260.895681</ele>
        <time>2022-08-06T23:23:09.918Z</time>
      </trkpt>
      <trkpt lat="47.01636" lon="16.04573">
        <ele>260.587354</ele>
        <time>2022-08-06T23:23:21.674Z</time>
      </trkpt>
      <trkpt lat="47.01635" lon="16.04587">
        <ele>260.521538</ele>
        <time>2022-08-06T23:23:23.595Z</time>
      </trkpt>
      <trkpt lat="47.01648" lon="16.04602">
        <ele>260.408092</ele>
        <time>2022-08-06T23:23:27.362Z</time>
      </trkpt>
      <trkpt lat="47.01683" lon="16.04704">
        <ele>258.817545</ele>
        <time>2022-08-06T23:23:42.031Z</time>
      </trkpt>
      <trkpt lat="47.01779" lon="16.04973">
        <ele>254.053189</ele>
        <time>2022-08-06T23:24:24.053Z</time>
      </trkpt>
      <trkpt lat="47.018" lon="16.0503">
        <ele>253.446417</ele>
        <time>2022-08-06T23:24:34.534Z</time>
      </trkpt>
      <trkpt lat="47.0182" lon="16.0508">
        <ele>252.90633</ele>
        <time>2022-08-06T23:24:44.216Z</time>
      </trkpt>
      <trkpt lat="47.01834" lon="16.05103">
        <ele>252.645289</ele>
        <time>2022-08-06T23:24:49.606Z</time>
      </trkpt>
      <trkpt lat="47.01837" lon="16.05107">
        <ele>252.661815</ele>
        <time>2022-08-06T23:24:50.649Z</time>
      </trkpt>
      <trkpt lat="47.01853" lon="16.05124">
        <ele>252.745286</ele>
        <time>2022-08-06T23:24:55.858Z</time>
      </trkpt>
      <trkpt lat="47.01856" lon="16.05127">
        <ele>252.757764</ele>
        <time>2022-08-06T23:24:56.645Z</time>
      </trkpt>
      <trkpt lat="47.01907" lon="16.05168">
        <ele>253.002094</ele>
        <time>2022-08-06T23:25:12.859Z</time>
      </trkpt>
      <trkpt lat="47.01913" lon="16.05173">
        <ele>253.032327</ele>
        <time>2022-08-06T23:25:14.839Z</time>
      </trkpt>
      <trkpt lat="47.01998" lon="16.05243">
        <ele>253.537482</ele>
        <time>2022-08-06T23:25:44.493Z</time>
      </trkpt>
      <trkpt lat="47.02039" lon="16.05277">
        <ele>254.158431</ele>
        <time>2022-08-06T23:26:00.100Z</time>
      </trkpt>
      <trkpt lat="47.02065" lon="16.0523">
        <ele>254.709645</ele>
        <time>2022-08-06T23:26:13.823Z</time>
      </trkpt>
      <trkpt lat="47.02068" lon="16.05232">
        <ele>254.748152</ele>
        <time>2022-08-06T23:26:14.784Z</time>
      </trkpt>
      <trkpt lat="47.02087" lon="16.05251">
        <ele>255.049194</ele>
        <time>2022-08-06T23:26:22.453Z</time>
      </trkpt>
      <trkpt lat="47.02103" lon="16.0528">
        <ele>255.388763</ele>
        <time>2022-08-06T23:26:31.108Z</time>
      </trkpt>
      <trkpt lat="47.02132" lon="16.05304">
        <ele>255.814844</ele>
        <time>2022-08-06T23:26:42.496Z</time>
      </trkpt>
      <trkpt lat="47.02138" lon="16.05306">
        <ele>255.876574</ele>
        <time>2022-08-06T23:26:44.454Z</time>
      </trkpt>
      <trkpt lat="47.02154" lon="16.05312">
        <ele>256.062983</ele>
        <time>2022-08-06T23:26:50.511Z</time>
      </trkpt>
      <trkpt lat="47.02171" lon="16.05317">
        <ele>256.240009</ele>
        <time>2022-08-06T23:26:56.252Z</time>
      </trkpt>
      <trkpt lat="47.02189" lon="16.0532">
        <ele>256.435105</ele>
        <time>2022-08-06T23:27:02.377Z</time>
      </trkpt>
      <trkpt lat="47.02209" lon="16.05324">
        <ele>256.647376</ele>
        <time>2022-08-06T23:27:08.954Z</time>
      </trkpt>
      <trkpt lat="47.02223" lon="16.05326">
        <ele>256.795348</ele>
        <time>2022-08-06T23:27:13.325Z</time>
      </trkpt>
      <trkpt lat="47.0224" lon="16.05329">
        <ele>256.979785</ele>
        <time>2022-08-06T23:27:18.604Z</time>
      </trkpt>
      <trkpt lat="47.02295" lon="16.05339">
        <ele>257.57696</ele>
        <time>2022-08-06T23:27:35.273Z</time>
      </trkpt>
      <trkpt lat="47.02305" lon="16.05346">
        <ele>257.683944</ele>
        <time>2022-08-06T23:27:38.137Z</time>
      </trkpt>
      <trkpt lat="47.02309" lon="16.0536">
        <ele>257.730106</ele>
        <time>2022-08-06T23:27:41.263Z</time>
      </trkpt>
      <trkpt lat="47.02293" lon="16.05412">
        <ele>257.907656</ele>
        <time>2022-08-06T23:27:52.689Z</time>
      </trkpt>
      <trkpt lat="47.0229" lon="16.05435">
        <ele>257.981612</ele>
        <time>2022-08-06T23:27:57.401Z</time>
      </trkpt>
      <trkpt lat="47.02289" lon="16.05443">
        <ele>258.008055</ele>
        <time>2022-08-06T23:27:59.046Z</time>
      </trkpt>
      <trkpt lat="47.02298" lon="16.05474">
        <ele>258.113413</ele>
        <time>2022-08-06T23:28:06.092Z</time>
      </trkpt>
      <trkpt lat="47.02302" lon="16.05499">
        <ele>258.194675</ele>
        <time>2022-08-06T23:28:11.270Z</time>
      </trkpt>
      <trkpt lat="47.02309" lon="16.0553">
        <ele>258.295232</ele>
        <time>2022-08-06T23:28:17.644Z</time>
      </trkpt>
      <trkpt lat="47.02313" lon="16.05546">
        <ele>258.34792</ele>
        <time>2022-08-06T23:28:20.821Z</time>
      </trkpt>
      <trkpt lat="47.02315" lon="16.05555">
        <ele>258.377421</ele>
        <time>2022-08-06T23:28:22.759Z</time>
      </trkpt>
      <trkpt lat="47.02324" lon="16.05578">
        <ele>258.460196</ele>
        <time>2022-08-06T23:28:27.530Z</time>
      </trkpt>
      <trkpt lat="47.02334" lon="16.05594">
        <ele>258.54161</ele>
        <time>2022-08-06T23:28:31.420Z</time>
      </trkpt>
      <trkpt lat="47.02347" lon="16.05615">
        <ele>258.682852</ele>
        <time>2022-08-06T23:28:36.527Z</time>
      </trkpt>
      <trkpt lat="47.0235" lon="16.05619">
        <ele>258.714738</ele>
        <time>2022-08-06T23:28:37.723Z</time>
      </trkpt>
      <trkpt lat="47.02352" lon="16.05622">
        <ele>258.734884</ele>
        <time>2022-08-06T23:28:38.508Z</time>
      </trkpt>
      <trkpt lat="47.02359" lon="16.05633">
        <ele>258.808295</ele>
        <time>2022-08-06T23:28:41.317Z</time>
      </trkpt>
      <trkpt lat="47.0238" lon="16.05671">
        <ele>259.055173</ele>
        <time>2022-08-06T23:28:51.047Z</time>
      </trkpt>
      <trkpt lat="47.02393" lon="16.0573">
        <ele>259.366181</ele>
        <time>2022-08-06T23:29:04.373Z</time>
      </trkpt>
      <trkpt lat="47.02405" lon="16.05789">
        <ele>259.673463</ele>
        <time>2022-08-06T23:29:17.795Z</time>
      </trkpt>
      <trkpt lat="47.02411" lon="16.0582">
        <ele>259.837198</ele>
        <time>2022-08-06T23:29:24.976Z</time>
      </trkpt>
      <trkpt lat="47.02415" lon="16.05852">
        <ele>260.018144</ele>
        <time>2022-08-06T23:29:32.093Z</time>
      </trkpt>
      <trkpt lat="47.02418" lon="16.0587">
        <ele>260.118763</ele>
        <time>2022-08-06T23:29:36.046Z</time>
      </trkpt>
      <trkpt lat="47.02429" lon="16.05877">
        <ele>260.21711</ele>
        <time>2022-08-06T23:29:39.885Z</time>
      </trkpt>
      <trkpt lat="47.02441" lon="16.05885">
        <ele>260.326137</ele>
        <time>2022-08-06T23:29:44.083Z</time>
      </trkpt>
      <trkpt lat="47.02452" lon="16.05909">
        <ele>260.483604</ele>
        <time>2022-08-06T23:29:50.239Z</time>
      </trkpt>
      <trkpt lat="47.02458" lon="16.05946">
        <ele>260.693153</ele>
        <time>2022-08-06T23:29:57.956Z</time>
      </trkpt>
      <trkpt lat="47.02477" lon="16.05991">
        <ele>260.984744</ele>
        <time>2022-08-06T23:30:08.812Z</time>
      </trkpt>
      <trkpt lat="47.02493" lon="16.06023">
        <ele>261.207359</ele>
        <time>2022-08-06T23:30:17.145Z</time>
      </trkpt>
      <trkpt lat="47.0253" lon="16.06094">
        <ele>261.221022</ele>
        <time>2022-08-06T23:30:34.398Z</time>
      </trkpt>
      <trkpt lat="47.02518" lon="16.06188">
        <ele>261.143006</ele>
        <time>2022-08-06T23:30:51.267Z</time>
      </trkpt>
      <trkpt lat="47.02524" lon="16.06228">
        <ele>261.109248</ele>
        <time>2022-08-06T23:30:58.370Z</time>
      </trkpt>
      <trkpt lat="47.02521" lon="16.06347">
        <ele>260.893344</ele>
        <time>2022-08-06T23:31:17.935Z</time>
      </trkpt>
      <trkpt lat="47.02517" lon="16.06376">
        <ele>260.817238</ele>
        <time>2022-08-06T23:31:22.838Z</time>
      </trkpt>
      <trkpt lat="47.02519" lon="16.06437">
        <ele>260.660258</ele>
        <time>2022-08-06T23:31:33.175Z</time>
      </trkpt>
      <trkpt lat="47.02529" lon="16.06531">
        <ele>260.413522</ele>
        <time>2022-08-06T23:31:49.732Z</time>
      </trkpt>
      <trkpt lat="47.02558" lon="16.06668">
        <ele>260.719176</ele>
        <time>2022-08-06T23:32:16.066Z</time>
      </trkpt>
      <trkpt lat="47.02576" lon="16.06777">
        <ele>260.999928</ele>
        <time>2022-08-06T23:32:39.568Z</time>
      </trkpt>
      <trkpt lat="47.026" lon="16.06892">
        <ele>261.186779</ele>
        <time>2022-08-06T23:33:03.571Z</time>
      </trkpt>
      <trkpt lat="47.02613" lon="16.06926">
        <ele>261.240395</ele>
        <time>2022-08-06T23:33:11.187Z</time>
      </trkpt>
      <trkpt lat="47.02659" lon="16.06996">
        <ele>261.374869</ele>
        <time>2022-08-06T23:33:29.259Z</time>
      </trkpt>
      <trkpt lat="47.02716" lon="16.07072">
        <ele>260.961411</ele>
        <time>2022-08-06T23:33:48.203Z</time>
      </trkpt>
      <trkpt lat="47.0277" lon="16.07128">
        <ele>260.458661</ele>
        <time>2022-08-06T23:34:02.846Z</time>
      </trkpt>
      <trkpt lat="47.02828" lon="16.07338">
        <ele>259.7215</ele>
        <time>2022-08-06T23:34:41.003Z</time>
      </trkpt>
      <trkpt lat="47.02831" lon="16.07349">
        <ele>259.69583</ele>
        <time>2022-08-06T23:34:43.061Z</time>
      </trkpt>
      <trkpt lat="47.02833" lon="16.07357">
        <ele>259.676074</ele>
        <time>2022-08-06T23:34:44.642Z</time>
      </trkpt>
      <trkpt lat="47.02865" lon="16.07479">
        <ele>259.286761</ele>
        <time>2022-08-06T23:35:08.477Z</time>
      </trkpt>
      <trkpt lat="47.02862" lon="16.07482">
        <ele>259.259092</ele>
        <time>2022-08-06T23:35:09.401Z</time>
      </trkpt>
      <trkpt lat="47.02844" lon="16.07493">
        <ele>259.113526</ele>
        <time>2022-08-06T23:35:14.416Z</time>
      </trkpt>
      <trkpt lat="47.02834" lon="16.07516">
        <ele>258.977322</ele>
        <time>2022-08-06T23:35:19.141Z</time>
      </trkpt>
      <trkpt lat="47.02828" lon="16.07577">
        <ele>258.665759</ele>
        <time>2022-08-06T23:35:29.276Z</time>
      </trkpt>
      <trkpt lat="47.02819" lon="16.07619">
        <ele>258.447568</ele>
        <time>2022-08-06T23:35:36.173Z</time>
      </trkpt>
      <trkpt lat="47.02801" lon="16.07658">
        <ele>258.208642</ele>
        <time>2022-08-06T23:35:43.428Z</time>
      </trkpt>
      <trkpt lat="47.02759" lon="16.07686">
        <ele>257.657639</ele>
        <time>2022-08-06T23:35:53.287Z</time>
      </trkpt>
      <trkpt lat="47.02748" lon="16.0769">
        <ele>257.506946</ele>
        <time>2022-08-06T23:35:55.683Z</time>
      </trkpt>
      <trkpt lat="47.0274" lon="16.07673">
        <ele>257.318371</ele>
        <time>2022-08-06T23:35:58.968Z</time>
      </trkpt>
      <trkpt lat="47.02732" lon="16.07672">
        <ele>257.201348</ele>
        <time>2022-08-06T23:36:00.826Z</time>
      </trkpt>
      <trkpt lat="47.02723" lon="16.07674">
        <ele>257.086742</ele>
        <time>2022-08-06T23:36:02.642Z</time>
      </trkpt>
      <trkpt lat="47.02736" lon="16.07748">
        <ele>256.388699</ele>
        <time>2022-08-06T23:36:14.439Z</time>
      </trkpt>
      <trkpt lat="47.02761" lon="16.0785">
        <ele>255.568297</ele>
        <time>2022-08-06T23:36:30.972Z</time>
      </trkpt>
      <trkpt lat="47.02759" lon="16.07867">
        <ele>255.488216</ele>
        <time>2022-08-06T23:36:33.772Z</time>
      </trkpt>
      <trkpt lat="47.0271" lon="16.08002">
        <ele>254.808923</ele>
        <time>2022-08-06T23:36:59.139Z</time>
      </trkpt>
      <trkpt lat="47.02688" lon="16.081">
        <ele>254.657839</ele>
        <time>2022-08-06T23:37:16.969Z</time>
      </trkpt>
      <trkpt lat="47.02686" lon="16.08137">
        <ele>254.750298</ele>
        <time>2022-08-06T23:37:23.832Z</time>
      </trkpt>
      <trkpt lat="47.02688" lon="16.08167">
        <ele>254.8246</ele>
        <time>2022-08-06T23:37:29.446Z</time>
      </trkpt>
      <trkpt lat="47.02696" lon="16.082">
        <ele>254.910005</ele>
        <time>2022-08-06T23:37:35.991Z</time>
      </trkpt>
      <trkpt lat="47.027" lon="16.08222">
        <ele>254.966981</ele>
        <time>2022-08-06T23:37:40.369Z</time>
      </trkpt>
      <trkpt lat="47.02746" lon="16.08352">
        <ele>255.98253</ele>
        <time>2022-08-06T23:38:11.124Z</time>
      </trkpt>
      <trkpt lat="47.02765" lon="16.08429">
        <ele>257.218823</ele>
        <time>2022-08-06T23:38:31.584Z</time>
      </trkpt>
      <trkpt lat="47.02785" lon="16.08473">
        <ele>258.011551</ele>
        <time>2022-08-06T23:38:45.814Z</time>
      </trkpt>
      <trkpt lat="47.02863" lon="16.08569">
        <ele>260.473258</ele>
        <time>2022-08-06T23:39:28.249Z</time>
      </trkpt>
      <trkpt lat="47.02888" lon="16.08597">
        <ele>261.300382</ele>
        <time>2022-08-06T23:39:41.535Z</time>
      </trkpt>
      <trkpt lat="47.02957" lon="16.08677">
        <ele>263.616602</ele>
        <time>2022-08-06T23:40:15.848Z</time>
      </trkpt>
      <trkpt lat="47.02973" lon="16.08694">
        <ele>263.999414</ele>
        <time>2022-08-06T23:40:22.516Z</time>
      </trkpt>
      <trkpt lat="47.03025" lon="16.08753">
        <ele>264.755686</ele>
        <time>2022-08-06T23:40:43.666Z</time>
      </trkpt>
      <trkpt lat="47.03026" lon="16.08755">
        <ele>264.773552</ele>
        <time>2022-08-06T23:40:44.166Z</time>
      </trkpt>
      <trkpt lat="47.03042" lon="16.08779">
        <ele>265.035301</ele>
        <time>2022-08-06T23:40:51.345Z</time>
      </trkpt>
      <trkpt lat="47.03059" lon="16.0883">
        <ele>265.487673</ele>
        <time>2022-08-06T23:41:03.693Z</time>
      </trkpt>
      <trkpt lat="47.03071" lon="16.0886">
        <ele>265.760725</ele>
        <time>2022-08-06T23:41:10.771Z</time>
      </trkpt>
      <trkpt lat="47.03069" lon="16.08866">
        <ele>265.81023</ele>
        <time>2022-08-06T23:41:13.753Z</time>
      </trkpt>
      <trkpt lat="47.03071" lon="16.0886">
        <ele>265.859734</ele>
        <time>2022-08-06T23:41:16.737Z</time>
      </trkpt>
      <trkpt lat="47.03075" lon="16.08873">
        <ele>265.974034</ele>
        <time>2022-08-06T23:41:19.603Z</time>
      </trkpt>
      <trkpt lat="47.03081" lon="16.08872">
        <ele>266.021311</ele>
        <time>2022-08-06T23:41:21.374Z</time>
      </trkpt>
      <trkpt lat="47.03083" lon="16.08872">
        <ele>266.037346</ele>
        <time>2022-08-06T23:41:21.938Z</time>
      </trkpt>
      <trkpt lat="47.03087" lon="16.08879">
        <ele>266.083432</ele>
        <time>2022-08-06T23:41:23.674Z</time>
      </trkpt>
      <trkpt lat="47.03089" lon="16.08884">
        <ele>266.119477</ele>
        <time>2022-08-06T23:41:25.139Z</time>
      </trkpt>
      <trkpt lat="47.03095" lon="16.08895">
        <ele>266.192165</ele>
        <time>2022-08-06T23:41:28.078Z</time>
      </trkpt>
      <trkpt lat="47.03104" lon="16.08911">
        <ele>266.310756</ele>
        <time>2022-08-06T23:41:32.703Z</time>
      </trkpt>
      <trkpt lat="47.03115" lon="16.0893">
        <ele>266.444904</ele>
        <time>2022-08-06T23:41:38.021Z</time>
      </trkpt>
      <trkpt lat="47.03134" lon="16.08961">
        <ele>266.669838</ele>
        <time>2022-08-06T23:41:47.171Z</time>
      </trkpt>
      <trkpt lat="47.03141" lon="16.08973">
        <ele>266.756472</ele>
        <time>2022-08-06T23:41:50.973Z</time>
      </trkpt>
      <trkpt lat="47.03229" lon="16.09123">
        <ele>267.350896</ele>
        <time>2022-08-06T23:42:32.932Z</time>
      </trkpt>
      <trkpt lat="47.03233" lon="16.0913">
        <ele>267.342919</ele>
        <time>2022-08-06T23:42:34.862Z</time>
      </trkpt>
      <trkpt lat="47.0326" lon="16.09175">
        <ele>267.293511</ele>
        <time>2022-08-06T23:42:45.614Z</time>
      </trkpt>
      <trkpt lat="47.03268" lon="16.0919">
        <ele>267.277781</ele>
        <time>2022-08-06T23:42:48.935Z</time>
      </trkpt>
      <trkpt lat="47.03276" lon="16.09204">
        <ele>267.262258</ele>
        <time>2022-08-06T23:42:52.212Z</time>
      </trkpt>
      <trkpt lat="47.03405" lon="16.09422">
        <ele>266.258367</ele>
        <time>2022-08-06T23:43:41.613Z</time>
      </trkpt>
      <trkpt lat="47.03413" lon="16.09436">
        <ele>266.179158</ele>
        <time>2022-08-06T23:43:44.687Z</time>
      </trkpt>
      <trkpt lat="47.03431" lon="16.09464">
        <ele>266.004852</ele>
        <time>2022-08-06T23:43:51.489Z</time>
      </trkpt>
      <trkpt lat="47.03435" lon="16.09471">
        <ele>265.974352</ele>
        <time>2022-08-06T23:43:52.927Z</time>
      </trkpt>
      <trkpt lat="47.03509" lon="16.09595">
        <ele>265.359898</ele>
        <time>2022-08-06T23:44:21.874Z</time>
      </trkpt>
      <trkpt lat="47.03554" lon="16.0967">
        <ele>264.965192</ele>
        <time>2022-08-06T23:44:39.480Z</time>
      </trkpt>
      <trkpt lat="47.0359" lon="16.09729">
        <ele>264.509905</ele>
        <time>2022-08-06T23:44:53.227Z</time>
      </trkpt>
      <trkpt lat="47.03593" lon="16.09735">
        <ele>264.458941</ele>
        <time>2022-08-06T23:44:54.779Z</time>
      </trkpt>
      <trkpt lat="47.03662" lon="16.09869">
        <ele>263.470653</ele>
        <time>2022-08-06T23:45:22.652Z</time>
      </trkpt>
      <trkpt lat="47.03673" lon="16.09888">
        <ele>263.049242</ele>
        <time>2022-08-06T23:45:26.530Z</time>
      </trkpt>
      <trkpt lat="47.03714" lon="16.09949">
        <ele>261.599207</ele>
        <time>2022-08-06T23:45:39.492Z</time>
      </trkpt>
      <trkpt lat="47.03728" lon="16.09969">
        <ele>261.124681</ele>
        <time>2022-08-06T23:45:43.576Z</time>
      </trkpt>
      <trkpt lat="47.03733" lon="16.09977">
        <ele>260.928188</ele>
        <time>2022-08-06T23:45:45.257Z</time>
      </trkpt>
      <trkpt lat="47.03891" lon="16.10203">
        <ele>254.599701</ele>
        <time>2022-08-06T23:46:30.261Z</time>
      </trkpt>
      <trkpt lat="47.03909" lon="16.10186">
        <ele>253.954761</ele>
        <time>2022-08-06T23:46:34.784Z</time>
      </trkpt>
      <trkpt lat="47.03924" lon="16.10191">
        <ele>253.480586</ele>
        <time>2022-08-06T23:46:38.101Z</time>
      </trkpt>
      <trkpt lat="47.03993" lon="16.10239">
        <ele>251.784307</ele>
        <time>2022-08-06T23:46:54.893Z</time>
      </trkpt>
      <trkpt lat="47.04014" lon="16.10254">
        <ele>251.258416</ele>
        <time>2022-08-06T23:47:00.083Z</time>
      </trkpt>
      <trkpt lat="47.04027" lon="16.10262">
        <ele>250.939585</ele>
        <time>2022-08-06T23:47:03.209Z</time>
      </trkpt>
      <trkpt lat="47.04084" lon="16.10281">
        <ele>249.640048</ele>
        <time>2022-08-06T23:47:15.809Z</time>
      </trkpt>
      <trkpt lat="47.04094" lon="16.1028">
        <ele>249.434995</ele>
        <time>2022-08-06T23:47:17.853Z</time>
      </trkpt>
      <trkpt lat="47.04128" lon="16.10278">
        <ele>248.727048</ele>
        <time>2022-08-06T23:47:25.364Z</time>
      </trkpt>
      <trkpt lat="47.04141" lon="16.1028">
        <ele>248.475097</ele>
        <time>2022-08-06T23:47:28.041Z</time>
      </trkpt>
      <trkpt lat="47.04177" lon="16.10286">
        <ele>247.732013</ele>
        <time>2022-08-06T23:47:35.989Z</time>
      </trkpt>
      <trkpt lat="47.042" lon="16.10295">
        <ele>247.254611</ele>
        <time>2022-08-06T23:47:41.098Z</time>
      </trkpt>
      <trkpt lat="47.04207" lon="16.10345">
        <ele>246.546571</ele>
        <time>2022-08-06T23:47:48.400Z</time>
      </trkpt>
      <trkpt lat="47.04235" lon="16.10384">
        <ele>245.817586</ele>
        <time>2022-08-06T23:47:56.416Z</time>
      </trkpt>
      <trkpt lat="47.04357" lon="16.10441">
        <ele>245.004752</ele>
        <time>2022-08-06T23:48:26.978Z</time>
      </trkpt>
      <trkpt lat="47.04369" lon="16.10459">
        <ele>244.898601</ele>
        <time>2022-08-06T23:48:31.546Z</time>
      </trkpt>
      <trkpt lat="47.04397" lon="16.10601">
        <ele>244.93339</ele>
        <time>2022-08-06T23:49:00.305Z</time>
      </trkpt>
      <trkpt lat="47.04406" lon="16.10714">
        <ele>245.190644</ele>
        <time>2022-08-06T23:49:22.834Z</time>
      </trkpt>
      <trkpt lat="47.04417" lon="16.10741">
        <ele>245.261755</ele>
        <time>2022-08-06T23:49:28.833Z</time>
      </trkpt>
      <trkpt lat="47.04435" lon="16.10758">
        <ele>245.28655</ele>
        <time>2022-08-06T23:49:34.611Z</time>
      </trkpt>
      <trkpt lat="47.04448" lon="16.10754">
        <ele>245.265721</ele>
        <time>2022-08-06T23:49:38.372Z</time>
      </trkpt>
      <trkpt lat="47.04503" lon="16.10666">
        <ele>245.144678</ele>
        <time>2022-08-06T23:49:59.799Z</time>
      </trkpt>
      <trkpt lat="47.04508" lon="16.10669">
        <ele>245.136837</ele>
        <time>2022-08-06T23:50:01.152Z</time>
      </trkpt>
      <trkpt lat="47.04517" lon="16.10679">
        <ele>245.119796</ele>
        <time>2022-08-06T23:50:04.057Z</time>
      </trkpt>
      <trkpt lat="47.04545" lon="16.10725">
        <ele>245.057506</ele>
        <time>2022-08-06T23:50:14.647Z</time>
      </trkpt>
      <trkpt lat="47.04546" lon="16.10727">
        <ele>245.054237</ele>
        <time>2022-08-06T23:50:15.209Z</time>
      </trkpt>
      <trkpt lat="47.04581" lon="16.10932">
        <ele>244.547051</ele>
        <time>2022-08-06T23:50:50.931Z</time>
      </trkpt>
      <trkpt lat="47.04602" lon="16.1103">
        <ele>244.297363</ele>
        <time>2022-08-06T23:51:08.619Z</time>
      </trkpt>
      <trkpt lat="47.04633" lon="16.11258">
        <ele>243.806443</ele>
        <time>2022-08-06T23:51:48.948Z</time>
      </trkpt>
      <trkpt lat="47.04657" lon="16.1134">
        <ele>243.756952</ele>
        <time>2022-08-06T23:52:04.314Z</time>
      </trkpt>
      <trkpt lat="47.04638" lon="16.11606">
        <ele>243.618788</ele>
        <time>2022-08-06T23:52:53.325Z</time>
      </trkpt>
      <trkpt lat="47.04615" lon="16.11688">
        <ele>243.572656</ele>
        <time>2022-08-06T23:53:09.265Z</time>
      </trkpt>
      <trkpt lat="47.0461" lon="16.11705">
        <ele>243.563485</ele>
        <time>2022-08-06T23:53:14.619Z</time>
      </trkpt>
      <trkpt lat="47.04585" lon="16.11786">
        <ele>243.502905</ele>
        <time>2022-08-06T23:53:30.218Z</time>
      </trkpt>
      <trkpt lat="47.04586" lon="16.11827">
        <ele>243.454676</ele>
        <time>2022-08-06T23:53:37.416Z</time>
      </trkpt>
      <trkpt lat="47.04589" lon="16.11855">
        <ele>243.421761</ele>
        <time>2022-08-06T23:53:42.427Z</time>
      </trkpt>
      <trkpt lat="47.04583" lon="16.11887">
        <ele>243.382776</ele>
        <time>2022-08-06T23:53:48.324Z</time>
      </trkpt>
      <trkpt lat="47.04588" lon="16.11903">
        <ele>243.362552</ele>
        <time>2022-08-06T23:53:53.526Z</time>
      </trkpt>
      <trkpt lat="47.04599" lon="16.11926">
        <ele>243.329546</ele>
        <time>2022-08-06T23:54:01.892Z</time>
      </trkpt>
      <trkpt lat="47.04566" lon="16.11958">
        <ele>243.261378</ele>
        <time>2022-08-06T23:54:12.492Z</time>
      </trkpt>
      <trkpt lat="47.04556" lon="16.11983">
        <ele>243.227441</ele>
        <time>2022-08-06T23:54:17.782Z</time>
      </trkpt>
      <trkpt lat="47.04551" lon="16.12017">
        <ele>243.326755</ele>
        <time>2022-08-06T23:54:23.973Z</time>
      </trkpt>
      <trkpt lat="47.04557" lon="16.12067">
        <ele>243.527771</ele>
        <time>2022-08-06T23:54:33.182Z</time>
      </trkpt>
      <trkpt lat="47.04582" lon="16.12199">
        <ele>244.071336</ele>
        <time>2022-08-06T23:55:02.402Z</time>
      </trkpt>
      <trkpt lat="47.04591" lon="16.12242">
        <ele>244.249565</ele>
        <time>2022-08-06T23:55:13.209Z</time>
      </trkpt>
      <trkpt lat="47.04597" lon="16.1226">
        <ele>244.408059</ele>
        <time>2022-08-06T23:55:18.185Z</time>
      </trkpt>
      <trkpt lat="47.04634" lon="16.12327">
        <ele>245.156814</ele>
        <time>2022-08-06T23:55:38.236Z</time>
      </trkpt>
      <trkpt lat="47.04637" lon="16.12331">
        <ele>245.208756</ele>
        <time>2022-08-06T23:55:39.669Z</time>
      </trkpt>
      <trkpt lat="47.04668" lon="16.12381">
        <ele>245.795377</ele>
        <time>2022-08-06T23:55:55.190Z</time>
      </trkpt>
      <trkpt lat="47.04673" lon="16.12388">
        <ele>245.879391</ele>
        <time>2022-08-06T23:55:57.366Z</time>
      </trkpt>
      <trkpt lat="47.04685" lon="16.12408">
        <ele>246.113028</ele>
        <time>2022-08-06T23:56:03.396Z</time>
      </trkpt>
      <trkpt lat="47.04696" lon="16.12415">
        <ele>246.263456</ele>
        <time>2022-08-06T23:56:07.544Z</time>
      </trkpt>
      <trkpt lat="47.04721" lon="16.1241">
        <ele>246.573606</ele>
        <time>2022-08-06T23:56:16.609Z</time>
      </trkpt>
      <trkpt lat="47.04805" lon="16.12345">
        <ele>247.105224</ele>
        <time>2022-08-06T23:56:47.223Z</time>
      </trkpt>
      <trkpt lat="47.04817" lon="16.12335">
        <ele>247.184723</ele>
        <time>2022-08-06T23:56:51.154Z</time>
      </trkpt>
      <trkpt lat="47.04833" lon="16.12322">
        <ele>247.288041</ele>
        <time>2022-08-06T23:56:56.196Z</time>
      </trkpt>
      <trkpt lat="47.04868" lon="16.12289">
        <ele>247.519272</ele>
        <time>2022-08-06T23:57:07.310Z</time>
      </trkpt>
      <trkpt lat="47.04888" lon="16.1226">
        <ele>247.583934</ele>
        <time>2022-08-06T23:57:15.253Z</time>
      </trkpt>
      <trkpt lat="47.04931" lon="16.12226">
        <ele>247.626036</ele>
        <time>2022-08-06T23:57:29.587Z</time>
      </trkpt>
      <trkpt lat="47.04949" lon="16.12235">
        <ele>247.64302</ele>
        <time>2022-08-06T23:57:35.283Z</time>
      </trkpt>
      <trkpt lat="47.04968" lon="16.1222">
        <ele>247.661736</ele>
        <time>2022-08-06T23:57:41.393Z</time>
      </trkpt>
      <trkpt lat="47.04975" lon="16.12193">
        <ele>247.678641</ele>
        <time>2022-08-06T23:57:46.863Z</time>
      </trkpt>
      <trkpt lat="47.05037" lon="16.12146">
        <ele>247.666298</ele>
        <time>2022-08-06T23:58:06.046Z</time>
      </trkpt>
      <trkpt lat="47.0513" lon="16.12078">
        <ele>247.359903</ele>
        <time>2022-08-06T23:58:34.269Z</time>
      </trkpt>
      <trkpt lat="47.05147" lon="16.12058">
        <ele>247.294406</ele>
        <time>2022-08-06T23:58:40.015Z</time>
      </trkpt>
      <trkpt lat="47.05159" lon="16.12046">
        <ele>247.252291</ele>
        <time>2022-08-06T23:58:43.575Z</time>
      </trkpt>
      <trkpt lat="47.05184" lon="16.1202">
        <ele>247.131768</ele>
        <time>2022-08-06T23:58:51.154Z</time>
      </trkpt>
      <trkpt lat="47.05188" lon="16.12009">
        <ele>247.079059</ele>
        <time>2022-08-06T23:58:53.258Z</time>
      </trkpt>
      <trkpt lat="47.05207" lon="16.11995">
        <ele>246.95405</ele>
        <time>2022-08-06T23:58:58.533Z</time>
      </trkpt>
      <trkpt lat="47.05243" lon="16.11968">
        <ele>246.705076</ele>
        <time>2022-08-06T23:59:09.045Z</time>
      </trkpt>
      <trkpt lat="47.0525" lon="16.11955">
        <ele>246.63813</ele>
        <time>2022-08-06T23:59:11.878Z</time>
      </trkpt>
      <trkpt lat="47.05252" lon="16.11954">
        <ele>246.625454</ele>
        <time>2022-08-06T23:59:12.424Z</time>
      </trkpt>
      <trkpt lat="47.0527" lon="16.11958">
        <ele>246.517758</ele>
        <time>2022-08-06T23:59:17.015Z</time>
      </trkpt>
      <trkpt lat="47.05275" lon="16.11956">
        <ele>246.485802</ele>
        <time>2022-08-06T23:59:18.323Z</time>
      </trkpt>
      <trkpt lat="47.0528" lon="16.11954">
        <ele>246.453661</ele>
        <time>2022-08-06T23:59:19.636Z</time>
      </trkpt>
      <trkpt lat="47.05303" lon="16.11946">
        <ele>246.3094</ele>
        <time>2022-08-06T23:59:25.536Z</time>
      </trkpt>
      <trkpt lat="47.05366" lon="16.11921">
        <ele>245.963321</ele>
        <time>2022-08-06T23:59:41.008Z</time>
      </trkpt>
      <trkpt lat="47.05384" lon="16.11915">
        <ele>245.881121</ele>
        <time>2022-08-06T23:59:45.340Z</time>
      </trkpt>
      <trkpt lat="47.05418" lon="16.11904">
        <ele>245.72465</ele>
        <time>2022-08-06T23:59:53.801Z</time>
      </trkpt>
      <trkpt lat="47.05439" lon="16.11895">
        <ele>245.626852</ele>
        <time>2022-08-06T23:59:59.267Z</time>
      </trkpt>
      <trkpt lat="47.05463" lon="16.11886">
        <ele>245.518389</ele>
        <time>2022-08-07T00:00:05.454Z</time>
      </trkpt>
      <trkpt lat="47.05481" lon="16.11879">
        <ele>245.432277</ele>
        <time>2022-08-07T00:00:10.486Z</time>
      </trkpt>
      <trkpt lat="47.05498" lon="16.11873">
        <ele>245.355963</ele>
        <time>2022-08-07T00:00:14.875Z</time>
      </trkpt>
      <trkpt lat="47.05509" lon="16.11869">
        <ele>245.303659</ele>
        <time>2022-08-07T00:00:17.948Z</time>
      </trkpt>
      <trkpt lat="47.0554" lon="16.11857">
        <ele>245.455768</ele>
        <time>2022-08-07T00:00:26.239Z</time>
      </trkpt>
      <trkpt lat="47.05586" lon="16.1184">
        <ele>245.700121</ele>
        <time>2022-08-07T00:00:39.458Z</time>
      </trkpt>
      <trkpt lat="47.05624" lon="16.11826">
        <ele>245.899198</ele>
        <time>2022-08-07T00:00:50.891Z</time>
      </trkpt>
      <trkpt lat="47.05641" lon="16.1182">
        <ele>245.989275</ele>
        <time>2022-08-07T00:00:56.286Z</time>
      </trkpt>
      <trkpt lat="47.05682" lon="16.11803">
        <ele>246.206648</ele>
        <time>2022-08-07T00:01:09.965Z</time>
      </trkpt>
      <trkpt lat="47.05763" lon="16.11774">
        <ele>247.218237</ele>
        <time>2022-08-07T00:01:36.632Z</time>
      </trkpt>
      <trkpt lat="47.05805" lon="16.11759">
        <ele>247.743615</ele>
        <time>2022-08-07T00:01:50.226Z</time>
      </trkpt>
      <trkpt lat="47.05809" lon="16.11757">
        <ele>247.800553</ele>
        <time>2022-08-07T00:01:51.718Z</time>
      </trkpt>
      <trkpt lat="47.05821" lon="16.11753">
        <ele>247.954258</ele>
        <time>2022-08-07T00:01:55.774Z</time>
      </trkpt>
      <trkpt lat="47.05853" lon="16.11741">
        <ele>248.358996</ele>
        <time>2022-08-07T00:02:06.969Z</time>
      </trkpt>
      <trkpt lat="47.05943" lon="16.11706">
        <ele>250.216935</ele>
        <time>2022-08-07T00:02:40.125Z</time>
      </trkpt>
      <trkpt lat="47.06029" lon="16.11888">
        <ele>253.832794</ele>
        <time>2022-08-07T00:03:36.809Z</time>
      </trkpt>
      <trkpt lat="47.06108" lon="16.12088">
        <ele>259.470377</ele>
        <time>2022-08-07T00:04:42.662Z</time>
      </trkpt>
      <trkpt lat="47.0615" lon="16.12233">
        <ele>265.554175</ele>
        <time>2022-08-07T00:05:39.602Z</time>
      </trkpt>
      <trkpt lat="47.06172" lon="16.12427">
        <ele>273.733129</ele>
        <time>2022-08-07T00:07:11.036Z</time>
      </trkpt>
      <trkpt lat="47.06216" lon="16.12555">
        <ele>279.108596</ele>
        <time>2022-08-07T00:07:56.684Z</time>
      </trkpt>
      <trkpt lat="47.06285" lon="16.1259">
        <ele>280.118894</ele>
        <time>2022-08-07T00:08:22.790Z</time>
      </trkpt>
      <trkpt lat="47.06346" lon="16.12634">
        <ele>281.057665</ele>
        <time>2022-08-07T00:08:39.419Z</time>
      </trkpt>
      <trkpt lat="47.06398" lon="16.12662">
        <ele>282.946694</ele>
        <time>2022-08-07T00:08:53.204Z</time>
      </trkpt>
      <trkpt lat="47.06471" lon="16.12701">
        <ele>286.775128</ele>
        <time>2022-08-07T00:09:34.427Z</time>
      </trkpt>
      <trkpt lat="47.06503" lon="16.12707">
        <ele>288.33517</ele>
        <time>2022-08-07T00:09:54.154Z</time>
      </trkpt>
      <trkpt lat="47.0653" lon="16.12709">
        <ele>289.675043</ele>
        <time>2022-08-07T00:10:11.415Z</time>
      </trkpt>
      <trkpt lat="47.06548" lon="16.12709">
        <ele>290.687715</ele>
        <time>2022-08-07T00:10:21.829Z</time>
      </trkpt>
      <trkpt lat="47.06589" lon="16.12695">
        <ele>293.584925</ele>
        <time>2022-08-07T00:10:49.133Z</time>
      </trkpt>
      <trkpt lat="47.06601" lon="16.12696">
        <ele>294.416604</ele>
        <time>2022-08-07T00:10:57.703Z</time>
      </trkpt>
      <trkpt lat="47.06623" lon="16.12713">
        <ele>296.128868</ele>
        <time>2022-08-07T00:11:13.152Z</time>
      </trkpt>
      <trkpt lat="47.06662" lon="16.12762">
        <ele>299.69799</ele>
        <time>2022-08-07T00:11:45.453Z</time>
      </trkpt>
      <trkpt lat="47.06669" lon="16.12815">
        <ele>302.229537</ele>
        <time>2022-08-07T00:12:05.236Z</time>
      </trkpt>
      <trkpt lat="47.06675" lon="16.1284">
        <ele>303.270866</ele>
        <time>2022-08-07T00:12:13.613Z</time>
      </trkpt>
      <trkpt lat="47.06685" lon="16.12858">
        <ele>304.116919</ele>
        <time>2022-08-07T00:12:21.507Z</time>
      </trkpt>
      <trkpt lat="47.06793" lon="16.1292">
        <ele>310.220639</ele>
        <time>2022-08-07T00:13:17.635Z</time>
      </trkpt>
      <trkpt lat="47.06834" lon="16.12923">
        <ele>312.473817</ele>
        <time>2022-08-07T00:13:41.727Z</time>
      </trkpt>
      <trkpt lat="47.06851" lon="16.12915">
        <ele>313.690475</ele>
        <time>2022-08-07T00:13:52.375Z</time>
      </trkpt>
      <trkpt lat="47.0688" lon="16.12843">
        <ele>317.655638</ele>
        <time>2022-08-07T00:14:26.788Z</time>
      </trkpt>
      <trkpt lat="47.06934" lon="16.12734">
        <ele>324.010086</ele>
        <time>2022-08-07T00:15:22.532Z</time>
      </trkpt>
      <trkpt lat="47.06974" lon="16.12758">
        <ele>326.646174</ele>
        <time>2022-08-07T00:15:50.084Z</time>
      </trkpt>
      <trkpt lat="47.07028" lon="16.12773">
        <ele>329.910209</ele>
        <time>2022-08-07T00:16:22.313Z</time>
      </trkpt>
      <trkpt lat="47.07062" lon="16.12797">
        <ele>332.118297</ele>
        <time>2022-08-07T00:16:41.909Z</time>
      </trkpt>
      <trkpt lat="47.07088" lon="16.12821">
        <ele>333.948885</ele>
        <time>2022-08-07T00:16:56.592Z</time>
      </trkpt>
      <trkpt lat="47.07107" lon="16.12825">
        <ele>335.095711</ele>
        <time>2022-08-07T00:17:05.815Z</time>
      </trkpt>
      <trkpt lat="47.0715" lon="16.12824">
        <ele>336.843943</ele>
        <time>2022-08-07T00:17:26.987Z</time>
      </trkpt>
      <trkpt lat="47.07163" lon="16.12826">
        <ele>337.341213</ele>
        <time>2022-08-07T00:17:32.962Z</time>
      </trkpt>
      <trkpt lat="47.07184" lon="16.12849">
        <ele>338.391977</ele>
        <time>2022-08-07T00:17:46.299Z</time>
      </trkpt>
      <trkpt lat="47.0722" lon="16.12844">
        <ele>339.818922</ele>
        <time>2022-08-07T00:18:03.747Z</time>
      </trkpt>
      <trkpt lat="47.0727" lon="16.12847">
        <ele>341.822282</ele>
        <time>2022-08-07T00:18:25.980Z</time>
      </trkpt>
      <trkpt lat="47.07279" lon="16.12851">
        <ele>342.197271</ele>
        <time>2022-08-07T00:18:30.189Z</time>
      </trkpt>
      <trkpt lat="47.07381" lon="16.12854">
        <ele>343.76521</ele>
        <time>2022-08-07T00:19:08.673Z</time>
      </trkpt>
      <trkpt lat="47.07411" lon="16.12864">
        <ele>344.214762</ele>
        <time>2022-08-07T00:19:18.756Z</time>
      </trkpt>
      <trkpt lat="47.07445" lon="16.12865">
        <ele>344.700113</ele>
        <time>2022-08-07T00:19:29.109Z</time>
      </trkpt>
      <trkpt lat="47.07555" lon="16.12846">
        <ele>344.68211</ele>
        <time>2022-08-07T00:20:16.237Z</time>
      </trkpt>
      <trkpt lat="47.07579" lon="16.12853">
        <ele>344.610779</ele>
        <time>2022-08-07T00:20:26.071Z</time>
      </trkpt>
      <trkpt lat="47.0759" lon="16.12856">
        <ele>344.578995</ele>
        <time>2022-08-07T00:20:29.051Z</time>
      </trkpt>
      <trkpt lat="47.07597" lon="16.12886">
        <ele>344.517302</ele>
        <time>2022-08-07T00:20:34.144Z</time>
      </trkpt>
      <trkpt lat="47.07641" lon="16.12823">
        <ele>344.995024</ele>
        <time>2022-08-07T00:20:50.862Z</time>
      </trkpt>
      <trkpt lat="47.07667" lon="16.12781">
        <ele>345.692565</ele>
        <time>2022-08-07T00:21:03.850Z</time>
      </trkpt>
      <trkpt lat="47.07675" lon="16.12767">
        <ele>345.913715</ele>
        <time>2022-08-07T00:21:08.130Z</time>
      </trkpt>
      <trkpt lat="47.07805" lon="16.12627">
        <ele>349.223882</ele>
        <time>2022-08-07T00:22:12.461Z</time>
      </trkpt>
      <trkpt lat="47.07839" lon="16.12605">
        <ele>350.129543</ele>
        <time>2022-08-07T00:22:28.033Z</time>
      </trkpt>
      <trkpt lat="47.07907" lon="16.12583">
        <ele>351.809915</ele>
        <time>2022-08-07T00:22:53.935Z</time>
      </trkpt>
      <trkpt lat="47.07987" lon="16.12543">
        <ele>353.11601</ele>
        <time>2022-08-07T00:23:20.714Z</time>
      </trkpt>
      <trkpt lat="47.08073" lon="16.12479">
        <ele>354.498631</ele>
        <time>2022-08-07T00:23:53.701Z</time>
      </trkpt>
      <trkpt lat="47.08088" lon="16.12459">
        <ele>354.644055</ele>
        <time>2022-08-07T00:24:00.571Z</time>
      </trkpt>
      <trkpt lat="47.08095" lon="16.12432">
        <ele>354.693637</ele>
        <time>2022-08-07T00:24:07.500Z</time>
      </trkpt>
      <trkpt lat="47.08136" lon="16.12391">
        <ele>354.817123</ele>
        <time>2022-08-07T00:24:23.037Z</time>
      </trkpt>
      <trkpt lat="47.08219" lon="16.12319">
        <ele>355.056479</ele>
        <time>2022-08-07T00:24:47.536Z</time>
      </trkpt>
      <trkpt lat="47.08377" lon="16.12229">
        <ele>352.999152</ele>
        <time>2022-08-07T00:25:24.095Z</time>
      </trkpt>
      <trkpt lat="47.08439" lon="16.12214">
        <ele>353.37589</ele>
        <time>2022-08-07T00:25:40.863Z</time>
      </trkpt>
      <trkpt lat="47.08501" lon="16.12208">
        <ele>354.051064</ele>
        <time>2022-08-07T00:26:01.584Z</time>
      </trkpt>
      <trkpt lat="47.08552" lon="16.12173">
        <ele>354.649133</ele>
        <time>2022-08-07T00:26:22.397Z</time>
      </trkpt>
      <trkpt lat="47.08571" lon="16.1216">
        <ele>354.86082</ele>
        <time>2022-08-07T00:26:30.502Z</time>
      </trkpt>
      <trkpt lat="47.08602" lon="16.12158">
        <ele>355.125251</ele>
        <time>2022-08-07T00:26:41.685Z</time>
      </trkpt>
      <trkpt lat="47.08675" lon="16.12193">
        <ele>355.797749</ele>
        <time>2022-08-07T00:27:06.864Z</time>
      </trkpt>
      <trkpt lat="47.08724" lon="16.12191">
        <ele>356.224602</ele>
        <time>2022-08-07T00:27:19.299Z</time>
      </trkpt>
      <trkpt lat="47.08814" lon="16.12221">
        <ele>356.393015</ele>
        <time>2022-08-07T00:27:41.502Z</time>
      </trkpt>
      <trkpt lat="47.08817" lon="16.12222">
        <ele>356.39535</ele>
        <time>2022-08-07T00:27:42.326Z</time>
      </trkpt>
      <trkpt lat="47.0883" lon="16.12226">
        <ele>356.404545</ele>
        <time>2022-08-07T00:27:45.601Z</time>
      </trkpt>
      <trkpt lat="47.08936" lon="16.12269">
        <ele>356.885996</ele>
        <time>2022-08-07T00:28:18.113Z</time>
      </trkpt>
      <trkpt lat="47.08957" lon="16.12282">
        <ele>357.252528</ele>
        <time>2022-08-07T00:28:25.891Z</time>
      </trkpt>
      <trkpt lat="47.09087" lon="16.12333">
        <ele>359.402517</ele>
        <time>2022-08-07T00:29:16.057Z</time>
      </trkpt>
      <trkpt lat="47.0912" lon="16.12352">
        <ele>359.087247</ele>
        <time>2022-08-07T00:29:27.493Z</time>
      </trkpt>
      <trkpt lat="47.09139" lon="16.12363">
        <ele>358.908928</ele>
        <time>2022-08-07T00:29:33.363Z</time>
      </trkpt>
      <trkpt lat="47.09176" lon="16.12371">
        <ele>358.582599</ele>
        <time>2022-08-07T00:29:42.044Z</time>
      </trkpt>
      <trkpt lat="47.09275" lon="16.1235">
        <ele>357.435115</ele>
        <time>2022-08-07T00:30:02.583Z</time>
      </trkpt>
      <trkpt lat="47.09309" lon="16.12345">
        <ele>356.565499</ele>
        <time>2022-08-07T00:30:09.297Z</time>
      </trkpt>
      <trkpt lat="47.09342" lon="16.12339">
        <ele>355.734232</ele>
        <time>2022-08-07T00:30:15.558Z</time>
      </trkpt>
      <trkpt lat="47.09363" lon="16.1259">
        <ele>352.474525</ele>
        <time>2022-08-07T00:30:51.629Z</time>
      </trkpt>
      <trkpt lat="47.09366" lon="16.12613">
        <ele>352.304222</ele>
        <time>2022-08-07T00:30:55.496Z</time>
      </trkpt>
      <trkpt lat="47.09368" lon="16.12631">
        <ele>352.170362</ele>
        <time>2022-08-07T00:30:58.578Z</time>
      </trkpt>
      <trkpt lat="47.09387" lon="16.12778">
        <ele>351.581751</ele>
        <time>2022-08-07T00:31:24.031Z</time>
      </trkpt>
      <trkpt lat="47.09412" lon="16.12924">
        <ele>352.51842</ele>
        <time>2022-08-07T00:31:55.578Z</time>
      </trkpt>
      <trkpt lat="47.09482" lon="16.13158">
        <ele>354.256171</ele>
        <time>2022-08-07T00:32:57.448Z</time>
      </trkpt>
      <trkpt lat="47.09498" lon="16.13196">
        <ele>354.569123</ele>
        <time>2022-08-07T00:33:06.838Z</time>
      </trkpt>
      <trkpt lat="47.0957" lon="16.13336">
        <ele>353.03069</ele>
        <time>2022-08-07T00:33:33.478Z</time>
      </trkpt>
      <trkpt lat="47.09583" lon="16.13381">
        <ele>352.368746</ele>
        <time>2022-08-07T00:33:39.977Z</time>
      </trkpt>
      <trkpt lat="47.09616" lon="16.13501">
        <ele>350.712549</ele>
        <time>2022-08-07T00:33:57.613Z</time>
      </trkpt>
      <trkpt lat="47.09624" lon="16.1352">
        <ele>350.457188</ele>
        <time>2022-08-07T00:34:00.552Z</time>
      </trkpt>
      <trkpt lat="47.09638" lon="16.1355">
        <ele>350.037263</ele>
        <time>2022-08-07T00:34:05.784Z</time>
      </trkpt>
      <trkpt lat="47.09751" lon="16.13776">
        <ele>347.348709</ele>
        <time>2022-08-07T00:34:50.508Z</time>
      </trkpt>
      <trkpt lat="47.09778" lon="16.1384">
        <ele>346.798948</ele>
        <time>2022-08-07T00:35:03.197Z</time>
      </trkpt>
      <trkpt lat="47.09805" lon="16.13923">
        <ele>345.81606</ele>
        <time>2022-08-07T00:35:16.565Z</time>
      </trkpt>
      <trkpt lat="47.09824" lon="16.14033">
        <ele>343.680898</ele>
        <time>2022-08-07T00:35:32.244Z</time>
      </trkpt>
      <trkpt lat="47.09831" lon="16.14047">
        <ele>343.346604</ele>
        <time>2022-08-07T00:35:34.595Z</time>
      </trkpt>
      <trkpt lat="47.09857" lon="16.14068">
        <ele>342.538711</ele>
        <time>2022-08-07T00:35:40.311Z</time>
      </trkpt>
      <trkpt lat="47.09885" lon="16.14083">
        <ele>341.714015</ele>
        <time>2022-08-07T00:35:46.151Z</time>
      </trkpt>
      <trkpt lat="47.09968" lon="16.14113">
        <ele>339.091917</ele>
        <time>2022-08-07T00:36:02.581Z</time>
      </trkpt>
      <trkpt lat="47.09985" lon="16.14127">
        <ele>338.471182</ele>
        <time>2022-08-07T00:36:06.408Z</time>
      </trkpt>
      <trkpt lat="47.10038" lon="16.14196">
        <ele>336.270683</ele>
        <time>2022-08-07T00:36:20.402Z</time>
      </trkpt>
      <trkpt lat="47.10059" lon="16.14224">
        <ele>335.619189</ele>
        <time>2022-08-07T00:36:26.141Z</time>
      </trkpt>
      <trkpt lat="47.1008" lon="16.14265">
        <ele>335.215748</ele>
        <time>2022-08-07T00:36:33.426Z</time>
      </trkpt>
      <trkpt lat="47.10097" lon="16.14316">
        <ele>334.768705</ele>
        <time>2022-08-07T00:36:41.707Z</time>
      </trkpt>
      <trkpt lat="47.10133" lon="16.14416">
        <ele>333.874696</ele>
        <time>2022-08-07T00:37:00.169Z</time>
      </trkpt>
      <trkpt lat="47.10167" lon="16.14477">
        <ele>334.164473</ele>
        <time>2022-08-07T00:37:15.779Z</time>
      </trkpt>
      <trkpt lat="47.10175" lon="16.14492">
        <ele>334.355062</ele>
        <time>2022-08-07T00:37:20.097Z</time>
      </trkpt>
      <trkpt lat="47.10212" lon="16.14547">
        <ele>335.074545</ele>
        <time>2022-08-07T00:37:39.225Z</time>
      </trkpt>
      <trkpt lat="47.10277" lon="16.14608">
        <ele>336.145798</ele>
        <time>2022-08-07T00:38:07.476Z</time>
      </trkpt>
      <trkpt lat="47.10358" lon="16.14648">
        <ele>336.281751</ele>
        <time>2022-08-07T00:38:34.101Z</time>
      </trkpt>
      <trkpt lat="47.1048" lon="16.14691">
        <ele>336.294239</ele>
        <time>2022-08-07T00:39:03.706Z</time>
      </trkpt>
      <trkpt lat="47.10571" lon="16.14725">
        <ele>335.887995</ele>
        <time>2022-08-07T00:39:25.738Z</time>
      </trkpt>
      <trkpt lat="47.10592" lon="16.14722">
        <ele>335.799315</ele>
        <time>2022-08-07T00:39:31.049Z</time>
      </trkpt>
      <trkpt lat="47.10678" lon="16.14682">
        <ele>336.121132</ele>
        <time>2022-08-07T00:39:58.471Z</time>
      </trkpt>
      <trkpt lat="47.1071" lon="16.14679">
        <ele>336.391779</ele>
        <time>2022-08-07T00:40:09.312Z</time>
      </trkpt>
      <trkpt lat="47.10811" lon="16.14702">
        <ele>337.02845</ele>
        <time>2022-08-07T00:40:41.406Z</time>
      </trkpt>
      <trkpt lat="47.10847" lon="16.14709">
        <ele>336.418512</ele>
        <time>2022-08-07T00:40:51.448Z</time>
      </trkpt>
      <trkpt lat="47.10862" lon="16.14712">
        <ele>336.163779</ele>
        <time>2022-08-07T00:40:55.505Z</time>
      </trkpt>
      <trkpt lat="47.10895" lon="16.14738">
        <ele>335.558188</ele>
        <time>2022-08-07T00:41:03.840Z</time>
      </trkpt>
      <trkpt lat="47.1094" lon="16.1479">
        <ele>334.607042</ele>
        <time>2022-08-07T00:41:15.516Z</time>
      </trkpt>
      <trkpt lat="47.10977" lon="16.14852">
        <ele>332.689325</ele>
        <time>2022-08-07T00:41:25.914Z</time>
      </trkpt>
      <trkpt lat="47.10989" lon="16.14906">
        <ele>330.852037</ele>
        <time>2022-08-07T00:41:32.805Z</time>
      </trkpt>
      <trkpt lat="47.10993" lon="16.15002">
        <ele>327.739947</ele>
        <time>2022-08-07T00:41:44.567Z</time>
      </trkpt>
      <trkpt lat="47.11003" lon="16.15047">
        <ele>326.199743</ele>
        <time>2022-08-07T00:41:50.422Z</time>
      </trkpt>
      <trkpt lat="47.11013" lon="16.15096">
        <ele>325.054415</ele>
        <time>2022-08-07T00:41:56.753Z</time>
      </trkpt>
      <trkpt lat="47.11035" lon="16.15187">
        <ele>323.350073</ele>
        <time>2022-08-07T00:42:09.565Z</time>
      </trkpt>
      <trkpt lat="47.11038" lon="16.15264">
        <ele>321.99924</ele>
        <time>2022-08-07T00:42:20.716Z</time>
      </trkpt>
      <trkpt lat="47.11047" lon="16.15325">
        <ele>320.96905</ele>
        <time>2022-08-07T00:42:30.953Z</time>
      </trkpt>
      <trkpt lat="47.11058" lon="16.15349">
        <ele>320.75036</ele>
        <time>2022-08-07T00:42:36.227Z</time>
      </trkpt>
      <trkpt lat="47.11075" lon="16.15367">
        <ele>320.520282</ele>
        <time>2022-08-07T00:42:41.276Z</time>
      </trkpt>
      <trkpt lat="47.1114" lon="16.15431">
        <ele>319.65684</ele>
        <time>2022-08-07T00:42:59.757Z</time>
      </trkpt>
      <trkpt lat="47.11186" lon="16.15462">
        <ele>319.102594</ele>
        <time>2022-08-07T00:43:11.073Z</time>
      </trkpt>
      <trkpt lat="47.11226" lon="16.15494">
        <ele>318.320102</ele>
        <time>2022-08-07T00:43:20.424Z</time>
      </trkpt>
      <trkpt lat="47.11261" lon="16.15537">
        <ele>317.489612</ele>
        <time>2022-08-07T00:43:30.185Z</time>
      </trkpt>
      <trkpt lat="47.11287" lon="16.15592">
        <ele>316.673785</ele>
        <time>2022-08-07T00:43:39.796Z</time>
      </trkpt>
      <trkpt lat="47.11303" lon="16.15665">
        <ele>315.717999</ele>
        <time>2022-08-07T00:43:51.025Z</time>
      </trkpt>
      <trkpt lat="47.1131" lon="16.15725">
        <ele>314.914267</ele>
        <time>2022-08-07T00:44:00.442Z</time>
      </trkpt>
      <trkpt lat="47.11307" lon="16.1581">
        <ele>313.785468</ele>
        <time>2022-08-07T00:44:12.962Z</time>
      </trkpt>
      <trkpt lat="47.11311" lon="16.1587">
        <ele>312.978552</ele>
        <time>2022-08-07T00:44:21.665Z</time>
      </trkpt>
      <trkpt lat="47.11307" lon="16.15923">
        <ele>312.271083</ele>
        <time>2022-08-07T00:44:29.252Z</time>
      </trkpt>
      <trkpt lat="47.11307" lon="16.15957">
        <ele>311.16336</ele>
        <time>2022-08-07T00:44:33.938Z</time>
      </trkpt>
      <trkpt lat="47.11313" lon="16.16002">
        <ele>309.664846</ele>
        <time>2022-08-07T00:44:39.884Z</time>
      </trkpt>
      <trkpt lat="47.11326" lon="16.16024">
        <ele>308.734989</ele>
        <time>2022-08-07T00:44:43.502Z</time>
      </trkpt>
      <trkpt lat="47.11347" lon="16.16033">
        <ele>307.667388</ele>
        <time>2022-08-07T00:44:47.611Z</time>
      </trkpt>
      <trkpt lat="47.11379" lon="16.16046">
        <ele>306.074329</ele>
        <time>2022-08-07T00:44:53.579Z</time>
      </trkpt>
      <trkpt lat="47.11412" lon="16.16074">
        <ele>304.252155</ele>
        <time>2022-08-07T00:45:00.227Z</time>
      </trkpt>
      <trkpt lat="47.11503" lon="16.16174">
        <ele>295.686373</ele>
        <time>2022-08-07T00:45:19.529Z</time>
      </trkpt>
      <trkpt lat="47.11572" lon="16.16254">
        <ele>288.65593</ele>
        <time>2022-08-07T00:45:34.215Z</time>
      </trkpt>
      <trkpt lat="47.11583" lon="16.16279">
        <ele>286.858127</ele>
        <time>2022-08-07T00:45:37.562Z</time>
      </trkpt>
      <trkpt lat="47.11588" lon="16.16305">
        <ele>285.16553</ele>
        <time>2022-08-07T00:45:40.611Z</time>
      </trkpt>
      <trkpt lat="47.11588" lon="16.16325">
        <ele>283.924974</ele>
        <time>2022-08-07T00:45:42.869Z</time>
      </trkpt>
      <trkpt lat="47.11586" lon="16.16462">
        <ele>275.534028</ele>
        <time>2022-08-07T00:45:58.078Z</time>
      </trkpt>
      <trkpt lat="47.11593" lon="16.16568">
        <ele>269.662369</ele>
        <time>2022-08-07T00:46:10.466Z</time>
      </trkpt>
      <trkpt lat="47.11606" lon="16.16597">
        <ele>267.870943</ele>
        <time>2022-08-07T00:46:14.437Z</time>
      </trkpt>
      <trkpt lat="47.11619" lon="16.16607">
        <ele>266.757126</ele>
        <time>2022-08-07T00:46:16.875Z</time>
      </trkpt>
      <trkpt lat="47.11648" lon="16.166">
        <ele>264.530451</ele>
        <time>2022-08-07T00:46:21.761Z</time>
      </trkpt>
      <trkpt lat="47.11702" lon="16.16532">
        <ele>259.242616</ele>
        <time>2022-08-07T00:46:33.743Z</time>
      </trkpt>
      <trkpt lat="47.11734" lon="16.1652">
        <ele>257.514457</ele>
        <time>2022-08-07T00:46:39.701Z</time>
      </trkpt>
      <trkpt lat="47.11765" lon="16.16517">
        <ele>255.947914</ele>
        <time>2022-08-07T00:46:45.181Z</time>
      </trkpt>
      <trkpt lat="47.11798" lon="16.16472">
        <ele>253.625254</ele>
        <time>2022-08-07T00:46:53.473Z</time>
      </trkpt>
      <trkpt lat="47.1183" lon="16.1646">
        <ele>251.944244</ele>
        <time>2022-08-07T00:46:59.474Z</time>
      </trkpt>
      <trkpt lat="47.11836" lon="16.16461">
        <ele>251.673045</ele>
        <time>2022-08-07T00:47:00.464Z</time>
      </trkpt>
      <trkpt lat="47.11841" lon="16.16461">
        <ele>251.402181</ele>
        <time>2022-08-07T00:47:01.428Z</time>
      </trkpt>
      <trkpt lat="47.11854" lon="16.1646">
        <ele>250.722203</ele>
        <time>2022-08-07T00:47:03.832Z</time>
      </trkpt>
      <trkpt lat="47.11864" lon="16.16459">
        <ele>250.292807</ele>
        <time>2022-08-07T00:47:05.598Z</time>
      </trkpt>
      <trkpt lat="47.11882" lon="16.16458">
        <ele>250.169152</ele>
        <time>2022-08-07T00:47:09.372Z</time>
      </trkpt>
      <trkpt lat="47.11884" lon="16.16466">
        <ele>250.132727</ele>
        <time>2022-08-07T00:47:11.398Z</time>
      </trkpt>
      <trkpt lat="47.11868" lon="16.16473">
        <ele>250.022372</ele>
        <time>2022-08-07T00:47:17.910Z</time>
      </trkpt>
      <trkpt lat="47.11884" lon="16.16466">
        <ele>249.912017</ele>
        <time>2022-08-07T00:47:24.626Z</time>
      </trkpt>
      <trkpt lat="47.11882" lon="16.16458">
        <ele>249.875591</ele>
        <time>2022-08-07T00:47:26.893Z</time>
      </trkpt>
      <trkpt lat="47.119" lon="16.1645">
        <ele>249.75341</ele>
        <time>2022-08-07T00:47:31.588Z</time>
      </trkpt>
      <trkpt lat="47.11906" lon="16.16445">
        <ele>249.710171</ele>
        <time>2022-08-07T00:47:33.243Z</time>
      </trkpt>
      <trkpt lat="47.11917" lon="16.16422">
        <ele>249.583669</ele>
        <time>2022-08-07T00:47:38.414Z</time>
      </trkpt>
      <trkpt lat="47.11947" lon="16.16368">
        <ele>249.273651</ele>
        <time>2022-08-07T00:47:52.792Z</time>
      </trkpt>
      <trkpt lat="47.11976" lon="16.16352">
        <ele>249.241656</ele>
        <time>2022-08-07T00:48:03.094Z</time>
      </trkpt>
      <trkpt lat="47.12036" lon="16.16342">
        <ele>250.106903</ele>
        <time>2022-08-07T00:48:23.970Z</time>
      </trkpt>
      <trkpt lat="47.12053" lon="16.16322">
        <ele>250.408827</ele>
        <time>2022-08-07T00:48:31.078Z</time>
      </trkpt>
      <trkpt lat="47.12069" lon="16.16284">
        <ele>250.852226</ele>
        <time>2022-08-07T00:48:41.429Z</time>
      </trkpt>
      <trkpt lat="47.12079" lon="16.1627">
        <ele>251.050397</ele>
        <time>2022-08-07T00:48:46.268Z</time>
      </trkpt>
      <trkpt lat="47.12106" lon="16.16256">
        <ele>251.459408</ele>
        <time>2022-08-07T00:48:55.821Z</time>
      </trkpt>
      <trkpt lat="47.12151" lon="16.16266">
        <ele>252.066354</ele>
        <time>2022-08-07T00:49:10.896Z</time>
      </trkpt>
      <trkpt lat="47.12188" lon="16.16279">
        <ele>252.557953</ele>
        <time>2022-08-07T00:49:23.197Z</time>
      </trkpt>
      <trkpt lat="47.12214" lon="16.16289">
        <ele>252.901771</ele>
        <time>2022-08-07T00:49:31.767Z</time>
      </trkpt>
      <trkpt lat="47.1224" lon="16.163">
        <ele>253.255222</ele>
        <time>2022-08-07T00:49:40.946Z</time>
      </trkpt>
      <trkpt lat="47.12248" lon="16.16305">
        <ele>253.368656</ele>
        <time>2022-08-07T00:49:43.915Z</time>
      </trkpt>
      <trkpt lat="47.1241" lon="16.16383">
        <ele>255.765471</ele>
        <time>2022-08-07T00:50:39.558Z</time>
      </trkpt>
      <trkpt lat="47.12498" lon="16.16421">
        <ele>257.392949</ele>
        <time>2022-08-07T00:51:11.615Z</time>
      </trkpt>
      <trkpt lat="47.12651" lon="16.16453">
        <ele>261.079357</ele>
        <time>2022-08-07T00:52:11.845Z</time>
      </trkpt>
      <trkpt lat="47.1278" lon="16.1648">
        <ele>264.260205</ele>
        <time>2022-08-07T00:53:02.460Z</time>
      </trkpt>
      <trkpt lat="47.12789" lon="16.1648">
        <ele>264.4821</ele>
        <time>2022-08-07T00:53:05.724Z</time>
      </trkpt>
      <trkpt lat="47.12909" lon="16.16465">
        <ele>267.75306</ele>
        <time>2022-08-07T00:53:51.190Z</time>
      </trkpt>
      <trkpt lat="47.1297" lon="16.16472">
        <ele>269.483887</ele>
        <time>2022-08-07T00:54:16.256Z</time>
      </trkpt>
      <trkpt lat="47.1309" lon="16.16531">
        <ele>274.437143</ele>
        <time>2022-08-07T00:55:12.907Z</time>
      </trkpt>
      <trkpt lat="47.13167" lon="16.16574">
        <ele>277.940066</ele>
        <time>2022-08-07T00:55:54.689Z</time>
      </trkpt>
      <trkpt lat="47.1321" lon="16.16615">
        <ele>280.156029</ele>
        <time>2022-08-07T00:56:19.895Z</time>
      </trkpt>
      <trkpt lat="47.13278" lon="16.16678">
        <ele>283.678392</ele>
        <time>2022-08-07T00:56:58.108Z</time>
      </trkpt>
      <trkpt lat="47.13282" lon="16.16679">
        <ele>283.825687</ele>
        <time>2022-08-07T00:57:00.741Z</time>
      </trkpt>
      <trkpt lat="47.13417" lon="16.16747">
        <ele>289.73538</ele>
        <time>2022-08-07T00:58:04.102Z</time>
      </trkpt>
      <trkpt lat="47.13468" lon="16.16752">
        <ele>291.811471</ele>
        <time>2022-08-07T00:58:26.794Z</time>
      </trkpt>
      <trkpt lat="47.13491" lon="16.16746">
        <ele>292.743423</ele>
        <time>2022-08-07T00:58:37.463Z</time>
      </trkpt>
      <trkpt lat="47.13531" lon="16.16722">
        <ele>294.907591</ele>
        <time>2022-08-07T00:58:59.371Z</time>
      </trkpt>
      <trkpt lat="47.13619" lon="16.16676">
        <ele>299.815109</ele>
        <time>2022-08-07T00:59:55.164Z</time>
      </trkpt>
      <trkpt lat="47.13648" lon="16.16666">
        <ele>301.372017</ele>
        <time>2022-08-07T01:00:11.745Z</time>
      </trkpt>
      <trkpt lat="47.13678" lon="16.1667">
        <ele>302.353995</ele>
        <time>2022-08-07T01:00:26.228Z</time>
      </trkpt>
      <trkpt lat="47.13687" lon="16.16675">
        <ele>301.919696</ele>
        <time>2022-08-07T01:00:29.995Z</time>
      </trkpt>
      <trkpt lat="47.13708" lon="16.16705">
        <ele>300.579612</ele>
        <time>2022-08-07T01:00:38.877Z</time>
      </trkpt>
      <trkpt lat="47.13717" lon="16.16756">
        <ele>298.983446</ele>
        <time>2022-08-07T01:00:46.089Z</time>
      </trkpt>
      <trkpt lat="47.13723" lon="16.16809">
        <ele>297.331756</ele>
        <time>2022-08-07T01:00:52.578Z</time>
      </trkpt>
      <trkpt lat="47.13734" lon="16.16839">
        <ele>296.288975</ele>
        <time>2022-08-07T01:00:56.504Z</time>
      </trkpt>
      <trkpt lat="47.13744" lon="16.1685">
        <ele>295.712051</ele>
        <time>2022-08-07T01:00:58.654Z</time>
      </trkpt>
      <trkpt lat="47.13767" lon="16.16872">
        <ele>294.327207</ele>
        <time>2022-08-07T01:01:03.139Z</time>
      </trkpt>
      <trkpt lat="47.13824" lon="16.1693">
        <ele>285.093563</ele>
        <time>2022-08-07T01:01:13.883Z</time>
      </trkpt>
      <trkpt lat="47.1386" lon="16.16979">
        <ele>278.499764</ele>
        <time>2022-08-07T01:01:21.489Z</time>
      </trkpt>
      <trkpt lat="47.13868" lon="16.1699">
        <ele>276.968656</ele>
        <time>2022-08-07T01:01:23.268Z</time>
      </trkpt>
      <trkpt lat="47.139" lon="16.17026">
        <ele>271.58303</ele>
        <time>2022-08-07T01:01:29.569Z</time>
      </trkpt>
      <trkpt lat="47.13913" lon="16.17052">
        <ele>269.202005</ele>
        <time>2022-08-07T01:01:33.035Z</time>
      </trkpt>
      <trkpt lat="47.13913" lon="16.17058">
        <ele>268.820409</ele>
        <time>2022-08-07T01:01:33.708Z</time>
      </trkpt>
      <trkpt lat="47.13914" lon="16.17073">
        <ele>267.896616</ele>
        <time>2022-08-07T01:01:35.347Z</time>
      </trkpt>
      <trkpt lat="47.13913" lon="16.17096">
        <ele>266.457175</ele>
        <time>2022-08-07T01:01:37.894Z</time>
      </trkpt>
      <trkpt lat="47.13913" lon="16.17112">
        <ele>265.422066</ele>
        <time>2022-08-07T01:01:39.739Z</time>
      </trkpt>
      <trkpt lat="47.13912" lon="16.17129">
        <ele>264.362084</ele>
        <time>2022-08-07T01:01:41.637Z</time>
      </trkpt>
      <trkpt lat="47.1391" lon="16.17202">
        <ele>259.847594</ele>
        <time>2022-08-07T01:01:49.762Z</time>
      </trkpt>
      <trkpt lat="47.13911" lon="16.17244">
        <ele>257.224173</ele>
        <time>2022-08-07T01:01:54.585Z</time>
      </trkpt>
      <trkpt lat="47.13921" lon="16.17295">
        <ele>253.904691</ele>
        <time>2022-08-07T01:02:00.846Z</time>
      </trkpt>
      <trkpt lat="47.13933" lon="16.17352">
        <ele>251.88964</ele>
        <time>2022-08-07T01:02:08.151Z</time>
      </trkpt>
      <trkpt lat="47.13935" lon="16.17365">
        <ele>251.462281</ele>
        <time>2022-08-07T01:02:09.722Z</time>
      </trkpt>
      <trkpt lat="47.13936" lon="16.1741">
        <ele>249.945049</ele>
        <time>2022-08-07T01:02:15.371Z</time>
      </trkpt>
      <trkpt lat="47.13933" lon="16.17454">
        <ele>248.493871</ele>
        <time>2022-08-07T01:02:20.812Z</time>
      </trkpt>
      <trkpt lat="47.13931" lon="16.17473">
        <ele>247.867008</ele>
        <time>2022-08-07T01:02:23.110Z</time>
      </trkpt>
      <trkpt lat="47.13923" lon="16.1756">
        <ele>245.0319</ele>
        <time>2022-08-07T01:02:34.293Z</time>
      </trkpt>
      <trkpt lat="47.13914" lon="16.17669">
        <ele>243.575934</ele>
        <time>2022-08-07T01:02:49.603Z</time>
      </trkpt>
      <trkpt lat="47.13912" lon="16.17683">
        <ele>243.378565</ele>
        <time>2022-08-07T01:02:51.740Z</time>
      </trkpt>
      <trkpt lat="47.13921" lon="16.17687">
        <ele>243.202846</ele>
        <time>2022-08-07T01:02:53.781Z</time>
      </trkpt>
      <trkpt lat="47.13923" lon="16.17688">
        <ele>243.166502</ele>
        <time>2022-08-07T01:02:54.196Z</time>
      </trkpt>
      <trkpt lat="47.13943" lon="16.17695">
        <ele>242.746248</ele>
        <time>2022-08-07T01:02:59.004Z</time>
      </trkpt>
      <trkpt lat="47.13947" lon="16.17696">
        <ele>242.680479</ele>
        <time>2022-08-07T01:02:59.728Z</time>
      </trkpt>
      <trkpt lat="47.13985" lon="16.17708">
        <ele>241.907898</ele>
        <time>2022-08-07T01:03:08.672Z</time>
      </trkpt>
      <trkpt lat="47.14053" lon="16.17715">
        <ele>241.729018</ele>
        <time>2022-08-07T01:03:24.932Z</time>
      </trkpt>
      <trkpt lat="47.14076" lon="16.17717">
        <ele>241.792492</ele>
        <time>2022-08-07T01:03:30.899Z</time>
      </trkpt>
      <trkpt lat="47.14098" lon="16.1772">
        <ele>241.85625</ele>
        <time>2022-08-07T01:03:37.062Z</time>
      </trkpt>
      <trkpt lat="47.14122" lon="16.17721">
        <ele>241.924245</ele>
        <time>2022-08-07T01:03:44.023Z</time>
      </trkpt>
      <trkpt lat="47.14135" lon="16.17723">
        <ele>241.963385</ele>
        <time>2022-08-07T01:03:48.238Z</time>
      </trkpt>
      <trkpt lat="47.14184" lon="16.17727">
        <ele>242.139953</ele>
        <time>2022-08-07T01:04:04.236Z</time>
      </trkpt>
      <trkpt lat="47.14194" lon="16.17728">
        <ele>242.294007</ele>
        <time>2022-08-07T01:04:07.527Z</time>
      </trkpt>
      <trkpt lat="47.14212" lon="16.17731">
        <ele>242.58145</ele>
        <time>2022-08-07T01:04:13.808Z</time>
      </trkpt>
      <trkpt lat="47.14249" lon="16.17748">
        <ele>243.218162</ele>
        <time>2022-08-07T01:04:28.128Z</time>
      </trkpt>
      <trkpt lat="47.14254" lon="16.17752">
        <ele>243.305979</ele>
        <time>2022-08-07T01:04:30.117Z</time>
      </trkpt>
      <trkpt lat="47.1427" lon="16.17772">
        <ele>243.65227</ele>
        <time>2022-08-07T01:04:37.874Z</time>
      </trkpt>
      <trkpt lat="47.14282" lon="16.17796">
        <ele>243.976459</ele>
        <time>2022-08-07T01:04:44.996Z</time>
      </trkpt>
      <trkpt lat="47.14286" lon="16.17808">
        <ele>244.117705</ele>
        <time>2022-08-07T01:04:48.066Z</time>
      </trkpt>
      <trkpt lat="47.14348" lon="16.17926">
        <ele>245.103756</ele>
        <time>2022-08-07T01:05:21.950Z</time>
      </trkpt>
      <trkpt lat="47.14317" lon="16.17971">
        <ele>245.200574</ele>
        <time>2022-08-07T01:05:35.407Z</time>
      </trkpt>
      <trkpt lat="47.14293" lon="16.17994">
        <ele>245.263037</ele>
        <time>2022-08-07T01:05:43.423Z</time>
      </trkpt>
      <trkpt lat="47.14268" lon="16.1809">
        <ele>245.25578</ele>
        <time>2022-08-07T01:06:01.092Z</time>
      </trkpt>
      <trkpt lat="47.14241" lon="16.18186">
        <ele>244.252271</ele>
        <time>2022-08-07T01:06:17.168Z</time>
      </trkpt>
      <trkpt lat="47.14239" lon="16.18196">
        <ele>244.150373</ele>
        <time>2022-08-07T01:06:18.763Z</time>
      </trkpt>
      <trkpt lat="47.14166" lon="16.18462">
        <ele>241.777881</ele>
        <time>2022-08-07T01:07:03.781Z</time>
      </trkpt>
      <trkpt lat="47.14056" lon="16.18868">
        <ele>240.006964</ele>
        <time>2022-08-07T01:08:21.478Z</time>
      </trkpt>
      <trkpt lat="47.14053" lon="16.1888">
        <ele>239.953184</ele>
        <time>2022-08-07T01:08:23.693Z</time>
      </trkpt>
      <trkpt lat="47.13913" lon="16.19403">
        <ele>237.792749</ele>
        <time>2022-08-07T01:09:59.267Z</time>
      </trkpt>
      <trkpt lat="47.13831" lon="16.1987">
        <ele>239.453317</ele>
        <time>2022-08-07T01:11:36.732Z</time>
      </trkpt>
      <trkpt lat="47.14071" lon="16.20125">
        <ele>245.999726</ele>
        <time>2022-08-07T01:13:37.859Z</time>
      </trkpt>
      <trkpt lat="47.14056" lon="16.20156">
        <ele>246.545967</ele>
        <time>2022-08-07T01:13:46.319Z</time>
      </trkpt>
      <trkpt lat="47.14058" lon="16.20168">
        <ele>246.554216</ele>
        <time>2022-08-07T01:13:49.118Z</time>
      </trkpt>
      <trkpt lat="47.14054" lon="16.20181">
        <ele>246.564263</ele>
        <time>2022-08-07T01:13:52.085Z</time>
      </trkpt>
      <trkpt lat="47.14039" lon="16.20204">
        <ele>246.586318</ele>
        <time>2022-08-07T01:13:58.576Z</time>
      </trkpt>
      <trkpt lat="47.13994" lon="16.20316">
        <ele>246.677005</ele>
        <time>2022-08-07T01:14:22.304Z</time>
      </trkpt>
      <trkpt lat="47.13951" lon="16.20463">
        <ele>246.697254</ele>
        <time>2022-08-07T01:14:50.723Z</time>
      </trkpt>
      <trkpt lat="47.13897" lon="16.20641">
        <ele>246.58559</ele>
        <time>2022-08-07T01:15:28.466Z</time>
      </trkpt>
      <trkpt lat="47.13855" lon="16.20762">
        <ele>246.203174</ele>
        <time>2022-08-07T01:15:53.727Z</time>
      </trkpt>
      <trkpt lat="47.13627" lon="16.21347">
        <ele>242.227026</ele>
        <time>2022-08-07T01:17:45.664Z</time>
      </trkpt>
      <trkpt lat="47.13524" lon="16.21588">
        <ele>239.739717</ele>
        <time>2022-08-07T01:18:31.887Z</time>
      </trkpt>
      <trkpt lat="47.13432" lon="16.21832">
        <ele>236.315996</ele>
        <time>2022-08-07T01:19:13.240Z</time>
      </trkpt>
      <trkpt lat="47.13368" lon="16.22055">
        <ele>233.977473</ele>
        <time>2022-08-07T01:19:51.739Z</time>
      </trkpt>
      <trkpt lat="47.13337" lon="16.22233">
        <ele>233.034418</ele>
        <time>2022-08-07T01:20:23.445Z</time>
      </trkpt>
      <trkpt lat="47.13323" lon="16.22302">
        <ele>232.79825</ele>
        <time>2022-08-07T01:20:36.206Z</time>
      </trkpt>
      <trkpt lat="47.1328" lon="16.22376">
        <ele>232.625839</ele>
        <time>2022-08-07T01:20:53.919Z</time>
      </trkpt>
      <trkpt lat="47.13257" lon="16.22433">
        <ele>232.508517</ele>
        <time>2022-08-07T01:21:06.048Z</time>
      </trkpt>
      <trkpt lat="47.13239" lon="16.22493">
        <ele>232.386109</ele>
        <time>2022-08-07T01:21:17.976Z</time>
      </trkpt>
      <trkpt lat="47.13221" lon="16.22609">
        <ele>231.950366</ele>
        <time>2022-08-07T01:21:39.482Z</time>
      </trkpt>
      <trkpt lat="47.13164" lon="16.2321">
        <ele>229.605613</ele>
        <time>2022-08-07T01:23:19.616Z</time>
      </trkpt>
      <trkpt lat="47.12989" lon="16.23271">
        <ele>228.546556</ele>
        <time>2022-08-07T01:24:03.095Z</time>
      </trkpt>
      <trkpt lat="47.12986" lon="16.23273">
        <ele>228.523991</ele>
        <time>2022-08-07T01:24:04.040Z</time>
      </trkpt>
      <trkpt lat="47.12962" lon="16.23281">
        <ele>228.384799</ele>
        <time>2022-08-07T01:24:09.916Z</time>
      </trkpt>
      <trkpt lat="47.12958" lon="16.23282">
        <ele>228.361097</ele>
        <time>2022-08-07T01:24:10.927Z</time>
      </trkpt>
      <trkpt lat="47.12981" lon="16.23481">
        <ele>227.813499</ele>
        <time>2022-08-07T01:24:45.443Z</time>
      </trkpt>
      <trkpt lat="47.12986" lon="16.23601">
        <ele>227.530066</ele>
        <time>2022-08-07T01:25:06.190Z</time>
      </trkpt>
      <trkpt lat="47.12983" lon="16.23696">
        <ele>227.345335</ele>
        <time>2022-08-07T01:25:22.668Z</time>
      </trkpt>
      <trkpt lat="47.12967" lon="16.2386">
        <ele>227.108682</ele>
        <time>2022-08-07T01:25:51.347Z</time>
      </trkpt>
      <trkpt lat="47.12942" lon="16.23994">
        <ele>227.146825</ele>
        <time>2022-08-07T01:26:16.275Z</time>
      </trkpt>
      <trkpt lat="47.12916" lon="16.24095">
        <ele>227.203929</ele>
        <time>2022-08-07T01:26:36.813Z</time>
      </trkpt>
      <trkpt lat="47.12841" lon="16.24338">
        <ele>227.606513</ele>
        <time>2022-08-07T01:27:27.820Z</time>
      </trkpt>
      <trkpt lat="47.12801" lon="16.24456">
        <ele>227.549135</ele>
        <time>2022-08-07T01:27:51.868Z</time>
      </trkpt>
      <trkpt lat="47.12726" lon="16.2465">
        <ele>227.320405</ele>
        <time>2022-08-07T01:28:30.866Z</time>
      </trkpt>
      <trkpt lat="47.12655" lon="16.24811">
        <ele>227.056775</ele>
        <time>2022-08-07T01:29:04.066Z</time>
      </trkpt>
      <trkpt lat="47.12587" lon="16.24956">
        <ele>226.958694</ele>
        <time>2022-08-07T01:29:35.382Z</time>
      </trkpt>
      <trkpt lat="47.12481" lon="16.25153">
        <ele>226.98144</ele>
        <time>2022-08-07T01:30:21.903Z</time>
      </trkpt>
      <trkpt lat="47.12372" lon="16.25327">
        <ele>227.034011</ele>
        <time>2022-08-07T01:31:04.318Z</time>
      </trkpt>
      <trkpt lat="47.12344" lon="16.25358">
        <ele>227.045264</ele>
        <time>2022-08-07T01:31:13.793Z</time>
      </trkpt>
      <trkpt lat="47.12347" lon="16.25363">
        <ele>227.046465</ele>
        <time>2022-08-07T01:31:14.835Z</time>
      </trkpt>
      <trkpt lat="47.12364" lon="16.25395">
        <ele>227.073448</ele>
        <time>2022-08-07T01:31:22.427Z</time>
      </trkpt>
      <trkpt lat="47.12366" lon="16.25399">
        <ele>227.086106</ele>
        <time>2022-08-07T01:31:23.467Z</time>
      </trkpt>
      <trkpt lat="47.12368" lon="16.25402">
        <ele>227.093549</ele>
        <time>2022-08-07T01:31:24.085Z</time>
      </trkpt>
      <trkpt lat="47.12436" lon="16.25557">
        <ele>227.509179</ele>
        <time>2022-08-07T01:31:59.759Z</time>
      </trkpt>
      <trkpt lat="47.12449" lon="16.25605">
        <ele>227.623592</ele>
        <time>2022-08-07T01:32:09.741Z</time>
      </trkpt>
      <trkpt lat="47.12454" lon="16.25688">
        <ele>227.987106</ele>
        <time>2022-08-07T01:32:26.581Z</time>
      </trkpt>
      <trkpt lat="47.12458" lon="16.25711">
        <ele>228.094028</ele>
        <time>2022-08-07T01:32:31.261Z</time>
      </trkpt>
      <trkpt lat="47.1247" lon="16.25734">
        <ele>228.226551</ele>
        <time>2022-08-07T01:32:37.095Z</time>
      </trkpt>
      <trkpt lat="47.12496" lon="16.25761">
        <ele>228.446172</ele>
        <time>2022-08-07T01:32:46.769Z</time>
      </trkpt>
      <trkpt lat="47.12511" lon="16.25769">
        <ele>228.552222</ele>
        <time>2022-08-07T01:32:51.448Z</time>
      </trkpt>
      <trkpt lat="47.12552" lon="16.25769">
        <ele>228.832466</ele>
        <time>2022-08-07T01:33:03.901Z</time>
      </trkpt>
      <trkpt lat="47.12857" lon="16.25769">
        <ele>231.195998</ele>
        <time>2022-08-07T01:34:38.109Z</time>
      </trkpt>
      <trkpt lat="47.12859" lon="16.2577">
        <ele>231.206236</ele>
        <time>2022-08-07T01:34:38.556Z</time>
      </trkpt>
      <trkpt lat="47.12865" lon="16.25775">
        <ele>231.255776</ele>
        <time>2022-08-07T01:34:40.679Z</time>
      </trkpt>
      <trkpt lat="47.1277" lon="16.26017">
        <ele>231.948746</ele>
        <time>2022-08-07T01:35:33.941Z</time>
      </trkpt>
      <trkpt lat="47.12755" lon="16.26056">
        <ele>232.024706</ele>
        <time>2022-08-07T01:35:42.193Z</time>
      </trkpt>
      <trkpt lat="47.12739" lon="16.26099">
        <ele>232.17186</ele>
        <time>2022-08-07T01:35:50.990Z</time>
      </trkpt>
      <trkpt lat="47.12711" lon="16.2617">
        <ele>232.473061</ele>
        <time>2022-08-07T01:36:07.329Z</time>
      </trkpt>
      <trkpt lat="47.12669" lon="16.26275">
        <ele>232.91507</ele>
        <time>2022-08-07T01:36:32.259Z</time>
      </trkpt>
      <trkpt lat="47.12664" lon="16.26287">
        <ele>232.969391</ele>
        <time>2022-08-07T01:36:35.224Z</time>
      </trkpt>
      <trkpt lat="47.12687" lon="16.26308">
        <ele>233.333677</ele>
        <time>2022-08-07T01:36:43.458Z</time>
      </trkpt>
      <trkpt lat="47.12694" lon="16.26329">
        <ele>233.602647</ele>
        <time>2022-08-07T01:36:48.114Z</time>
      </trkpt>
      <trkpt lat="47.12694" lon="16.26354">
        <ele>233.883058</ele>
        <time>2022-08-07T01:36:52.943Z</time>
      </trkpt>
      <trkpt lat="47.12693" lon="16.2638">
        <ele>234.182702</ele>
        <time>2022-08-07T01:36:58.143Z</time>
      </trkpt>
      <trkpt lat="47.12696" lon="16.26438">
        <ele>234.85317</ele>
        <time>2022-08-07T01:37:10.888Z</time>
      </trkpt>
      <trkpt lat="47.12711" lon="16.265">
        <ele>235.604137</ele>
        <time>2022-08-07T01:37:27.782Z</time>
      </trkpt>
      <trkpt lat="47.12727" lon="16.26541">
        <ele>236.320448</ele>
        <time>2022-08-07T01:37:41.401Z</time>
      </trkpt>
      <trkpt lat="47.12734" lon="16.26562">
        <ele>237.057142</ele>
        <time>2022-08-07T01:37:47.791Z</time>
      </trkpt>
      <trkpt lat="47.12747" lon="16.26604">
        <ele>238.533259</ele>
        <time>2022-08-07T01:38:02.939Z</time>
      </trkpt>
      <trkpt lat="47.12757" lon="16.26652">
        <ele>240.149687</ele>
        <time>2022-08-07T01:38:20.456Z</time>
      </trkpt>
      <trkpt lat="47.12766" lon="16.2674">
        <ele>242.977062</ele>
        <time>2022-08-07T01:38:51.860Z</time>
      </trkpt>
      <trkpt lat="47.12764" lon="16.26775">
        <ele>244.107094</ele>
        <time>2022-08-07T01:39:04.568Z</time>
      </trkpt>
      <trkpt lat="47.12754" lon="16.26824">
        <ele>245.45223</ele>
        <time>2022-08-07T01:39:23.231Z</time>
      </trkpt>
      <trkpt lat="47.12743" lon="16.26864">
        <ele>246.501344</ele>
        <time>2022-08-07T01:39:38.274Z</time>
      </trkpt>
      <trkpt lat="47.12742" lon="16.26892">
        <ele>247.186042</ele>
        <time>2022-08-07T01:39:47.707Z</time>
      </trkpt>
      <trkpt lat="47.12756" lon="16.26915">
        <ele>247.953005</ele>
        <time>2022-08-07T01:39:57.493Z</time>
      </trkpt>
      <trkpt lat="47.12759" lon="16.26921">
        <ele>248.140079</ele>
        <time>2022-08-07T01:39:59.784Z</time>
      </trkpt>
      <trkpt lat="47.12787" lon="16.2697">
        <ele>249.698159</ele>
        <time>2022-08-07T01:40:17.406Z</time>
      </trkpt>
      <trkpt lat="47.1281" lon="16.27028">
        <ele>250.976455</ele>
        <time>2022-08-07T01:40:32.992Z</time>
      </trkpt>
      <trkpt lat="47.12834" lon="16.27061">
        <ele>250.972612</ele>
        <time>2022-08-07T01:40:42.454Z</time>
      </trkpt>
      <trkpt lat="47.12854" lon="16.27074">
        <ele>250.970185</ele>
        <time>2022-08-07T01:40:48.212Z</time>
      </trkpt>
      <trkpt lat="47.12872" lon="16.27146">
        <ele>250.964165</ele>
        <time>2022-08-07T01:41:01.765Z</time>
      </trkpt>
      <trkpt lat="47.12884" lon="16.27208">
        <ele>250.959183</ele>
        <time>2022-08-07T01:41:12.490Z</time>
      </trkpt>
      <trkpt lat="47.12886" lon="16.27241">
        <ele>250.864772</ele>
        <time>2022-08-07T01:41:18.029Z</time>
      </trkpt>
      <trkpt lat="47.12869" lon="16.27334">
        <ele>249.391528</ele>
        <time>2022-08-07T01:41:32.469Z</time>
      </trkpt>
      <trkpt lat="47.12857" lon="16.2738">
        <ele>248.634518</ele>
        <time>2022-08-07T01:41:39.406Z</time>
      </trkpt>
      <trkpt lat="47.12853" lon="16.27429">
        <ele>247.87667</ele>
        <time>2022-08-07T01:41:46.060Z</time>
      </trkpt>
      <trkpt lat="47.12857" lon="16.27466">
        <ele>247.306731</ele>
        <time>2022-08-07T01:41:50.954Z</time>
      </trkpt>
      <trkpt lat="47.129" lon="16.27598">
        <ele>244.684531</ele>
        <time>2022-08-07T01:42:10.078Z</time>
      </trkpt>
      <trkpt lat="47.12911" lon="16.27638">
        <ele>243.892774</ele>
        <time>2022-08-07T01:42:15.784Z</time>
      </trkpt>
      <trkpt lat="47.12914" lon="16.27655">
        <ele>243.566741</ele>
        <time>2022-08-07T01:42:18.229Z</time>
      </trkpt>
      <trkpt lat="47.12909" lon="16.27725">
        <ele>242.261879</ele>
        <time>2022-08-07T01:42:28.009Z</time>
      </trkpt>
      <trkpt lat="47.12909" lon="16.27728">
        <ele>242.194308</ele>
        <time>2022-08-07T01:42:28.557Z</time>
      </trkpt>
      <trkpt lat="47.12906" lon="16.27744">
        <ele>242.004065</ele>
        <time>2022-08-07T01:42:30.992Z</time>
      </trkpt>
      <trkpt lat="47.12906" lon="16.27757">
        <ele>242.006349</ele>
        <time>2022-08-07T01:42:32.892Z</time>
      </trkpt>
      <trkpt lat="47.13147" lon="16.27692">
        <ele>242.308592</ele>
        <time>2022-08-07T01:43:46.133Z</time>
      </trkpt>
      <trkpt lat="47.13269" lon="16.27638">
        <ele>242.72237</ele>
        <time>2022-08-07T01:44:22.994Z</time>
      </trkpt>
      <trkpt lat="47.13595" lon="16.27611">
        <ele>244.200926</ele>
        <time>2022-08-07T01:45:58.219Z</time>
      </trkpt>
      <trkpt lat="47.13652" lon="16.27608">
        <ele>245.695211</ele>
        <time>2022-08-07T01:46:29.592Z</time>
      </trkpt>
      <trkpt lat="47.13707" lon="16.27597">
        <ele>247.335827</ele>
        <time>2022-08-07T01:47:02.363Z</time>
      </trkpt>
      <trkpt lat="47.13835" lon="16.2755">
        <ele>251.38735</ele>
        <time>2022-08-07T01:48:25.969Z</time>
      </trkpt>
      <trkpt lat="47.13937" lon="16.27549">
        <ele>254.705157</ele>
        <time>2022-08-07T01:49:27.175Z</time>
      </trkpt>
      <trkpt lat="47.1397" lon="16.2755">
        <ele>255.576992</ele>
        <time>2022-08-07T01:49:45.975Z</time>
      </trkpt>
      <trkpt lat="47.14032" lon="16.27585">
        <ele>256.514223</ele>
        <time>2022-08-07T01:50:20.853Z</time>
      </trkpt>
      <trkpt lat="47.14147" lon="16.27727">
        <ele>258.433866</ele>
        <time>2022-08-07T01:51:34.250Z</time>
      </trkpt>
      <trkpt lat="47.14177" lon="16.27772">
        <ele>258.839868</ele>
        <time>2022-08-07T01:51:55.096Z</time>
      </trkpt>
      <trkpt lat="47.14404" lon="16.28038">
        <ele>261.677767</ele>
        <time>2022-08-07T01:54:19.236Z</time>
      </trkpt>
      <trkpt lat="47.14444" lon="16.28094">
        <ele>261.854741</ele>
        <time>2022-08-07T01:54:45.525Z</time>
      </trkpt>
      <trkpt lat="47.14469" lon="16.28121">
        <ele>261.955522</ele>
        <time>2022-08-07T01:54:59.949Z</time>
      </trkpt>
      <trkpt lat="47.14503" lon="16.28136">
        <ele>262.068489</ele>
        <time>2022-08-07T01:55:15.714Z</time>
      </trkpt>
      <trkpt lat="47.1465" lon="16.28177">
        <ele>262.015828</ele>
        <time>2022-08-07T01:56:19.872Z</time>
      </trkpt>
      <trkpt lat="47.14746" lon="16.28189">
        <ele>262.108382</ele>
        <time>2022-08-07T01:57:02.399Z</time>
      </trkpt>
      <trkpt lat="47.14853" lon="16.28223">
        <ele>262.811698</ele>
        <time>2022-08-07T01:57:54.906Z</time>
      </trkpt>
      <trkpt lat="47.14932" lon="16.28224">
        <ele>263.738867</ele>
        <time>2022-08-07T01:58:34.088Z</time>
      </trkpt>
      <trkpt lat="47.14988" lon="16.28218">
        <ele>264.710096</ele>
        <time>2022-08-07T01:59:03.463Z</time>
      </trkpt>
      <trkpt lat="47.15026" lon="16.28201">
        <ele>265.406028</ele>
        <time>2022-08-07T01:59:25.541Z</time>
      </trkpt>
      <trkpt lat="47.15051" lon="16.28203">
        <ele>265.838865</ele>
        <time>2022-08-07T01:59:39.638Z</time>
      </trkpt>
      <trkpt lat="47.15086" lon="16.28214">
        <ele>266.272281</ele>
        <time>2022-08-07T01:59:59.001Z</time>
      </trkpt>
      <trkpt lat="47.15114" lon="16.28232">
        <ele>266.452881</ele>
        <time>2022-08-07T02:00:15.658Z</time>
      </trkpt>
      <trkpt lat="47.15183" lon="16.28298">
        <ele>266.932637</ele>
        <time>2022-08-07T02:00:58.615Z</time>
      </trkpt>
      <trkpt lat="47.15298" lon="16.28421">
        <ele>264.360524</ele>
        <time>2022-08-07T02:01:51.446Z</time>
      </trkpt>
      <trkpt lat="47.15314" lon="16.2841">
        <ele>263.818135</ele>
        <time>2022-08-07T02:01:57.283Z</time>
      </trkpt>
      <trkpt lat="47.15327" lon="16.28366">
        <ele>262.764974</ele>
        <time>2022-08-07T02:02:08.394Z</time>
      </trkpt>
      <trkpt lat="47.15332" lon="16.2835">
        <ele>262.38768</ele>
        <time>2022-08-07T02:02:11.371Z</time>
      </trkpt>
      <trkpt lat="47.15357" lon="16.28263">
        <ele>260.602061</ele>
        <time>2022-08-07T02:02:27.971Z</time>
      </trkpt>
      <trkpt lat="47.15415" lon="16.28304">
        <ele>258.984018</ele>
        <time>2022-08-07T02:02:40.229Z</time>
      </trkpt>
      <trkpt lat="47.15547" lon="16.28353">
        <ele>256.949784</ele>
        <time>2022-08-07T02:03:13.354Z</time>
      </trkpt>
      <trkpt lat="47.15584" lon="16.28373">
        <ele>256.902783</ele>
        <time>2022-08-07T02:03:24.097Z</time>
      </trkpt>
      <trkpt lat="47.15615" lon="16.2839">
        <ele>256.862549</ele>
        <time>2022-08-07T02:03:33.217Z</time>
      </trkpt>
      <trkpt lat="47.15723" lon="16.28439">
        <ele>257.225167</ele>
        <time>2022-08-07T02:04:03.637Z</time>
      </trkpt>
      <trkpt lat="47.15766" lon="16.28471">
        <ele>257.54132</ele>
        <time>2022-08-07T02:04:18.349Z</time>
      </trkpt>
      <trkpt lat="47.15788" lon="16.28498">
        <ele>257.732143</ele>
        <time>2022-08-07T02:04:27.455Z</time>
      </trkpt>
      <trkpt lat="47.15794" lon="16.28504">
        <ele>257.778639</ele>
        <time>2022-08-07T02:04:29.679Z</time>
      </trkpt>
      <trkpt lat="47.15824" lon="16.28552">
        <ele>258.142584</ele>
        <time>2022-08-07T02:04:44.102Z</time>
      </trkpt>
      <trkpt lat="47.15867" lon="16.28631">
        <ele>258.969359</ele>
        <time>2022-08-07T02:05:06.746Z</time>
      </trkpt>
      <trkpt lat="47.1587" lon="16.28637">
        <ele>259.027509</ele>
        <time>2022-08-07T02:05:08.285Z</time>
      </trkpt>
      <trkpt lat="47.15894" lon="16.28685">
        <ele>259.515894</ele>
        <time>2022-08-07T02:05:21.761Z</time>
      </trkpt>
      <trkpt lat="47.15935" lon="16.28772">
        <ele>260.324148</ele>
        <time>2022-08-07T02:05:45.202Z</time>
      </trkpt>
      <trkpt lat="47.15936" lon="16.28777">
        <ele>260.358761</ele>
        <time>2022-08-07T02:05:46.511Z</time>
      </trkpt>
      <trkpt lat="47.15953" lon="16.28821">
        <ele>260.670307</ele>
        <time>2022-08-07T02:05:56.609Z</time>
      </trkpt>
      <trkpt lat="47.15975" lon="16.28919">
        <ele>261.316102</ele>
        <time>2022-08-07T02:06:17.066Z</time>
      </trkpt>
      <trkpt lat="47.15979" lon="16.28916">
        <ele>261.35514</ele>
        <time>2022-08-07T02:06:18.610Z</time>
      </trkpt>
      <trkpt lat="47.15975" lon="16.28919">
        <ele>261.394177</ele>
        <time>2022-08-07T02:06:19.772Z</time>
      </trkpt>
      <trkpt lat="47.15978" lon="16.28965">
        <ele>261.67837</ele>
        <time>2022-08-07T02:06:29.568Z</time>
      </trkpt>
      <trkpt lat="47.15971" lon="16.29069">
        <ele>262.843104</ele>
        <time>2022-08-07T02:06:54.076Z</time>
      </trkpt>
      <trkpt lat="47.15962" lon="16.29132">
        <ele>263.634807</ele>
        <time>2022-08-07T02:07:08.465Z</time>
      </trkpt>
      <trkpt lat="47.1596" lon="16.29148">
        <ele>263.847001</ele>
        <time>2022-08-07T02:07:12.243Z</time>
      </trkpt>
      <trkpt lat="47.15958" lon="16.29165">
        <ele>264.051932</ele>
        <time>2022-08-07T02:07:16.079Z</time>
      </trkpt>
      <trkpt lat="47.15955" lon="16.29184">
        <ele>264.299757</ele>
        <time>2022-08-07T02:07:21.058Z</time>
      </trkpt>
      <trkpt lat="47.15942" lon="16.29254">
        <ele>265.433774</ele>
        <time>2022-08-07T02:07:39.005Z</time>
      </trkpt>
      <trkpt lat="47.15935" lon="16.29273">
        <ele>266.19092</ele>
        <time>2022-08-07T02:07:45.405Z</time>
      </trkpt>
      <trkpt lat="47.15938" lon="16.29279">
        <ele>266.476413</ele>
        <time>2022-08-07T02:07:47.940Z</time>
      </trkpt>
      <trkpt lat="47.15959" lon="16.29296">
        <ele>267.719689</ele>
        <time>2022-08-07T02:07:58.916Z</time>
      </trkpt>
      <trkpt lat="47.15991" lon="16.29327">
        <ele>269.742384</ele>
        <time>2022-08-07T02:08:19.577Z</time>
      </trkpt>
      <trkpt lat="47.16016" lon="16.29374">
        <ele>271.895898</ele>
        <time>2022-08-07T02:08:43.569Z</time>
      </trkpt>
      <trkpt lat="47.16031" lon="16.29401">
        <ele>273.14516</ele>
        <time>2022-08-07T02:08:57.163Z</time>
      </trkpt>
      <trkpt lat="47.16092" lon="16.29526">
        <ele>280.16945</ele>
        <time>2022-08-07T02:10:01.242Z</time>
      </trkpt>
      <trkpt lat="47.1617" lon="16.29586">
        <ele>286.499723</ele>
        <time>2022-08-07T02:10:59.072Z</time>
      </trkpt>
      <trkpt lat="47.16213" lon="16.29629">
        <ele>289.417388</ele>
        <time>2022-08-07T02:11:30.812Z</time>
      </trkpt>
      <trkpt lat="47.16238" lon="16.29645">
        <ele>290.777643</ele>
        <time>2022-08-07T02:11:45.537Z</time>
      </trkpt>
      <trkpt lat="47.16271" lon="16.29672">
        <ele>292.686079</ele>
        <time>2022-08-07T02:12:05.064Z</time>
      </trkpt>
      <trkpt lat="47.16287" lon="16.29715">
        <ele>294.362515</ele>
        <time>2022-08-07T02:12:21.062Z</time>
      </trkpt>
      <trkpt lat="47.16288" lon="16.29742">
        <ele>295.274997</ele>
        <time>2022-08-07T02:12:29.319Z</time>
      </trkpt>
      <trkpt lat="47.16277" lon="16.29775">
        <ele>296.516492</ele>
        <time>2022-08-07T02:12:40.277Z</time>
      </trkpt>
      <trkpt lat="47.16246" lon="16.29842">
        <ele>297.399899</ele>
        <time>2022-08-07T02:13:04.019Z</time>
      </trkpt>
      <trkpt lat="47.16221" lon="16.29883">
        <ele>297.970415</ele>
        <time>2022-08-07T02:13:17.912Z</time>
      </trkpt>
      <trkpt lat="47.16218" lon="16.29888">
        <ele>298.041998</ele>
        <time>2022-08-07T02:13:19.477Z</time>
      </trkpt>
      <trkpt lat="47.16214" lon="16.29912">
        <ele>298.298902</ele>
        <time>2022-08-07T02:13:25.074Z</time>
      </trkpt>
      <trkpt lat="47.16288" lon="16.30052">
        <ele>299.159708</ele>
        <time>2022-08-07T02:13:57.988Z</time>
      </trkpt>
      <trkpt lat="47.16355" lon="16.30175">
        <ele>298.851308</ele>
        <time>2022-08-07T02:14:25.941Z</time>
      </trkpt>
      <trkpt lat="47.1654" lon="16.30515">
        <ele>297.293257</ele>
        <time>2022-08-07T02:15:42.311Z</time>
      </trkpt>
      <trkpt lat="47.16608" lon="16.30642">
        <ele>296.669225</ele>
        <time>2022-08-07T02:16:09.036Z</time>
      </trkpt>
      <trkpt lat="47.16627" lon="16.30676">
        <ele>296.607961</ele>
        <time>2022-08-07T02:16:16.459Z</time>
      </trkpt>
      <trkpt lat="47.16693" lon="16.30798">
        <ele>296.387171</ele>
        <time>2022-08-07T02:16:45.433Z</time>
      </trkpt>
      <trkpt lat="47.16698" lon="16.30807">
        <ele>296.37087</ele>
        <time>2022-08-07T02:16:47.885Z</time>
      </trkpt>
      <trkpt lat="47.1672" lon="16.30847">
        <ele>296.522261</ele>
        <time>2022-08-07T02:16:59.102Z</time>
      </trkpt>
      <trkpt lat="47.16738" lon="16.30881">
        <ele>296.706532</ele>
        <time>2022-08-07T02:17:08.701Z</time>
      </trkpt>
      <trkpt lat="47.16919" lon="16.31223">
        <ele>298.404427</ele>
        <time>2022-08-07T02:18:39.445Z</time>
      </trkpt>
      <trkpt lat="47.16976" lon="16.31333">
        <ele>298.503877</ele>
        <time>2022-08-07T02:19:05.391Z</time>
      </trkpt>
      <trkpt lat="47.16992" lon="16.31362">
        <ele>298.51789</ele>
        <time>2022-08-07T02:19:12.230Z</time>
      </trkpt>
      <trkpt lat="47.16999" lon="16.31378">
        <ele>298.525463</ele>
        <time>2022-08-07T02:19:15.874Z</time>
      </trkpt>
      <trkpt lat="47.17125" lon="16.31621">
        <ele>298.693481</ele>
        <time>2022-08-07T02:20:14.743Z</time>
      </trkpt>
      <trkpt lat="47.17201" lon="16.31781">
        <ele>298.950966</ele>
        <time>2022-08-07T02:20:51.809Z</time>
      </trkpt>
      <trkpt lat="47.17206" lon="16.31793">
        <ele>298.972934</ele>
        <time>2022-08-07T02:20:54.506Z</time>
      </trkpt>
      <trkpt lat="47.17209" lon="16.31798">
        <ele>298.98323</ele>
        <time>2022-08-07T02:20:55.772Z</time>
      </trkpt>
      <trkpt lat="47.17348" lon="16.32102">
        <ele>300.391651</ele>
        <time>2022-08-07T02:22:12.530Z</time>
      </trkpt>
      <trkpt lat="47.17455" lon="16.3233">
        <ele>302.164193</ele>
        <time>2022-08-07T02:23:13.896Z</time>
      </trkpt>
      <trkpt lat="47.17536" lon="16.32519">
        <ele>303.565066</ele>
        <time>2022-08-07T02:24:02.072Z</time>
      </trkpt>
      <trkpt lat="47.17574" lon="16.32583">
        <ele>304.460737</ele>
        <time>2022-08-07T02:24:20.975Z</time>
      </trkpt>
      <trkpt lat="47.17611" lon="16.32631">
        <ele>305.311223</ele>
        <time>2022-08-07T02:24:38.159Z</time>
      </trkpt>
      <trkpt lat="47.17706" lon="16.3275">
        <ele>307.177938</ele>
        <time>2022-08-07T02:25:27.145Z</time>
      </trkpt>
      <trkpt lat="47.17738" lon="16.32768">
        <ele>307.511571</ele>
        <time>2022-08-07T02:25:40.653Z</time>
      </trkpt>
      <trkpt lat="47.17854" lon="16.32789">
        <ele>308.015929</ele>
        <time>2022-08-07T02:26:16.901Z</time>
      </trkpt>
      <trkpt lat="47.17868" lon="16.32796">
        <ele>307.237559</ele>
        <time>2022-08-07T02:26:20.879Z</time>
      </trkpt>
      <trkpt lat="47.18006" lon="16.32876">
        <ele>299.795676</ele>
        <time>2022-08-07T02:26:48.679Z</time>
      </trkpt>
      <trkpt lat="47.1818" lon="16.33033">
        <ele>279.530511</ele>
        <time>2022-08-07T02:27:23.067Z</time>
      </trkpt>
      <trkpt lat="47.18194" lon="16.33043">
        <ele>278.110447</ele>
        <time>2022-08-07T02:27:25.816Z</time>
      </trkpt>
      <trkpt lat="47.1827" lon="16.33096">
        <ele>270.735509</ele>
        <time>2022-08-07T02:27:40.232Z</time>
      </trkpt>
      <trkpt lat="47.18323" lon="16.33148">
        <ele>265.18704</ele>
        <time>2022-08-07T02:27:51.640Z</time>
      </trkpt>
      <trkpt lat="47.18398" lon="16.33279">
        <ele>260.318957</ele>
        <time>2022-08-07T02:28:13.974Z</time>
      </trkpt>
      <trkpt lat="47.18369" lon="16.33312">
        <ele>258.772403</ele>
        <time>2022-08-07T02:28:21.349Z</time>
      </trkpt>
      <trkpt lat="47.18324" lon="16.33365">
        <ele>257.384301</ele>
        <time>2022-08-07T02:28:33.572Z</time>
      </trkpt>
      <trkpt lat="47.18308" lon="16.33406">
        <ele>257.034587</ele>
        <time>2022-08-07T02:28:40.898Z</time>
      </trkpt>
      <trkpt lat="47.18298" lon="16.33451">
        <ele>256.691627</ele>
        <time>2022-08-07T02:28:48.611Z</time>
      </trkpt>
      <trkpt lat="47.1828" lon="16.33566">
        <ele>255.824746</ele>
        <time>2022-08-07T02:29:08.815Z</time>
      </trkpt>
      <trkpt lat="47.18289" lon="16.33652">
        <ele>255.221288</ele>
        <time>2022-08-07T02:29:22.346Z</time>
      </trkpt>
      <trkpt lat="47.18285" lon="16.33725">
        <ele>254.715358</ele>
        <time>2022-08-07T02:29:33.526Z</time>
      </trkpt>
      <trkpt lat="47.18279" lon="16.33777">
        <ele>254.354382</ele>
        <time>2022-08-07T02:29:41.656Z</time>
      </trkpt>
      <trkpt lat="47.18283" lon="16.3382">
        <ele>254.056886</ele>
        <time>2022-08-07T02:29:48.488Z</time>
      </trkpt>
      <trkpt lat="47.18299" lon="16.33877">
        <ele>253.776041</ele>
        <time>2022-08-07T02:29:58.294Z</time>
      </trkpt>
      <trkpt lat="47.18331" lon="16.33862">
        <ele>253.576628</ele>
        <time>2022-08-07T02:30:06.312Z</time>
      </trkpt>
      <trkpt lat="47.18375" lon="16.33853">
        <ele>253.317546</ele>
        <time>2022-08-07T02:30:16.804Z</time>
      </trkpt>
      <trkpt lat="47.18405" lon="16.33853">
        <ele>253.142808</ele>
        <time>2022-08-07T02:30:24.218Z</time>
      </trkpt>
      <trkpt lat="47.18449" lon="16.33865">
        <ele>252.937446</ele>
        <time>2022-08-07T02:30:35.885Z</time>
      </trkpt>
      <trkpt lat="47.18555" lon="16.33936">
        <ele>253.236717</ele>
        <time>2022-08-07T02:31:08.397Z</time>
      </trkpt>
      <trkpt lat="47.18664" lon="16.34024">
        <ele>253.726764</ele>
        <time>2022-08-07T02:31:44.219Z</time>
      </trkpt>
      <trkpt lat="47.1888" lon="16.34185">
        <ele>254.987563</ele>
        <time>2022-08-07T02:32:55.434Z</time>
      </trkpt>
      <trkpt lat="47.18882" lon="16.34187">
        <ele>255.002393</ele>
        <time>2022-08-07T02:32:56.254Z</time>
      </trkpt>
      <trkpt lat="47.18884" lon="16.34188">
        <ele>255.011072</ele>
        <time>2022-08-07T02:32:56.727Z</time>
      </trkpt>
      <trkpt lat="47.18904" lon="16.34203">
        <ele>255.130476</ele>
        <time>2022-08-07T02:33:03.316Z</time>
      </trkpt>
      <trkpt lat="47.18909" lon="16.34206">
        <ele>255.15871</ele>
        <time>2022-08-07T02:33:04.861Z</time>
      </trkpt>
      <trkpt lat="47.19014" lon="16.34283">
        <ele>255.583431</ele>
        <time>2022-08-07T02:33:38.428Z</time>
      </trkpt>
      <trkpt lat="47.19017" lon="16.34284">
        <ele>255.592803</ele>
        <time>2022-08-07T02:33:39.222Z</time>
      </trkpt>
      <trkpt lat="47.19035" lon="16.34298">
        <ele>255.661084</ele>
        <time>2022-08-07T02:33:44.948Z</time>
      </trkpt>
      <trkpt lat="47.1904" lon="16.34302">
        <ele>255.681519</ele>
        <time>2022-08-07T02:33:46.637Z</time>
      </trkpt>
      <trkpt lat="47.19077" lon="16.34328">
        <ele>255.81848</ele>
        <time>2022-08-07T02:33:58.176Z</time>
      </trkpt>
      <trkpt lat="47.19117" lon="16.34353">
        <ele>255.979628</ele>
        <time>2022-08-07T02:34:10.232Z</time>
      </trkpt>
      <trkpt lat="47.19123" lon="16.34354">
        <ele>256.001559</ele>
        <time>2022-08-07T02:34:11.833Z</time>
      </trkpt>
      <trkpt lat="47.19183" lon="16.34359">
        <ele>256.232386</ele>
        <time>2022-08-07T02:34:28.660Z</time>
      </trkpt>
      <trkpt lat="47.19205" lon="16.34448">
        <ele>256.479267</ele>
        <time>2022-08-07T02:34:46.973Z</time>
      </trkpt>
      <trkpt lat="47.19241" lon="16.34591">
        <ele>257.524525</ele>
        <time>2022-08-07T02:35:18.106Z</time>
      </trkpt>
      <trkpt lat="47.19288" lon="16.34763">
        <ele>259.026294</ele>
        <time>2022-08-07T02:36:01.350Z</time>
      </trkpt>
      <trkpt lat="47.19356" lon="16.3494">
        <ele>260.95315</ele>
        <time>2022-08-07T02:36:48.559Z</time>
      </trkpt>
      <trkpt lat="47.19428" lon="16.35128">
        <ele>261.955819</ele>
        <time>2022-08-07T02:37:31.295Z</time>
      </trkpt>
      <trkpt lat="47.19446" lon="16.35176">
        <ele>262.194607</ele>
        <time>2022-08-07T02:37:41.451Z</time>
      </trkpt>
      <trkpt lat="47.19472" lon="16.35251">
        <ele>262.786251</ele>
        <time>2022-08-07T02:37:58.888Z</time>
      </trkpt>
      <trkpt lat="47.19498" lon="16.3538">
        <ele>263.766005</ele>
        <time>2022-08-07T02:38:28.903Z</time>
      </trkpt>
      <trkpt lat="47.19503" lon="16.35404">
        <ele>263.942535</ele>
        <time>2022-08-07T02:38:34.836Z</time>
      </trkpt>
      <trkpt lat="47.19511" lon="16.35462">
        <ele>264.10521</ele>
        <time>2022-08-07T02:38:48.998Z</time>
      </trkpt>
      <trkpt lat="47.19527" lon="16.35628">
        <ele>263.931545</ele>
        <time>2022-08-07T02:39:20.141Z</time>
      </trkpt>
      <trkpt lat="47.19537" lon="16.35672">
        <ele>263.883962</ele>
        <time>2022-08-07T02:39:27.024Z</time>
      </trkpt>
      <trkpt lat="47.19556" lon="16.35723">
        <ele>263.225781</ele>
        <time>2022-08-07T02:39:35.404Z</time>
      </trkpt>
      <trkpt lat="47.1959" lon="16.35806">
        <ele>261.66565</ele>
        <time>2022-08-07T02:39:48.910Z</time>
      </trkpt>
      <trkpt lat="47.19715" lon="16.36109">
        <ele>255.991529</ele>
        <time>2022-08-07T02:40:37.431Z</time>
      </trkpt>
      <trkpt lat="47.19719" lon="16.3612">
        <ele>255.792867</ele>
        <time>2022-08-07T02:40:38.935Z</time>
      </trkpt>
      <trkpt lat="47.19868" lon="16.36484">
        <ele>253.34775</ele>
        <time>2022-08-07T02:41:48.572Z</time>
      </trkpt>
      <trkpt lat="47.19876" lon="16.36505">
        <ele>253.263974</ele>
        <time>2022-08-07T02:41:52.968Z</time>
      </trkpt>
      <trkpt lat="47.20017" lon="16.36851">
        <ele>252.072353</ele>
        <time>2022-08-07T02:43:01.559Z</time>
      </trkpt>
      <trkpt lat="47.20061" lon="16.36955">
        <ele>251.672565</ele>
        <time>2022-08-07T02:43:22.184Z</time>
      </trkpt>
      <trkpt lat="47.20211" lon="16.37321">
        <ele>250.142243</ele>
        <time>2022-08-07T02:44:33.533Z</time>
      </trkpt>
      <trkpt lat="47.20256" lon="16.3743">
        <ele>249.563973</ele>
        <time>2022-08-07T02:44:54.877Z</time>
      </trkpt>
      <trkpt lat="47.20351" lon="16.37656">
        <ele>248.135019</ele>
        <time>2022-08-07T02:45:37.032Z</time>
      </trkpt>
      <trkpt lat="47.20433" lon="16.37865">
        <ele>247.073028</ele>
        <time>2022-08-07T02:46:15.898Z</time>
      </trkpt>
      <trkpt lat="47.20486" lon="16.37984">
        <ele>246.664888</ele>
        <time>2022-08-07T02:46:40.811Z</time>
      </trkpt>
      <trkpt lat="47.206" lon="16.38187">
        <ele>246.588099</ele>
        <time>2022-08-07T02:47:28.561Z</time>
      </trkpt>
      <trkpt lat="47.20614" lon="16.3823">
        <ele>246.615964</ele>
        <time>2022-08-07T02:47:36.945Z</time>
      </trkpt>
      <trkpt lat="47.20631" lon="16.38339">
        <ele>246.681425</ele>
        <time>2022-08-07T02:47:56.875Z</time>
      </trkpt>
      <trkpt lat="47.20625" lon="16.38496">
        <ele>247.586118</ele>
        <time>2022-08-07T02:48:27.884Z</time>
      </trkpt>
      <trkpt lat="47.20636" lon="16.38578">
        <ele>248.429913</ele>
        <time>2022-08-07T02:48:46.604Z</time>
      </trkpt>
      <trkpt lat="47.20671" lon="16.38746">
        <ele>251.716157</ele>
        <time>2022-08-07T02:49:32.645Z</time>
      </trkpt>
      <trkpt lat="47.2068" lon="16.38788">
        <ele>252.995356</ele>
        <time>2022-08-07T02:49:46.237Z</time>
      </trkpt>
      <trkpt lat="47.20695" lon="16.38857">
        <ele>255.084788</ele>
        <time>2022-08-07T02:50:10.287Z</time>
      </trkpt>
      <trkpt lat="47.20707" lon="16.38949">
        <ele>258.301036</ele>
        <time>2022-08-07T02:50:46.031Z</time>
      </trkpt>
      <trkpt lat="47.20791" lon="16.38935">
        <ele>264.281683</ele>
        <time>2022-08-07T02:51:35.040Z</time>
      </trkpt>
      <trkpt lat="47.2079" lon="16.38959">
        <ele>265.438745</ele>
        <time>2022-08-07T02:51:45.300Z</time>
      </trkpt>
      <trkpt lat="47.20788" lon="16.39007">
        <ele>267.735644</ele>
        <time>2022-08-07T02:52:06.997Z</time>
      </trkpt>
      <trkpt lat="47.20792" lon="16.39025">
        <ele>268.659069</ele>
        <time>2022-08-07T02:52:15.526Z</time>
      </trkpt>
      <trkpt lat="47.20832" lon="16.39105">
        <ele>274.15162</ele>
        <time>2022-08-07T02:53:01.911Z</time>
      </trkpt>
      <trkpt lat="47.20841" lon="16.39161">
        <ele>277.430818</ele>
        <time>2022-08-07T02:53:28.675Z</time>
      </trkpt>
      <trkpt lat="47.20846" lon="16.39179">
        <ele>278.570584</ele>
        <time>2022-08-07T02:53:38.090Z</time>
      </trkpt>
      <trkpt lat="47.20906" lon="16.39487">
        <ele>296.44455</ele>
        <time>2022-08-07T02:56:06.620Z</time>
      </trkpt>
      <trkpt lat="47.21006" lon="16.39448">
        <ele>302.948818</ele>
        <time>2022-08-07T02:57:11.720Z</time>
      </trkpt>
      <trkpt lat="47.21084" lon="16.39452">
        <ele>307.019102</ele>
        <time>2022-08-07T02:57:51.349Z</time>
      </trkpt>
      <trkpt lat="47.21128" lon="16.39462">
        <ele>308.958272</ele>
        <time>2022-08-07T02:58:10.675Z</time>
      </trkpt>
      <trkpt lat="47.21145" lon="16.39494">
        <ele>309.225415</ele>
        <time>2022-08-07T02:58:20.622Z</time>
      </trkpt>
      <trkpt lat="47.21187" lon="16.39548">
        <ele>309.76694</ele>
        <time>2022-08-07T02:58:39.321Z</time>
      </trkpt>
      <trkpt lat="47.21342" lon="16.39719">
        <ele>309.409064</ele>
        <time>2022-08-07T02:59:32.034Z</time>
      </trkpt>
      <trkpt lat="47.21406" lon="16.39824">
        <ele>306.987088</ele>
        <time>2022-08-07T02:59:53.311Z</time>
      </trkpt>
      <trkpt lat="47.21431" lon="16.3994">
        <ele>301.151818</ele>
        <time>2022-08-07T03:00:08.721Z</time>
      </trkpt>
      <trkpt lat="47.21432" lon="16.40058">
        <ele>295.226014</ele>
        <time>2022-08-07T03:00:22.398Z</time>
      </trkpt>
      <trkpt lat="47.21406" lon="16.40286">
        <ele>275.179947</ele>
        <time>2022-08-07T03:00:48.374Z</time>
      </trkpt>
      <trkpt lat="47.21397" lon="16.40357">
        <ele>269.617317</ele>
        <time>2022-08-07T03:00:56.441Z</time>
      </trkpt>
      <trkpt lat="47.21442" lon="16.40445">
        <ele>261.539394</ele>
        <time>2022-08-07T03:01:09.045Z</time>
      </trkpt>
      <trkpt lat="47.21467" lon="16.40477">
        <ele>258.016774</ele>
        <time>2022-08-07T03:01:14.664Z</time>
      </trkpt>
      <trkpt lat="47.21491" lon="16.40498">
        <ele>255.006064</ele>
        <time>2022-08-07T03:01:19.548Z</time>
      </trkpt>
      <trkpt lat="47.21558" lon="16.40531">
        <ele>250.803143</ele>
        <time>2022-08-07T03:01:32.072Z</time>
      </trkpt>
      <trkpt lat="47.21554" lon="16.40583">
        <ele>249.044602</ele>
        <time>2022-08-07T03:01:38.934Z</time>
      </trkpt>
      <trkpt lat="47.21554" lon="16.40596">
        <ele>248.61677</ele>
        <time>2022-08-07T03:01:40.655Z</time>
      </trkpt>
      <trkpt lat="47.21557" lon="16.40603">
        <ele>248.354488</ele>
        <time>2022-08-07T03:01:41.714Z</time>
      </trkpt>
      <trkpt lat="47.21592" lon="16.40723">
        <ele>244.536998</ele>
        <time>2022-08-07T03:01:59.828Z</time>
      </trkpt>
      <trkpt lat="47.21648" lon="16.40689">
        <ele>243.737955</ele>
        <time>2022-08-07T03:02:12.992Z</time>
      </trkpt>
      <trkpt lat="47.21704" lon="16.40676">
        <ele>242.994777</ele>
        <time>2022-08-07T03:02:25.972Z</time>
      </trkpt>
      <trkpt lat="47.21716" lon="16.40675">
        <ele>242.829999</ele>
        <time>2022-08-07T03:02:28.989Z</time>
      </trkpt>
      <trkpt lat="47.21733" lon="16.40676">
        <ele>242.611173</ele>
        <time>2022-08-07T03:02:33.182Z</time>
      </trkpt>
      <trkpt lat="47.21801" lon="16.40693">
        <ele>242.558814</ele>
        <time>2022-08-07T03:02:52.149Z</time>
      </trkpt>
      <trkpt lat="47.21816" lon="16.40702">
        <ele>242.617497</ele>
        <time>2022-08-07T03:02:56.701Z</time>
      </trkpt>
      <trkpt lat="47.21826" lon="16.40709">
        <ele>242.657288</ele>
        <time>2022-08-07T03:02:59.644Z</time>
      </trkpt>
      <trkpt lat="47.21849" lon="16.40734">
        <ele>242.761922</ele>
        <time>2022-08-07T03:03:07.731Z</time>
      </trkpt>
      <trkpt lat="47.21883" lon="16.40799">
        <ele>242.960849</ele>
        <time>2022-08-07T03:03:23.866Z</time>
      </trkpt>
      <trkpt lat="47.2189" lon="16.40818">
        <ele>243.013438</ele>
        <time>2022-08-07T03:03:28.394Z</time>
      </trkpt>
      <trkpt lat="47.21935" lon="16.40887">
        <ele>243.684354</ele>
        <time>2022-08-07T03:03:49.928Z</time>
      </trkpt>
      <trkpt lat="47.22143" lon="16.41114">
        <ele>246.402743</ele>
        <time>2022-08-07T03:05:11.907Z</time>
      </trkpt>
      <trkpt lat="47.22228" lon="16.41205">
        <ele>247.501857</ele>
        <time>2022-08-07T03:05:44.851Z</time>
      </trkpt>
      <trkpt lat="47.22266" lon="16.4123">
        <ele>247.947199</ele>
        <time>2022-08-07T03:05:58.174Z</time>
      </trkpt>
      <trkpt lat="47.22303" lon="16.41241">
        <ele>248.338188</ele>
        <time>2022-08-07T03:06:09.936Z</time>
      </trkpt>
      <trkpt lat="47.23233" lon="16.41328">
        <ele>258.804849</ele>
        <time>2022-08-07T03:11:10.075Z</time>
      </trkpt>
      <trkpt lat="47.23278" lon="16.41339">
        <ele>258.878508</ele>
        <time>2022-08-07T03:11:23.252Z</time>
      </trkpt>
      <trkpt lat="47.23638" lon="16.41505">
        <ele>258.708894</ele>
        <time>2022-08-07T03:13:02.308Z</time>
      </trkpt>
      <trkpt lat="47.23935" lon="16.4164">
        <ele>257.646634</ele>
        <time>2022-08-07T03:14:20.823Z</time>
      </trkpt>
      <trkpt lat="47.24042" lon="16.41695">
        <ele>256.613475</ele>
        <time>2022-08-07T03:14:47.679Z</time>
      </trkpt>
      <trkpt lat="47.24083" lon="16.41726">
        <ele>256.192535</ele>
        <time>2022-08-07T03:14:58.077Z</time>
      </trkpt>
      <trkpt lat="47.24108" lon="16.41749">
        <ele>255.853496</ele>
        <time>2022-08-07T03:15:04.612Z</time>
      </trkpt>
      <trkpt lat="47.24152" lon="16.41789">
        <ele>255.22691</ele>
        <time>2022-08-07T03:15:15.864Z</time>
      </trkpt>
      <trkpt lat="47.24231" lon="16.41859">
        <ele>254.104923</ele>
        <time>2022-08-07T03:15:36.526Z</time>
      </trkpt>
      <trkpt lat="47.24252" lon="16.41877">
        <ele>254.048154</ele>
        <time>2022-08-07T03:15:42.312Z</time>
      </trkpt>
      <trkpt lat="47.2427" lon="16.41893">
        <ele>254.264676</ele>
        <time>2022-08-07T03:15:47.621Z</time>
      </trkpt>
      <trkpt lat="47.24283" lon="16.41905">
        <ele>254.426833</ele>
        <time>2022-08-07T03:15:51.644Z</time>
      </trkpt>
      <trkpt lat="47.24329" lon="16.41946">
        <ele>254.983465</ele>
        <time>2022-08-07T03:16:07.688Z</time>
      </trkpt>
      <trkpt lat="47.24334" lon="16.4195">
        <ele>255.043337</ele>
        <time>2022-08-07T03:16:09.562Z</time>
      </trkpt>
      <trkpt lat="47.24347" lon="16.41961">
        <ele>255.20046</ele>
        <time>2022-08-07T03:16:14.563Z</time>
      </trkpt>
      <trkpt lat="47.24412" lon="16.42019">
        <ele>256.442792</ele>
        <time>2022-08-07T03:16:43.638Z</time>
      </trkpt>
      <trkpt lat="47.24418" lon="16.42024">
        <ele>256.679881</ele>
        <time>2022-08-07T03:16:46.362Z</time>
      </trkpt>
      <trkpt lat="47.24553" lon="16.42143">
        <ele>262.283146</ele>
        <time>2022-08-07T03:17:57.664Z</time>
      </trkpt>
      <trkpt lat="47.24579" lon="16.42167">
        <ele>263.238305</ele>
        <time>2022-08-07T03:18:11.558Z</time>
      </trkpt>
      <trkpt lat="47.24586" lon="16.42173">
        <ele>263.504186</ele>
        <time>2022-08-07T03:18:15.357Z</time>
      </trkpt>
      <trkpt lat="47.24606" lon="16.42189">
        <ele>264.204543</ele>
        <time>2022-08-07T03:18:25.245Z</time>
      </trkpt>
      <trkpt lat="47.24614" lon="16.42196">
        <ele>264.50251</ele>
        <time>2022-08-07T03:18:29.353Z</time>
      </trkpt>
      <trkpt lat="47.24635" lon="16.42213">
        <ele>265.23824</ele>
        <time>2022-08-07T03:18:39.383Z</time>
      </trkpt>
      <trkpt lat="47.24643" lon="16.42221">
        <ele>265.545439</ele>
        <time>2022-08-07T03:18:43.435Z</time>
      </trkpt>
      <trkpt lat="47.24675" lon="16.42251">
        <ele>266.702864</ele>
        <time>2022-08-07T03:18:58.454Z</time>
      </trkpt>
      <trkpt lat="47.24757" lon="16.4232">
        <ele>268.89544</ele>
        <time>2022-08-07T03:19:33.983Z</time>
      </trkpt>
      <trkpt lat="47.24832" lon="16.42367">
        <ele>270.360545</ele>
        <time>2022-08-07T03:20:01.615Z</time>
      </trkpt>
      <trkpt lat="47.24899" lon="16.42384">
        <ele>271.520296</ele>
        <time>2022-08-07T03:20:25.025Z</time>
      </trkpt>
      <trkpt lat="47.24937" lon="16.42387">
        <ele>272.096977</ele>
        <time>2022-08-07T03:20:37.900Z</time>
      </trkpt>
      <trkpt lat="47.25246" lon="16.42388">
        <ele>276.846944</ele>
        <time>2022-08-07T03:22:22.592Z</time>
      </trkpt>
      <trkpt lat="47.25666" lon="16.42402">
        <ele>283.070475</ele>
        <time>2022-08-07T03:24:49.109Z</time>
      </trkpt>
      <trkpt lat="47.26039" lon="16.42413">
        <ele>282.818504</ele>
        <time>2022-08-07T03:26:25.301Z</time>
      </trkpt>
      <trkpt lat="47.26193" lon="16.42418">
        <ele>281.592591</ele>
        <time>2022-08-07T03:27:00.921Z</time>
      </trkpt>
      <trkpt lat="47.2623" lon="16.42418">
        <ele>281.199168</ele>
        <time>2022-08-07T03:27:09.573Z</time>
      </trkpt>
      <trkpt lat="47.26254" lon="16.42409">
        <ele>280.930792</ele>
        <time>2022-08-07T03:27:15.437Z</time>
      </trkpt>
      <trkpt lat="47.26261" lon="16.42436">
        <ele>280.717029</ele>
        <time>2022-08-07T03:27:20.101Z</time>
      </trkpt>
      <trkpt lat="47.26286" lon="16.42548">
        <ele>279.445437</ele>
        <time>2022-08-07T03:27:38.121Z</time>
      </trkpt>
      <trkpt lat="47.26299" lon="16.42528">
        <ele>279.066013</ele>
        <time>2022-08-07T03:27:42.337Z</time>
      </trkpt>
      <trkpt lat="47.26313" lon="16.42396">
        <ele>277.241661</ele>
        <time>2022-08-07T03:28:02.442Z</time>
      </trkpt>
      <trkpt lat="47.26325" lon="16.42179">
        <ele>273.040068</ele>
        <time>2022-08-07T03:28:32.670Z</time>
      </trkpt>
      <trkpt lat="47.26585" lon="16.41758">
        <ele>262.733372</ele>
        <time>2022-08-07T03:29:53.704Z</time>
      </trkpt>
      <trkpt lat="47.26595" lon="16.41747">
        <ele>262.43464</ele>
        <time>2022-08-07T03:29:56.612Z</time>
      </trkpt>
      <trkpt lat="47.26639" lon="16.41735">
        <ele>262.031334</ele>
        <time>2022-08-07T03:30:07.302Z</time>
      </trkpt>
      <trkpt lat="47.26657" lon="16.41736">
        <ele>262.041281</ele>
        <time>2022-08-07T03:30:11.883Z</time>
      </trkpt>
      <trkpt lat="47.26955" lon="16.41886">
        <ele>263.377385</ele>
        <time>2022-08-07T03:31:48.378Z</time>
      </trkpt>
      <trkpt lat="47.27364" lon="16.42089">
        <ele>268.834071</ele>
        <time>2022-08-07T03:34:16.999Z</time>
      </trkpt>
      <trkpt lat="47.27581" lon="16.42091">
        <ele>269.742149</ele>
        <time>2022-08-07T03:35:23.108Z</time>
      </trkpt>
      <trkpt lat="47.2759" lon="16.42087">
        <ele>269.737088</ele>
        <time>2022-08-07T03:35:25.627Z</time>
      </trkpt>
      <trkpt lat="47.27595" lon="16.42077">
        <ele>269.732591</ele>
        <time>2022-08-07T03:35:27.847Z</time>
      </trkpt>
      <trkpt lat="47.27595" lon="16.42009">
        <ele>269.708541</ele>
        <time>2022-08-07T03:35:39.303Z</time>
      </trkpt>
      <trkpt lat="47.2758" lon="16.41644">
        <ele>266.547433</ele>
        <time>2022-08-07T03:36:36.421Z</time>
      </trkpt>
      <trkpt lat="47.27573" lon="16.4146">
        <ele>265.415669</ele>
        <time>2022-08-07T03:37:07.321Z</time>
      </trkpt>
      <trkpt lat="47.27589" lon="16.41446">
        <ele>265.524735</ele>
        <time>2022-08-07T03:37:12.338Z</time>
      </trkpt>
      <trkpt lat="47.27623" lon="16.41444">
        <ele>265.728576</ele>
        <time>2022-08-07T03:37:22.450Z</time>
      </trkpt>
      <trkpt lat="47.27643" lon="16.41627">
        <ele>266.537854</ele>
        <time>2022-08-07T03:38:02.550Z</time>
      </trkpt>
      <trkpt lat="47.27652" lon="16.41643">
        <ele>266.810262</ele>
        <time>2022-08-07T03:38:07.585Z</time>
      </trkpt>
      <trkpt lat="47.27682" lon="16.4167">
        <ele>267.486997</ele>
        <time>2022-08-07T03:38:20.325Z</time>
      </trkpt>
      <trkpt lat="47.28103" lon="16.42015">
        <ele>276.78192</ele>
        <time>2022-08-07T03:41:20.682Z</time>
      </trkpt>
      <trkpt lat="47.28183" lon="16.42081">
        <ele>278.163894</ele>
        <time>2022-08-07T03:41:53.365Z</time>
      </trkpt>
      <trkpt lat="47.28736" lon="16.42535">
        <ele>287.583503</ele>
        <time>2022-08-07T03:45:33.347Z</time>
      </trkpt>
      <trkpt lat="47.29263" lon="16.4297">
        <ele>298.513966</ele>
        <time>2022-08-07T03:49:13.970Z</time>
      </trkpt>
      <trkpt lat="47.29456" lon="16.43131">
        <ele>302.934335</ele>
        <time>2022-08-07T03:50:35.186Z</time>
      </trkpt>
      <trkpt lat="47.29494" lon="16.43163">
        <ele>303.88786</ele>
        <time>2022-08-07T03:50:51.665Z</time>
      </trkpt>
      <trkpt lat="47.29643" lon="16.43284">
        <ele>309.45892</ele>
        <time>2022-08-07T03:52:04.588Z</time>
      </trkpt>
      <trkpt lat="47.29684" lon="16.43319">
        <ele>311.250472</ele>
        <time>2022-08-07T03:52:28.379Z</time>
      </trkpt>
      <trkpt lat="47.29779" lon="16.43396">
        <ele>316.484793</ele>
        <time>2022-08-07T03:53:25.843Z</time>
      </trkpt>
      <trkpt lat="47.29865" lon="16.43465">
        <ele>320.778519</ele>
        <time>2022-08-07T03:54:15.294Z</time>
      </trkpt>
      <trkpt lat="47.29957" lon="16.43542">
        <ele>324.532533</ele>
        <time>2022-08-07T03:55:01.863Z</time>
      </trkpt>
      <trkpt lat="47.3001" lon="16.43559">
        <ele>326.364717</ele>
        <time>2022-08-07T03:55:23.943Z</time>
      </trkpt>
      <trkpt lat="47.30048" lon="16.43566">
        <ele>327.489287</ele>
        <time>2022-08-07T03:55:39.530Z</time>
      </trkpt>
      <trkpt lat="47.30128" lon="16.43567">
        <ele>329.811295</ele>
        <time>2022-08-07T03:56:12.644Z</time>
      </trkpt>
      <trkpt lat="47.30155" lon="16.43568">
        <ele>330.627211</ele>
        <time>2022-08-07T03:56:24.566Z</time>
      </trkpt>
      <trkpt lat="47.30262" lon="16.43569">
        <ele>333.912564</ele>
        <time>2022-08-07T03:57:10.508Z</time>
      </trkpt>
      <trkpt lat="47.30313" lon="16.43589">
        <ele>335.577308</ele>
        <time>2022-08-07T03:57:33.192Z</time>
      </trkpt>
      <trkpt lat="47.30329" lon="16.43582">
        <ele>336.088917</ele>
        <time>2022-08-07T03:57:40.211Z</time>
      </trkpt>
      <trkpt lat="47.30348" lon="16.43631">
        <ele>337.229982</ele>
        <time>2022-08-07T03:57:56.007Z</time>
      </trkpt>
      <trkpt lat="47.3036" lon="16.43657">
        <ele>337.820858</ele>
        <time>2022-08-07T03:58:04.836Z</time>
      </trkpt>
      <trkpt lat="47.30394" lon="16.43776">
        <ele>340.250399</ele>
        <time>2022-08-07T03:58:41.086Z</time>
      </trkpt>
      <trkpt lat="47.30419" lon="16.43864">
        <ele>341.77914</ele>
        <time>2022-08-07T03:59:06.285Z</time>
      </trkpt>
      <trkpt lat="47.30426" lon="16.43886">
        <ele>341.755151</ele>
        <time>2022-08-07T03:59:12.504Z</time>
      </trkpt>
      <trkpt lat="47.30463" lon="16.44001">
        <ele>341.633709</ele>
        <time>2022-08-07T03:59:38.935Z</time>
      </trkpt>
      <trkpt lat="47.30488" lon="16.44106">
        <ele>341.211882</ele>
        <time>2022-08-07T03:59:55.002Z</time>
      </trkpt>
      <trkpt lat="47.30483" lon="16.44109">
        <ele>340.965469</ele>
        <time>2022-08-07T03:59:56.011Z</time>
      </trkpt>
      <trkpt lat="47.30452" lon="16.44128">
        <ele>339.553905</ele>
        <time>2022-08-07T04:00:02.391Z</time>
      </trkpt>
      <trkpt lat="47.30401" lon="16.44135">
        <ele>337.394312</ele>
        <time>2022-08-07T04:00:11.722Z</time>
      </trkpt>
      <trkpt lat="47.30401" lon="16.4416">
        <ele>336.692112</ele>
        <time>2022-08-07T04:00:14.979Z</time>
      </trkpt>
      <trkpt lat="47.30403" lon="16.44181">
        <ele>336.077233</ele>
        <time>2022-08-07T04:00:17.430Z</time>
      </trkpt>
      <trkpt lat="47.30432" lon="16.44273">
        <ele>333.533575</ele>
        <time>2022-08-07T04:00:29.952Z</time>
      </trkpt>
      <trkpt lat="47.30446" lon="16.44299">
        <ele>333.024908</ele>
        <time>2022-08-07T04:00:34.463Z</time>
      </trkpt>
      <trkpt lat="47.30473" lon="16.44324">
        <ele>332.302065</ele>
        <time>2022-08-07T04:00:40.490Z</time>
      </trkpt>
      <trkpt lat="47.30486" lon="16.44334">
        <ele>331.973707</ele>
        <time>2022-08-07T04:00:43.213Z</time>
      </trkpt>
      <trkpt lat="47.30496" lon="16.44355">
        <ele>331.580002</ele>
        <time>2022-08-07T04:00:46.775Z</time>
      </trkpt>
      <trkpt lat="47.30502" lon="16.44386">
        <ele>331.084988</ele>
        <time>2022-08-07T04:00:52.298Z</time>
      </trkpt>
      <trkpt lat="47.30505" lon="16.44404">
        <ele>330.797517</ele>
        <time>2022-08-07T04:00:55.610Z</time>
      </trkpt>
      <trkpt lat="47.30521" lon="16.44474">
        <ele>329.930371</ele>
        <time>2022-08-07T04:01:09.043Z</time>
      </trkpt>
      <trkpt lat="47.30538" lon="16.44515">
        <ele>330.136315</ele>
        <time>2022-08-07T04:01:17.797Z</time>
      </trkpt>
      <trkpt lat="47.30572" lon="16.44581">
        <ele>330.490427</ele>
        <time>2022-08-07T04:01:34.653Z</time>
      </trkpt>
      <trkpt lat="47.30606" lon="16.44639">
        <ele>330.815648</ele>
        <time>2022-08-07T04:01:50.920Z</time>
      </trkpt>
      <trkpt lat="47.30635" lon="16.4469">
        <ele>331.109834</ele>
        <time>2022-08-07T04:02:05.049Z</time>
      </trkpt>
      <trkpt lat="47.30664" lon="16.44767">
        <ele>331.532726</ele>
        <time>2022-08-07T04:02:23.496Z</time>
      </trkpt>
      <trkpt lat="47.30694" lon="16.44904">
        <ele>332.21897</ele>
        <time>2022-08-07T04:02:53.477Z</time>
      </trkpt>
      <trkpt lat="47.30729" lon="16.45012">
        <ele>330.655005</ele>
        <time>2022-08-07T04:03:14.386Z</time>
      </trkpt>
      <trkpt lat="47.30742" lon="16.45049">
        <ele>330.045998</ele>
        <time>2022-08-07T04:03:20.384Z</time>
      </trkpt>
      <trkpt lat="47.30764" lon="16.45103">
        <ele>329.121459</ele>
        <time>2022-08-07T04:03:28.953Z</time>
      </trkpt>
      <trkpt lat="47.3089" lon="16.45343">
        <ele>318.713265</ele>
        <time>2022-08-07T04:04:05.366Z</time>
      </trkpt>
      <trkpt lat="47.30986" lon="16.45518">
        <ele>311.148928</ele>
        <time>2022-08-07T04:04:32.735Z</time>
      </trkpt>
      <trkpt lat="47.31032" lon="16.45592">
        <ele>308.518011</ele>
        <time>2022-08-07T04:04:45.835Z</time>
      </trkpt>
      <trkpt lat="47.31118" lon="16.45729">
        <ele>305.178805</ele>
        <time>2022-08-07T04:05:11.564Z</time>
      </trkpt>
      <trkpt lat="47.31207" lon="16.45887">
        <ele>302.95997</ele>
        <time>2022-08-07T04:05:42.022Z</time>
      </trkpt>
      <trkpt lat="47.31255" lon="16.45973">
        <ele>301.981726</ele>
        <time>2022-08-07T04:05:59.643Z</time>
      </trkpt>
      <trkpt lat="47.31289" lon="16.46021">
        <ele>301.614737</ele>
        <time>2022-08-07T04:06:10.678Z</time>
      </trkpt>
      <trkpt lat="47.3135" lon="16.46103">
        <ele>300.981154</ele>
        <time>2022-08-07T04:06:30.016Z</time>
      </trkpt>
      <trkpt lat="47.31393" lon="16.46173">
        <ele>300.747229</ele>
        <time>2022-08-07T04:06:45.981Z</time>
      </trkpt>
      <trkpt lat="47.31411" lon="16.46216">
        <ele>300.810208</ele>
        <time>2022-08-07T04:06:54.840Z</time>
      </trkpt>
      <trkpt lat="47.31551" lon="16.46639">
        <ele>302.300229</ele>
        <time>2022-08-07T04:08:28.030Z</time>
      </trkpt>
      <trkpt lat="47.31589" lon="16.46734">
        <ele>303.221022</ele>
        <time>2022-08-07T04:08:51.498Z</time>
      </trkpt>
      <trkpt lat="47.31617" lon="16.46816">
        <ele>303.992741</ele>
        <time>2022-08-07T04:09:12.656Z</time>
      </trkpt>
      <trkpt lat="47.31629" lon="16.46852">
        <ele>304.343358</ele>
        <time>2022-08-07T04:09:22.391Z</time>
      </trkpt>
      <trkpt lat="47.31669" lon="16.46965">
        <ele>305.739876</ele>
        <time>2022-08-07T04:09:53.759Z</time>
      </trkpt>
      <trkpt lat="47.31688" lon="16.47009">
        <ele>306.322105</ele>
        <time>2022-08-07T04:10:06.151Z</time>
      </trkpt>
      <trkpt lat="47.31701" lon="16.47036">
        <ele>306.674517</ele>
        <time>2022-08-07T04:10:13.403Z</time>
      </trkpt>
      <trkpt lat="47.31746" lon="16.47136">
        <ele>307.429589</ele>
        <time>2022-08-07T04:10:39.051Z</time>
      </trkpt>
      <trkpt lat="47.31754" lon="16.47171">
        <ele>307.558831</ele>
        <time>2022-08-07T04:10:46.595Z</time>
      </trkpt>
      <trkpt lat="47.31764" lon="16.47254">
        <ele>307.85377</ele>
        <time>2022-08-07T04:11:02.365Z</time>
      </trkpt>
      <trkpt lat="47.31786" lon="16.47335">
        <ele>308.18971</ele>
        <time>2022-08-07T04:11:18.000Z</time>
      </trkpt>
      <trkpt lat="47.31846" lon="16.47477">
        <ele>309.066161</ele>
        <time>2022-08-07T04:11:51.884Z</time>
      </trkpt>
      <trkpt lat="47.3185" lon="16.47485">
        <ele>309.117634</ele>
        <time>2022-08-07T04:11:54.081Z</time>
      </trkpt>
      <trkpt lat="47.31902" lon="16.47601">
        <ele>310.213594</ele>
        <time>2022-08-07T04:12:25.626Z</time>
      </trkpt>
      <trkpt lat="47.31907" lon="16.4761">
        <ele>310.332502</ele>
        <time>2022-08-07T04:12:28.212Z</time>
      </trkpt>
      <trkpt lat="47.31958" lon="16.47725">
        <ele>311.767304</ele>
        <time>2022-08-07T04:13:00.170Z</time>
      </trkpt>
      <trkpt lat="47.31991" lon="16.47825">
        <ele>313.03016</ele>
        <time>2022-08-07T04:13:26.412Z</time>
      </trkpt>
      <trkpt lat="47.32041" lon="16.47982">
        <ele>315.091408</ele>
        <time>2022-08-07T04:14:07.880Z</time>
      </trkpt>
      <trkpt lat="47.32061" lon="16.48052">
        <ele>315.849034</ele>
        <time>2022-08-07T04:14:26.500Z</time>
      </trkpt>
      <trkpt lat="47.32106" lon="16.48296">
        <ele>317.765638</ele>
        <time>2022-08-07T04:15:22.249Z</time>
      </trkpt>
      <trkpt lat="47.32109" lon="16.48339">
        <ele>317.767181</ele>
        <time>2022-08-07T04:15:30.276Z</time>
      </trkpt>
      <trkpt lat="47.3211" lon="16.48357">
        <ele>317.767787</ele>
        <time>2022-08-07T04:15:33.549Z</time>
      </trkpt>
      <trkpt lat="47.32107" lon="16.48388">
        <ele>317.768886</ele>
        <time>2022-08-07T04:15:38.792Z</time>
      </trkpt>
      <trkpt lat="47.32087" lon="16.48467">
        <ele>317.771829</ele>
        <time>2022-08-07T04:15:53.150Z</time>
      </trkpt>
      <trkpt lat="47.32042" lon="16.48561">
        <ele>317.974648</ele>
        <time>2022-08-07T04:16:12.350Z</time>
      </trkpt>
      <trkpt lat="47.31997" lon="16.48662">
        <ele>318.357062</ele>
        <time>2022-08-07T04:16:35.404Z</time>
      </trkpt>
      <trkpt lat="47.31989" lon="16.48693">
        <ele>318.459523</ele>
        <time>2022-08-07T04:16:42.228Z</time>
      </trkpt>
      <trkpt lat="47.32013" lon="16.48712">
        <ele>318.58706</ele>
        <time>2022-08-07T04:16:51.071Z</time>
      </trkpt>
      <trkpt lat="47.32019" lon="16.48717">
        <ele>318.644364</ele>
        <time>2022-08-07T04:16:53.558Z</time>
      </trkpt>
      <trkpt lat="47.3213" lon="16.48823">
        <ele>321.276796</ele>
        <time>2022-08-07T04:17:41.817Z</time>
      </trkpt>
      <trkpt lat="47.32239" lon="16.48896">
        <ele>323.920737</ele>
        <time>2022-08-07T04:18:27.261Z</time>
      </trkpt>
      <trkpt lat="47.32251" lon="16.48903">
        <ele>324.222577</ele>
        <time>2022-08-07T04:18:32.131Z</time>
      </trkpt>
      <trkpt lat="47.32343" lon="16.48973">
        <ele>326.695791</ele>
        <time>2022-08-07T04:19:11.153Z</time>
      </trkpt>
      <trkpt lat="47.32423" lon="16.49045">
        <ele>329.443569</ele>
        <time>2022-08-07T04:19:47.918Z</time>
      </trkpt>
      <trkpt lat="47.32466" lon="16.49081">
        <ele>330.882719</ele>
        <time>2022-08-07T04:20:08.182Z</time>
      </trkpt>
      <trkpt lat="47.32473" lon="16.491">
        <ele>331.314732</ele>
        <time>2022-08-07T04:20:14.703Z</time>
      </trkpt>
      <trkpt lat="47.3247" lon="16.49131">
        <ele>332.031974</ele>
        <time>2022-08-07T04:20:24.215Z</time>
      </trkpt>
      <trkpt lat="47.32465" lon="16.49257">
        <ele>335.506484</ele>
        <time>2022-08-07T04:21:04.582Z</time>
      </trkpt>
      <trkpt lat="47.32475" lon="16.49398">
        <ele>339.269371</ele>
        <time>2022-08-07T04:21:49.802Z</time>
      </trkpt>
      <trkpt lat="47.32502" lon="16.4946">
        <ele>340.656083</ele>
        <time>2022-08-07T04:22:11.532Z</time>
      </trkpt>
      <trkpt lat="47.32548" lon="16.49539">
        <ele>342.590445</ele>
        <time>2022-08-07T04:22:39.646Z</time>
      </trkpt>
      <trkpt lat="47.32552" lon="16.49546">
        <ele>342.765341</ele>
        <time>2022-08-07T04:22:41.847Z</time>
      </trkpt>
      <trkpt lat="47.32556" lon="16.49554">
        <ele>342.938172</ele>
        <time>2022-08-07T04:22:44.054Z</time>
      </trkpt>
      <trkpt lat="47.32592" lon="16.4964">
        <ele>344.295173</ele>
        <time>2022-08-07T04:23:07.377Z</time>
      </trkpt>
      <trkpt lat="47.32635" lon="16.49789">
        <ele>345.52178</ele>
        <time>2022-08-07T04:23:43.028Z</time>
      </trkpt>
      <trkpt lat="47.32691" lon="16.49926">
        <ele>345.376546</ele>
        <time>2022-08-07T04:24:14.471Z</time>
      </trkpt>
      <trkpt lat="47.32769" lon="16.50077">
        <ele>344.011919</ele>
        <time>2022-08-07T04:24:42.722Z</time>
      </trkpt>
      <trkpt lat="47.32872" lon="16.50203">
        <ele>340.644881</ele>
        <time>2022-08-07T04:25:09.222Z</time>
      </trkpt>
      <trkpt lat="47.32905" lon="16.50234">
        <ele>339.946645</ele>
        <time>2022-08-07T04:25:17.334Z</time>
      </trkpt>
      <trkpt lat="47.32942" lon="16.50252">
        <ele>339.828253</ele>
        <time>2022-08-07T04:25:25.694Z</time>
      </trkpt>
      <trkpt lat="47.32983" lon="16.50293">
        <ele>339.675027</ele>
        <time>2022-08-07T04:25:37.972Z</time>
      </trkpt>
      <trkpt lat="47.32995" lon="16.50345">
        <ele>339.562361</ele>
        <time>2022-08-07T04:25:48.638Z</time>
      </trkpt>
      <trkpt lat="47.33016" lon="16.50486">
        <ele>340.28114</ele>
        <time>2022-08-07T04:26:22.074Z</time>
      </trkpt>
      <trkpt lat="47.33018" lon="16.50497">
        <ele>340.389811</ele>
        <time>2022-08-07T04:26:25.258Z</time>
      </trkpt>
      <trkpt lat="47.33059" lon="16.50601">
        <ele>341.607168</ele>
        <time>2022-08-07T04:26:53.980Z</time>
      </trkpt>
      <trkpt lat="47.33081" lon="16.50642">
        <ele>342.10614</ele>
        <time>2022-08-07T04:27:05.755Z</time>
      </trkpt>
      <trkpt lat="47.33106" lon="16.50689">
        <ele>341.806769</ele>
        <time>2022-08-07T04:27:18.060Z</time>
      </trkpt>
      <trkpt lat="47.33176" lon="16.50788">
        <ele>341.093508</ele>
        <time>2022-08-07T04:27:41.215Z</time>
      </trkpt>
      <trkpt lat="47.33341" lon="16.50976">
        <ele>336.029876</ele>
        <time>2022-08-07T04:28:23.275Z</time>
      </trkpt>
      <trkpt lat="47.33387" lon="16.5106">
        <ele>332.578236</ele>
        <time>2022-08-07T04:28:36.993Z</time>
      </trkpt>
      <trkpt lat="47.33508" lon="16.51432">
        <ele>317.634749</ele>
        <time>2022-08-07T04:29:26.424Z</time>
      </trkpt>
      <trkpt lat="47.33529" lon="16.51454">
        <ele>316.231795</ele>
        <time>2022-08-07T04:29:31.274Z</time>
      </trkpt>
      <trkpt lat="47.33553" lon="16.51455">
        <ele>315.157409</ele>
        <time>2022-08-07T04:29:35.613Z</time>
      </trkpt>
      <trkpt lat="47.33676" lon="16.51425">
        <ele>309.46524</ele>
        <time>2022-08-07T04:29:58.912Z</time>
      </trkpt>
      <trkpt lat="47.33789" lon="16.51452">
        <ele>304.423998</ele>
        <time>2022-08-07T04:30:19.728Z</time>
      </trkpt>
      <trkpt lat="47.33841" lon="16.51442">
        <ele>302.121212</ele>
        <time>2022-08-07T04:30:29.455Z</time>
      </trkpt>
      <trkpt lat="47.3387" lon="16.51433">
        <ele>300.807617</ele>
        <time>2022-08-07T04:30:35.097Z</time>
      </trkpt>
      <trkpt lat="47.33904" lon="16.51426">
        <ele>299.829441</ele>
        <time>2022-08-07T04:30:41.605Z</time>
      </trkpt>
      <trkpt lat="47.33954" lon="16.51441">
        <ele>298.551215</ele>
        <time>2022-08-07T04:30:51.894Z</time>
      </trkpt>
      <trkpt lat="47.33967" lon="16.51446">
        <ele>298.220664</ele>
        <time>2022-08-07T04:30:54.610Z</time>
      </trkpt>
      <trkpt lat="47.33977" lon="16.51451">
        <ele>297.963997</ele>
        <time>2022-08-07T04:30:56.716Z</time>
      </trkpt>
      <trkpt lat="47.34" lon="16.51465">
        <ele>297.351481</ele>
        <time>2022-08-07T04:31:01.963Z</time>
      </trkpt>
      <trkpt lat="47.34011" lon="16.5148">
        <ele>296.965363</ele>
        <time>2022-08-07T04:31:05.271Z</time>
      </trkpt>
      <trkpt lat="47.34022" lon="16.51511">
        <ele>296.381054</ele>
        <time>2022-08-07T04:31:10.479Z</time>
      </trkpt>
      <trkpt lat="47.34032" lon="16.5159">
        <ele>295.440503</ele>
        <time>2022-08-07T04:31:22.509Z</time>
      </trkpt>
      <trkpt lat="47.34039" lon="16.51703">
        <ele>294.32696</ele>
        <time>2022-08-07T04:31:39.097Z</time>
      </trkpt>
      <trkpt lat="47.34038" lon="16.51881">
        <ele>293.807284</ele>
        <time>2022-08-07T04:32:06.509Z</time>
      </trkpt>
      <trkpt lat="47.34044" lon="16.51951">
        <ele>294.13208</ele>
        <time>2022-08-07T04:32:19.582Z</time>
      </trkpt>
      <trkpt lat="47.34273" lon="16.51894">
        <ele>298.803976</ele>
        <time>2022-08-07T04:33:50.151Z</time>
      </trkpt>
      <trkpt lat="47.34379" lon="16.51849">
        <ele>301.730312</ele>
        <time>2022-08-07T04:34:34.986Z</time>
      </trkpt>
      <trkpt lat="47.34449" lon="16.51795">
        <ele>303.838136</ele>
        <time>2022-08-07T04:35:05.472Z</time>
      </trkpt>
      <trkpt lat="47.34548" lon="16.51769">
        <ele>306.105842</ele>
        <time>2022-08-07T04:35:43.690Z</time>
      </trkpt>
      <trkpt lat="47.34664" lon="16.51759">
        <ele>308.20386</ele>
        <time>2022-08-07T04:36:27.332Z</time>
      </trkpt>
      <trkpt lat="47.3474" lon="16.51763">
        <ele>308.429574</ele>
        <time>2022-08-07T04:36:50.813Z</time>
      </trkpt>
      <trkpt lat="47.34766" lon="16.5177">
        <ele>308.510155</ele>
        <time>2022-08-07T04:36:57.974Z</time>
      </trkpt>
      <trkpt lat="47.3479" lon="16.51789">
        <ele>308.591902</ele>
        <time>2022-08-07T04:37:04.717Z</time>
      </trkpt>
      <trkpt lat="47.34833" lon="16.51835">
        <ele>307.889753</ele>
        <time>2022-08-07T04:37:16.419Z</time>
      </trkpt>
      <trkpt lat="47.34988" lon="16.51966">
        <ele>302.642391</ele>
        <time>2022-08-07T04:37:51.023Z</time>
      </trkpt>
      <trkpt lat="47.35177" lon="16.52163">
        <ele>296.600481</ele>
        <time>2022-08-07T04:38:35.688Z</time>
      </trkpt>
      <trkpt lat="47.35237" lon="16.52229">
        <ele>295.903214</ele>
        <time>2022-08-07T04:38:54.709Z</time>
      </trkpt>
      <trkpt lat="47.35255" lon="16.52243">
        <ele>295.708814</ele>
        <time>2022-08-07T04:39:01.714Z</time>
      </trkpt>
      <trkpt lat="47.35268" lon="16.52252">
        <ele>295.974219</ele>
        <time>2022-08-07T04:39:06.806Z</time>
      </trkpt>
      <trkpt lat="47.35466" lon="16.52353">
        <ele>305.280846</ele>
        <time>2022-08-07T04:40:52.585Z</time>
      </trkpt>
      <trkpt lat="47.35546" lon="16.52404">
        <ele>309.454396</ele>
        <time>2022-08-07T04:41:38.084Z</time>
      </trkpt>
      <trkpt lat="47.35583" lon="16.52417">
        <ele>311.27851</ele>
        <time>2022-08-07T04:41:56.323Z</time>
      </trkpt>
      <trkpt lat="47.35663" lon="16.52434">
        <ele>313.741922</ele>
        <time>2022-08-07T04:42:32.148Z</time>
      </trkpt>
      <trkpt lat="47.35845" lon="16.52444">
        <ele>316.789209</ele>
        <time>2022-08-07T04:43:36.643Z</time>
      </trkpt>
      <trkpt lat="47.3592" lon="16.52459">
        <ele>316.909466</ele>
        <time>2022-08-07T04:43:56.322Z</time>
      </trkpt>
      <trkpt lat="47.36002" lon="16.52488">
        <ele>315.618913</ele>
        <time>2022-08-07T04:44:14.511Z</time>
      </trkpt>
      <trkpt lat="47.36037" lon="16.52509">
        <ele>314.501118</ele>
        <time>2022-08-07T04:44:22.018Z</time>
      </trkpt>
      <trkpt lat="47.36186" lon="16.52622">
        <ele>309.134445</ele>
        <time>2022-08-07T04:44:53.851Z</time>
      </trkpt>
      <trkpt lat="47.36401" lon="16.52738">
        <ele>302.848805</ele>
        <time>2022-08-07T04:45:38.410Z</time>
      </trkpt>
      <trkpt lat="47.36477" lon="16.52747">
        <ele>301.886804</ele>
        <time>2022-08-07T04:45:57.855Z</time>
      </trkpt>
      <trkpt lat="47.36521" lon="16.52765">
        <ele>302.7031</ele>
        <time>2022-08-07T04:46:13.361Z</time>
      </trkpt>
      <trkpt lat="47.36721" lon="16.52874">
        <ele>305.682001</ele>
        <time>2022-08-07T04:47:35.141Z</time>
      </trkpt>
      <trkpt lat="47.36747" lon="16.52889">
        <ele>305.951184</ele>
        <time>2022-08-07T04:47:43.394Z</time>
      </trkpt>
      <trkpt lat="47.36857" lon="16.5299">
        <ele>305.405688</ele>
        <time>2022-08-07T04:48:12.945Z</time>
      </trkpt>
      <trkpt lat="47.3692" lon="16.53037">
        <ele>304.365942</ele>
        <time>2022-08-07T04:48:27.678Z</time>
      </trkpt>
      <trkpt lat="47.36974" lon="16.53104">
        <ele>303.504749</ele>
        <time>2022-08-07T04:48:43.219Z</time>
      </trkpt>
      <trkpt lat="47.3702" lon="16.5315">
        <ele>302.982253</ele>
        <time>2022-08-07T04:48:56.163Z</time>
      </trkpt>
      <trkpt lat="47.3704" lon="16.53189">
        <ele>302.675306</ele>
        <time>2022-08-07T04:49:04.120Z</time>
      </trkpt>
      <trkpt lat="47.37059" lon="16.53256">
        <ele>302.219311</ele>
        <time>2022-08-07T04:49:16.378Z</time>
      </trkpt>
      <trkpt lat="47.37145" lon="16.53637">
        <ele>300.111579</ele>
        <time>2022-08-07T04:50:22.668Z</time>
      </trkpt>
      <trkpt lat="47.37175" lon="16.53726">
        <ele>299.269712</ele>
        <time>2022-08-07T04:50:37.515Z</time>
      </trkpt>
      <trkpt lat="47.37201" lon="16.53781">
        <ele>298.358205</ele>
        <time>2022-08-07T04:50:47.384Z</time>
      </trkpt>
      <trkpt lat="47.37312" lon="16.53931">
        <ele>293.596604</ele>
        <time>2022-08-07T04:51:16.772Z</time>
      </trkpt>
      <trkpt lat="47.37343" lon="16.53967">
        <ele>291.922413</ele>
        <time>2022-08-07T04:51:24.084Z</time>
      </trkpt>
      <trkpt lat="47.37427" lon="16.54045">
        <ele>287.280748</ele>
        <time>2022-08-07T04:51:42.057Z</time>
      </trkpt>
      <trkpt lat="47.37661" lon="16.54216">
        <ele>275.43713</ele>
        <time>2022-08-07T04:52:29.797Z</time>
      </trkpt>
      <trkpt lat="47.37698" lon="16.54262">
        <ele>273.840059</ele>
        <time>2022-08-07T04:52:39.062Z</time>
      </trkpt>
      <trkpt lat="47.37737" lon="16.54327">
        <ele>271.887993</ele>
        <time>2022-08-07T04:52:50.675Z</time>
      </trkpt>
      <trkpt lat="47.37748" lon="16.54346">
        <ele>271.332062</ele>
        <time>2022-08-07T04:52:54.142Z</time>
      </trkpt>
      <trkpt lat="47.37768" lon="16.54372">
        <ele>270.467345</ele>
        <time>2022-08-07T04:52:59.496Z</time>
      </trkpt>
      <trkpt lat="47.37784" lon="16.54394">
        <ele>270.162758</ele>
        <time>2022-08-07T04:53:04.107Z</time>
      </trkpt>
      <trkpt lat="47.37844" lon="16.54465">
        <ele>269.21517</ele>
        <time>2022-08-07T04:53:20.565Z</time>
      </trkpt>
      <trkpt lat="47.37874" lon="16.54489">
        <ele>268.78935</ele>
        <time>2022-08-07T04:53:28.656Z</time>
      </trkpt>
      <trkpt lat="47.37909" lon="16.54496">
        <ele>268.359034</ele>
        <time>2022-08-07T04:53:37.436Z</time>
      </trkpt>
      <trkpt lat="47.37911" lon="16.54496">
        <ele>268.326887</ele>
        <time>2022-08-07T04:53:38.110Z</time>
      </trkpt>
      <trkpt lat="47.37938" lon="16.54493">
        <ele>268.259929</ele>
        <time>2022-08-07T04:53:45.483Z</time>
      </trkpt>
      <trkpt lat="47.38019" lon="16.54467">
        <ele>268.591197</ele>
        <time>2022-08-07T04:54:08.329Z</time>
      </trkpt>
      <trkpt lat="47.38074" lon="16.54448">
        <ele>268.819366</ele>
        <time>2022-08-07T04:54:25.237Z</time>
      </trkpt>
      <trkpt lat="47.38093" lon="16.54441">
        <ele>268.899431</ele>
        <time>2022-08-07T04:54:31.486Z</time>
      </trkpt>
      <trkpt lat="47.38134" lon="16.54425">
        <ele>269.199568</ele>
        <time>2022-08-07T04:54:44.987Z</time>
      </trkpt>
      <trkpt lat="47.38144" lon="16.54421">
        <ele>269.274053</ele>
        <time>2022-08-07T04:54:48.085Z</time>
      </trkpt>
      <trkpt lat="47.38151" lon="16.54419">
        <ele>269.330707</ele>
        <time>2022-08-07T04:54:50.384Z</time>
      </trkpt>
      <trkpt lat="47.3818" lon="16.54407">
        <ele>269.554626</ele>
        <time>2022-08-07T04:54:59.653Z</time>
      </trkpt>
      <trkpt lat="47.38191" lon="16.54402">
        <ele>269.638176</ele>
        <time>2022-08-07T04:55:02.993Z</time>
      </trkpt>
      <trkpt lat="47.38266" lon="16.54363">
        <ele>270.238486</ele>
        <time>2022-08-07T04:55:26.831Z</time>
      </trkpt>
      <trkpt lat="47.38271" lon="16.54361">
        <ele>270.268137</ele>
        <time>2022-08-07T04:55:28.286Z</time>
      </trkpt>
      <trkpt lat="47.38377" lon="16.54296">
        <ele>270.533806</ele>
        <time>2022-08-07T04:56:01.196Z</time>
      </trkpt>
      <trkpt lat="47.38476" lon="16.54236">
        <ele>270.691714</ele>
        <time>2022-08-07T04:56:28.975Z</time>
      </trkpt>
      <trkpt lat="47.38485" lon="16.54262">
        <ele>270.696876</ele>
        <time>2022-08-07T04:56:34.410Z</time>
      </trkpt>
      <trkpt lat="47.38493" lon="16.54286">
        <ele>270.7016</ele>
        <time>2022-08-07T04:56:39.408Z</time>
      </trkpt>
      <trkpt lat="47.38499" lon="16.54302">
        <ele>270.704768</ele>
        <time>2022-08-07T04:56:42.754Z</time>
      </trkpt>
      <trkpt lat="47.38506" lon="16.54322">
        <ele>270.708737</ele>
        <time>2022-08-07T04:56:46.935Z</time>
      </trkpt>
      <trkpt lat="47.38537" lon="16.544">
        <ele>270.724849</ele>
        <time>2022-08-07T04:57:04.344Z</time>
      </trkpt>
      <trkpt lat="47.38549" lon="16.54411">
        <ele>270.750652</ele>
        <time>2022-08-07T04:57:08.514Z</time>
      </trkpt>
      <trkpt lat="47.38538" lon="16.54434">
        <ele>270.8491</ele>
        <time>2022-08-07T04:57:14.194Z</time>
      </trkpt>
      <trkpt lat="47.38543" lon="16.5445">
        <ele>270.910476</ele>
        <time>2022-08-07T04:57:17.761Z</time>
      </trkpt>
      <trkpt lat="47.38551" lon="16.54454">
        <ele>270.948936</ele>
        <time>2022-08-07T04:57:20.036Z</time>
      </trkpt>
      <trkpt lat="47.38605" lon="16.54444">
        <ele>271.229695</ele>
        <time>2022-08-07T04:57:36.487Z</time>
      </trkpt>
      <trkpt lat="47.38681" lon="16.54423">
        <ele>271.617144</ele>
        <time>2022-08-07T04:58:00.527Z</time>
      </trkpt>
      <trkpt lat="47.38712" lon="16.54408">
        <ele>271.869663</ele>
        <time>2022-08-07T04:58:10.872Z</time>
      </trkpt>
      <trkpt lat="47.38728" lon="16.54397">
        <ele>272.012531</ele>
        <time>2022-08-07T04:58:16.356Z</time>
      </trkpt>
      <trkpt lat="47.38735" lon="16.54389">
        <ele>272.083712</ele>
        <time>2022-08-07T04:58:18.986Z</time>
      </trkpt>
      <trkpt lat="47.38769" lon="16.54357">
        <ele>272.417255</ele>
        <time>2022-08-07T04:58:31.798Z</time>
      </trkpt>
      <trkpt lat="47.38815" lon="16.54324">
        <ele>272.831413</ele>
        <time>2022-08-07T04:58:48.436Z</time>
      </trkpt>
      <trkpt lat="47.38821" lon="16.5432">
        <ele>272.882919</ele>
        <time>2022-08-07T04:58:50.548Z</time>
      </trkpt>
      <trkpt lat="47.38827" lon="16.54317">
        <ele>272.9357</ele>
        <time>2022-08-07T04:58:52.689Z</time>
      </trkpt>
      <trkpt lat="47.38857" lon="16.543">
        <ele>273.137808</ele>
        <time>2022-08-07T04:59:02.982Z</time>
      </trkpt>
      <trkpt lat="47.3886" lon="16.54299">
        <ele>273.150796</ele>
        <time>2022-08-07T04:59:04.250Z</time>
      </trkpt>
      <trkpt lat="47.38866" lon="16.54299">
        <ele>273.17077</ele>
        <time>2022-08-07T04:59:06.090Z</time>
      </trkpt>
      <trkpt lat="47.38873" lon="16.543">
        <ele>273.192755</ele>
        <time>2022-08-07T04:59:08.098Z</time>
      </trkpt>
      <trkpt lat="47.38876" lon="16.54299">
        <ele>273.202409</ele>
        <time>2022-08-07T04:59:08.993Z</time>
      </trkpt>
      <trkpt lat="47.38886" lon="16.54299">
        <ele>273.237355</ele>
        <time>2022-08-07T04:59:12.234Z</time>
      </trkpt>
      <trkpt lat="47.38949" lon="16.54278">
        <ele>273.452384</ele>
        <time>2022-08-07T04:59:30.605Z</time>
      </trkpt>
      <trkpt lat="47.38967" lon="16.5427">
        <ele>273.513287</ele>
        <time>2022-08-07T04:59:35.590Z</time>
      </trkpt>
      <trkpt lat="47.38994" lon="16.54261">
        <ele>273.607334</ele>
        <time>2022-08-07T04:59:42.862Z</time>
      </trkpt>
      <trkpt lat="47.39003" lon="16.54258">
        <ele>273.637294</ele>
        <time>2022-08-07T04:59:45.286Z</time>
      </trkpt>
      <trkpt lat="47.3906" lon="16.54433">
        <ele>273.704625</ele>
        <time>2022-08-07T05:00:21.368Z</time>
      </trkpt>
      <trkpt lat="47.39087" lon="16.54494">
        <ele>273.707188</ele>
        <time>2022-08-07T05:00:35.064Z</time>
      </trkpt>
      <trkpt lat="47.39127" lon="16.54614">
        <ele>274.077187</ele>
        <time>2022-08-07T05:01:01.277Z</time>
      </trkpt>
      <trkpt lat="47.39129" lon="16.54622">
        <ele>274.109139</ele>
        <time>2022-08-07T05:01:03.271Z</time>
      </trkpt>
      <trkpt lat="47.39132" lon="16.54637">
        <ele>274.160891</ele>
        <time>2022-08-07T05:01:06.419Z</time>
      </trkpt>
      <trkpt lat="47.39226" lon="16.54579">
        <ele>274.703163</ele>
        <time>2022-08-07T05:01:54.487Z</time>
      </trkpt>
      <trkpt lat="47.39262" lon="16.5457">
        <ele>275.005694</ele>
        <time>2022-08-07T05:02:12.427Z</time>
      </trkpt>
      <trkpt lat="47.39281" lon="16.54571">
        <ele>275.154786</ele>
        <time>2022-08-07T05:02:21.190Z</time>
      </trkpt>
      <trkpt lat="47.39311" lon="16.54592">
        <ele>275.424373</ele>
        <time>2022-08-07T05:02:36.957Z</time>
      </trkpt>
      <trkpt lat="47.39324" lon="16.54589">
        <ele>275.52803</ele>
        <time>2022-08-07T05:02:43.061Z</time>
      </trkpt>
      <trkpt lat="47.39332" lon="16.54617">
        <ele>275.693143</ele>
        <time>2022-08-07T05:02:49.365Z</time>
      </trkpt>
      <trkpt lat="47.39343" lon="16.54648">
        <ele>275.883979</ele>
        <time>2022-08-07T05:02:57.071Z</time>
      </trkpt>
      <trkpt lat="47.39349" lon="16.54667">
        <ele>276.000184</ele>
        <time>2022-08-07T05:03:01.734Z</time>
      </trkpt>
      <trkpt lat="47.39365" lon="16.54713">
        <ele>276.53125</ele>
        <time>2022-08-07T05:03:13.391Z</time>
      </trkpt>
      <trkpt lat="47.39402" lon="16.54788">
        <ele>277.658228</ele>
        <time>2022-08-07T05:03:35.433Z</time>
      </trkpt>
      <trkpt lat="47.3943" lon="16.54817">
        <ele>278.27258</ele>
        <time>2022-08-07T05:03:48.033Z</time>
      </trkpt>
      <trkpt lat="47.39448" lon="16.54844">
        <ele>278.718413</ele>
        <time>2022-08-07T05:03:57.457Z</time>
      </trkpt>
      <trkpt lat="47.39509" lon="16.54973">
        <ele>281.84822</ele>
        <time>2022-08-07T05:04:41.322Z</time>
      </trkpt>
      <trkpt lat="47.39522" lon="16.55">
        <ele>282.624542</ele>
        <time>2022-08-07T05:04:51.431Z</time>
      </trkpt>
      <trkpt lat="47.39526" lon="16.55012">
        <ele>282.943788</ele>
        <time>2022-08-07T05:04:56.299Z</time>
      </trkpt>
      <trkpt lat="47.39611" lon="16.55179">
        <ele>288.665091</ele>
        <time>2022-08-07T05:06:27.130Z</time>
      </trkpt>
      <trkpt lat="47.39695" lon="16.55322">
        <ele>294.861216</ele>
        <time>2022-08-07T05:07:54.336Z</time>
      </trkpt>
      <trkpt lat="47.39733" lon="16.55402">
        <ele>298.795478</ele>
        <time>2022-08-07T05:08:42.469Z</time>
      </trkpt>
      <trkpt lat="47.39782" lon="16.55479">
        <ele>303.038909</ele>
        <time>2022-08-07T05:09:35.528Z</time>
      </trkpt>
      <trkpt lat="47.39798" lon="16.55513">
        <ele>304.706231</ele>
        <time>2022-08-07T05:09:57.417Z</time>
      </trkpt>
      <trkpt lat="47.39819" lon="16.55656">
        <ele>310.601491</ele>
        <time>2022-08-07T05:11:11.292Z</time>
      </trkpt>
      <trkpt lat="47.39837" lon="16.55708">
        <ele>312.957829</ele>
        <time>2022-08-07T05:11:40.310Z</time>
      </trkpt>
      <trkpt lat="47.39863" lon="16.55754">
        <ele>315.371798</ele>
        <time>2022-08-07T05:12:08.484Z</time>
      </trkpt>
      <trkpt lat="47.39934" lon="16.5581">
        <ele>318.686354</ele>
        <time>2022-08-07T05:13:03.745Z</time>
      </trkpt>
      <trkpt lat="47.39975" lon="16.5587">
        <ele>321.047213</ele>
        <time>2022-08-07T05:13:39.503Z</time>
      </trkpt>
      <trkpt lat="47.40011" lon="16.55895">
        <ele>322.676953</ele>
        <time>2022-08-07T05:14:03.552Z</time>
      </trkpt>
      <trkpt lat="47.40175" lon="16.56003">
        <ele>327.005361</ele>
        <time>2022-08-07T05:15:43.619Z</time>
      </trkpt>
      <trkpt lat="47.40487" lon="16.56181">
        <ele>332.208802</ele>
        <time>2022-08-07T05:18:37.621Z</time>
      </trkpt>
      <trkpt lat="47.40511" lon="16.56206">
        <ele>332.60139</ele>
        <time>2022-08-07T05:18:51.905Z</time>
      </trkpt>
      <trkpt lat="47.40574" lon="16.56365">
        <ele>333.712145</ele>
        <time>2022-08-07T05:19:53.056Z</time>
      </trkpt>
      <trkpt lat="47.40604" lon="16.56411">
        <ele>334.089353</ele>
        <time>2022-08-07T05:20:13.383Z</time>
      </trkpt>
      <trkpt lat="47.40604" lon="16.56441">
        <ele>334.248334</ele>
        <time>2022-08-07T05:20:23.282Z</time>
      </trkpt>
      <trkpt lat="47.40573" lon="16.56552">
        <ele>334.821217</ele>
        <time>2022-08-07T05:21:02.144Z</time>
      </trkpt>
      <trkpt lat="47.40565" lon="16.56671">
        <ele>335.387509</ele>
        <time>2022-08-07T05:21:41.136Z</time>
      </trkpt>
      <trkpt lat="47.40564" lon="16.56735">
        <ele>335.548393</ele>
        <time>2022-08-07T05:22:01.752Z</time>
      </trkpt>
      <trkpt lat="47.40583" lon="16.5682">
        <ele>335.743926</ele>
        <time>2022-08-07T05:22:30.210Z</time>
      </trkpt>
      <trkpt lat="47.40595" lon="16.56942">
        <ele>335.977597</ele>
        <time>2022-08-07T05:23:08.198Z</time>
      </trkpt>
      <trkpt lat="47.4059" lon="16.56997">
        <ele>335.388516</ele>
        <time>2022-08-07T05:23:24.239Z</time>
      </trkpt>
      <trkpt lat="47.40564" lon="16.571">
        <ele>334.235806</ele>
        <time>2022-08-07T05:23:53.679Z</time>
      </trkpt>
      <trkpt lat="47.40554" lon="16.57329">
        <ele>329.331921</ele>
        <time>2022-08-07T05:24:49.689Z</time>
      </trkpt>
      <trkpt lat="47.40541" lon="16.57405">
        <ele>327.035397</ele>
        <time>2022-08-07T05:25:07.076Z</time>
      </trkpt>
      <trkpt lat="47.40494" lon="16.57513">
        <ele>322.150769</ele>
        <time>2022-08-07T05:25:34.685Z</time>
      </trkpt>
      <trkpt lat="47.40568" lon="16.57585">
        <ele>316.336449</ele>
        <time>2022-08-07T05:26:02.744Z</time>
      </trkpt>
      <trkpt lat="47.40637" lon="16.5764">
        <ele>310.649088</ele>
        <time>2022-08-07T05:26:27.228Z</time>
      </trkpt>
      <trkpt lat="47.40658" lon="16.57667">
        <ele>308.436678</ele>
        <time>2022-08-07T05:26:35.747Z</time>
      </trkpt>
      <trkpt lat="47.40673" lon="16.57699">
        <ele>306.321742</ele>
        <time>2022-08-07T05:26:43.959Z</time>
      </trkpt>
      <trkpt lat="47.40775" lon="16.57989">
        <ele>287.799446</ele>
        <time>2022-08-07T05:27:50.532Z</time>
      </trkpt>
      <trkpt lat="47.40809" lon="16.58102">
        <ele>280.653282</ele>
        <time>2022-08-07T05:28:15.602Z</time>
      </trkpt>
      <trkpt lat="47.4081" lon="16.58122">
        <ele>279.516374</ele>
        <time>2022-08-07T05:28:19.634Z</time>
      </trkpt>
      <trkpt lat="47.40824" lon="16.58297">
        <ele>269.564562</ele>
        <time>2022-08-07T05:28:39.711Z</time>
      </trkpt>
      <trkpt lat="47.40822" lon="16.58363">
        <ele>265.945915</ele>
        <time>2022-08-07T05:28:47.143Z</time>
      </trkpt>
      <trkpt lat="47.40838" lon="16.58431">
        <ele>262.051466</ele>
        <time>2022-08-07T05:28:55.281Z</time>
      </trkpt>
      <trkpt lat="47.40869" lon="16.58507">
        <ele>257.299248</ele>
        <time>2022-08-07T05:29:05.264Z</time>
      </trkpt>
      <trkpt lat="47.40915" lon="16.58653">
        <ele>250.270516</ele>
        <time>2022-08-07T05:29:24.138Z</time>
      </trkpt>
      <trkpt lat="47.40949" lon="16.58715">
        <ele>247.184107</ele>
        <time>2022-08-07T05:29:33.778Z</time>
      </trkpt>
      <trkpt lat="47.40975" lon="16.58751">
        <ele>245.181543</ele>
        <time>2022-08-07T05:29:40.261Z</time>
      </trkpt>
      <trkpt lat="47.4101" lon="16.58777">
        <ele>243.547497</ele>
        <time>2022-08-07T05:29:47.697Z</time>
      </trkpt>
      <trkpt lat="47.41026" lon="16.58789">
        <ele>243.026233</ele>
        <time>2022-08-07T05:29:51.150Z</time>
      </trkpt>
      <trkpt lat="47.41039" lon="16.58798">
        <ele>242.618807</ele>
        <time>2022-08-07T05:29:53.925Z</time>
      </trkpt>
      <trkpt lat="47.41135" lon="16.58879">
        <ele>239.395234</ele>
        <time>2022-08-07T05:30:16.153Z</time>
      </trkpt>
      <trkpt lat="47.41232" lon="16.58922">
        <ele>238.644038</ele>
        <time>2022-08-07T05:30:38.357Z</time>
      </trkpt>
      <trkpt lat="47.41294" lon="16.58942">
        <ele>238.426877</ele>
        <time>2022-08-07T05:30:56.006Z</time>
      </trkpt>
      <trkpt lat="47.41304" lon="16.58945">
        <ele>238.390518</ele>
        <time>2022-08-07T05:30:58.941Z</time>
      </trkpt>
      <trkpt lat="47.4133" lon="16.58943">
        <ele>238.483821</ele>
        <time>2022-08-07T05:31:08.424Z</time>
      </trkpt>
      <trkpt lat="47.41353" lon="16.5893">
        <ele>239.320998</ele>
        <time>2022-08-07T05:31:17.443Z</time>
      </trkpt>
      <trkpt lat="47.41405" lon="16.58889">
        <ele>241.334116</ele>
        <time>2022-08-07T05:31:39.777Z</time>
      </trkpt>
      <trkpt lat="47.41413" lon="16.58897">
        <ele>241.653408</ele>
        <time>2022-08-07T05:31:43.723Z</time>
      </trkpt>
      <trkpt lat="47.41433" lon="16.58939">
        <ele>242.82004</ele>
        <time>2022-08-07T05:31:59.925Z</time>
      </trkpt>
      <trkpt lat="47.41438" lon="16.58933">
        <ele>243.040909</ele>
        <time>2022-08-07T05:32:04.124Z</time>
      </trkpt>
      <trkpt lat="47.41459" lon="16.58859">
        <ele>245.216566</ele>
        <time>2022-08-07T05:32:32.049Z</time>
      </trkpt>
      <trkpt lat="47.41489" lon="16.58789">
        <ele>248.501837</ele>
        <time>2022-08-07T05:33:03.065Z</time>
      </trkpt>
      <trkpt lat="47.415" lon="16.58752">
        <ele>250.101906</ele>
        <time>2022-08-07T05:33:17.076Z</time>
      </trkpt>
      <trkpt lat="47.41517" lon="16.58695">
        <ele>252.580522</ele>
        <time>2022-08-07T05:33:40.312Z</time>
      </trkpt>
      <trkpt lat="47.4155" lon="16.58658">
        <ele>255.041496</ele>
        <time>2022-08-07T05:34:11.687Z</time>
      </trkpt>
      <trkpt lat="47.41603" lon="16.58573">
        <ele>261.248775</ele>
        <time>2022-08-07T05:35:17.649Z</time>
      </trkpt>
      <trkpt lat="47.41656" lon="16.58444">
        <ele>269.286858</ele>
        <time>2022-08-07T05:36:43.162Z</time>
      </trkpt>
      <trkpt lat="47.41677" lon="16.584">
        <ele>271.497558</ele>
        <time>2022-08-07T05:37:14.149Z</time>
      </trkpt>
      <trkpt lat="47.41694" lon="16.58349">
        <ele>273.781427</ele>
        <time>2022-08-07T05:37:45.354Z</time>
      </trkpt>
      <trkpt lat="47.417" lon="16.58323">
        <ele>274.874943</ele>
        <time>2022-08-07T05:37:58.366Z</time>
      </trkpt>
      <trkpt lat="47.417" lon="16.58299">
        <ele>275.839632</ele>
        <time>2022-08-07T05:38:11.686Z</time>
      </trkpt>
      <trkpt lat="47.41685" lon="16.58227">
        <ele>278.899674</ele>
        <time>2022-08-07T05:38:45.869Z</time>
      </trkpt>
      <trkpt lat="47.41678" lon="16.58163">
        <ele>279.936446</ele>
        <time>2022-08-07T05:39:11.170Z</time>
      </trkpt>
      <trkpt lat="47.41686" lon="16.5804">
        <ele>279.923728</ele>
        <time>2022-08-07T05:39:51.949Z</time>
      </trkpt>
      <trkpt lat="47.41681" lon="16.5799">
        <ele>279.918502</ele>
        <time>2022-08-07T05:40:05.166Z</time>
      </trkpt>
      <trkpt lat="47.4168" lon="16.57934">
        <ele>279.7931</ele>
        <time>2022-08-07T05:40:18.751Z</time>
      </trkpt>
      <trkpt lat="47.41694" lon="16.57878">
        <ele>277.658911</ele>
        <time>2022-08-07T05:40:32.640Z</time>
      </trkpt>
      <trkpt lat="47.4173" lon="16.57773">
        <ele>273.449659</ele>
        <time>2022-08-07T05:40:58.576Z</time>
      </trkpt>
      <trkpt lat="47.41788" lon="16.57634">
        <ele>266.007257</ele>
        <time>2022-08-07T05:41:33.000Z</time>
      </trkpt>
      <trkpt lat="47.41814" lon="16.57585">
        <ele>262.434971</ele>
        <time>2022-08-07T05:41:45.826Z</time>
      </trkpt>
      <trkpt lat="47.41903" lon="16.57558">
        <ele>254.955634</ele>
        <time>2022-08-07T05:42:12.555Z</time>
      </trkpt>
      <trkpt lat="47.4195" lon="16.57569">
        <ele>251.339006</ele>
        <time>2022-08-07T05:42:20.480Z</time>
      </trkpt>
      <trkpt lat="47.42006" lon="16.57579">
        <ele>246.986201</ele>
        <time>2022-08-07T05:42:30.561Z</time>
      </trkpt>
      <trkpt lat="47.42049" lon="16.5756">
        <ele>243.580048</ele>
        <time>2022-08-07T05:42:38.587Z</time>
      </trkpt>
      <trkpt lat="47.42082" lon="16.57527">
        <ele>241.154359</ele>
        <time>2022-08-07T05:42:45.773Z</time>
      </trkpt>
      <trkpt lat="47.42101" lon="16.57494">
        <ele>240.056003</ele>
        <time>2022-08-07T05:42:51.562Z</time>
      </trkpt>
      <trkpt lat="47.42115" lon="16.57419">
        <ele>238.135884</ele>
        <time>2022-08-07T05:43:02.511Z</time>
      </trkpt>
      <trkpt lat="47.42183" lon="16.57194">
        <ele>232.55955</ele>
        <time>2022-08-07T05:43:37.769Z</time>
      </trkpt>
      <trkpt lat="47.42196" lon="16.57179">
        <ele>232.064205</ele>
        <time>2022-08-07T05:43:41.191Z</time>
      </trkpt>
      <trkpt lat="47.42243" lon="16.5715">
        <ele>230.530376</ele>
        <time>2022-08-07T05:43:51.473Z</time>
      </trkpt>
      <trkpt lat="47.42262" lon="16.57147">
        <ele>229.94468</ele>
        <time>2022-08-07T05:43:56.656Z</time>
      </trkpt>
      <trkpt lat="47.4227" lon="16.5717">
        <ele>229.357577</ele>
        <time>2022-08-07T05:44:00.119Z</time>
      </trkpt>
      <trkpt lat="47.42274" lon="16.57218">
        <ele>228.070327</ele>
        <time>2022-08-07T05:44:06.710Z</time>
      </trkpt>
      <trkpt lat="47.42252" lon="16.5737">
        <ele>224.013479</ele>
        <time>2022-08-07T05:44:27.000Z</time>
      </trkpt>
      <trkpt lat="47.42378" lon="16.57404">
        <ele>220.680448</ele>
        <time>2022-08-07T05:44:52.598Z</time>
      </trkpt>
      <trkpt lat="47.42503" lon="16.57393">
        <ele>218.96124</ele>
        <time>2022-08-07T05:45:20.450Z</time>
      </trkpt>
      <trkpt lat="47.42507" lon="16.57392">
        <ele>218.974596</ele>
        <time>2022-08-07T05:45:21.603Z</time>
      </trkpt>
      <trkpt lat="47.42531" lon="16.57391">
        <ele>219.047398</ele>
        <time>2022-08-07T05:45:28.222Z</time>
      </trkpt>
      <trkpt lat="47.42536" lon="16.5739">
        <ele>219.063199</ele>
        <time>2022-08-07T05:45:29.748Z</time>
      </trkpt>
      <trkpt lat="47.42668" lon="16.57379">
        <ele>219.66424</ele>
        <time>2022-08-07T05:46:11.424Z</time>
      </trkpt>
      <trkpt lat="47.4277" lon="16.57343">
        <ele>220.82387</ele>
        <time>2022-08-07T05:46:45.492Z</time>
      </trkpt>
      <trkpt lat="47.4282" lon="16.57316">
        <ele>221.413734</ele>
        <time>2022-08-07T05:47:02.451Z</time>
      </trkpt>
      <trkpt lat="47.4289" lon="16.57232">
        <ele>222.125032</ele>
        <time>2022-08-07T05:47:29.997Z</time>
      </trkpt>
      <trkpt lat="47.42907" lon="16.5723">
        <ele>222.259709</ele>
        <time>2022-08-07T05:47:35.246Z</time>
      </trkpt>
      <trkpt lat="47.43017" lon="16.57351">
        <ele>223.413539</ele>
        <time>2022-08-07T05:48:16.319Z</time>
      </trkpt>
      <trkpt lat="47.43031" lon="16.57352">
        <ele>223.539378</ele>
        <time>2022-08-07T05:48:20.841Z</time>
      </trkpt>
      <trkpt lat="47.43042" lon="16.57345">
        <ele>223.648914</ele>
        <time>2022-08-07T05:48:24.611Z</time>
      </trkpt>
      <trkpt lat="47.43298" lon="16.57115">
        <ele>226.442945</ele>
        <time>2022-08-07T05:49:59.649Z</time>
      </trkpt>
      <trkpt lat="47.43307" lon="16.57109">
        <ele>226.485509</ele>
        <time>2022-08-07T05:50:02.495Z</time>
      </trkpt>
      <trkpt lat="47.43528" lon="16.57027">
        <ele>227.259274</ele>
        <time>2022-08-07T05:51:06.041Z</time>
      </trkpt>
      <trkpt lat="47.43733" lon="16.56861">
        <ele>228.034774</ele>
        <time>2022-08-07T05:52:09.968Z</time>
      </trkpt>
      <trkpt lat="47.43938" lon="16.56692">
        <ele>231.123642</ele>
        <time>2022-08-07T05:53:27.790Z</time>
      </trkpt>
      <trkpt lat="47.44178" lon="16.56515">
        <ele>236.987122</ele>
        <time>2022-08-07T05:55:10.880Z</time>
      </trkpt>
      <trkpt lat="47.44414" lon="16.56344">
        <ele>241.47335</ele>
        <time>2022-08-07T05:56:40.698Z</time>
      </trkpt>
      <trkpt lat="47.44618" lon="16.56212">
        <ele>245.200303</ele>
        <time>2022-08-07T05:57:58.800Z</time>
      </trkpt>
      <trkpt lat="47.44853" lon="16.5602">
        <ele>248.797297</ele>
        <time>2022-08-07T05:59:27.393Z</time>
      </trkpt>
      <trkpt lat="47.45094" lon="16.55821">
        <ele>251.487281</ele>
        <time>2022-08-07T06:00:54.440Z</time>
      </trkpt>
      <trkpt lat="47.45221" lon="16.56086">
        <ele>252.904187</ele>
        <time>2022-08-07T06:01:58.713Z</time>
      </trkpt>
      <trkpt lat="47.45885" lon="16.56894">
        <ele>257.402908</ele>
        <time>2022-08-07T06:06:18.036Z</time>
      </trkpt>
      <trkpt lat="47.45924" lon="16.56927">
        <ele>256.495365</ele>
        <time>2022-08-07T06:06:27.657Z</time>
      </trkpt>
      <trkpt lat="47.45949" lon="16.56934">
        <ele>255.978492</ele>
        <time>2022-08-07T06:06:32.872Z</time>
      </trkpt>
      <trkpt lat="47.46223" lon="16.57007">
        <ele>242.499803</ele>
        <time>2022-08-07T06:07:23.140Z</time>
      </trkpt>
      <trkpt lat="47.46279" lon="16.57027">
        <ele>238.680774</ele>
        <time>2022-08-07T06:07:32.955Z</time>
      </trkpt>
      <trkpt lat="47.46306" lon="16.57051">
        <ele>236.57755</ele>
        <time>2022-08-07T06:07:38.333Z</time>
      </trkpt>
      <trkpt lat="47.46325" lon="16.57084">
        <ele>234.663085</ele>
        <time>2022-08-07T06:07:43.236Z</time>
      </trkpt>
      <trkpt lat="47.4638" lon="16.57245">
        <ele>227.363582</ele>
        <time>2022-08-07T06:08:04.312Z</time>
      </trkpt>
      <trkpt lat="47.46387" lon="16.57238">
        <ele>226.901382</ele>
        <time>2022-08-07T06:08:05.736Z</time>
      </trkpt>
      <trkpt lat="47.46409" lon="16.5727">
        <ele>225.078884</ele>
        <time>2022-08-07T06:08:11.311Z</time>
      </trkpt>
      <trkpt lat="47.46519" lon="16.5739">
        <ele>220.596623</ele>
        <time>2022-08-07T06:08:37.897Z</time>
      </trkpt>
      <trkpt lat="47.4654" lon="16.57413">
        <ele>219.946437</ele>
        <time>2022-08-07T06:08:43.604Z</time>
      </trkpt>
      <trkpt lat="47.46545" lon="16.57418">
        <ele>219.792576</ele>
        <time>2022-08-07T06:08:44.988Z</time>
      </trkpt>
      <trkpt lat="47.46572" lon="16.57451">
        <ele>218.937688</ele>
        <time>2022-08-07T06:08:52.881Z</time>
      </trkpt>
      <trkpt lat="47.46591" lon="16.57472">
        <ele>218.76903</ele>
        <time>2022-08-07T06:08:58.641Z</time>
      </trkpt>
      <trkpt lat="47.46622" lon="16.57491">
        <ele>218.87428</ele>
        <time>2022-08-07T06:09:06.869Z</time>
      </trkpt>
      <trkpt lat="47.46646" lon="16.57497">
        <ele>218.949758</ele>
        <time>2022-08-07T06:09:13.077Z</time>
      </trkpt>
      <trkpt lat="47.46712" lon="16.57519">
        <ele>219.164699</ele>
        <time>2022-08-07T06:09:33.368Z</time>
      </trkpt>
      <trkpt lat="47.46806" lon="16.57575">
        <ele>220.123196</ele>
        <time>2022-08-07T06:10:06.994Z</time>
      </trkpt>
      <trkpt lat="47.46817" lon="16.57587">
        <ele>220.3131</ele>
        <time>2022-08-07T06:10:11.902Z</time>
      </trkpt>
      <trkpt lat="47.46828" lon="16.57626">
        <ele>220.693691</ele>
        <time>2022-08-07T06:10:21.526Z</time>
      </trkpt>
      <trkpt lat="47.46823" lon="16.57655">
        <ele>220.965438</ele>
        <time>2022-08-07T06:10:28.352Z</time>
      </trkpt>
      <trkpt lat="47.46795" lon="16.57717">
        <ele>221.644571</ele>
        <time>2022-08-07T06:10:45.587Z</time>
      </trkpt>
      <trkpt lat="47.46716" lon="16.57856">
        <ele>223.087171</ele>
        <time>2022-08-07T06:11:23.579Z</time>
      </trkpt>
      <trkpt lat="47.46704" lon="16.57891">
        <ele>223.406133</ele>
        <time>2022-08-07T06:11:31.810Z</time>
      </trkpt>
      <trkpt lat="47.46702" lon="16.57941">
        <ele>223.802598</ele>
        <time>2022-08-07T06:11:42.438Z</time>
      </trkpt>
      <trkpt lat="47.46707" lon="16.58033">
        <ele>226.166095</ele>
        <time>2022-08-07T06:12:05.349Z</time>
      </trkpt>
      <trkpt lat="47.46814" lon="16.58061">
        <ele>230.390946</ele>
        <time>2022-08-07T06:12:58.666Z</time>
      </trkpt>
      <trkpt lat="47.4683" lon="16.58071">
        <ele>231.252246</ele>
        <time>2022-08-07T06:13:09.589Z</time>
      </trkpt>
      <trkpt lat="47.46885" lon="16.58115">
        <ele>235.222173</ele>
        <time>2022-08-07T06:13:47.303Z</time>
      </trkpt>
      <trkpt lat="47.47019" lon="16.58228">
        <ele>243.959075</ele>
        <time>2022-08-07T06:15:16.926Z</time>
      </trkpt>
      <trkpt lat="47.47094" lon="16.5834">
        <ele>248.070046</ele>
        <time>2022-08-07T06:16:03.283Z</time>
      </trkpt>
      <trkpt lat="47.47168" lon="16.58446">
        <ele>249.567235</ele>
        <time>2022-08-07T06:16:37.082Z</time>
      </trkpt>
      <trkpt lat="47.47257" lon="16.58589">
        <ele>249.289968</ele>
        <time>2022-08-07T06:17:11.645Z</time>
      </trkpt>
      <trkpt lat="47.47329" lon="16.58678">
        <ele>246.434027</ele>
        <time>2022-08-07T06:17:31.026Z</time>
      </trkpt>
      <trkpt lat="47.47777" lon="16.59031">
        <ele>222.831695</ele>
        <time>2022-08-07T06:19:01.319Z</time>
      </trkpt>
      <trkpt lat="47.47798" lon="16.59047">
        <ele>222.434841</ele>
        <time>2022-08-07T06:19:06.333Z</time>
      </trkpt>
      <trkpt lat="47.47832" lon="16.59086">
        <ele>221.701276</ele>
        <time>2022-08-07T06:19:18.605Z</time>
      </trkpt>
      <trkpt lat="47.47844" lon="16.59104">
        <ele>221.403638</ele>
        <time>2022-08-07T06:19:24.802Z</time>
      </trkpt>
      <trkpt lat="47.47849" lon="16.59113">
        <ele>221.268769</ele>
        <time>2022-08-07T06:19:27.650Z</time>
      </trkpt>
      <trkpt lat="47.48053" lon="16.59437">
        <ele>241.547357</ele>
        <time>2022-08-07T06:22:38.186Z</time>
      </trkpt>
      <trkpt lat="47.48144" lon="16.59593">
        <ele>247.806688</ele>
        <time>2022-08-07T06:23:48.501Z</time>
      </trkpt>
      <trkpt lat="47.4844" lon="16.6009">
        <ele>258.623944</ele>
        <time>2022-08-07T06:26:33.335Z</time>
      </trkpt>
      <trkpt lat="47.48565" lon="16.60296">
        <ele>259.916518</ele>
        <time>2022-08-07T06:27:29.621Z</time>
      </trkpt>
      <trkpt lat="47.48684" lon="16.60507">
        <ele>257.947965</ele>
        <time>2022-08-07T06:28:12.409Z</time>
      </trkpt>
      <trkpt lat="47.48737" lon="16.60623">
        <ele>255.015638</ele>
        <time>2022-08-07T06:28:31.329Z</time>
      </trkpt>
      <trkpt lat="47.48755" lon="16.60649">
        <ele>254.215853</ele>
        <time>2022-08-07T06:28:36.314Z</time>
      </trkpt>
      <trkpt lat="47.48996" lon="16.60766">
        <ele>244.042823</ele>
        <time>2022-08-07T06:29:23.359Z</time>
      </trkpt>
      <trkpt lat="47.4902" lon="16.60784">
        <ele>243.140756</ele>
        <time>2022-08-07T06:29:28.477Z</time>
      </trkpt>
      <trkpt lat="47.49046" lon="16.60818">
        <ele>241.964425</ele>
        <time>2022-08-07T06:29:35.313Z</time>
      </trkpt>
      <trkpt lat="47.49115" lon="16.60967">
        <ele>238.196509</ele>
        <time>2022-08-07T06:30:00.621Z</time>
      </trkpt>
      <trkpt lat="47.49132" lon="16.61003">
        <ele>237.862119</ele>
        <time>2022-08-07T06:30:07.419Z</time>
      </trkpt>
      <trkpt lat="47.49139" lon="16.61016">
        <ele>237.741715</ele>
        <time>2022-08-07T06:30:09.935Z</time>
      </trkpt>
      <trkpt lat="47.49146" lon="16.61032">
        <ele>237.597624</ele>
        <time>2022-08-07T06:30:13.097Z</time>
      </trkpt>
      <trkpt lat="47.49193" lon="16.60988">
        <ele>236.979771</ele>
        <time>2022-08-07T06:30:26.030Z</time>
      </trkpt>
      <trkpt lat="47.49245" lon="16.60944">
        <ele>236.39079</ele>
        <time>2022-08-07T06:30:41.729Z</time>
      </trkpt>
      <trkpt lat="47.49381" lon="16.60869">
        <ele>236.962332</ele>
        <time>2022-08-07T06:31:23.476Z</time>
      </trkpt>
      <trkpt lat="47.49422" lon="16.60846">
        <ele>237.129559</ele>
        <time>2022-08-07T06:31:36.666Z</time>
      </trkpt>
      <trkpt lat="47.49486" lon="16.60792">
        <ele>237.400522</ele>
        <time>2022-08-07T06:31:58.049Z</time>
      </trkpt>
      <trkpt lat="47.49494" lon="16.60784">
        <ele>237.434613</ele>
        <time>2022-08-07T06:32:00.708Z</time>
      </trkpt>
      <trkpt lat="47.49533" lon="16.60758">
        <ele>237.591771</ele>
        <time>2022-08-07T06:32:13.391Z</time>
      </trkpt>
      <trkpt lat="47.49593" lon="16.60711">
        <ele>237.779847</ele>
        <time>2022-08-07T06:32:32.470Z</time>
      </trkpt>
      <trkpt lat="47.49703" lon="16.60631">
        <ele>237.971752</ele>
        <time>2022-08-07T06:33:05.134Z</time>
      </trkpt>
      <trkpt lat="47.49796" lon="16.60642">
        <ele>238.439961</ele>
        <time>2022-08-07T06:33:32.586Z</time>
      </trkpt>
      <trkpt lat="47.49827" lon="16.60629">
        <ele>238.651467</ele>
        <time>2022-08-07T06:33:42.385Z</time>
      </trkpt>
      <trkpt lat="47.50172" lon="16.60407">
        <ele>241.379332</ele>
        <time>2022-08-07T06:35:35.982Z</time>
      </trkpt>
      <trkpt lat="47.50199" lon="16.60399">
        <ele>241.598148</ele>
        <time>2022-08-07T06:35:44.389Z</time>
      </trkpt>
      <trkpt lat="47.50633" lon="16.60257">
        <ele>246.149018</ele>
        <time>2022-08-07T06:38:04.247Z</time>
      </trkpt>
      <trkpt lat="47.50802" lon="16.60827">
        <ele>252.951356</ele>
        <time>2022-08-07T06:40:27.258Z</time>
      </trkpt>
      <trkpt lat="47.51032" lon="16.60752">
        <ele>258.995254</ele>
        <time>2022-08-07T06:42:02.031Z</time>
      </trkpt>
      <trkpt lat="47.51253" lon="16.60625">
        <ele>265.764838</ele>
        <time>2022-08-07T06:43:37.143Z</time>
      </trkpt>
      <trkpt lat="47.51329" lon="16.60575">
        <ele>268.385454</ele>
        <time>2022-08-07T06:44:11.304Z</time>
      </trkpt>
      <trkpt lat="47.51776" lon="16.6022">
        <ele>286.299684</ele>
        <time>2022-08-07T06:47:55.113Z</time>
      </trkpt>
      <trkpt lat="47.51846" lon="16.60169">
        <ele>288.954408</ele>
        <time>2022-08-07T06:48:28.760Z</time>
      </trkpt>
      <trkpt lat="47.51963" lon="16.60128">
        <ele>291.567615</ele>
        <time>2022-08-07T06:49:15.569Z</time>
      </trkpt>
      <trkpt lat="47.52038" lon="16.60104">
        <ele>293.036629</ele>
        <time>2022-08-07T06:49:40.874Z</time>
      </trkpt>
      <trkpt lat="47.52231" lon="16.60014">
        <ele>293.723072</ele>
        <time>2022-08-07T06:50:37.765Z</time>
      </trkpt>
      <trkpt lat="47.52352" lon="16.59946">
        <ele>293.55226</ele>
        <time>2022-08-07T06:51:11.102Z</time>
      </trkpt>
      <trkpt lat="47.52478" lon="16.59889">
        <ele>293.231159</ele>
        <time>2022-08-07T06:51:44.390Z</time>
      </trkpt>
      <trkpt lat="47.52555" lon="16.59857">
        <ele>293.006641</ele>
        <time>2022-08-07T06:52:04.914Z</time>
      </trkpt>
      <trkpt lat="47.52623" lon="16.59828">
        <ele>292.74175</ele>
        <time>2022-08-07T06:52:23.115Z</time>
      </trkpt>
      <trkpt lat="47.52889" lon="16.59699">
        <ele>291.016595</ele>
        <time>2022-08-07T06:53:32.090Z</time>
      </trkpt>
      <trkpt lat="47.53053" lon="16.59558">
        <ele>287.139218</ele>
        <time>2022-08-07T06:54:11.240Z</time>
      </trkpt>
      <trkpt lat="47.53149" lon="16.59473">
        <ele>284.49612</ele>
        <time>2022-08-07T06:54:34.127Z</time>
      </trkpt>
      <trkpt lat="47.53319" lon="16.59292">
        <ele>279.795053</ele>
        <time>2022-08-07T06:55:17.687Z</time>
      </trkpt>
      <trkpt lat="47.53419" lon="16.59191">
        <ele>277.04618</ele>
        <time>2022-08-07T06:55:42.949Z</time>
      </trkpt>
      <trkpt lat="47.53504" lon="16.59157">
        <ele>275.038021</ele>
        <time>2022-08-07T06:56:02.062Z</time>
      </trkpt>
      <trkpt lat="47.53531" lon="16.59154">
        <ele>274.416402</ele>
        <time>2022-08-07T06:56:07.632Z</time>
      </trkpt>
      <trkpt lat="47.53635" lon="16.59065">
        <ele>271.562435</ele>
        <time>2022-08-07T06:56:33.328Z</time>
      </trkpt>
      <trkpt lat="47.53696" lon="16.59016">
        <ele>270.02493</ele>
        <time>2022-08-07T06:56:48.472Z</time>
      </trkpt>
      <trkpt lat="47.53761" lon="16.58944">
        <ele>268.358207</ele>
        <time>2022-08-07T06:57:06.461Z</time>
      </trkpt>
      <trkpt lat="47.53824" lon="16.58872">
        <ele>266.916076</ele>
        <time>2022-08-07T06:57:23.997Z</time>
      </trkpt>
      <trkpt lat="47.53851" lon="16.58839">
        <ele>266.563611</ele>
        <time>2022-08-07T06:57:32.072Z</time>
      </trkpt>
      <trkpt lat="47.53886" lon="16.58901">
        <ele>266.013326</ele>
        <time>2022-08-07T06:57:45.086Z</time>
      </trkpt>
      <trkpt lat="47.53913" lon="16.58931">
        <ele>265.668794</ele>
        <time>2022-08-07T06:57:53.678Z</time>
      </trkpt>
      <trkpt lat="47.53923" lon="16.58886">
        <ele>265.346544</ele>
        <time>2022-08-07T06:58:01.757Z</time>
      </trkpt>
      <trkpt lat="47.53969" lon="16.58771">
        <ele>265.594699</ele>
        <time>2022-08-07T06:58:25.921Z</time>
      </trkpt>
      <trkpt lat="47.5404" lon="16.58628">
        <ele>266.228488</ele>
        <time>2022-08-07T06:59:02.252Z</time>
      </trkpt>
      <trkpt lat="47.54093" lon="16.58554">
        <ele>267.073149</ele>
        <time>2022-08-07T06:59:25.052Z</time>
      </trkpt>
      <trkpt lat="47.541" lon="16.58537">
        <ele>267.22967</ele>
        <time>2022-08-07T06:59:29.484Z</time>
      </trkpt>
      <trkpt lat="47.5415" lon="16.58506">
        <ele>267.867706</ele>
        <time>2022-08-07T06:59:48.462Z</time>
      </trkpt>
      <trkpt lat="47.54208" lon="16.58526">
        <ele>268.689847</ele>
        <time>2022-08-07T07:00:09.391Z</time>
      </trkpt>
      <trkpt lat="47.54265" lon="16.58559">
        <ele>269.579171</ele>
        <time>2022-08-07T07:00:31.104Z</time>
      </trkpt>
      <trkpt lat="47.54409" lon="16.58668">
        <ele>271.552501</ele>
        <time>2022-08-07T07:01:26.091Z</time>
      </trkpt>
      <trkpt lat="47.54449" lon="16.58708">
        <ele>272.044672</ele>
        <time>2022-08-07T07:01:41.265Z</time>
      </trkpt>
      <trkpt lat="47.54485" lon="16.58747">
        <ele>272.498956</ele>
        <time>2022-08-07T07:01:55.361Z</time>
      </trkpt>
      <trkpt lat="47.54508" lon="16.58769">
        <ele>272.738906</ele>
        <time>2022-08-07T07:02:03.742Z</time>
      </trkpt>
      <trkpt lat="47.54677" lon="16.58947">
        <ele>274.137254</ele>
        <time>2022-08-07T07:03:08.010Z</time>
      </trkpt>
      <trkpt lat="47.54735" lon="16.59027">
        <ele>274.230015</ele>
        <time>2022-08-07T07:03:30.475Z</time>
      </trkpt>
      <trkpt lat="47.54756" lon="16.59065">
        <ele>274.268427</ele>
        <time>2022-08-07T07:03:38.950Z</time>
      </trkpt>
      <trkpt lat="47.54922" lon="16.59405">
        <ele>269.449416</ele>
        <time>2022-08-07T07:04:40.044Z</time>
      </trkpt>
      <trkpt lat="47.55026" lon="16.5964">
        <ele>265.686226</ele>
        <time>2022-08-07T07:05:18.155Z</time>
      </trkpt>
      <trkpt lat="47.55045" lon="16.59684">
        <ele>265.071696</ele>
        <time>2022-08-07T07:05:25.805Z</time>
      </trkpt>
      <trkpt lat="47.5505" lon="16.59695">
        <ele>264.911413</ele>
        <time>2022-08-07T07:05:27.849Z</time>
      </trkpt>
      <trkpt lat="47.55084" lon="16.59746">
        <ele>264.550275</ele>
        <time>2022-08-07T07:05:39.814Z</time>
      </trkpt>
      <trkpt lat="47.55183" lon="16.59839">
        <ele>266.700978</ele>
        <time>2022-08-07T07:06:20.497Z</time>
      </trkpt>
      <trkpt lat="47.55244" lon="16.59879">
        <ele>268.268871</ele>
        <time>2022-08-07T07:06:49.784Z</time>
      </trkpt>
      <trkpt lat="47.55311" lon="16.5992">
        <ele>270.876906</ele>
        <time>2022-08-07T07:07:22.046Z</time>
      </trkpt>
      <trkpt lat="47.55406" lon="16.59976">
        <ele>274.53341</ele>
        <time>2022-08-07T07:08:08.657Z</time>
      </trkpt>
      <trkpt lat="47.55483" lon="16.60048">
        <ele>277.224535</ele>
        <time>2022-08-07T07:08:45.689Z</time>
      </trkpt>
      <trkpt lat="47.55557" lon="16.60129">
        <ele>279.857372</ele>
        <time>2022-08-07T07:09:21.604Z</time>
      </trkpt>
      <trkpt lat="47.5564" lon="16.60227">
        <ele>282.329893</ele>
        <time>2022-08-07T07:10:03.851Z</time>
      </trkpt>
      <trkpt lat="47.5568" lon="16.60275">
        <ele>283.511686</ele>
        <time>2022-08-07T07:10:22.527Z</time>
      </trkpt>
      <trkpt lat="47.55692" lon="16.60289">
        <ele>283.69055</ele>
        <time>2022-08-07T07:10:28.124Z</time>
      </trkpt>
      <trkpt lat="47.5572" lon="16.6032">
        <ele>283.756482</ele>
        <time>2022-08-07T07:10:39.966Z</time>
      </trkpt>
      <trkpt lat="47.55985" lon="16.6061">
        <ele>282.970101</ele>
        <time>2022-08-07T07:12:02.004Z</time>
      </trkpt>
      <trkpt lat="47.56157" lon="16.60766">
        <ele>280.445948</ele>
        <time>2022-08-07T07:12:47.436Z</time>
      </trkpt>
      <trkpt lat="47.56179" lon="16.60774">
        <ele>280.004216</ele>
        <time>2022-08-07T07:12:53.162Z</time>
      </trkpt>
      <trkpt lat="47.56219" lon="16.60746">
        <ele>279.137452</ele>
        <time>2022-08-07T07:13:03.885Z</time>
      </trkpt>
      <trkpt lat="47.56287" lon="16.6066">
        <ele>276.863821</ele>
        <time>2022-08-07T07:13:21.699Z</time>
      </trkpt>
      <trkpt lat="47.56339" lon="16.60611">
        <ele>272.795727</ele>
        <time>2022-08-07T07:13:32.736Z</time>
      </trkpt>
      <trkpt lat="47.56424" lon="16.60573">
        <ele>266.949321</ele>
        <time>2022-08-07T07:13:47.807Z</time>
      </trkpt>
      <trkpt lat="47.56466" lon="16.60547">
        <ele>263.243353</ele>
        <time>2022-08-07T07:13:55.397Z</time>
      </trkpt>
      <trkpt lat="47.56537" lon="16.60539">
        <ele>256.640691</ele>
        <time>2022-08-07T07:14:06.949Z</time>
      </trkpt>
      <trkpt lat="47.56555" lon="16.60531">
        <ele>254.828848</ele>
        <time>2022-08-07T07:14:10.110Z</time>
      </trkpt>
      <trkpt lat="47.56567" lon="16.60511">
        <ele>253.16334</ele>
        <time>2022-08-07T07:14:13.275Z</time>
      </trkpt>
      <trkpt lat="47.56565" lon="16.60496">
        <ele>252.208242</ele>
        <time>2022-08-07T07:14:14.948Z</time>
      </trkpt>
      <trkpt lat="47.56555" lon="16.60478">
        <ele>250.712422</ele>
        <time>2022-08-07T07:14:17.698Z</time>
      </trkpt>
      <trkpt lat="47.56554" lon="16.60458">
        <ele>249.477782</ele>
        <time>2022-08-07T07:14:19.984Z</time>
      </trkpt>
      <trkpt lat="47.56564" lon="16.60452">
        <ele>248.3612</ele>
        <time>2022-08-07T07:14:21.626Z</time>
      </trkpt>
      <trkpt lat="47.56612" lon="16.60515">
        <ele>240.903122</ele>
        <time>2022-08-07T07:14:32.101Z</time>
      </trkpt>
      <trkpt lat="47.56657" lon="16.60551">
        <ele>234.976131</ele>
        <time>2022-08-07T07:14:40.177Z</time>
      </trkpt>
      <trkpt lat="47.56719" lon="16.60563">
        <ele>227.867714</ele>
        <time>2022-08-07T07:14:49.948Z</time>
      </trkpt>
      <trkpt lat="47.56809" lon="16.60543">
        <ele>219.830334</ele>
        <time>2022-08-07T07:15:04.654Z</time>
      </trkpt>
      <trkpt lat="47.56817" lon="16.60539">
        <ele>219.035774</ele>
        <time>2022-08-07T07:15:06.096Z</time>
      </trkpt>
      <trkpt lat="47.56851" lon="16.60534">
        <ele>216.051254</ele>
        <time>2022-08-07T07:15:11.638Z</time>
      </trkpt>
      <trkpt lat="47.56881" lon="16.61101">
        <ele>203.980332</ele>
        <time>2022-08-07T07:16:29.765Z</time>
      </trkpt>
      <trkpt lat="47.569" lon="16.61174">
        <ele>203.601028</ele>
        <time>2022-08-07T07:16:42.674Z</time>
      </trkpt>
      <trkpt lat="47.56917" lon="16.61218">
        <ele>203.617788</ele>
        <time>2022-08-07T07:16:51.313Z</time>
      </trkpt>
      <trkpt lat="47.56933" lon="16.61237">
        <ele>203.628121</ele>
        <time>2022-08-07T07:16:56.719Z</time>
      </trkpt>
      <trkpt lat="47.57041" lon="16.61273">
        <ele>204.195483</ele>
        <time>2022-08-07T07:17:29.618Z</time>
      </trkpt>
      <trkpt lat="47.57117" lon="16.61282">
        <ele>206.20916</ele>
        <time>2022-08-07T07:17:57.454Z</time>
      </trkpt>
      <trkpt lat="47.57383" lon="16.61258">
        <ele>215.148721</ele>
        <time>2022-08-07T07:19:57.384Z</time>
      </trkpt>
      <trkpt lat="47.57418" lon="16.61254">
        <ele>215.896318</ele>
        <time>2022-08-07T07:20:12.251Z</time>
      </trkpt>
      <trkpt lat="47.57497" lon="16.61289">
        <ele>217.621297</ele>
        <time>2022-08-07T07:20:43.928Z</time>
      </trkpt>
      <trkpt lat="47.57616" lon="16.61292">
        <ele>218.498424</ele>
        <time>2022-08-07T07:21:19.773Z</time>
      </trkpt>
      <trkpt lat="47.57639" lon="16.61304">
        <ele>218.33705</ele>
        <time>2022-08-07T07:21:26.136Z</time>
      </trkpt>
      <trkpt lat="47.57651" lon="16.61319">
        <ele>218.236694</ele>
        <time>2022-08-07T07:21:29.943Z</time>
      </trkpt>
      <trkpt lat="47.57954" lon="16.61957">
        <ele>210.279045</ele>
        <time>2022-08-07T07:23:22.413Z</time>
      </trkpt>
      <trkpt lat="47.57956" lon="16.61961">
        <ele>210.246854</ele>
        <time>2022-08-07T07:23:23.196Z</time>
      </trkpt>
      <trkpt lat="47.58004" lon="16.61868">
        <ele>209.499544</ele>
        <time>2022-08-07T07:23:43.368Z</time>
      </trkpt>
      <trkpt lat="47.58243" lon="16.61663">
        <ele>210.216189</ele>
        <time>2022-08-07T07:25:03.199Z</time>
      </trkpt>
      <trkpt lat="47.58403" lon="16.61523">
        <ele>209.934776</ele>
        <time>2022-08-07T07:25:51.441Z</time>
      </trkpt>
      <trkpt lat="47.58482" lon="16.61506">
        <ele>209.574602</ele>
        <time>2022-08-07T07:26:10.515Z</time>
      </trkpt>
      <trkpt lat="47.58488" lon="16.61507">
        <ele>209.544196</ele>
        <time>2022-08-07T07:26:12.129Z</time>
      </trkpt>
      <trkpt lat="47.5881" lon="16.6163">
        <ele>206.572102</ele>
        <time>2022-08-07T07:27:29.451Z</time>
      </trkpt>
      <trkpt lat="47.5883" lon="16.6163">
        <ele>206.404915</ele>
        <time>2022-08-07T07:27:34.261Z</time>
      </trkpt>
      <trkpt lat="47.58886" lon="16.61592">
        <ele>206.229403</ele>
        <time>2022-08-07T07:27:49.156Z</time>
      </trkpt>
      <trkpt lat="47.59136" lon="16.61485">
        <ele>206.40984</ele>
        <time>2022-08-07T07:28:58.974Z</time>
      </trkpt>
      <trkpt lat="47.59264" lon="16.61435">
        <ele>206.978115</ele>
        <time>2022-08-07T07:29:40.666Z</time>
      </trkpt>
      <trkpt lat="47.59397" lon="16.6138">
        <ele>207.020313</ele>
        <time>2022-08-07T07:30:18.616Z</time>
      </trkpt>
      <trkpt lat="47.59415" lon="16.61435">
        <ele>206.608349</ele>
        <time>2022-08-07T07:30:28.312Z</time>
      </trkpt>
      <trkpt lat="47.59433" lon="16.61456">
        <ele>206.378048</ele>
        <time>2022-08-07T07:30:33.713Z</time>
      </trkpt>
      <trkpt lat="47.59537" lon="16.61441">
        <ele>205.000517</ele>
        <time>2022-08-07T07:30:58.038Z</time>
      </trkpt>
      <trkpt lat="47.59522" lon="16.61622">
        <ele>202.551603</ele>
        <time>2022-08-07T07:31:25.235Z</time>
      </trkpt>
      <trkpt lat="47.59586" lon="16.6181">
        <ele>198.937036</ele>
        <time>2022-08-07T07:31:55.556Z</time>
      </trkpt>
      <trkpt lat="47.59705" lon="16.62044">
        <ele>193.018918</ele>
        <time>2022-08-07T07:32:36.150Z</time>
      </trkpt>
      <trkpt lat="47.59746" lon="16.62094">
        <ele>191.448803</ele>
        <time>2022-08-07T07:32:47.136Z</time>
      </trkpt>
      <trkpt lat="47.59801" lon="16.62148">
        <ele>190.125452</ele>
        <time>2022-08-07T07:33:00.846Z</time>
      </trkpt>
      <trkpt lat="47.59913" lon="16.62098">
        <ele>187.957844</ele>
        <time>2022-08-07T07:33:27.399Z</time>
      </trkpt>
      <trkpt lat="47.5991" lon="16.62114">
        <ele>187.947525</ele>
        <time>2022-08-07T07:33:30.316Z</time>
      </trkpt>
      <trkpt lat="47.59942" lon="16.62249">
        <ele>187.8563</ele>
        <time>2022-08-07T07:33:56.831Z</time>
      </trkpt>
      <trkpt lat="47.60003" lon="16.62444">
        <ele>187.60017</ele>
        <time>2022-08-07T07:34:41.132Z</time>
      </trkpt>
      <trkpt lat="47.6001" lon="16.62506">
        <ele>187.497827</ele>
        <time>2022-08-07T07:34:52.608Z</time>
      </trkpt>
      <trkpt lat="47.6003" lon="16.62496">
        <ele>187.445738</ele>
        <time>2022-08-07T07:34:57.856Z</time>
      </trkpt>
      <trkpt lat="47.60073" lon="16.62469">
        <ele>187.060769</ele>
        <time>2022-08-07T07:35:08.319Z</time>
      </trkpt>
      <trkpt lat="47.60077" lon="16.62467">
        <ele>186.968193</ele>
        <time>2022-08-07T07:35:09.201Z</time>
      </trkpt>
      <trkpt lat="47.60172" lon="16.62456">
        <ele>184.886223</ele>
        <time>2022-08-07T07:35:28.633Z</time>
      </trkpt>
      <trkpt lat="47.60202" lon="16.62416">
        <ele>183.995854</ele>
        <time>2022-08-07T07:35:36.855Z</time>
      </trkpt>
      <trkpt lat="47.60234" lon="16.62373">
        <ele>183.173584</ele>
        <time>2022-08-07T07:35:45.678Z</time>
      </trkpt>
      <trkpt lat="47.60254" lon="16.62349">
        <ele>182.798279</ele>
        <time>2022-08-07T07:35:51.032Z</time>
      </trkpt>
      <trkpt lat="47.60282" lon="16.62323">
        <ele>182.302709</ele>
        <time>2022-08-07T07:35:58.198Z</time>
      </trkpt>
      <trkpt lat="47.60297" lon="16.62313">
        <ele>182.06228</ele>
        <time>2022-08-07T07:36:01.741Z</time>
      </trkpt>
      <trkpt lat="47.60323" lon="16.62305">
        <ele>181.679312</ele>
        <time>2022-08-07T07:36:07.427Z</time>
      </trkpt>
      <trkpt lat="47.60368" lon="16.62309">
        <ele>181.013124</ele>
        <time>2022-08-07T07:36:18.034Z</time>
      </trkpt>
      <trkpt lat="47.60373" lon="16.6232">
        <ele>180.884895</ele>
        <time>2022-08-07T07:36:20.181Z</time>
      </trkpt>
      <trkpt lat="47.60382" lon="16.62319">
        <ele>180.780904</ele>
        <time>2022-08-07T07:36:22.351Z</time>
      </trkpt>
      <trkpt lat="47.60385" lon="16.62307">
        <ele>180.784881</ele>
        <time>2022-08-07T07:36:24.537Z</time>
      </trkpt>
      <trkpt lat="47.60443" lon="16.6227">
        <ele>180.813792</ele>
        <time>2022-08-07T07:36:41.872Z</time>
      </trkpt>
      <trkpt lat="47.60447" lon="16.62257">
        <ele>180.81819</ele>
        <time>2022-08-07T07:36:44.554Z</time>
      </trkpt>
      <trkpt lat="47.60445" lon="16.62137">
        <ele>180.855058</ele>
        <time>2022-08-07T07:37:07.092Z</time>
      </trkpt>
      <trkpt lat="47.6045" lon="16.62106">
        <ele>180.843143</ele>
        <time>2022-08-07T07:37:12.924Z</time>
      </trkpt>
      <trkpt lat="47.6045" lon="16.62065">
        <ele>180.748121</ele>
        <time>2022-08-07T07:37:20.310Z</time>
      </trkpt>
      <trkpt lat="47.60442" lon="16.61975">
        <ele>180.534652</ele>
        <time>2022-08-07T07:37:36.588Z</time>
      </trkpt>
      <trkpt lat="47.60738" lon="16.61839">
        <ele>178.539871</ele>
        <time>2022-08-07T07:38:50.460Z</time>
      </trkpt>
      <trkpt lat="47.61038" lon="16.61702">
        <ele>176.508506</ele>
        <time>2022-08-07T07:40:05.996Z</time>
      </trkpt>
      <trkpt lat="47.61379" lon="16.61544">
        <ele>175.582058</ele>
        <time>2022-08-07T07:41:38.316Z</time>
      </trkpt>
      <trkpt lat="47.61507" lon="16.62114">
        <ele>173.412616</ele>
        <time>2022-08-07T07:43:15.502Z</time>
      </trkpt>
      <trkpt lat="47.61643" lon="16.62063">
        <ele>173.896513</ele>
        <time>2022-08-07T07:43:57.158Z</time>
      </trkpt>
      <trkpt lat="47.61691" lon="16.62052">
        <ele>174.400483</ele>
        <time>2022-08-07T07:44:12.627Z</time>
      </trkpt>
      <trkpt lat="47.61702" lon="16.62049">
        <ele>174.515364</ele>
        <time>2022-08-07T07:44:16.312Z</time>
      </trkpt>
      <trkpt lat="47.61737" lon="16.62034">
        <ele>174.897475</ele>
        <time>2022-08-07T07:44:28.427Z</time>
      </trkpt>
      <trkpt lat="47.61838" lon="16.61968">
        <ele>175.92401</ele>
        <time>2022-08-07T07:45:03.548Z</time>
      </trkpt>
      <trkpt lat="47.61862" lon="16.61959">
        <ele>176.074688</ele>
        <time>2022-08-07T07:45:10.968Z</time>
      </trkpt>
      <trkpt lat="47.61927" lon="16.61967">
        <ele>176.485039</ele>
        <time>2022-08-07T07:45:35.549Z</time>
      </trkpt>
      <trkpt lat="47.61932" lon="16.61985">
        <ele>176.568773</ele>
        <time>2022-08-07T07:45:39.105Z</time>
      </trkpt>
      <trkpt lat="47.61961" lon="16.6201">
        <ele>176.776757</ele>
        <time>2022-08-07T07:45:48.839Z</time>
      </trkpt>
      <trkpt lat="47.62006" lon="16.62055">
        <ele>177.234742</ele>
        <time>2022-08-07T07:46:05.024Z</time>
      </trkpt>
      <trkpt lat="47.62036" lon="16.62091">
        <ele>177.584432</ele>
        <time>2022-08-07T07:46:16.439Z</time>
      </trkpt>
      <trkpt lat="47.62054" lon="16.62118">
        <ele>177.822385</ele>
        <time>2022-08-07T07:46:24.213Z</time>
      </trkpt>
      <trkpt lat="47.62224" lon="16.62316">
        <ele>180.422489</ele>
        <time>2022-08-07T07:47:35.993Z</time>
      </trkpt>
      <trkpt lat="47.62231" lon="16.62336">
        <ele>180.627208</ele>
        <time>2022-08-07T07:47:40.735Z</time>
      </trkpt>
      <trkpt lat="47.62245" lon="16.62329">
        <ele>180.822458</ele>
        <time>2022-08-07T07:47:45.773Z</time>
      </trkpt>
      <trkpt lat="47.62296" lon="16.62331">
        <ele>181.381855</ele>
        <time>2022-08-07T07:48:02.910Z</time>
      </trkpt>
      <trkpt lat="47.62344" lon="16.62346">
        <ele>181.882011</ele>
        <time>2022-08-07T07:48:18.693Z</time>
      </trkpt>
      <trkpt lat="47.62368" lon="16.62362">
        <ele>182.153315</ele>
        <time>2022-08-07T07:48:26.609Z</time>
      </trkpt>
      <trkpt lat="47.62448" lon="16.62412">
        <ele>182.978164</ele>
        <time>2022-08-07T07:48:53.081Z</time>
      </trkpt>
      <trkpt lat="47.62478" lon="16.62431">
        <ele>183.218169</ele>
        <time>2022-08-07T07:49:02.979Z</time>
      </trkpt>
      <trkpt lat="47.6249" lon="16.62439">
        <ele>183.314911</ele>
        <time>2022-08-07T07:49:06.892Z</time>
      </trkpt>
      <trkpt lat="47.62569" lon="16.62479">
        <ele>183.929171</ele>
        <time>2022-08-07T07:49:31.669Z</time>
      </trkpt>
      <trkpt lat="47.62599" lon="16.62501">
        <ele>184.254865</ele>
        <time>2022-08-07T07:49:41.286Z</time>
      </trkpt>
      <trkpt lat="47.62676" lon="16.62594">
        <ele>186.073634</ele>
        <time>2022-08-07T07:50:14.217Z</time>
      </trkpt>
      <trkpt lat="47.62717" lon="16.6263">
        <ele>186.9427</ele>
        <time>2022-08-07T07:50:32.949Z</time>
      </trkpt>
      <trkpt lat="47.62726" lon="16.62635">
        <ele>187.121357</ele>
        <time>2022-08-07T07:50:36.658Z</time>
      </trkpt>
      <trkpt lat="47.62759" lon="16.62653">
        <ele>188.070361</ele>
        <time>2022-08-07T07:50:51.189Z</time>
      </trkpt>
      <trkpt lat="47.62789" lon="16.62673">
        <ele>189.178716</ele>
        <time>2022-08-07T07:51:04.931Z</time>
      </trkpt>
      <trkpt lat="47.62813" lon="16.62685">
        <ele>190.053772</ele>
        <time>2022-08-07T07:51:16.445Z</time>
      </trkpt>
      <trkpt lat="47.62827" lon="16.627">
        <ele>190.610827</ele>
        <time>2022-08-07T07:51:23.347Z</time>
      </trkpt>
      <trkpt lat="47.6286" lon="16.62756">
        <ele>192.312894</ele>
        <time>2022-08-07T07:51:46.307Z</time>
      </trkpt>
      <trkpt lat="47.62983" lon="16.62829">
        <ele>196.128975</ele>
        <time>2022-08-07T07:52:43.002Z</time>
      </trkpt>
      <trkpt lat="47.63012" lon="16.62835">
        <ele>196.893602</ele>
        <time>2022-08-07T07:52:54.051Z</time>
      </trkpt>
      <trkpt lat="47.63049" lon="16.62825">
        <ele>197.905731</ele>
        <time>2022-08-07T07:53:07.750Z</time>
      </trkpt>
      <trkpt lat="47.63134" lon="16.62873">
        <ele>198.19388</ele>
        <time>2022-08-07T07:53:37.253Z</time>
      </trkpt>
      <trkpt lat="47.63174" lon="16.6292">
        <ele>198.1031</ele>
        <time>2022-08-07T07:53:49.794Z</time>
      </trkpt>
      <trkpt lat="47.63231" lon="16.63017">
        <ele>197.000082</ele>
        <time>2022-08-07T07:54:08.546Z</time>
      </trkpt>
      <trkpt lat="47.63303" lon="16.63149">
        <ele>193.532123</ele>
        <time>2022-08-07T07:54:30.961Z</time>
      </trkpt>
      <trkpt lat="47.63312" lon="16.63164">
        <ele>193.134479</ele>
        <time>2022-08-07T07:54:33.424Z</time>
      </trkpt>
      <trkpt lat="47.63328" lon="16.6319">
        <ele>192.390139</ele>
        <time>2022-08-07T07:54:37.835Z</time>
      </trkpt>
      <trkpt lat="47.63344" lon="16.63214">
        <ele>191.532153</ele>
        <time>2022-08-07T07:54:42.147Z</time>
      </trkpt>
      <trkpt lat="47.63368" lon="16.63249">
        <ele>190.292165</ele>
        <time>2022-08-07T07:54:48.376Z</time>
      </trkpt>
      <trkpt lat="47.63391" lon="16.6328">
        <ele>189.122934</ele>
        <time>2022-08-07T07:54:54.298Z</time>
      </trkpt>
      <trkpt lat="47.63474" lon="16.63377">
        <ele>185.399526</ele>
        <time>2022-08-07T07:55:14.485Z</time>
      </trkpt>
      <trkpt lat="47.63812" lon="16.63676">
        <ele>175.915962</ele>
        <time>2022-08-07T07:56:34.842Z</time>
      </trkpt>
      <trkpt lat="47.63889" lon="16.63744">
        <ele>174.66371</ele>
        <time>2022-08-07T07:56:54.970Z</time>
      </trkpt>
      <trkpt lat="47.63824" lon="16.63926">
        <ele>174.287893</ele>
        <time>2022-08-07T07:57:32.789Z</time>
      </trkpt>
      <trkpt lat="47.6381" lon="16.63978">
        <ele>174.34515</ele>
        <time>2022-08-07T07:57:44.765Z</time>
      </trkpt>
      <trkpt lat="47.63807" lon="16.63996">
        <ele>174.36406</ele>
        <time>2022-08-07T07:57:48.457Z</time>
      </trkpt>
      <trkpt lat="47.63803" lon="16.64037">
        <ele>174.405926</ele>
        <time>2022-08-07T07:57:57.021Z</time>
      </trkpt>
      <trkpt lat="47.63787" lon="16.64102">
        <ele>174.552776</ele>
        <time>2022-08-07T07:58:10.923Z</time>
      </trkpt>
      <trkpt lat="47.63783" lon="16.64111">
        <ele>174.576893</ele>
        <time>2022-08-07T07:58:13.355Z</time>
      </trkpt>
      <trkpt lat="47.63762" lon="16.64095">
        <ele>174.649586</ele>
        <time>2022-08-07T07:58:19.895Z</time>
      </trkpt>
      <trkpt lat="47.63745" lon="16.64081">
        <ele>174.712649</ele>
        <time>2022-08-07T07:58:26.086Z</time>
      </trkpt>
      <trkpt lat="47.63762" lon="16.64095">
        <ele>174.775712</ele>
        <time>2022-08-07T07:58:31.510Z</time>
      </trkpt>
      <trkpt lat="47.63712" lon="16.64194">
        <ele>174.933636</ele>
        <time>2022-08-07T07:58:55.455Z</time>
      </trkpt>
      <trkpt lat="47.63711" lon="16.64205">
        <ele>174.913773</ele>
        <time>2022-08-07T07:58:57.667Z</time>
      </trkpt>
      <trkpt lat="47.6373" lon="16.64206">
        <ele>174.866929</ele>
        <time>2022-08-07T07:59:02.497Z</time>
      </trkpt>
      <trkpt lat="47.63802" lon="16.64278">
        <ele>174.643962</ele>
        <time>2022-08-07T07:59:25.698Z</time>
      </trkpt>
      <trkpt lat="47.63808" lon="16.64284">
        <ele>174.623687</ele>
        <time>2022-08-07T07:59:27.741Z</time>
      </trkpt>
      <trkpt lat="47.63816" lon="16.6429">
        <ele>174.601049</ele>
        <time>2022-08-07T07:59:29.990Z</time>
      </trkpt>
      <trkpt lat="47.63829" lon="16.64301">
        <ele>174.56389</ele>
        <time>2022-08-07T07:59:33.699Z</time>
      </trkpt>
      <trkpt lat="47.63861" lon="16.64327">
        <ele>174.38024</ele>
        <time>2022-08-07T07:59:43.161Z</time>
      </trkpt>
      <trkpt lat="47.6387" lon="16.64334">
        <ele>174.313774</ele>
        <time>2022-08-07T07:59:45.591Z</time>
      </trkpt>
      <trkpt lat="47.63887" lon="16.64344">
        <ele>174.184451</ele>
        <time>2022-08-07T07:59:50.401Z</time>
      </trkpt>
      <trkpt lat="47.63902" lon="16.64351">
        <ele>174.07895</ele>
        <time>2022-08-07T07:59:54.255Z</time>
      </trkpt>
      <trkpt lat="47.63915" lon="16.64357">
        <ele>173.983824</ele>
        <time>2022-08-07T07:59:57.717Z</time>
      </trkpt>
      <trkpt lat="47.63919" lon="16.64359">
        <ele>173.956187</ele>
        <time>2022-08-07T07:59:58.759Z</time>
      </trkpt>
      <trkpt lat="47.63969" lon="16.64392">
        <ele>173.575902</ele>
        <time>2022-08-07T08:00:12.451Z</time>
      </trkpt>
      <trkpt lat="47.63975" lon="16.64418">
        <ele>173.445385</ele>
        <time>2022-08-07T08:00:17.113Z</time>
      </trkpt>
      <trkpt lat="47.64017" lon="16.64466">
        <ele>173.051557</ele>
        <time>2022-08-07T08:00:29.992Z</time>
      </trkpt>
      <trkpt lat="47.64021" lon="16.6447">
        <ele>173.013663</ele>
        <time>2022-08-07T08:00:31.169Z</time>
      </trkpt>
      <trkpt lat="47.6403" lon="16.64469">
        <ele>172.939567</ele>
        <time>2022-08-07T08:00:33.473Z</time>
      </trkpt>
      <trkpt lat="47.64037" lon="16.6446">
        <ele>172.869223</ele>
        <time>2022-08-07T08:00:35.692Z</time>
      </trkpt>
      <trkpt lat="47.6418" lon="16.6462">
        <ele>171.612429</ele>
        <time>2022-08-07T08:01:20.385Z</time>
      </trkpt>
      <trkpt lat="47.6419" lon="16.64645">
        <ele>171.515834</ele>
        <time>2022-08-07T08:01:25.280Z</time>
      </trkpt>
      <trkpt lat="47.64193" lon="16.64679">
        <ele>171.4026</ele>
        <time>2022-08-07T08:01:31.123Z</time>
      </trkpt>
      <trkpt lat="47.64178" lon="16.64763">
        <ele>171.113272</ele>
        <time>2022-08-07T08:01:46.370Z</time>
      </trkpt>
      <trkpt lat="47.64163" lon="16.64856">
        <ele>171.135763</ele>
        <time>2022-08-07T08:02:03.992Z</time>
      </trkpt>
      <trkpt lat="47.64167" lon="16.64916">
        <ele>171.313976</ele>
        <time>2022-08-07T08:02:15.950Z</time>
      </trkpt>
      <trkpt lat="47.64182" lon="16.6496">
        <ele>171.458098</ele>
        <time>2022-08-07T08:02:25.881Z</time>
      </trkpt>
      <trkpt lat="47.64219" lon="16.65019">
        <ele>171.694811</ele>
        <time>2022-08-07T08:02:42.791Z</time>
      </trkpt>
      <trkpt lat="47.64228" lon="16.65034">
        <ele>171.756924</ele>
        <time>2022-08-07T08:02:47.285Z</time>
      </trkpt>
      <trkpt lat="47.64236" lon="16.65048">
        <ele>171.8393</ele>
        <time>2022-08-07T08:02:51.059Z</time>
      </trkpt>
      <trkpt lat="47.64251" lon="16.65054">
        <ele>171.948228</ele>
        <time>2022-08-07T08:02:56.259Z</time>
      </trkpt>
      <trkpt lat="47.64293" lon="16.65143">
        <ele>172.475753</ele>
        <time>2022-08-07T08:03:19.876Z</time>
      </trkpt>
      <trkpt lat="47.6432" lon="16.65238">
        <ele>172.976305</ele>
        <time>2022-08-07T08:03:41.738Z</time>
      </trkpt>
      <trkpt lat="47.64305" lon="16.65295">
        <ele>173.069689</ele>
        <time>2022-08-07T08:03:53.868Z</time>
      </trkpt>
      <trkpt lat="47.64167" lon="16.65677">
        <ele>172.957262</ele>
        <time>2022-08-07T08:05:13.576Z</time>
      </trkpt>
      <trkpt lat="47.64034" lon="16.66025">
        <ele>172.712114</ele>
        <time>2022-08-07T08:06:25.840Z</time>
      </trkpt>
      <trkpt lat="47.64006" lon="16.66099">
        <ele>172.893173</ele>
        <time>2022-08-07T08:06:43.300Z</time>
      </trkpt>
      <trkpt lat="47.64008" lon="16.66106">
        <ele>172.910739</ele>
        <time>2022-08-07T08:06:45.056Z</time>
      </trkpt>
      <trkpt lat="47.64014" lon="16.66109">
        <ele>172.930335</ele>
        <time>2022-08-07T08:06:46.899Z</time>
      </trkpt>
      <trkpt lat="47.64014" lon="16.66111">
        <ele>172.934623</ele>
        <time>2022-08-07T08:06:47.292Z</time>
      </trkpt>
      <trkpt lat="47.64027" lon="16.66137">
        <ele>173.004116</ele>
        <time>2022-08-07T08:06:53.847Z</time>
      </trkpt>
      <trkpt lat="47.64045" lon="16.66155">
        <ele>173.071151</ele>
        <time>2022-08-07T08:07:00.018Z</time>
      </trkpt>
      <trkpt lat="47.64061" lon="16.66173">
        <ele>173.100224</ele>
        <time>2022-08-07T08:07:06.183Z</time>
      </trkpt>
      <trkpt lat="47.64113" lon="16.66229">
        <ele>172.924415</ele>
        <time>2022-08-07T08:07:24.936Z</time>
      </trkpt>
      <trkpt lat="47.64133" lon="16.6625">
        <ele>172.858887</ele>
        <time>2022-08-07T08:07:31.720Z</time>
      </trkpt>
      <trkpt lat="47.64148" lon="16.66276">
        <ele>172.795975</ele>
        <time>2022-08-07T08:07:38.249Z</time>
      </trkpt>
      <trkpt lat="47.64163" lon="16.66314">
        <ele>172.714573</ele>
        <time>2022-08-07T08:07:45.728Z</time>
      </trkpt>
      <trkpt lat="47.64211" lon="16.66482">
        <ele>170.392321</ele>
        <time>2022-08-07T08:08:11.246Z</time>
      </trkpt>
      <trkpt lat="47.6424" lon="16.66567">
        <ele>168.802206</ele>
        <time>2022-08-07T08:08:24.131Z</time>
      </trkpt>
      <trkpt lat="47.64203" lon="16.6661">
        <ele>167.449031</ele>
        <time>2022-08-07T08:08:33.427Z</time>
      </trkpt>
      <trkpt lat="47.64164" lon="16.66672">
        <ele>165.536241</ele>
        <time>2022-08-07T08:08:44.423Z</time>
      </trkpt>
      <trkpt lat="47.64144" lon="16.6672">
        <ele>164.236758</ele>
        <time>2022-08-07T08:08:51.901Z</time>
      </trkpt>
      <trkpt lat="47.64131" lon="16.66771">
        <ele>163.004223</ele>
        <time>2022-08-07T08:08:59.103Z</time>
      </trkpt>
      <trkpt lat="47.64119" lon="16.66877">
        <ele>159.944727</ele>
        <time>2022-08-07T08:09:12.991Z</time>
      </trkpt>
      <trkpt lat="47.64093" lon="16.67342">
        <ele>144.315019</ele>
        <time>2022-08-07T08:10:09.665Z</time>
      </trkpt>
      <trkpt lat="47.64065" lon="16.67494">
        <ele>139.55706</ele>
        <time>2022-08-07T08:10:28.841Z</time>
      </trkpt>
      <trkpt lat="47.64098" lon="16.67494">
        <ele>138.084839</ele>
        <time>2022-08-07T08:10:35.118Z</time>
      </trkpt>
      <trkpt lat="47.64115" lon="16.67484">
        <ele>137.271996</ele>
        <time>2022-08-07T08:10:38.500Z</time>
      </trkpt>
      <trkpt lat="47.64062" lon="16.67557">
        <ele>135.166802</ele>
        <time>2022-08-07T08:10:52.649Z</time>
      </trkpt>
      <trkpt lat="47.64033" lon="16.6772">
        <ele>132.560636</ele>
        <time>2022-08-07T08:11:16.444Z</time>
      </trkpt>
      <trkpt lat="47.64011" lon="16.67819">
        <ele>131.576427</ele>
        <time>2022-08-07T08:11:32.624Z</time>
      </trkpt>
      <trkpt lat="47.63998" lon="16.67897">
        <ele>130.954168</ele>
        <time>2022-08-07T08:11:44.697Z</time>
      </trkpt>
      <trkpt lat="47.6399" lon="16.68004">
        <ele>130.129305</ele>
        <time>2022-08-07T08:12:01.206Z</time>
      </trkpt>
      <trkpt lat="47.63925" lon="16.68276">
        <ele>129.716202</ele>
        <time>2022-08-07T08:12:51.060Z</time>
      </trkpt>
      <trkpt lat="47.63906" lon="16.68377">
        <ele>130.369764</ele>
        <time>2022-08-07T08:13:12.012Z</time>
      </trkpt>
      <trkpt lat="47.63825" lon="16.68875">
        <ele>135.401504</ele>
        <time>2022-08-07T08:15:09.443Z</time>
      </trkpt>
      <trkpt lat="47.6381" lon="16.68967">
        <ele>136.649478</ele>
        <time>2022-08-07T08:15:31.492Z</time>
      </trkpt>
      <trkpt lat="47.63774" lon="16.69114">
        <ele>138.957556</ele>
        <time>2022-08-07T08:16:14.320Z</time>
      </trkpt>
      <trkpt lat="47.63748" lon="16.69285">
        <ele>141.733295</ele>
        <time>2022-08-07T08:16:59.994Z</time>
      </trkpt>
      <trkpt lat="47.63698" lon="16.69557">
        <ele>141.868967</ele>
        <time>2022-08-07T08:17:55.204Z</time>
      </trkpt>
      <trkpt lat="47.63657" lon="16.69841">
        <ele>135.450411</ele>
        <time>2022-08-07T08:18:31.728Z</time>
      </trkpt>
      <trkpt lat="47.63651" lon="16.69889">
        <ele>134.75052</ele>
        <time>2022-08-07T08:18:37.966Z</time>
      </trkpt>
      <trkpt lat="47.63618" lon="16.70055">
        <ele>132.282091</ele>
        <time>2022-08-07T08:19:03.544Z</time>
      </trkpt>
      <trkpt lat="47.636" lon="16.70096">
        <ele>132.703732</ele>
        <time>2022-08-07T08:19:12.236Z</time>
      </trkpt>
      <trkpt lat="47.63595" lon="16.70131">
        <ele>133.128461</ele>
        <time>2022-08-07T08:19:20.368Z</time>
      </trkpt>
      <trkpt lat="47.63596" lon="16.70173">
        <ele>133.636383</ele>
        <time>2022-08-07T08:19:30.558Z</time>
      </trkpt>
      <trkpt lat="47.63588" lon="16.70285">
        <ele>134.976944</ele>
        <time>2022-08-07T08:20:02.684Z</time>
      </trkpt>
      <trkpt lat="47.63577" lon="16.70347">
        <ele>135.535078</ele>
        <time>2022-08-07T08:20:19.411Z</time>
      </trkpt>
      <trkpt lat="47.6356" lon="16.70478">
        <ele>136.255281</ele>
        <time>2022-08-07T08:20:47.743Z</time>
      </trkpt>
      <trkpt lat="47.63554" lon="16.70558">
        <ele>136.691111</ele>
        <time>2022-08-07T08:21:02.654Z</time>
      </trkpt>
      <trkpt lat="47.6351" lon="16.70793">
        <ele>135.71444</ele>
        <time>2022-08-07T08:21:40.850Z</time>
      </trkpt>
      <trkpt lat="47.63473" lon="16.71209">
        <ele>133.942721</ele>
        <time>2022-08-07T08:22:50.499Z</time>
      </trkpt>
      <trkpt lat="47.63446" lon="16.71341">
        <ele>133.159098</ele>
        <time>2022-08-07T08:23:11.829Z</time>
      </trkpt>
      <trkpt lat="47.63427" lon="16.7148">
        <ele>133.01374</ele>
        <time>2022-08-07T08:23:34.194Z</time>
      </trkpt>
      <trkpt lat="47.63385" lon="16.71712">
        <ele>133.728777</ele>
        <time>2022-08-07T08:24:23.023Z</time>
      </trkpt>
      <trkpt lat="47.63322" lon="16.71969">
        <ele>135.529101</ele>
        <time>2022-08-07T08:25:25.119Z</time>
      </trkpt>
      <trkpt lat="47.63314" lon="16.72007">
        <ele>135.698562</ele>
        <time>2022-08-07T08:25:33.112Z</time>
      </trkpt>
      <trkpt lat="47.63303" lon="16.72056">
        <ele>135.919846</ele>
        <time>2022-08-07T08:25:42.947Z</time>
      </trkpt>
      <trkpt lat="47.63279" lon="16.72155">
        <ele>136.233085</ele>
        <time>2022-08-07T08:26:01.035Z</time>
      </trkpt>
      <trkpt lat="47.63252" lon="16.72361">
        <ele>136.170643</ele>
        <time>2022-08-07T08:26:37.203Z</time>
      </trkpt>
      <trkpt lat="47.63218" lon="16.72499">
        <ele>136.600594</ele>
        <time>2022-08-07T08:27:06.938Z</time>
      </trkpt>
      <trkpt lat="47.63213" lon="16.72527">
        <ele>136.710311</ele>
        <time>2022-08-07T08:27:13.528Z</time>
      </trkpt>
      <trkpt lat="47.63187" lon="16.7276">
        <ele>136.918477</ele>
        <time>2022-08-07T08:27:59.181Z</time>
      </trkpt>
      <trkpt lat="47.63168" lon="16.72843">
        <ele>136.752417</ele>
        <time>2022-08-07T08:28:13.135Z</time>
      </trkpt>
      <trkpt lat="47.6315" lon="16.72902">
        <ele>136.615295</ele>
        <time>2022-08-07T08:28:23.397Z</time>
      </trkpt>
      <trkpt lat="47.63091" lon="16.73058">
        <ele>135.563986</ele>
        <time>2022-08-07T08:28:51.751Z</time>
      </trkpt>
      <trkpt lat="47.63051" lon="16.73205">
        <ele>134.517842</ele>
        <time>2022-08-07T08:29:16.678Z</time>
      </trkpt>
      <trkpt lat="47.63042" lon="16.7324">
        <ele>134.240623</ele>
        <time>2022-08-07T08:29:22.493Z</time>
      </trkpt>
      <trkpt lat="47.63017" lon="16.73349">
        <ele>133.384987</ele>
        <time>2022-08-07T08:29:40.189Z</time>
      </trkpt>
      <trkpt lat="47.62991" lon="16.73438">
        <ele>132.507879</ele>
        <time>2022-08-07T08:29:54.782Z</time>
      </trkpt>
      <trkpt lat="47.6288" lon="16.73677">
        <ele>129.553889</ele>
        <time>2022-08-07T08:30:37.593Z</time>
      </trkpt>
      <trkpt lat="47.62856" lon="16.73746">
        <ele>128.782557</ele>
        <time>2022-08-07T08:30:48.950Z</time>
      </trkpt>
      <trkpt lat="47.62815" lon="16.73849">
        <ele>127.686874</ele>
        <time>2022-08-07T08:31:06.834Z</time>
      </trkpt>
      <trkpt lat="47.62768" lon="16.73952">
        <ele>127.521162</ele>
        <time>2022-08-07T08:31:33.464Z</time>
      </trkpt>
      <trkpt lat="47.62716" lon="16.74067">
        <ele>127.36871</ele>
        <time>2022-08-07T08:32:08.762Z</time>
      </trkpt>
      <trkpt lat="47.62708" lon="16.74103">
        <ele>127.50969</ele>
        <time>2022-08-07T08:32:18.707Z</time>
      </trkpt>
      <trkpt lat="47.62697" lon="16.74128">
        <ele>127.619622</ele>
        <time>2022-08-07T08:32:25.164Z</time>
      </trkpt>
      <trkpt lat="47.6269" lon="16.74139">
        <ele>127.674807</ele>
        <time>2022-08-07T08:32:28.345Z</time>
      </trkpt>
      <trkpt lat="47.62657" lon="16.74186">
        <ele>127.927428</ele>
        <time>2022-08-07T08:32:43.198Z</time>
      </trkpt>
      <trkpt lat="47.62565" lon="16.7438">
        <ele>127.751068</ele>
        <time>2022-08-07T08:33:29.205Z</time>
      </trkpt>
      <trkpt lat="47.62537" lon="16.7448">
        <ele>127.253432</ele>
        <time>2022-08-07T08:33:46.348Z</time>
      </trkpt>
      <trkpt lat="47.62537" lon="16.74496">
        <ele>127.180274</ele>
        <time>2022-08-07T08:33:48.560Z</time>
      </trkpt>
      <trkpt lat="47.62502" lon="16.74667">
        <ele>125.787849</ele>
        <time>2022-08-07T08:34:16.297Z</time>
      </trkpt>
      <trkpt lat="47.62496" lon="16.74705">
        <ele>125.467755</ele>
        <time>2022-08-07T08:34:22.050Z</time>
      </trkpt>
      <trkpt lat="47.62459" lon="16.74794">
        <ele>124.959918</ele>
        <time>2022-08-07T08:34:39.629Z</time>
      </trkpt>
      <trkpt lat="47.62403" lon="16.74869">
        <ele>125.001746</ele>
        <time>2022-08-07T08:35:00.065Z</time>
      </trkpt>
      <trkpt lat="47.6236" lon="16.74948">
        <ele>125.039185</ele>
        <time>2022-08-07T08:35:19.591Z</time>
      </trkpt>
      <trkpt lat="47.62318" lon="16.75135">
        <ele>125.413287</ele>
        <time>2022-08-07T08:35:57.776Z</time>
      </trkpt>
      <trkpt lat="47.62257" lon="16.75269">
        <ele>125.502798</ele>
        <time>2022-08-07T08:36:26.931Z</time>
      </trkpt>
      <trkpt lat="47.62216" lon="16.75497">
        <ele>125.13379</ele>
        <time>2022-08-07T08:37:07.935Z</time>
      </trkpt>
      <trkpt lat="47.62192" lon="16.75667">
        <ele>124.43823</ele>
        <time>2022-08-07T08:37:36.467Z</time>
      </trkpt>
      <trkpt lat="47.62135" lon="16.75858">
        <ele>123.583873</ele>
        <time>2022-08-07T08:38:09.216Z</time>
      </trkpt>
      <trkpt lat="47.62124" lon="16.75908">
        <ele>123.369359</ele>
        <time>2022-08-07T08:38:17.591Z</time>
      </trkpt>
      <trkpt lat="47.62109" lon="16.76087">
        <ele>123.655834</ele>
        <time>2022-08-07T08:38:51.575Z</time>
      </trkpt>
      <trkpt lat="47.62093" lon="16.76246">
        <ele>124.226811</ele>
        <time>2022-08-07T08:39:27.296Z</time>
      </trkpt>
      <trkpt lat="47.62078" lon="16.76432">
        <ele>124.602111</ele>
        <time>2022-08-07T08:40:15.301Z</time>
      </trkpt>
      <trkpt lat="47.62083" lon="16.76518">
        <ele>124.486502</ele>
        <time>2022-08-07T08:40:33.798Z</time>
      </trkpt>
      <trkpt lat="47.62076" lon="16.76559">
        <ele>124.172476</ele>
        <time>2022-08-07T08:40:42.636Z</time>
      </trkpt>
      <trkpt lat="47.62075" lon="16.76583">
        <ele>123.998413</ele>
        <time>2022-08-07T08:40:47.404Z</time>
      </trkpt>
      <trkpt lat="47.62084" lon="16.7665">
        <ele>123.489759</ele>
        <time>2022-08-07T08:41:01.617Z</time>
      </trkpt>
      <trkpt lat="47.62099" lon="16.76738">
        <ele>122.816994</ele>
        <time>2022-08-07T08:41:20.214Z</time>
      </trkpt>
      <trkpt lat="47.62109" lon="16.76845">
        <ele>122.469474</ele>
        <time>2022-08-07T08:41:43.006Z</time>
      </trkpt>
      <trkpt lat="47.62115" lon="16.77137">
        <ele>122.344179</ele>
        <time>2022-08-07T08:42:52.460Z</time>
      </trkpt>
      <trkpt lat="47.62118" lon="16.77244">
        <ele>122.642154</ele>
        <time>2022-08-07T08:43:20.033Z</time>
      </trkpt>
      <trkpt lat="47.62127" lon="16.77357">
        <ele>123.100287</ele>
        <time>2022-08-07T08:43:50.091Z</time>
      </trkpt>
      <trkpt lat="47.62143" lon="16.77456">
        <ele>123.569656</ele>
        <time>2022-08-07T08:44:17.032Z</time>
      </trkpt>
      <trkpt lat="47.62163" lon="16.77603">
        <ele>124.000733</ele>
        <time>2022-08-07T08:44:54.649Z</time>
      </trkpt>
      <trkpt lat="47.62159" lon="16.77609">
        <ele>124.004698</ele>
        <time>2022-08-07T08:44:57.061Z</time>
      </trkpt>
      <trkpt lat="47.62147" lon="16.77623">
        <ele>124.013699</ele>
        <time>2022-08-07T08:45:01.093Z</time>
      </trkpt>
      <trkpt lat="47.62154" lon="16.77651">
        <ele>124.026174</ele>
        <time>2022-08-07T08:45:06.602Z</time>
      </trkpt>
      <trkpt lat="47.62165" lon="16.77785">
        <ele>124.082229</ele>
        <time>2022-08-07T08:45:30.319Z</time>
      </trkpt>
      <trkpt lat="47.6215" lon="16.77982">
        <ele>123.512175</ele>
        <time>2022-08-07T08:46:03.271Z</time>
      </trkpt>
      <trkpt lat="47.62147" lon="16.78142">
        <ele>123.21135</ele>
        <time>2022-08-07T08:46:30.137Z</time>
      </trkpt>
      <trkpt lat="47.62152" lon="16.78348">
        <ele>123.120836</ele>
        <time>2022-08-07T08:47:07.018Z</time>
      </trkpt>
      <trkpt lat="47.62137" lon="16.78479">
        <ele>123.435072</ele>
        <time>2022-08-07T08:47:33.050Z</time>
      </trkpt>
      <trkpt lat="47.62136" lon="16.78489">
        <ele>123.459732</ele>
        <time>2022-08-07T08:47:35.099Z</time>
      </trkpt>
      <trkpt lat="47.62135" lon="16.78515">
        <ele>123.52112</ele>
        <time>2022-08-07T08:47:40.287Z</time>
      </trkpt>
      <trkpt lat="47.62135" lon="16.7854">
        <ele>123.580344</ele>
        <time>2022-08-07T08:47:45.178Z</time>
      </trkpt>
      <trkpt lat="47.62133" lon="16.78585">
        <ele>123.685349</ele>
        <time>2022-08-07T08:47:53.757Z</time>
      </trkpt>
      <trkpt lat="47.6213" lon="16.78605">
        <ele>123.697416</ele>
        <time>2022-08-07T08:47:57.640Z</time>
      </trkpt>
      <trkpt lat="47.6213" lon="16.78637">
        <ele>123.690334</ele>
        <time>2022-08-07T08:48:03.589Z</time>
      </trkpt>
      <trkpt lat="47.62131" lon="16.78647">
        <ele>123.688211</ele>
        <time>2022-08-07T08:48:05.333Z</time>
      </trkpt>
      <trkpt lat="47.62131" lon="16.78652">
        <ele>123.687029</ele>
        <time>2022-08-07T08:48:06.306Z</time>
      </trkpt>
      <trkpt lat="47.6213" lon="16.78664">
        <ele>123.684549</ele>
        <time>2022-08-07T08:48:08.327Z</time>
      </trkpt>
      <trkpt lat="47.62129" lon="16.78675">
        <ele>123.681993</ele>
        <time>2022-08-07T08:48:10.401Z</time>
      </trkpt>
      <trkpt lat="47.62125" lon="16.78762">
        <ele>123.663002</ele>
        <time>2022-08-07T08:48:25.274Z</time>
      </trkpt>
      <trkpt lat="47.62123" lon="16.78811">
        <ele>123.652213</ele>
        <time>2022-08-07T08:48:34.062Z</time>
      </trkpt>
      <trkpt lat="47.62119" lon="16.78843">
        <ele>123.645068</ele>
        <time>2022-08-07T08:48:39.992Z</time>
      </trkpt>
      <trkpt lat="47.62121" lon="16.78936">
        <ele>123.568965</ele>
        <time>2022-08-07T08:48:56.503Z</time>
      </trkpt>
      <trkpt lat="47.6213" lon="16.79001">
        <ele>123.508244</ele>
        <time>2022-08-07T08:49:07.903Z</time>
      </trkpt>
      <trkpt lat="47.62128" lon="16.79046">
        <ele>123.467319</ele>
        <time>2022-08-07T08:49:15.678Z</time>
      </trkpt>
      <trkpt lat="47.62149" lon="16.79123">
        <ele>123.391131</ele>
        <time>2022-08-07T08:49:35.093Z</time>
      </trkpt>
      <trkpt lat="47.62163" lon="16.79153">
        <ele>123.355668</ele>
        <time>2022-08-07T08:49:43.908Z</time>
      </trkpt>
      <trkpt lat="47.62202" lon="16.79335">
        <ele>123.172712</ele>
        <time>2022-08-07T08:50:28.318Z</time>
      </trkpt>
      <trkpt lat="47.6221" lon="16.79424">
        <ele>123.029538</ele>
        <time>2022-08-07T08:50:48.867Z</time>
      </trkpt>
      <trkpt lat="47.6221" lon="16.79486">
        <ele>122.909488</ele>
        <time>2022-08-07T08:51:03.105Z</time>
      </trkpt>
      <trkpt lat="47.62208" lon="16.79502">
        <ele>122.878429</ele>
        <time>2022-08-07T08:51:06.840Z</time>
      </trkpt>
      <trkpt lat="47.62205" lon="16.79513">
        <ele>122.855163</ele>
        <time>2022-08-07T08:51:09.620Z</time>
      </trkpt>
      <trkpt lat="47.62204" lon="16.79519">
        <ele>122.844153</ele>
        <time>2022-08-07T08:51:10.886Z</time>
      </trkpt>
      <trkpt lat="47.62199" lon="16.79559">
        <ele>122.765211</ele>
        <time>2022-08-07T08:51:20.314Z</time>
      </trkpt>
      <trkpt lat="47.62204" lon="16.79561">
        <ele>122.751516</ele>
        <time>2022-08-07T08:51:21.962Z</time>
      </trkpt>
      <trkpt lat="47.62209" lon="16.79564">
        <ele>122.735898</ele>
        <time>2022-08-07T08:51:23.746Z</time>
      </trkpt>
      <trkpt lat="47.6219" lon="16.79741">
        <ele>122.267805</ele>
        <time>2022-08-07T08:52:04.107Z</time>
      </trkpt>
      <trkpt lat="47.62186" lon="16.7977">
        <ele>122.183115</ele>
        <time>2022-08-07T08:52:10.507Z</time>
      </trkpt>
      <trkpt lat="47.62178" lon="16.79789">
        <ele>122.118047</ele>
        <time>2022-08-07T08:52:15.304Z</time>
      </trkpt>
      <trkpt lat="47.62157" lon="16.79849">
        <ele>121.917105</ele>
        <time>2022-08-07T08:52:30.425Z</time>
      </trkpt>
      <trkpt lat="47.62149" lon="16.79888">
        <ele>121.870956</ele>
        <time>2022-08-07T08:52:39.404Z</time>
      </trkpt>
      <trkpt lat="47.62128" lon="16.79997">
        <ele>122.064421</ele>
        <time>2022-08-07T08:53:06.165Z</time>
      </trkpt>
      <trkpt lat="47.6211" lon="16.80064">
        <ele>122.187353</ele>
        <time>2022-08-07T08:53:24.317Z</time>
      </trkpt>
      <trkpt lat="47.62065" lon="16.80145">
        <ele>122.620378</ele>
        <time>2022-08-07T08:53:51.633Z</time>
      </trkpt>
      <trkpt lat="47.61994" lon="16.80246">
        <ele>123.82953</ele>
        <time>2022-08-07T08:54:23.978Z</time>
      </trkpt>
      <trkpt lat="47.61979" lon="16.80282">
        <ele>124.171696</ele>
        <time>2022-08-07T08:54:33.303Z</time>
      </trkpt>
      <trkpt lat="47.61966" lon="16.80325">
        <ele>124.585487</ele>
        <time>2022-08-07T08:54:43.969Z</time>
      </trkpt>
      <trkpt lat="47.61885" lon="16.80728">
        <ele>129.628957</ele>
        <time>2022-08-07T08:56:21.961Z</time>
      </trkpt>
      <trkpt lat="47.61853" lon="16.8089">
        <ele>132.198659</ele>
        <time>2022-08-07T08:57:06.904Z</time>
      </trkpt>
      <trkpt lat="47.61774" lon="16.81112">
        <ele>136.425103</ele>
        <time>2022-08-07T08:58:13.488Z</time>
      </trkpt>
      <trkpt lat="47.6175" lon="16.81211">
        <ele>137.845551</ele>
        <time>2022-08-07T08:58:39.424Z</time>
      </trkpt>
      <trkpt lat="47.6172" lon="16.81473">
        <ele>140.996639</ele>
        <time>2022-08-07T08:59:41.752Z</time>
      </trkpt>
      <trkpt lat="47.61705" lon="16.81662">
        <ele>142.442623</ele>
        <time>2022-08-07T09:00:24.753Z</time>
      </trkpt>
      <trkpt lat="47.61688" lon="16.81778">
        <ele>142.811299</ele>
        <time>2022-08-07T09:00:48.441Z</time>
      </trkpt>
      <trkpt lat="47.61614" lon="16.82224">
        <ele>140.756318</ele>
        <time>2022-08-07T09:02:02.027Z</time>
      </trkpt>
      <trkpt lat="47.61582" lon="16.82377">
        <ele>139.518262</ele>
        <time>2022-08-07T09:02:26.162Z</time>
      </trkpt>
      <trkpt lat="47.6158" lon="16.82488">
        <ele>138.313559</ele>
        <time>2022-08-07T09:02:42.629Z</time>
      </trkpt>
      <trkpt lat="47.61589" lon="16.82751">
        <ele>135.435353</ele>
        <time>2022-08-07T09:03:20.901Z</time>
      </trkpt>
      <trkpt lat="47.61599" lon="16.82763">
        <ele>135.215142</ele>
        <time>2022-08-07T09:03:23.752Z</time>
      </trkpt>
      <trkpt lat="47.61703" lon="16.82895">
        <ele>133.361031</ele>
        <time>2022-08-07T09:03:53.565Z</time>
      </trkpt>
      <trkpt lat="47.61804" lon="16.83025">
        <ele>132.294947</ele>
        <time>2022-08-07T09:04:25.290Z</time>
      </trkpt>
      <trkpt lat="47.61656" lon="16.83243">
        <ele>133.639679</ele>
        <time>2022-08-07T09:05:29.696Z</time>
      </trkpt>
      <trkpt lat="47.61729" lon="16.83421">
        <ele>134.605114</ele>
        <time>2022-08-07T09:06:12.960Z</time>
      </trkpt>
      <trkpt lat="47.61774" lon="16.83537">
        <ele>133.520969</ele>
        <time>2022-08-07T09:06:35.482Z</time>
      </trkpt>
      <trkpt lat="47.61775" lon="16.83552">
        <ele>133.383617</ele>
        <time>2022-08-07T09:06:37.627Z</time>
      </trkpt>
      <trkpt lat="47.6174" lon="16.83651">
        <ele>132.37987</ele>
        <time>2022-08-07T09:06:53.031Z</time>
      </trkpt>
      <trkpt lat="47.61715" lon="16.83729">
        <ele>131.066653</ele>
        <time>2022-08-07T09:07:04.765Z</time>
      </trkpt>
      <trkpt lat="47.61705" lon="16.83786">
        <ele>130.092703</ele>
        <time>2022-08-07T09:07:12.690Z</time>
      </trkpt>
      <trkpt lat="47.61707" lon="16.83831">
        <ele>129.360153</ele>
        <time>2022-08-07T09:07:18.687Z</time>
      </trkpt>
      <trkpt lat="47.61728" lon="16.84088">
        <ele>126.404399</ele>
        <time>2022-08-07T09:07:55.783Z</time>
      </trkpt>
      <trkpt lat="47.61732" lon="16.84122">
        <ele>126.102296</ele>
        <time>2022-08-07T09:08:01.502Z</time>
      </trkpt>
      <trkpt lat="47.61739" lon="16.84182">
        <ele>125.583792</ele>
        <time>2022-08-07T09:08:11.741Z</time>
      </trkpt>
      <trkpt lat="47.6174" lon="16.84194">
        <ele>125.548302</ele>
        <time>2022-08-07T09:08:13.881Z</time>
      </trkpt>
      <trkpt lat="47.61807" lon="16.84867">
        <ele>126.09773</ele>
        <time>2022-08-07T09:10:20.988Z</time>
      </trkpt>
      <trkpt lat="47.61827" lon="16.85051">
        <ele>125.892381</ele>
        <time>2022-08-07T09:10:52.975Z</time>
      </trkpt>
      <trkpt lat="47.61832" lon="16.85097">
        <ele>125.759403</ele>
        <time>2022-08-07T09:11:00.862Z</time>
      </trkpt>
      <trkpt lat="47.6184" lon="16.85174">
        <ele>125.541315</ele>
        <time>2022-08-07T09:11:13.668Z</time>
      </trkpt>
      <trkpt lat="47.61875" lon="16.85536">
        <ele>124.446937</ele>
        <time>2022-08-07T09:12:14.347Z</time>
      </trkpt>
      <trkpt lat="47.61877" lon="16.85548">
        <ele>124.435574</ele>
        <time>2022-08-07T09:12:16.528Z</time>
      </trkpt>
      <trkpt lat="47.6191" lon="16.85889">
        <ele>124.316062</ele>
        <time>2022-08-07T09:13:18.158Z</time>
      </trkpt>
      <trkpt lat="47.61915" lon="16.8594">
        <ele>124.351239</ele>
        <time>2022-08-07T09:13:27.871Z</time>
      </trkpt>
      <trkpt lat="47.61955" lon="16.86342">
        <ele>124.761534</ele>
        <time>2022-08-07T09:14:43.098Z</time>
      </trkpt>
      <trkpt lat="47.61954" lon="16.86355">
        <ele>124.763168</ele>
        <time>2022-08-07T09:14:45.565Z</time>
      </trkpt>
      <trkpt lat="47.6195" lon="16.86372">
        <ele>124.765406</ele>
        <time>2022-08-07T09:14:49.171Z</time>
      </trkpt>
      <trkpt lat="47.61951" lon="16.8639">
        <ele>124.767599</ele>
        <time>2022-08-07T09:14:52.747Z</time>
      </trkpt>
      <trkpt lat="47.61964" lon="16.86468">
        <ele>124.777573</ele>
        <time>2022-08-07T09:15:07.830Z</time>
      </trkpt>
      <trkpt lat="47.61977" lon="16.86506">
        <ele>124.782806</ele>
        <time>2022-08-07T09:15:15.235Z</time>
      </trkpt>
      <trkpt lat="47.61991" lon="16.86542">
        <ele>124.787932</ele>
        <time>2022-08-07T09:15:22.348Z</time>
      </trkpt>
      <trkpt lat="47.62002" lon="16.86575">
        <ele>124.650785</ele>
        <time>2022-08-07T09:15:28.344Z</time>
      </trkpt>
      <trkpt lat="47.62007" lon="16.86588">
        <ele>124.57398</ele>
        <time>2022-08-07T09:15:31.048Z</time>
      </trkpt>
      <trkpt lat="47.62028" lon="16.8657">
        <ele>124.39642</ele>
        <time>2022-08-07T09:15:36.918Z</time>
      </trkpt>
      <trkpt lat="47.62037" lon="16.86567">
        <ele>124.333914</ele>
        <time>2022-08-07T09:15:39.057Z</time>
      </trkpt>
      <trkpt lat="47.62104" lon="16.86573">
        <ele>123.839326</ele>
        <time>2022-08-07T09:15:55.006Z</time>
      </trkpt>
      <trkpt lat="47.62256" lon="16.86583">
        <ele>123.068763</ele>
        <time>2022-08-07T09:16:30.844Z</time>
      </trkpt>
      <trkpt lat="47.6227" lon="16.86582">
        <ele>123.012213</ele>
        <time>2022-08-07T09:16:34.649Z</time>
      </trkpt>
      <trkpt lat="47.6231" lon="16.86554">
        <ele>122.83694</ele>
        <time>2022-08-07T09:16:46.630Z</time>
      </trkpt>
      <trkpt lat="47.6238" lon="16.8649">
        <ele>122.926126</ele>
        <time>2022-08-07T09:17:09.662Z</time>
      </trkpt>
      <trkpt lat="47.62468" lon="16.86411">
        <ele>123.199305</ele>
        <time>2022-08-07T09:17:38.986Z</time>
      </trkpt>
      <trkpt lat="47.6254" lon="16.86347">
        <ele>123.159725</ele>
        <time>2022-08-07T09:18:01.206Z</time>
      </trkpt>
      <trkpt lat="47.62866" lon="16.86055">
        <ele>122.298841</ele>
        <time>2022-08-07T09:19:40.212Z</time>
      </trkpt>
      <trkpt lat="47.62893" lon="16.86047">
        <ele>122.134451</ele>
        <time>2022-08-07T09:19:46.681Z</time>
      </trkpt>
      <trkpt lat="47.63097" lon="16.86048">
        <ele>120.196125</ele>
        <time>2022-08-07T09:20:33.026Z</time>
      </trkpt>
      <trkpt lat="47.63117" lon="16.86048">
        <ele>119.977938</ele>
        <time>2022-08-07T09:20:37.611Z</time>
      </trkpt>
      <trkpt lat="47.63196" lon="16.86047">
        <ele>119.497614</ele>
        <time>2022-08-07T09:20:56.275Z</time>
      </trkpt>
      <trkpt lat="47.63213" lon="16.86046">
        <ele>119.419937</ele>
        <time>2022-08-07T09:21:00.371Z</time>
      </trkpt>
      <trkpt lat="47.63246" lon="16.86043">
        <ele>119.269016</ele>
        <time>2022-08-07T09:21:08.615Z</time>
      </trkpt>
      <trkpt lat="47.6332" lon="16.86029">
        <ele>118.9605</ele>
        <time>2022-08-07T09:21:28.299Z</time>
      </trkpt>
      <trkpt lat="47.63345" lon="16.86026">
        <ele>118.991398</ele>
        <time>2022-08-07T09:21:35.034Z</time>
      </trkpt>
      <trkpt lat="47.63405" lon="16.86017">
        <ele>119.066497</ele>
        <time>2022-08-07T09:21:51.757Z</time>
      </trkpt>
      <trkpt lat="47.63422" lon="16.86031">
        <ele>119.090657</ele>
        <time>2022-08-07T09:21:57.228Z</time>
      </trkpt>
      <trkpt lat="47.63435" lon="16.86058">
        <ele>119.117927</ele>
        <time>2022-08-07T09:22:03.477Z</time>
      </trkpt>
      <trkpt lat="47.63542" lon="16.86376">
        <ele>118.988668</ele>
        <time>2022-08-07T09:23:07.669Z</time>
      </trkpt>
      <trkpt lat="47.63554" lon="16.86399">
        <ele>118.85613</ele>
        <time>2022-08-07T09:23:12.442Z</time>
      </trkpt>
      <trkpt lat="47.63561" lon="16.86402">
        <ele>118.807576</ele>
        <time>2022-08-07T09:23:14.111Z</time>
      </trkpt>
      <trkpt lat="47.63623" lon="16.86371">
        <ele>118.362007</ele>
        <time>2022-08-07T09:23:29.606Z</time>
      </trkpt>
      <trkpt lat="47.63667" lon="16.86348">
        <ele>118.046342</ele>
        <time>2022-08-07T09:23:40.371Z</time>
      </trkpt>
      <trkpt lat="47.63781" lon="16.8629">
        <ele>117.435986</ele>
        <time>2022-08-07T09:24:09.224Z</time>
      </trkpt>
      <trkpt lat="47.63843" lon="16.86262">
        <ele>117.140207</ele>
        <time>2022-08-07T09:24:25.918Z</time>
      </trkpt>
      <trkpt lat="47.63888" lon="16.86256">
        <ele>117.023293</ele>
        <time>2022-08-07T09:24:37.804Z</time>
      </trkpt>
      <trkpt lat="47.6397" lon="16.86261">
        <ele>116.965482</ele>
        <time>2022-08-07T09:24:59.815Z</time>
      </trkpt>
      <trkpt lat="47.64065" lon="16.8626">
        <ele>116.881662</ele>
        <time>2022-08-07T09:25:24.564Z</time>
      </trkpt>
      <trkpt lat="47.64427" lon="16.8619">
        <ele>116.249407</ele>
        <time>2022-08-07T09:26:59.027Z</time>
      </trkpt>
      <trkpt lat="47.64527" lon="16.8617">
        <ele>115.941321</ele>
        <time>2022-08-07T09:27:24.796Z</time>
      </trkpt>
      <trkpt lat="47.64697" lon="16.86132">
        <ele>115.328567</ele>
        <time>2022-08-07T09:28:08.043Z</time>
      </trkpt>
      <trkpt lat="47.64729" lon="16.86112">
        <ele>115.197413</ele>
        <time>2022-08-07T09:28:16.682Z</time>
      </trkpt>
      <trkpt lat="47.64774" lon="16.86072">
        <ele>115.025482</ele>
        <time>2022-08-07T09:28:29.789Z</time>
      </trkpt>
      <trkpt lat="47.64831" lon="16.86042">
        <ele>114.856525</ele>
        <time>2022-08-07T09:28:45.098Z</time>
      </trkpt>
      <trkpt lat="47.65061" lon="16.86019">
        <ele>114.487757</ele>
        <time>2022-08-07T09:29:44.464Z</time>
      </trkpt>
      <trkpt lat="47.65284" lon="16.85865">
        <ele>114.969871</ele>
        <time>2022-08-07T09:30:53.556Z</time>
      </trkpt>
      <trkpt lat="47.65532" lon="16.85717">
        <ele>115.404722</ele>
        <time>2022-08-07T09:32:07.135Z</time>
      </trkpt>
      <trkpt lat="47.65555" lon="16.8571">
        <ele>115.428968</ele>
        <time>2022-08-07T09:32:13.561Z</time>
      </trkpt>
      <trkpt lat="47.65618" lon="16.85713">
        <ele>115.45214</ele>
        <time>2022-08-07T09:32:30.112Z</time>
      </trkpt>
      <trkpt lat="47.65806" lon="16.85758">
        <ele>115.181724</ele>
        <time>2022-08-07T09:33:19.758Z</time>
      </trkpt>
      <trkpt lat="47.65862" lon="16.85747">
        <ele>115.059072</ele>
        <time>2022-08-07T09:33:34.475Z</time>
      </trkpt>
      <trkpt lat="47.65899" lon="16.85723">
        <ele>114.970617</ele>
        <time>2022-08-07T09:33:45.030Z</time>
      </trkpt>
      <trkpt lat="47.66292" lon="16.85411">
        <ele>113.555455</ele>
        <time>2022-08-07T09:35:36.220Z</time>
      </trkpt>
      <trkpt lat="47.66559" lon="16.85198">
        <ele>115.12701</ele>
        <time>2022-08-07T09:37:05.917Z</time>
      </trkpt>
      <trkpt lat="47.66615" lon="16.85182">
        <ele>115.513633</ele>
        <time>2022-08-07T09:37:23.469Z</time>
      </trkpt>
      <trkpt lat="47.66706" lon="16.85185">
        <ele>116.145957</ele>
        <time>2022-08-07T09:37:51.060Z</time>
      </trkpt>
      <trkpt lat="47.66763" lon="16.85187">
        <ele>116.537959</ele>
        <time>2022-08-07T09:38:08.039Z</time>
      </trkpt>
      <trkpt lat="47.66921" lon="16.85197">
        <ele>117.078712</ele>
        <time>2022-08-07T09:38:53.539Z</time>
      </trkpt>
      <trkpt lat="47.67327" lon="16.85405">
        <ele>116.231743</ele>
        <time>2022-08-07T09:40:43.300Z</time>
      </trkpt>
      <trkpt lat="47.67337" lon="16.85403">
        <ele>116.214103</ele>
        <time>2022-08-07T09:40:45.796Z</time>
      </trkpt>
      <trkpt lat="47.67351" lon="16.85392">
        <ele>116.184166</ele>
        <time>2022-08-07T09:40:50.011Z</time>
      </trkpt>
      <trkpt lat="47.6757" lon="16.85129">
        <ele>115.778805</ele>
        <time>2022-08-07T09:42:03.651Z</time>
      </trkpt>
      <trkpt lat="47.6765" lon="16.85032">
        <ele>115.41457</ele>
        <time>2022-08-07T09:42:30.017Z</time>
      </trkpt>
      <trkpt lat="47.67782" lon="16.84875">
        <ele>114.487689</ele>
        <time>2022-08-07T09:43:11.535Z</time>
      </trkpt>
      <trkpt lat="47.67833" lon="16.84833">
        <ele>114.068745</ele>
        <time>2022-08-07T09:43:25.279Z</time>
      </trkpt>
      <trkpt lat="47.67846" lon="16.84825">
        <ele>113.969634</ele>
        <time>2022-08-07T09:43:28.466Z</time>
      </trkpt>
      <trkpt lat="47.67863" lon="16.84812">
        <ele>113.831719</ele>
        <time>2022-08-07T09:43:33.039Z</time>
      </trkpt>
      <trkpt lat="47.67873" lon="16.84805">
        <ele>113.750957</ele>
        <time>2022-08-07T09:43:35.587Z</time>
      </trkpt>
      <trkpt lat="47.6789" lon="16.84794">
        <ele>113.607548</ele>
        <time>2022-08-07T09:43:40.054Z</time>
      </trkpt>
      <trkpt lat="47.67913" lon="16.84769">
        <ele>113.39758</ele>
        <time>2022-08-07T09:43:46.602Z</time>
      </trkpt>
      <trkpt lat="47.67955" lon="16.84678">
        <ele>112.837623</ele>
        <time>2022-08-07T09:44:04.135Z</time>
      </trkpt>
      <trkpt lat="47.67968" lon="16.84654">
        <ele>112.680426</ele>
        <time>2022-08-07T09:44:09.140Z</time>
      </trkpt>
      <trkpt lat="47.68226" lon="16.84333">
        <ele>111.211308</ele>
        <time>2022-08-07T09:45:32.183Z</time>
      </trkpt>
      <trkpt lat="47.68904" lon="16.83492">
        <ele>113.470412</ele>
        <time>2022-08-07T09:49:40.093Z</time>
      </trkpt>
      <trkpt lat="47.68934" lon="16.83471">
        <ele>113.584909</ele>
        <time>2022-08-07T09:49:49.412Z</time>
      </trkpt>
      <trkpt lat="47.68948" lon="16.83477">
        <ele>113.637006</ele>
        <time>2022-08-07T09:49:53.627Z</time>
      </trkpt>
      <trkpt lat="47.69235" lon="16.83937">
        <ele>115.609144</ele>
        <time>2022-08-07T09:51:56.389Z</time>
      </trkpt>
      <trkpt lat="47.69242" lon="16.83952">
        <ele>115.643397</ele>
        <time>2022-08-07T09:52:00.128Z</time>
      </trkpt>
      <trkpt lat="47.69284" lon="16.84062">
        <ele>115.881836</ele>
        <time>2022-08-07T09:52:24.359Z</time>
      </trkpt>
      <trkpt lat="47.69333" lon="16.84215">
        <ele>115.717383</ele>
        <time>2022-08-07T09:52:53.876Z</time>
      </trkpt>
      <trkpt lat="47.69355" lon="16.84284">
        <ele>115.528943</ele>
        <time>2022-08-07T09:53:06.494Z</time>
      </trkpt>
      <trkpt lat="47.69358" lon="16.84295">
        <ele>115.500448</ele>
        <time>2022-08-07T09:53:08.382Z</time>
      </trkpt>
      <trkpt lat="47.69371" lon="16.84332">
        <ele>115.39831</ele>
        <time>2022-08-07T09:53:15.210Z</time>
      </trkpt>
      <trkpt lat="47.69378" lon="16.84354">
        <ele>115.338216</ele>
        <time>2022-08-07T09:53:19.261Z</time>
      </trkpt>
      <trkpt lat="47.6939" lon="16.84391">
        <ele>115.254578</ele>
        <time>2022-08-07T09:53:26.136Z</time>
      </trkpt>
      <trkpt lat="47.69404" lon="16.84433">
        <ele>115.161834</ele>
        <time>2022-08-07T09:53:33.917Z</time>
      </trkpt>
      <trkpt lat="47.69407" lon="16.84441">
        <ele>115.144963</ele>
        <time>2022-08-07T09:53:35.338Z</time>
      </trkpt>
      <trkpt lat="47.6941" lon="16.84448">
        <ele>115.128093</ele>
        <time>2022-08-07T09:53:36.815Z</time>
      </trkpt>
      <trkpt lat="47.69532" lon="16.84825">
        <ele>114.459367</ele>
        <time>2022-08-07T09:54:49.810Z</time>
      </trkpt>
      <trkpt lat="47.69584" lon="16.84984">
        <ele>114.161986</ele>
        <time>2022-08-07T09:55:19.775Z</time>
      </trkpt>
      <trkpt lat="47.69593" lon="16.8501">
        <ele>114.113102</ele>
        <time>2022-08-07T09:55:24.661Z</time>
      </trkpt>
      <trkpt lat="47.69598" lon="16.85025">
        <ele>114.083201</ele>
        <time>2022-08-07T09:55:27.616Z</time>
      </trkpt>
      <trkpt lat="47.69861" lon="16.85044">
        <ele>113.787623</ele>
        <time>2022-08-07T09:56:36.744Z</time>
      </trkpt>
      <trkpt lat="47.69938" lon="16.85054">
        <ele>113.713379</ele>
        <time>2022-08-07T09:56:57.190Z</time>
      </trkpt>
      <trkpt lat="47.70331" lon="16.85066">
        <ele>113.343321</ele>
        <time>2022-08-07T09:58:40.365Z</time>
      </trkpt>
      <trkpt lat="47.70368" lon="16.85077">
        <ele>113.30008</ele>
        <time>2022-08-07T09:58:49.974Z</time>
      </trkpt>
      <trkpt lat="47.70389" lon="16.85111">
        <ele>113.261824</ele>
        <time>2022-08-07T09:58:58.007Z</time>
      </trkpt>
      <trkpt lat="47.70679" lon="16.8569">
        <ele>112.75455</ele>
        <time>2022-08-07T10:01:05.251Z</time>
      </trkpt>
      <trkpt lat="47.70683" lon="16.85697">
        <ele>112.750589</ele>
        <time>2022-08-07T10:01:06.788Z</time>
      </trkpt>
      <trkpt lat="47.70782" lon="16.85894">
        <ele>112.844861</ele>
        <time>2022-08-07T10:01:52.247Z</time>
      </trkpt>
      <trkpt lat="47.70921" lon="16.86179">
        <ele>112.792316</ele>
        <time>2022-08-07T10:02:54.269Z</time>
      </trkpt>
      <trkpt lat="47.71291" lon="16.86906">
        <ele>113.551814</ele>
        <time>2022-08-07T10:05:41.837Z</time>
      </trkpt>
      <trkpt lat="47.713" lon="16.86919">
        <ele>113.574403</ele>
        <time>2022-08-07T10:05:45.433Z</time>
      </trkpt>
      <trkpt lat="47.71325" lon="16.86928">
        <ele>113.620028</ele>
        <time>2022-08-07T10:05:52.690Z</time>
      </trkpt>
      <trkpt lat="47.7139" lon="16.86923">
        <ele>113.692349</ele>
        <time>2022-08-07T10:06:10.782Z</time>
      </trkpt>
      <trkpt lat="47.72122" lon="16.86855">
        <ele>114.092813</ele>
        <time>2022-08-07T10:09:28.316Z</time>
      </trkpt>
      <trkpt lat="47.72147" lon="16.86862">
        <ele>114.100409</ele>
        <time>2022-08-07T10:09:35.015Z</time>
      </trkpt>
      <trkpt lat="47.72146" lon="16.86865">
        <ele>114.101014</ele>
        <time>2022-08-07T10:09:35.546Z</time>
      </trkpt>
      <trkpt lat="47.72136" lon="16.86883">
        <ele>114.105768</ele>
        <time>2022-08-07T10:09:39.756Z</time>
      </trkpt>
      <trkpt lat="47.7213" lon="16.86893">
        <ele>114.10842</ele>
        <time>2022-08-07T10:09:42.084Z</time>
      </trkpt>
      <trkpt lat="47.71973" lon="16.87172">
        <ele>114.179084</ele>
        <time>2022-08-07T10:10:47.889Z</time>
      </trkpt>
      <trkpt lat="47.71104" lon="16.88729">
        <ele>113.781007</ele>
        <time>2022-08-07T10:16:48.770Z</time>
      </trkpt>
      <trkpt lat="47.71099" lon="16.88737">
        <ele>113.784944</ele>
        <time>2022-08-07T10:16:50.860Z</time>
      </trkpt>
      <trkpt lat="47.7073" lon="16.89396">
        <ele>114.684928</ele>
        <time>2022-08-07T10:19:29.035Z</time>
      </trkpt>
      <trkpt lat="47.70416" lon="16.89976">
        <ele>116.652159</ele>
        <time>2022-08-07T10:21:51.426Z</time>
      </trkpt>
      <trkpt lat="47.70375" lon="16.90053">
        <ele>117.010838</ele>
        <time>2022-08-07T10:22:11.226Z</time>
      </trkpt>
      <trkpt lat="47.70298" lon="16.90192">
        <ele>118.108248</ele>
        <time>2022-08-07T10:22:48.633Z</time>
      </trkpt>
      <trkpt lat="47.70276" lon="16.90237">
        <ele>118.476543</ele>
        <time>2022-08-07T10:23:00.889Z</time>
      </trkpt>
      <trkpt lat="47.70257" lon="16.90274">
        <ele>118.779837</ele>
        <time>2022-08-07T10:23:11.114Z</time>
      </trkpt>
      <trkpt lat="47.70221" lon="16.90354">
        <ele>119.328813</ele>
        <time>2022-08-07T10:23:31.661Z</time>
      </trkpt>
      <trkpt lat="47.7017" lon="16.90479">
        <ele>120.144883</ele>
        <time>2022-08-07T10:24:01.970Z</time>
      </trkpt>
      <trkpt lat="47.70173" lon="16.90484">
        <ele>120.185876</ele>
        <time>2022-08-07T10:24:03.457Z</time>
      </trkpt>
      <trkpt lat="47.70136" lon="16.90567">
        <ele>120.336228</ele>
        <time>2022-08-07T10:24:22.608Z</time>
      </trkpt>
      <trkpt lat="47.70106" lon="16.90606">
        <ele>120.324705</ele>
        <time>2022-08-07T10:24:32.938Z</time>
      </trkpt>
      <trkpt lat="47.70097" lon="16.90618">
        <ele>120.321333</ele>
        <time>2022-08-07T10:24:35.891Z</time>
      </trkpt>
      <trkpt lat="47.70089" lon="16.90612">
        <ele>120.318627</ele>
        <time>2022-08-07T10:24:38.275Z</time>
      </trkpt>
      <trkpt lat="47.7008" lon="16.90625">
        <ele>120.315119</ele>
        <time>2022-08-07T10:24:41.273Z</time>
      </trkpt>
      <trkpt lat="47.70088" lon="16.9064">
        <ele>120.31139</ele>
        <time>2022-08-07T10:24:44.427Z</time>
      </trkpt>
      <trkpt lat="47.70099" lon="16.90632">
        <ele>120.307999</ele>
        <time>2022-08-07T10:24:47.258Z</time>
      </trkpt>
      <trkpt lat="47.70106" lon="16.90636">
        <ele>120.305631</ele>
        <time>2022-08-07T10:24:49.302Z</time>
      </trkpt>
      <trkpt lat="47.70175" lon="16.90672">
        <ele>120.335893</ele>
        <time>2022-08-07T10:25:08.212Z</time>
      </trkpt>
      <trkpt lat="47.70234" lon="16.90703">
        <ele>120.388356</ele>
        <time>2022-08-07T10:25:25.191Z</time>
      </trkpt>
      <trkpt lat="47.70319" lon="16.90749">
        <ele>120.499911</ele>
        <time>2022-08-07T10:25:50.670Z</time>
      </trkpt>
      <trkpt lat="47.70318" lon="16.90757">
        <ele>120.515528</ele>
        <time>2022-08-07T10:25:52.318Z</time>
      </trkpt>
      <trkpt lat="47.70316" lon="16.90804">
        <ele>120.600127</ele>
        <time>2022-08-07T10:26:01.318Z</time>
      </trkpt>
      <trkpt lat="47.70316" lon="16.90813">
        <ele>120.616687</ele>
        <time>2022-08-07T10:26:03.083Z</time>
      </trkpt>
      <trkpt lat="47.70315" lon="16.90873">
        <ele>120.72656</ele>
        <time>2022-08-07T10:26:14.866Z</time>
      </trkpt>
      <trkpt lat="47.70315" lon="16.90887">
        <ele>120.752029</ele>
        <time>2022-08-07T10:26:17.465Z</time>
      </trkpt>
      <trkpt lat="47.70311" lon="16.9097">
        <ele>120.902685</ele>
        <time>2022-08-07T10:26:32.960Z</time>
      </trkpt>
      <trkpt lat="47.70309" lon="16.90983">
        <ele>120.927212</ele>
        <time>2022-08-07T10:26:35.478Z</time>
      </trkpt>
      <trkpt lat="47.70296" lon="16.91084">
        <ele>120.739269</ele>
        <time>2022-08-07T10:26:53.430Z</time>
      </trkpt>
      <trkpt lat="47.70294" lon="16.91093">
        <ele>120.721755</ele>
        <time>2022-08-07T10:26:54.897Z</time>
      </trkpt>
      <trkpt lat="47.70395" lon="16.91155">
        <ele>120.400122</ele>
        <time>2022-08-07T10:27:22.177Z</time>
      </trkpt>
      <trkpt lat="47.70598" lon="16.91279">
        <ele>119.242744</ele>
        <time>2022-08-07T10:28:16.478Z</time>
      </trkpt>
      <trkpt lat="47.70633" lon="16.91301">
        <ele>118.962945</ele>
        <time>2022-08-07T10:28:25.306Z</time>
      </trkpt>
      <trkpt lat="47.70645" lon="16.91308">
        <ele>118.868773</ele>
        <time>2022-08-07T10:28:28.302Z</time>
      </trkpt>
      <trkpt lat="47.70696" lon="16.91338">
        <ele>118.464661</ele>
        <time>2022-08-07T10:28:41.116Z</time>
      </trkpt>
      <trkpt lat="47.70772" lon="16.91385">
        <ele>117.991229</ele>
        <time>2022-08-07T10:29:00.850Z</time>
      </trkpt>
      <trkpt lat="47.70776" lon="16.91373">
        <ele>117.950933</ele>
        <time>2022-08-07T10:29:03.058Z</time>
      </trkpt>
      <trkpt lat="47.70811" lon="16.91392">
        <ele>117.778091</ele>
        <time>2022-08-07T10:29:12.191Z</time>
      </trkpt>
      <trkpt lat="47.70874" lon="16.91443">
        <ele>117.444729</ele>
        <time>2022-08-07T10:29:30.175Z</time>
      </trkpt>
      <trkpt lat="47.70891" lon="16.91464">
        <ele>117.395721</ele>
        <time>2022-08-07T10:29:35.875Z</time>
      </trkpt>
      <trkpt lat="47.71964" lon="16.92895">
        <ele>118.671061</ele>
        <time>2022-08-07T10:36:07.188Z</time>
      </trkpt>
      <trkpt lat="47.721" lon="16.93072">
        <ele>118.654871</ele>
        <time>2022-08-07T10:36:55.343Z</time>
      </trkpt>
      <trkpt lat="47.72094" lon="16.93078">
        <ele>118.652588</ele>
        <time>2022-08-07T10:36:58.339Z</time>
      </trkpt>
      <trkpt lat="47.72114" lon="16.93105">
        <ele>118.643653</ele>
        <time>2022-08-07T10:37:05.606Z</time>
      </trkpt>
      <trkpt lat="47.72339" lon="16.93439">
        <ele>118.780257</ele>
        <time>2022-08-07T10:38:30.269Z</time>
      </trkpt>
      <trkpt lat="47.72358" lon="16.93469">
        <ele>118.992066</ele>
        <time>2022-08-07T10:38:38.259Z</time>
      </trkpt>
      <trkpt lat="47.72412" lon="16.93541">
        <ele>119.553064</ele>
        <time>2022-08-07T10:39:00.506Z</time>
      </trkpt>
      <trkpt lat="47.72483" lon="16.93633">
        <ele>120.210242</ele>
        <time>2022-08-07T10:39:30.663Z</time>
      </trkpt>
      <trkpt lat="47.72485" lon="16.93635">
        <ele>120.219662</ele>
        <time>2022-08-07T10:39:31.349Z</time>
      </trkpt>
      <trkpt lat="47.72492" lon="16.93642">
        <ele>120.257748</ele>
        <time>2022-08-07T10:39:34.187Z</time>
      </trkpt>
      <trkpt lat="47.72504" lon="16.93649">
        <ele>120.311713</ele>
        <time>2022-08-07T10:39:38.233Z</time>
      </trkpt>
      <trkpt lat="47.72506" lon="16.93654">
        <ele>120.326457</ele>
        <time>2022-08-07T10:39:39.311Z</time>
      </trkpt>
      <trkpt lat="47.72514" lon="16.93658">
        <ele>120.361245</ele>
        <time>2022-08-07T10:39:41.809Z</time>
      </trkpt>
      <trkpt lat="47.72522" lon="16.93665">
        <ele>120.399699</ele>
        <time>2022-08-07T10:39:44.605Z</time>
      </trkpt>
      <trkpt lat="47.72534" lon="16.93676">
        <ele>120.459045</ele>
        <time>2022-08-07T10:39:48.949Z</time>
      </trkpt>
      <trkpt lat="47.72561" lon="16.93715">
        <ele>120.616058</ele>
        <time>2022-08-07T10:40:00.053Z</time>
      </trkpt>
      <trkpt lat="47.72581" lon="16.93758">
        <ele>120.764219</ele>
        <time>2022-08-07T10:40:09.749Z</time>
      </trkpt>
      <trkpt lat="47.72628" lon="16.93906">
        <ele>120.057939</ele>
        <time>2022-08-07T10:40:36.087Z</time>
      </trkpt>
      <trkpt lat="47.72662" lon="16.93982">
        <ele>119.439499</ele>
        <time>2022-08-07T10:40:49.582Z</time>
      </trkpt>
      <trkpt lat="47.72673" lon="16.93995">
        <ele>119.299288</ele>
        <time>2022-08-07T10:40:52.671Z</time>
      </trkpt>
      <trkpt lat="47.72772" lon="16.94115">
        <ele>118.242304</ele>
        <time>2022-08-07T10:41:21.980Z</time>
      </trkpt>
      <trkpt lat="47.72809" lon="16.94167">
        <ele>117.844629</ele>
        <time>2022-08-07T10:41:34.457Z</time>
      </trkpt>
      <trkpt lat="47.72846" lon="16.94219">
        <ele>117.719715</ele>
        <time>2022-08-07T10:41:48.160Z</time>
      </trkpt>
      <trkpt lat="47.72852" lon="16.94228">
        <ele>117.737019</ele>
        <time>2022-08-07T10:41:50.467Z</time>
      </trkpt>
      <trkpt lat="47.72919" lon="16.94325">
        <ele>117.937317</ele>
        <time>2022-08-07T10:42:17.305Z</time>
      </trkpt>
      <trkpt lat="47.72954" lon="16.94375">
        <ele>118.042995</ele>
        <time>2022-08-07T10:42:31.128Z</time>
      </trkpt>
      <trkpt lat="47.72959" lon="16.94381">
        <ele>118.042401</ele>
        <time>2022-08-07T10:42:32.719Z</time>
      </trkpt>
      <trkpt lat="47.72978" lon="16.94409">
        <ele>118.017072</ele>
        <time>2022-08-07T10:42:39.738Z</time>
      </trkpt>
      <trkpt lat="47.73026" lon="16.94477">
        <ele>117.953625</ele>
        <time>2022-08-07T10:42:57.206Z</time>
      </trkpt>
      <trkpt lat="47.73055" lon="16.9452">
        <ele>117.914765</ele>
        <time>2022-08-07T10:43:07.786Z</time>
      </trkpt>
      <trkpt lat="47.7306" lon="16.94527">
        <ele>117.908166</ele>
        <time>2022-08-07T10:43:09.501Z</time>
      </trkpt>
      <trkpt lat="47.73085" lon="16.94563">
        <ele>117.874928</ele>
        <time>2022-08-07T10:43:18.072Z</time>
      </trkpt>
      <trkpt lat="47.73468" lon="16.9511">
        <ele>117.437462</ele>
        <time>2022-08-07T10:45:37.517Z</time>
      </trkpt>
      <trkpt lat="47.73515" lon="16.95177">
        <ele>117.537201</ele>
        <time>2022-08-07T10:45:56.265Z</time>
      </trkpt>
      <trkpt lat="47.73587" lon="16.95279">
        <ele>117.714266</ele>
        <time>2022-08-07T10:46:24.325Z</time>
      </trkpt>
      <trkpt lat="47.74209" lon="16.96164">
        <ele>115.426947</ele>
        <time>2022-08-07T10:50:02.744Z</time>
      </trkpt>
      <trkpt lat="47.74308" lon="16.96317">
        <ele>115.289687</ele>
        <time>2022-08-07T10:50:40.929Z</time>
      </trkpt>
      <trkpt lat="47.74296" lon="16.96329">
        <ele>115.286531</ele>
        <time>2022-08-07T10:50:44.966Z</time>
      </trkpt>
      <trkpt lat="47.743" lon="16.96336">
        <ele>115.285204</ele>
        <time>2022-08-07T10:50:46.673Z</time>
      </trkpt>
      <trkpt lat="47.74308" lon="16.96348">
        <ele>115.282823</ele>
        <time>2022-08-07T10:50:49.725Z</time>
      </trkpt>
      <trkpt lat="47.74321" lon="16.96353">
        <ele>115.279993</ele>
        <time>2022-08-07T10:50:53.296Z</time>
      </trkpt>
      <trkpt lat="47.74445" lon="16.96552">
        <ele>115.361003</ele>
        <time>2022-08-07T10:51:41.291Z</time>
      </trkpt>
      <trkpt lat="47.74792" lon="16.96979">
        <ele>116.984286</ele>
        <time>2022-08-07T10:53:49.276Z</time>
      </trkpt>
      <trkpt lat="47.74952" lon="16.97173">
        <ele>118.033252</ele>
        <time>2022-08-07T10:54:53.116Z</time>
      </trkpt>
      <trkpt lat="47.75144" lon="16.97401">
        <ele>117.575773</ele>
        <time>2022-08-07T10:55:54.314Z</time>
      </trkpt>
      <trkpt lat="47.7542" lon="16.97742">
        <ele>116.4546</ele>
        <time>2022-08-07T10:57:25.879Z</time>
      </trkpt>
      <trkpt lat="47.75559" lon="16.979">
        <ele>115.529387</ele>
        <time>2022-08-07T10:58:08.447Z</time>
      </trkpt>
      <trkpt lat="47.75617" lon="16.97946">
        <ele>115.197934</ele>
        <time>2022-08-07T10:58:24.261Z</time>
      </trkpt>
      <trkpt lat="47.75696" lon="16.9799">
        <ele>115.033959</ele>
        <time>2022-08-07T10:58:45.730Z</time>
      </trkpt>
      <trkpt lat="47.75785" lon="16.98017">
        <ele>114.903515</ele>
        <time>2022-08-07T10:59:09.820Z</time>
      </trkpt>
      <trkpt lat="47.76131" lon="16.98052">
        <ele>116.196548</ele>
        <time>2022-08-07T11:00:48.939Z</time>
      </trkpt>
      <trkpt lat="47.76177" lon="16.98069">
        <ele>116.386192</ele>
        <time>2022-08-07T11:01:02.512Z</time>
      </trkpt>
      <trkpt lat="47.76244" lon="16.98106">
        <ele>116.671105</ele>
        <time>2022-08-07T11:01:22.705Z</time>
      </trkpt>
      <trkpt lat="47.76262" lon="16.98106">
        <ele>116.744263</ele>
        <time>2022-08-07T11:01:27.961Z</time>
      </trkpt>
      <trkpt lat="47.76303" lon="16.9813">
        <ele>116.921166</ele>
        <time>2022-08-07T11:01:40.682Z</time>
      </trkpt>
      <trkpt lat="47.76306" lon="16.98117">
        <ele>116.966837</ele>
        <time>2022-08-07T11:01:43.191Z</time>
      </trkpt>
      <trkpt lat="47.76316" lon="16.98122">
        <ele>117.023326</ele>
        <time>2022-08-07T11:01:46.021Z</time>
      </trkpt>
      <trkpt lat="47.76349" lon="16.98148">
        <ele>117.246823</ele>
        <time>2022-08-07T11:01:57.167Z</time>
      </trkpt>
      <trkpt lat="47.76371" lon="16.98184">
        <ele>117.438782</ele>
        <time>2022-08-07T11:02:06.793Z</time>
      </trkpt>
      <trkpt lat="47.76391" lon="16.98229">
        <ele>117.651742</ele>
        <time>2022-08-07T11:02:17.565Z</time>
      </trkpt>
      <trkpt lat="47.76441" lon="16.98333">
        <ele>118.134925</ele>
        <time>2022-08-07T11:02:43.143Z</time>
      </trkpt>
      <trkpt lat="47.76471" lon="16.984">
        <ele>118.408571</ele>
        <time>2022-08-07T11:02:58.879Z</time>
      </trkpt>
      <trkpt lat="47.76495" lon="16.98454">
        <ele>118.629969</ele>
        <time>2022-08-07T11:03:11.355Z</time>
      </trkpt>
      <trkpt lat="47.76498" lon="16.98461">
        <ele>118.655999</ele>
        <time>2022-08-07T11:03:12.816Z</time>
      </trkpt>
      <trkpt lat="47.76489" lon="16.98476">
        <ele>118.725768</ele>
        <time>2022-08-07T11:03:18.008Z</time>
      </trkpt>
      <trkpt lat="47.76483" lon="16.98486">
        <ele>118.767584</ele>
        <time>2022-08-07T11:03:21.148Z</time>
      </trkpt>
      <trkpt lat="47.76472" lon="16.98504">
        <ele>118.851389</ele>
        <time>2022-08-07T11:03:25.858Z</time>
      </trkpt>
      <trkpt lat="47.76459" lon="16.98525">
        <ele>118.92554</ele>
        <time>2022-08-07T11:03:31.685Z</time>
      </trkpt>
      <trkpt lat="47.76426" lon="16.98585">
        <ele>119.04238</ele>
        <time>2022-08-07T11:03:46.448Z</time>
      </trkpt>
      <trkpt lat="47.76375" lon="16.98708">
        <ele>119.261526</ele>
        <time>2022-08-07T11:04:13.650Z</time>
      </trkpt>
      <trkpt lat="47.76342" lon="16.98784">
        <ele>119.023665</ele>
        <time>2022-08-07T11:04:29.425Z</time>
      </trkpt>
      <trkpt lat="47.76349" lon="16.98795">
        <ele>118.947</ele>
        <time>2022-08-07T11:04:32.113Z</time>
      </trkpt>
      <trkpt lat="47.76342" lon="16.98806">
        <ele>118.872076</ele>
        <time>2022-08-07T11:04:34.594Z</time>
      </trkpt>
      <trkpt lat="47.76323" lon="16.98841">
        <ele>118.649745</ele>
        <time>2022-08-07T11:04:41.902Z</time>
      </trkpt>
      <trkpt lat="47.76319" lon="16.98868">
        <ele>118.513551</ele>
        <time>2022-08-07T11:04:46.193Z</time>
      </trkpt>
      <trkpt lat="47.76323" lon="16.98879">
        <ele>118.450613</ele>
        <time>2022-08-07T11:04:48.158Z</time>
      </trkpt>
      <trkpt lat="47.764" lon="16.9895">
        <ele>117.747971</ele>
        <time>2022-08-07T11:05:08.406Z</time>
      </trkpt>
      <trkpt lat="47.76479" lon="16.99019">
        <ele>116.957287</ele>
        <time>2022-08-07T11:05:29.650Z</time>
      </trkpt>
      <trkpt lat="47.76494" lon="16.99033">
        <ele>116.806732</ele>
        <time>2022-08-07T11:05:33.898Z</time>
      </trkpt>
      <trkpt lat="47.76546" lon="16.99086">
        <ele>116.426956</ele>
        <time>2022-08-07T11:05:49.652Z</time>
      </trkpt>
      <trkpt lat="47.76579" lon="16.99136">
        <ele>116.408456</ele>
        <time>2022-08-07T11:06:02.280Z</time>
      </trkpt>
      <trkpt lat="47.76647" lon="16.99248">
        <ele>116.369575</ele>
        <time>2022-08-07T11:06:29.888Z</time>
      </trkpt>
      <trkpt lat="47.76659" lon="16.99255">
        <ele>116.364947</ele>
        <time>2022-08-07T11:06:33.330Z</time>
      </trkpt>
      <trkpt lat="47.76739" lon="16.99386">
        <ele>116.362472</ele>
        <time>2022-08-07T11:07:04.599Z</time>
      </trkpt>
      <trkpt lat="47.76949" lon="16.99734">
        <ele>116.486512</ele>
        <time>2022-08-07T11:08:29.768Z</time>
      </trkpt>
      <trkpt lat="47.77071" lon="16.99944">
        <ele>116.066781</ele>
        <time>2022-08-07T11:09:18.122Z</time>
      </trkpt>
      <trkpt lat="47.77094" lon="17.00002">
        <ele>115.866216</ele>
        <time>2022-08-07T11:09:29.020Z</time>
      </trkpt>
      <trkpt lat="47.77116" lon="17.00082">
        <ele>115.610513</ele>
        <time>2022-08-07T11:09:43.015Z</time>
      </trkpt>
      <trkpt lat="47.77128" lon="17.00133">
        <ele>115.4763</ele>
        <time>2022-08-07T11:09:51.776Z</time>
      </trkpt>
      <trkpt lat="47.77135" lon="17.00195">
        <ele>115.319907</ele>
        <time>2022-08-07T11:10:01.997Z</time>
      </trkpt>
      <trkpt lat="47.77139" lon="17.00612">
        <ele>114.762798</ele>
        <time>2022-08-07T11:11:15.220Z</time>
      </trkpt>
      <trkpt lat="47.77152" lon="17.00762">
        <ele>114.932822</ele>
        <time>2022-08-07T11:11:42.925Z</time>
      </trkpt>
      <trkpt lat="47.77164" lon="17.00833">
        <ele>115.01519</ele>
        <time>2022-08-07T11:11:56.652Z</time>
      </trkpt>
      <trkpt lat="47.77291" lon="17.01407">
        <ele>116.730937</ele>
        <time>2022-08-07T11:13:54.302Z</time>
      </trkpt>
      <trkpt lat="47.77326" lon="17.0157">
        <ele>116.796935</ele>
        <time>2022-08-07T11:14:24.317Z</time>
      </trkpt>
      <trkpt lat="47.77338" lon="17.01686">
        <ele>116.901434</ele>
        <time>2022-08-07T11:14:45.487Z</time>
      </trkpt>
      <trkpt lat="47.77337" lon="17.01759">
        <ele>117.009757</ele>
        <time>2022-08-07T11:14:59.320Z</time>
      </trkpt>
      <trkpt lat="47.77319" lon="17.01973">
        <ele>117.25691</ele>
        <time>2022-08-07T11:15:40.205Z</time>
      </trkpt>
      <trkpt lat="47.77314" lon="17.02059">
        <ele>117.299152</ele>
        <time>2022-08-07T11:15:56.007Z</time>
      </trkpt>
      <trkpt lat="47.77319" lon="17.02122">
        <ele>117.330249</ele>
        <time>2022-08-07T11:16:07.180Z</time>
      </trkpt>
      <trkpt lat="47.77343" lon="17.02291">
        <ele>117.469269</ele>
        <time>2022-08-07T11:16:37.318Z</time>
      </trkpt>
      <trkpt lat="47.77344" lon="17.02298">
        <ele>117.476454</ele>
        <time>2022-08-07T11:16:38.725Z</time>
      </trkpt>
      <trkpt lat="47.7738" lon="17.02558">
        <ele>117.847905</ele>
        <time>2022-08-07T11:17:29.982Z</time>
      </trkpt>
      <trkpt lat="47.774" lon="17.02686">
        <ele>118.096638</ele>
        <time>2022-08-07T11:17:54.519Z</time>
      </trkpt>
      <trkpt lat="47.77428" lon="17.02886">
        <ele>117.813018</ele>
        <time>2022-08-07T11:18:29.888Z</time>
      </trkpt>
      <trkpt lat="47.77433" lon="17.02946">
        <ele>117.727338</ele>
        <time>2022-08-07T11:18:39.832Z</time>
      </trkpt>
      <trkpt lat="47.7743" lon="17.02949">
        <ele>117.72013</ele>
        <time>2022-08-07T11:18:40.661Z</time>
      </trkpt>
      <trkpt lat="47.77431" lon="17.02951">
        <ele>117.720313</ele>
        <time>2022-08-07T11:18:41.102Z</time>
      </trkpt>
      <trkpt lat="47.77432" lon="17.02968">
        <ele>117.722089</ele>
        <time>2022-08-07T11:18:43.954Z</time>
      </trkpt>
      <trkpt lat="47.77434" lon="17.02985">
        <ele>117.723959</ele>
        <time>2022-08-07T11:18:46.984Z</time>
      </trkpt>
      <trkpt lat="47.77463" lon="17.03053">
        <ele>117.732402</ele>
        <time>2022-08-07T11:19:01.072Z</time>
      </trkpt>
      <trkpt lat="47.77494" lon="17.03109">
        <ele>117.740032</ele>
        <time>2022-08-07T11:19:14.207Z</time>
      </trkpt>
      <trkpt lat="47.775" lon="17.0312">
        <ele>117.741539</ele>
        <time>2022-08-07T11:19:16.832Z</time>
      </trkpt>
      <trkpt lat="47.77551" lon="17.03214">
        <ele>117.888811</ele>
        <time>2022-08-07T11:19:39.864Z</time>
      </trkpt>
      <trkpt lat="47.77556" lon="17.03223">
        <ele>117.917307</ele>
        <time>2022-08-07T11:19:42.019Z</time>
      </trkpt>
      <trkpt lat="47.77581" lon="17.03251">
        <ele>118.031291</ele>
        <time>2022-08-07T11:19:50.687Z</time>
      </trkpt>
      <trkpt lat="47.77619" lon="17.03272">
        <ele>118.179097</ele>
        <time>2022-08-07T11:20:02.345Z</time>
      </trkpt>
      <trkpt lat="47.77678" lon="17.03327">
        <ele>118.426761</ele>
        <time>2022-08-07T11:20:22.810Z</time>
      </trkpt>
      <trkpt lat="47.77683" lon="17.03332">
        <ele>118.445449</ele>
        <time>2022-08-07T11:20:24.718Z</time>
      </trkpt>
      <trkpt lat="47.77661" lon="17.03369">
        <ele>118.536843</ele>
        <time>2022-08-07T11:20:34.519Z</time>
      </trkpt>
      <trkpt lat="47.77625" lon="17.03402">
        <ele>118.651371</ele>
        <time>2022-08-07T11:20:46.717Z</time>
      </trkpt>
      <trkpt lat="47.77596" lon="17.0344">
        <ele>118.757374</ele>
        <time>2022-08-07T11:20:57.993Z</time>
      </trkpt>
      <trkpt lat="47.77586" lon="17.03471">
        <ele>118.819651</ele>
        <time>2022-08-07T11:21:04.627Z</time>
      </trkpt>
      <trkpt lat="47.77591" lon="17.03514">
        <ele>118.893737</ele>
        <time>2022-08-07T11:21:13.006Z</time>
      </trkpt>
      <trkpt lat="47.7761" lon="17.03596">
        <ele>118.748458</ele>
        <time>2022-08-07T11:21:29.297Z</time>
      </trkpt>
      <trkpt lat="47.77627" lon="17.03686">
        <ele>118.592923</ele>
        <time>2022-08-07T11:21:46.142Z</time>
      </trkpt>
      <trkpt lat="47.77711" lon="17.04145">
        <ele>116.58921</ele>
        <time>2022-08-07T11:23:07.415Z</time>
      </trkpt>
      <trkpt lat="47.77722" lon="17.04208">
        <ele>116.163036</ele>
        <time>2022-08-07T11:23:17.691Z</time>
      </trkpt>
      <trkpt lat="47.77727" lon="17.04239">
        <ele>115.957764</ele>
        <time>2022-08-07T11:23:22.540Z</time>
      </trkpt>
      <trkpt lat="47.77735" lon="17.04286">
        <ele>115.640174</ele>
        <time>2022-08-07T11:23:30.143Z</time>
      </trkpt>
      <trkpt lat="47.77772" lon="17.04487">
        <ele>114.739603</ele>
        <time>2022-08-07T11:24:03.112Z</time>
      </trkpt>
      <trkpt lat="47.77794" lon="17.04608">
        <ele>114.650185</ele>
        <time>2022-08-07T11:24:26.192Z</time>
      </trkpt>
      <trkpt lat="47.77838" lon="17.04847">
        <ele>115.270249</ele>
        <time>2022-08-07T11:25:15.037Z</time>
      </trkpt>
      <trkpt lat="47.77842" lon="17.04895">
        <ele>115.390094</ele>
        <time>2022-08-07T11:25:24.228Z</time>
      </trkpt>
      <trkpt lat="47.77841" lon="17.04915">
        <ele>115.441139</ele>
        <time>2022-08-07T11:25:28.155Z</time>
      </trkpt>
      <trkpt lat="47.77837" lon="17.04998">
        <ele>115.651887</ele>
        <time>2022-08-07T11:25:44.188Z</time>
      </trkpt>
      <trkpt lat="47.77832" lon="17.05076">
        <ele>115.826002</ele>
        <time>2022-08-07T11:25:58.949Z</time>
      </trkpt>
      <trkpt lat="47.77819" lon="17.05207">
        <ele>115.830628</ele>
        <time>2022-08-07T11:26:23.044Z</time>
      </trkpt>
      <trkpt lat="47.77762" lon="17.05502">
        <ele>115.680069</ele>
        <time>2022-08-07T11:27:16.238Z</time>
      </trkpt>
      <trkpt lat="47.77759" lon="17.05524">
        <ele>115.660776</ele>
        <time>2022-08-07T11:27:20.182Z</time>
      </trkpt>
      <trkpt lat="47.77908" lon="17.05479">
        <ele>115.53078</ele>
        <time>2022-08-07T11:28:01.014Z</time>
      </trkpt>
      <trkpt lat="47.77905" lon="17.05462">
        <ele>115.522718</ele>
        <time>2022-08-07T11:28:06.402Z</time>
      </trkpt>
      <trkpt lat="47.77908" lon="17.05479">
        <ele>115.514657</ele>
        <time>2022-08-07T11:28:11.607Z</time>
      </trkpt>
      <trkpt lat="47.78429" lon="17.05316">
        <ele>114.634287</ele>
        <time>2022-08-07T11:30:28.388Z</time>
      </trkpt>
      <trkpt lat="47.78733" lon="17.05224">
        <ele>115.5541</ele>
        <time>2022-08-07T11:31:56.422Z</time>
      </trkpt>
      <trkpt lat="47.78747" lon="17.05215">
        <ele>115.62102</ele>
        <time>2022-08-07T11:32:00.978Z</time>
      </trkpt>
      <trkpt lat="47.78791" lon="17.05164">
        <ele>115.855568</ele>
        <time>2022-08-07T11:32:17.081Z</time>
      </trkpt>
      <trkpt lat="47.78905" lon="17.0503">
        <ele>116.28931</ele>
        <time>2022-08-07T11:32:58.467Z</time>
      </trkpt>
      <trkpt lat="47.79057" lon="17.04851">
        <ele>116.587552</ele>
        <time>2022-08-07T11:33:51.108Z</time>
      </trkpt>
      <trkpt lat="47.79663" lon="17.0528">
        <ele>117.13481</ele>
        <time>2022-08-07T11:36:52.818Z</time>
      </trkpt>
      <trkpt lat="47.79755" lon="17.05349">
        <ele>117.255387</ele>
        <time>2022-08-07T11:37:21.170Z</time>
      </trkpt>
      <trkpt lat="47.79767" lon="17.05364">
        <ele>117.259287</ele>
        <time>2022-08-07T11:37:25.448Z</time>
      </trkpt>
      <trkpt lat="47.79954" lon="17.05697">
        <ele>117.337337</ele>
        <time>2022-08-07T11:38:43.167Z</time>
      </trkpt>
      <trkpt lat="47.79957" lon="17.05694">
        <ele>117.338384</ele>
        <time>2022-08-07T11:38:44.847Z</time>
      </trkpt>
      <trkpt lat="47.79954" lon="17.05697">
        <ele>117.33943</ele>
        <time>2022-08-07T11:38:46.373Z</time>
      </trkpt>
      <trkpt lat="47.80198" lon="17.06133">
        <ele>117.657472</ele>
        <time>2022-08-07T11:40:29.881Z</time>
      </trkpt>
      <trkpt lat="47.80429" lon="17.0586">
        <ele>117.684981</ele>
        <time>2022-08-07T11:41:48.117Z</time>
      </trkpt>
      <trkpt lat="47.8049" lon="17.05788">
        <ele>117.730124</ele>
        <time>2022-08-07T11:42:09.492Z</time>
      </trkpt>
      <trkpt lat="47.80673" lon="17.05572">
        <ele>118.169654</ele>
        <time>2022-08-07T11:43:14.501Z</time>
      </trkpt>
      <trkpt lat="47.80684" lon="17.05559">
        <ele>118.187008</ele>
        <time>2022-08-07T11:43:18.422Z</time>
      </trkpt>
      <trkpt lat="47.80943" lon="17.05254">
        <ele>118.470814</ele>
        <time>2022-08-07T11:44:46.990Z</time>
      </trkpt>
      <trkpt lat="47.81232" lon="17.04915">
        <ele>119.172472</ele>
        <time>2022-08-07T11:46:29.513Z</time>
      </trkpt>
      <trkpt lat="47.81508" lon="17.04591">
        <ele>118.969008</ele>
        <time>2022-08-07T11:48:01.574Z</time>
      </trkpt>
      <trkpt lat="47.81519" lon="17.04579">
        <ele>118.97688</ele>
        <time>2022-08-07T11:48:05.017Z</time>
      </trkpt>
      <trkpt lat="47.81724" lon="17.04338">
        <ele>119.297446</ele>
        <time>2022-08-07T11:49:16.131Z</time>
      </trkpt>
      <trkpt lat="47.81797" lon="17.04271">
        <ele>119.511821</ele>
        <time>2022-08-07T11:49:40.711Z</time>
      </trkpt>
      <trkpt lat="47.81991" lon="17.04126">
        <ele>120.23401</ele>
        <time>2022-08-07T11:50:42.589Z</time>
      </trkpt>
      <trkpt lat="47.82024" lon="17.04102">
        <ele>120.334154</ele>
        <time>2022-08-07T11:50:52.820Z</time>
      </trkpt>
      <trkpt lat="47.82362" lon="17.03852">
        <ele>121.182521</ele>
        <time>2022-08-07T11:52:36.611Z</time>
      </trkpt>
      <trkpt lat="47.82395" lon="17.03826">
        <ele>121.277696</ele>
        <time>2022-08-07T11:52:47.270Z</time>
      </trkpt>
      <trkpt lat="47.82638" lon="17.03645">
        <ele>122.182882</ele>
        <time>2022-08-07T11:54:06.032Z</time>
      </trkpt>
      <trkpt lat="47.82726" lon="17.03587">
        <ele>122.219523</ele>
        <time>2022-08-07T11:54:31.042Z</time>
      </trkpt>
      <trkpt lat="47.83051" lon="17.03392">
        <ele>120.436222</ele>
        <time>2022-08-07T11:55:55.698Z</time>
      </trkpt>
      <trkpt lat="47.83496" lon="17.0312">
        <ele>122.030906</ele>
        <time>2022-08-07T11:58:13.942Z</time>
      </trkpt>
      <trkpt lat="47.83591" lon="17.03336">
        <ele>122.398652</ele>
        <time>2022-08-07T11:59:00.938Z</time>
      </trkpt>
      <trkpt lat="47.839" lon="17.03702">
        <ele>123.26875</ele>
        <time>2022-08-07T12:00:51.701Z</time>
      </trkpt>
      <trkpt lat="47.84948" lon="17.01606">
        <ele>122.612473</ele>
        <time>2022-08-07T12:08:35.703Z</time>
      </trkpt>
      <trkpt lat="47.85142" lon="17.00685">
        <ele>123.145466</ele>
        <time>2022-08-07T12:11:31.773Z</time>
      </trkpt>
      <trkpt lat="47.85273" lon="17.00472">
        <ele>123.092684</ele>
        <time>2022-08-07T12:12:22.420Z</time>
      </trkpt>
      <trkpt lat="47.85386" lon="17.00287">
        <ele>123.336181</ele>
        <time>2022-08-07T12:13:08.672Z</time>
      </trkpt>
      <trkpt lat="47.85513" lon="17.00083">
        <ele>123.776437</ele>
        <time>2022-08-07T12:14:01.529Z</time>
      </trkpt>
      <trkpt lat="47.85522" lon="17.00069">
        <ele>123.768405</ele>
        <time>2022-08-07T12:14:05.098Z</time>
      </trkpt>
      <trkpt lat="47.85549" lon="17.00023">
        <ele>123.743507</ele>
        <time>2022-08-07T12:14:15.881Z</time>
      </trkpt>
      <trkpt lat="47.8562" lon="16.99905">
        <ele>123.679816</ele>
        <time>2022-08-07T12:14:43.092Z</time>
      </trkpt>
      <trkpt lat="47.85623" lon="16.99897">
        <ele>123.683356</ele>
        <time>2022-08-07T12:14:44.703Z</time>
      </trkpt>
      <trkpt lat="47.85896" lon="16.99243">
        <ele>124.036071</ele>
        <time>2022-08-07T12:17:04.314Z</time>
      </trkpt>
      <trkpt lat="47.86472" lon="16.97889">
        <ele>126.109331</ele>
        <time>2022-08-07T12:22:01.937Z</time>
      </trkpt>
      <trkpt lat="47.86492" lon="16.97838">
        <ele>126.108792</ele>
        <time>2022-08-07T12:22:12.920Z</time>
      </trkpt>
      <trkpt lat="47.86517" lon="16.97847">
        <ele>126.073002</ele>
        <time>2022-08-07T12:22:19.461Z</time>
      </trkpt>
      <trkpt lat="47.86533" lon="16.97846">
        <ele>126.050196</ele>
        <time>2022-08-07T12:22:23.728Z</time>
      </trkpt>
      <trkpt lat="47.86544" lon="16.97837">
        <ele>126.032983</ele>
        <time>2022-08-07T12:22:26.804Z</time>
      </trkpt>
      <trkpt lat="47.86577" lon="16.9776">
        <ele>125.945903</ele>
        <time>2022-08-07T12:22:42.625Z</time>
      </trkpt>
      <trkpt lat="47.86649" lon="16.97579">
        <ele>126.066676</ele>
        <time>2022-08-07T12:23:19.952Z</time>
      </trkpt>
      <trkpt lat="47.86664" lon="16.97547">
        <ele>126.115497</ele>
        <time>2022-08-07T12:23:27.211Z</time>
      </trkpt>
      <trkpt lat="47.8672" lon="16.97428">
        <ele>126.501037</ele>
        <time>2022-08-07T12:23:55.748Z</time>
      </trkpt>
      <trkpt lat="47.86723" lon="16.97429">
        <ele>126.523921</ele>
        <time>2022-08-07T12:23:56.752Z</time>
      </trkpt>
      <trkpt lat="47.86728" lon="16.9743">
        <ele>126.556911</ele>
        <time>2022-08-07T12:23:58.221Z</time>
      </trkpt>
      <trkpt lat="47.86775" lon="16.97267">
        <ele>127.371122</ele>
        <time>2022-08-07T12:24:34.264Z</time>
      </trkpt>
      <trkpt lat="47.86789" lon="16.97223">
        <ele>127.518235</ele>
        <time>2022-08-07T12:24:44.011Z</time>
      </trkpt>
      <trkpt lat="47.86801" lon="16.97231">
        <ele>127.564053</ele>
        <time>2022-08-07T12:24:48.365Z</time>
      </trkpt>
      <trkpt lat="47.86828" lon="16.97245">
        <ele>127.657755</ele>
        <time>2022-08-07T12:24:57.019Z</time>
      </trkpt>
      <trkpt lat="47.86942" lon="16.97304">
        <ele>128.036644</ele>
        <time>2022-08-07T12:25:31.606Z</time>
      </trkpt>
      <trkpt lat="47.86985" lon="16.97324">
        <ele>127.947348</ele>
        <time>2022-08-07T12:25:43.829Z</time>
      </trkpt>
      <trkpt lat="47.87104" lon="16.9738">
        <ele>127.697281</ele>
        <time>2022-08-07T12:26:17.076Z</time>
      </trkpt>
      <trkpt lat="47.87108" lon="16.97383">
        <ele>127.688082</ele>
        <time>2022-08-07T12:26:18.293Z</time>
      </trkpt>
      <trkpt lat="47.8714" lon="16.9741">
        <ele>127.581104</ele>
        <time>2022-08-07T12:26:27.995Z</time>
      </trkpt>
      <trkpt lat="47.87131" lon="16.97432">
        <ele>127.530437</ele>
        <time>2022-08-07T12:26:32.253Z</time>
      </trkpt>
      <trkpt lat="47.87069" lon="16.97623">
        <ele>127.126333</ele>
        <time>2022-08-07T12:27:08.582Z</time>
      </trkpt>
      <trkpt lat="47.87048" lon="16.97686">
        <ele>127.036016</ele>
        <time>2022-08-07T12:27:20.876Z</time>
      </trkpt>
      <trkpt lat="47.87047" lon="16.97692">
        <ele>127.027728</ele>
        <time>2022-08-07T12:27:21.997Z</time>
      </trkpt>
      <trkpt lat="47.86949" lon="16.9802">
        <ele>126.377453</ele>
        <time>2022-08-07T12:28:24.110Z</time>
      </trkpt>
      <trkpt lat="47.86946" lon="16.98035">
        <ele>126.342123</ele>
        <time>2022-08-07T12:28:26.646Z</time>
      </trkpt>
      <trkpt lat="47.86944" lon="16.98044">
        <ele>126.319746</ele>
        <time>2022-08-07T12:28:28.251Z</time>
      </trkpt>
      <trkpt lat="47.86932" lon="16.98119">
        <ele>126.082662</ele>
        <time>2022-08-07T12:28:40.705Z</time>
      </trkpt>
      <trkpt lat="47.86931" lon="16.98125">
        <ele>126.049315</ele>
        <time>2022-08-07T12:28:41.805Z</time>
      </trkpt>
      <trkpt lat="47.86924" lon="16.98178">
        <ele>125.783169</ele>
        <time>2022-08-07T12:28:50.448Z</time>
      </trkpt>
      <trkpt lat="47.86885" lon="16.98445">
        <ele>124.69506</ele>
        <time>2022-08-07T12:29:34.152Z</time>
      </trkpt>
      <trkpt lat="47.86883" lon="16.9846">
        <ele>124.664955</ele>
        <time>2022-08-07T12:29:36.625Z</time>
      </trkpt>
      <trkpt lat="47.86808" lon="16.98938">
        <ele>124.360824</ele>
        <time>2022-08-07T12:31:03.428Z</time>
      </trkpt>
      <trkpt lat="47.86699" lon="16.9969">
        <ele>125.76089</ele>
        <time>2022-08-07T12:33:29.446Z</time>
      </trkpt>
      <trkpt lat="47.86688" lon="16.99805">
        <ele>125.683317</ele>
        <time>2022-08-07T12:33:49.900Z</time>
      </trkpt>
      <trkpt lat="47.86688" lon="16.99941">
        <ele>125.584459</ele>
        <time>2022-08-07T12:34:13.185Z</time>
      </trkpt>
      <trkpt lat="47.86688" lon="16.99956">
        <ele>125.558976</ele>
        <time>2022-08-07T12:34:15.860Z</time>
      </trkpt>
      <trkpt lat="47.86687" lon="17.00154">
        <ele>125.230554</ele>
        <time>2022-08-07T12:34:49.367Z</time>
      </trkpt>
      <trkpt lat="47.86677" lon="17.0027">
        <ele>125.2827</ele>
        <time>2022-08-07T12:35:10.098Z</time>
      </trkpt>
      <trkpt lat="47.86533" lon="17.01041">
        <ele>126.911226</ele>
        <time>2022-08-07T12:37:42.072Z</time>
      </trkpt>
      <trkpt lat="47.86458" lon="17.01433">
        <ele>127.711432</ele>
        <time>2022-08-07T12:38:59.981Z</time>
      </trkpt>
      <trkpt lat="47.86449" lon="17.01477">
        <ele>127.781331</ele>
        <time>2022-08-07T12:39:08.162Z</time>
      </trkpt>
      <trkpt lat="47.86441" lon="17.01561">
        <ele>127.623535</ele>
        <time>2022-08-07T12:39:23.018Z</time>
      </trkpt>
      <trkpt lat="47.86419" lon="17.01866">
        <ele>126.933795</ele>
        <time>2022-08-07T12:40:13.265Z</time>
      </trkpt>
      <trkpt lat="47.86418" lon="17.01872">
        <ele>126.924511</ele>
        <time>2022-08-07T12:40:14.346Z</time>
      </trkpt>
      <trkpt lat="47.86395" lon="17.0222">
        <ele>126.683845</ele>
        <time>2022-08-07T12:41:17.024Z</time>
      </trkpt>
      <trkpt lat="47.86394" lon="17.02238">
        <ele>126.682341</ele>
        <time>2022-08-07T12:41:20.198Z</time>
      </trkpt>
      <trkpt lat="47.86351" lon="17.02837">
        <ele>126.590627</ele>
        <time>2022-08-07T12:43:07.333Z</time>
      </trkpt>
      <trkpt lat="47.86334" lon="17.03068">
        <ele>126.963749</ele>
        <time>2022-08-07T12:43:51.404Z</time>
      </trkpt>
      <trkpt lat="47.86327" lon="17.03099">
        <ele>126.994107</ele>
        <time>2022-08-07T12:43:57.585Z</time>
      </trkpt>
      <trkpt lat="47.86293" lon="17.03181">
        <ele>126.870765</ele>
        <time>2022-08-07T12:44:15.017Z</time>
      </trkpt>
      <trkpt lat="47.86283" lon="17.03268">
        <ele>126.757282</ele>
        <time>2022-08-07T12:44:30.179Z</time>
      </trkpt>
      <trkpt lat="47.86278" lon="17.03347">
        <ele>126.642035</ele>
        <time>2022-08-07T12:44:43.283Z</time>
      </trkpt>
      <trkpt lat="47.86273" lon="17.0347">
        <ele>125.94279</ele>
        <time>2022-08-07T12:45:02.803Z</time>
      </trkpt>
      <trkpt lat="47.86288" lon="17.03595">
        <ele>125.220085</ele>
        <time>2022-08-07T12:45:22.494Z</time>
      </trkpt>
      <trkpt lat="47.86295" lon="17.03627">
        <ele>125.026636</ele>
        <time>2022-08-07T12:45:27.714Z</time>
      </trkpt>
      <trkpt lat="47.86326" lon="17.03765">
        <ele>124.175163</ele>
        <time>2022-08-07T12:45:50.615Z</time>
      </trkpt>
      <trkpt lat="47.86346" lon="17.03814">
        <ele>123.835857</ele>
        <time>2022-08-07T12:45:59.771Z</time>
      </trkpt>
      <trkpt lat="47.86369" lon="17.03857">
        <ele>123.538988</ele>
        <time>2022-08-07T12:46:08.485Z</time>
      </trkpt>
      <trkpt lat="47.86409" lon="17.0391">
        <ele>123.286876</ele>
        <time>2022-08-07T12:46:21.411Z</time>
      </trkpt>
      <trkpt lat="47.86487" lon="17.03988">
        <ele>122.84628</ele>
        <time>2022-08-07T12:46:44.581Z</time>
      </trkpt>
      <trkpt lat="47.86517" lon="17.04029">
        <ele>122.726045</ele>
        <time>2022-08-07T12:46:55.155Z</time>
      </trkpt>
      <trkpt lat="47.86553" lon="17.04106">
        <ele>122.763589</ele>
        <time>2022-08-07T12:47:12.122Z</time>
      </trkpt>
      <trkpt lat="47.86579" lon="17.04197">
        <ele>122.803039</ele>
        <time>2022-08-07T12:47:30.190Z</time>
      </trkpt>
      <trkpt lat="47.86615" lon="17.04116">
        <ele>122.914841</ele>
        <time>2022-08-07T12:47:59.601Z</time>
      </trkpt>
      <trkpt lat="47.86616" lon="17.04086">
        <ele>122.979647</ele>
        <time>2022-08-07T12:48:08.844Z</time>
      </trkpt>
      <trkpt lat="47.86621" lon="17.04055">
        <ele>123.048582</ele>
        <time>2022-08-07T12:48:18.646Z</time>
      </trkpt>
      <trkpt lat="47.86645" lon="17.04008">
        <ele>123.175995</ele>
        <time>2022-08-07T12:48:36.920Z</time>
      </trkpt>
      <trkpt lat="47.8677" lon="17.03754">
        <ele>123.937849</ele>
        <time>2022-08-07T12:50:15.125Z</time>
      </trkpt>
      <trkpt lat="47.86797" lon="17.0373">
        <ele>124.059428</ele>
        <time>2022-08-07T12:50:29.881Z</time>
      </trkpt>
      <trkpt lat="47.86804" lon="17.03709">
        <ele>124.093624</ele>
        <time>2022-08-07T12:50:37.024Z</time>
      </trkpt>
      <trkpt lat="47.86852" lon="17.03774">
        <ele>124.147315</ele>
        <time>2022-08-07T12:50:55.348Z</time>
      </trkpt>
      <trkpt lat="47.87512" lon="17.04597">
        <ele>124.643747</ele>
        <time>2022-08-07T12:54:47.277Z</time>
      </trkpt>
      <trkpt lat="47.8761" lon="17.0499">
        <ele>123.776969</ele>
        <time>2022-08-07T12:55:57.819Z</time>
      </trkpt>
      <trkpt lat="47.87811" lon="17.05825">
        <ele>122.712011</ele>
        <time>2022-08-07T12:58:31.610Z</time>
      </trkpt>
      <trkpt lat="47.8802" lon="17.06671">
        <ele>123.938776</ele>
        <time>2022-08-07T13:01:19.192Z</time>
      </trkpt>
      <trkpt lat="47.88045" lon="17.06774">
        <ele>124.133617</ele>
        <time>2022-08-07T13:01:40.301Z</time>
      </trkpt>
      <trkpt lat="47.88434" lon="17.06442">
        <ele>124.990948</ele>
        <time>2022-08-07T13:03:42.885Z</time>
      </trkpt>
      <trkpt lat="47.88811" lon="17.06116">
        <ele>126.730517</ele>
        <time>2022-08-07T13:05:49.593Z</time>
      </trkpt>
      <trkpt lat="47.88915" lon="17.06524">
        <ele>126.419245</ele>
        <time>2022-08-07T13:07:04.875Z</time>
      </trkpt>
      <trkpt lat="47.88925" lon="17.06527">
        <ele>126.39945</ele>
        <time>2022-08-07T13:07:07.712Z</time>
      </trkpt>
      <trkpt lat="47.88983" lon="17.06449">
        <ele>126.259572</ele>
        <time>2022-08-07T13:07:27.796Z</time>
      </trkpt>
      <trkpt lat="47.89168" lon="17.06699">
        <ele>126.301895</ele>
        <time>2022-08-07T13:08:33.724Z</time>
      </trkpt>
      <trkpt lat="47.89218" lon="17.06763">
        <ele>126.524646</ele>
        <time>2022-08-07T13:08:52.661Z</time>
      </trkpt>
      <trkpt lat="47.89255" lon="17.06786">
        <ele>126.661858</ele>
        <time>2022-08-07T13:09:04.446Z</time>
      </trkpt>
      <trkpt lat="47.89263" lon="17.06778">
        <ele>126.69439</ele>
        <time>2022-08-07T13:09:07.514Z</time>
      </trkpt>
      <trkpt lat="47.89277" lon="17.06783">
        <ele>126.744033</ele>
        <time>2022-08-07T13:09:11.832Z</time>
      </trkpt>
      <trkpt lat="47.89323" lon="17.06828">
        <ele>127.095868</ele>
        <time>2022-08-07T13:09:28.403Z</time>
      </trkpt>
      <trkpt lat="47.89385" lon="17.06902">
        <ele>127.619368</ele>
        <time>2022-08-07T13:09:54.051Z</time>
      </trkpt>
      <trkpt lat="47.89432" lon="17.06947">
        <ele>127.956194</ele>
        <time>2022-08-07T13:10:10.757Z</time>
      </trkpt>
      <trkpt lat="47.89478" lon="17.06851">
        <ele>128.129669</ele>
        <time>2022-08-07T13:10:33.825Z</time>
      </trkpt>
      <trkpt lat="47.895" lon="17.06875">
        <ele>128.190751</ele>
        <time>2022-08-07T13:10:41.589Z</time>
      </trkpt>
      <trkpt lat="47.89814" lon="17.07216">
        <ele>127.75408</ele>
        <time>2022-08-07T13:12:21.303Z</time>
      </trkpt>
      <trkpt lat="47.89836" lon="17.0724">
        <ele>127.720699</ele>
        <time>2022-08-07T13:12:28.534Z</time>
      </trkpt>
      <trkpt lat="47.90195" lon="17.07623">
        <ele>128.922206</ele>
        <time>2022-08-07T13:14:38.072Z</time>
      </trkpt>
      <trkpt lat="47.90235" lon="17.07661">
        <ele>129.022029</ele>
        <time>2022-08-07T13:14:51.518Z</time>
      </trkpt>
      <trkpt lat="47.90265" lon="17.0768">
        <ele>129.090663</ele>
        <time>2022-08-07T13:15:00.769Z</time>
      </trkpt>
      <trkpt lat="47.90341" lon="17.07703">
        <ele>129.267603</ele>
        <time>2022-08-07T13:15:22.647Z</time>
      </trkpt>
      <trkpt lat="47.90386" lon="17.07702">
        <ele>129.37673</ele>
        <time>2022-08-07T13:15:35.650Z</time>
      </trkpt>
      <trkpt lat="47.90594" lon="17.07643">
        <ele>129.756323</ele>
        <time>2022-08-07T13:16:38.188Z</time>
      </trkpt>
      <trkpt lat="47.90643" lon="17.0764">
        <ele>129.823388</ele>
        <time>2022-08-07T13:16:51.464Z</time>
      </trkpt>
      <trkpt lat="47.90707" lon="17.07655">
        <ele>129.381104</ele>
        <time>2022-08-07T13:17:08.082Z</time>
      </trkpt>
      <trkpt lat="47.90745" lon="17.07681">
        <ele>129.06139</ele>
        <time>2022-08-07T13:17:18.474Z</time>
      </trkpt>
      <trkpt lat="47.91092" lon="17.07968">
        <ele>125.307695</ele>
        <time>2022-08-07T13:18:53.904Z</time>
      </trkpt>
      <trkpt lat="47.91155" lon="17.08021">
        <ele>124.823724</ele>
        <time>2022-08-07T13:19:12.468Z</time>
      </trkpt>
      <trkpt lat="47.91186" lon="17.08047">
        <ele>124.698768</ele>
        <time>2022-08-07T13:19:21.904Z</time>
      </trkpt>
      <trkpt lat="47.91223" lon="17.08077">
        <ele>124.553717</ele>
        <time>2022-08-07T13:19:33.092Z</time>
      </trkpt>
      <trkpt lat="47.91276" lon="17.08121">
        <ele>124.342293</ele>
        <time>2022-08-07T13:19:49.405Z</time>
      </trkpt>
      <trkpt lat="47.91328" lon="17.08164">
        <ele>124.215028</ele>
        <time>2022-08-07T13:20:04.887Z</time>
      </trkpt>
      <trkpt lat="47.91689" lon="17.08464">
        <ele>123.71194</ele>
        <time>2022-08-07T13:21:56.915Z</time>
      </trkpt>
      <trkpt lat="47.91686" lon="17.08472">
        <ele>123.715772</ele>
        <time>2022-08-07T13:21:59.796Z</time>
      </trkpt>
      <trkpt lat="47.91677" lon="17.08472">
        <ele>123.721244</ele>
        <time>2022-08-07T13:22:03.921Z</time>
      </trkpt>
      <trkpt lat="47.91686" lon="17.08472">
        <ele>123.726716</ele>
        <time>2022-08-07T13:22:07.956Z</time>
      </trkpt>
      <trkpt lat="47.91689" lon="17.08464">
        <ele>123.730548</ele>
        <time>2022-08-07T13:22:10.748Z</time>
      </trkpt>
      <trkpt lat="47.91731" lon="17.08477">
        <ele>123.756707</ele>
        <time>2022-08-07T13:22:23.449Z</time>
      </trkpt>
      <trkpt lat="47.91753" lon="17.0847">
        <ele>123.826001</ele>
        <time>2022-08-07T13:22:30.416Z</time>
      </trkpt>
      <trkpt lat="47.91782" lon="17.08449">
        <ele>123.941273</ele>
        <time>2022-08-07T13:22:40.042Z</time>
      </trkpt>
      <trkpt lat="47.91809" lon="17.08405">
        <ele>124.08632</ele>
        <time>2022-08-07T13:22:52.053Z</time>
      </trkpt>
      <trkpt lat="47.91844" lon="17.08326">
        <ele>124.316505</ele>
        <time>2022-08-07T13:23:11.062Z</time>
      </trkpt>
      <trkpt lat="47.92023" lon="17.07919">
        <ele>124.319337</ele>
        <time>2022-08-07T13:24:40.414Z</time>
      </trkpt>
      <trkpt lat="47.92052" lon="17.07876">
        <ele>124.32243</ele>
        <time>2022-08-07T13:24:51.901Z</time>
      </trkpt>
      <trkpt lat="47.92095" lon="17.07852">
        <ele>124.478074</ele>
        <time>2022-08-07T13:25:05.013Z</time>
      </trkpt>
      <trkpt lat="47.92238" lon="17.07792">
        <ele>125.330104</ele>
        <time>2022-08-07T13:25:51.037Z</time>
      </trkpt>
      <trkpt lat="47.92282" lon="17.07773">
        <ele>125.584166</ele>
        <time>2022-08-07T13:26:05.863Z</time>
      </trkpt>
      <trkpt lat="47.92455" lon="17.07702">
        <ele>126.32833</ele>
        <time>2022-08-07T13:26:57.866Z</time>
      </trkpt>
      <trkpt lat="47.9246" lon="17.077">
        <ele>126.325381</ele>
        <time>2022-08-07T13:26:59.196Z</time>
      </trkpt>
      <trkpt lat="47.92989" lon="17.07481">
        <ele>126.022032</ele>
        <time>2022-08-07T13:29:22.223Z</time>
      </trkpt>
      <trkpt lat="47.93043" lon="17.07459">
        <ele>126.152251</ele>
        <time>2022-08-07T13:29:37.868Z</time>
      </trkpt>
      <trkpt lat="47.93052" lon="17.07456">
        <ele>126.173792</ele>
        <time>2022-08-07T13:29:40.435Z</time>
      </trkpt>
      <trkpt lat="47.93218" lon="17.07407">
        <ele>126.888095</ele>
        <time>2022-08-07T13:30:29.796Z</time>
      </trkpt>
      <trkpt lat="47.93313" lon="17.07381">
        <ele>127.383547</ele>
        <time>2022-08-07T13:30:58.260Z</time>
      </trkpt>
      <trkpt lat="47.9329" lon="17.07435">
        <ele>127.58616</ele>
        <time>2022-08-07T13:31:11.279Z</time>
      </trkpt>
      <trkpt lat="47.93722" lon="17.07705">
        <ele>129.768295</ele>
        <time>2022-08-07T13:33:31.747Z</time>
      </trkpt>
      <trkpt lat="47.93755" lon="17.07726">
        <ele>129.795976</ele>
        <time>2022-08-07T13:33:42.464Z</time>
      </trkpt>
      <trkpt lat="47.93768" lon="17.07734">
        <ele>129.804481</ele>
        <time>2022-08-07T13:33:46.515Z</time>
      </trkpt>
      <trkpt lat="47.93753" lon="17.07808">
        <ele>129.836485</ele>
        <time>2022-08-07T13:34:00.999Z</time>
      </trkpt>
      <trkpt lat="47.93741" lon="17.07868">
        <ele>129.86252</ele>
        <time>2022-08-07T13:34:12.169Z</time>
      </trkpt>
      <trkpt lat="47.93732" lon="17.07908">
        <ele>129.879981</ele>
        <time>2022-08-07T13:34:19.257Z</time>
      </trkpt>
      <trkpt lat="47.93725" lon="17.07945">
        <ele>129.810048</ele>
        <time>2022-08-07T13:34:25.472Z</time>
      </trkpt>
      <trkpt lat="47.93721" lon="17.07957">
        <ele>129.768835</ele>
        <time>2022-08-07T13:34:27.624Z</time>
      </trkpt>
      <trkpt lat="47.93714" lon="17.07983">
        <ele>129.682306</ele>
        <time>2022-08-07T13:34:32.242Z</time>
      </trkpt>
      <trkpt lat="47.93713" lon="17.0799">
        <ele>129.657893</ele>
        <time>2022-08-07T13:34:33.537Z</time>
      </trkpt>
      <trkpt lat="47.93711" lon="17.07997">
        <ele>129.636736</ele>
        <time>2022-08-07T13:34:34.692Z</time>
      </trkpt>
      <trkpt lat="47.93703" lon="17.08039">
        <ele>129.497532</ele>
        <time>2022-08-07T13:34:42.180Z</time>
      </trkpt>
      <trkpt lat="47.93707" lon="17.08044">
        <ele>129.474772</ele>
        <time>2022-08-07T13:34:43.500Z</time>
      </trkpt>
      <trkpt lat="47.93712" lon="17.08049">
        <ele>129.445296</ele>
        <time>2022-08-07T13:34:45.121Z</time>
      </trkpt>
      <trkpt lat="47.93768" lon="17.08115">
        <ele>129.111315</ele>
        <time>2022-08-07T13:35:03.618Z</time>
      </trkpt>
      <trkpt lat="47.93869" lon="17.08227">
        <ele>128.755412</ele>
        <time>2022-08-07T13:35:35.823Z</time>
      </trkpt>
      <trkpt lat="47.93882" lon="17.08241">
        <ele>128.71583</ele>
        <time>2022-08-07T13:35:39.942Z</time>
      </trkpt>
      <trkpt lat="47.93893" lon="17.08254">
        <ele>128.677081</ele>
        <time>2022-08-07T13:35:44.200Z</time>
      </trkpt>
      <trkpt lat="47.93905" lon="17.08268">
        <ele>128.638959</ele>
        <time>2022-08-07T13:35:48.413Z</time>
      </trkpt>
      <trkpt lat="47.93912" lon="17.08276">
        <ele>128.614728</ele>
        <time>2022-08-07T13:35:51.104Z</time>
      </trkpt>
      <trkpt lat="47.93932" lon="17.08299">
        <ele>128.608081</ele>
        <time>2022-08-07T13:35:58.434Z</time>
      </trkpt>
      <trkpt lat="47.93935" lon="17.08302">
        <ele>128.617388</ele>
        <time>2022-08-07T13:35:59.549Z</time>
      </trkpt>
      <trkpt lat="47.93967" lon="17.08338">
        <ele>128.713386</ele>
        <time>2022-08-07T13:36:10.893Z</time>
      </trkpt>
      <trkpt lat="47.93975" lon="17.08347">
        <ele>128.738953</ele>
        <time>2022-08-07T13:36:13.909Z</time>
      </trkpt>
      <trkpt lat="47.9399" lon="17.08364">
        <ele>128.784207</ele>
        <time>2022-08-07T13:36:19.191Z</time>
      </trkpt>
      <trkpt lat="47.94035" lon="17.08415">
        <ele>128.923004</ele>
        <time>2022-08-07T13:36:35.554Z</time>
      </trkpt>
      <trkpt lat="47.94056" lon="17.08439">
        <ele>128.987662</ele>
        <time>2022-08-07T13:36:43.391Z</time>
      </trkpt>
      <trkpt lat="47.94058" lon="17.08441">
        <ele>128.992953</ele>
        <time>2022-08-07T13:36:44.042Z</time>
      </trkpt>
      <trkpt lat="47.94109" lon="17.08501">
        <ele>129.03928</ele>
        <time>2022-08-07T13:37:03.703Z</time>
      </trkpt>
      <trkpt lat="47.94205" lon="17.08609">
        <ele>129.083731</ele>
        <time>2022-08-07T13:37:35.427Z</time>
      </trkpt>
      <trkpt lat="47.9423" lon="17.08656">
        <ele>128.889549</ele>
        <time>2022-08-07T13:37:45.363Z</time>
      </trkpt>
      <trkpt lat="47.94233" lon="17.0866">
        <ele>128.867073</ele>
        <time>2022-08-07T13:37:46.315Z</time>
      </trkpt>
      <trkpt lat="47.94239" lon="17.08672">
        <ele>128.809104</ele>
        <time>2022-08-07T13:37:48.829Z</time>
      </trkpt>
      <trkpt lat="47.94246" lon="17.08683">
        <ele>128.751601</ele>
        <time>2022-08-07T13:37:51.310Z</time>
      </trkpt>
      <trkpt lat="47.94256" lon="17.08697">
        <ele>128.677386</ele>
        <time>2022-08-07T13:37:54.485Z</time>
      </trkpt>
      <trkpt lat="47.94262" lon="17.08704">
        <ele>128.632637</ele>
        <time>2022-08-07T13:37:56.356Z</time>
      </trkpt>
      <trkpt lat="47.94404" lon="17.08895">
        <ele>127.881297</ele>
        <time>2022-08-07T13:38:42.526Z</time>
      </trkpt>
      <trkpt lat="47.94506" lon="17.09039">
        <ele>127.800921</ele>
        <time>2022-08-07T13:39:21.326Z</time>
      </trkpt>
      <trkpt lat="47.94526" lon="17.09072">
        <ele>127.863551</ele>
        <time>2022-08-07T13:39:30.006Z</time>
      </trkpt>
      <trkpt lat="47.94553" lon="17.09098">
        <ele>127.93014</ele>
        <time>2022-08-07T13:39:39.112Z</time>
      </trkpt>
      <trkpt lat="47.94559" lon="17.091">
        <ele>127.941688</ele>
        <time>2022-08-07T13:39:40.662Z</time>
      </trkpt>
      <trkpt lat="47.9459" lon="17.09118">
        <ele>128.01163</ele>
        <time>2022-08-07T13:39:50.028Z</time>
      </trkpt>
      <trkpt lat="47.94595" lon="17.0912">
        <ele>128.022739</ele>
        <time>2022-08-07T13:39:51.500Z</time>
      </trkpt>
      <trkpt lat="47.94665" lon="17.09183">
        <ele>128.024255</ele>
        <time>2022-08-07T13:40:13.275Z</time>
      </trkpt>
      <trkpt lat="47.94736" lon="17.09226">
        <ele>127.971612</ele>
        <time>2022-08-07T13:40:33.231Z</time>
      </trkpt>
      <trkpt lat="47.94805" lon="17.09277">
        <ele>127.902617</ele>
        <time>2022-08-07T13:40:53.316Z</time>
      </trkpt>
      <trkpt lat="47.94921" lon="17.09352">
        <ele>127.75724</ele>
        <time>2022-08-07T13:41:26.293Z</time>
      </trkpt>
      <trkpt lat="47.95154" lon="17.09485">
        <ele>127.912219</ele>
        <time>2022-08-07T13:42:33.202Z</time>
      </trkpt>
      <trkpt lat="47.95156" lon="17.09487">
        <ele>127.917919</ele>
        <time>2022-08-07T13:42:33.895Z</time>
      </trkpt>
      <trkpt lat="47.95181" lon="17.095">
        <ele>127.980103</ele>
        <time>2022-08-07T13:42:41.748Z</time>
      </trkpt>
      <trkpt lat="47.95188" lon="17.09503">
        <ele>127.998608</ele>
        <time>2022-08-07T13:42:43.936Z</time>
      </trkpt>
      <trkpt lat="47.95317" lon="17.09556">
        <ele>128.248059</ele>
        <time>2022-08-07T13:43:21.906Z</time>
      </trkpt>
      <trkpt lat="47.95561" lon="17.0965">
        <ele>128.373974</ele>
        <time>2022-08-07T13:44:28.587Z</time>
      </trkpt>
      <trkpt lat="47.95785" lon="17.09705">
        <ele>128.631595</ele>
        <time>2022-08-07T13:45:30.544Z</time>
      </trkpt>
      <trkpt lat="47.95841" lon="17.09702">
        <ele>128.793365</ele>
        <time>2022-08-07T13:45:46.181Z</time>
      </trkpt>
      <trkpt lat="47.96156" lon="17.0957">
        <ele>130.278988</ele>
        <time>2022-08-07T13:47:20.091Z</time>
      </trkpt>
      <trkpt lat="47.96209" lon="17.09541">
        <ele>130.727578</ele>
        <time>2022-08-07T13:47:38.373Z</time>
      </trkpt>
      <trkpt lat="47.96294" lon="17.09473">
        <ele>131.493493</ele>
        <time>2022-08-07T13:48:09.507Z</time>
      </trkpt>
      <trkpt lat="47.96319" lon="17.0946">
        <ele>131.657848</ele>
        <time>2022-08-07T13:48:17.155Z</time>
      </trkpt>
      <trkpt lat="47.96428" lon="17.09457">
        <ele>130.739584</ele>
        <time>2022-08-07T13:48:43.480Z</time>
      </trkpt>
      <trkpt lat="47.96468" lon="17.09441">
        <ele>130.397445</ele>
        <time>2022-08-07T13:48:52.402Z</time>
      </trkpt>
      <trkpt lat="47.9657" lon="17.09369">
        <ele>129.251411</ele>
        <time>2022-08-07T13:49:17.013Z</time>
      </trkpt>
      <trkpt lat="47.96598" lon="17.09351">
        <ele>128.921697</ele>
        <time>2022-08-07T13:49:23.850Z</time>
      </trkpt>
      <trkpt lat="47.96634" lon="17.0934">
        <ele>128.533976</ele>
        <time>2022-08-07T13:49:32.666Z</time>
      </trkpt>
      <trkpt lat="47.96705" lon="17.09339">
        <ele>128.363624</ele>
        <time>2022-08-07T13:49:51.222Z</time>
      </trkpt>
      <trkpt lat="47.96765" lon="17.09329">
        <ele>128.515911</ele>
        <time>2022-08-07T13:50:08.359Z</time>
      </trkpt>
      <trkpt lat="47.96816" lon="17.0931">
        <ele>128.646659</ele>
        <time>2022-08-07T13:50:23.221Z</time>
      </trkpt>
      <trkpt lat="47.96956" lon="17.09217">
        <ele>129.759362</ele>
        <time>2022-08-07T13:51:09.697Z</time>
      </trkpt>
      <trkpt lat="47.9705" lon="17.09106">
        <ele>130.920049</ele>
        <time>2022-08-07T13:51:47.809Z</time>
      </trkpt>
      <trkpt lat="47.97111" lon="17.09062">
        <ele>131.661926</ele>
        <time>2022-08-07T13:52:10.466Z</time>
      </trkpt>
      <trkpt lat="47.97177" lon="17.08967">
        <ele>132.192532</ele>
        <time>2022-08-07T13:52:38.733Z</time>
      </trkpt>
      <trkpt lat="47.97221" lon="17.0894">
        <ele>132.270361</ele>
        <time>2022-08-07T13:52:52.249Z</time>
      </trkpt>
      <trkpt lat="47.97408" lon="17.08915">
        <ele>131.714327</ele>
        <time>2022-08-07T13:53:38.639Z</time>
      </trkpt>
      <trkpt lat="47.97453" lon="17.08902">
        <ele>131.415184</ele>
        <time>2022-08-07T13:53:49.284Z</time>
      </trkpt>
      <trkpt lat="47.97473" lon="17.08886">
        <ele>131.2618</ele>
        <time>2022-08-07T13:53:54.733Z</time>
      </trkpt>
      <trkpt lat="47.97547" lon="17.08799">
        <ele>130.511863</ele>
        <time>2022-08-07T13:54:16.420Z</time>
      </trkpt>
      <trkpt lat="47.97599" lon="17.08713">
        <ele>129.878954</ele>
        <time>2022-08-07T13:54:35.030Z</time>
      </trkpt>
      <trkpt lat="47.97678" lon="17.08633">
        <ele>129.56749</ele>
        <time>2022-08-07T13:54:58.474Z</time>
      </trkpt>
      <trkpt lat="47.97771" lon="17.08516">
        <ele>129.328918</ele>
        <time>2022-08-07T13:55:31.230Z</time>
      </trkpt>
      <trkpt lat="47.97802" lon="17.08469">
        <ele>129.337281</ele>
        <time>2022-08-07T13:55:43.477Z</time>
      </trkpt>
      <trkpt lat="47.97845" lon="17.08384">
        <ele>129.350615</ele>
        <time>2022-08-07T13:56:02.548Z</time>
      </trkpt>
      <trkpt lat="47.97958" lon="17.0843">
        <ele>129.22248</ele>
        <time>2022-08-07T13:56:33.136Z</time>
      </trkpt>
      <trkpt lat="47.98097" lon="17.08522">
        <ele>128.996284</ele>
        <time>2022-08-07T13:57:11.776Z</time>
      </trkpt>
      <trkpt lat="47.9864" lon="17.08763">
        <ele>128.670565</ele>
        <time>2022-08-07T13:59:41.692Z</time>
      </trkpt>
      <trkpt lat="47.98736" lon="17.088">
        <ele>128.709783</ele>
        <time>2022-08-07T14:00:08.553Z</time>
      </trkpt>
      <trkpt lat="47.98969" lon="17.08864">
        <ele>129.039244</ele>
        <time>2022-08-07T14:01:13.398Z</time>
      </trkpt>
      <trkpt lat="47.99191" lon="17.08876">
        <ele>129.268392</ele>
        <time>2022-08-07T14:02:14.695Z</time>
      </trkpt>
      <trkpt lat="47.99538" lon="17.09299">
        <ele>128.213189</ele>
        <time>2022-08-07T14:04:08.668Z</time>
      </trkpt>
      <trkpt lat="47.99548" lon="17.09309">
        <ele>128.201148</ele>
        <time>2022-08-07T14:04:11.634Z</time>
      </trkpt>
      <trkpt lat="47.99736" lon="17.09501">
        <ele>127.996842</ele>
        <time>2022-08-07T14:05:11.685Z</time>
      </trkpt>
      <trkpt lat="47.9991" lon="17.09628">
        <ele>127.902711</ele>
        <time>2022-08-07T14:06:03.280Z</time>
      </trkpt>
      <trkpt lat="47.9996" lon="17.09656">
        <ele>127.877235</ele>
        <time>2022-08-07T14:06:17.141Z</time>
      </trkpt>
      <trkpt lat="47.99967" lon="17.09664">
        <ele>127.872619</ele>
        <time>2022-08-07T14:06:19.642Z</time>
      </trkpt>
      <trkpt lat="47.99977" lon="17.09677">
        <ele>127.866123</ele>
        <time>2022-08-07T14:06:23.150Z</time>
      </trkpt>
      <trkpt lat="47.99982" lon="17.09683">
        <ele>127.863137</ele>
        <time>2022-08-07T14:06:24.757Z</time>
      </trkpt>
      <trkpt lat="48.00211" lon="17.0996">
        <ele>127.602632</ele>
        <time>2022-08-07T14:07:41.411Z</time>
      </trkpt>
      <trkpt lat="48.00268" lon="17.10031">
        <ele>127.584513</ele>
        <time>2022-08-07T14:08:01.765Z</time>
      </trkpt>
      <trkpt lat="48.00465" lon="17.10274">
        <ele>128.299264</ele>
        <time>2022-08-07T14:09:12.869Z</time>
      </trkpt>
      <trkpt lat="48.00577" lon="17.1041">
        <ele>128.917951</ele>
        <time>2022-08-07T14:09:55.001Z</time>
      </trkpt>
      <trkpt lat="48.00594" lon="17.1043">
        <ele>129.016138</ele>
        <time>2022-08-07T14:10:01.496Z</time>
      </trkpt>
      <trkpt lat="48.00661" lon="17.10504">
        <ele>129.391536</ele>
        <time>2022-08-07T14:10:25.858Z</time>
      </trkpt>
      <trkpt lat="48.00784" lon="17.10655">
        <ele>129.906479</ele>
        <time>2022-08-07T14:11:10.327Z</time>
      </trkpt>
      <trkpt lat="48.00876" lon="17.10771">
        <ele>130.346358</ele>
        <time>2022-08-07T14:11:43.705Z</time>
      </trkpt>
      <trkpt lat="48.0093" lon="17.10839">
        <ele>130.695374</ele>
        <time>2022-08-07T14:12:04.793Z</time>
      </trkpt>
      <trkpt lat="48.00992" lon="17.10901">
        <ele>131.048232</ele>
        <time>2022-08-07T14:12:26.934Z</time>
      </trkpt>
      <trkpt lat="48.00998" lon="17.10906">
        <ele>131.073156</ele>
        <time>2022-08-07T14:12:28.823Z</time>
      </trkpt>
      <trkpt lat="48.01021" lon="17.10915">
        <ele>131.164426</ele>
        <time>2022-08-07T14:12:35.633Z</time>
      </trkpt>
      <trkpt lat="48.01028" lon="17.10891">
        <ele>131.231543</ele>
        <time>2022-08-07T14:12:40.760Z</time>
      </trkpt>
      <trkpt lat="48.01036" lon="17.10862">
        <ele>131.310494</ele>
        <time>2022-08-07T14:12:46.715Z</time>
      </trkpt>
      <trkpt lat="48.01081" lon="17.10724">
        <ele>131.657687</ele>
        <time>2022-08-07T14:13:16.113Z</time>
      </trkpt>
      <trkpt lat="48.01128" lon="17.10625">
        <ele>131.514843</ele>
        <time>2022-08-07T14:13:37.183Z</time>
      </trkpt>
      <trkpt lat="48.01167" lon="17.10548">
        <ele>131.40116</ele>
        <time>2022-08-07T14:13:53.582Z</time>
      </trkpt>
      <trkpt lat="48.01175" lon="17.10534">
        <ele>131.380892</ele>
        <time>2022-08-07T14:13:56.588Z</time>
      </trkpt>
      <trkpt lat="48.01287" lon="17.10318">
        <ele>130.471084</ele>
        <time>2022-08-07T14:14:41.405Z</time>
      </trkpt>
      <trkpt lat="48.01311" lon="17.10273">
        <ele>130.330544</ele>
        <time>2022-08-07T14:14:50.851Z</time>
      </trkpt>
      <trkpt lat="48.01356" lon="17.10185">
        <ele>130.095075</ele>
        <time>2022-08-07T14:15:09.776Z</time>
      </trkpt>
      <trkpt lat="48.01388" lon="17.10118">
        <ele>129.921102</ele>
        <time>2022-08-07T14:15:24.075Z</time>
      </trkpt>
      <trkpt lat="48.01529" lon="17.09826">
        <ele>129.532873</ele>
        <time>2022-08-07T14:16:25.922Z</time>
      </trkpt>
      <trkpt lat="48.01529" lon="17.09807">
        <ele>129.550054</ele>
        <time>2022-08-07T14:16:28.919Z</time>
      </trkpt>
      <trkpt lat="48.01893" lon="17.09048">
        <ele>130.427504</ele>
        <time>2022-08-07T14:19:21.078Z</time>
      </trkpt>
      <trkpt lat="48.01906" lon="17.09022">
        <ele>130.458078</ele>
        <time>2022-08-07T14:19:27.001Z</time>
      </trkpt>
      <trkpt lat="48.01931" lon="17.0899">
        <ele>130.486128</ele>
        <time>2022-08-07T14:19:35.849Z</time>
      </trkpt>
      <trkpt lat="48.01971" lon="17.0897">
        <ele>130.475352</ele>
        <time>2022-08-07T14:19:47.047Z</time>
      </trkpt>
      <trkpt lat="48.02035" lon="17.08946">
        <ele>130.458392</ele>
        <time>2022-08-07T14:20:04.565Z</time>
      </trkpt>
      <trkpt lat="48.02062" lon="17.08925">
        <ele>130.450625</ele>
        <time>2022-08-07T14:20:12.630Z</time>
      </trkpt>
      <trkpt lat="48.02235" lon="17.08718">
        <ele>130.518892</ele>
        <time>2022-08-07T14:21:11.608Z</time>
      </trkpt>
      <trkpt lat="48.02354" lon="17.08511">
        <ele>130.750283</ele>
        <time>2022-08-07T14:22:01.718Z</time>
      </trkpt>
      <trkpt lat="48.02471" lon="17.08268">
        <ele>131.196079</ele>
        <time>2022-08-07T14:22:58.066Z</time>
      </trkpt>
      <trkpt lat="48.02543" lon="17.08107">
        <ele>131.28753</ele>
        <time>2022-08-07T14:23:32.606Z</time>
      </trkpt>
      <trkpt lat="48.02567" lon="17.08052">
        <ele>131.29313</ele>
        <time>2022-08-07T14:23:44.358Z</time>
      </trkpt>
      <trkpt lat="48.02586" lon="17.07999">
        <ele>131.284688</ele>
        <time>2022-08-07T14:23:55.078Z</time>
      </trkpt>
      <trkpt lat="48.02626" lon="17.07815">
        <ele>131.278654</ele>
        <time>2022-08-07T14:24:29.251Z</time>
      </trkpt>
      <trkpt lat="48.0264" lon="17.07772">
        <ele>131.3102</ele>
        <time>2022-08-07T14:24:38.149Z</time>
      </trkpt>
      <trkpt lat="48.0274" lon="17.07564">
        <ele>131.419457</ele>
        <time>2022-08-07T14:25:24.643Z</time>
      </trkpt>
      <trkpt lat="48.02976" lon="17.07096">
        <ele>131.184206</ele>
        <time>2022-08-07T14:27:07.496Z</time>
      </trkpt>
      <trkpt lat="48.03057" lon="17.06933">
        <ele>131.263384</ele>
        <time>2022-08-07T14:27:44.231Z</time>
      </trkpt>
      <trkpt lat="48.03138" lon="17.06724">
        <ele>131.639028</ele>
        <time>2022-08-07T14:28:29.457Z</time>
      </trkpt>
      <trkpt lat="48.03144" lon="17.06723">
        <ele>131.655881</ele>
        <time>2022-08-07T14:28:31.112Z</time>
      </trkpt>
      <trkpt lat="48.0315" lon="17.06724">
        <ele>131.674786</ele>
        <time>2022-08-07T14:28:33.001Z</time>
      </trkpt>
      <trkpt lat="48.0327" lon="17.06393">
        <ele>132.261887</ele>
        <time>2022-08-07T14:29:43.628Z</time>
      </trkpt>
      <trkpt lat="48.03425" lon="17.05945">
        <ele>132.174432</ele>
        <time>2022-08-07T14:31:13.011Z</time>
      </trkpt>
      <trkpt lat="48.03467" lon="17.05822">
        <ele>131.990352</ele>
        <time>2022-08-07T14:31:36.220Z</time>
      </trkpt>
      <trkpt lat="48.03536" lon="17.05648">
        <ele>131.846032</ele>
        <time>2022-08-07T14:32:10.737Z</time>
      </trkpt>
      <trkpt lat="48.03738" lon="17.05177">
        <ele>132.588225</ele>
        <time>2022-08-07T14:33:55.850Z</time>
      </trkpt>
      <trkpt lat="48.03839" lon="17.04946">
        <ele>132.764031</ele>
        <time>2022-08-07T14:34:45.365Z</time>
      </trkpt>
      <trkpt lat="48.04112" lon="17.04444">
        <ele>133.436958</ele>
        <time>2022-08-07T14:36:44.300Z</time>
      </trkpt>
      <trkpt lat="48.04112" lon="17.04431">
        <ele>133.440616</ele>
        <time>2022-08-07T14:36:46.603Z</time>
      </trkpt>
      <trkpt lat="48.04185" lon="17.04297">
        <ele>133.489944</ele>
        <time>2022-08-07T14:37:17.393Z</time>
      </trkpt>
      <trkpt lat="48.04238" lon="17.04201">
        <ele>133.538824</ele>
        <time>2022-08-07T14:37:39.678Z</time>
      </trkpt>
      <trkpt lat="48.04256" lon="17.04167">
        <ele>133.557252</ele>
        <time>2022-08-07T14:37:47.360Z</time>
      </trkpt>
      <trkpt lat="48.04271" lon="17.04139">
        <ele>133.572985</ele>
        <time>2022-08-07T14:37:53.901Z</time>
      </trkpt>
      <trkpt lat="48.04278" lon="17.04127">
        <ele>133.579696</ele>
        <time>2022-08-07T14:37:56.662Z</time>
      </trkpt>
      <trkpt lat="48.04374" lon="17.03947">
        <ele>133.914574</ele>
        <time>2022-08-07T14:38:39.415Z</time>
      </trkpt>
      <trkpt lat="48.04417" lon="17.03878">
        <ele>134.107867</ele>
        <time>2022-08-07T14:38:57.801Z</time>
      </trkpt>
      <trkpt lat="48.04462" lon="17.03837">
        <ele>134.201909</ele>
        <time>2022-08-07T14:39:12.652Z</time>
      </trkpt>
      <trkpt lat="48.04561" lon="17.03775">
        <ele>134.312746</ele>
        <time>2022-08-07T14:39:41.573Z</time>
      </trkpt>
      <trkpt lat="48.04563" lon="17.03774">
        <ele>134.315213</ele>
        <time>2022-08-07T14:39:42.191Z</time>
      </trkpt>
      <trkpt lat="48.04597" lon="17.03749">
        <ele>134.351731</ele>
        <time>2022-08-07T14:39:52.179Z</time>
      </trkpt>
      <trkpt lat="48.04601" lon="17.03745">
        <ele>134.342491</ele>
        <time>2022-08-07T14:39:53.398Z</time>
      </trkpt>
      <trkpt lat="48.04637" lon="17.03695">
        <ele>134.247832</ele>
        <time>2022-08-07T14:40:06.427Z</time>
      </trkpt>
      <trkpt lat="48.04665" lon="17.03638">
        <ele>134.158005</ele>
        <time>2022-08-07T14:40:18.588Z</time>
      </trkpt>
      <trkpt lat="48.04705" lon="17.03558">
        <ele>134.03139</ele>
        <time>2022-08-07T14:40:35.552Z</time>
      </trkpt>
      <trkpt lat="48.04724" lon="17.0352">
        <ele>133.952354</ele>
        <time>2022-08-07T14:40:43.962Z</time>
      </trkpt>
      <trkpt lat="48.0477" lon="17.03455">
        <ele>133.778738</ele>
        <time>2022-08-07T14:41:00.088Z</time>
      </trkpt>
      <trkpt lat="48.04778" lon="17.03465">
        <ele>133.750984</ele>
        <time>2022-08-07T14:41:02.611Z</time>
      </trkpt>
      <trkpt lat="48.04806" lon="17.03505">
        <ele>133.645286</ele>
        <time>2022-08-07T14:41:12.290Z</time>
      </trkpt>
      <trkpt lat="48.04832" lon="17.03542">
        <ele>133.545831</ele>
        <time>2022-08-07T14:41:21.427Z</time>
      </trkpt>
      <trkpt lat="48.04863" lon="17.03586">
        <ele>133.543218</ele>
        <time>2022-08-07T14:41:32.371Z</time>
      </trkpt>
      <trkpt lat="48.04897" lon="17.03631">
        <ele>133.581256</ele>
        <time>2022-08-07T14:41:44.241Z</time>
      </trkpt>
      <trkpt lat="48.04899" lon="17.03638">
        <ele>133.585267</ele>
        <time>2022-08-07T14:41:45.524Z</time>
      </trkpt>
      <trkpt lat="48.04895" lon="17.0364">
        <ele>133.588746</ele>
        <time>2022-08-07T14:41:46.626Z</time>
      </trkpt>
      <trkpt lat="48.04848" lon="17.03714">
        <ele>133.645471</ele>
        <time>2022-08-07T14:42:05.169Z</time>
      </trkpt>
      <trkpt lat="48.047" lon="17.0392">
        <ele>134.354046</ele>
        <time>2022-08-07T14:43:03.878Z</time>
      </trkpt>
      <trkpt lat="48.04601" lon="17.04115">
        <ele>134.166045</ele>
        <time>2022-08-07T14:43:46.864Z</time>
      </trkpt>
      <trkpt lat="48.0459" lon="17.04173">
        <ele>134.056768</ele>
        <time>2022-08-07T14:43:57.159Z</time>
      </trkpt>
      <trkpt lat="48.04589" lon="17.04219">
        <ele>133.931475</ele>
        <time>2022-08-07T14:44:04.703Z</time>
      </trkpt>
      <trkpt lat="48.04585" lon="17.04405">
        <ele>133.424674</ele>
        <time>2022-08-07T14:44:35.689Z</time>
      </trkpt>
      <trkpt lat="48.04578" lon="17.04487">
        <ele>133.346072</ele>
        <time>2022-08-07T14:44:49.893Z</time>
      </trkpt>
      <trkpt lat="48.04664" lon="17.04506">
        <ele>133.23895</ele>
        <time>2022-08-07T14:45:12.795Z</time>
      </trkpt>
      <trkpt lat="48.05031" lon="17.04763">
        <ele>133.173619</ele>
        <time>2022-08-07T14:47:00.697Z</time>
      </trkpt>
      <trkpt lat="48.05057" lon="17.04781">
        <ele>133.233932</ele>
        <time>2022-08-07T14:47:08.482Z</time>
      </trkpt>
      <trkpt lat="48.05592" lon="17.05167">
        <ele>134.501682</ele>
        <time>2022-08-07T14:49:53.740Z</time>
      </trkpt>
      <trkpt lat="48.05798" lon="17.05304">
        <ele>134.851911</ele>
        <time>2022-08-07T14:50:55.903Z</time>
      </trkpt>
      <trkpt lat="48.06416" lon="17.05748">
        <ele>134.005891</ele>
        <time>2022-08-07T14:53:53.989Z</time>
      </trkpt>
      <trkpt lat="48.06427" lon="17.0575">
        <ele>133.999895</ele>
        <time>2022-08-07T14:53:57.044Z</time>
      </trkpt>
      <trkpt lat="48.06533" lon="17.05823">
        <ele>134.015307</ele>
        <time>2022-08-07T14:54:28.295Z</time>
      </trkpt>
      <trkpt lat="48.07319" lon="17.06383">
        <ele>135.073764</ele>
        <time>2022-08-07T14:58:25.698Z</time>
      </trkpt>
      <trkpt lat="48.07329" lon="17.06351">
        <ele>135.131839</ele>
        <time>2022-08-07T14:58:32.523Z</time>
      </trkpt>
      <trkpt lat="48.07334" lon="17.06338">
        <ele>135.156214</ele>
        <time>2022-08-07T14:58:35.416Z</time>
      </trkpt>
      <trkpt lat="48.07414" lon="17.06112">
        <ele>135.437267</ele>
        <time>2022-08-07T14:59:22.889Z</time>
      </trkpt>
      <trkpt lat="48.07454" lon="17.05995">
        <ele>135.365505</ele>
        <time>2022-08-07T14:59:45.497Z</time>
      </trkpt>
      <trkpt lat="48.07455" lon="17.05975">
        <ele>135.354401</ele>
        <time>2022-08-07T14:59:48.987Z</time>
      </trkpt>
      <trkpt lat="48.0745" lon="17.0596">
        <ele>135.34497</ele>
        <time>2022-08-07T14:59:52.032Z</time>
      </trkpt>
      <trkpt lat="48.0742" lon="17.05936">
        <ele>135.320325</ele>
        <time>2022-08-07T15:00:00.852Z</time>
      </trkpt>
      <trkpt lat="48.07419" lon="17.05925">
        <ele>135.316934</ele>
        <time>2022-08-07T15:00:02.762Z</time>
      </trkpt>
      <trkpt lat="48.07426" lon="17.05905">
        <ele>135.310054</ele>
        <time>2022-08-07T15:00:06.554Z</time>
      </trkpt>
      <trkpt lat="48.07572" lon="17.06048">
        <ele>135.179002</ele>
        <time>2022-08-07T15:00:53.247Z</time>
      </trkpt>
      <trkpt lat="48.07779" lon="17.06254">
        <ele>134.601852</ele>
        <time>2022-08-07T15:01:56.392Z</time>
      </trkpt>
      <trkpt lat="48.08047" lon="17.06514">
        <ele>134.489273</ele>
        <time>2022-08-07T15:03:20.370Z</time>
      </trkpt>
      <trkpt lat="48.08114" lon="17.06579">
        <ele>134.791669</ele>
        <time>2022-08-07T15:03:44.214Z</time>
      </trkpt>
      <trkpt lat="48.0818" lon="17.06643">
        <ele>134.968385</ele>
        <time>2022-08-07T15:04:07.264Z</time>
      </trkpt>
      <trkpt lat="48.08279" lon="17.06741">
        <ele>134.98008</ele>
        <time>2022-08-07T15:04:38.330Z</time>
      </trkpt>
      <trkpt lat="48.08318" lon="17.06798">
        <ele>134.988364</ele>
        <time>2022-08-07T15:04:51.966Z</time>
      </trkpt>
      <trkpt lat="48.0834" lon="17.06839">
        <ele>134.995666</ele>
        <time>2022-08-07T15:05:00.984Z</time>
      </trkpt>
      <trkpt lat="48.08384" lon="17.06821">
        <ele>135.005197</ele>
        <time>2022-08-07T15:05:13.198Z</time>
      </trkpt>
      <trkpt lat="48.08431" lon="17.06806">
        <ele>135.015026</ele>
        <time>2022-08-07T15:05:26.172Z</time>
      </trkpt>
      <trkpt lat="48.08498" lon="17.06785">
        <ele>135.323064</ele>
        <time>2022-08-07T15:05:46.386Z</time>
      </trkpt>
      <trkpt lat="48.08593" lon="17.06783">
        <ele>135.964301</ele>
        <time>2022-08-07T15:06:14.806Z</time>
      </trkpt>
      <trkpt lat="48.08676" lon="17.0677">
        <ele>136.548904</ele>
        <time>2022-08-07T15:06:40.615Z</time>
      </trkpt>
      <trkpt lat="48.08728" lon="17.06753">
        <ele>136.923843</ele>
        <time>2022-08-07T15:06:56.711Z</time>
      </trkpt>
      <trkpt lat="48.08779" lon="17.0674">
        <ele>137.289692</ele>
        <time>2022-08-07T15:07:12.370Z</time>
      </trkpt>
      <trkpt lat="48.08792" lon="17.06719">
        <ele>137.429894</ele>
        <time>2022-08-07T15:07:18.269Z</time>
      </trkpt>
      <trkpt lat="48.08923" lon="17.06663">
        <ele>137.927054</ele>
        <time>2022-08-07T15:07:57.579Z</time>
      </trkpt>
      <trkpt lat="48.08935" lon="17.06658">
        <ele>137.96583</ele>
        <time>2022-08-07T15:08:00.717Z</time>
      </trkpt>
      <trkpt lat="48.09114" lon="17.06574">
        <ele>138.024684</ele>
        <time>2022-08-07T15:08:51.329Z</time>
      </trkpt>
      <trkpt lat="48.09123" lon="17.06569">
        <ele>138.018744</ele>
        <time>2022-08-07T15:08:53.834Z</time>
      </trkpt>
      <trkpt lat="48.09133" lon="17.06599">
        <ele>138.005338</ele>
        <time>2022-08-07T15:08:59.469Z</time>
      </trkpt>
      <trkpt lat="48.09144" lon="17.06626">
        <ele>137.848903</ele>
        <time>2022-08-07T15:09:04.680Z</time>
      </trkpt>
      <trkpt lat="48.0916" lon="17.06664">
        <ele>137.55921</ele>
        <time>2022-08-07T15:09:11.845Z</time>
      </trkpt>
      <trkpt lat="48.09182" lon="17.06738">
        <ele>137.043051</ele>
        <time>2022-08-07T15:09:24.318Z</time>
      </trkpt>
      <trkpt lat="48.09183" lon="17.06744">
        <ele>137.003582</ele>
        <time>2022-08-07T15:09:25.272Z</time>
      </trkpt>
      <trkpt lat="48.09198" lon="17.06842">
        <ele>136.363918</ele>
        <time>2022-08-07T15:09:40.687Z</time>
      </trkpt>
      <trkpt lat="48.09201" lon="17.06858">
        <ele>136.253146</ele>
        <time>2022-08-07T15:09:43.112Z</time>
      </trkpt>
      <trkpt lat="48.09207" lon="17.06888">
        <ele>135.998876</ele>
        <time>2022-08-07T15:09:47.800Z</time>
      </trkpt>
      <trkpt lat="48.09217" lon="17.06936">
        <ele>135.593738</ele>
        <time>2022-08-07T15:09:55.137Z</time>
      </trkpt>
      <trkpt lat="48.09234" lon="17.06988">
        <ele>135.134435</ele>
        <time>2022-08-07T15:10:03.373Z</time>
      </trkpt>
      <trkpt lat="48.09255" lon="17.07045">
        <ele>134.606778</ele>
        <time>2022-08-07T15:10:13.195Z</time>
      </trkpt>
      <trkpt lat="48.09283" lon="17.07111">
        <ele>134.142433</ele>
        <time>2022-08-07T15:10:25.849Z</time>
      </trkpt>
      <trkpt lat="48.09313" lon="17.07187">
        <ele>134.227416</ele>
        <time>2022-08-07T15:10:41.634Z</time>
      </trkpt>
      <trkpt lat="48.0937" lon="17.0732">
        <ele>134.379996</ele>
        <time>2022-08-07T15:11:11.695Z</time>
      </trkpt>
      <trkpt lat="48.09419" lon="17.07429">
        <ele>134.708845</ele>
        <time>2022-08-07T15:11:38.107Z</time>
      </trkpt>
      <trkpt lat="48.09506" lon="17.07587">
        <ele>135.031115</ele>
        <time>2022-08-07T15:12:15.859Z</time>
      </trkpt>
      <trkpt lat="48.09528" lon="17.07618">
        <ele>135.000006</ele>
        <time>2022-08-07T15:12:23.370Z</time>
      </trkpt>
      <trkpt lat="48.09654" lon="17.07744">
        <ele>134.839794</ele>
        <time>2022-08-07T15:13:02.551Z</time>
      </trkpt>
      <trkpt lat="48.09703" lon="17.07792">
        <ele>134.776255</ele>
        <time>2022-08-07T15:13:17.728Z</time>
      </trkpt>
      <trkpt lat="48.09717" lon="17.07807">
        <ele>134.756774</ele>
        <time>2022-08-07T15:13:22.404Z</time>
      </trkpt>
      <trkpt lat="48.09746" lon="17.07835">
        <ele>134.719265</ele>
        <time>2022-08-07T15:13:31.568Z</time>
      </trkpt>
      <trkpt lat="48.10054" lon="17.0814">
        <ele>134.667044</ele>
        <time>2022-08-07T15:15:09.662Z</time>
      </trkpt>
      <trkpt lat="48.10172" lon="17.08267">
        <ele>134.905932</ele>
        <time>2022-08-07T15:15:49.833Z</time>
      </trkpt>
      <trkpt lat="48.10246" lon="17.0833">
        <ele>134.981882</ele>
        <time>2022-08-07T15:16:13.647Z</time>
      </trkpt>
      <trkpt lat="48.10298" lon="17.08372">
        <ele>134.948304</ele>
        <time>2022-08-07T15:16:29.412Z</time>
      </trkpt>
      <trkpt lat="48.103" lon="17.08373">
        <ele>134.94761</ele>
        <time>2022-08-07T15:16:29.721Z</time>
      </trkpt>
      <trkpt lat="48.10324" lon="17.08394">
        <ele>134.931435</ele>
        <time>2022-08-07T15:16:37.080Z</time>
      </trkpt>
      <trkpt lat="48.10426" lon="17.08479">
        <ele>134.798988</ele>
        <time>2022-08-07T15:17:07.101Z</time>
      </trkpt>
      <trkpt lat="48.10434" lon="17.08495">
        <ele>134.777192</ele>
        <time>2022-08-07T15:17:10.341Z</time>
      </trkpt>
      <trkpt lat="48.10447" lon="17.08507">
        <ele>134.750373</ele>
        <time>2022-08-07T15:17:14.341Z</time>
      </trkpt>
      <trkpt lat="48.10471" lon="17.08529">
        <ele>134.703064</ele>
        <time>2022-08-07T15:17:21.514Z</time>
      </trkpt>
      <trkpt lat="48.10489" lon="17.08552">
        <ele>134.664383</ele>
        <time>2022-08-07T15:17:27.469Z</time>
      </trkpt>
      <trkpt lat="48.10506" lon="17.08566">
        <ele>134.632231</ele>
        <time>2022-08-07T15:17:32.495Z</time>
      </trkpt>
      <trkpt lat="48.10526" lon="17.08572">
        <ele>134.598094</ele>
        <time>2022-08-07T15:17:38.024Z</time>
      </trkpt>
      <trkpt lat="48.10663" lon="17.08686">
        <ele>134.884739</ele>
        <time>2022-08-07T15:18:21.385Z</time>
      </trkpt>
      <trkpt lat="48.10689" lon="17.08709">
        <ele>134.926232</ele>
        <time>2022-08-07T15:18:29.891Z</time>
      </trkpt>
      <trkpt lat="48.10735" lon="17.08746">
        <ele>134.91706</ele>
        <time>2022-08-07T15:18:44.366Z</time>
      </trkpt>
      <trkpt lat="48.10855" lon="17.08844">
        <ele>134.841474</ele>
        <time>2022-08-07T15:19:20.261Z</time>
      </trkpt>
      <trkpt lat="48.10859" lon="17.08847">
        <ele>134.82557</ele>
        <time>2022-08-07T15:19:21.435Z</time>
      </trkpt>
      <trkpt lat="48.10861" lon="17.08841">
        <ele>134.810377</ele>
        <time>2022-08-07T15:19:22.629Z</time>
      </trkpt>
      <trkpt lat="48.10863" lon="17.08836">
        <ele>134.795596</ele>
        <time>2022-08-07T15:19:23.749Z</time>
      </trkpt>
      <trkpt lat="48.109" lon="17.08865">
        <ele>134.6548</ele>
        <time>2022-08-07T15:19:33.984Z</time>
      </trkpt>
      <trkpt lat="48.10949" lon="17.08906">
        <ele>134.461581</ele>
        <time>2022-08-07T15:19:47.948Z</time>
      </trkpt>
      <trkpt lat="48.10981" lon="17.08931">
        <ele>134.337937</ele>
        <time>2022-08-07T15:19:56.781Z</time>
      </trkpt>
      <trkpt lat="48.11128" lon="17.09053">
        <ele>134.321831</ele>
        <time>2022-08-07T15:20:41.357Z</time>
      </trkpt>
      <trkpt lat="48.11162" lon="17.09081">
        <ele>134.393212</ele>
        <time>2022-08-07T15:20:51.906Z</time>
      </trkpt>
      <trkpt lat="48.11175" lon="17.09091">
        <ele>134.486058</ele>
        <time>2022-08-07T15:20:56.008Z</time>
      </trkpt>
      <trkpt lat="48.11232" lon="17.09133">
        <ele>134.889548</ele>
        <time>2022-08-07T15:21:14.884Z</time>
      </trkpt>
      <trkpt lat="48.11238" lon="17.09138">
        <ele>134.931821</ele>
        <time>2022-08-07T15:21:17.053Z</time>
      </trkpt>
      <trkpt lat="48.11254" lon="17.09158">
        <ele>135.065774</ele>
        <time>2022-08-07T15:21:23.636Z</time>
      </trkpt>
      <trkpt lat="48.11282" lon="17.09179">
        <ele>135.263736</ele>
        <time>2022-08-07T15:21:33.627Z</time>
      </trkpt>
      <trkpt lat="48.11312" lon="17.09206">
        <ele>135.474567</ele>
        <time>2022-08-07T15:21:44.070Z</time>
      </trkpt>
      <trkpt lat="48.11351" lon="17.09238">
        <ele>135.596277</ele>
        <time>2022-08-07T15:21:57.174Z</time>
      </trkpt>
      <trkpt lat="48.11371" lon="17.09252">
        <ele>135.65448</ele>
        <time>2022-08-07T15:22:03.346Z</time>
      </trkpt>
      <trkpt lat="48.11369" lon="17.09259">
        <ele>135.668348</ele>
        <time>2022-08-07T15:22:05.084Z</time>
      </trkpt>
      <trkpt lat="48.11394" lon="17.09281">
        <ele>135.747611</ele>
        <time>2022-08-07T15:22:13.272Z</time>
      </trkpt>
      <trkpt lat="48.11398" lon="17.09272">
        <ele>135.76557</ele>
        <time>2022-08-07T15:22:15.568Z</time>
      </trkpt>
      <trkpt lat="48.11437" lon="17.09305">
        <ele>135.886864</ele>
        <time>2022-08-07T15:22:28.157Z</time>
      </trkpt>
      <trkpt lat="48.11443" lon="17.0931">
        <ele>135.904136</ele>
        <time>2022-08-07T15:22:29.865Z</time>
      </trkpt>
      <trkpt lat="48.1144" lon="17.09319">
        <ele>135.922318</ele>
        <time>2022-08-07T15:22:31.920Z</time>
      </trkpt>
      <trkpt lat="48.11438" lon="17.09326">
        <ele>135.936348</ele>
        <time>2022-08-07T15:22:33.530Z</time>
      </trkpt>
      <trkpt lat="48.1149" lon="17.0937">
        <ele>135.971727</ele>
        <time>2022-08-07T15:22:53.885Z</time>
      </trkpt>
      <trkpt lat="48.11539" lon="17.09416">
        <ele>135.991939</ele>
        <time>2022-08-07T15:23:13.415Z</time>
      </trkpt>
      <trkpt lat="48.11605" lon="17.09452">
        <ele>136.023975</ele>
        <time>2022-08-07T15:23:38.596Z</time>
      </trkpt>
      <trkpt lat="48.11688" lon="17.09498">
        <ele>136.412178</ele>
        <time>2022-08-07T15:24:13.095Z</time>
      </trkpt>
      <trkpt lat="48.1175" lon="17.09532">
        <ele>136.700237</ele>
        <time>2022-08-07T15:24:37.557Z</time>
      </trkpt>
      <trkpt lat="48.11772" lon="17.09544">
        <ele>136.799272</ele>
        <time>2022-08-07T15:24:46.013Z</time>
      </trkpt>
      <trkpt lat="48.11821" lon="17.09571">
        <ele>136.805132</ele>
        <time>2022-08-07T15:25:04.283Z</time>
      </trkpt>
      <trkpt lat="48.11827" lon="17.09575">
        <ele>136.805828</ele>
        <time>2022-08-07T15:25:06.489Z</time>
      </trkpt>
      <trkpt lat="48.11851" lon="17.0959">
        <ele>136.808738</ele>
        <time>2022-08-07T15:25:15.681Z</time>
      </trkpt>
      <trkpt lat="48.11862" lon="17.09596">
        <ele>136.810119</ele>
        <time>2022-08-07T15:25:20.044Z</time>
      </trkpt>
      <trkpt lat="48.11889" lon="17.09609">
        <ele>136.813313</ele>
        <time>2022-08-07T15:25:29.947Z</time>
      </trkpt>
      <trkpt lat="48.1194" lon="17.09645">
        <ele>136.821751</ele>
        <time>2022-08-07T15:25:48.948Z</time>
      </trkpt>
      <trkpt lat="48.12095" lon="17.09775">
        <ele>137.105687</ele>
        <time>2022-08-07T15:26:53.197Z</time>
      </trkpt>
      <trkpt lat="48.12111" lon="17.09796">
        <ele>137.135608</ele>
        <time>2022-08-07T15:27:00.770Z</time>
      </trkpt>
      <trkpt lat="48.12118" lon="17.09804">
        <ele>137.148163</ele>
        <time>2022-08-07T15:27:03.823Z</time>
      </trkpt>
      <trkpt lat="48.12126" lon="17.09811">
        <ele>137.162106</ele>
        <time>2022-08-07T15:27:07.329Z</time>
      </trkpt>
      <trkpt lat="48.12131" lon="17.09805">
        <ele>137.171016</ele>
        <time>2022-08-07T15:27:09.539Z</time>
      </trkpt>
      <trkpt lat="48.12173" lon="17.09839">
        <ele>137.239385</ele>
        <time>2022-08-07T15:27:26.463Z</time>
      </trkpt>
      <trkpt lat="48.12175" lon="17.09841">
        <ele>137.243828</ele>
        <time>2022-08-07T15:27:27.438Z</time>
      </trkpt>
      <trkpt lat="48.12179" lon="17.09844">
        <ele>137.250083</ele>
        <time>2022-08-07T15:27:29.056Z</time>
      </trkpt>
      <trkpt lat="48.1222" lon="17.09875">
        <ele>137.315788</ele>
        <time>2022-08-07T15:27:45.548Z</time>
      </trkpt>
      <trkpt lat="48.1224" lon="17.09891">
        <ele>137.349076</ele>
        <time>2022-08-07T15:27:53.729Z</time>
      </trkpt>
      <trkpt lat="48.12263" lon="17.0991">
        <ele>137.361191</ele>
        <time>2022-08-07T15:28:03.042Z</time>
      </trkpt>
      <trkpt lat="48.12272" lon="17.09912">
        <ele>137.358009</ele>
        <time>2022-08-07T15:28:09.447Z</time>
      </trkpt>
      <trkpt lat="48.12362" lon="17.09922">
        <ele>137.326657</ele>
        <time>2022-08-07T15:28:33.715Z</time>
      </trkpt>
      <trkpt lat="48.12378" lon="17.09923">
        <ele>137.321009</ele>
        <time>2022-08-07T15:28:37.869Z</time>
      </trkpt>
      <trkpt lat="48.12403" lon="17.09924">
        <ele>137.312555</ele>
        <time>2022-08-07T15:28:43.988Z</time>
      </trkpt>
      <trkpt lat="48.1243" lon="17.09927">
        <ele>137.318602</ele>
        <time>2022-08-07T15:28:50.966Z</time>
      </trkpt>
      <trkpt lat="48.12442" lon="17.09928">
        <ele>137.425786</ele>
        <time>2022-08-07T15:28:54.227Z</time>
      </trkpt>
      <trkpt lat="48.12455" lon="17.0993">
        <ele>137.536785</ele>
        <time>2022-08-07T15:28:57.607Z</time>
      </trkpt>
      <trkpt lat="48.12461" lon="17.09931">
        <ele>137.590785</ele>
        <time>2022-08-07T15:28:59.190Z</time>
      </trkpt>
      <trkpt lat="48.12468" lon="17.09931">
        <ele>137.644725</ele>
        <time>2022-08-07T15:29:00.879Z</time>
      </trkpt>
      <trkpt lat="48.12488" lon="17.09933">
        <ele>137.817732</ele>
        <time>2022-08-07T15:29:06.451Z</time>
      </trkpt>
      <trkpt lat="48.12525" lon="17.09935">
        <ele>138.13197</ele>
        <time>2022-08-07T15:29:17.723Z</time>
      </trkpt>
      <trkpt lat="48.12537" lon="17.09936">
        <ele>138.236487</ele>
        <time>2022-08-07T15:29:21.763Z</time>
      </trkpt>
      <trkpt lat="48.12547" lon="17.09937">
        <ele>138.323005</ele>
        <time>2022-08-07T15:29:25.436Z</time>
      </trkpt>
      <trkpt lat="48.12564" lon="17.09939">
        <ele>138.469604</ele>
        <time>2022-08-07T15:29:31.692Z</time>
      </trkpt>
      <trkpt lat="48.12601" lon="17.09942">
        <ele>138.784215</ele>
        <time>2022-08-07T15:29:44.899Z</time>
      </trkpt>
      <trkpt lat="48.12604" lon="17.09943">
        <ele>138.814242</ele>
        <time>2022-08-07T15:29:46.140Z</time>
      </trkpt>
      <trkpt lat="48.12638" lon="17.09946">
        <ele>139.169183</ele>
        <time>2022-08-07T15:29:57.864Z</time>
      </trkpt>
      <trkpt lat="48.12642" lon="17.09946">
        <ele>139.206203</ele>
        <time>2022-08-07T15:29:58.985Z</time>
      </trkpt>
      <trkpt lat="48.12648" lon="17.09947">
        <ele>139.266336</ele>
        <time>2022-08-07T15:30:00.795Z</time>
      </trkpt>
      <trkpt lat="48.12657" lon="17.09948">
        <ele>139.362745</ele>
        <time>2022-08-07T15:30:03.725Z</time>
      </trkpt>
      <trkpt lat="48.12687" lon="17.0995">
        <ele>139.67858</ele>
        <time>2022-08-07T15:30:13.081Z</time>
      </trkpt>
      <trkpt lat="48.12711" lon="17.09952">
        <ele>139.931078</ele>
        <time>2022-08-07T15:30:20.280Z</time>
      </trkpt>
      <trkpt lat="48.12715" lon="17.09953">
        <ele>139.978621</ele>
        <time>2022-08-07T15:30:21.491Z</time>
      </trkpt>
      <trkpt lat="48.12728" lon="17.09954">
        <ele>140.116999</ele>
        <time>2022-08-07T15:30:25.409Z</time>
      </trkpt>
      <trkpt lat="48.12749" lon="17.09956">
        <ele>140.338841</ele>
        <time>2022-08-07T15:30:32.696Z</time>
      </trkpt>
      <trkpt lat="48.12774" lon="17.09959">
        <ele>140.604294</ele>
        <time>2022-08-07T15:30:41.449Z</time>
      </trkpt>
      <trkpt lat="48.12785" lon="17.0996">
        <ele>140.715304</ele>
        <time>2022-08-07T15:30:45.276Z</time>
      </trkpt>
      <trkpt lat="48.128" lon="17.09963">
        <ele>140.764231</ele>
        <time>2022-08-07T15:30:50.646Z</time>
      </trkpt>
      <trkpt lat="48.12809" lon="17.09963">
        <ele>140.780786</ele>
        <time>2022-08-07T15:30:54.356Z</time>
      </trkpt>
      <trkpt lat="48.12833" lon="17.09964">
        <ele>140.823611</ele>
        <time>2022-08-07T15:31:01.730Z</time>
      </trkpt>
      <trkpt lat="48.1284" lon="17.09964">
        <ele>140.837219</ele>
        <time>2022-08-07T15:31:04.098Z</time>
      </trkpt>
      <trkpt lat="48.12862" lon="17.09966">
        <ele>140.876798</ele>
        <time>2022-08-07T15:31:10.130Z</time>
      </trkpt>
      <trkpt lat="48.12867" lon="17.09975">
        <ele>140.891447</ele>
        <time>2022-08-07T15:31:11.912Z</time>
      </trkpt>
      <trkpt lat="48.1288" lon="17.09993">
        <ele>140.923563</ele>
        <time>2022-08-07T15:31:16.805Z</time>
      </trkpt>
      <trkpt lat="48.12928" lon="17.10017">
        <ele>141.017236</ele>
        <time>2022-08-07T15:31:29.573Z</time>
      </trkpt>
      <trkpt lat="48.12951" lon="17.10023">
        <ele>141.059278</ele>
        <time>2022-08-07T15:31:35.822Z</time>
      </trkpt>
      <trkpt lat="48.12959" lon="17.10022">
        <ele>141.058774</ele>
        <time>2022-08-07T15:31:38.475Z</time>
      </trkpt>
      <trkpt lat="48.12963" lon="17.1001">
        <ele>141.018799</ele>
        <time>2022-08-07T15:31:41.181Z</time>
      </trkpt>
      <trkpt lat="48.12962" lon="17.0999">
        <ele>140.955165</ele>
        <time>2022-08-07T15:31:46.541Z</time>
      </trkpt>
      <trkpt lat="48.12962" lon="17.09968">
        <ele>140.886594</ele>
        <time>2022-08-07T15:31:51.857Z</time>
      </trkpt>
      <trkpt lat="48.12962" lon="17.09952">
        <ele>140.838358</ele>
        <time>2022-08-07T15:31:54.857Z</time>
      </trkpt>
      <trkpt lat="48.1299" lon="17.09914">
        <ele>140.664913</ele>
        <time>2022-08-07T15:32:06.154Z</time>
      </trkpt>
      <trkpt lat="48.13014" lon="17.09916">
        <ele>140.554628</ele>
        <time>2022-08-07T15:32:12.337Z</time>
      </trkpt>
      <trkpt lat="48.13031" lon="17.09918">
        <ele>140.474243</ele>
        <time>2022-08-07T15:32:16.323Z</time>
      </trkpt>
      <trkpt lat="48.13057" lon="17.09923">
        <ele>140.353155</ele>
        <time>2022-08-07T15:32:24.379Z</time>
      </trkpt>
      <trkpt lat="48.13065" lon="17.09924">
        <ele>140.313799</ele>
        <time>2022-08-07T15:32:26.816Z</time>
      </trkpt>
      <trkpt lat="48.13074" lon="17.09924">
        <ele>140.272117</ele>
        <time>2022-08-07T15:32:29.420Z</time>
      </trkpt>
      <trkpt lat="48.1308" lon="17.09925">
        <ele>140.248511</ele>
        <time>2022-08-07T15:32:30.900Z</time>
      </trkpt>
      <trkpt lat="48.13084" lon="17.09925">
        <ele>140.217441</ele>
        <time>2022-08-07T15:32:32.173Z</time>
      </trkpt>
      <trkpt lat="48.13094" lon="17.09941">
        <ele>140.066098</ele>
        <time>2022-08-07T15:32:35.604Z</time>
      </trkpt>
      <trkpt lat="48.13094" lon="17.09947">
        <ele>140.029608</ele>
        <time>2022-08-07T15:32:36.354Z</time>
      </trkpt>
      <trkpt lat="48.13094" lon="17.09956">
        <ele>139.963289</ele>
        <time>2022-08-07T15:32:37.797Z</time>
      </trkpt>
      <trkpt lat="48.131" lon="17.09959">
        <ele>139.902738</ele>
        <time>2022-08-07T15:32:39.120Z</time>
      </trkpt>
      <trkpt lat="48.1315" lon="17.09961">
        <ele>139.391377</ele>
        <time>2022-08-07T15:32:50.484Z</time>
      </trkpt>
      <trkpt lat="48.13159" lon="17.09969">
        <ele>139.284489</ele>
        <time>2022-08-07T15:32:53.847Z</time>
      </trkpt>
      <trkpt lat="48.13158" lon="17.09988">
        <ele>139.1547</ele>
        <time>2022-08-07T15:32:58.099Z</time>
      </trkpt>
      <trkpt lat="48.13157" lon="17.09987">
        <ele>139.143486</ele>
        <time>2022-08-07T15:32:58.477Z</time>
      </trkpt>
      <trkpt lat="48.13155" lon="17.09981">
        <ele>139.097955</ele>
        <time>2022-08-07T15:33:00.014Z</time>
      </trkpt>
      <trkpt lat="48.13229" lon="17.09988">
        <ele>138.369036</ele>
        <time>2022-08-07T15:33:18.973Z</time>
      </trkpt>
      <trkpt lat="48.13235" lon="17.0999">
        <ele>138.327537</ele>
        <time>2022-08-07T15:33:20.346Z</time>
      </trkpt>
      <trkpt lat="48.13227" lon="17.1002">
        <ele>138.173189</ele>
        <time>2022-08-07T15:33:25.341Z</time>
      </trkpt>
      <trkpt lat="48.13226" lon="17.10052">
        <ele>138.022604</ele>
        <time>2022-08-07T15:33:30.089Z</time>
      </trkpt>
      <trkpt lat="48.13224" lon="17.10089">
        <ele>137.842459</ele>
        <time>2022-08-07T15:33:35.875Z</time>
      </trkpt>
      <trkpt lat="48.13221" lon="17.10099">
        <ele>137.78757</ele>
        <time>2022-08-07T15:33:37.724Z</time>
      </trkpt>
      <trkpt lat="48.1322" lon="17.10113">
        <ele>137.723113</ele>
        <time>2022-08-07T15:33:39.983Z</time>
      </trkpt>
      <trkpt lat="48.13216" lon="17.10242">
        <ele>137.114677</ele>
        <time>2022-08-07T15:34:02.211Z</time>
      </trkpt>
      <trkpt lat="48.13225" lon="17.10281">
        <ele>136.983704</ele>
        <time>2022-08-07T15:34:09.188Z</time>
      </trkpt>
      <trkpt lat="48.13253" lon="17.10329">
        <ele>136.779161</ele>
        <time>2022-08-07T15:34:19.886Z</time>
      </trkpt>
      <trkpt lat="48.1332" lon="17.10391">
        <ele>136.399892</ele>
        <time>2022-08-07T15:34:39.891Z</time>
      </trkpt>
      <trkpt lat="48.13353" lon="17.10413">
        <ele>136.312584</ele>
        <time>2022-08-07T15:34:49.606Z</time>
      </trkpt>
      <trkpt lat="48.1342" lon="17.10439">
        <ele>136.676779</ele>
        <time>2022-08-07T15:35:09.707Z</time>
      </trkpt>
      <trkpt lat="48.13476" lon="17.10442">
        <ele>136.974907</ele>
        <time>2022-08-07T15:35:27.319Z</time>
      </trkpt>
      <trkpt lat="48.13521" lon="17.10434">
        <ele>137.212188</ele>
        <time>2022-08-07T15:35:42.403Z</time>
      </trkpt>
      <trkpt lat="48.13549" lon="17.10448">
        <ele>137.440581</ele>
        <time>2022-08-07T15:35:52.042Z</time>
      </trkpt>
      <trkpt lat="48.13622" lon="17.10445">
        <ele>138.020791</ele>
        <time>2022-08-07T15:36:15.991Z</time>
      </trkpt>
      <trkpt lat="48.13648" lon="17.10441">
        <ele>138.219104</ele>
        <time>2022-08-07T15:36:24.347Z</time>
      </trkpt>
      <trkpt lat="48.13648" lon="17.10448">
        <ele>138.25286</ele>
        <time>2022-08-07T15:36:26.048Z</time>
      </trkpt>
      <trkpt lat="48.13649" lon="17.1046">
        <ele>138.315145</ele>
        <time>2022-08-07T15:36:28.404Z</time>
      </trkpt>
      <trkpt lat="48.13641" lon="17.1046">
        <ele>138.375756</ele>
        <time>2022-08-07T15:36:30.739Z</time>
      </trkpt>
      <trkpt lat="48.13641" lon="17.1045">
        <ele>138.426169</ele>
        <time>2022-08-07T15:36:32.828Z</time>
      </trkpt>
      <trkpt lat="48.13928" lon="17.10433">
        <ele>138.629191</ele>
        <time>2022-08-07T15:37:47.725Z</time>
      </trkpt>
    </trkseg>
  </trk>
</gpx>